<?xml version="1.0" encoding="UTF-8" standalone="no" ?>
<gpx xmlns="http://www.topografix.com/GPX/1/1" xmlns:xsi="http://www.w3.org/2001/XMLSchema-instance" xsi:schemaLocation="http://www.topografix.com/GPX/1/1 http://www.topografix.com/GPX/1/1/gpx.xsd" version="1.1" creator="VisuGPX - https://www.visugpx.com">
  <metadata>
    <name>2018-08-26 Bike ride-Amberieux en Dombes O via Toussieux v42k</name>
    <desc><![CDATA[2018-08-26 Bike ride-Amberieux en Dombes O via Toussieux v42k]]></desc>
  </metadata>
  <wpt lat="45.92457" lon="4.73714">
    <ele>174</ele>
    <name><![CDATA[2018-08-26 10:14 (Start)]]></name>
  </wpt>
  <wpt lat="45.92464" lon="4.73707">
    <ele>174</ele>
    <name><![CDATA[2018-08-26 10:14 (End)]]></name>
  </wpt>
  <trk>
    <name><![CDATA[2018-08-26 10:14]]></name>
    <trkseg>
      <trkpt lat="45.92457" lon="4.73714">
        <ele>174</ele>
        <time>2018-08-26T08:14:42.009Z</time>
      </trkpt>
      <trkpt lat="45.92466" lon="4.73717">
        <ele>174</ele>
        <time>2018-08-26T08:14:55Z</time>
      </trkpt>
      <trkpt lat="45.92467" lon="4.73717">
        <ele>174</ele>
        <time>2018-08-26T08:14:56Z</time>
      </trkpt>
      <trkpt lat="45.92468" lon="4.73704">
        <ele>174</ele>
        <time>2018-08-26T08:15:21Z</time>
      </trkpt>
      <trkpt lat="45.92469" lon="4.737">
        <ele>174</ele>
        <time>2018-08-26T08:15:22Z</time>
      </trkpt>
      <trkpt lat="45.92469" lon="4.73688">
        <ele>174</ele>
        <time>2018-08-26T08:15:25Z</time>
      </trkpt>
      <trkpt lat="45.92469" lon="4.73684">
        <ele>174</ele>
        <time>2018-08-26T08:15:26Z</time>
      </trkpt>
      <trkpt lat="45.92469" lon="4.73675">
        <ele>174</ele>
        <time>2018-08-26T08:15:28Z</time>
      </trkpt>
      <trkpt lat="45.92469" lon="4.73671">
        <ele>174</ele>
        <time>2018-08-26T08:15:29Z</time>
      </trkpt>
      <trkpt lat="45.92471" lon="4.73658">
        <ele>174</ele>
        <time>2018-08-26T08:15:30Z</time>
      </trkpt>
      <trkpt lat="45.92471" lon="4.73656">
        <ele>174</ele>
        <time>2018-08-26T08:15:31Z</time>
      </trkpt>
      <trkpt lat="45.92473" lon="4.73651">
        <ele>174</ele>
        <time>2018-08-26T08:15:33Z</time>
      </trkpt>
      <trkpt lat="45.92477" lon="4.73644">
        <ele>174</ele>
        <time>2018-08-26T08:15:34Z</time>
      </trkpt>
      <trkpt lat="45.92485" lon="4.73642">
        <ele>174</ele>
        <time>2018-08-26T08:15:36Z</time>
      </trkpt>
      <trkpt lat="45.92487" lon="4.73643">
        <ele>174</ele>
        <time>2018-08-26T08:15:37Z</time>
      </trkpt>
      <trkpt lat="45.92496" lon="4.73645">
        <ele>174</ele>
        <time>2018-08-26T08:15:39Z</time>
      </trkpt>
      <trkpt lat="45.925" lon="4.73644">
        <ele>174</ele>
        <time>2018-08-26T08:15:40Z</time>
      </trkpt>
      <trkpt lat="45.92508" lon="4.73643">
        <ele>174</ele>
        <time>2018-08-26T08:15:42Z</time>
      </trkpt>
      <trkpt lat="45.92512" lon="4.73643">
        <ele>174</ele>
        <time>2018-08-26T08:15:43Z</time>
      </trkpt>
      <trkpt lat="45.92517" lon="4.73642">
        <ele>174</ele>
        <time>2018-08-26T08:15:44Z</time>
      </trkpt>
      <trkpt lat="45.92524" lon="4.7364">
        <ele>173</ele>
        <time>2018-08-26T08:15:45Z</time>
      </trkpt>
      <trkpt lat="45.92532" lon="4.73639">
        <ele>173</ele>
        <time>2018-08-26T08:15:47Z</time>
      </trkpt>
      <trkpt lat="45.92536" lon="4.73638">
        <ele>173</ele>
        <time>2018-08-26T08:15:48Z</time>
      </trkpt>
      <trkpt lat="45.92541" lon="4.73637">
        <ele>173</ele>
        <time>2018-08-26T08:15:49Z</time>
      </trkpt>
      <trkpt lat="45.92546" lon="4.73637">
        <ele>173</ele>
        <time>2018-08-26T08:15:50Z</time>
      </trkpt>
      <trkpt lat="45.9255" lon="4.73636">
        <ele>173</ele>
        <time>2018-08-26T08:15:51Z</time>
      </trkpt>
      <trkpt lat="45.92555" lon="4.73635">
        <ele>173</ele>
        <time>2018-08-26T08:15:52Z</time>
      </trkpt>
      <trkpt lat="45.92559" lon="4.73634">
        <ele>173</ele>
        <time>2018-08-26T08:15:53Z</time>
      </trkpt>
      <trkpt lat="45.92565" lon="4.73633">
        <ele>173</ele>
        <time>2018-08-26T08:15:54Z</time>
      </trkpt>
      <trkpt lat="45.92568" lon="4.73632">
        <ele>173</ele>
        <time>2018-08-26T08:15:55Z</time>
      </trkpt>
      <trkpt lat="45.92574" lon="4.73629">
        <ele>173</ele>
        <time>2018-08-26T08:15:56Z</time>
      </trkpt>
      <trkpt lat="45.92579" lon="4.73628">
        <ele>173</ele>
        <time>2018-08-26T08:15:57Z</time>
      </trkpt>
      <trkpt lat="45.92584" lon="4.73627">
        <ele>172</ele>
        <time>2018-08-26T08:15:58Z</time>
      </trkpt>
      <trkpt lat="45.92592" lon="4.73625">
        <ele>172</ele>
        <time>2018-08-26T08:15:59Z</time>
      </trkpt>
      <trkpt lat="45.92596" lon="4.73626">
        <ele>173</ele>
        <time>2018-08-26T08:16:00Z</time>
      </trkpt>
      <trkpt lat="45.92602" lon="4.73626">
        <ele>173</ele>
        <time>2018-08-26T08:16:01Z</time>
      </trkpt>
      <trkpt lat="45.92606" lon="4.73628">
        <ele>173</ele>
        <time>2018-08-26T08:16:02Z</time>
      </trkpt>
      <trkpt lat="45.92612" lon="4.7363">
        <ele>173</ele>
        <time>2018-08-26T08:16:03Z</time>
      </trkpt>
      <trkpt lat="45.92615" lon="4.73633">
        <ele>173</ele>
        <time>2018-08-26T08:16:04Z</time>
      </trkpt>
      <trkpt lat="45.92621" lon="4.73639">
        <ele>173</ele>
        <time>2018-08-26T08:16:05Z</time>
      </trkpt>
      <trkpt lat="45.92626" lon="4.73644">
        <ele>173</ele>
        <time>2018-08-26T08:16:06Z</time>
      </trkpt>
      <trkpt lat="45.92627" lon="4.73651">
        <ele>173</ele>
        <time>2018-08-26T08:16:07Z</time>
      </trkpt>
      <trkpt lat="45.92631" lon="4.73657">
        <ele>173</ele>
        <time>2018-08-26T08:16:08Z</time>
      </trkpt>
      <trkpt lat="45.92632" lon="4.73663">
        <ele>173</ele>
        <time>2018-08-26T08:16:09Z</time>
      </trkpt>
      <trkpt lat="45.92635" lon="4.73669">
        <ele>173</ele>
        <time>2018-08-26T08:16:10Z</time>
      </trkpt>
      <trkpt lat="45.92638" lon="4.73675">
        <ele>173</ele>
        <time>2018-08-26T08:16:11Z</time>
      </trkpt>
      <trkpt lat="45.92641" lon="4.73681">
        <ele>173</ele>
        <time>2018-08-26T08:16:12Z</time>
      </trkpt>
      <trkpt lat="45.92645" lon="4.73686">
        <ele>173</ele>
        <time>2018-08-26T08:16:13Z</time>
      </trkpt>
      <trkpt lat="45.92649" lon="4.7369">
        <ele>173</ele>
        <time>2018-08-26T08:16:14Z</time>
      </trkpt>
      <trkpt lat="45.92653" lon="4.73694">
        <ele>173</ele>
        <time>2018-08-26T08:16:15Z</time>
      </trkpt>
      <trkpt lat="45.92658" lon="4.73699">
        <ele>173</ele>
        <time>2018-08-26T08:16:16Z</time>
      </trkpt>
      <trkpt lat="45.92662" lon="4.73701">
        <ele>173</ele>
        <time>2018-08-26T08:16:17Z</time>
      </trkpt>
      <trkpt lat="45.92667" lon="4.73705">
        <ele>173</ele>
        <time>2018-08-26T08:16:18Z</time>
      </trkpt>
      <trkpt lat="45.92672" lon="4.73709">
        <ele>174</ele>
        <time>2018-08-26T08:16:19Z</time>
      </trkpt>
      <trkpt lat="45.92676" lon="4.73709">
        <ele>173</ele>
        <time>2018-08-26T08:16:20Z</time>
      </trkpt>
      <trkpt lat="45.9268" lon="4.73713">
        <ele>173</ele>
        <time>2018-08-26T08:16:21Z</time>
      </trkpt>
      <trkpt lat="45.92686" lon="4.73714">
        <ele>173</ele>
        <time>2018-08-26T08:16:22Z</time>
      </trkpt>
      <trkpt lat="45.92691" lon="4.73716">
        <ele>173</ele>
        <time>2018-08-26T08:16:23Z</time>
      </trkpt>
      <trkpt lat="45.92697" lon="4.73716">
        <ele>173</ele>
        <time>2018-08-26T08:16:24Z</time>
      </trkpt>
      <trkpt lat="45.92702" lon="4.73718">
        <ele>173</ele>
        <time>2018-08-26T08:16:25Z</time>
      </trkpt>
      <trkpt lat="45.92706" lon="4.73719">
        <ele>173</ele>
        <time>2018-08-26T08:16:26Z</time>
      </trkpt>
      <trkpt lat="45.92711" lon="4.7372">
        <ele>173</ele>
        <time>2018-08-26T08:16:27Z</time>
      </trkpt>
      <trkpt lat="45.92717" lon="4.73721">
        <ele>173</ele>
        <time>2018-08-26T08:16:28Z</time>
      </trkpt>
      <trkpt lat="45.92723" lon="4.73721">
        <ele>173</ele>
        <time>2018-08-26T08:16:29Z</time>
      </trkpt>
      <trkpt lat="45.92727" lon="4.73723">
        <ele>173</ele>
        <time>2018-08-26T08:16:30Z</time>
      </trkpt>
      <trkpt lat="45.92733" lon="4.73724">
        <ele>173</ele>
        <time>2018-08-26T08:16:31Z</time>
      </trkpt>
      <trkpt lat="45.92737" lon="4.73724">
        <ele>173</ele>
        <time>2018-08-26T08:16:32Z</time>
      </trkpt>
      <trkpt lat="45.92746" lon="4.73724">
        <ele>173</ele>
        <time>2018-08-26T08:16:34Z</time>
      </trkpt>
      <trkpt lat="45.92752" lon="4.73726">
        <ele>172</ele>
        <time>2018-08-26T08:16:35Z</time>
      </trkpt>
      <trkpt lat="45.9276" lon="4.73732">
        <ele>172</ele>
        <time>2018-08-26T08:16:37Z</time>
      </trkpt>
      <trkpt lat="45.92762" lon="4.73733">
        <ele>172</ele>
        <time>2018-08-26T08:16:38Z</time>
      </trkpt>
      <trkpt lat="45.9277" lon="4.73737">
        <ele>172</ele>
        <time>2018-08-26T08:16:40Z</time>
      </trkpt>
      <trkpt lat="45.92773" lon="4.73738">
        <ele>172</ele>
        <time>2018-08-26T08:16:41Z</time>
      </trkpt>
      <trkpt lat="45.92779" lon="4.73744">
        <ele>172</ele>
        <time>2018-08-26T08:16:45Z</time>
      </trkpt>
      <trkpt lat="45.92779" lon="4.73747">
        <ele>172</ele>
        <time>2018-08-26T08:16:46Z</time>
      </trkpt>
      <trkpt lat="45.92784" lon="4.73755">
        <ele>173</ele>
        <time>2018-08-26T08:16:47Z</time>
      </trkpt>
      <trkpt lat="45.92791" lon="4.73757">
        <ele>173</ele>
        <time>2018-08-26T08:16:48Z</time>
      </trkpt>
      <trkpt lat="45.92795" lon="4.73759">
        <ele>173</ele>
        <time>2018-08-26T08:16:49Z</time>
      </trkpt>
      <trkpt lat="45.92799" lon="4.73762">
        <ele>173</ele>
        <time>2018-08-26T08:16:50Z</time>
      </trkpt>
      <trkpt lat="45.92804" lon="4.73765">
        <ele>173</ele>
        <time>2018-08-26T08:16:51Z</time>
      </trkpt>
      <trkpt lat="45.92809" lon="4.73768">
        <ele>173</ele>
        <time>2018-08-26T08:16:52Z</time>
      </trkpt>
      <trkpt lat="45.92813" lon="4.73771">
        <ele>173</ele>
        <time>2018-08-26T08:16:53Z</time>
      </trkpt>
      <trkpt lat="45.92818" lon="4.73774">
        <ele>173</ele>
        <time>2018-08-26T08:16:54Z</time>
      </trkpt>
      <trkpt lat="45.92824" lon="4.73777">
        <ele>173</ele>
        <time>2018-08-26T08:16:55Z</time>
      </trkpt>
      <trkpt lat="45.92829" lon="4.73779">
        <ele>173</ele>
        <time>2018-08-26T08:16:56Z</time>
      </trkpt>
      <trkpt lat="45.92835" lon="4.73784">
        <ele>173</ele>
        <time>2018-08-26T08:16:57Z</time>
      </trkpt>
      <trkpt lat="45.92839" lon="4.73787">
        <ele>173</ele>
        <time>2018-08-26T08:16:58Z</time>
      </trkpt>
      <trkpt lat="45.92844" lon="4.7379">
        <ele>173</ele>
        <time>2018-08-26T08:16:59Z</time>
      </trkpt>
      <trkpt lat="45.92848" lon="4.73796">
        <ele>173</ele>
        <time>2018-08-26T08:17:00Z</time>
      </trkpt>
      <trkpt lat="45.92851" lon="4.73801">
        <ele>173</ele>
        <time>2018-08-26T08:17:01Z</time>
      </trkpt>
      <trkpt lat="45.92852" lon="4.73809">
        <ele>173</ele>
        <time>2018-08-26T08:17:02Z</time>
      </trkpt>
      <trkpt lat="45.92853" lon="4.73816">
        <ele>173</ele>
        <time>2018-08-26T08:17:03Z</time>
      </trkpt>
      <trkpt lat="45.92857" lon="4.73823">
        <ele>173</ele>
        <time>2018-08-26T08:17:04Z</time>
      </trkpt>
      <trkpt lat="45.92858" lon="4.7383">
        <ele>173</ele>
        <time>2018-08-26T08:17:05Z</time>
      </trkpt>
      <trkpt lat="45.92861" lon="4.73837">
        <ele>173</ele>
        <time>2018-08-26T08:17:06Z</time>
      </trkpt>
      <trkpt lat="45.92863" lon="4.73844">
        <ele>173</ele>
        <time>2018-08-26T08:17:07Z</time>
      </trkpt>
      <trkpt lat="45.92863" lon="4.73852">
        <ele>173</ele>
        <time>2018-08-26T08:17:08Z</time>
      </trkpt>
      <trkpt lat="45.92866" lon="4.7386">
        <ele>173</ele>
        <time>2018-08-26T08:17:09Z</time>
      </trkpt>
      <trkpt lat="45.92868" lon="4.73868">
        <ele>173</ele>
        <time>2018-08-26T08:17:10Z</time>
      </trkpt>
      <trkpt lat="45.92871" lon="4.73874">
        <ele>173</ele>
        <time>2018-08-26T08:17:11Z</time>
      </trkpt>
      <trkpt lat="45.92875" lon="4.73881">
        <ele>173</ele>
        <time>2018-08-26T08:17:12Z</time>
      </trkpt>
      <trkpt lat="45.92874" lon="4.73888">
        <ele>173</ele>
        <time>2018-08-26T08:17:13Z</time>
      </trkpt>
      <trkpt lat="45.92874" lon="4.73897">
        <ele>173</ele>
        <time>2018-08-26T08:17:14Z</time>
      </trkpt>
      <trkpt lat="45.92877" lon="4.73903">
        <ele>173</ele>
        <time>2018-08-26T08:17:15Z</time>
      </trkpt>
      <trkpt lat="45.92879" lon="4.7391">
        <ele>173</ele>
        <time>2018-08-26T08:17:16Z</time>
      </trkpt>
      <trkpt lat="45.92879" lon="4.73918">
        <ele>172</ele>
        <time>2018-08-26T08:17:17Z</time>
      </trkpt>
      <trkpt lat="45.92879" lon="4.73924">
        <ele>172</ele>
        <time>2018-08-26T08:17:18Z</time>
      </trkpt>
      <trkpt lat="45.92879" lon="4.73931">
        <ele>172</ele>
        <time>2018-08-26T08:17:19Z</time>
      </trkpt>
      <trkpt lat="45.92879" lon="4.73939">
        <ele>172</ele>
        <time>2018-08-26T08:17:20Z</time>
      </trkpt>
      <trkpt lat="45.92879" lon="4.73945">
        <ele>172</ele>
        <time>2018-08-26T08:17:21Z</time>
      </trkpt>
      <trkpt lat="45.92879" lon="4.73952">
        <ele>172</ele>
        <time>2018-08-26T08:17:22Z</time>
      </trkpt>
      <trkpt lat="45.92879" lon="4.73965">
        <ele>172</ele>
        <time>2018-08-26T08:17:24Z</time>
      </trkpt>
      <trkpt lat="45.9288" lon="4.73971">
        <ele>172</ele>
        <time>2018-08-26T08:17:25Z</time>
      </trkpt>
      <trkpt lat="45.92879" lon="4.73982">
        <ele>172</ele>
        <time>2018-08-26T08:17:27Z</time>
      </trkpt>
      <trkpt lat="45.92876" lon="4.73989">
        <ele>172</ele>
        <time>2018-08-26T08:17:28Z</time>
      </trkpt>
      <trkpt lat="45.92875" lon="4.74001">
        <ele>172</ele>
        <time>2018-08-26T08:17:30Z</time>
      </trkpt>
      <trkpt lat="45.92874" lon="4.74007">
        <ele>172</ele>
        <time>2018-08-26T08:17:31Z</time>
      </trkpt>
      <trkpt lat="45.92872" lon="4.74012">
        <ele>172</ele>
        <time>2018-08-26T08:17:32Z</time>
      </trkpt>
      <trkpt lat="45.92871" lon="4.74019">
        <ele>172</ele>
        <time>2018-08-26T08:17:33Z</time>
      </trkpt>
      <trkpt lat="45.92871" lon="4.74027">
        <ele>172</ele>
        <time>2018-08-26T08:17:34Z</time>
      </trkpt>
      <trkpt lat="45.92868" lon="4.74032">
        <ele>172</ele>
        <time>2018-08-26T08:17:35Z</time>
      </trkpt>
      <trkpt lat="45.92866" lon="4.74038">
        <ele>172</ele>
        <time>2018-08-26T08:17:36Z</time>
      </trkpt>
      <trkpt lat="45.92863" lon="4.74045">
        <ele>172</ele>
        <time>2018-08-26T08:17:37Z</time>
      </trkpt>
      <trkpt lat="45.92858" lon="4.74054">
        <ele>172</ele>
        <time>2018-08-26T08:17:39Z</time>
      </trkpt>
      <trkpt lat="45.92854" lon="4.74061">
        <ele>172</ele>
        <time>2018-08-26T08:17:40Z</time>
      </trkpt>
      <trkpt lat="45.92848" lon="4.74067">
        <ele>172</ele>
        <time>2018-08-26T08:17:41Z</time>
      </trkpt>
      <trkpt lat="45.92844" lon="4.7407">
        <ele>172</ele>
        <time>2018-08-26T08:17:42Z</time>
      </trkpt>
      <trkpt lat="45.9284" lon="4.74075">
        <ele>171</ele>
        <time>2018-08-26T08:17:43Z</time>
      </trkpt>
      <trkpt lat="45.92836" lon="4.74082">
        <ele>171</ele>
        <time>2018-08-26T08:17:44Z</time>
      </trkpt>
      <trkpt lat="45.92832" lon="4.74087">
        <ele>171</ele>
        <time>2018-08-26T08:17:45Z</time>
      </trkpt>
      <trkpt lat="45.92828" lon="4.74092">
        <ele>171</ele>
        <time>2018-08-26T08:17:46Z</time>
      </trkpt>
      <trkpt lat="45.92823" lon="4.74096">
        <ele>171</ele>
        <time>2018-08-26T08:17:47Z</time>
      </trkpt>
      <trkpt lat="45.92819" lon="4.74101">
        <ele>171</ele>
        <time>2018-08-26T08:17:48Z</time>
      </trkpt>
      <trkpt lat="45.92815" lon="4.74107">
        <ele>172</ele>
        <time>2018-08-26T08:17:49Z</time>
      </trkpt>
      <trkpt lat="45.92809" lon="4.74113">
        <ele>172</ele>
        <time>2018-08-26T08:17:50Z</time>
      </trkpt>
      <trkpt lat="45.92805" lon="4.74117">
        <ele>172</ele>
        <time>2018-08-26T08:17:51Z</time>
      </trkpt>
      <trkpt lat="45.92802" lon="4.74122">
        <ele>172</ele>
        <time>2018-08-26T08:17:52Z</time>
      </trkpt>
      <trkpt lat="45.92797" lon="4.74126">
        <ele>172</ele>
        <time>2018-08-26T08:17:53Z</time>
      </trkpt>
      <trkpt lat="45.92793" lon="4.74131">
        <ele>172</ele>
        <time>2018-08-26T08:17:54Z</time>
      </trkpt>
      <trkpt lat="45.92787" lon="4.74136">
        <ele>172</ele>
        <time>2018-08-26T08:17:55Z</time>
      </trkpt>
      <trkpt lat="45.92782" lon="4.7414">
        <ele>172</ele>
        <time>2018-08-26T08:17:56Z</time>
      </trkpt>
      <trkpt lat="45.92779" lon="4.74146">
        <ele>172</ele>
        <time>2018-08-26T08:17:57Z</time>
      </trkpt>
      <trkpt lat="45.92774" lon="4.74151">
        <ele>172</ele>
        <time>2018-08-26T08:17:58Z</time>
      </trkpt>
      <trkpt lat="45.92769" lon="4.74156">
        <ele>172</ele>
        <time>2018-08-26T08:17:59Z</time>
      </trkpt>
      <trkpt lat="45.92764" lon="4.7416">
        <ele>172</ele>
        <time>2018-08-26T08:18:00Z</time>
      </trkpt>
      <trkpt lat="45.9276" lon="4.74166">
        <ele>172</ele>
        <time>2018-08-26T08:18:01Z</time>
      </trkpt>
      <trkpt lat="45.92754" lon="4.74171">
        <ele>172</ele>
        <time>2018-08-26T08:18:02Z</time>
      </trkpt>
      <trkpt lat="45.9275" lon="4.74176">
        <ele>172</ele>
        <time>2018-08-26T08:18:03Z</time>
      </trkpt>
      <trkpt lat="45.92745" lon="4.74182">
        <ele>172</ele>
        <time>2018-08-26T08:18:04Z</time>
      </trkpt>
      <trkpt lat="45.92741" lon="4.74188">
        <ele>172</ele>
        <time>2018-08-26T08:18:05Z</time>
      </trkpt>
      <trkpt lat="45.92737" lon="4.74194">
        <ele>171</ele>
        <time>2018-08-26T08:18:06Z</time>
      </trkpt>
      <trkpt lat="45.92733" lon="4.74199">
        <ele>171</ele>
        <time>2018-08-26T08:18:07Z</time>
      </trkpt>
      <trkpt lat="45.92729" lon="4.74204">
        <ele>171</ele>
        <time>2018-08-26T08:18:08Z</time>
      </trkpt>
      <trkpt lat="45.92725" lon="4.74208">
        <ele>171</ele>
        <time>2018-08-26T08:18:09Z</time>
      </trkpt>
      <trkpt lat="45.92721" lon="4.74213">
        <ele>171</ele>
        <time>2018-08-26T08:18:10Z</time>
      </trkpt>
      <trkpt lat="45.92717" lon="4.74218">
        <ele>171</ele>
        <time>2018-08-26T08:18:11Z</time>
      </trkpt>
      <trkpt lat="45.92713" lon="4.74224">
        <ele>171</ele>
        <time>2018-08-26T08:18:12Z</time>
      </trkpt>
      <trkpt lat="45.9271" lon="4.7423">
        <ele>171</ele>
        <time>2018-08-26T08:18:13Z</time>
      </trkpt>
      <trkpt lat="45.92706" lon="4.74236">
        <ele>171</ele>
        <time>2018-08-26T08:18:14Z</time>
      </trkpt>
      <trkpt lat="45.92703" lon="4.74242">
        <ele>171</ele>
        <time>2018-08-26T08:18:15Z</time>
      </trkpt>
      <trkpt lat="45.92699" lon="4.74249">
        <ele>171</ele>
        <time>2018-08-26T08:18:16Z</time>
      </trkpt>
      <trkpt lat="45.92695" lon="4.74255">
        <ele>171</ele>
        <time>2018-08-26T08:18:17Z</time>
      </trkpt>
      <trkpt lat="45.9269" lon="4.74263">
        <ele>171</ele>
        <time>2018-08-26T08:18:18Z</time>
      </trkpt>
      <trkpt lat="45.92686" lon="4.7427">
        <ele>171</ele>
        <time>2018-08-26T08:18:19Z</time>
      </trkpt>
      <trkpt lat="45.92682" lon="4.74276">
        <ele>171</ele>
        <time>2018-08-26T08:18:20Z</time>
      </trkpt>
      <trkpt lat="45.92679" lon="4.74285">
        <ele>171</ele>
        <time>2018-08-26T08:18:21Z</time>
      </trkpt>
      <trkpt lat="45.92675" lon="4.74292">
        <ele>171</ele>
        <time>2018-08-26T08:18:22Z</time>
      </trkpt>
      <trkpt lat="45.92672" lon="4.74298">
        <ele>171</ele>
        <time>2018-08-26T08:18:23Z</time>
      </trkpt>
      <trkpt lat="45.92669" lon="4.74306">
        <ele>171</ele>
        <time>2018-08-26T08:18:24Z</time>
      </trkpt>
      <trkpt lat="45.92665" lon="4.74313">
        <ele>171</ele>
        <time>2018-08-26T08:18:25Z</time>
      </trkpt>
      <trkpt lat="45.92661" lon="4.74319">
        <ele>171</ele>
        <time>2018-08-26T08:18:26Z</time>
      </trkpt>
      <trkpt lat="45.92658" lon="4.74325">
        <ele>171</ele>
        <time>2018-08-26T08:18:27Z</time>
      </trkpt>
      <trkpt lat="45.92654" lon="4.74333">
        <ele>171</ele>
        <time>2018-08-26T08:18:28Z</time>
      </trkpt>
      <trkpt lat="45.9265" lon="4.74341">
        <ele>171</ele>
        <time>2018-08-26T08:18:29Z</time>
      </trkpt>
      <trkpt lat="45.92647" lon="4.74347">
        <ele>171</ele>
        <time>2018-08-26T08:18:30Z</time>
      </trkpt>
      <trkpt lat="45.92644" lon="4.74353">
        <ele>171</ele>
        <time>2018-08-26T08:18:31Z</time>
      </trkpt>
      <trkpt lat="45.9264" lon="4.7436">
        <ele>171</ele>
        <time>2018-08-26T08:18:32Z</time>
      </trkpt>
      <trkpt lat="45.92636" lon="4.74368">
        <ele>171</ele>
        <time>2018-08-26T08:18:33Z</time>
      </trkpt>
      <trkpt lat="45.92634" lon="4.74373">
        <ele>171</ele>
        <time>2018-08-26T08:18:34Z</time>
      </trkpt>
      <trkpt lat="45.92631" lon="4.74381">
        <ele>170</ele>
        <time>2018-08-26T08:18:35Z</time>
      </trkpt>
      <trkpt lat="45.92626" lon="4.74388">
        <ele>170</ele>
        <time>2018-08-26T08:18:36Z</time>
      </trkpt>
      <trkpt lat="45.92621" lon="4.74395">
        <ele>170</ele>
        <time>2018-08-26T08:18:37Z</time>
      </trkpt>
      <trkpt lat="45.92617" lon="4.74402">
        <ele>170</ele>
        <time>2018-08-26T08:18:38Z</time>
      </trkpt>
      <trkpt lat="45.92614" lon="4.74408">
        <ele>170</ele>
        <time>2018-08-26T08:18:39Z</time>
      </trkpt>
      <trkpt lat="45.9261" lon="4.74414">
        <ele>170</ele>
        <time>2018-08-26T08:18:40Z</time>
      </trkpt>
      <trkpt lat="45.92606" lon="4.74421">
        <ele>170</ele>
        <time>2018-08-26T08:18:41Z</time>
      </trkpt>
      <trkpt lat="45.92603" lon="4.74427">
        <ele>170</ele>
        <time>2018-08-26T08:18:42Z</time>
      </trkpt>
      <trkpt lat="45.92599" lon="4.74434">
        <ele>170</ele>
        <time>2018-08-26T08:18:43Z</time>
      </trkpt>
      <trkpt lat="45.92595" lon="4.7444">
        <ele>170</ele>
        <time>2018-08-26T08:18:44Z</time>
      </trkpt>
      <trkpt lat="45.92591" lon="4.74447">
        <ele>170</ele>
        <time>2018-08-26T08:18:45Z</time>
      </trkpt>
      <trkpt lat="45.92588" lon="4.74454">
        <ele>170</ele>
        <time>2018-08-26T08:18:46Z</time>
      </trkpt>
      <trkpt lat="45.92585" lon="4.74461">
        <ele>170</ele>
        <time>2018-08-26T08:18:47Z</time>
      </trkpt>
      <trkpt lat="45.92581" lon="4.74468">
        <ele>170</ele>
        <time>2018-08-26T08:18:48Z</time>
      </trkpt>
      <trkpt lat="45.92577" lon="4.74475">
        <ele>170</ele>
        <time>2018-08-26T08:18:49Z</time>
      </trkpt>
      <trkpt lat="45.92575" lon="4.74483">
        <ele>170</ele>
        <time>2018-08-26T08:18:50Z</time>
      </trkpt>
      <trkpt lat="45.92571" lon="4.7449">
        <ele>170</ele>
        <time>2018-08-26T08:18:51Z</time>
      </trkpt>
      <trkpt lat="45.92568" lon="4.74495">
        <ele>170</ele>
        <time>2018-08-26T08:18:52Z</time>
      </trkpt>
      <trkpt lat="45.92564" lon="4.74502">
        <ele>170</ele>
        <time>2018-08-26T08:18:53Z</time>
      </trkpt>
      <trkpt lat="45.92561" lon="4.74509">
        <ele>170</ele>
        <time>2018-08-26T08:18:54Z</time>
      </trkpt>
      <trkpt lat="45.92557" lon="4.74517">
        <ele>170</ele>
        <time>2018-08-26T08:18:55Z</time>
      </trkpt>
      <trkpt lat="45.92553" lon="4.74523">
        <ele>170</ele>
        <time>2018-08-26T08:18:56Z</time>
      </trkpt>
      <trkpt lat="45.92549" lon="4.74529">
        <ele>170</ele>
        <time>2018-08-26T08:18:57Z</time>
      </trkpt>
      <trkpt lat="45.92545" lon="4.74535">
        <ele>170</ele>
        <time>2018-08-26T08:18:58Z</time>
      </trkpt>
      <trkpt lat="45.92542" lon="4.74541">
        <ele>171</ele>
        <time>2018-08-26T08:18:59Z</time>
      </trkpt>
      <trkpt lat="45.92537" lon="4.74545">
        <ele>171</ele>
        <time>2018-08-26T08:19:00Z</time>
      </trkpt>
      <trkpt lat="45.92533" lon="4.74551">
        <ele>171</ele>
        <time>2018-08-26T08:19:01Z</time>
      </trkpt>
      <trkpt lat="45.92529" lon="4.74557">
        <ele>171</ele>
        <time>2018-08-26T08:19:02Z</time>
      </trkpt>
      <trkpt lat="45.92526" lon="4.74565">
        <ele>171</ele>
        <time>2018-08-26T08:19:03Z</time>
      </trkpt>
      <trkpt lat="45.92522" lon="4.74571">
        <ele>171</ele>
        <time>2018-08-26T08:19:04Z</time>
      </trkpt>
      <trkpt lat="45.92518" lon="4.74576">
        <ele>171</ele>
        <time>2018-08-26T08:19:05Z</time>
      </trkpt>
      <trkpt lat="45.92513" lon="4.74581">
        <ele>171</ele>
        <time>2018-08-26T08:19:06Z</time>
      </trkpt>
      <trkpt lat="45.92508" lon="4.74586">
        <ele>171</ele>
        <time>2018-08-26T08:19:07Z</time>
      </trkpt>
      <trkpt lat="45.92504" lon="4.74591">
        <ele>171</ele>
        <time>2018-08-26T08:19:08Z</time>
      </trkpt>
      <trkpt lat="45.92499" lon="4.74597">
        <ele>171</ele>
        <time>2018-08-26T08:19:09Z</time>
      </trkpt>
      <trkpt lat="45.92494" lon="4.74603">
        <ele>171</ele>
        <time>2018-08-26T08:19:10Z</time>
      </trkpt>
      <trkpt lat="45.92489" lon="4.74608">
        <ele>171</ele>
        <time>2018-08-26T08:19:11Z</time>
      </trkpt>
      <trkpt lat="45.92485" lon="4.74613">
        <ele>171</ele>
        <time>2018-08-26T08:19:12Z</time>
      </trkpt>
      <trkpt lat="45.92481" lon="4.74618">
        <ele>171</ele>
        <time>2018-08-26T08:19:13Z</time>
      </trkpt>
      <trkpt lat="45.92476" lon="4.74624">
        <ele>171</ele>
        <time>2018-08-26T08:19:14Z</time>
      </trkpt>
      <trkpt lat="45.92472" lon="4.74632">
        <ele>171</ele>
        <time>2018-08-26T08:19:15Z</time>
      </trkpt>
      <trkpt lat="45.92468" lon="4.74638">
        <ele>171</ele>
        <time>2018-08-26T08:19:16Z</time>
      </trkpt>
      <trkpt lat="45.92464" lon="4.74645">
        <ele>171</ele>
        <time>2018-08-26T08:19:17Z</time>
      </trkpt>
      <trkpt lat="45.9246" lon="4.74651">
        <ele>171</ele>
        <time>2018-08-26T08:19:18Z</time>
      </trkpt>
      <trkpt lat="45.92457" lon="4.74658">
        <ele>171</ele>
        <time>2018-08-26T08:19:19Z</time>
      </trkpt>
      <trkpt lat="45.92453" lon="4.74665">
        <ele>171</ele>
        <time>2018-08-26T08:19:20Z</time>
      </trkpt>
      <trkpt lat="45.92448" lon="4.74673">
        <ele>171</ele>
        <time>2018-08-26T08:19:22Z</time>
      </trkpt>
      <trkpt lat="45.92445" lon="4.74678">
        <ele>171</ele>
        <time>2018-08-26T08:19:23Z</time>
      </trkpt>
      <trkpt lat="45.92441" lon="4.74686">
        <ele>171</ele>
        <time>2018-08-26T08:19:24Z</time>
      </trkpt>
      <trkpt lat="45.9244" lon="4.74693">
        <ele>171</ele>
        <time>2018-08-26T08:19:25Z</time>
      </trkpt>
      <trkpt lat="45.92436" lon="4.747">
        <ele>171</ele>
        <time>2018-08-26T08:19:26Z</time>
      </trkpt>
      <trkpt lat="45.92431" lon="4.7471">
        <ele>171</ele>
        <time>2018-08-26T08:19:27Z</time>
      </trkpt>
      <trkpt lat="45.92428" lon="4.74719">
        <ele>171</ele>
        <time>2018-08-26T08:19:28Z</time>
      </trkpt>
      <trkpt lat="45.92424" lon="4.74726">
        <ele>171</ele>
        <time>2018-08-26T08:19:29Z</time>
      </trkpt>
      <trkpt lat="45.92421" lon="4.74733">
        <ele>171</ele>
        <time>2018-08-26T08:19:30Z</time>
      </trkpt>
      <trkpt lat="45.92418" lon="4.7474">
        <ele>172</ele>
        <time>2018-08-26T08:19:31Z</time>
      </trkpt>
      <trkpt lat="45.92415" lon="4.74748">
        <ele>172</ele>
        <time>2018-08-26T08:19:32Z</time>
      </trkpt>
      <trkpt lat="45.92415" lon="4.74757">
        <ele>172</ele>
        <time>2018-08-26T08:19:33Z</time>
      </trkpt>
      <trkpt lat="45.92413" lon="4.74764">
        <ele>172</ele>
        <time>2018-08-26T08:19:34Z</time>
      </trkpt>
      <trkpt lat="45.92411" lon="4.7477">
        <ele>172</ele>
        <time>2018-08-26T08:19:35Z</time>
      </trkpt>
      <trkpt lat="45.92409" lon="4.74778">
        <ele>171</ele>
        <time>2018-08-26T08:19:36Z</time>
      </trkpt>
      <trkpt lat="45.92406" lon="4.74785">
        <ele>171</ele>
        <time>2018-08-26T08:19:37Z</time>
      </trkpt>
      <trkpt lat="45.92405" lon="4.74792">
        <ele>171</ele>
        <time>2018-08-26T08:19:38Z</time>
      </trkpt>
      <trkpt lat="45.92403" lon="4.748">
        <ele>171</ele>
        <time>2018-08-26T08:19:39Z</time>
      </trkpt>
      <trkpt lat="45.92401" lon="4.74811">
        <ele>171</ele>
        <time>2018-08-26T08:19:40Z</time>
      </trkpt>
      <trkpt lat="45.92399" lon="4.74821">
        <ele>171</ele>
        <time>2018-08-26T08:19:41Z</time>
      </trkpt>
      <trkpt lat="45.92397" lon="4.7483">
        <ele>171</ele>
        <time>2018-08-26T08:19:42Z</time>
      </trkpt>
      <trkpt lat="45.92394" lon="4.74836">
        <ele>171</ele>
        <time>2018-08-26T08:19:43Z</time>
      </trkpt>
      <trkpt lat="45.92391" lon="4.74845">
        <ele>171</ele>
        <time>2018-08-26T08:19:44Z</time>
      </trkpt>
      <trkpt lat="45.92389" lon="4.74856">
        <ele>171</ele>
        <time>2018-08-26T08:19:45Z</time>
      </trkpt>
      <trkpt lat="45.92387" lon="4.74866">
        <ele>171</ele>
        <time>2018-08-26T08:19:46Z</time>
      </trkpt>
      <trkpt lat="45.92384" lon="4.74875">
        <ele>171</ele>
        <time>2018-08-26T08:19:47Z</time>
      </trkpt>
      <trkpt lat="45.9238" lon="4.74882">
        <ele>171</ele>
        <time>2018-08-26T08:19:48Z</time>
      </trkpt>
      <trkpt lat="45.92377" lon="4.74889">
        <ele>171</ele>
        <time>2018-08-26T08:19:49Z</time>
      </trkpt>
      <trkpt lat="45.92374" lon="4.74898">
        <ele>171</ele>
        <time>2018-08-26T08:19:50Z</time>
      </trkpt>
      <trkpt lat="45.92373" lon="4.74908">
        <ele>171</ele>
        <time>2018-08-26T08:19:51Z</time>
      </trkpt>
      <trkpt lat="45.9237" lon="4.74917">
        <ele>171</ele>
        <time>2018-08-26T08:19:52Z</time>
      </trkpt>
      <trkpt lat="45.92368" lon="4.74923">
        <ele>170</ele>
        <time>2018-08-26T08:19:53Z</time>
      </trkpt>
      <trkpt lat="45.92365" lon="4.74932">
        <ele>170</ele>
        <time>2018-08-26T08:19:54Z</time>
      </trkpt>
      <trkpt lat="45.92363" lon="4.7494">
        <ele>170</ele>
        <time>2018-08-26T08:19:55Z</time>
      </trkpt>
      <trkpt lat="45.9236" lon="4.74949">
        <ele>170</ele>
        <time>2018-08-26T08:19:56Z</time>
      </trkpt>
      <trkpt lat="45.92355" lon="4.74956">
        <ele>170</ele>
        <time>2018-08-26T08:19:57Z</time>
      </trkpt>
      <trkpt lat="45.92352" lon="4.74963">
        <ele>170</ele>
        <time>2018-08-26T08:19:58Z</time>
      </trkpt>
      <trkpt lat="45.92349" lon="4.74971">
        <ele>170</ele>
        <time>2018-08-26T08:19:59Z</time>
      </trkpt>
      <trkpt lat="45.92347" lon="4.74977">
        <ele>170</ele>
        <time>2018-08-26T08:20:00Z</time>
      </trkpt>
      <trkpt lat="45.92344" lon="4.74984">
        <ele>170</ele>
        <time>2018-08-26T08:20:01Z</time>
      </trkpt>
      <trkpt lat="45.92342" lon="4.74992">
        <ele>170</ele>
        <time>2018-08-26T08:20:02Z</time>
      </trkpt>
      <trkpt lat="45.92339" lon="4.75001">
        <ele>170</ele>
        <time>2018-08-26T08:20:03Z</time>
      </trkpt>
      <trkpt lat="45.92335" lon="4.75006">
        <ele>170</ele>
        <time>2018-08-26T08:20:04Z</time>
      </trkpt>
      <trkpt lat="45.92331" lon="4.75014">
        <ele>171</ele>
        <time>2018-08-26T08:20:05Z</time>
      </trkpt>
      <trkpt lat="45.92328" lon="4.75021">
        <ele>171</ele>
        <time>2018-08-26T08:20:06Z</time>
      </trkpt>
      <trkpt lat="45.92325" lon="4.75029">
        <ele>171</ele>
        <time>2018-08-26T08:20:07Z</time>
      </trkpt>
      <trkpt lat="45.92321" lon="4.75034">
        <ele>171</ele>
        <time>2018-08-26T08:20:08Z</time>
      </trkpt>
      <trkpt lat="45.92317" lon="4.75041">
        <ele>172</ele>
        <time>2018-08-26T08:20:09Z</time>
      </trkpt>
      <trkpt lat="45.92313" lon="4.75047">
        <ele>172</ele>
        <time>2018-08-26T08:20:10Z</time>
      </trkpt>
      <trkpt lat="45.92308" lon="4.75053">
        <ele>172</ele>
        <time>2018-08-26T08:20:11Z</time>
      </trkpt>
      <trkpt lat="45.92304" lon="4.75059">
        <ele>172</ele>
        <time>2018-08-26T08:20:12Z</time>
      </trkpt>
      <trkpt lat="45.92301" lon="4.75066">
        <ele>172</ele>
        <time>2018-08-26T08:20:13Z</time>
      </trkpt>
      <trkpt lat="45.92295" lon="4.75072">
        <ele>172</ele>
        <time>2018-08-26T08:20:14Z</time>
      </trkpt>
      <trkpt lat="45.92291" lon="4.75077">
        <ele>172</ele>
        <time>2018-08-26T08:20:15Z</time>
      </trkpt>
      <trkpt lat="45.92286" lon="4.75081">
        <ele>172</ele>
        <time>2018-08-26T08:20:16Z</time>
      </trkpt>
      <trkpt lat="45.92281" lon="4.75086">
        <ele>173</ele>
        <time>2018-08-26T08:20:17Z</time>
      </trkpt>
      <trkpt lat="45.92277" lon="4.75091">
        <ele>173</ele>
        <time>2018-08-26T08:20:18Z</time>
      </trkpt>
      <trkpt lat="45.92272" lon="4.75095">
        <ele>173</ele>
        <time>2018-08-26T08:20:19Z</time>
      </trkpt>
      <trkpt lat="45.92267" lon="4.751">
        <ele>173</ele>
        <time>2018-08-26T08:20:20Z</time>
      </trkpt>
      <trkpt lat="45.92262" lon="4.75105">
        <ele>173</ele>
        <time>2018-08-26T08:20:21Z</time>
      </trkpt>
      <trkpt lat="45.92258" lon="4.75111">
        <ele>174</ele>
        <time>2018-08-26T08:20:22Z</time>
      </trkpt>
      <trkpt lat="45.92254" lon="4.75116">
        <ele>174</ele>
        <time>2018-08-26T08:20:23Z</time>
      </trkpt>
      <trkpt lat="45.92249" lon="4.7512">
        <ele>174</ele>
        <time>2018-08-26T08:20:24Z</time>
      </trkpt>
      <trkpt lat="45.92245" lon="4.75125">
        <ele>174</ele>
        <time>2018-08-26T08:20:25Z</time>
      </trkpt>
      <trkpt lat="45.92241" lon="4.75131">
        <ele>174</ele>
        <time>2018-08-26T08:20:26Z</time>
      </trkpt>
      <trkpt lat="45.92236" lon="4.75136">
        <ele>174</ele>
        <time>2018-08-26T08:20:27Z</time>
      </trkpt>
      <trkpt lat="45.92233" lon="4.75141">
        <ele>174</ele>
        <time>2018-08-26T08:20:28Z</time>
      </trkpt>
      <trkpt lat="45.92233" lon="4.75149">
        <ele>174</ele>
        <time>2018-08-26T08:20:29Z</time>
      </trkpt>
      <trkpt lat="45.9223" lon="4.75155">
        <ele>174</ele>
        <time>2018-08-26T08:20:30Z</time>
      </trkpt>
      <trkpt lat="45.92227" lon="4.75161">
        <ele>174</ele>
        <time>2018-08-26T08:20:31Z</time>
      </trkpt>
      <trkpt lat="45.92224" lon="4.75169">
        <ele>175</ele>
        <time>2018-08-26T08:20:32Z</time>
      </trkpt>
      <trkpt lat="45.92221" lon="4.75176">
        <ele>175</ele>
        <time>2018-08-26T08:20:33Z</time>
      </trkpt>
      <trkpt lat="45.92219" lon="4.75184">
        <ele>175</ele>
        <time>2018-08-26T08:20:34Z</time>
      </trkpt>
      <trkpt lat="45.92219" lon="4.75192">
        <ele>175</ele>
        <time>2018-08-26T08:20:35Z</time>
      </trkpt>
      <trkpt lat="45.92216" lon="4.75199">
        <ele>175</ele>
        <time>2018-08-26T08:20:36Z</time>
      </trkpt>
      <trkpt lat="45.92216" lon="4.75208">
        <ele>175</ele>
        <time>2018-08-26T08:20:37Z</time>
      </trkpt>
      <trkpt lat="45.92214" lon="4.75215">
        <ele>175</ele>
        <time>2018-08-26T08:20:38Z</time>
      </trkpt>
      <trkpt lat="45.92216" lon="4.75221">
        <ele>175</ele>
        <time>2018-08-26T08:20:39Z</time>
      </trkpt>
      <trkpt lat="45.92216" lon="4.75229">
        <ele>175</ele>
        <time>2018-08-26T08:20:40Z</time>
      </trkpt>
      <trkpt lat="45.92215" lon="4.75236">
        <ele>175</ele>
        <time>2018-08-26T08:20:41Z</time>
      </trkpt>
      <trkpt lat="45.92214" lon="4.75243">
        <ele>175</ele>
        <time>2018-08-26T08:20:42Z</time>
      </trkpt>
      <trkpt lat="45.92212" lon="4.7525">
        <ele>175</ele>
        <time>2018-08-26T08:20:43Z</time>
      </trkpt>
      <trkpt lat="45.92211" lon="4.75259">
        <ele>175</ele>
        <time>2018-08-26T08:20:44Z</time>
      </trkpt>
      <trkpt lat="45.9221" lon="4.75264">
        <ele>176</ele>
        <time>2018-08-26T08:20:45Z</time>
      </trkpt>
      <trkpt lat="45.92209" lon="4.75273">
        <ele>176</ele>
        <time>2018-08-26T08:20:46Z</time>
      </trkpt>
      <trkpt lat="45.92209" lon="4.7528">
        <ele>176</ele>
        <time>2018-08-26T08:20:47Z</time>
      </trkpt>
      <trkpt lat="45.92209" lon="4.75288">
        <ele>176</ele>
        <time>2018-08-26T08:20:48Z</time>
      </trkpt>
      <trkpt lat="45.92206" lon="4.75295">
        <ele>176</ele>
        <time>2018-08-26T08:20:49Z</time>
      </trkpt>
      <trkpt lat="45.92204" lon="4.75301">
        <ele>176</ele>
        <time>2018-08-26T08:20:50Z</time>
      </trkpt>
      <trkpt lat="45.92203" lon="4.75307">
        <ele>176</ele>
        <time>2018-08-26T08:20:51Z</time>
      </trkpt>
      <trkpt lat="45.92202" lon="4.75313">
        <ele>176</ele>
        <time>2018-08-26T08:20:52Z</time>
      </trkpt>
      <trkpt lat="45.922" lon="4.7532">
        <ele>176</ele>
        <time>2018-08-26T08:20:53Z</time>
      </trkpt>
      <trkpt lat="45.92201" lon="4.75328">
        <ele>176</ele>
        <time>2018-08-26T08:20:54Z</time>
      </trkpt>
      <trkpt lat="45.922" lon="4.75335">
        <ele>177</ele>
        <time>2018-08-26T08:20:55Z</time>
      </trkpt>
      <trkpt lat="45.92197" lon="4.75342">
        <ele>177</ele>
        <time>2018-08-26T08:20:56Z</time>
      </trkpt>
      <trkpt lat="45.92197" lon="4.75349">
        <ele>177</ele>
        <time>2018-08-26T08:20:57Z</time>
      </trkpt>
      <trkpt lat="45.92194" lon="4.75357">
        <ele>177</ele>
        <time>2018-08-26T08:20:58Z</time>
      </trkpt>
      <trkpt lat="45.92192" lon="4.75365">
        <ele>177</ele>
        <time>2018-08-26T08:20:59Z</time>
      </trkpt>
      <trkpt lat="45.92191" lon="4.75371">
        <ele>177</ele>
        <time>2018-08-26T08:21:00Z</time>
      </trkpt>
      <trkpt lat="45.9219" lon="4.75382">
        <ele>177</ele>
        <time>2018-08-26T08:21:01Z</time>
      </trkpt>
      <trkpt lat="45.92188" lon="4.7539">
        <ele>177</ele>
        <time>2018-08-26T08:21:02Z</time>
      </trkpt>
      <trkpt lat="45.92185" lon="4.75397">
        <ele>177</ele>
        <time>2018-08-26T08:21:03Z</time>
      </trkpt>
      <trkpt lat="45.92181" lon="4.75403">
        <ele>177</ele>
        <time>2018-08-26T08:21:04Z</time>
      </trkpt>
      <trkpt lat="45.92178" lon="4.75409">
        <ele>177</ele>
        <time>2018-08-26T08:21:05Z</time>
      </trkpt>
      <trkpt lat="45.92176" lon="4.75415">
        <ele>178</ele>
        <time>2018-08-26T08:21:06Z</time>
      </trkpt>
      <trkpt lat="45.92173" lon="4.7542">
        <ele>177</ele>
        <time>2018-08-26T08:21:07Z</time>
      </trkpt>
      <trkpt lat="45.9217" lon="4.75426">
        <ele>177</ele>
        <time>2018-08-26T08:21:08Z</time>
      </trkpt>
      <trkpt lat="45.92166" lon="4.75431">
        <ele>177</ele>
        <time>2018-08-26T08:21:09Z</time>
      </trkpt>
      <trkpt lat="45.92164" lon="4.75439">
        <ele>177</ele>
        <time>2018-08-26T08:21:10Z</time>
      </trkpt>
      <trkpt lat="45.92161" lon="4.75445">
        <ele>177</ele>
        <time>2018-08-26T08:21:11Z</time>
      </trkpt>
      <trkpt lat="45.92158" lon="4.75453">
        <ele>176</ele>
        <time>2018-08-26T08:21:12Z</time>
      </trkpt>
      <trkpt lat="45.92157" lon="4.75461">
        <ele>176</ele>
        <time>2018-08-26T08:21:13Z</time>
      </trkpt>
      <trkpt lat="45.92154" lon="4.75467">
        <ele>176</ele>
        <time>2018-08-26T08:21:14Z</time>
      </trkpt>
      <trkpt lat="45.9215" lon="4.75475">
        <ele>176</ele>
        <time>2018-08-26T08:21:15Z</time>
      </trkpt>
      <trkpt lat="45.92147" lon="4.75483">
        <ele>176</ele>
        <time>2018-08-26T08:21:16Z</time>
      </trkpt>
      <trkpt lat="45.92143" lon="4.7549">
        <ele>176</ele>
        <time>2018-08-26T08:21:17Z</time>
      </trkpt>
      <trkpt lat="45.9214" lon="4.75496">
        <ele>176</ele>
        <time>2018-08-26T08:21:18Z</time>
      </trkpt>
      <trkpt lat="45.92136" lon="4.75504">
        <ele>174</ele>
        <time>2018-08-26T08:21:19Z</time>
      </trkpt>
      <trkpt lat="45.92133" lon="4.75511">
        <ele>174</ele>
        <time>2018-08-26T08:21:20Z</time>
      </trkpt>
      <trkpt lat="45.9213" lon="4.75517">
        <ele>174</ele>
        <time>2018-08-26T08:21:21Z</time>
      </trkpt>
      <trkpt lat="45.92128" lon="4.75524">
        <ele>174</ele>
        <time>2018-08-26T08:21:22Z</time>
      </trkpt>
      <trkpt lat="45.92124" lon="4.75529">
        <ele>174</ele>
        <time>2018-08-26T08:21:23Z</time>
      </trkpt>
      <trkpt lat="45.92121" lon="4.75537">
        <ele>174</ele>
        <time>2018-08-26T08:21:24Z</time>
      </trkpt>
      <trkpt lat="45.92118" lon="4.75547">
        <ele>174</ele>
        <time>2018-08-26T08:21:25Z</time>
      </trkpt>
      <trkpt lat="45.92114" lon="4.75552">
        <ele>174</ele>
        <time>2018-08-26T08:21:26Z</time>
      </trkpt>
      <trkpt lat="45.92112" lon="4.75558">
        <ele>174</ele>
        <time>2018-08-26T08:21:27Z</time>
      </trkpt>
      <trkpt lat="45.92109" lon="4.75564">
        <ele>174</ele>
        <time>2018-08-26T08:21:28Z</time>
      </trkpt>
      <trkpt lat="45.92108" lon="4.75573">
        <ele>174</ele>
        <time>2018-08-26T08:21:29Z</time>
      </trkpt>
      <trkpt lat="45.92108" lon="4.7558">
        <ele>174</ele>
        <time>2018-08-26T08:21:30Z</time>
      </trkpt>
      <trkpt lat="45.92111" lon="4.75589">
        <ele>174</ele>
        <time>2018-08-26T08:21:31Z</time>
      </trkpt>
      <trkpt lat="45.92115" lon="4.75594">
        <ele>174</ele>
        <time>2018-08-26T08:21:32Z</time>
      </trkpt>
      <trkpt lat="45.92118" lon="4.75596">
        <ele>174</ele>
        <time>2018-08-26T08:21:33Z</time>
      </trkpt>
      <trkpt lat="45.92123" lon="4.756">
        <ele>174</ele>
        <time>2018-08-26T08:21:34Z</time>
      </trkpt>
      <trkpt lat="45.92128" lon="4.75604">
        <ele>174</ele>
        <time>2018-08-26T08:21:35Z</time>
      </trkpt>
      <trkpt lat="45.92133" lon="4.75608">
        <ele>174</ele>
        <time>2018-08-26T08:21:36Z</time>
      </trkpt>
      <trkpt lat="45.92137" lon="4.75613">
        <ele>174</ele>
        <time>2018-08-26T08:21:37Z</time>
      </trkpt>
      <trkpt lat="45.92142" lon="4.75618">
        <ele>174</ele>
        <time>2018-08-26T08:21:38Z</time>
      </trkpt>
      <trkpt lat="45.92147" lon="4.75622">
        <ele>174</ele>
        <time>2018-08-26T08:21:39Z</time>
      </trkpt>
      <trkpt lat="45.92152" lon="4.75627">
        <ele>174</ele>
        <time>2018-08-26T08:21:40Z</time>
      </trkpt>
      <trkpt lat="45.92157" lon="4.75631">
        <ele>174</ele>
        <time>2018-08-26T08:21:41Z</time>
      </trkpt>
      <trkpt lat="45.92162" lon="4.75636">
        <ele>174</ele>
        <time>2018-08-26T08:21:42Z</time>
      </trkpt>
      <trkpt lat="45.92166" lon="4.7564">
        <ele>174</ele>
        <time>2018-08-26T08:21:43Z</time>
      </trkpt>
      <trkpt lat="45.92172" lon="4.75645">
        <ele>174</ele>
        <time>2018-08-26T08:21:44Z</time>
      </trkpt>
      <trkpt lat="45.92176" lon="4.7565">
        <ele>174</ele>
        <time>2018-08-26T08:21:45Z</time>
      </trkpt>
      <trkpt lat="45.92182" lon="4.75653">
        <ele>174</ele>
        <time>2018-08-26T08:21:46Z</time>
      </trkpt>
      <trkpt lat="45.92187" lon="4.75658">
        <ele>174</ele>
        <time>2018-08-26T08:21:47Z</time>
      </trkpt>
      <trkpt lat="45.92191" lon="4.75663">
        <ele>174</ele>
        <time>2018-08-26T08:21:48Z</time>
      </trkpt>
      <trkpt lat="45.92195" lon="4.75669">
        <ele>174</ele>
        <time>2018-08-26T08:21:49Z</time>
      </trkpt>
      <trkpt lat="45.922" lon="4.75674">
        <ele>174</ele>
        <time>2018-08-26T08:21:50Z</time>
      </trkpt>
      <trkpt lat="45.92207" lon="4.75679">
        <ele>174</ele>
        <time>2018-08-26T08:21:51Z</time>
      </trkpt>
      <trkpt lat="45.92211" lon="4.75682">
        <ele>174</ele>
        <time>2018-08-26T08:21:52Z</time>
      </trkpt>
      <trkpt lat="45.92216" lon="4.75686">
        <ele>174</ele>
        <time>2018-08-26T08:21:53Z</time>
      </trkpt>
      <trkpt lat="45.92224" lon="4.7569">
        <ele>174</ele>
        <time>2018-08-26T08:21:54Z</time>
      </trkpt>
      <trkpt lat="45.92227" lon="4.75696">
        <ele>174</ele>
        <time>2018-08-26T08:21:55Z</time>
      </trkpt>
      <trkpt lat="45.92231" lon="4.75701">
        <ele>174</ele>
        <time>2018-08-26T08:21:56Z</time>
      </trkpt>
      <trkpt lat="45.92234" lon="4.75707">
        <ele>174</ele>
        <time>2018-08-26T08:21:57Z</time>
      </trkpt>
      <trkpt lat="45.92239" lon="4.75713">
        <ele>174</ele>
        <time>2018-08-26T08:21:58Z</time>
      </trkpt>
      <trkpt lat="45.92243" lon="4.75719">
        <ele>174</ele>
        <time>2018-08-26T08:21:59Z</time>
      </trkpt>
      <trkpt lat="45.92245" lon="4.75725">
        <ele>174</ele>
        <time>2018-08-26T08:22:00Z</time>
      </trkpt>
      <trkpt lat="45.92246" lon="4.75731">
        <ele>174</ele>
        <time>2018-08-26T08:22:01Z</time>
      </trkpt>
      <trkpt lat="45.92249" lon="4.75738">
        <ele>174</ele>
        <time>2018-08-26T08:22:02Z</time>
      </trkpt>
      <trkpt lat="45.9225" lon="4.75746">
        <ele>174</ele>
        <time>2018-08-26T08:22:03Z</time>
      </trkpt>
      <trkpt lat="45.92251" lon="4.75753">
        <ele>174</ele>
        <time>2018-08-26T08:22:04Z</time>
      </trkpt>
      <trkpt lat="45.92252" lon="4.75759">
        <ele>174</ele>
        <time>2018-08-26T08:22:05Z</time>
      </trkpt>
      <trkpt lat="45.92254" lon="4.75766">
        <ele>174</ele>
        <time>2018-08-26T08:22:06Z</time>
      </trkpt>
      <trkpt lat="45.92255" lon="4.75773">
        <ele>174</ele>
        <time>2018-08-26T08:22:07Z</time>
      </trkpt>
      <trkpt lat="45.92256" lon="4.75779">
        <ele>174</ele>
        <time>2018-08-26T08:22:08Z</time>
      </trkpt>
      <trkpt lat="45.92256" lon="4.75786">
        <ele>174</ele>
        <time>2018-08-26T08:22:09Z</time>
      </trkpt>
      <trkpt lat="45.92257" lon="4.75792">
        <ele>174</ele>
        <time>2018-08-26T08:22:10Z</time>
      </trkpt>
      <trkpt lat="45.92259" lon="4.75799">
        <ele>174</ele>
        <time>2018-08-26T08:22:11Z</time>
      </trkpt>
      <trkpt lat="45.92261" lon="4.75805">
        <ele>174</ele>
        <time>2018-08-26T08:22:12Z</time>
      </trkpt>
      <trkpt lat="45.92263" lon="4.75812">
        <ele>174</ele>
        <time>2018-08-26T08:22:13Z</time>
      </trkpt>
      <trkpt lat="45.92265" lon="4.75818">
        <ele>174</ele>
        <time>2018-08-26T08:22:14Z</time>
      </trkpt>
      <trkpt lat="45.92269" lon="4.75824">
        <ele>174</ele>
        <time>2018-08-26T08:22:15Z</time>
      </trkpt>
      <trkpt lat="45.92273" lon="4.75829">
        <ele>174</ele>
        <time>2018-08-26T08:22:16Z</time>
      </trkpt>
      <trkpt lat="45.92278" lon="4.75833">
        <ele>174</ele>
        <time>2018-08-26T08:22:17Z</time>
      </trkpt>
      <trkpt lat="45.92284" lon="4.75837">
        <ele>173</ele>
        <time>2018-08-26T08:22:18Z</time>
      </trkpt>
      <trkpt lat="45.9229" lon="4.75841">
        <ele>173</ele>
        <time>2018-08-26T08:22:19Z</time>
      </trkpt>
      <trkpt lat="45.92295" lon="4.75843">
        <ele>173</ele>
        <time>2018-08-26T08:22:20Z</time>
      </trkpt>
      <trkpt lat="45.92302" lon="4.75846">
        <ele>173</ele>
        <time>2018-08-26T08:22:21Z</time>
      </trkpt>
      <trkpt lat="45.92308" lon="4.75849">
        <ele>173</ele>
        <time>2018-08-26T08:22:22Z</time>
      </trkpt>
      <trkpt lat="45.92314" lon="4.75853">
        <ele>173</ele>
        <time>2018-08-26T08:22:23Z</time>
      </trkpt>
      <trkpt lat="45.92319" lon="4.75855">
        <ele>173</ele>
        <time>2018-08-26T08:22:24Z</time>
      </trkpt>
      <trkpt lat="45.92326" lon="4.75859">
        <ele>173</ele>
        <time>2018-08-26T08:22:25Z</time>
      </trkpt>
      <trkpt lat="45.92332" lon="4.75862">
        <ele>173</ele>
        <time>2018-08-26T08:22:26Z</time>
      </trkpt>
      <trkpt lat="45.92338" lon="4.75866">
        <ele>173</ele>
        <time>2018-08-26T08:22:27Z</time>
      </trkpt>
      <trkpt lat="45.92344" lon="4.7587">
        <ele>173</ele>
        <time>2018-08-26T08:22:28Z</time>
      </trkpt>
      <trkpt lat="45.9235" lon="4.75873">
        <ele>173</ele>
        <time>2018-08-26T08:22:29Z</time>
      </trkpt>
      <trkpt lat="45.92356" lon="4.75876">
        <ele>173</ele>
        <time>2018-08-26T08:22:30Z</time>
      </trkpt>
      <trkpt lat="45.92362" lon="4.7588">
        <ele>173</ele>
        <time>2018-08-26T08:22:31Z</time>
      </trkpt>
      <trkpt lat="45.92368" lon="4.75883">
        <ele>173</ele>
        <time>2018-08-26T08:22:32Z</time>
      </trkpt>
      <trkpt lat="45.92372" lon="4.75887">
        <ele>173</ele>
        <time>2018-08-26T08:22:33Z</time>
      </trkpt>
      <trkpt lat="45.92377" lon="4.75893">
        <ele>173</ele>
        <time>2018-08-26T08:22:34Z</time>
      </trkpt>
      <trkpt lat="45.92382" lon="4.75897">
        <ele>173</ele>
        <time>2018-08-26T08:22:35Z</time>
      </trkpt>
      <trkpt lat="45.92387" lon="4.75899">
        <ele>173</ele>
        <time>2018-08-26T08:22:36Z</time>
      </trkpt>
      <trkpt lat="45.92393" lon="4.75901">
        <ele>173</ele>
        <time>2018-08-26T08:22:37Z</time>
      </trkpt>
      <trkpt lat="45.92398" lon="4.75904">
        <ele>173</ele>
        <time>2018-08-26T08:22:38Z</time>
      </trkpt>
      <trkpt lat="45.92401" lon="4.75909">
        <ele>172</ele>
        <time>2018-08-26T08:22:39Z</time>
      </trkpt>
      <trkpt lat="45.92406" lon="4.75912">
        <ele>172</ele>
        <time>2018-08-26T08:22:40Z</time>
      </trkpt>
      <trkpt lat="45.92411" lon="4.75916">
        <ele>172</ele>
        <time>2018-08-26T08:22:41Z</time>
      </trkpt>
      <trkpt lat="45.92417" lon="4.7592">
        <ele>172</ele>
        <time>2018-08-26T08:22:42Z</time>
      </trkpt>
      <trkpt lat="45.92422" lon="4.75924">
        <ele>172</ele>
        <time>2018-08-26T08:22:43Z</time>
      </trkpt>
      <trkpt lat="45.92426" lon="4.75926">
        <ele>172</ele>
        <time>2018-08-26T08:22:44Z</time>
      </trkpt>
      <trkpt lat="45.92431" lon="4.75931">
        <ele>172</ele>
        <time>2018-08-26T08:22:45Z</time>
      </trkpt>
      <trkpt lat="45.92435" lon="4.75933">
        <ele>172</ele>
        <time>2018-08-26T08:22:46Z</time>
      </trkpt>
      <trkpt lat="45.92439" lon="4.75936">
        <ele>172</ele>
        <time>2018-08-26T08:22:47Z</time>
      </trkpt>
      <trkpt lat="45.92444" lon="4.75939">
        <ele>172</ele>
        <time>2018-08-26T08:22:48Z</time>
      </trkpt>
      <trkpt lat="45.92449" lon="4.75941">
        <ele>172</ele>
        <time>2018-08-26T08:22:49Z</time>
      </trkpt>
      <trkpt lat="45.92453" lon="4.75943">
        <ele>172</ele>
        <time>2018-08-26T08:22:50Z</time>
      </trkpt>
      <trkpt lat="45.92457" lon="4.75948">
        <ele>172</ele>
        <time>2018-08-26T08:22:51Z</time>
      </trkpt>
      <trkpt lat="45.92464" lon="4.75953">
        <ele>172</ele>
        <time>2018-08-26T08:22:53Z</time>
      </trkpt>
      <trkpt lat="45.92468" lon="4.75956">
        <ele>172</ele>
        <time>2018-08-26T08:22:54Z</time>
      </trkpt>
      <trkpt lat="45.92475" lon="4.75961">
        <ele>172</ele>
        <time>2018-08-26T08:22:56Z</time>
      </trkpt>
      <trkpt lat="45.92478" lon="4.75964">
        <ele>172</ele>
        <time>2018-08-26T08:22:57Z</time>
      </trkpt>
      <trkpt lat="45.92481" lon="4.7597">
        <ele>172</ele>
        <time>2018-08-26T08:22:58Z</time>
      </trkpt>
      <trkpt lat="45.92485" lon="4.75973">
        <ele>172</ele>
        <time>2018-08-26T08:22:59Z</time>
      </trkpt>
      <trkpt lat="45.92493" lon="4.75978">
        <ele>172</ele>
        <time>2018-08-26T08:23:01Z</time>
      </trkpt>
      <trkpt lat="45.92497" lon="4.75982">
        <ele>172</ele>
        <time>2018-08-26T08:23:02Z</time>
      </trkpt>
      <trkpt lat="45.92501" lon="4.75985">
        <ele>172</ele>
        <time>2018-08-26T08:23:03Z</time>
      </trkpt>
      <trkpt lat="45.92505" lon="4.75988">
        <ele>172</ele>
        <time>2018-08-26T08:23:04Z</time>
      </trkpt>
      <trkpt lat="45.92511" lon="4.75992">
        <ele>172</ele>
        <time>2018-08-26T08:23:05Z</time>
      </trkpt>
      <trkpt lat="45.92514" lon="4.75994">
        <ele>172</ele>
        <time>2018-08-26T08:23:06Z</time>
      </trkpt>
      <trkpt lat="45.92519" lon="4.75998">
        <ele>172</ele>
        <time>2018-08-26T08:23:07Z</time>
      </trkpt>
      <trkpt lat="45.92523" lon="4.76">
        <ele>172</ele>
        <time>2018-08-26T08:23:08Z</time>
      </trkpt>
      <trkpt lat="45.92531" lon="4.76007">
        <ele>172</ele>
        <time>2018-08-26T08:23:10Z</time>
      </trkpt>
      <trkpt lat="45.92534" lon="4.76011">
        <ele>172</ele>
        <time>2018-08-26T08:23:11Z</time>
      </trkpt>
      <trkpt lat="45.92539" lon="4.76015">
        <ele>172</ele>
        <time>2018-08-26T08:23:12Z</time>
      </trkpt>
      <trkpt lat="45.92544" lon="4.76018">
        <ele>172</ele>
        <time>2018-08-26T08:23:13Z</time>
      </trkpt>
      <trkpt lat="45.92551" lon="4.76025">
        <ele>172</ele>
        <time>2018-08-26T08:23:15Z</time>
      </trkpt>
      <trkpt lat="45.92557" lon="4.7603">
        <ele>172</ele>
        <time>2018-08-26T08:23:16Z</time>
      </trkpt>
      <trkpt lat="45.92562" lon="4.76033">
        <ele>172</ele>
        <time>2018-08-26T08:23:17Z</time>
      </trkpt>
      <trkpt lat="45.92566" lon="4.76037">
        <ele>172</ele>
        <time>2018-08-26T08:23:18Z</time>
      </trkpt>
      <trkpt lat="45.9257" lon="4.7604">
        <ele>172</ele>
        <time>2018-08-26T08:23:19Z</time>
      </trkpt>
      <trkpt lat="45.92574" lon="4.76043">
        <ele>171</ele>
        <time>2018-08-26T08:23:20Z</time>
      </trkpt>
      <trkpt lat="45.92578" lon="4.76046">
        <ele>171</ele>
        <time>2018-08-26T08:23:21Z</time>
      </trkpt>
      <trkpt lat="45.92584" lon="4.76046">
        <ele>171</ele>
        <time>2018-08-26T08:23:22Z</time>
      </trkpt>
      <trkpt lat="45.92588" lon="4.76049">
        <ele>171</ele>
        <time>2018-08-26T08:23:23Z</time>
      </trkpt>
      <trkpt lat="45.92593" lon="4.76052">
        <ele>171</ele>
        <time>2018-08-26T08:23:24Z</time>
      </trkpt>
      <trkpt lat="45.92598" lon="4.76056">
        <ele>171</ele>
        <time>2018-08-26T08:23:25Z</time>
      </trkpt>
      <trkpt lat="45.92604" lon="4.7606">
        <ele>171</ele>
        <time>2018-08-26T08:23:26Z</time>
      </trkpt>
      <trkpt lat="45.92609" lon="4.76066">
        <ele>171</ele>
        <time>2018-08-26T08:23:27Z</time>
      </trkpt>
      <trkpt lat="45.92615" lon="4.76069">
        <ele>171</ele>
        <time>2018-08-26T08:23:28Z</time>
      </trkpt>
      <trkpt lat="45.9262" lon="4.76074">
        <ele>171</ele>
        <time>2018-08-26T08:23:29Z</time>
      </trkpt>
      <trkpt lat="45.92627" lon="4.76078">
        <ele>170</ele>
        <time>2018-08-26T08:23:30Z</time>
      </trkpt>
      <trkpt lat="45.92633" lon="4.76082">
        <ele>170</ele>
        <time>2018-08-26T08:23:31Z</time>
      </trkpt>
      <trkpt lat="45.92639" lon="4.76086">
        <ele>170</ele>
        <time>2018-08-26T08:23:32Z</time>
      </trkpt>
      <trkpt lat="45.92644" lon="4.76091">
        <ele>170</ele>
        <time>2018-08-26T08:23:33Z</time>
      </trkpt>
      <trkpt lat="45.92652" lon="4.76095">
        <ele>170</ele>
        <time>2018-08-26T08:23:34Z</time>
      </trkpt>
      <trkpt lat="45.9266" lon="4.76099">
        <ele>170</ele>
        <time>2018-08-26T08:23:35Z</time>
      </trkpt>
      <trkpt lat="45.92665" lon="4.76103">
        <ele>170</ele>
        <time>2018-08-26T08:23:36Z</time>
      </trkpt>
      <trkpt lat="45.92674" lon="4.76108">
        <ele>169</ele>
        <time>2018-08-26T08:23:37Z</time>
      </trkpt>
      <trkpt lat="45.92681" lon="4.76112">
        <ele>169</ele>
        <time>2018-08-26T08:23:38Z</time>
      </trkpt>
      <trkpt lat="45.92687" lon="4.76117">
        <ele>169</ele>
        <time>2018-08-26T08:23:39Z</time>
      </trkpt>
      <trkpt lat="45.92694" lon="4.76122">
        <ele>169</ele>
        <time>2018-08-26T08:23:40Z</time>
      </trkpt>
      <trkpt lat="45.92702" lon="4.76127">
        <ele>169</ele>
        <time>2018-08-26T08:23:41Z</time>
      </trkpt>
      <trkpt lat="45.92709" lon="4.76132">
        <ele>168</ele>
        <time>2018-08-26T08:23:42Z</time>
      </trkpt>
      <trkpt lat="45.92716" lon="4.76137">
        <ele>168</ele>
        <time>2018-08-26T08:23:43Z</time>
      </trkpt>
      <trkpt lat="45.92722" lon="4.76142">
        <ele>168</ele>
        <time>2018-08-26T08:23:44Z</time>
      </trkpt>
      <trkpt lat="45.92729" lon="4.76147">
        <ele>168</ele>
        <time>2018-08-26T08:23:45Z</time>
      </trkpt>
      <trkpt lat="45.92737" lon="4.76151">
        <ele>168</ele>
        <time>2018-08-26T08:23:46Z</time>
      </trkpt>
      <trkpt lat="45.92742" lon="4.76155">
        <ele>168</ele>
        <time>2018-08-26T08:23:47Z</time>
      </trkpt>
      <trkpt lat="45.92749" lon="4.76161">
        <ele>167</ele>
        <time>2018-08-26T08:23:48Z</time>
      </trkpt>
      <trkpt lat="45.92755" lon="4.76165">
        <ele>167</ele>
        <time>2018-08-26T08:23:49Z</time>
      </trkpt>
      <trkpt lat="45.9276" lon="4.76171">
        <ele>167</ele>
        <time>2018-08-26T08:23:50Z</time>
      </trkpt>
      <trkpt lat="45.92766" lon="4.76176">
        <ele>167</ele>
        <time>2018-08-26T08:23:51Z</time>
      </trkpt>
      <trkpt lat="45.92772" lon="4.76181">
        <ele>167</ele>
        <time>2018-08-26T08:23:52Z</time>
      </trkpt>
      <trkpt lat="45.92777" lon="4.76186">
        <ele>168</ele>
        <time>2018-08-26T08:23:53Z</time>
      </trkpt>
      <trkpt lat="45.92783" lon="4.76195">
        <ele>168</ele>
        <time>2018-08-26T08:23:55Z</time>
      </trkpt>
      <trkpt lat="45.92789" lon="4.76199">
        <ele>168</ele>
        <time>2018-08-26T08:23:56Z</time>
      </trkpt>
      <trkpt lat="45.92794" lon="4.76204">
        <ele>168</ele>
        <time>2018-08-26T08:23:57Z</time>
      </trkpt>
      <trkpt lat="45.92799" lon="4.76209">
        <ele>168</ele>
        <time>2018-08-26T08:23:58Z</time>
      </trkpt>
      <trkpt lat="45.92804" lon="4.76214">
        <ele>168</ele>
        <time>2018-08-26T08:23:59Z</time>
      </trkpt>
      <trkpt lat="45.92808" lon="4.76221">
        <ele>168</ele>
        <time>2018-08-26T08:24:00Z</time>
      </trkpt>
      <trkpt lat="45.92813" lon="4.76225">
        <ele>168</ele>
        <time>2018-08-26T08:24:01Z</time>
      </trkpt>
      <trkpt lat="45.92818" lon="4.76231">
        <ele>168</ele>
        <time>2018-08-26T08:24:02Z</time>
      </trkpt>
      <trkpt lat="45.92824" lon="4.76236">
        <ele>168</ele>
        <time>2018-08-26T08:24:03Z</time>
      </trkpt>
      <trkpt lat="45.92829" lon="4.76241">
        <ele>169</ele>
        <time>2018-08-26T08:24:04Z</time>
      </trkpt>
      <trkpt lat="45.92833" lon="4.76246">
        <ele>169</ele>
        <time>2018-08-26T08:24:05Z</time>
      </trkpt>
      <trkpt lat="45.9284" lon="4.7625">
        <ele>169</ele>
        <time>2018-08-26T08:24:06Z</time>
      </trkpt>
      <trkpt lat="45.92845" lon="4.76254">
        <ele>169</ele>
        <time>2018-08-26T08:24:07Z</time>
      </trkpt>
      <trkpt lat="45.92848" lon="4.76259">
        <ele>169</ele>
        <time>2018-08-26T08:24:08Z</time>
      </trkpt>
      <trkpt lat="45.92852" lon="4.76264">
        <ele>169</ele>
        <time>2018-08-26T08:24:09Z</time>
      </trkpt>
      <trkpt lat="45.92857" lon="4.76268">
        <ele>169</ele>
        <time>2018-08-26T08:24:10Z</time>
      </trkpt>
      <trkpt lat="45.92864" lon="4.76274">
        <ele>169</ele>
        <time>2018-08-26T08:24:12Z</time>
      </trkpt>
      <trkpt lat="45.92869" lon="4.76278">
        <ele>169</ele>
        <time>2018-08-26T08:24:13Z</time>
      </trkpt>
      <trkpt lat="45.92873" lon="4.76283">
        <ele>169</ele>
        <time>2018-08-26T08:24:14Z</time>
      </trkpt>
      <trkpt lat="45.92877" lon="4.76286">
        <ele>169</ele>
        <time>2018-08-26T08:24:15Z</time>
      </trkpt>
      <trkpt lat="45.92882" lon="4.76292">
        <ele>169</ele>
        <time>2018-08-26T08:24:16Z</time>
      </trkpt>
      <trkpt lat="45.92889" lon="4.76296">
        <ele>169</ele>
        <time>2018-08-26T08:24:17Z</time>
      </trkpt>
      <trkpt lat="45.92894" lon="4.76301">
        <ele>169</ele>
        <time>2018-08-26T08:24:18Z</time>
      </trkpt>
      <trkpt lat="45.92899" lon="4.76308">
        <ele>169</ele>
        <time>2018-08-26T08:24:19Z</time>
      </trkpt>
      <trkpt lat="45.92902" lon="4.76311">
        <ele>169</ele>
        <time>2018-08-26T08:24:20Z</time>
      </trkpt>
      <trkpt lat="45.92907" lon="4.76317">
        <ele>169</ele>
        <time>2018-08-26T08:24:21Z</time>
      </trkpt>
      <trkpt lat="45.9291" lon="4.76322">
        <ele>169</ele>
        <time>2018-08-26T08:24:22Z</time>
      </trkpt>
      <trkpt lat="45.92914" lon="4.76326">
        <ele>169</ele>
        <time>2018-08-26T08:24:23Z</time>
      </trkpt>
      <trkpt lat="45.92919" lon="4.76331">
        <ele>169</ele>
        <time>2018-08-26T08:24:24Z</time>
      </trkpt>
      <trkpt lat="45.92924" lon="4.76336">
        <ele>169</ele>
        <time>2018-08-26T08:24:25Z</time>
      </trkpt>
      <trkpt lat="45.92929" lon="4.76338">
        <ele>169</ele>
        <time>2018-08-26T08:24:26Z</time>
      </trkpt>
      <trkpt lat="45.92933" lon="4.76343">
        <ele>169</ele>
        <time>2018-08-26T08:24:27Z</time>
      </trkpt>
      <trkpt lat="45.92937" lon="4.76351">
        <ele>169</ele>
        <time>2018-08-26T08:24:28Z</time>
      </trkpt>
      <trkpt lat="45.92942" lon="4.76354">
        <ele>169</ele>
        <time>2018-08-26T08:24:29Z</time>
      </trkpt>
      <trkpt lat="45.92948" lon="4.76359">
        <ele>169</ele>
        <time>2018-08-26T08:24:30Z</time>
      </trkpt>
      <trkpt lat="45.92953" lon="4.76363">
        <ele>169</ele>
        <time>2018-08-26T08:24:31Z</time>
      </trkpt>
      <trkpt lat="45.92958" lon="4.76367">
        <ele>169</ele>
        <time>2018-08-26T08:24:32Z</time>
      </trkpt>
      <trkpt lat="45.92963" lon="4.7637">
        <ele>169</ele>
        <time>2018-08-26T08:24:33Z</time>
      </trkpt>
      <trkpt lat="45.92968" lon="4.76376">
        <ele>169</ele>
        <time>2018-08-26T08:24:34Z</time>
      </trkpt>
      <trkpt lat="45.92972" lon="4.76381">
        <ele>169</ele>
        <time>2018-08-26T08:24:35Z</time>
      </trkpt>
      <trkpt lat="45.92977" lon="4.76387">
        <ele>169</ele>
        <time>2018-08-26T08:24:36Z</time>
      </trkpt>
      <trkpt lat="45.92982" lon="4.76391">
        <ele>169</ele>
        <time>2018-08-26T08:24:37Z</time>
      </trkpt>
      <trkpt lat="45.92986" lon="4.76395">
        <ele>169</ele>
        <time>2018-08-26T08:24:38Z</time>
      </trkpt>
      <trkpt lat="45.92991" lon="4.764">
        <ele>169</ele>
        <time>2018-08-26T08:24:39Z</time>
      </trkpt>
      <trkpt lat="45.92997" lon="4.76404">
        <ele>169</ele>
        <time>2018-08-26T08:24:40Z</time>
      </trkpt>
      <trkpt lat="45.93001" lon="4.76409">
        <ele>169</ele>
        <time>2018-08-26T08:24:41Z</time>
      </trkpt>
      <trkpt lat="45.93006" lon="4.76412">
        <ele>169</ele>
        <time>2018-08-26T08:24:42Z</time>
      </trkpt>
      <trkpt lat="45.93011" lon="4.76417">
        <ele>169</ele>
        <time>2018-08-26T08:24:43Z</time>
      </trkpt>
      <trkpt lat="45.93016" lon="4.7642">
        <ele>169</ele>
        <time>2018-08-26T08:24:44Z</time>
      </trkpt>
      <trkpt lat="45.93021" lon="4.76425">
        <ele>169</ele>
        <time>2018-08-26T08:24:45Z</time>
      </trkpt>
      <trkpt lat="45.93027" lon="4.76432">
        <ele>169</ele>
        <time>2018-08-26T08:24:46Z</time>
      </trkpt>
      <trkpt lat="45.93031" lon="4.76436">
        <ele>169</ele>
        <time>2018-08-26T08:24:47Z</time>
      </trkpt>
      <trkpt lat="45.93037" lon="4.76441">
        <ele>169</ele>
        <time>2018-08-26T08:24:48Z</time>
      </trkpt>
      <trkpt lat="45.93042" lon="4.76445">
        <ele>169</ele>
        <time>2018-08-26T08:24:49Z</time>
      </trkpt>
      <trkpt lat="45.93047" lon="4.7645">
        <ele>169</ele>
        <time>2018-08-26T08:24:50Z</time>
      </trkpt>
      <trkpt lat="45.93052" lon="4.76457">
        <ele>169</ele>
        <time>2018-08-26T08:24:51Z</time>
      </trkpt>
      <trkpt lat="45.93056" lon="4.7646">
        <ele>169</ele>
        <time>2018-08-26T08:24:52Z</time>
      </trkpt>
      <trkpt lat="45.93061" lon="4.76465">
        <ele>169</ele>
        <time>2018-08-26T08:24:53Z</time>
      </trkpt>
      <trkpt lat="45.93065" lon="4.7647">
        <ele>169</ele>
        <time>2018-08-26T08:24:54Z</time>
      </trkpt>
      <trkpt lat="45.93071" lon="4.76475">
        <ele>169</ele>
        <time>2018-08-26T08:24:55Z</time>
      </trkpt>
      <trkpt lat="45.93074" lon="4.76481">
        <ele>169</ele>
        <time>2018-08-26T08:24:56Z</time>
      </trkpt>
      <trkpt lat="45.93078" lon="4.76487">
        <ele>170</ele>
        <time>2018-08-26T08:24:57Z</time>
      </trkpt>
      <trkpt lat="45.93082" lon="4.76491">
        <ele>170</ele>
        <time>2018-08-26T08:24:58Z</time>
      </trkpt>
      <trkpt lat="45.93088" lon="4.76494">
        <ele>170</ele>
        <time>2018-08-26T08:24:59Z</time>
      </trkpt>
      <trkpt lat="45.93093" lon="4.765">
        <ele>170</ele>
        <time>2018-08-26T08:25:00Z</time>
      </trkpt>
      <trkpt lat="45.93099" lon="4.76505">
        <ele>170</ele>
        <time>2018-08-26T08:25:01Z</time>
      </trkpt>
      <trkpt lat="45.93104" lon="4.76511">
        <ele>170</ele>
        <time>2018-08-26T08:25:02Z</time>
      </trkpt>
      <trkpt lat="45.93109" lon="4.76515">
        <ele>170</ele>
        <time>2018-08-26T08:25:03Z</time>
      </trkpt>
      <trkpt lat="45.93115" lon="4.76519">
        <ele>170</ele>
        <time>2018-08-26T08:25:04Z</time>
      </trkpt>
      <trkpt lat="45.93119" lon="4.76525">
        <ele>170</ele>
        <time>2018-08-26T08:25:05Z</time>
      </trkpt>
      <trkpt lat="45.93124" lon="4.7653">
        <ele>170</ele>
        <time>2018-08-26T08:25:06Z</time>
      </trkpt>
      <trkpt lat="45.93127" lon="4.76535">
        <ele>170</ele>
        <time>2018-08-26T08:25:07Z</time>
      </trkpt>
      <trkpt lat="45.93133" lon="4.76538">
        <ele>170</ele>
        <time>2018-08-26T08:25:08Z</time>
      </trkpt>
      <trkpt lat="45.93136" lon="4.76542">
        <ele>170</ele>
        <time>2018-08-26T08:25:09Z</time>
      </trkpt>
      <trkpt lat="45.93141" lon="4.76546">
        <ele>170</ele>
        <time>2018-08-26T08:25:10Z</time>
      </trkpt>
      <trkpt lat="45.93147" lon="4.76552">
        <ele>170</ele>
        <time>2018-08-26T08:25:11Z</time>
      </trkpt>
      <trkpt lat="45.93152" lon="4.76556">
        <ele>170</ele>
        <time>2018-08-26T08:25:12Z</time>
      </trkpt>
      <trkpt lat="45.93154" lon="4.76563">
        <ele>170</ele>
        <time>2018-08-26T08:25:13Z</time>
      </trkpt>
      <trkpt lat="45.9316" lon="4.76568">
        <ele>170</ele>
        <time>2018-08-26T08:25:14Z</time>
      </trkpt>
      <trkpt lat="45.93165" lon="4.76572">
        <ele>170</ele>
        <time>2018-08-26T08:25:15Z</time>
      </trkpt>
      <trkpt lat="45.9317" lon="4.76576">
        <ele>170</ele>
        <time>2018-08-26T08:25:16Z</time>
      </trkpt>
      <trkpt lat="45.93174" lon="4.7658">
        <ele>170</ele>
        <time>2018-08-26T08:25:17Z</time>
      </trkpt>
      <trkpt lat="45.93179" lon="4.76586">
        <ele>171</ele>
        <time>2018-08-26T08:25:18Z</time>
      </trkpt>
      <trkpt lat="45.93183" lon="4.76592">
        <ele>171</ele>
        <time>2018-08-26T08:25:19Z</time>
      </trkpt>
      <trkpt lat="45.93186" lon="4.76598">
        <ele>171</ele>
        <time>2018-08-26T08:25:20Z</time>
      </trkpt>
      <trkpt lat="45.9319" lon="4.76603">
        <ele>171</ele>
        <time>2018-08-26T08:25:21Z</time>
      </trkpt>
      <trkpt lat="45.93193" lon="4.76608">
        <ele>170</ele>
        <time>2018-08-26T08:25:22Z</time>
      </trkpt>
      <trkpt lat="45.93196" lon="4.76613">
        <ele>171</ele>
        <time>2018-08-26T08:25:23Z</time>
      </trkpt>
      <trkpt lat="45.93202" lon="4.76617">
        <ele>170</ele>
        <time>2018-08-26T08:25:24Z</time>
      </trkpt>
      <trkpt lat="45.93207" lon="4.7662">
        <ele>170</ele>
        <time>2018-08-26T08:25:25Z</time>
      </trkpt>
      <trkpt lat="45.93215" lon="4.76626">
        <ele>170</ele>
        <time>2018-08-26T08:25:27Z</time>
      </trkpt>
      <trkpt lat="45.9322" lon="4.7663">
        <ele>170</ele>
        <time>2018-08-26T08:25:28Z</time>
      </trkpt>
      <trkpt lat="45.93224" lon="4.76635">
        <ele>171</ele>
        <time>2018-08-26T08:25:29Z</time>
      </trkpt>
      <trkpt lat="45.93229" lon="4.76638">
        <ele>171</ele>
        <time>2018-08-26T08:25:30Z</time>
      </trkpt>
      <trkpt lat="45.93237" lon="4.76643">
        <ele>171</ele>
        <time>2018-08-26T08:25:32Z</time>
      </trkpt>
      <trkpt lat="45.9324" lon="4.76647">
        <ele>171</ele>
        <time>2018-08-26T08:25:33Z</time>
      </trkpt>
      <trkpt lat="45.93244" lon="4.76652">
        <ele>171</ele>
        <time>2018-08-26T08:25:34Z</time>
      </trkpt>
      <trkpt lat="45.93248" lon="4.76656">
        <ele>171</ele>
        <time>2018-08-26T08:25:35Z</time>
      </trkpt>
      <trkpt lat="45.93251" lon="4.7666">
        <ele>171</ele>
        <time>2018-08-26T08:25:36Z</time>
      </trkpt>
      <trkpt lat="45.93256" lon="4.76662">
        <ele>171</ele>
        <time>2018-08-26T08:25:37Z</time>
      </trkpt>
      <trkpt lat="45.93262" lon="4.76665">
        <ele>171</ele>
        <time>2018-08-26T08:25:38Z</time>
      </trkpt>
      <trkpt lat="45.93266" lon="4.7667">
        <ele>172</ele>
        <time>2018-08-26T08:25:39Z</time>
      </trkpt>
      <trkpt lat="45.93271" lon="4.76679">
        <ele>172</ele>
        <time>2018-08-26T08:25:40Z</time>
      </trkpt>
      <trkpt lat="45.93276" lon="4.7668">
        <ele>172</ele>
        <time>2018-08-26T08:25:41Z</time>
      </trkpt>
      <trkpt lat="45.9328" lon="4.76685">
        <ele>172</ele>
        <time>2018-08-26T08:25:42Z</time>
      </trkpt>
      <trkpt lat="45.93285" lon="4.76692">
        <ele>172</ele>
        <time>2018-08-26T08:25:43Z</time>
      </trkpt>
      <trkpt lat="45.93289" lon="4.76697">
        <ele>172</ele>
        <time>2018-08-26T08:25:44Z</time>
      </trkpt>
      <trkpt lat="45.93293" lon="4.76701">
        <ele>172</ele>
        <time>2018-08-26T08:25:45Z</time>
      </trkpt>
      <trkpt lat="45.93297" lon="4.76705">
        <ele>172</ele>
        <time>2018-08-26T08:25:46Z</time>
      </trkpt>
      <trkpt lat="45.93302" lon="4.7671">
        <ele>172</ele>
        <time>2018-08-26T08:25:47Z</time>
      </trkpt>
      <trkpt lat="45.93307" lon="4.76714">
        <ele>172</ele>
        <time>2018-08-26T08:25:48Z</time>
      </trkpt>
      <trkpt lat="45.93311" lon="4.76718">
        <ele>172</ele>
        <time>2018-08-26T08:25:49Z</time>
      </trkpt>
      <trkpt lat="45.93316" lon="4.76722">
        <ele>172</ele>
        <time>2018-08-26T08:25:50Z</time>
      </trkpt>
      <trkpt lat="45.9332" lon="4.76727">
        <ele>172</ele>
        <time>2018-08-26T08:25:51Z</time>
      </trkpt>
      <trkpt lat="45.93326" lon="4.76729">
        <ele>172</ele>
        <time>2018-08-26T08:25:52Z</time>
      </trkpt>
      <trkpt lat="45.9333" lon="4.76734">
        <ele>172</ele>
        <time>2018-08-26T08:25:53Z</time>
      </trkpt>
      <trkpt lat="45.93336" lon="4.76738">
        <ele>172</ele>
        <time>2018-08-26T08:25:54Z</time>
      </trkpt>
      <trkpt lat="45.9334" lon="4.76743">
        <ele>173</ele>
        <time>2018-08-26T08:25:55Z</time>
      </trkpt>
      <trkpt lat="45.93345" lon="4.76747">
        <ele>172</ele>
        <time>2018-08-26T08:25:56Z</time>
      </trkpt>
      <trkpt lat="45.9335" lon="4.76753">
        <ele>172</ele>
        <time>2018-08-26T08:25:57Z</time>
      </trkpt>
      <trkpt lat="45.93354" lon="4.76758">
        <ele>172</ele>
        <time>2018-08-26T08:25:58Z</time>
      </trkpt>
      <trkpt lat="45.93357" lon="4.76762">
        <ele>172</ele>
        <time>2018-08-26T08:25:59Z</time>
      </trkpt>
      <trkpt lat="45.93361" lon="4.76766">
        <ele>172</ele>
        <time>2018-08-26T08:26:00Z</time>
      </trkpt>
      <trkpt lat="45.93366" lon="4.76769">
        <ele>172</ele>
        <time>2018-08-26T08:26:01Z</time>
      </trkpt>
      <trkpt lat="45.93369" lon="4.76774">
        <ele>172</ele>
        <time>2018-08-26T08:26:02Z</time>
      </trkpt>
      <trkpt lat="45.93374" lon="4.76779">
        <ele>172</ele>
        <time>2018-08-26T08:26:03Z</time>
      </trkpt>
      <trkpt lat="45.93379" lon="4.76783">
        <ele>172</ele>
        <time>2018-08-26T08:26:04Z</time>
      </trkpt>
      <trkpt lat="45.93384" lon="4.76788">
        <ele>172</ele>
        <time>2018-08-26T08:26:05Z</time>
      </trkpt>
      <trkpt lat="45.9339" lon="4.76793">
        <ele>172</ele>
        <time>2018-08-26T08:26:06Z</time>
      </trkpt>
      <trkpt lat="45.93394" lon="4.76798">
        <ele>172</ele>
        <time>2018-08-26T08:26:07Z</time>
      </trkpt>
      <trkpt lat="45.93398" lon="4.76804">
        <ele>172</ele>
        <time>2018-08-26T08:26:08Z</time>
      </trkpt>
      <trkpt lat="45.93403" lon="4.76811">
        <ele>172</ele>
        <time>2018-08-26T08:26:09Z</time>
      </trkpt>
      <trkpt lat="45.93407" lon="4.76817">
        <ele>172</ele>
        <time>2018-08-26T08:26:10Z</time>
      </trkpt>
      <trkpt lat="45.93411" lon="4.76823">
        <ele>172</ele>
        <time>2018-08-26T08:26:11Z</time>
      </trkpt>
      <trkpt lat="45.93413" lon="4.7683">
        <ele>172</ele>
        <time>2018-08-26T08:26:12Z</time>
      </trkpt>
      <trkpt lat="45.93416" lon="4.76836">
        <ele>172</ele>
        <time>2018-08-26T08:26:13Z</time>
      </trkpt>
      <trkpt lat="45.9342" lon="4.76843">
        <ele>171</ele>
        <time>2018-08-26T08:26:14Z</time>
      </trkpt>
      <trkpt lat="45.93423" lon="4.7685">
        <ele>171</ele>
        <time>2018-08-26T08:26:15Z</time>
      </trkpt>
      <trkpt lat="45.93426" lon="4.76856">
        <ele>171</ele>
        <time>2018-08-26T08:26:16Z</time>
      </trkpt>
      <trkpt lat="45.93429" lon="4.76862">
        <ele>171</ele>
        <time>2018-08-26T08:26:17Z</time>
      </trkpt>
      <trkpt lat="45.93431" lon="4.76869">
        <ele>171</ele>
        <time>2018-08-26T08:26:18Z</time>
      </trkpt>
      <trkpt lat="45.93433" lon="4.76875">
        <ele>171</ele>
        <time>2018-08-26T08:26:19Z</time>
      </trkpt>
      <trkpt lat="45.93435" lon="4.76882">
        <ele>171</ele>
        <time>2018-08-26T08:26:20Z</time>
      </trkpt>
      <trkpt lat="45.93437" lon="4.76888">
        <ele>171</ele>
        <time>2018-08-26T08:26:21Z</time>
      </trkpt>
      <trkpt lat="45.93439" lon="4.76894">
        <ele>170</ele>
        <time>2018-08-26T08:26:22Z</time>
      </trkpt>
      <trkpt lat="45.9344" lon="4.76901">
        <ele>170</ele>
        <time>2018-08-26T08:26:23Z</time>
      </trkpt>
      <trkpt lat="45.93442" lon="4.76907">
        <ele>170</ele>
        <time>2018-08-26T08:26:24Z</time>
      </trkpt>
      <trkpt lat="45.93445" lon="4.76913">
        <ele>170</ele>
        <time>2018-08-26T08:26:25Z</time>
      </trkpt>
      <trkpt lat="45.93446" lon="4.7692">
        <ele>170</ele>
        <time>2018-08-26T08:26:26Z</time>
      </trkpt>
      <trkpt lat="45.93448" lon="4.76928">
        <ele>170</ele>
        <time>2018-08-26T08:26:27Z</time>
      </trkpt>
      <trkpt lat="45.93449" lon="4.76936">
        <ele>170</ele>
        <time>2018-08-26T08:26:28Z</time>
      </trkpt>
      <trkpt lat="45.93451" lon="4.76943">
        <ele>170</ele>
        <time>2018-08-26T08:26:29Z</time>
      </trkpt>
      <trkpt lat="45.93452" lon="4.7695">
        <ele>170</ele>
        <time>2018-08-26T08:26:30Z</time>
      </trkpt>
      <trkpt lat="45.93453" lon="4.76958">
        <ele>170</ele>
        <time>2018-08-26T08:26:31Z</time>
      </trkpt>
      <trkpt lat="45.93456" lon="4.76964">
        <ele>170</ele>
        <time>2018-08-26T08:26:32Z</time>
      </trkpt>
      <trkpt lat="45.93457" lon="4.76972">
        <ele>170</ele>
        <time>2018-08-26T08:26:33Z</time>
      </trkpt>
      <trkpt lat="45.93458" lon="4.76978">
        <ele>170</ele>
        <time>2018-08-26T08:26:34Z</time>
      </trkpt>
      <trkpt lat="45.93459" lon="4.76986">
        <ele>170</ele>
        <time>2018-08-26T08:26:35Z</time>
      </trkpt>
      <trkpt lat="45.9346" lon="4.76993">
        <ele>170</ele>
        <time>2018-08-26T08:26:36Z</time>
      </trkpt>
      <trkpt lat="45.93462" lon="4.77001">
        <ele>170</ele>
        <time>2018-08-26T08:26:37Z</time>
      </trkpt>
      <trkpt lat="45.93463" lon="4.77008">
        <ele>170</ele>
        <time>2018-08-26T08:26:38Z</time>
      </trkpt>
      <trkpt lat="45.93465" lon="4.77014">
        <ele>170</ele>
        <time>2018-08-26T08:26:39Z</time>
      </trkpt>
      <trkpt lat="45.93466" lon="4.77021">
        <ele>170</ele>
        <time>2018-08-26T08:26:40Z</time>
      </trkpt>
      <trkpt lat="45.93466" lon="4.7703">
        <ele>170</ele>
        <time>2018-08-26T08:26:41Z</time>
      </trkpt>
      <trkpt lat="45.93468" lon="4.77038">
        <ele>170</ele>
        <time>2018-08-26T08:26:42Z</time>
      </trkpt>
      <trkpt lat="45.93469" lon="4.77046">
        <ele>170</ele>
        <time>2018-08-26T08:26:43Z</time>
      </trkpt>
      <trkpt lat="45.93471" lon="4.77053">
        <ele>170</ele>
        <time>2018-08-26T08:26:44Z</time>
      </trkpt>
      <trkpt lat="45.93472" lon="4.77061">
        <ele>170</ele>
        <time>2018-08-26T08:26:45Z</time>
      </trkpt>
      <trkpt lat="45.93474" lon="4.77068">
        <ele>170</ele>
        <time>2018-08-26T08:26:46Z</time>
      </trkpt>
      <trkpt lat="45.93476" lon="4.77075">
        <ele>170</ele>
        <time>2018-08-26T08:26:47Z</time>
      </trkpt>
      <trkpt lat="45.93477" lon="4.77082">
        <ele>170</ele>
        <time>2018-08-26T08:26:48Z</time>
      </trkpt>
      <trkpt lat="45.93478" lon="4.77089">
        <ele>169</ele>
        <time>2018-08-26T08:26:49Z</time>
      </trkpt>
      <trkpt lat="45.9348" lon="4.77096">
        <ele>169</ele>
        <time>2018-08-26T08:26:50Z</time>
      </trkpt>
      <trkpt lat="45.93481" lon="4.77104">
        <ele>169</ele>
        <time>2018-08-26T08:26:51Z</time>
      </trkpt>
      <trkpt lat="45.93483" lon="4.77111">
        <ele>169</ele>
        <time>2018-08-26T08:26:52Z</time>
      </trkpt>
      <trkpt lat="45.93483" lon="4.77119">
        <ele>169</ele>
        <time>2018-08-26T08:26:53Z</time>
      </trkpt>
      <trkpt lat="45.93485" lon="4.77127">
        <ele>169</ele>
        <time>2018-08-26T08:26:54Z</time>
      </trkpt>
      <trkpt lat="45.93485" lon="4.77136">
        <ele>169</ele>
        <time>2018-08-26T08:26:55Z</time>
      </trkpt>
      <trkpt lat="45.93486" lon="4.77144">
        <ele>169</ele>
        <time>2018-08-26T08:26:56Z</time>
      </trkpt>
      <trkpt lat="45.93489" lon="4.77152">
        <ele>169</ele>
        <time>2018-08-26T08:26:57Z</time>
      </trkpt>
      <trkpt lat="45.9349" lon="4.7716">
        <ele>169</ele>
        <time>2018-08-26T08:26:58Z</time>
      </trkpt>
      <trkpt lat="45.93493" lon="4.77167">
        <ele>169</ele>
        <time>2018-08-26T08:26:59Z</time>
      </trkpt>
      <trkpt lat="45.93495" lon="4.77176">
        <ele>169</ele>
        <time>2018-08-26T08:27:00Z</time>
      </trkpt>
      <trkpt lat="45.93496" lon="4.77183">
        <ele>169</ele>
        <time>2018-08-26T08:27:01Z</time>
      </trkpt>
      <trkpt lat="45.93497" lon="4.7719">
        <ele>169</ele>
        <time>2018-08-26T08:27:02Z</time>
      </trkpt>
      <trkpt lat="45.935" lon="4.77199">
        <ele>169</ele>
        <time>2018-08-26T08:27:03Z</time>
      </trkpt>
      <trkpt lat="45.93502" lon="4.77207">
        <ele>169</ele>
        <time>2018-08-26T08:27:04Z</time>
      </trkpt>
      <trkpt lat="45.93503" lon="4.77214">
        <ele>169</ele>
        <time>2018-08-26T08:27:05Z</time>
      </trkpt>
      <trkpt lat="45.93507" lon="4.77225">
        <ele>169</ele>
        <time>2018-08-26T08:27:07Z</time>
      </trkpt>
      <trkpt lat="45.93507" lon="4.7723">
        <ele>169</ele>
        <time>2018-08-26T08:27:08Z</time>
      </trkpt>
      <trkpt lat="45.93509" lon="4.77236">
        <ele>169</ele>
        <time>2018-08-26T08:27:09Z</time>
      </trkpt>
      <trkpt lat="45.93511" lon="4.77243">
        <ele>169</ele>
        <time>2018-08-26T08:27:10Z</time>
      </trkpt>
      <trkpt lat="45.93512" lon="4.77249">
        <ele>169</ele>
        <time>2018-08-26T08:27:11Z</time>
      </trkpt>
      <trkpt lat="45.93514" lon="4.77256">
        <ele>170</ele>
        <time>2018-08-26T08:27:12Z</time>
      </trkpt>
      <trkpt lat="45.93517" lon="4.77263">
        <ele>170</ele>
        <time>2018-08-26T08:27:13Z</time>
      </trkpt>
      <trkpt lat="45.93518" lon="4.7727">
        <ele>170</ele>
        <time>2018-08-26T08:27:14Z</time>
      </trkpt>
      <trkpt lat="45.9352" lon="4.77277">
        <ele>170</ele>
        <time>2018-08-26T08:27:15Z</time>
      </trkpt>
      <trkpt lat="45.9352" lon="4.77284">
        <ele>170</ele>
        <time>2018-08-26T08:27:16Z</time>
      </trkpt>
      <trkpt lat="45.93521" lon="4.77291">
        <ele>170</ele>
        <time>2018-08-26T08:27:17Z</time>
      </trkpt>
      <trkpt lat="45.93523" lon="4.773">
        <ele>170</ele>
        <time>2018-08-26T08:27:18Z</time>
      </trkpt>
      <trkpt lat="45.93524" lon="4.77308">
        <ele>170</ele>
        <time>2018-08-26T08:27:19Z</time>
      </trkpt>
      <trkpt lat="45.93525" lon="4.77317">
        <ele>170</ele>
        <time>2018-08-26T08:27:20Z</time>
      </trkpt>
      <trkpt lat="45.93527" lon="4.77325">
        <ele>170</ele>
        <time>2018-08-26T08:27:21Z</time>
      </trkpt>
      <trkpt lat="45.93528" lon="4.77333">
        <ele>170</ele>
        <time>2018-08-26T08:27:22Z</time>
      </trkpt>
      <trkpt lat="45.9353" lon="4.77342">
        <ele>170</ele>
        <time>2018-08-26T08:27:23Z</time>
      </trkpt>
      <trkpt lat="45.9353" lon="4.77351">
        <ele>170</ele>
        <time>2018-08-26T08:27:24Z</time>
      </trkpt>
      <trkpt lat="45.93532" lon="4.77359">
        <ele>170</ele>
        <time>2018-08-26T08:27:25Z</time>
      </trkpt>
      <trkpt lat="45.93537" lon="4.77364">
        <ele>170</ele>
        <time>2018-08-26T08:27:26Z</time>
      </trkpt>
      <trkpt lat="45.93537" lon="4.77373">
        <ele>170</ele>
        <time>2018-08-26T08:27:27Z</time>
      </trkpt>
      <trkpt lat="45.93539" lon="4.7738">
        <ele>170</ele>
        <time>2018-08-26T08:27:28Z</time>
      </trkpt>
      <trkpt lat="45.93541" lon="4.77388">
        <ele>170</ele>
        <time>2018-08-26T08:27:29Z</time>
      </trkpt>
      <trkpt lat="45.93543" lon="4.77395">
        <ele>170</ele>
        <time>2018-08-26T08:27:30Z</time>
      </trkpt>
      <trkpt lat="45.93544" lon="4.77404">
        <ele>170</ele>
        <time>2018-08-26T08:27:31Z</time>
      </trkpt>
      <trkpt lat="45.93546" lon="4.77412">
        <ele>170</ele>
        <time>2018-08-26T08:27:32Z</time>
      </trkpt>
      <trkpt lat="45.93548" lon="4.77419">
        <ele>170</ele>
        <time>2018-08-26T08:27:33Z</time>
      </trkpt>
      <trkpt lat="45.93549" lon="4.77428">
        <ele>170</ele>
        <time>2018-08-26T08:27:34Z</time>
      </trkpt>
      <trkpt lat="45.93551" lon="4.77436">
        <ele>169</ele>
        <time>2018-08-26T08:27:35Z</time>
      </trkpt>
      <trkpt lat="45.93552" lon="4.77442">
        <ele>169</ele>
        <time>2018-08-26T08:27:36Z</time>
      </trkpt>
      <trkpt lat="45.93554" lon="4.7745">
        <ele>169</ele>
        <time>2018-08-26T08:27:37Z</time>
      </trkpt>
      <trkpt lat="45.93556" lon="4.77457">
        <ele>169</ele>
        <time>2018-08-26T08:27:38Z</time>
      </trkpt>
      <trkpt lat="45.93556" lon="4.77465">
        <ele>169</ele>
        <time>2018-08-26T08:27:39Z</time>
      </trkpt>
      <trkpt lat="45.93558" lon="4.77474">
        <ele>169</ele>
        <time>2018-08-26T08:27:40Z</time>
      </trkpt>
      <trkpt lat="45.93559" lon="4.7748">
        <ele>169</ele>
        <time>2018-08-26T08:27:41Z</time>
      </trkpt>
      <trkpt lat="45.93561" lon="4.77487">
        <ele>169</ele>
        <time>2018-08-26T08:27:42Z</time>
      </trkpt>
      <trkpt lat="45.93562" lon="4.77493">
        <ele>169</ele>
        <time>2018-08-26T08:27:43Z</time>
      </trkpt>
      <trkpt lat="45.93562" lon="4.775">
        <ele>169</ele>
        <time>2018-08-26T08:27:44Z</time>
      </trkpt>
      <trkpt lat="45.93565" lon="4.77512">
        <ele>169</ele>
        <time>2018-08-26T08:27:46Z</time>
      </trkpt>
      <trkpt lat="45.93566" lon="4.7752">
        <ele>169</ele>
        <time>2018-08-26T08:27:47Z</time>
      </trkpt>
      <trkpt lat="45.93569" lon="4.77526">
        <ele>169</ele>
        <time>2018-08-26T08:27:48Z</time>
      </trkpt>
      <trkpt lat="45.93569" lon="4.77534">
        <ele>169</ele>
        <time>2018-08-26T08:27:49Z</time>
      </trkpt>
      <trkpt lat="45.93572" lon="4.77542">
        <ele>169</ele>
        <time>2018-08-26T08:27:50Z</time>
      </trkpt>
      <trkpt lat="45.93574" lon="4.7755">
        <ele>169</ele>
        <time>2018-08-26T08:27:51Z</time>
      </trkpt>
      <trkpt lat="45.93576" lon="4.77556">
        <ele>169</ele>
        <time>2018-08-26T08:27:52Z</time>
      </trkpt>
      <trkpt lat="45.93579" lon="4.77564">
        <ele>169</ele>
        <time>2018-08-26T08:27:53Z</time>
      </trkpt>
      <trkpt lat="45.93581" lon="4.77572">
        <ele>170</ele>
        <time>2018-08-26T08:27:54Z</time>
      </trkpt>
      <trkpt lat="45.93583" lon="4.77579">
        <ele>170</ele>
        <time>2018-08-26T08:27:55Z</time>
      </trkpt>
      <trkpt lat="45.93585" lon="4.77587">
        <ele>170</ele>
        <time>2018-08-26T08:27:56Z</time>
      </trkpt>
      <trkpt lat="45.93588" lon="4.77595">
        <ele>170</ele>
        <time>2018-08-26T08:27:57Z</time>
      </trkpt>
      <trkpt lat="45.93591" lon="4.77601">
        <ele>170</ele>
        <time>2018-08-26T08:27:58Z</time>
      </trkpt>
      <trkpt lat="45.93594" lon="4.77608">
        <ele>170</ele>
        <time>2018-08-26T08:27:59Z</time>
      </trkpt>
      <trkpt lat="45.93596" lon="4.77616">
        <ele>170</ele>
        <time>2018-08-26T08:28:00Z</time>
      </trkpt>
      <trkpt lat="45.93599" lon="4.77623">
        <ele>170</ele>
        <time>2018-08-26T08:28:01Z</time>
      </trkpt>
      <trkpt lat="45.93601" lon="4.7763">
        <ele>169</ele>
        <time>2018-08-26T08:28:02Z</time>
      </trkpt>
      <trkpt lat="45.93604" lon="4.77634">
        <ele>169</ele>
        <time>2018-08-26T08:28:03Z</time>
      </trkpt>
      <trkpt lat="45.93606" lon="4.77641">
        <ele>169</ele>
        <time>2018-08-26T08:28:04Z</time>
      </trkpt>
      <trkpt lat="45.9361" lon="4.77648">
        <ele>169</ele>
        <time>2018-08-26T08:28:05Z</time>
      </trkpt>
      <trkpt lat="45.93613" lon="4.77654">
        <ele>169</ele>
        <time>2018-08-26T08:28:06Z</time>
      </trkpt>
      <trkpt lat="45.93617" lon="4.77661">
        <ele>169</ele>
        <time>2018-08-26T08:28:07Z</time>
      </trkpt>
      <trkpt lat="45.9362" lon="4.77667">
        <ele>169</ele>
        <time>2018-08-26T08:28:08Z</time>
      </trkpt>
      <trkpt lat="45.93622" lon="4.77675">
        <ele>169</ele>
        <time>2018-08-26T08:28:09Z</time>
      </trkpt>
      <trkpt lat="45.93625" lon="4.77682">
        <ele>169</ele>
        <time>2018-08-26T08:28:10Z</time>
      </trkpt>
      <trkpt lat="45.93626" lon="4.77688">
        <ele>169</ele>
        <time>2018-08-26T08:28:11Z</time>
      </trkpt>
      <trkpt lat="45.9363" lon="4.77696">
        <ele>169</ele>
        <time>2018-08-26T08:28:12Z</time>
      </trkpt>
      <trkpt lat="45.93634" lon="4.77702">
        <ele>170</ele>
        <time>2018-08-26T08:28:13Z</time>
      </trkpt>
      <trkpt lat="45.9364" lon="4.77711">
        <ele>170</ele>
        <time>2018-08-26T08:28:15Z</time>
      </trkpt>
      <trkpt lat="45.93642" lon="4.77717">
        <ele>170</ele>
        <time>2018-08-26T08:28:16Z</time>
      </trkpt>
      <trkpt lat="45.93647" lon="4.77726">
        <ele>170</ele>
        <time>2018-08-26T08:28:18Z</time>
      </trkpt>
      <trkpt lat="45.93652" lon="4.77732">
        <ele>170</ele>
        <time>2018-08-26T08:28:19Z</time>
      </trkpt>
      <trkpt lat="45.93658" lon="4.7774">
        <ele>170</ele>
        <time>2018-08-26T08:28:21Z</time>
      </trkpt>
      <trkpt lat="45.9366" lon="4.77745">
        <ele>171</ele>
        <time>2018-08-26T08:28:22Z</time>
      </trkpt>
      <trkpt lat="45.93665" lon="4.77751">
        <ele>171</ele>
        <time>2018-08-26T08:28:24Z</time>
      </trkpt>
      <trkpt lat="45.93669" lon="4.77755">
        <ele>171</ele>
        <time>2018-08-26T08:28:25Z</time>
      </trkpt>
      <trkpt lat="45.93673" lon="4.77762">
        <ele>170</ele>
        <time>2018-08-26T08:28:27Z</time>
      </trkpt>
      <trkpt lat="45.93675" lon="4.77766">
        <ele>170</ele>
        <time>2018-08-26T08:28:28Z</time>
      </trkpt>
      <trkpt lat="45.93681" lon="4.77774">
        <ele>170</ele>
        <time>2018-08-26T08:28:30Z</time>
      </trkpt>
      <trkpt lat="45.93684" lon="4.77779">
        <ele>170</ele>
        <time>2018-08-26T08:28:31Z</time>
      </trkpt>
      <trkpt lat="45.9369" lon="4.77787">
        <ele>170</ele>
        <time>2018-08-26T08:28:33Z</time>
      </trkpt>
      <trkpt lat="45.93693" lon="4.77791">
        <ele>169</ele>
        <time>2018-08-26T08:28:34Z</time>
      </trkpt>
      <trkpt lat="45.93698" lon="4.778">
        <ele>169</ele>
        <time>2018-08-26T08:28:36Z</time>
      </trkpt>
      <trkpt lat="45.93701" lon="4.77804">
        <ele>169</ele>
        <time>2018-08-26T08:28:37Z</time>
      </trkpt>
      <trkpt lat="45.93707" lon="4.77812">
        <ele>169</ele>
        <time>2018-08-26T08:28:39Z</time>
      </trkpt>
      <trkpt lat="45.9371" lon="4.77816">
        <ele>169</ele>
        <time>2018-08-26T08:28:40Z</time>
      </trkpt>
      <trkpt lat="45.93715" lon="4.77824">
        <ele>169</ele>
        <time>2018-08-26T08:28:42Z</time>
      </trkpt>
      <trkpt lat="45.93718" lon="4.77827">
        <ele>168</ele>
        <time>2018-08-26T08:28:43Z</time>
      </trkpt>
      <trkpt lat="45.93724" lon="4.77836">
        <ele>167</ele>
        <time>2018-08-26T08:28:45Z</time>
      </trkpt>
      <trkpt lat="45.93727" lon="4.7784">
        <ele>167</ele>
        <time>2018-08-26T08:28:46Z</time>
      </trkpt>
      <trkpt lat="45.93734" lon="4.77847">
        <ele>167</ele>
        <time>2018-08-26T08:28:48Z</time>
      </trkpt>
      <trkpt lat="45.93737" lon="4.77851">
        <ele>167</ele>
        <time>2018-08-26T08:28:49Z</time>
      </trkpt>
      <trkpt lat="45.93741" lon="4.77856">
        <ele>167</ele>
        <time>2018-08-26T08:28:50Z</time>
      </trkpt>
      <trkpt lat="45.93744" lon="4.7786">
        <ele>167</ele>
        <time>2018-08-26T08:28:51Z</time>
      </trkpt>
      <trkpt lat="45.93748" lon="4.77864">
        <ele>167</ele>
        <time>2018-08-26T08:28:52Z</time>
      </trkpt>
      <trkpt lat="45.93752" lon="4.77869">
        <ele>166</ele>
        <time>2018-08-26T08:28:53Z</time>
      </trkpt>
      <trkpt lat="45.93756" lon="4.77874">
        <ele>166</ele>
        <time>2018-08-26T08:28:54Z</time>
      </trkpt>
      <trkpt lat="45.9376" lon="4.77878">
        <ele>166</ele>
        <time>2018-08-26T08:28:55Z</time>
      </trkpt>
      <trkpt lat="45.93763" lon="4.77882">
        <ele>166</ele>
        <time>2018-08-26T08:28:56Z</time>
      </trkpt>
      <trkpt lat="45.93766" lon="4.77886">
        <ele>166</ele>
        <time>2018-08-26T08:28:57Z</time>
      </trkpt>
      <trkpt lat="45.93774" lon="4.77893">
        <ele>166</ele>
        <time>2018-08-26T08:28:59Z</time>
      </trkpt>
      <trkpt lat="45.93777" lon="4.77897">
        <ele>166</ele>
        <time>2018-08-26T08:29:00Z</time>
      </trkpt>
      <trkpt lat="45.93781" lon="4.779">
        <ele>166</ele>
        <time>2018-08-26T08:29:01Z</time>
      </trkpt>
      <trkpt lat="45.93784" lon="4.77906">
        <ele>166</ele>
        <time>2018-08-26T08:29:02Z</time>
      </trkpt>
      <trkpt lat="45.93788" lon="4.77911">
        <ele>166</ele>
        <time>2018-08-26T08:29:03Z</time>
      </trkpt>
      <trkpt lat="45.93791" lon="4.77916">
        <ele>166</ele>
        <time>2018-08-26T08:29:04Z</time>
      </trkpt>
      <trkpt lat="45.93797" lon="4.7792">
        <ele>168</ele>
        <time>2018-08-26T08:29:05Z</time>
      </trkpt>
      <trkpt lat="45.938" lon="4.77925">
        <ele>168</ele>
        <time>2018-08-26T08:29:06Z</time>
      </trkpt>
      <trkpt lat="45.93804" lon="4.77931">
        <ele>168</ele>
        <time>2018-08-26T08:29:07Z</time>
      </trkpt>
      <trkpt lat="45.93807" lon="4.77935">
        <ele>169</ele>
        <time>2018-08-26T08:29:08Z</time>
      </trkpt>
      <trkpt lat="45.93811" lon="4.77941">
        <ele>169</ele>
        <time>2018-08-26T08:29:09Z</time>
      </trkpt>
      <trkpt lat="45.93816" lon="4.77945">
        <ele>169</ele>
        <time>2018-08-26T08:29:10Z</time>
      </trkpt>
      <trkpt lat="45.93819" lon="4.77949">
        <ele>169</ele>
        <time>2018-08-26T08:29:11Z</time>
      </trkpt>
      <trkpt lat="45.93824" lon="4.77955">
        <ele>170</ele>
        <time>2018-08-26T08:29:12Z</time>
      </trkpt>
      <trkpt lat="45.9383" lon="4.77961">
        <ele>171</ele>
        <time>2018-08-26T08:29:13Z</time>
      </trkpt>
      <trkpt lat="45.93833" lon="4.77965">
        <ele>171</ele>
        <time>2018-08-26T08:29:14Z</time>
      </trkpt>
      <trkpt lat="45.93837" lon="4.77971">
        <ele>178</ele>
        <time>2018-08-26T08:29:15Z</time>
      </trkpt>
      <trkpt lat="45.93838" lon="4.77977">
        <ele>178</ele>
        <time>2018-08-26T08:29:16Z</time>
      </trkpt>
      <trkpt lat="45.93842" lon="4.77985">
        <ele>178</ele>
        <time>2018-08-26T08:29:17Z</time>
      </trkpt>
      <trkpt lat="45.93846" lon="4.77993">
        <ele>179</ele>
        <time>2018-08-26T08:29:18Z</time>
      </trkpt>
      <trkpt lat="45.93849" lon="4.78001">
        <ele>181</ele>
        <time>2018-08-26T08:29:19Z</time>
      </trkpt>
      <trkpt lat="45.93846" lon="4.78007">
        <ele>181</ele>
        <time>2018-08-26T08:29:20Z</time>
      </trkpt>
      <trkpt lat="45.93847" lon="4.78016">
        <ele>182</ele>
        <time>2018-08-26T08:29:21Z</time>
      </trkpt>
      <trkpt lat="45.93851" lon="4.78021">
        <ele>182</ele>
        <time>2018-08-26T08:29:22Z</time>
      </trkpt>
      <trkpt lat="45.93859" lon="4.78027">
        <ele>183</ele>
        <time>2018-08-26T08:29:24Z</time>
      </trkpt>
      <trkpt lat="45.93859" lon="4.78028">
        <ele>183</ele>
        <time>2018-08-26T08:29:25Z</time>
      </trkpt>
      <trkpt lat="45.93863" lon="4.78029">
        <ele>183</ele>
        <time>2018-08-26T08:29:27Z</time>
      </trkpt>
      <trkpt lat="45.9387" lon="4.78026">
        <ele>183</ele>
        <time>2018-08-26T08:29:28Z</time>
      </trkpt>
      <trkpt lat="45.93877" lon="4.78023">
        <ele>184</ele>
        <time>2018-08-26T08:29:31Z</time>
      </trkpt>
      <trkpt lat="45.93879" lon="4.78022">
        <ele>184</ele>
        <time>2018-08-26T08:29:32Z</time>
      </trkpt>
      <trkpt lat="45.93887" lon="4.78018">
        <ele>184</ele>
        <time>2018-08-26T08:29:35Z</time>
      </trkpt>
      <trkpt lat="45.93889" lon="4.78016">
        <ele>184</ele>
        <time>2018-08-26T08:29:36Z</time>
      </trkpt>
      <trkpt lat="45.93896" lon="4.78012">
        <ele>185</ele>
        <time>2018-08-26T08:29:39Z</time>
      </trkpt>
      <trkpt lat="45.93898" lon="4.7801">
        <ele>185</ele>
        <time>2018-08-26T08:29:40Z</time>
      </trkpt>
      <trkpt lat="45.93903" lon="4.78003">
        <ele>185</ele>
        <time>2018-08-26T08:29:43Z</time>
      </trkpt>
      <trkpt lat="45.93905" lon="4.78001">
        <ele>185</ele>
        <time>2018-08-26T08:29:44Z</time>
      </trkpt>
      <trkpt lat="45.93912" lon="4.77994">
        <ele>184</ele>
        <time>2018-08-26T08:29:47Z</time>
      </trkpt>
      <trkpt lat="45.93914" lon="4.77991">
        <ele>184</ele>
        <time>2018-08-26T08:29:48Z</time>
      </trkpt>
      <trkpt lat="45.93921" lon="4.77985">
        <ele>188</ele>
        <time>2018-08-26T08:29:51Z</time>
      </trkpt>
      <trkpt lat="45.93922" lon="4.77983">
        <ele>188</ele>
        <time>2018-08-26T08:29:52Z</time>
      </trkpt>
      <trkpt lat="45.93928" lon="4.77978">
        <ele>188</ele>
        <time>2018-08-26T08:29:55Z</time>
      </trkpt>
      <trkpt lat="45.9393" lon="4.77976">
        <ele>188</ele>
        <time>2018-08-26T08:29:56Z</time>
      </trkpt>
      <trkpt lat="45.93936" lon="4.77971">
        <ele>189</ele>
        <time>2018-08-26T08:29:59Z</time>
      </trkpt>
      <trkpt lat="45.93938" lon="4.77969">
        <ele>189</ele>
        <time>2018-08-26T08:30:00Z</time>
      </trkpt>
      <trkpt lat="45.93944" lon="4.77962">
        <ele>189</ele>
        <time>2018-08-26T08:30:04Z</time>
      </trkpt>
      <trkpt lat="45.93946" lon="4.77961">
        <ele>189</ele>
        <time>2018-08-26T08:30:05Z</time>
      </trkpt>
      <trkpt lat="45.93953" lon="4.77956">
        <ele>190</ele>
        <time>2018-08-26T08:30:09Z</time>
      </trkpt>
      <trkpt lat="45.93954" lon="4.77955">
        <ele>190</ele>
        <time>2018-08-26T08:30:10Z</time>
      </trkpt>
      <trkpt lat="45.93961" lon="4.77951">
        <ele>190</ele>
        <time>2018-08-26T08:30:14Z</time>
      </trkpt>
      <trkpt lat="45.93963" lon="4.7795">
        <ele>190</ele>
        <time>2018-08-26T08:30:15Z</time>
      </trkpt>
      <trkpt lat="45.93971" lon="4.77947">
        <ele>191</ele>
        <time>2018-08-26T08:30:19Z</time>
      </trkpt>
      <trkpt lat="45.93973" lon="4.77946">
        <ele>191</ele>
        <time>2018-08-26T08:30:20Z</time>
      </trkpt>
      <trkpt lat="45.9398" lon="4.77941">
        <ele>191</ele>
        <time>2018-08-26T08:30:24Z</time>
      </trkpt>
      <trkpt lat="45.93982" lon="4.7794">
        <ele>191</ele>
        <time>2018-08-26T08:30:25Z</time>
      </trkpt>
      <trkpt lat="45.9399" lon="4.77936">
        <ele>192</ele>
        <time>2018-08-26T08:30:30Z</time>
      </trkpt>
      <trkpt lat="45.93991" lon="4.77935">
        <ele>192</ele>
        <time>2018-08-26T08:30:31Z</time>
      </trkpt>
      <trkpt lat="45.93999" lon="4.77932">
        <ele>192</ele>
        <time>2018-08-26T08:30:35Z</time>
      </trkpt>
      <trkpt lat="45.94001" lon="4.77931">
        <ele>197</ele>
        <time>2018-08-26T08:30:36Z</time>
      </trkpt>
      <trkpt lat="45.94009" lon="4.77932">
        <ele>198</ele>
        <time>2018-08-26T08:30:42Z</time>
      </trkpt>
      <trkpt lat="45.9401" lon="4.77933">
        <ele>198</ele>
        <time>2018-08-26T08:30:43Z</time>
      </trkpt>
      <trkpt lat="45.94014" lon="4.77941">
        <ele>199</ele>
        <time>2018-08-26T08:30:47Z</time>
      </trkpt>
      <trkpt lat="45.94016" lon="4.77944">
        <ele>199</ele>
        <time>2018-08-26T08:30:48Z</time>
      </trkpt>
      <trkpt lat="45.94018" lon="4.77955">
        <ele>200</ele>
        <time>2018-08-26T08:30:53Z</time>
      </trkpt>
      <trkpt lat="45.94017" lon="4.77957">
        <ele>200</ele>
        <time>2018-08-26T08:30:54Z</time>
      </trkpt>
      <trkpt lat="45.94015" lon="4.77967">
        <ele>200</ele>
        <time>2018-08-26T08:30:57Z</time>
      </trkpt>
      <trkpt lat="45.94014" lon="4.77971">
        <ele>200</ele>
        <time>2018-08-26T08:30:58Z</time>
      </trkpt>
      <trkpt lat="45.94012" lon="4.77983">
        <ele>199</ele>
        <time>2018-08-26T08:31:01Z</time>
      </trkpt>
      <trkpt lat="45.94011" lon="4.77987">
        <ele>199</ele>
        <time>2018-08-26T08:31:02Z</time>
      </trkpt>
      <trkpt lat="45.94008" lon="4.77998">
        <ele>198</ele>
        <time>2018-08-26T08:31:05Z</time>
      </trkpt>
      <trkpt lat="45.94007" lon="4.78002">
        <ele>198</ele>
        <time>2018-08-26T08:31:06Z</time>
      </trkpt>
      <trkpt lat="45.94005" lon="4.7801">
        <ele>199</ele>
        <time>2018-08-26T08:31:08Z</time>
      </trkpt>
      <trkpt lat="45.94004" lon="4.78014">
        <ele>199</ele>
        <time>2018-08-26T08:31:09Z</time>
      </trkpt>
      <trkpt lat="45.94001" lon="4.78026">
        <ele>200</ele>
        <time>2018-08-26T08:31:12Z</time>
      </trkpt>
      <trkpt lat="45.94001" lon="4.78029">
        <ele>200</ele>
        <time>2018-08-26T08:31:13Z</time>
      </trkpt>
      <trkpt lat="45.93999" lon="4.7804">
        <ele>195</ele>
        <time>2018-08-26T08:31:16Z</time>
      </trkpt>
      <trkpt lat="45.93999" lon="4.78045">
        <ele>195</ele>
        <time>2018-08-26T08:31:17Z</time>
      </trkpt>
      <trkpt lat="45.93998" lon="4.78054">
        <ele>195</ele>
        <time>2018-08-26T08:31:19Z</time>
      </trkpt>
      <trkpt lat="45.93997" lon="4.78059">
        <ele>195</ele>
        <time>2018-08-26T08:31:20Z</time>
      </trkpt>
      <trkpt lat="45.93996" lon="4.78068">
        <ele>196</ele>
        <time>2018-08-26T08:31:22Z</time>
      </trkpt>
      <trkpt lat="45.93996" lon="4.78073">
        <ele>197</ele>
        <time>2018-08-26T08:31:23Z</time>
      </trkpt>
      <trkpt lat="45.93995" lon="4.78082">
        <ele>198</ele>
        <time>2018-08-26T08:31:25Z</time>
      </trkpt>
      <trkpt lat="45.93994" lon="4.78088">
        <ele>198</ele>
        <time>2018-08-26T08:31:26Z</time>
      </trkpt>
      <trkpt lat="45.93994" lon="4.78092">
        <ele>198</ele>
        <time>2018-08-26T08:31:27Z</time>
      </trkpt>
      <trkpt lat="45.93991" lon="4.78107">
        <ele>197</ele>
        <time>2018-08-26T08:31:28Z</time>
      </trkpt>
      <trkpt lat="45.93989" lon="4.78117">
        <ele>197</ele>
        <time>2018-08-26T08:31:30Z</time>
      </trkpt>
      <trkpt lat="45.93988" lon="4.78123">
        <ele>197</ele>
        <time>2018-08-26T08:31:31Z</time>
      </trkpt>
      <trkpt lat="45.93986" lon="4.78134">
        <ele>197</ele>
        <time>2018-08-26T08:31:35Z</time>
      </trkpt>
      <trkpt lat="45.93984" lon="4.78145">
        <ele>198</ele>
        <time>2018-08-26T08:31:36Z</time>
      </trkpt>
      <trkpt lat="45.93987" lon="4.78156">
        <ele>198</ele>
        <time>2018-08-26T08:31:40Z</time>
      </trkpt>
      <trkpt lat="45.93988" lon="4.78158">
        <ele>199</ele>
        <time>2018-08-26T08:31:41Z</time>
      </trkpt>
      <trkpt lat="45.93994" lon="4.78164">
        <ele>200</ele>
        <time>2018-08-26T08:31:44Z</time>
      </trkpt>
      <trkpt lat="45.93996" lon="4.78166">
        <ele>200</ele>
        <time>2018-08-26T08:31:45Z</time>
      </trkpt>
      <trkpt lat="45.94004" lon="4.78171">
        <ele>202</ele>
        <time>2018-08-26T08:31:48Z</time>
      </trkpt>
      <trkpt lat="45.94006" lon="4.78173">
        <ele>202</ele>
        <time>2018-08-26T08:31:49Z</time>
      </trkpt>
      <trkpt lat="45.94013" lon="4.78178">
        <ele>203</ele>
        <time>2018-08-26T08:31:52Z</time>
      </trkpt>
      <trkpt lat="45.94015" lon="4.7818">
        <ele>203</ele>
        <time>2018-08-26T08:31:53Z</time>
      </trkpt>
      <trkpt lat="45.94023" lon="4.78185">
        <ele>204</ele>
        <time>2018-08-26T08:31:56Z</time>
      </trkpt>
      <trkpt lat="45.94025" lon="4.78186">
        <ele>204</ele>
        <time>2018-08-26T08:31:57Z</time>
      </trkpt>
      <trkpt lat="45.94033" lon="4.7819">
        <ele>204</ele>
        <time>2018-08-26T08:32:00Z</time>
      </trkpt>
      <trkpt lat="45.94035" lon="4.78192">
        <ele>205</ele>
        <time>2018-08-26T08:32:01Z</time>
      </trkpt>
      <trkpt lat="45.94042" lon="4.78197">
        <ele>205</ele>
        <time>2018-08-26T08:32:04Z</time>
      </trkpt>
      <trkpt lat="45.94045" lon="4.78199">
        <ele>205</ele>
        <time>2018-08-26T08:32:05Z</time>
      </trkpt>
      <trkpt lat="45.94051" lon="4.78205">
        <ele>205</ele>
        <time>2018-08-26T08:32:08Z</time>
      </trkpt>
      <trkpt lat="45.94054" lon="4.78207">
        <ele>205</ele>
        <time>2018-08-26T08:32:09Z</time>
      </trkpt>
      <trkpt lat="45.9406" lon="4.78212">
        <ele>206</ele>
        <time>2018-08-26T08:32:12Z</time>
      </trkpt>
      <trkpt lat="45.94063" lon="4.78214">
        <ele>206</ele>
        <time>2018-08-26T08:32:13Z</time>
      </trkpt>
      <trkpt lat="45.94069" lon="4.78219">
        <ele>206</ele>
        <time>2018-08-26T08:32:16Z</time>
      </trkpt>
      <trkpt lat="45.94071" lon="4.78219">
        <ele>206</ele>
        <time>2018-08-26T08:32:17Z</time>
      </trkpt>
      <trkpt lat="45.94078" lon="4.78222">
        <ele>206</ele>
        <time>2018-08-26T08:32:20Z</time>
      </trkpt>
      <trkpt lat="45.94081" lon="4.78223">
        <ele>206</ele>
        <time>2018-08-26T08:32:21Z</time>
      </trkpt>
      <trkpt lat="45.94087" lon="4.78227">
        <ele>212</ele>
        <time>2018-08-26T08:32:24Z</time>
      </trkpt>
      <trkpt lat="45.94089" lon="4.78229">
        <ele>212</ele>
        <time>2018-08-26T08:32:25Z</time>
      </trkpt>
      <trkpt lat="45.94096" lon="4.78235">
        <ele>212</ele>
        <time>2018-08-26T08:32:29Z</time>
      </trkpt>
      <trkpt lat="45.94098" lon="4.78237">
        <ele>212</ele>
        <time>2018-08-26T08:32:30Z</time>
      </trkpt>
      <trkpt lat="45.94105" lon="4.78245">
        <ele>212</ele>
        <time>2018-08-26T08:32:34Z</time>
      </trkpt>
      <trkpt lat="45.94107" lon="4.78247">
        <ele>213</ele>
        <time>2018-08-26T08:32:35Z</time>
      </trkpt>
      <trkpt lat="45.94111" lon="4.7825">
        <ele>212</ele>
        <time>2018-08-26T08:32:37Z</time>
      </trkpt>
      <trkpt lat="45.94115" lon="4.78253">
        <ele>213</ele>
        <time>2018-08-26T08:32:38Z</time>
      </trkpt>
      <trkpt lat="45.94122" lon="4.78258">
        <ele>213</ele>
        <time>2018-08-26T08:32:41Z</time>
      </trkpt>
      <trkpt lat="45.94124" lon="4.78259">
        <ele>214</ele>
        <time>2018-08-26T08:32:42Z</time>
      </trkpt>
      <trkpt lat="45.94132" lon="4.78264">
        <ele>214</ele>
        <time>2018-08-26T08:32:46Z</time>
      </trkpt>
      <trkpt lat="45.94134" lon="4.78265">
        <ele>214</ele>
        <time>2018-08-26T08:32:47Z</time>
      </trkpt>
      <trkpt lat="45.94141" lon="4.7827">
        <ele>215</ele>
        <time>2018-08-26T08:32:50Z</time>
      </trkpt>
      <trkpt lat="45.94144" lon="4.78271">
        <ele>215</ele>
        <time>2018-08-26T08:32:51Z</time>
      </trkpt>
      <trkpt lat="45.94151" lon="4.78278">
        <ele>215</ele>
        <time>2018-08-26T08:32:54Z</time>
      </trkpt>
      <trkpt lat="45.94154" lon="4.78279">
        <ele>215</ele>
        <time>2018-08-26T08:32:55Z</time>
      </trkpt>
      <trkpt lat="45.94161" lon="4.78284">
        <ele>216</ele>
        <time>2018-08-26T08:32:58Z</time>
      </trkpt>
      <trkpt lat="45.94164" lon="4.78285">
        <ele>216</ele>
        <time>2018-08-26T08:32:59Z</time>
      </trkpt>
      <trkpt lat="45.94171" lon="4.78291">
        <ele>220</ele>
        <time>2018-08-26T08:33:02Z</time>
      </trkpt>
      <trkpt lat="45.94173" lon="4.78292">
        <ele>220</ele>
        <time>2018-08-26T08:33:03Z</time>
      </trkpt>
      <trkpt lat="45.9418" lon="4.78295">
        <ele>221</ele>
        <time>2018-08-26T08:33:06Z</time>
      </trkpt>
      <trkpt lat="45.94183" lon="4.78296">
        <ele>221</ele>
        <time>2018-08-26T08:33:07Z</time>
      </trkpt>
      <trkpt lat="45.94191" lon="4.78298">
        <ele>221</ele>
        <time>2018-08-26T08:33:10Z</time>
      </trkpt>
      <trkpt lat="45.94193" lon="4.78298">
        <ele>221</ele>
        <time>2018-08-26T08:33:11Z</time>
      </trkpt>
      <trkpt lat="45.94201" lon="4.78299">
        <ele>221</ele>
        <time>2018-08-26T08:33:14Z</time>
      </trkpt>
      <trkpt lat="45.94204" lon="4.783">
        <ele>221</ele>
        <time>2018-08-26T08:33:15Z</time>
      </trkpt>
      <trkpt lat="45.94212" lon="4.783">
        <ele>221</ele>
        <time>2018-08-26T08:33:18Z</time>
      </trkpt>
      <trkpt lat="45.94214" lon="4.78301">
        <ele>221</ele>
        <time>2018-08-26T08:33:19Z</time>
      </trkpt>
      <trkpt lat="45.94222" lon="4.78303">
        <ele>222</ele>
        <time>2018-08-26T08:33:22Z</time>
      </trkpt>
      <trkpt lat="45.94225" lon="4.78303">
        <ele>222</ele>
        <time>2018-08-26T08:33:23Z</time>
      </trkpt>
      <trkpt lat="45.94233" lon="4.78304">
        <ele>222</ele>
        <time>2018-08-26T08:33:26Z</time>
      </trkpt>
      <trkpt lat="45.94236" lon="4.78305">
        <ele>222</ele>
        <time>2018-08-26T08:33:27Z</time>
      </trkpt>
      <trkpt lat="45.94243" lon="4.78306">
        <ele>222</ele>
        <time>2018-08-26T08:33:30Z</time>
      </trkpt>
      <trkpt lat="45.94246" lon="4.78306">
        <ele>222</ele>
        <time>2018-08-26T08:33:31Z</time>
      </trkpt>
      <trkpt lat="45.94253" lon="4.78308">
        <ele>227</ele>
        <time>2018-08-26T08:33:34Z</time>
      </trkpt>
      <trkpt lat="45.94255" lon="4.78309">
        <ele>226</ele>
        <time>2018-08-26T08:33:35Z</time>
      </trkpt>
      <trkpt lat="45.94262" lon="4.78313">
        <ele>226</ele>
        <time>2018-08-26T08:33:38Z</time>
      </trkpt>
      <trkpt lat="45.94264" lon="4.78314">
        <ele>226</ele>
        <time>2018-08-26T08:33:39Z</time>
      </trkpt>
      <trkpt lat="45.94271" lon="4.78318">
        <ele>227</ele>
        <time>2018-08-26T08:33:43Z</time>
      </trkpt>
      <trkpt lat="45.94274" lon="4.7832">
        <ele>227</ele>
        <time>2018-08-26T08:33:44Z</time>
      </trkpt>
      <trkpt lat="45.94281" lon="4.78325">
        <ele>228</ele>
        <time>2018-08-26T08:33:47Z</time>
      </trkpt>
      <trkpt lat="45.94283" lon="4.78327">
        <ele>228</ele>
        <time>2018-08-26T08:33:48Z</time>
      </trkpt>
      <trkpt lat="45.94287" lon="4.78331">
        <ele>228</ele>
        <time>2018-08-26T08:33:50Z</time>
      </trkpt>
      <trkpt lat="45.94294" lon="4.7834">
        <ele>228</ele>
        <time>2018-08-26T08:33:51Z</time>
      </trkpt>
      <trkpt lat="45.94301" lon="4.78348">
        <ele>229</ele>
        <time>2018-08-26T08:33:57Z</time>
      </trkpt>
      <trkpt lat="45.94302" lon="4.78351">
        <ele>229</ele>
        <time>2018-08-26T08:33:58Z</time>
      </trkpt>
      <trkpt lat="45.94305" lon="4.78362">
        <ele>229</ele>
        <time>2018-08-26T08:34:01Z</time>
      </trkpt>
      <trkpt lat="45.94305" lon="4.78365">
        <ele>229</ele>
        <time>2018-08-26T08:34:02Z</time>
      </trkpt>
      <trkpt lat="45.94308" lon="4.78376">
        <ele>230</ele>
        <time>2018-08-26T08:34:05Z</time>
      </trkpt>
      <trkpt lat="45.94309" lon="4.78379">
        <ele>230</ele>
        <time>2018-08-26T08:34:06Z</time>
      </trkpt>
      <trkpt lat="45.94311" lon="4.78388">
        <ele>230</ele>
        <time>2018-08-26T08:34:09Z</time>
      </trkpt>
      <trkpt lat="45.94312" lon="4.78392">
        <ele>230</ele>
        <time>2018-08-26T08:34:10Z</time>
      </trkpt>
      <trkpt lat="45.94316" lon="4.78402">
        <ele>230</ele>
        <time>2018-08-26T08:34:13Z</time>
      </trkpt>
      <trkpt lat="45.94317" lon="4.78405">
        <ele>230</ele>
        <time>2018-08-26T08:34:14Z</time>
      </trkpt>
      <trkpt lat="45.94324" lon="4.78415">
        <ele>229</ele>
        <time>2018-08-26T08:34:15Z</time>
      </trkpt>
      <trkpt lat="45.9433" lon="4.78422">
        <ele>231</ele>
        <time>2018-08-26T08:34:19Z</time>
      </trkpt>
      <trkpt lat="45.94332" lon="4.78424">
        <ele>232</ele>
        <time>2018-08-26T08:34:20Z</time>
      </trkpt>
      <trkpt lat="45.94337" lon="4.78434">
        <ele>233</ele>
        <time>2018-08-26T08:34:24Z</time>
      </trkpt>
      <trkpt lat="45.94339" lon="4.78437">
        <ele>233</ele>
        <time>2018-08-26T08:34:25Z</time>
      </trkpt>
      <trkpt lat="45.94344" lon="4.78444">
        <ele>234</ele>
        <time>2018-08-26T08:34:28Z</time>
      </trkpt>
      <trkpt lat="45.94345" lon="4.78447">
        <ele>234</ele>
        <time>2018-08-26T08:34:29Z</time>
      </trkpt>
      <trkpt lat="45.9435" lon="4.78457">
        <ele>235</ele>
        <time>2018-08-26T08:34:34Z</time>
      </trkpt>
      <trkpt lat="45.94351" lon="4.78459">
        <ele>235</ele>
        <time>2018-08-26T08:34:35Z</time>
      </trkpt>
      <trkpt lat="45.94357" lon="4.78468">
        <ele>236</ele>
        <time>2018-08-26T08:34:39Z</time>
      </trkpt>
      <trkpt lat="45.94358" lon="4.7847">
        <ele>236</ele>
        <time>2018-08-26T08:34:40Z</time>
      </trkpt>
      <trkpt lat="45.94363" lon="4.78477">
        <ele>236</ele>
        <time>2018-08-26T08:34:43Z</time>
      </trkpt>
      <trkpt lat="45.94365" lon="4.78479">
        <ele>236</ele>
        <time>2018-08-26T08:34:44Z</time>
      </trkpt>
      <trkpt lat="45.94371" lon="4.78487">
        <ele>236</ele>
        <time>2018-08-26T08:34:47Z</time>
      </trkpt>
      <trkpt lat="45.94373" lon="4.7849">
        <ele>236</ele>
        <time>2018-08-26T08:34:48Z</time>
      </trkpt>
      <trkpt lat="45.94379" lon="4.78497">
        <ele>236</ele>
        <time>2018-08-26T08:34:51Z</time>
      </trkpt>
      <trkpt lat="45.9438" lon="4.78499">
        <ele>236</ele>
        <time>2018-08-26T08:34:52Z</time>
      </trkpt>
      <trkpt lat="45.94385" lon="4.78507">
        <ele>238</ele>
        <time>2018-08-26T08:34:55Z</time>
      </trkpt>
      <trkpt lat="45.94387" lon="4.78509">
        <ele>238</ele>
        <time>2018-08-26T08:34:56Z</time>
      </trkpt>
      <trkpt lat="45.94393" lon="4.78516">
        <ele>238</ele>
        <time>2018-08-26T08:34:59Z</time>
      </trkpt>
      <trkpt lat="45.94395" lon="4.78518">
        <ele>237</ele>
        <time>2018-08-26T08:35:00Z</time>
      </trkpt>
      <trkpt lat="45.94401" lon="4.78525">
        <ele>237</ele>
        <time>2018-08-26T08:35:03Z</time>
      </trkpt>
      <trkpt lat="45.94404" lon="4.78527">
        <ele>237</ele>
        <time>2018-08-26T08:35:04Z</time>
      </trkpt>
      <trkpt lat="45.9441" lon="4.78533">
        <ele>238</ele>
        <time>2018-08-26T08:35:07Z</time>
      </trkpt>
      <trkpt lat="45.94411" lon="4.78535">
        <ele>238</ele>
        <time>2018-08-26T08:35:08Z</time>
      </trkpt>
      <trkpt lat="45.94416" lon="4.78543">
        <ele>238</ele>
        <time>2018-08-26T08:35:12Z</time>
      </trkpt>
      <trkpt lat="45.94417" lon="4.78545">
        <ele>238</ele>
        <time>2018-08-26T08:35:13Z</time>
      </trkpt>
      <trkpt lat="45.94421" lon="4.78553">
        <ele>238</ele>
        <time>2018-08-26T08:35:16Z</time>
      </trkpt>
      <trkpt lat="45.94423" lon="4.78555">
        <ele>238</ele>
        <time>2018-08-26T08:35:17Z</time>
      </trkpt>
      <trkpt lat="45.94428" lon="4.78562">
        <ele>238</ele>
        <time>2018-08-26T08:35:20Z</time>
      </trkpt>
      <trkpt lat="45.9443" lon="4.78564">
        <ele>238</ele>
        <time>2018-08-26T08:35:21Z</time>
      </trkpt>
      <trkpt lat="45.94434" lon="4.78569">
        <ele>238</ele>
        <time>2018-08-26T08:35:23Z</time>
      </trkpt>
      <trkpt lat="45.94444" lon="4.78581">
        <ele>239</ele>
        <time>2018-08-26T08:35:24Z</time>
      </trkpt>
      <trkpt lat="45.9445" lon="4.7859">
        <ele>240</ele>
        <time>2018-08-26T08:35:28Z</time>
      </trkpt>
      <trkpt lat="45.94451" lon="4.78592">
        <ele>240</ele>
        <time>2018-08-26T08:35:29Z</time>
      </trkpt>
      <trkpt lat="45.94457" lon="4.786">
        <ele>240</ele>
        <time>2018-08-26T08:35:32Z</time>
      </trkpt>
      <trkpt lat="45.94457" lon="4.78602">
        <ele>240</ele>
        <time>2018-08-26T08:35:33Z</time>
      </trkpt>
      <trkpt lat="45.94462" lon="4.78613">
        <ele>241</ele>
        <time>2018-08-26T08:35:38Z</time>
      </trkpt>
      <trkpt lat="45.94462" lon="4.78616">
        <ele>241</ele>
        <time>2018-08-26T08:35:39Z</time>
      </trkpt>
      <trkpt lat="45.94464" lon="4.78628">
        <ele>241</ele>
        <time>2018-08-26T08:35:43Z</time>
      </trkpt>
      <trkpt lat="45.94464" lon="4.78631">
        <ele>241</ele>
        <time>2018-08-26T08:35:44Z</time>
      </trkpt>
      <trkpt lat="45.94467" lon="4.78643">
        <ele>241</ele>
        <time>2018-08-26T08:35:48Z</time>
      </trkpt>
      <trkpt lat="45.94468" lon="4.78646">
        <ele>241</ele>
        <time>2018-08-26T08:35:49Z</time>
      </trkpt>
      <trkpt lat="45.94468" lon="4.78656">
        <ele>241</ele>
        <time>2018-08-26T08:35:53Z</time>
      </trkpt>
      <trkpt lat="45.94468" lon="4.78659">
        <ele>241</ele>
        <time>2018-08-26T08:35:54Z</time>
      </trkpt>
      <trkpt lat="45.94467" lon="4.7867">
        <ele>244</ele>
        <time>2018-08-26T08:35:58Z</time>
      </trkpt>
      <trkpt lat="45.94467" lon="4.78673">
        <ele>244</ele>
        <time>2018-08-26T08:35:59Z</time>
      </trkpt>
      <trkpt lat="45.94467" lon="4.78684">
        <ele>244</ele>
        <time>2018-08-26T08:36:02Z</time>
      </trkpt>
      <trkpt lat="45.94467" lon="4.78687">
        <ele>244</ele>
        <time>2018-08-26T08:36:03Z</time>
      </trkpt>
      <trkpt lat="45.94466" lon="4.78698">
        <ele>245</ele>
        <time>2018-08-26T08:36:07Z</time>
      </trkpt>
      <trkpt lat="45.94466" lon="4.78701">
        <ele>245</ele>
        <time>2018-08-26T08:36:08Z</time>
      </trkpt>
      <trkpt lat="45.94467" lon="4.78713">
        <ele>245</ele>
        <time>2018-08-26T08:36:13Z</time>
      </trkpt>
      <trkpt lat="45.94467" lon="4.78716">
        <ele>245</ele>
        <time>2018-08-26T08:36:14Z</time>
      </trkpt>
      <trkpt lat="45.94468" lon="4.78728">
        <ele>246</ele>
        <time>2018-08-26T08:36:19Z</time>
      </trkpt>
      <trkpt lat="45.94468" lon="4.7873">
        <ele>246</ele>
        <time>2018-08-26T08:36:20Z</time>
      </trkpt>
      <trkpt lat="45.94468" lon="4.78741">
        <ele>246</ele>
        <time>2018-08-26T08:36:26Z</time>
      </trkpt>
      <trkpt lat="45.94468" lon="4.78743">
        <ele>246</ele>
        <time>2018-08-26T08:36:27Z</time>
      </trkpt>
      <trkpt lat="45.94466" lon="4.78755">
        <ele>250</ele>
        <time>2018-08-26T08:36:32Z</time>
      </trkpt>
      <trkpt lat="45.94466" lon="4.78757">
        <ele>250</ele>
        <time>2018-08-26T08:36:33Z</time>
      </trkpt>
      <trkpt lat="45.94465" lon="4.78769">
        <ele>250</ele>
        <time>2018-08-26T08:36:38Z</time>
      </trkpt>
      <trkpt lat="45.94465" lon="4.78772">
        <ele>250</ele>
        <time>2018-08-26T08:36:39Z</time>
      </trkpt>
      <trkpt lat="45.94463" lon="4.78783">
        <ele>250</ele>
        <time>2018-08-26T08:36:43Z</time>
      </trkpt>
      <trkpt lat="45.94463" lon="4.78785">
        <ele>250</ele>
        <time>2018-08-26T08:36:44Z</time>
      </trkpt>
      <trkpt lat="45.9446" lon="4.78796">
        <ele>251</ele>
        <time>2018-08-26T08:36:49Z</time>
      </trkpt>
      <trkpt lat="45.94459" lon="4.78799">
        <ele>251</ele>
        <time>2018-08-26T08:36:50Z</time>
      </trkpt>
      <trkpt lat="45.94456" lon="4.78809">
        <ele>251</ele>
        <time>2018-08-26T08:36:54Z</time>
      </trkpt>
      <trkpt lat="45.94456" lon="4.78812">
        <ele>251</ele>
        <time>2018-08-26T08:36:55Z</time>
      </trkpt>
      <trkpt lat="45.94454" lon="4.78822">
        <ele>251</ele>
        <time>2018-08-26T08:36:59Z</time>
      </trkpt>
      <trkpt lat="45.94454" lon="4.78824">
        <ele>251</ele>
        <time>2018-08-26T08:37:00Z</time>
      </trkpt>
      <trkpt lat="45.94451" lon="4.78835">
        <ele>253</ele>
        <time>2018-08-26T08:37:04Z</time>
      </trkpt>
      <trkpt lat="45.9445" lon="4.78838">
        <ele>253</ele>
        <time>2018-08-26T08:37:05Z</time>
      </trkpt>
      <trkpt lat="45.94448" lon="4.7885">
        <ele>253</ele>
        <time>2018-08-26T08:37:09Z</time>
      </trkpt>
      <trkpt lat="45.94448" lon="4.78853">
        <ele>253</ele>
        <time>2018-08-26T08:37:10Z</time>
      </trkpt>
      <trkpt lat="45.94448" lon="4.78864">
        <ele>253</ele>
        <time>2018-08-26T08:37:13Z</time>
      </trkpt>
      <trkpt lat="45.94449" lon="4.78867">
        <ele>253</ele>
        <time>2018-08-26T08:37:14Z</time>
      </trkpt>
      <trkpt lat="45.9445" lon="4.78879">
        <ele>253</ele>
        <time>2018-08-26T08:37:18Z</time>
      </trkpt>
      <trkpt lat="45.9445" lon="4.78882">
        <ele>253</ele>
        <time>2018-08-26T08:37:19Z</time>
      </trkpt>
      <trkpt lat="45.94451" lon="4.78894">
        <ele>253</ele>
        <time>2018-08-26T08:37:23Z</time>
      </trkpt>
      <trkpt lat="45.94451" lon="4.78897">
        <ele>253</ele>
        <time>2018-08-26T08:37:24Z</time>
      </trkpt>
      <trkpt lat="45.94452" lon="4.78909">
        <ele>253</ele>
        <time>2018-08-26T08:37:28Z</time>
      </trkpt>
      <trkpt lat="45.94453" lon="4.78912">
        <ele>253</ele>
        <time>2018-08-26T08:37:29Z</time>
      </trkpt>
      <trkpt lat="45.94455" lon="4.78922">
        <ele>254</ele>
        <time>2018-08-26T08:37:32Z</time>
      </trkpt>
      <trkpt lat="45.94456" lon="4.78925">
        <ele>254</ele>
        <time>2018-08-26T08:37:33Z</time>
      </trkpt>
      <trkpt lat="45.94459" lon="4.78934">
        <ele>254</ele>
        <time>2018-08-26T08:37:36Z</time>
      </trkpt>
      <trkpt lat="45.94461" lon="4.78938">
        <ele>254</ele>
        <time>2018-08-26T08:37:37Z</time>
      </trkpt>
      <trkpt lat="45.94465" lon="4.78947">
        <ele>254</ele>
        <time>2018-08-26T08:37:40Z</time>
      </trkpt>
      <trkpt lat="45.94466" lon="4.7895">
        <ele>254</ele>
        <time>2018-08-26T08:37:41Z</time>
      </trkpt>
      <trkpt lat="45.9447" lon="4.78958">
        <ele>254</ele>
        <time>2018-08-26T08:37:44Z</time>
      </trkpt>
      <trkpt lat="45.94472" lon="4.78961">
        <ele>254</ele>
        <time>2018-08-26T08:37:45Z</time>
      </trkpt>
      <trkpt lat="45.94476" lon="4.78969">
        <ele>254</ele>
        <time>2018-08-26T08:37:48Z</time>
      </trkpt>
      <trkpt lat="45.94478" lon="4.78972">
        <ele>254</ele>
        <time>2018-08-26T08:37:49Z</time>
      </trkpt>
      <trkpt lat="45.94483" lon="4.7898">
        <ele>254</ele>
        <time>2018-08-26T08:37:52Z</time>
      </trkpt>
      <trkpt lat="45.94484" lon="4.78982">
        <ele>254</ele>
        <time>2018-08-26T08:37:53Z</time>
      </trkpt>
      <trkpt lat="45.94487" lon="4.78993">
        <ele>254</ele>
        <time>2018-08-26T08:37:57Z</time>
      </trkpt>
      <trkpt lat="45.94489" lon="4.78997">
        <ele>254</ele>
        <time>2018-08-26T08:37:58Z</time>
      </trkpt>
      <trkpt lat="45.94493" lon="4.79006">
        <ele>254</ele>
        <time>2018-08-26T08:38:01Z</time>
      </trkpt>
      <trkpt lat="45.94494" lon="4.7901">
        <ele>254</ele>
        <time>2018-08-26T08:38:02Z</time>
      </trkpt>
      <trkpt lat="45.94498" lon="4.79017">
        <ele>254</ele>
        <time>2018-08-26T08:38:04Z</time>
      </trkpt>
      <trkpt lat="45.945" lon="4.79021">
        <ele>254</ele>
        <time>2018-08-26T08:38:05Z</time>
      </trkpt>
      <trkpt lat="45.94504" lon="4.79028">
        <ele>255</ele>
        <time>2018-08-26T08:38:07Z</time>
      </trkpt>
      <trkpt lat="45.94505" lon="4.79031">
        <ele>255</ele>
        <time>2018-08-26T08:38:08Z</time>
      </trkpt>
      <trkpt lat="45.94511" lon="4.7904">
        <ele>255</ele>
        <time>2018-08-26T08:38:11Z</time>
      </trkpt>
      <trkpt lat="45.94513" lon="4.79043">
        <ele>255</ele>
        <time>2018-08-26T08:38:12Z</time>
      </trkpt>
      <trkpt lat="45.94517" lon="4.79052">
        <ele>255</ele>
        <time>2018-08-26T08:38:15Z</time>
      </trkpt>
      <trkpt lat="45.94519" lon="4.79055">
        <ele>255</ele>
        <time>2018-08-26T08:38:16Z</time>
      </trkpt>
      <trkpt lat="45.94523" lon="4.79065">
        <ele>255</ele>
        <time>2018-08-26T08:38:19Z</time>
      </trkpt>
      <trkpt lat="45.94525" lon="4.79069">
        <ele>255</ele>
        <time>2018-08-26T08:38:20Z</time>
      </trkpt>
      <trkpt lat="45.94527" lon="4.79073">
        <ele>255</ele>
        <time>2018-08-26T08:38:21Z</time>
      </trkpt>
      <trkpt lat="45.94532" lon="4.79086">
        <ele>256</ele>
        <time>2018-08-26T08:38:22Z</time>
      </trkpt>
      <trkpt lat="45.94538" lon="4.79095">
        <ele>256</ele>
        <time>2018-08-26T08:38:24Z</time>
      </trkpt>
      <trkpt lat="45.9454" lon="4.791">
        <ele>256</ele>
        <time>2018-08-26T08:38:25Z</time>
      </trkpt>
      <trkpt lat="45.94546" lon="4.79109">
        <ele>256</ele>
        <time>2018-08-26T08:38:27Z</time>
      </trkpt>
      <trkpt lat="45.94549" lon="4.79114">
        <ele>256</ele>
        <time>2018-08-26T08:38:28Z</time>
      </trkpt>
      <trkpt lat="45.94553" lon="4.79123">
        <ele>257</ele>
        <time>2018-08-26T08:38:30Z</time>
      </trkpt>
      <trkpt lat="45.94555" lon="4.79129">
        <ele>257</ele>
        <time>2018-08-26T08:38:31Z</time>
      </trkpt>
      <trkpt lat="45.9456" lon="4.79139">
        <ele>257</ele>
        <time>2018-08-26T08:38:34Z</time>
      </trkpt>
      <trkpt lat="45.94562" lon="4.79141">
        <ele>257</ele>
        <time>2018-08-26T08:38:35Z</time>
      </trkpt>
      <trkpt lat="45.94564" lon="4.79143">
        <ele>257</ele>
        <time>2018-08-26T08:38:36Z</time>
      </trkpt>
      <trkpt lat="45.94569" lon="4.7915">
        <ele>257</ele>
        <time>2018-08-26T08:38:37Z</time>
      </trkpt>
      <trkpt lat="45.94573" lon="4.79153">
        <ele>258</ele>
        <time>2018-08-26T08:38:39Z</time>
      </trkpt>
      <trkpt lat="45.94581" lon="4.7916">
        <ele>258</ele>
        <time>2018-08-26T08:38:40Z</time>
      </trkpt>
      <trkpt lat="45.94581" lon="4.79168">
        <ele>259</ele>
        <time>2018-08-26T08:38:41Z</time>
      </trkpt>
      <trkpt lat="45.94585" lon="4.79175">
        <ele>258</ele>
        <time>2018-08-26T08:38:42Z</time>
      </trkpt>
      <trkpt lat="45.94587" lon="4.79186">
        <ele>258</ele>
        <time>2018-08-26T08:38:44Z</time>
      </trkpt>
      <trkpt lat="45.94593" lon="4.79193">
        <ele>257</ele>
        <time>2018-08-26T08:38:45Z</time>
      </trkpt>
      <trkpt lat="45.94597" lon="4.79195">
        <ele>257</ele>
        <time>2018-08-26T08:38:47Z</time>
      </trkpt>
      <trkpt lat="45.946" lon="4.79203">
        <ele>257</ele>
        <time>2018-08-26T08:38:48Z</time>
      </trkpt>
      <trkpt lat="45.94605" lon="4.7921">
        <ele>257</ele>
        <time>2018-08-26T08:38:50Z</time>
      </trkpt>
      <trkpt lat="45.94607" lon="4.79215">
        <ele>257</ele>
        <time>2018-08-26T08:38:51Z</time>
      </trkpt>
      <trkpt lat="45.94612" lon="4.79223">
        <ele>256</ele>
        <time>2018-08-26T08:38:53Z</time>
      </trkpt>
      <trkpt lat="45.94613" lon="4.79226">
        <ele>256</ele>
        <time>2018-08-26T08:38:54Z</time>
      </trkpt>
      <trkpt lat="45.94616" lon="4.79237">
        <ele>256</ele>
        <time>2018-08-26T08:38:56Z</time>
      </trkpt>
      <trkpt lat="45.94617" lon="4.79243">
        <ele>256</ele>
        <time>2018-08-26T08:38:57Z</time>
      </trkpt>
      <trkpt lat="45.94619" lon="4.79251">
        <ele>255</ele>
        <time>2018-08-26T08:38:58Z</time>
      </trkpt>
      <trkpt lat="45.94623" lon="4.79258">
        <ele>255</ele>
        <time>2018-08-26T08:38:59Z</time>
      </trkpt>
      <trkpt lat="45.94626" lon="4.79264">
        <ele>254</ele>
        <time>2018-08-26T08:39:00Z</time>
      </trkpt>
      <trkpt lat="45.94628" lon="4.7927">
        <ele>254</ele>
        <time>2018-08-26T08:39:01Z</time>
      </trkpt>
      <trkpt lat="45.94631" lon="4.79281">
        <ele>254</ele>
        <time>2018-08-26T08:39:03Z</time>
      </trkpt>
      <trkpt lat="45.94632" lon="4.79283">
        <ele>254</ele>
        <time>2018-08-26T08:39:04Z</time>
      </trkpt>
      <trkpt lat="45.94636" lon="4.79292">
        <ele>254</ele>
        <time>2018-08-26T08:39:06Z</time>
      </trkpt>
      <trkpt lat="45.94637" lon="4.79295">
        <ele>254</ele>
        <time>2018-08-26T08:39:07Z</time>
      </trkpt>
      <trkpt lat="45.9464" lon="4.79301">
        <ele>254</ele>
        <time>2018-08-26T08:39:08Z</time>
      </trkpt>
      <trkpt lat="45.94644" lon="4.79307">
        <ele>254</ele>
        <time>2018-08-26T08:39:09Z</time>
      </trkpt>
      <trkpt lat="45.94648" lon="4.79314">
        <ele>254</ele>
        <time>2018-08-26T08:39:11Z</time>
      </trkpt>
      <trkpt lat="45.94648" lon="4.7932">
        <ele>254</ele>
        <time>2018-08-26T08:39:12Z</time>
      </trkpt>
      <trkpt lat="45.94651" lon="4.79328">
        <ele>254</ele>
        <time>2018-08-26T08:39:14Z</time>
      </trkpt>
      <trkpt lat="45.94656" lon="4.79336">
        <ele>254</ele>
        <time>2018-08-26T08:39:15Z</time>
      </trkpt>
      <trkpt lat="45.94659" lon="4.79345">
        <ele>254</ele>
        <time>2018-08-26T08:39:17Z</time>
      </trkpt>
      <trkpt lat="45.94663" lon="4.79351">
        <ele>254</ele>
        <time>2018-08-26T08:39:18Z</time>
      </trkpt>
      <trkpt lat="45.94665" lon="4.79357">
        <ele>254</ele>
        <time>2018-08-26T08:39:19Z</time>
      </trkpt>
      <trkpt lat="45.94668" lon="4.79362">
        <ele>253</ele>
        <time>2018-08-26T08:39:20Z</time>
      </trkpt>
      <trkpt lat="45.94671" lon="4.79367">
        <ele>253</ele>
        <time>2018-08-26T08:39:21Z</time>
      </trkpt>
      <trkpt lat="45.94676" lon="4.79371">
        <ele>253</ele>
        <time>2018-08-26T08:39:22Z</time>
      </trkpt>
      <trkpt lat="45.94682" lon="4.79381">
        <ele>253</ele>
        <time>2018-08-26T08:39:24Z</time>
      </trkpt>
      <trkpt lat="45.94684" lon="4.79386">
        <ele>253</ele>
        <time>2018-08-26T08:39:25Z</time>
      </trkpt>
      <trkpt lat="45.94688" lon="4.79395">
        <ele>253</ele>
        <time>2018-08-26T08:39:27Z</time>
      </trkpt>
      <trkpt lat="45.9469" lon="4.794">
        <ele>253</ele>
        <time>2018-08-26T08:39:28Z</time>
      </trkpt>
      <trkpt lat="45.94693" lon="4.79406">
        <ele>253</ele>
        <time>2018-08-26T08:39:29Z</time>
      </trkpt>
      <trkpt lat="45.94695" lon="4.79411">
        <ele>253</ele>
        <time>2018-08-26T08:39:30Z</time>
      </trkpt>
      <trkpt lat="45.94698" lon="4.79417">
        <ele>253</ele>
        <time>2018-08-26T08:39:31Z</time>
      </trkpt>
      <trkpt lat="45.947" lon="4.79423">
        <ele>253</ele>
        <time>2018-08-26T08:39:32Z</time>
      </trkpt>
      <trkpt lat="45.94704" lon="4.79429">
        <ele>253</ele>
        <time>2018-08-26T08:39:33Z</time>
      </trkpt>
      <trkpt lat="45.94707" lon="4.79435">
        <ele>253</ele>
        <time>2018-08-26T08:39:34Z</time>
      </trkpt>
      <trkpt lat="45.94709" lon="4.79442">
        <ele>253</ele>
        <time>2018-08-26T08:39:36Z</time>
      </trkpt>
      <trkpt lat="45.94713" lon="4.79449">
        <ele>253</ele>
        <time>2018-08-26T08:39:37Z</time>
      </trkpt>
      <trkpt lat="45.94715" lon="4.79456">
        <ele>253</ele>
        <time>2018-08-26T08:39:38Z</time>
      </trkpt>
      <trkpt lat="45.94719" lon="4.79464">
        <ele>253</ele>
        <time>2018-08-26T08:39:39Z</time>
      </trkpt>
      <trkpt lat="45.94721" lon="4.7947">
        <ele>253</ele>
        <time>2018-08-26T08:39:40Z</time>
      </trkpt>
      <trkpt lat="45.94725" lon="4.79478">
        <ele>253</ele>
        <time>2018-08-26T08:39:41Z</time>
      </trkpt>
      <trkpt lat="45.94728" lon="4.79484">
        <ele>253</ele>
        <time>2018-08-26T08:39:42Z</time>
      </trkpt>
      <trkpt lat="45.94732" lon="4.79492">
        <ele>253</ele>
        <time>2018-08-26T08:39:43Z</time>
      </trkpt>
      <trkpt lat="45.94735" lon="4.79498">
        <ele>252</ele>
        <time>2018-08-26T08:39:44Z</time>
      </trkpt>
      <trkpt lat="45.94738" lon="4.79506">
        <ele>252</ele>
        <time>2018-08-26T08:39:45Z</time>
      </trkpt>
      <trkpt lat="45.94741" lon="4.79512">
        <ele>252</ele>
        <time>2018-08-26T08:39:46Z</time>
      </trkpt>
      <trkpt lat="45.94744" lon="4.79518">
        <ele>252</ele>
        <time>2018-08-26T08:39:47Z</time>
      </trkpt>
      <trkpt lat="45.94748" lon="4.79523">
        <ele>253</ele>
        <time>2018-08-26T08:39:48Z</time>
      </trkpt>
      <trkpt lat="45.94751" lon="4.79529">
        <ele>252</ele>
        <time>2018-08-26T08:39:49Z</time>
      </trkpt>
      <trkpt lat="45.94752" lon="4.79539">
        <ele>252</ele>
        <time>2018-08-26T08:39:51Z</time>
      </trkpt>
      <trkpt lat="45.94751" lon="4.79544">
        <ele>252</ele>
        <time>2018-08-26T08:39:52Z</time>
      </trkpt>
      <trkpt lat="45.94753" lon="4.7955">
        <ele>252</ele>
        <time>2018-08-26T08:39:53Z</time>
      </trkpt>
      <trkpt lat="45.94756" lon="4.79558">
        <ele>252</ele>
        <time>2018-08-26T08:39:54Z</time>
      </trkpt>
      <trkpt lat="45.94758" lon="4.79565">
        <ele>252</ele>
        <time>2018-08-26T08:39:55Z</time>
      </trkpt>
      <trkpt lat="45.94758" lon="4.79572">
        <ele>252</ele>
        <time>2018-08-26T08:39:56Z</time>
      </trkpt>
      <trkpt lat="45.94758" lon="4.79582">
        <ele>252</ele>
        <time>2018-08-26T08:39:57Z</time>
      </trkpt>
      <trkpt lat="45.94757" lon="4.79588">
        <ele>252</ele>
        <time>2018-08-26T08:39:58Z</time>
      </trkpt>
      <trkpt lat="45.9476" lon="4.79594">
        <ele>253</ele>
        <time>2018-08-26T08:39:59Z</time>
      </trkpt>
      <trkpt lat="45.94761" lon="4.79601">
        <ele>253</ele>
        <time>2018-08-26T08:40:00Z</time>
      </trkpt>
      <trkpt lat="45.94763" lon="4.79609">
        <ele>253</ele>
        <time>2018-08-26T08:40:01Z</time>
      </trkpt>
      <trkpt lat="45.94764" lon="4.79616">
        <ele>253</ele>
        <time>2018-08-26T08:40:02Z</time>
      </trkpt>
      <trkpt lat="45.94767" lon="4.79621">
        <ele>253</ele>
        <time>2018-08-26T08:40:03Z</time>
      </trkpt>
      <trkpt lat="45.94767" lon="4.79629">
        <ele>253</ele>
        <time>2018-08-26T08:40:04Z</time>
      </trkpt>
      <trkpt lat="45.94769" lon="4.79636">
        <ele>254</ele>
        <time>2018-08-26T08:40:05Z</time>
      </trkpt>
      <trkpt lat="45.94771" lon="4.79643">
        <ele>254</ele>
        <time>2018-08-26T08:40:06Z</time>
      </trkpt>
      <trkpt lat="45.94773" lon="4.7965">
        <ele>254</ele>
        <time>2018-08-26T08:40:07Z</time>
      </trkpt>
      <trkpt lat="45.94775" lon="4.79657">
        <ele>254</ele>
        <time>2018-08-26T08:40:08Z</time>
      </trkpt>
      <trkpt lat="45.94778" lon="4.79664">
        <ele>254</ele>
        <time>2018-08-26T08:40:09Z</time>
      </trkpt>
      <trkpt lat="45.94779" lon="4.7967">
        <ele>254</ele>
        <time>2018-08-26T08:40:10Z</time>
      </trkpt>
      <trkpt lat="45.94783" lon="4.79677">
        <ele>254</ele>
        <time>2018-08-26T08:40:11Z</time>
      </trkpt>
      <trkpt lat="45.94784" lon="4.79684">
        <ele>254</ele>
        <time>2018-08-26T08:40:12Z</time>
      </trkpt>
      <trkpt lat="45.94785" lon="4.79689">
        <ele>254</ele>
        <time>2018-08-26T08:40:13Z</time>
      </trkpt>
      <trkpt lat="45.94788" lon="4.79697">
        <ele>254</ele>
        <time>2018-08-26T08:40:14Z</time>
      </trkpt>
      <trkpt lat="45.9479" lon="4.79703">
        <ele>254</ele>
        <time>2018-08-26T08:40:15Z</time>
      </trkpt>
      <trkpt lat="45.94789" lon="4.7971">
        <ele>254</ele>
        <time>2018-08-26T08:40:16Z</time>
      </trkpt>
      <trkpt lat="45.94791" lon="4.7972">
        <ele>254</ele>
        <time>2018-08-26T08:40:18Z</time>
      </trkpt>
      <trkpt lat="45.94792" lon="4.79726">
        <ele>254</ele>
        <time>2018-08-26T08:40:19Z</time>
      </trkpt>
      <trkpt lat="45.94795" lon="4.79733">
        <ele>254</ele>
        <time>2018-08-26T08:40:20Z</time>
      </trkpt>
      <trkpt lat="45.94796" lon="4.79741">
        <ele>254</ele>
        <time>2018-08-26T08:40:21Z</time>
      </trkpt>
      <trkpt lat="45.94798" lon="4.79749">
        <ele>254</ele>
        <time>2018-08-26T08:40:22Z</time>
      </trkpt>
      <trkpt lat="45.94803" lon="4.79757">
        <ele>254</ele>
        <time>2018-08-26T08:40:23Z</time>
      </trkpt>
      <trkpt lat="45.94807" lon="4.79766">
        <ele>254</ele>
        <time>2018-08-26T08:40:24Z</time>
      </trkpt>
      <trkpt lat="45.94807" lon="4.79772">
        <ele>254</ele>
        <time>2018-08-26T08:40:25Z</time>
      </trkpt>
      <trkpt lat="45.94808" lon="4.7978">
        <ele>254</ele>
        <time>2018-08-26T08:40:26Z</time>
      </trkpt>
      <trkpt lat="45.9481" lon="4.79791">
        <ele>254</ele>
        <time>2018-08-26T08:40:27Z</time>
      </trkpt>
      <trkpt lat="45.94812" lon="4.79798">
        <ele>254</ele>
        <time>2018-08-26T08:40:28Z</time>
      </trkpt>
      <trkpt lat="45.94817" lon="4.79806">
        <ele>254</ele>
        <time>2018-08-26T08:40:29Z</time>
      </trkpt>
      <trkpt lat="45.94817" lon="4.79813">
        <ele>254</ele>
        <time>2018-08-26T08:40:30Z</time>
      </trkpt>
      <trkpt lat="45.94819" lon="4.79821">
        <ele>254</ele>
        <time>2018-08-26T08:40:31Z</time>
      </trkpt>
      <trkpt lat="45.94823" lon="4.79828">
        <ele>254</ele>
        <time>2018-08-26T08:40:32Z</time>
      </trkpt>
      <trkpt lat="45.94824" lon="4.79834">
        <ele>254</ele>
        <time>2018-08-26T08:40:33Z</time>
      </trkpt>
      <trkpt lat="45.94827" lon="4.79842">
        <ele>254</ele>
        <time>2018-08-26T08:40:34Z</time>
      </trkpt>
      <trkpt lat="45.9483" lon="4.79849">
        <ele>254</ele>
        <time>2018-08-26T08:40:35Z</time>
      </trkpt>
      <trkpt lat="45.94833" lon="4.7986">
        <ele>255</ele>
        <time>2018-08-26T08:40:37Z</time>
      </trkpt>
      <trkpt lat="45.94834" lon="4.79866">
        <ele>255</ele>
        <time>2018-08-26T08:40:38Z</time>
      </trkpt>
      <trkpt lat="45.94835" lon="4.79877">
        <ele>255</ele>
        <time>2018-08-26T08:40:40Z</time>
      </trkpt>
      <trkpt lat="45.94837" lon="4.79884">
        <ele>255</ele>
        <time>2018-08-26T08:40:41Z</time>
      </trkpt>
      <trkpt lat="45.9484" lon="4.79891">
        <ele>255</ele>
        <time>2018-08-26T08:40:42Z</time>
      </trkpt>
      <trkpt lat="45.94843" lon="4.79897">
        <ele>255</ele>
        <time>2018-08-26T08:40:43Z</time>
      </trkpt>
      <trkpt lat="45.94846" lon="4.79907">
        <ele>256</ele>
        <time>2018-08-26T08:40:45Z</time>
      </trkpt>
      <trkpt lat="45.94848" lon="4.79913">
        <ele>256</ele>
        <time>2018-08-26T08:40:46Z</time>
      </trkpt>
      <trkpt lat="45.94851" lon="4.79919">
        <ele>256</ele>
        <time>2018-08-26T08:40:48Z</time>
      </trkpt>
      <trkpt lat="45.94856" lon="4.79926">
        <ele>256</ele>
        <time>2018-08-26T08:40:49Z</time>
      </trkpt>
      <trkpt lat="45.9486" lon="4.79936">
        <ele>256</ele>
        <time>2018-08-26T08:40:51Z</time>
      </trkpt>
      <trkpt lat="45.94863" lon="4.79942">
        <ele>256</ele>
        <time>2018-08-26T08:40:52Z</time>
      </trkpt>
      <trkpt lat="45.94866" lon="4.79947">
        <ele>256</ele>
        <time>2018-08-26T08:40:53Z</time>
      </trkpt>
      <trkpt lat="45.94868" lon="4.79954">
        <ele>256</ele>
        <time>2018-08-26T08:40:54Z</time>
      </trkpt>
      <trkpt lat="45.94872" lon="4.79965">
        <ele>256</ele>
        <time>2018-08-26T08:40:56Z</time>
      </trkpt>
      <trkpt lat="45.94876" lon="4.7997">
        <ele>256</ele>
        <time>2018-08-26T08:40:57Z</time>
      </trkpt>
      <trkpt lat="45.94878" lon="4.79976">
        <ele>256</ele>
        <time>2018-08-26T08:40:58Z</time>
      </trkpt>
      <trkpt lat="45.94881" lon="4.79984">
        <ele>256</ele>
        <time>2018-08-26T08:40:59Z</time>
      </trkpt>
      <trkpt lat="45.94884" lon="4.79995">
        <ele>256</ele>
        <time>2018-08-26T08:41:01Z</time>
      </trkpt>
      <trkpt lat="45.94886" lon="4.80001">
        <ele>256</ele>
        <time>2018-08-26T08:41:02Z</time>
      </trkpt>
      <trkpt lat="45.94888" lon="4.80009">
        <ele>256</ele>
        <time>2018-08-26T08:41:03Z</time>
      </trkpt>
      <trkpt lat="45.94891" lon="4.80015">
        <ele>256</ele>
        <time>2018-08-26T08:41:04Z</time>
      </trkpt>
      <trkpt lat="45.94894" lon="4.80022">
        <ele>256</ele>
        <time>2018-08-26T08:41:05Z</time>
      </trkpt>
      <trkpt lat="45.94896" lon="4.80027">
        <ele>256</ele>
        <time>2018-08-26T08:41:06Z</time>
      </trkpt>
      <trkpt lat="45.94898" lon="4.80039">
        <ele>256</ele>
        <time>2018-08-26T08:41:08Z</time>
      </trkpt>
      <trkpt lat="45.94899" lon="4.80045">
        <ele>256</ele>
        <time>2018-08-26T08:41:09Z</time>
      </trkpt>
      <trkpt lat="45.94901" lon="4.80054">
        <ele>256</ele>
        <time>2018-08-26T08:41:11Z</time>
      </trkpt>
      <trkpt lat="45.94903" lon="4.8006">
        <ele>256</ele>
        <time>2018-08-26T08:41:12Z</time>
      </trkpt>
      <trkpt lat="45.94906" lon="4.8007">
        <ele>256</ele>
        <time>2018-08-26T08:41:14Z</time>
      </trkpt>
      <trkpt lat="45.94907" lon="4.80077">
        <ele>257</ele>
        <time>2018-08-26T08:41:15Z</time>
      </trkpt>
      <trkpt lat="45.94908" lon="4.80083">
        <ele>257</ele>
        <time>2018-08-26T08:41:16Z</time>
      </trkpt>
      <trkpt lat="45.94911" lon="4.80089">
        <ele>257</ele>
        <time>2018-08-26T08:41:17Z</time>
      </trkpt>
      <trkpt lat="45.94912" lon="4.80096">
        <ele>257</ele>
        <time>2018-08-26T08:41:18Z</time>
      </trkpt>
      <trkpt lat="45.94914" lon="4.80103">
        <ele>256</ele>
        <time>2018-08-26T08:41:19Z</time>
      </trkpt>
      <trkpt lat="45.94916" lon="4.8011">
        <ele>256</ele>
        <time>2018-08-26T08:41:20Z</time>
      </trkpt>
      <trkpt lat="45.94918" lon="4.80117">
        <ele>256</ele>
        <time>2018-08-26T08:41:21Z</time>
      </trkpt>
      <trkpt lat="45.9492" lon="4.80124">
        <ele>256</ele>
        <time>2018-08-26T08:41:22Z</time>
      </trkpt>
      <trkpt lat="45.94921" lon="4.80133">
        <ele>256</ele>
        <time>2018-08-26T08:41:23Z</time>
      </trkpt>
      <trkpt lat="45.94922" lon="4.80141">
        <ele>256</ele>
        <time>2018-08-26T08:41:24Z</time>
      </trkpt>
      <trkpt lat="45.94925" lon="4.80148">
        <ele>255</ele>
        <time>2018-08-26T08:41:25Z</time>
      </trkpt>
      <trkpt lat="45.94926" lon="4.80154">
        <ele>255</ele>
        <time>2018-08-26T08:41:26Z</time>
      </trkpt>
      <trkpt lat="45.94927" lon="4.80161">
        <ele>255</ele>
        <time>2018-08-26T08:41:27Z</time>
      </trkpt>
      <trkpt lat="45.94928" lon="4.80167">
        <ele>255</ele>
        <time>2018-08-26T08:41:28Z</time>
      </trkpt>
      <trkpt lat="45.94929" lon="4.80173">
        <ele>255</ele>
        <time>2018-08-26T08:41:29Z</time>
      </trkpt>
      <trkpt lat="45.94933" lon="4.80183">
        <ele>256</ele>
        <time>2018-08-26T08:41:31Z</time>
      </trkpt>
      <trkpt lat="45.94934" lon="4.80187">
        <ele>256</ele>
        <time>2018-08-26T08:41:32Z</time>
      </trkpt>
      <trkpt lat="45.94935" lon="4.80193">
        <ele>256</ele>
        <time>2018-08-26T08:41:33Z</time>
      </trkpt>
      <trkpt lat="45.94935" lon="4.802">
        <ele>256</ele>
        <time>2018-08-26T08:41:34Z</time>
      </trkpt>
      <trkpt lat="45.94937" lon="4.80207">
        <ele>256</ele>
        <time>2018-08-26T08:41:35Z</time>
      </trkpt>
      <trkpt lat="45.94937" lon="4.80215">
        <ele>256</ele>
        <time>2018-08-26T08:41:36Z</time>
      </trkpt>
      <trkpt lat="45.9494" lon="4.80226">
        <ele>256</ele>
        <time>2018-08-26T08:41:37Z</time>
      </trkpt>
      <trkpt lat="45.94941" lon="4.80234">
        <ele>256</ele>
        <time>2018-08-26T08:41:38Z</time>
      </trkpt>
      <trkpt lat="45.94942" lon="4.80241">
        <ele>256</ele>
        <time>2018-08-26T08:41:39Z</time>
      </trkpt>
      <trkpt lat="45.94943" lon="4.80248">
        <ele>256</ele>
        <time>2018-08-26T08:41:40Z</time>
      </trkpt>
      <trkpt lat="45.94943" lon="4.80255">
        <ele>257</ele>
        <time>2018-08-26T08:41:41Z</time>
      </trkpt>
      <trkpt lat="45.94944" lon="4.80261">
        <ele>257</ele>
        <time>2018-08-26T08:41:42Z</time>
      </trkpt>
      <trkpt lat="45.94944" lon="4.80273">
        <ele>257</ele>
        <time>2018-08-26T08:41:44Z</time>
      </trkpt>
      <trkpt lat="45.94944" lon="4.80279">
        <ele>257</ele>
        <time>2018-08-26T08:41:45Z</time>
      </trkpt>
      <trkpt lat="45.94946" lon="4.80286">
        <ele>257</ele>
        <time>2018-08-26T08:41:46Z</time>
      </trkpt>
      <trkpt lat="45.94945" lon="4.80293">
        <ele>257</ele>
        <time>2018-08-26T08:41:47Z</time>
      </trkpt>
      <trkpt lat="45.94946" lon="4.80299">
        <ele>257</ele>
        <time>2018-08-26T08:41:48Z</time>
      </trkpt>
      <trkpt lat="45.94946" lon="4.80307">
        <ele>257</ele>
        <time>2018-08-26T08:41:49Z</time>
      </trkpt>
      <trkpt lat="45.94946" lon="4.80318">
        <ele>257</ele>
        <time>2018-08-26T08:41:51Z</time>
      </trkpt>
      <trkpt lat="45.94946" lon="4.80325">
        <ele>257</ele>
        <time>2018-08-26T08:41:52Z</time>
      </trkpt>
      <trkpt lat="45.94947" lon="4.80332">
        <ele>257</ele>
        <time>2018-08-26T08:41:53Z</time>
      </trkpt>
      <trkpt lat="45.94946" lon="4.8034">
        <ele>258</ele>
        <time>2018-08-26T08:41:54Z</time>
      </trkpt>
      <trkpt lat="45.94946" lon="4.80346">
        <ele>258</ele>
        <time>2018-08-26T08:41:55Z</time>
      </trkpt>
      <trkpt lat="45.94947" lon="4.80355">
        <ele>258</ele>
        <time>2018-08-26T08:41:56Z</time>
      </trkpt>
      <trkpt lat="45.94948" lon="4.80362">
        <ele>258</ele>
        <time>2018-08-26T08:41:57Z</time>
      </trkpt>
      <trkpt lat="45.94946" lon="4.80369">
        <ele>258</ele>
        <time>2018-08-26T08:41:58Z</time>
      </trkpt>
      <trkpt lat="45.94945" lon="4.80376">
        <ele>258</ele>
        <time>2018-08-26T08:41:59Z</time>
      </trkpt>
      <trkpt lat="45.94945" lon="4.80382">
        <ele>258</ele>
        <time>2018-08-26T08:42:00Z</time>
      </trkpt>
      <trkpt lat="45.94946" lon="4.80391">
        <ele>258</ele>
        <time>2018-08-26T08:42:01Z</time>
      </trkpt>
      <trkpt lat="45.94946" lon="4.80398">
        <ele>258</ele>
        <time>2018-08-26T08:42:02Z</time>
      </trkpt>
      <trkpt lat="45.94946" lon="4.80405">
        <ele>258</ele>
        <time>2018-08-26T08:42:03Z</time>
      </trkpt>
      <trkpt lat="45.94947" lon="4.80412">
        <ele>258</ele>
        <time>2018-08-26T08:42:04Z</time>
      </trkpt>
      <trkpt lat="45.94946" lon="4.80419">
        <ele>259</ele>
        <time>2018-08-26T08:42:05Z</time>
      </trkpt>
      <trkpt lat="45.94946" lon="4.80426">
        <ele>259</ele>
        <time>2018-08-26T08:42:06Z</time>
      </trkpt>
      <trkpt lat="45.9495" lon="4.80434">
        <ele>259</ele>
        <time>2018-08-26T08:42:07Z</time>
      </trkpt>
      <trkpt lat="45.9495" lon="4.80442">
        <ele>259</ele>
        <time>2018-08-26T08:42:08Z</time>
      </trkpt>
      <trkpt lat="45.9495" lon="4.80449">
        <ele>258</ele>
        <time>2018-08-26T08:42:09Z</time>
      </trkpt>
      <trkpt lat="45.9495" lon="4.80456">
        <ele>258</ele>
        <time>2018-08-26T08:42:10Z</time>
      </trkpt>
      <trkpt lat="45.9495" lon="4.80461">
        <ele>258</ele>
        <time>2018-08-26T08:42:11Z</time>
      </trkpt>
      <trkpt lat="45.94952" lon="4.80469">
        <ele>258</ele>
        <time>2018-08-26T08:42:12Z</time>
      </trkpt>
      <trkpt lat="45.94952" lon="4.80477">
        <ele>258</ele>
        <time>2018-08-26T08:42:13Z</time>
      </trkpt>
      <trkpt lat="45.94952" lon="4.80483">
        <ele>258</ele>
        <time>2018-08-26T08:42:14Z</time>
      </trkpt>
      <trkpt lat="45.94951" lon="4.80495">
        <ele>258</ele>
        <time>2018-08-26T08:42:16Z</time>
      </trkpt>
      <trkpt lat="45.94951" lon="4.805">
        <ele>258</ele>
        <time>2018-08-26T08:42:17Z</time>
      </trkpt>
      <trkpt lat="45.94952" lon="4.80508">
        <ele>258</ele>
        <time>2018-08-26T08:42:18Z</time>
      </trkpt>
      <trkpt lat="45.94952" lon="4.80514">
        <ele>258</ele>
        <time>2018-08-26T08:42:19Z</time>
      </trkpt>
      <trkpt lat="45.94951" lon="4.80521">
        <ele>258</ele>
        <time>2018-08-26T08:42:20Z</time>
      </trkpt>
      <trkpt lat="45.94952" lon="4.80528">
        <ele>258</ele>
        <time>2018-08-26T08:42:21Z</time>
      </trkpt>
      <trkpt lat="45.94954" lon="4.8054">
        <ele>258</ele>
        <time>2018-08-26T08:42:23Z</time>
      </trkpt>
      <trkpt lat="45.94955" lon="4.80547">
        <ele>258</ele>
        <time>2018-08-26T08:42:24Z</time>
      </trkpt>
      <trkpt lat="45.94955" lon="4.80555">
        <ele>258</ele>
        <time>2018-08-26T08:42:25Z</time>
      </trkpt>
      <trkpt lat="45.94955" lon="4.80561">
        <ele>257</ele>
        <time>2018-08-26T08:42:26Z</time>
      </trkpt>
      <trkpt lat="45.94954" lon="4.80573">
        <ele>257</ele>
        <time>2018-08-26T08:42:28Z</time>
      </trkpt>
      <trkpt lat="45.94955" lon="4.80579">
        <ele>257</ele>
        <time>2018-08-26T08:42:29Z</time>
      </trkpt>
      <trkpt lat="45.94954" lon="4.80586">
        <ele>258</ele>
        <time>2018-08-26T08:42:30Z</time>
      </trkpt>
      <trkpt lat="45.94954" lon="4.80592">
        <ele>258</ele>
        <time>2018-08-26T08:42:31Z</time>
      </trkpt>
      <trkpt lat="45.94954" lon="4.806">
        <ele>258</ele>
        <time>2018-08-26T08:42:32Z</time>
      </trkpt>
      <trkpt lat="45.94954" lon="4.80608">
        <ele>258</ele>
        <time>2018-08-26T08:42:33Z</time>
      </trkpt>
      <trkpt lat="45.94954" lon="4.80615">
        <ele>258</ele>
        <time>2018-08-26T08:42:34Z</time>
      </trkpt>
      <trkpt lat="45.94954" lon="4.80622">
        <ele>258</ele>
        <time>2018-08-26T08:42:35Z</time>
      </trkpt>
      <trkpt lat="45.94954" lon="4.8063">
        <ele>258</ele>
        <time>2018-08-26T08:42:36Z</time>
      </trkpt>
      <trkpt lat="45.94955" lon="4.80639">
        <ele>258</ele>
        <time>2018-08-26T08:42:37Z</time>
      </trkpt>
      <trkpt lat="45.94955" lon="4.80646">
        <ele>258</ele>
        <time>2018-08-26T08:42:38Z</time>
      </trkpt>
      <trkpt lat="45.94955" lon="4.80653">
        <ele>259</ele>
        <time>2018-08-26T08:42:39Z</time>
      </trkpt>
      <trkpt lat="45.94956" lon="4.8066">
        <ele>259</ele>
        <time>2018-08-26T08:42:40Z</time>
      </trkpt>
      <trkpt lat="45.94954" lon="4.80666">
        <ele>259</ele>
        <time>2018-08-26T08:42:41Z</time>
      </trkpt>
      <trkpt lat="45.94954" lon="4.80672">
        <ele>259</ele>
        <time>2018-08-26T08:42:42Z</time>
      </trkpt>
      <trkpt lat="45.94955" lon="4.80679">
        <ele>259</ele>
        <time>2018-08-26T08:42:43Z</time>
      </trkpt>
      <trkpt lat="45.94955" lon="4.80686">
        <ele>259</ele>
        <time>2018-08-26T08:42:44Z</time>
      </trkpt>
      <trkpt lat="45.94955" lon="4.80694">
        <ele>259</ele>
        <time>2018-08-26T08:42:45Z</time>
      </trkpt>
      <trkpt lat="45.94953" lon="4.80702">
        <ele>259</ele>
        <time>2018-08-26T08:42:46Z</time>
      </trkpt>
      <trkpt lat="45.94952" lon="4.80708">
        <ele>259</ele>
        <time>2018-08-26T08:42:47Z</time>
      </trkpt>
      <trkpt lat="45.94952" lon="4.80715">
        <ele>259</ele>
        <time>2018-08-26T08:42:48Z</time>
      </trkpt>
      <trkpt lat="45.94954" lon="4.80723">
        <ele>259</ele>
        <time>2018-08-26T08:42:49Z</time>
      </trkpt>
      <trkpt lat="45.94956" lon="4.8073">
        <ele>259</ele>
        <time>2018-08-26T08:42:50Z</time>
      </trkpt>
      <trkpt lat="45.94956" lon="4.80736">
        <ele>259</ele>
        <time>2018-08-26T08:42:51Z</time>
      </trkpt>
      <trkpt lat="45.94955" lon="4.80744">
        <ele>259</ele>
        <time>2018-08-26T08:42:52Z</time>
      </trkpt>
      <trkpt lat="45.94956" lon="4.8075">
        <ele>259</ele>
        <time>2018-08-26T08:42:53Z</time>
      </trkpt>
      <trkpt lat="45.94956" lon="4.80761">
        <ele>259</ele>
        <time>2018-08-26T08:42:55Z</time>
      </trkpt>
      <trkpt lat="45.94955" lon="4.80767">
        <ele>259</ele>
        <time>2018-08-26T08:42:56Z</time>
      </trkpt>
      <trkpt lat="45.94952" lon="4.80776">
        <ele>259</ele>
        <time>2018-08-26T08:42:58Z</time>
      </trkpt>
      <trkpt lat="45.94952" lon="4.80779">
        <ele>259</ele>
        <time>2018-08-26T08:42:59Z</time>
      </trkpt>
      <trkpt lat="45.94951" lon="4.80791">
        <ele>259</ele>
        <time>2018-08-26T08:43:02Z</time>
      </trkpt>
      <trkpt lat="45.9495" lon="4.80794">
        <ele>259</ele>
        <time>2018-08-26T08:43:03Z</time>
      </trkpt>
      <trkpt lat="45.9495" lon="4.80801">
        <ele>259</ele>
        <time>2018-08-26T08:43:05Z</time>
      </trkpt>
      <trkpt lat="45.9495" lon="4.80812">
        <ele>258</ele>
        <time>2018-08-26T08:43:06Z</time>
      </trkpt>
      <trkpt lat="45.94953" lon="4.80817">
        <ele>258</ele>
        <time>2018-08-26T08:43:07Z</time>
      </trkpt>
      <trkpt lat="45.94957" lon="4.80821">
        <ele>258</ele>
        <time>2018-08-26T08:43:08Z</time>
      </trkpt>
      <trkpt lat="45.9496" lon="4.80827">
        <ele>259</ele>
        <time>2018-08-26T08:43:09Z</time>
      </trkpt>
      <trkpt lat="45.94961" lon="4.80834">
        <ele>259</ele>
        <time>2018-08-26T08:43:10Z</time>
      </trkpt>
      <trkpt lat="45.94963" lon="4.80839">
        <ele>259</ele>
        <time>2018-08-26T08:43:11Z</time>
      </trkpt>
      <trkpt lat="45.94964" lon="4.80847">
        <ele>259</ele>
        <time>2018-08-26T08:43:12Z</time>
      </trkpt>
      <trkpt lat="45.94966" lon="4.80853">
        <ele>259</ele>
        <time>2018-08-26T08:43:13Z</time>
      </trkpt>
      <trkpt lat="45.94967" lon="4.8086">
        <ele>259</ele>
        <time>2018-08-26T08:43:14Z</time>
      </trkpt>
      <trkpt lat="45.94967" lon="4.80867">
        <ele>259</ele>
        <time>2018-08-26T08:43:15Z</time>
      </trkpt>
      <trkpt lat="45.94968" lon="4.80875">
        <ele>259</ele>
        <time>2018-08-26T08:43:16Z</time>
      </trkpt>
      <trkpt lat="45.94969" lon="4.80881">
        <ele>258</ele>
        <time>2018-08-26T08:43:17Z</time>
      </trkpt>
      <trkpt lat="45.9497" lon="4.80888">
        <ele>258</ele>
        <time>2018-08-26T08:43:18Z</time>
      </trkpt>
      <trkpt lat="45.94971" lon="4.80896">
        <ele>258</ele>
        <time>2018-08-26T08:43:19Z</time>
      </trkpt>
      <trkpt lat="45.94973" lon="4.80902">
        <ele>258</ele>
        <time>2018-08-26T08:43:20Z</time>
      </trkpt>
      <trkpt lat="45.94973" lon="4.80909">
        <ele>258</ele>
        <time>2018-08-26T08:43:21Z</time>
      </trkpt>
      <trkpt lat="45.94976" lon="4.80915">
        <ele>258</ele>
        <time>2018-08-26T08:43:22Z</time>
      </trkpt>
      <trkpt lat="45.94974" lon="4.80922">
        <ele>258</ele>
        <time>2018-08-26T08:43:23Z</time>
      </trkpt>
      <trkpt lat="45.94974" lon="4.80929">
        <ele>258</ele>
        <time>2018-08-26T08:43:24Z</time>
      </trkpt>
      <trkpt lat="45.94977" lon="4.80936">
        <ele>258</ele>
        <time>2018-08-26T08:43:25Z</time>
      </trkpt>
      <trkpt lat="45.94977" lon="4.80944">
        <ele>258</ele>
        <time>2018-08-26T08:43:26Z</time>
      </trkpt>
      <trkpt lat="45.94978" lon="4.80951">
        <ele>258</ele>
        <time>2018-08-26T08:43:27Z</time>
      </trkpt>
      <trkpt lat="45.9498" lon="4.80959">
        <ele>258</ele>
        <time>2018-08-26T08:43:28Z</time>
      </trkpt>
      <trkpt lat="45.94981" lon="4.80966">
        <ele>258</ele>
        <time>2018-08-26T08:43:29Z</time>
      </trkpt>
      <trkpt lat="45.94981" lon="4.80972">
        <ele>258</ele>
        <time>2018-08-26T08:43:30Z</time>
      </trkpt>
      <trkpt lat="45.94982" lon="4.80979">
        <ele>258</ele>
        <time>2018-08-26T08:43:31Z</time>
      </trkpt>
      <trkpt lat="45.94984" lon="4.80985">
        <ele>258</ele>
        <time>2018-08-26T08:43:32Z</time>
      </trkpt>
      <trkpt lat="45.94987" lon="4.80994">
        <ele>257</ele>
        <time>2018-08-26T08:43:33Z</time>
      </trkpt>
      <trkpt lat="45.94987" lon="4.81">
        <ele>257</ele>
        <time>2018-08-26T08:43:34Z</time>
      </trkpt>
      <trkpt lat="45.94987" lon="4.81007">
        <ele>257</ele>
        <time>2018-08-26T08:43:35Z</time>
      </trkpt>
      <trkpt lat="45.94987" lon="4.81013">
        <ele>257</ele>
        <time>2018-08-26T08:43:36Z</time>
      </trkpt>
      <trkpt lat="45.94988" lon="4.81021">
        <ele>257</ele>
        <time>2018-08-26T08:43:37Z</time>
      </trkpt>
      <trkpt lat="45.94989" lon="4.81029">
        <ele>257</ele>
        <time>2018-08-26T08:43:38Z</time>
      </trkpt>
      <trkpt lat="45.94988" lon="4.81036">
        <ele>257</ele>
        <time>2018-08-26T08:43:39Z</time>
      </trkpt>
      <trkpt lat="45.94989" lon="4.81045">
        <ele>257</ele>
        <time>2018-08-26T08:43:40Z</time>
      </trkpt>
      <trkpt lat="45.94989" lon="4.81052">
        <ele>257</ele>
        <time>2018-08-26T08:43:41Z</time>
      </trkpt>
      <trkpt lat="45.9499" lon="4.81059">
        <ele>257</ele>
        <time>2018-08-26T08:43:42Z</time>
      </trkpt>
      <trkpt lat="45.94991" lon="4.81066">
        <ele>257</ele>
        <time>2018-08-26T08:43:43Z</time>
      </trkpt>
      <trkpt lat="45.94992" lon="4.81074">
        <ele>257</ele>
        <time>2018-08-26T08:43:44Z</time>
      </trkpt>
      <trkpt lat="45.94991" lon="4.81081">
        <ele>257</ele>
        <time>2018-08-26T08:43:45Z</time>
      </trkpt>
      <trkpt lat="45.94991" lon="4.81088">
        <ele>257</ele>
        <time>2018-08-26T08:43:46Z</time>
      </trkpt>
      <trkpt lat="45.94991" lon="4.81096">
        <ele>257</ele>
        <time>2018-08-26T08:43:47Z</time>
      </trkpt>
      <trkpt lat="45.94992" lon="4.81103">
        <ele>257</ele>
        <time>2018-08-26T08:43:48Z</time>
      </trkpt>
      <trkpt lat="45.94994" lon="4.81111">
        <ele>257</ele>
        <time>2018-08-26T08:43:49Z</time>
      </trkpt>
      <trkpt lat="45.94995" lon="4.8112">
        <ele>257</ele>
        <time>2018-08-26T08:43:50Z</time>
      </trkpt>
      <trkpt lat="45.94995" lon="4.81126">
        <ele>256</ele>
        <time>2018-08-26T08:43:51Z</time>
      </trkpt>
      <trkpt lat="45.94998" lon="4.81135">
        <ele>256</ele>
        <time>2018-08-26T08:43:52Z</time>
      </trkpt>
      <trkpt lat="45.95" lon="4.81145">
        <ele>256</ele>
        <time>2018-08-26T08:43:53Z</time>
      </trkpt>
      <trkpt lat="45.95001" lon="4.81153">
        <ele>256</ele>
        <time>2018-08-26T08:43:54Z</time>
      </trkpt>
      <trkpt lat="45.95001" lon="4.81162">
        <ele>256</ele>
        <time>2018-08-26T08:43:55Z</time>
      </trkpt>
      <trkpt lat="45.95003" lon="4.81172">
        <ele>256</ele>
        <time>2018-08-26T08:43:56Z</time>
      </trkpt>
      <trkpt lat="45.95005" lon="4.8118">
        <ele>256</ele>
        <time>2018-08-26T08:43:57Z</time>
      </trkpt>
      <trkpt lat="45.95005" lon="4.81189">
        <ele>256</ele>
        <time>2018-08-26T08:43:58Z</time>
      </trkpt>
      <trkpt lat="45.95007" lon="4.81201">
        <ele>256</ele>
        <time>2018-08-26T08:43:59Z</time>
      </trkpt>
      <trkpt lat="45.95009" lon="4.8121">
        <ele>256</ele>
        <time>2018-08-26T08:44:00Z</time>
      </trkpt>
      <trkpt lat="45.95009" lon="4.81219">
        <ele>256</ele>
        <time>2018-08-26T08:44:01Z</time>
      </trkpt>
      <trkpt lat="45.9501" lon="4.81227">
        <ele>256</ele>
        <time>2018-08-26T08:44:02Z</time>
      </trkpt>
      <trkpt lat="45.95011" lon="4.81235">
        <ele>256</ele>
        <time>2018-08-26T08:44:03Z</time>
      </trkpt>
      <trkpt lat="45.95013" lon="4.81243">
        <ele>256</ele>
        <time>2018-08-26T08:44:04Z</time>
      </trkpt>
      <trkpt lat="45.95015" lon="4.81251">
        <ele>256</ele>
        <time>2018-08-26T08:44:05Z</time>
      </trkpt>
      <trkpt lat="45.95016" lon="4.81259">
        <ele>256</ele>
        <time>2018-08-26T08:44:06Z</time>
      </trkpt>
      <trkpt lat="45.95018" lon="4.81268">
        <ele>255</ele>
        <time>2018-08-26T08:44:07Z</time>
      </trkpt>
      <trkpt lat="45.95019" lon="4.81276">
        <ele>255</ele>
        <time>2018-08-26T08:44:08Z</time>
      </trkpt>
      <trkpt lat="45.9502" lon="4.81283">
        <ele>255</ele>
        <time>2018-08-26T08:44:09Z</time>
      </trkpt>
      <trkpt lat="45.95022" lon="4.81289">
        <ele>255</ele>
        <time>2018-08-26T08:44:10Z</time>
      </trkpt>
      <trkpt lat="45.95023" lon="4.81296">
        <ele>255</ele>
        <time>2018-08-26T08:44:11Z</time>
      </trkpt>
      <trkpt lat="45.95025" lon="4.81303">
        <ele>255</ele>
        <time>2018-08-26T08:44:12Z</time>
      </trkpt>
      <trkpt lat="45.95027" lon="4.8131">
        <ele>255</ele>
        <time>2018-08-26T08:44:13Z</time>
      </trkpt>
      <trkpt lat="45.95029" lon="4.81318">
        <ele>255</ele>
        <time>2018-08-26T08:44:14Z</time>
      </trkpt>
      <trkpt lat="45.95031" lon="4.81326">
        <ele>255</ele>
        <time>2018-08-26T08:44:15Z</time>
      </trkpt>
      <trkpt lat="45.95033" lon="4.81334">
        <ele>254</ele>
        <time>2018-08-26T08:44:16Z</time>
      </trkpt>
      <trkpt lat="45.95035" lon="4.81341">
        <ele>254</ele>
        <time>2018-08-26T08:44:17Z</time>
      </trkpt>
      <trkpt lat="45.95037" lon="4.81349">
        <ele>254</ele>
        <time>2018-08-26T08:44:18Z</time>
      </trkpt>
      <trkpt lat="45.95039" lon="4.81356">
        <ele>254</ele>
        <time>2018-08-26T08:44:19Z</time>
      </trkpt>
      <trkpt lat="45.95041" lon="4.81364">
        <ele>254</ele>
        <time>2018-08-26T08:44:20Z</time>
      </trkpt>
      <trkpt lat="45.95043" lon="4.81372">
        <ele>254</ele>
        <time>2018-08-26T08:44:21Z</time>
      </trkpt>
      <trkpt lat="45.95046" lon="4.8138">
        <ele>254</ele>
        <time>2018-08-26T08:44:22Z</time>
      </trkpt>
      <trkpt lat="45.95049" lon="4.81389">
        <ele>253</ele>
        <time>2018-08-26T08:44:23Z</time>
      </trkpt>
      <trkpt lat="45.95051" lon="4.81397">
        <ele>253</ele>
        <time>2018-08-26T08:44:24Z</time>
      </trkpt>
      <trkpt lat="45.95054" lon="4.81406">
        <ele>253</ele>
        <time>2018-08-26T08:44:25Z</time>
      </trkpt>
      <trkpt lat="45.95057" lon="4.81414">
        <ele>253</ele>
        <time>2018-08-26T08:44:26Z</time>
      </trkpt>
      <trkpt lat="45.9506" lon="4.81424">
        <ele>252</ele>
        <time>2018-08-26T08:44:27Z</time>
      </trkpt>
      <trkpt lat="45.95064" lon="4.81431">
        <ele>252</ele>
        <time>2018-08-26T08:44:28Z</time>
      </trkpt>
      <trkpt lat="45.95068" lon="4.81438">
        <ele>252</ele>
        <time>2018-08-26T08:44:29Z</time>
      </trkpt>
      <trkpt lat="45.9507" lon="4.81447">
        <ele>253</ele>
        <time>2018-08-26T08:44:30Z</time>
      </trkpt>
      <trkpt lat="45.95073" lon="4.81455">
        <ele>253</ele>
        <time>2018-08-26T08:44:31Z</time>
      </trkpt>
      <trkpt lat="45.95078" lon="4.81465">
        <ele>253</ele>
        <time>2018-08-26T08:44:32Z</time>
      </trkpt>
      <trkpt lat="45.9508" lon="4.81473">
        <ele>253</ele>
        <time>2018-08-26T08:44:33Z</time>
      </trkpt>
      <trkpt lat="45.95084" lon="4.81481">
        <ele>251</ele>
        <time>2018-08-26T08:44:34Z</time>
      </trkpt>
      <trkpt lat="45.95086" lon="4.81491">
        <ele>251</ele>
        <time>2018-08-26T08:44:35Z</time>
      </trkpt>
      <trkpt lat="45.9509" lon="4.815">
        <ele>252</ele>
        <time>2018-08-26T08:44:36Z</time>
      </trkpt>
      <trkpt lat="45.95093" lon="4.8151">
        <ele>252</ele>
        <time>2018-08-26T08:44:37Z</time>
      </trkpt>
      <trkpt lat="45.95097" lon="4.81519">
        <ele>251</ele>
        <time>2018-08-26T08:44:38Z</time>
      </trkpt>
      <trkpt lat="45.95101" lon="4.81527">
        <ele>251</ele>
        <time>2018-08-26T08:44:39Z</time>
      </trkpt>
      <trkpt lat="45.95104" lon="4.81537">
        <ele>251</ele>
        <time>2018-08-26T08:44:40Z</time>
      </trkpt>
      <trkpt lat="45.95106" lon="4.81546">
        <ele>251</ele>
        <time>2018-08-26T08:44:41Z</time>
      </trkpt>
      <trkpt lat="45.9511" lon="4.81555">
        <ele>251</ele>
        <time>2018-08-26T08:44:42Z</time>
      </trkpt>
      <trkpt lat="45.95112" lon="4.81564">
        <ele>251</ele>
        <time>2018-08-26T08:44:43Z</time>
      </trkpt>
      <trkpt lat="45.95114" lon="4.81571">
        <ele>251</ele>
        <time>2018-08-26T08:44:44Z</time>
      </trkpt>
      <trkpt lat="45.95116" lon="4.8158">
        <ele>251</ele>
        <time>2018-08-26T08:44:45Z</time>
      </trkpt>
      <trkpt lat="45.95119" lon="4.81588">
        <ele>252</ele>
        <time>2018-08-26T08:44:46Z</time>
      </trkpt>
      <trkpt lat="45.95123" lon="4.81596">
        <ele>252</ele>
        <time>2018-08-26T08:44:47Z</time>
      </trkpt>
      <trkpt lat="45.95125" lon="4.81604">
        <ele>252</ele>
        <time>2018-08-26T08:44:48Z</time>
      </trkpt>
      <trkpt lat="45.95126" lon="4.81615">
        <ele>252</ele>
        <time>2018-08-26T08:44:50Z</time>
      </trkpt>
      <trkpt lat="45.95129" lon="4.81621">
        <ele>252</ele>
        <time>2018-08-26T08:44:51Z</time>
      </trkpt>
      <trkpt lat="45.95132" lon="4.81628">
        <ele>253</ele>
        <time>2018-08-26T08:44:52Z</time>
      </trkpt>
      <trkpt lat="45.95135" lon="4.81633">
        <ele>253</ele>
        <time>2018-08-26T08:44:53Z</time>
      </trkpt>
      <trkpt lat="45.9514" lon="4.81643">
        <ele>253</ele>
        <time>2018-08-26T08:44:55Z</time>
      </trkpt>
      <trkpt lat="45.95142" lon="4.81648">
        <ele>253</ele>
        <time>2018-08-26T08:44:56Z</time>
      </trkpt>
      <trkpt lat="45.95146" lon="4.81659">
        <ele>253</ele>
        <time>2018-08-26T08:44:59Z</time>
      </trkpt>
      <trkpt lat="45.95149" lon="4.81667">
        <ele>255</ele>
        <time>2018-08-26T08:45:00Z</time>
      </trkpt>
      <trkpt lat="45.9515" lon="4.81677">
        <ele>255</ele>
        <time>2018-08-26T08:45:03Z</time>
      </trkpt>
      <trkpt lat="45.95151" lon="4.8168">
        <ele>255</ele>
        <time>2018-08-26T08:45:04Z</time>
      </trkpt>
      <trkpt lat="45.95155" lon="4.8169">
        <ele>255</ele>
        <time>2018-08-26T08:45:07Z</time>
      </trkpt>
      <trkpt lat="45.95156" lon="4.81693">
        <ele>255</ele>
        <time>2018-08-26T08:45:08Z</time>
      </trkpt>
      <trkpt lat="45.95159" lon="4.81701">
        <ele>255</ele>
        <time>2018-08-26T08:45:10Z</time>
      </trkpt>
      <trkpt lat="45.9516" lon="4.81705">
        <ele>255</ele>
        <time>2018-08-26T08:45:11Z</time>
      </trkpt>
      <trkpt lat="45.95163" lon="4.81714">
        <ele>256</ele>
        <time>2018-08-26T08:45:13Z</time>
      </trkpt>
      <trkpt lat="45.95164" lon="4.81718">
        <ele>256</ele>
        <time>2018-08-26T08:45:14Z</time>
      </trkpt>
      <trkpt lat="45.95167" lon="4.81726">
        <ele>257</ele>
        <time>2018-08-26T08:45:16Z</time>
      </trkpt>
      <trkpt lat="45.95169" lon="4.8173">
        <ele>257</ele>
        <time>2018-08-26T08:45:17Z</time>
      </trkpt>
      <trkpt lat="45.95175" lon="4.81743">
        <ele>257</ele>
        <time>2018-08-26T08:45:18Z</time>
      </trkpt>
      <trkpt lat="45.9518" lon="4.81752">
        <ele>258</ele>
        <time>2018-08-26T08:45:20Z</time>
      </trkpt>
      <trkpt lat="45.95183" lon="4.81756">
        <ele>258</ele>
        <time>2018-08-26T08:45:21Z</time>
      </trkpt>
      <trkpt lat="45.95187" lon="4.81762">
        <ele>258</ele>
        <time>2018-08-26T08:45:23Z</time>
      </trkpt>
      <trkpt lat="45.95191" lon="4.81767">
        <ele>258</ele>
        <time>2018-08-26T08:45:24Z</time>
      </trkpt>
      <trkpt lat="45.95197" lon="4.81775">
        <ele>258</ele>
        <time>2018-08-26T08:45:26Z</time>
      </trkpt>
      <trkpt lat="45.952" lon="4.81779">
        <ele>258</ele>
        <time>2018-08-26T08:45:27Z</time>
      </trkpt>
      <trkpt lat="45.95206" lon="4.81787">
        <ele>258</ele>
        <time>2018-08-26T08:45:29Z</time>
      </trkpt>
      <trkpt lat="45.95208" lon="4.81791">
        <ele>258</ele>
        <time>2018-08-26T08:45:30Z</time>
      </trkpt>
      <trkpt lat="45.95214" lon="4.81798">
        <ele>259</ele>
        <time>2018-08-26T08:45:32Z</time>
      </trkpt>
      <trkpt lat="45.95216" lon="4.81802">
        <ele>259</ele>
        <time>2018-08-26T08:45:33Z</time>
      </trkpt>
      <trkpt lat="45.95222" lon="4.8181">
        <ele>259</ele>
        <time>2018-08-26T08:45:35Z</time>
      </trkpt>
      <trkpt lat="45.95225" lon="4.81815">
        <ele>259</ele>
        <time>2018-08-26T08:45:36Z</time>
      </trkpt>
      <trkpt lat="45.95231" lon="4.81824">
        <ele>259</ele>
        <time>2018-08-26T08:45:38Z</time>
      </trkpt>
      <trkpt lat="45.95234" lon="4.81828">
        <ele>259</ele>
        <time>2018-08-26T08:45:39Z</time>
      </trkpt>
      <trkpt lat="45.95237" lon="4.81833">
        <ele>259</ele>
        <time>2018-08-26T08:45:40Z</time>
      </trkpt>
      <trkpt lat="45.9524" lon="4.81837">
        <ele>259</ele>
        <time>2018-08-26T08:45:41Z</time>
      </trkpt>
      <trkpt lat="45.95246" lon="4.81845">
        <ele>260</ele>
        <time>2018-08-26T08:45:43Z</time>
      </trkpt>
      <trkpt lat="45.95249" lon="4.81849">
        <ele>260</ele>
        <time>2018-08-26T08:45:44Z</time>
      </trkpt>
      <trkpt lat="45.95252" lon="4.81854">
        <ele>259</ele>
        <time>2018-08-26T08:45:45Z</time>
      </trkpt>
      <trkpt lat="45.95255" lon="4.81859">
        <ele>260</ele>
        <time>2018-08-26T08:45:46Z</time>
      </trkpt>
      <trkpt lat="45.95258" lon="4.81865">
        <ele>260</ele>
        <time>2018-08-26T08:45:47Z</time>
      </trkpt>
      <trkpt lat="45.95263" lon="4.8187">
        <ele>260</ele>
        <time>2018-08-26T08:45:48Z</time>
      </trkpt>
      <trkpt lat="45.95268" lon="4.81879">
        <ele>260</ele>
        <time>2018-08-26T08:45:50Z</time>
      </trkpt>
      <trkpt lat="45.95271" lon="4.81884">
        <ele>260</ele>
        <time>2018-08-26T08:45:51Z</time>
      </trkpt>
      <trkpt lat="45.95274" lon="4.81889">
        <ele>260</ele>
        <time>2018-08-26T08:45:52Z</time>
      </trkpt>
      <trkpt lat="45.95277" lon="4.81895">
        <ele>260</ele>
        <time>2018-08-26T08:45:53Z</time>
      </trkpt>
      <trkpt lat="45.95279" lon="4.81901">
        <ele>260</ele>
        <time>2018-08-26T08:45:54Z</time>
      </trkpt>
      <trkpt lat="45.95283" lon="4.81907">
        <ele>260</ele>
        <time>2018-08-26T08:45:55Z</time>
      </trkpt>
      <trkpt lat="45.95288" lon="4.81911">
        <ele>260</ele>
        <time>2018-08-26T08:45:56Z</time>
      </trkpt>
      <trkpt lat="45.95293" lon="4.81916">
        <ele>260</ele>
        <time>2018-08-26T08:45:57Z</time>
      </trkpt>
      <trkpt lat="45.95297" lon="4.8192">
        <ele>261</ele>
        <time>2018-08-26T08:45:58Z</time>
      </trkpt>
      <trkpt lat="45.95301" lon="4.81925">
        <ele>261</ele>
        <time>2018-08-26T08:45:59Z</time>
      </trkpt>
      <trkpt lat="45.95304" lon="4.8193">
        <ele>261</ele>
        <time>2018-08-26T08:46:00Z</time>
      </trkpt>
      <trkpt lat="45.95307" lon="4.81935">
        <ele>261</ele>
        <time>2018-08-26T08:46:01Z</time>
      </trkpt>
      <trkpt lat="45.9531" lon="4.81939">
        <ele>261</ele>
        <time>2018-08-26T08:46:02Z</time>
      </trkpt>
      <trkpt lat="45.95314" lon="4.81944">
        <ele>261</ele>
        <time>2018-08-26T08:46:03Z</time>
      </trkpt>
      <trkpt lat="45.95319" lon="4.81949">
        <ele>262</ele>
        <time>2018-08-26T08:46:04Z</time>
      </trkpt>
      <trkpt lat="45.95323" lon="4.81953">
        <ele>262</ele>
        <time>2018-08-26T08:46:05Z</time>
      </trkpt>
      <trkpt lat="45.95327" lon="4.81959">
        <ele>262</ele>
        <time>2018-08-26T08:46:06Z</time>
      </trkpt>
      <trkpt lat="45.95331" lon="4.81964">
        <ele>262</ele>
        <time>2018-08-26T08:46:07Z</time>
      </trkpt>
      <trkpt lat="45.95336" lon="4.81969">
        <ele>261</ele>
        <time>2018-08-26T08:46:08Z</time>
      </trkpt>
      <trkpt lat="45.95343" lon="4.81971">
        <ele>261</ele>
        <time>2018-08-26T08:46:09Z</time>
      </trkpt>
      <trkpt lat="45.95347" lon="4.81978">
        <ele>262</ele>
        <time>2018-08-26T08:46:10Z</time>
      </trkpt>
      <trkpt lat="45.95351" lon="4.81982">
        <ele>262</ele>
        <time>2018-08-26T08:46:11Z</time>
      </trkpt>
      <trkpt lat="45.95356" lon="4.81987">
        <ele>261</ele>
        <time>2018-08-26T08:46:12Z</time>
      </trkpt>
      <trkpt lat="45.95361" lon="4.81993">
        <ele>261</ele>
        <time>2018-08-26T08:46:13Z</time>
      </trkpt>
      <trkpt lat="45.95366" lon="4.81999">
        <ele>261</ele>
        <time>2018-08-26T08:46:14Z</time>
      </trkpt>
      <trkpt lat="45.95371" lon="4.82003">
        <ele>262</ele>
        <time>2018-08-26T08:46:15Z</time>
      </trkpt>
      <trkpt lat="45.95376" lon="4.82008">
        <ele>262</ele>
        <time>2018-08-26T08:46:16Z</time>
      </trkpt>
      <trkpt lat="45.95382" lon="4.82011">
        <ele>262</ele>
        <time>2018-08-26T08:46:17Z</time>
      </trkpt>
      <trkpt lat="45.95386" lon="4.82017">
        <ele>261</ele>
        <time>2018-08-26T08:46:18Z</time>
      </trkpt>
      <trkpt lat="45.95391" lon="4.82022">
        <ele>261</ele>
        <time>2018-08-26T08:46:19Z</time>
      </trkpt>
      <trkpt lat="45.95396" lon="4.82027">
        <ele>261</ele>
        <time>2018-08-26T08:46:20Z</time>
      </trkpt>
      <trkpt lat="45.954" lon="4.82032">
        <ele>261</ele>
        <time>2018-08-26T08:46:21Z</time>
      </trkpt>
      <trkpt lat="45.95404" lon="4.82038">
        <ele>261</ele>
        <time>2018-08-26T08:46:22Z</time>
      </trkpt>
      <trkpt lat="45.95409" lon="4.82042">
        <ele>261</ele>
        <time>2018-08-26T08:46:23Z</time>
      </trkpt>
      <trkpt lat="45.95414" lon="4.82047">
        <ele>261</ele>
        <time>2018-08-26T08:46:24Z</time>
      </trkpt>
      <trkpt lat="45.9542" lon="4.8205">
        <ele>260</ele>
        <time>2018-08-26T08:46:25Z</time>
      </trkpt>
      <trkpt lat="45.95426" lon="4.82055">
        <ele>260</ele>
        <time>2018-08-26T08:46:26Z</time>
      </trkpt>
      <trkpt lat="45.95431" lon="4.82061">
        <ele>260</ele>
        <time>2018-08-26T08:46:27Z</time>
      </trkpt>
      <trkpt lat="45.95435" lon="4.82066">
        <ele>260</ele>
        <time>2018-08-26T08:46:28Z</time>
      </trkpt>
      <trkpt lat="45.95438" lon="4.82072">
        <ele>260</ele>
        <time>2018-08-26T08:46:29Z</time>
      </trkpt>
      <trkpt lat="45.95443" lon="4.82078">
        <ele>260</ele>
        <time>2018-08-26T08:46:30Z</time>
      </trkpt>
      <trkpt lat="45.95448" lon="4.82084">
        <ele>260</ele>
        <time>2018-08-26T08:46:31Z</time>
      </trkpt>
      <trkpt lat="45.95452" lon="4.8209">
        <ele>260</ele>
        <time>2018-08-26T08:46:32Z</time>
      </trkpt>
      <trkpt lat="45.95457" lon="4.82096">
        <ele>260</ele>
        <time>2018-08-26T08:46:33Z</time>
      </trkpt>
      <trkpt lat="45.95462" lon="4.82101">
        <ele>260</ele>
        <time>2018-08-26T08:46:34Z</time>
      </trkpt>
      <trkpt lat="45.95468" lon="4.82108">
        <ele>260</ele>
        <time>2018-08-26T08:46:35Z</time>
      </trkpt>
      <trkpt lat="45.95474" lon="4.82114">
        <ele>260</ele>
        <time>2018-08-26T08:46:36Z</time>
      </trkpt>
      <trkpt lat="45.95478" lon="4.82119">
        <ele>260</ele>
        <time>2018-08-26T08:46:37Z</time>
      </trkpt>
      <trkpt lat="45.95484" lon="4.82123">
        <ele>260</ele>
        <time>2018-08-26T08:46:38Z</time>
      </trkpt>
      <trkpt lat="45.95489" lon="4.82128">
        <ele>260</ele>
        <time>2018-08-26T08:46:39Z</time>
      </trkpt>
      <trkpt lat="45.95494" lon="4.82134">
        <ele>260</ele>
        <time>2018-08-26T08:46:40Z</time>
      </trkpt>
      <trkpt lat="45.95499" lon="4.8214">
        <ele>260</ele>
        <time>2018-08-26T08:46:41Z</time>
      </trkpt>
      <trkpt lat="45.95505" lon="4.82143">
        <ele>259</ele>
        <time>2018-08-26T08:46:42Z</time>
      </trkpt>
      <trkpt lat="45.95511" lon="4.8215">
        <ele>259</ele>
        <time>2018-08-26T08:46:43Z</time>
      </trkpt>
      <trkpt lat="45.95516" lon="4.82154">
        <ele>259</ele>
        <time>2018-08-26T08:46:44Z</time>
      </trkpt>
      <trkpt lat="45.95521" lon="4.8216">
        <ele>259</ele>
        <time>2018-08-26T08:46:45Z</time>
      </trkpt>
      <trkpt lat="45.95526" lon="4.82165">
        <ele>259</ele>
        <time>2018-08-26T08:46:46Z</time>
      </trkpt>
      <trkpt lat="45.95532" lon="4.82171">
        <ele>259</ele>
        <time>2018-08-26T08:46:47Z</time>
      </trkpt>
      <trkpt lat="45.95536" lon="4.82176">
        <ele>259</ele>
        <time>2018-08-26T08:46:48Z</time>
      </trkpt>
      <trkpt lat="45.95542" lon="4.82181">
        <ele>259</ele>
        <time>2018-08-26T08:46:49Z</time>
      </trkpt>
      <trkpt lat="45.95548" lon="4.82184">
        <ele>259</ele>
        <time>2018-08-26T08:46:50Z</time>
      </trkpt>
      <trkpt lat="45.95553" lon="4.82188">
        <ele>259</ele>
        <time>2018-08-26T08:46:51Z</time>
      </trkpt>
      <trkpt lat="45.95558" lon="4.82193">
        <ele>259</ele>
        <time>2018-08-26T08:46:52Z</time>
      </trkpt>
      <trkpt lat="45.95563" lon="4.82196">
        <ele>258</ele>
        <time>2018-08-26T08:46:53Z</time>
      </trkpt>
      <trkpt lat="45.95569" lon="4.822">
        <ele>258</ele>
        <time>2018-08-26T08:46:54Z</time>
      </trkpt>
      <trkpt lat="45.95574" lon="4.82204">
        <ele>258</ele>
        <time>2018-08-26T08:46:55Z</time>
      </trkpt>
      <trkpt lat="45.9558" lon="4.82208">
        <ele>258</ele>
        <time>2018-08-26T08:46:56Z</time>
      </trkpt>
      <trkpt lat="45.95585" lon="4.82214">
        <ele>257</ele>
        <time>2018-08-26T08:46:57Z</time>
      </trkpt>
      <trkpt lat="45.95592" lon="4.82217">
        <ele>257</ele>
        <time>2018-08-26T08:46:58Z</time>
      </trkpt>
      <trkpt lat="45.95598" lon="4.8222">
        <ele>257</ele>
        <time>2018-08-26T08:46:59Z</time>
      </trkpt>
      <trkpt lat="45.95604" lon="4.82222">
        <ele>257</ele>
        <time>2018-08-26T08:47:00Z</time>
      </trkpt>
      <trkpt lat="45.95612" lon="4.82222">
        <ele>257</ele>
        <time>2018-08-26T08:47:01Z</time>
      </trkpt>
      <trkpt lat="45.95617" lon="4.82226">
        <ele>257</ele>
        <time>2018-08-26T08:47:02Z</time>
      </trkpt>
      <trkpt lat="45.95624" lon="4.82226">
        <ele>257</ele>
        <time>2018-08-26T08:47:03Z</time>
      </trkpt>
      <trkpt lat="45.95627" lon="4.82228">
        <ele>257</ele>
        <time>2018-08-26T08:47:04Z</time>
      </trkpt>
      <trkpt lat="45.95634" lon="4.82227">
        <ele>257</ele>
        <time>2018-08-26T08:47:05Z</time>
      </trkpt>
      <trkpt lat="45.95641" lon="4.82228">
        <ele>257</ele>
        <time>2018-08-26T08:47:06Z</time>
      </trkpt>
      <trkpt lat="45.95646" lon="4.82228">
        <ele>257</ele>
        <time>2018-08-26T08:47:07Z</time>
      </trkpt>
      <trkpt lat="45.95653" lon="4.82228">
        <ele>257</ele>
        <time>2018-08-26T08:47:08Z</time>
      </trkpt>
      <trkpt lat="45.95658" lon="4.82232">
        <ele>257</ele>
        <time>2018-08-26T08:47:09Z</time>
      </trkpt>
      <trkpt lat="45.95665" lon="4.82236">
        <ele>256</ele>
        <time>2018-08-26T08:47:10Z</time>
      </trkpt>
      <trkpt lat="45.95671" lon="4.82239">
        <ele>255</ele>
        <time>2018-08-26T08:47:11Z</time>
      </trkpt>
      <trkpt lat="45.95678" lon="4.82243">
        <ele>255</ele>
        <time>2018-08-26T08:47:12Z</time>
      </trkpt>
      <trkpt lat="45.95684" lon="4.82248">
        <ele>255</ele>
        <time>2018-08-26T08:47:13Z</time>
      </trkpt>
      <trkpt lat="45.9569" lon="4.82253">
        <ele>255</ele>
        <time>2018-08-26T08:47:14Z</time>
      </trkpt>
      <trkpt lat="45.95696" lon="4.82254">
        <ele>255</ele>
        <time>2018-08-26T08:47:15Z</time>
      </trkpt>
      <trkpt lat="45.957" lon="4.8226">
        <ele>255</ele>
        <time>2018-08-26T08:47:16Z</time>
      </trkpt>
      <trkpt lat="45.95706" lon="4.82266">
        <ele>255</ele>
        <time>2018-08-26T08:47:17Z</time>
      </trkpt>
      <trkpt lat="45.95712" lon="4.82271">
        <ele>255</ele>
        <time>2018-08-26T08:47:18Z</time>
      </trkpt>
      <trkpt lat="45.95717" lon="4.82273">
        <ele>255</ele>
        <time>2018-08-26T08:47:19Z</time>
      </trkpt>
      <trkpt lat="45.95725" lon="4.82277">
        <ele>255</ele>
        <time>2018-08-26T08:47:20Z</time>
      </trkpt>
      <trkpt lat="45.95732" lon="4.82283">
        <ele>255</ele>
        <time>2018-08-26T08:47:21Z</time>
      </trkpt>
      <trkpt lat="45.95737" lon="4.82287">
        <ele>255</ele>
        <time>2018-08-26T08:47:22Z</time>
      </trkpt>
      <trkpt lat="45.95741" lon="4.82292">
        <ele>255</ele>
        <time>2018-08-26T08:47:23Z</time>
      </trkpt>
      <trkpt lat="45.95746" lon="4.82298">
        <ele>255</ele>
        <time>2018-08-26T08:47:24Z</time>
      </trkpt>
      <trkpt lat="45.9575" lon="4.82303">
        <ele>252</ele>
        <time>2018-08-26T08:47:25Z</time>
      </trkpt>
      <trkpt lat="45.95755" lon="4.82308">
        <ele>252</ele>
        <time>2018-08-26T08:47:26Z</time>
      </trkpt>
      <trkpt lat="45.9576" lon="4.82315">
        <ele>252</ele>
        <time>2018-08-26T08:47:27Z</time>
      </trkpt>
      <trkpt lat="45.95765" lon="4.82322">
        <ele>253</ele>
        <time>2018-08-26T08:47:28Z</time>
      </trkpt>
      <trkpt lat="45.95772" lon="4.82325">
        <ele>252</ele>
        <time>2018-08-26T08:47:29Z</time>
      </trkpt>
      <trkpt lat="45.95778" lon="4.82331">
        <ele>251</ele>
        <time>2018-08-26T08:47:30Z</time>
      </trkpt>
      <trkpt lat="45.95782" lon="4.8234">
        <ele>253</ele>
        <time>2018-08-26T08:47:31Z</time>
      </trkpt>
      <trkpt lat="45.95788" lon="4.82346">
        <ele>253</ele>
        <time>2018-08-26T08:47:32Z</time>
      </trkpt>
      <trkpt lat="45.95794" lon="4.82351">
        <ele>252</ele>
        <time>2018-08-26T08:47:33Z</time>
      </trkpt>
      <trkpt lat="45.95799" lon="4.82355">
        <ele>252</ele>
        <time>2018-08-26T08:47:34Z</time>
      </trkpt>
      <trkpt lat="45.95804" lon="4.82358">
        <ele>252</ele>
        <time>2018-08-26T08:47:35Z</time>
      </trkpt>
      <trkpt lat="45.95811" lon="4.82362">
        <ele>252</ele>
        <time>2018-08-26T08:47:36Z</time>
      </trkpt>
      <trkpt lat="45.95818" lon="4.82364">
        <ele>251</ele>
        <time>2018-08-26T08:47:37Z</time>
      </trkpt>
      <trkpt lat="45.95826" lon="4.82366">
        <ele>251</ele>
        <time>2018-08-26T08:47:38Z</time>
      </trkpt>
      <trkpt lat="45.95835" lon="4.82368">
        <ele>246</ele>
        <time>2018-08-26T08:47:39Z</time>
      </trkpt>
      <trkpt lat="45.95844" lon="4.82369">
        <ele>246</ele>
        <time>2018-08-26T08:47:40Z</time>
      </trkpt>
      <trkpt lat="45.95852" lon="4.82374">
        <ele>246</ele>
        <time>2018-08-26T08:47:41Z</time>
      </trkpt>
      <trkpt lat="45.95863" lon="4.82374">
        <ele>245</ele>
        <time>2018-08-26T08:47:42Z</time>
      </trkpt>
      <trkpt lat="45.95872" lon="4.82374">
        <ele>244</ele>
        <time>2018-08-26T08:47:43Z</time>
      </trkpt>
      <trkpt lat="45.95882" lon="4.82374">
        <ele>244</ele>
        <time>2018-08-26T08:47:44Z</time>
      </trkpt>
      <trkpt lat="45.95892" lon="4.82371">
        <ele>243</ele>
        <time>2018-08-26T08:47:45Z</time>
      </trkpt>
      <trkpt lat="45.95903" lon="4.82372">
        <ele>243</ele>
        <time>2018-08-26T08:47:46Z</time>
      </trkpt>
      <trkpt lat="45.95913" lon="4.82371">
        <ele>242</ele>
        <time>2018-08-26T08:47:47Z</time>
      </trkpt>
      <trkpt lat="45.95926" lon="4.82367">
        <ele>238</ele>
        <time>2018-08-26T08:47:48Z</time>
      </trkpt>
      <trkpt lat="45.95936" lon="4.82366">
        <ele>238</ele>
        <time>2018-08-26T08:47:49Z</time>
      </trkpt>
      <trkpt lat="45.95946" lon="4.82365">
        <ele>237</ele>
        <time>2018-08-26T08:47:50Z</time>
      </trkpt>
      <trkpt lat="45.95957" lon="4.82363">
        <ele>237</ele>
        <time>2018-08-26T08:47:51Z</time>
      </trkpt>
      <trkpt lat="45.95968" lon="4.82362">
        <ele>237</ele>
        <time>2018-08-26T08:47:52Z</time>
      </trkpt>
      <trkpt lat="45.95977" lon="4.8236">
        <ele>237</ele>
        <time>2018-08-26T08:47:53Z</time>
      </trkpt>
      <trkpt lat="45.95986" lon="4.82359">
        <ele>237</ele>
        <time>2018-08-26T08:47:54Z</time>
      </trkpt>
      <trkpt lat="45.95995" lon="4.82358">
        <ele>236</ele>
        <time>2018-08-26T08:47:55Z</time>
      </trkpt>
      <trkpt lat="45.96002" lon="4.82358">
        <ele>235</ele>
        <time>2018-08-26T08:47:56Z</time>
      </trkpt>
      <trkpt lat="45.9601" lon="4.82357">
        <ele>235</ele>
        <time>2018-08-26T08:47:57Z</time>
      </trkpt>
      <trkpt lat="45.96016" lon="4.82359">
        <ele>235</ele>
        <time>2018-08-26T08:47:58Z</time>
      </trkpt>
      <trkpt lat="45.9602" lon="4.82361">
        <ele>235</ele>
        <time>2018-08-26T08:47:59Z</time>
      </trkpt>
      <trkpt lat="45.96023" lon="4.82368">
        <ele>235</ele>
        <time>2018-08-26T08:48:00Z</time>
      </trkpt>
      <trkpt lat="45.96028" lon="4.82373">
        <ele>235</ele>
        <time>2018-08-26T08:48:01Z</time>
      </trkpt>
      <trkpt lat="45.96027" lon="4.82382">
        <ele>235</ele>
        <time>2018-08-26T08:48:02Z</time>
      </trkpt>
      <trkpt lat="45.96027" lon="4.8239">
        <ele>235</ele>
        <time>2018-08-26T08:48:03Z</time>
      </trkpt>
      <trkpt lat="45.96027" lon="4.82397">
        <ele>235</ele>
        <time>2018-08-26T08:48:04Z</time>
      </trkpt>
      <trkpt lat="45.96025" lon="4.82405">
        <ele>235</ele>
        <time>2018-08-26T08:48:05Z</time>
      </trkpt>
      <trkpt lat="45.96023" lon="4.82412">
        <ele>235</ele>
        <time>2018-08-26T08:48:06Z</time>
      </trkpt>
      <trkpt lat="45.96021" lon="4.8242">
        <ele>235</ele>
        <time>2018-08-26T08:48:07Z</time>
      </trkpt>
      <trkpt lat="45.96021" lon="4.82428">
        <ele>235</ele>
        <time>2018-08-26T08:48:08Z</time>
      </trkpt>
      <trkpt lat="45.96019" lon="4.82436">
        <ele>235</ele>
        <time>2018-08-26T08:48:09Z</time>
      </trkpt>
      <trkpt lat="45.96018" lon="4.82446">
        <ele>235</ele>
        <time>2018-08-26T08:48:10Z</time>
      </trkpt>
      <trkpt lat="45.96018" lon="4.82455">
        <ele>235</ele>
        <time>2018-08-26T08:48:11Z</time>
      </trkpt>
      <trkpt lat="45.96018" lon="4.82462">
        <ele>235</ele>
        <time>2018-08-26T08:48:12Z</time>
      </trkpt>
      <trkpt lat="45.96017" lon="4.82471">
        <ele>235</ele>
        <time>2018-08-26T08:48:13Z</time>
      </trkpt>
      <trkpt lat="45.96016" lon="4.82479">
        <ele>235</ele>
        <time>2018-08-26T08:48:14Z</time>
      </trkpt>
      <trkpt lat="45.96015" lon="4.82487">
        <ele>235</ele>
        <time>2018-08-26T08:48:15Z</time>
      </trkpt>
      <trkpt lat="45.96013" lon="4.82499">
        <ele>235</ele>
        <time>2018-08-26T08:48:17Z</time>
      </trkpt>
      <trkpt lat="45.96013" lon="4.82507">
        <ele>235</ele>
        <time>2018-08-26T08:48:18Z</time>
      </trkpt>
      <trkpt lat="45.96011" lon="4.82514">
        <ele>235</ele>
        <time>2018-08-26T08:48:19Z</time>
      </trkpt>
      <trkpt lat="45.9601" lon="4.82522">
        <ele>235</ele>
        <time>2018-08-26T08:48:20Z</time>
      </trkpt>
      <trkpt lat="45.96009" lon="4.82529">
        <ele>235</ele>
        <time>2018-08-26T08:48:21Z</time>
      </trkpt>
      <trkpt lat="45.96008" lon="4.82535">
        <ele>235</ele>
        <time>2018-08-26T08:48:22Z</time>
      </trkpt>
      <trkpt lat="45.96008" lon="4.82542">
        <ele>235</ele>
        <time>2018-08-26T08:48:23Z</time>
      </trkpt>
      <trkpt lat="45.96008" lon="4.82548">
        <ele>235</ele>
        <time>2018-08-26T08:48:24Z</time>
      </trkpt>
      <trkpt lat="45.96009" lon="4.82558">
        <ele>235</ele>
        <time>2018-08-26T08:48:25Z</time>
      </trkpt>
      <trkpt lat="45.96011" lon="4.82565">
        <ele>234</ele>
        <time>2018-08-26T08:48:26Z</time>
      </trkpt>
      <trkpt lat="45.96013" lon="4.82573">
        <ele>234</ele>
        <time>2018-08-26T08:48:27Z</time>
      </trkpt>
      <trkpt lat="45.96015" lon="4.82582">
        <ele>234</ele>
        <time>2018-08-26T08:48:28Z</time>
      </trkpt>
      <trkpt lat="45.96018" lon="4.82589">
        <ele>235</ele>
        <time>2018-08-26T08:48:29Z</time>
      </trkpt>
      <trkpt lat="45.9602" lon="4.82597">
        <ele>235</ele>
        <time>2018-08-26T08:48:30Z</time>
      </trkpt>
      <trkpt lat="45.96022" lon="4.82604">
        <ele>235</ele>
        <time>2018-08-26T08:48:31Z</time>
      </trkpt>
      <trkpt lat="45.96024" lon="4.8261">
        <ele>235</ele>
        <time>2018-08-26T08:48:32Z</time>
      </trkpt>
      <trkpt lat="45.96026" lon="4.82617">
        <ele>235</ele>
        <time>2018-08-26T08:48:33Z</time>
      </trkpt>
      <trkpt lat="45.96029" lon="4.82623">
        <ele>235</ele>
        <time>2018-08-26T08:48:34Z</time>
      </trkpt>
      <trkpt lat="45.96032" lon="4.82631">
        <ele>235</ele>
        <time>2018-08-26T08:48:35Z</time>
      </trkpt>
      <trkpt lat="45.96034" lon="4.82638">
        <ele>235</ele>
        <time>2018-08-26T08:48:36Z</time>
      </trkpt>
      <trkpt lat="45.96035" lon="4.82645">
        <ele>235</ele>
        <time>2018-08-26T08:48:37Z</time>
      </trkpt>
      <trkpt lat="45.96038" lon="4.82652">
        <ele>235</ele>
        <time>2018-08-26T08:48:38Z</time>
      </trkpt>
      <trkpt lat="45.96042" lon="4.82658">
        <ele>235</ele>
        <time>2018-08-26T08:48:39Z</time>
      </trkpt>
      <trkpt lat="45.96044" lon="4.82665">
        <ele>235</ele>
        <time>2018-08-26T08:48:40Z</time>
      </trkpt>
      <trkpt lat="45.96048" lon="4.82672">
        <ele>236</ele>
        <time>2018-08-26T08:48:41Z</time>
      </trkpt>
      <trkpt lat="45.9605" lon="4.82678">
        <ele>236</ele>
        <time>2018-08-26T08:48:42Z</time>
      </trkpt>
      <trkpt lat="45.96053" lon="4.82684">
        <ele>236</ele>
        <time>2018-08-26T08:48:43Z</time>
      </trkpt>
      <trkpt lat="45.96057" lon="4.8269">
        <ele>236</ele>
        <time>2018-08-26T08:48:44Z</time>
      </trkpt>
      <trkpt lat="45.96059" lon="4.82697">
        <ele>237</ele>
        <time>2018-08-26T08:48:45Z</time>
      </trkpt>
      <trkpt lat="45.96061" lon="4.82703">
        <ele>237</ele>
        <time>2018-08-26T08:48:46Z</time>
      </trkpt>
      <trkpt lat="45.96063" lon="4.8271">
        <ele>237</ele>
        <time>2018-08-26T08:48:47Z</time>
      </trkpt>
      <trkpt lat="45.96064" lon="4.82718">
        <ele>237</ele>
        <time>2018-08-26T08:48:48Z</time>
      </trkpt>
      <trkpt lat="45.96067" lon="4.82722">
        <ele>237</ele>
        <time>2018-08-26T08:48:49Z</time>
      </trkpt>
      <trkpt lat="45.9607" lon="4.82728">
        <ele>237</ele>
        <time>2018-08-26T08:48:50Z</time>
      </trkpt>
      <trkpt lat="45.96072" lon="4.82734">
        <ele>237</ele>
        <time>2018-08-26T08:48:51Z</time>
      </trkpt>
      <trkpt lat="45.96076" lon="4.82738">
        <ele>237</ele>
        <time>2018-08-26T08:48:52Z</time>
      </trkpt>
      <trkpt lat="45.96076" lon="4.82748">
        <ele>237</ele>
        <time>2018-08-26T08:48:54Z</time>
      </trkpt>
      <trkpt lat="45.96078" lon="4.82756">
        <ele>237</ele>
        <time>2018-08-26T08:48:55Z</time>
      </trkpt>
      <trkpt lat="45.9608" lon="4.82763">
        <ele>238</ele>
        <time>2018-08-26T08:48:56Z</time>
      </trkpt>
      <trkpt lat="45.96083" lon="4.82768">
        <ele>238</ele>
        <time>2018-08-26T08:48:57Z</time>
      </trkpt>
      <trkpt lat="45.96085" lon="4.82775">
        <ele>237</ele>
        <time>2018-08-26T08:48:58Z</time>
      </trkpt>
      <trkpt lat="45.96087" lon="4.82781">
        <ele>237</ele>
        <time>2018-08-26T08:48:59Z</time>
      </trkpt>
      <trkpt lat="45.96089" lon="4.82788">
        <ele>237</ele>
        <time>2018-08-26T08:49:00Z</time>
      </trkpt>
      <trkpt lat="45.96092" lon="4.82794">
        <ele>237</ele>
        <time>2018-08-26T08:49:01Z</time>
      </trkpt>
      <trkpt lat="45.96093" lon="4.82802">
        <ele>237</ele>
        <time>2018-08-26T08:49:02Z</time>
      </trkpt>
      <trkpt lat="45.96095" lon="4.8281">
        <ele>237</ele>
        <time>2018-08-26T08:49:03Z</time>
      </trkpt>
      <trkpt lat="45.96096" lon="4.82817">
        <ele>237</ele>
        <time>2018-08-26T08:49:04Z</time>
      </trkpt>
      <trkpt lat="45.96097" lon="4.82825">
        <ele>237</ele>
        <time>2018-08-26T08:49:05Z</time>
      </trkpt>
      <trkpt lat="45.96098" lon="4.82836">
        <ele>237</ele>
        <time>2018-08-26T08:49:07Z</time>
      </trkpt>
      <trkpt lat="45.96099" lon="4.82843">
        <ele>237</ele>
        <time>2018-08-26T08:49:08Z</time>
      </trkpt>
      <trkpt lat="45.96096" lon="4.82848">
        <ele>237</ele>
        <time>2018-08-26T08:49:09Z</time>
      </trkpt>
      <trkpt lat="45.96096" lon="4.82855">
        <ele>237</ele>
        <time>2018-08-26T08:49:10Z</time>
      </trkpt>
      <trkpt lat="45.96096" lon="4.82861">
        <ele>237</ele>
        <time>2018-08-26T08:49:11Z</time>
      </trkpt>
      <trkpt lat="45.96097" lon="4.82868">
        <ele>237</ele>
        <time>2018-08-26T08:49:12Z</time>
      </trkpt>
      <trkpt lat="45.96095" lon="4.82879">
        <ele>237</ele>
        <time>2018-08-26T08:49:14Z</time>
      </trkpt>
      <trkpt lat="45.9609" lon="4.82883">
        <ele>237</ele>
        <time>2018-08-26T08:49:15Z</time>
      </trkpt>
      <trkpt lat="45.96085" lon="4.82886">
        <ele>237</ele>
        <time>2018-08-26T08:49:16Z</time>
      </trkpt>
      <trkpt lat="45.96087" lon="4.82898">
        <ele>238</ele>
        <time>2018-08-26T08:49:17Z</time>
      </trkpt>
      <trkpt lat="45.96085" lon="4.82906">
        <ele>238</ele>
        <time>2018-08-26T08:49:18Z</time>
      </trkpt>
      <trkpt lat="45.96083" lon="4.82915">
        <ele>238</ele>
        <time>2018-08-26T08:49:19Z</time>
      </trkpt>
      <trkpt lat="45.96081" lon="4.82922">
        <ele>239</ele>
        <time>2018-08-26T08:49:20Z</time>
      </trkpt>
      <trkpt lat="45.9608" lon="4.82929">
        <ele>240</ele>
        <time>2018-08-26T08:49:21Z</time>
      </trkpt>
      <trkpt lat="45.96078" lon="4.82936">
        <ele>240</ele>
        <time>2018-08-26T08:49:22Z</time>
      </trkpt>
      <trkpt lat="45.96076" lon="4.82943">
        <ele>241</ele>
        <time>2018-08-26T08:49:23Z</time>
      </trkpt>
      <trkpt lat="45.96074" lon="4.8295">
        <ele>241</ele>
        <time>2018-08-26T08:49:24Z</time>
      </trkpt>
      <trkpt lat="45.96073" lon="4.82957">
        <ele>241</ele>
        <time>2018-08-26T08:49:25Z</time>
      </trkpt>
      <trkpt lat="45.96072" lon="4.82963">
        <ele>241</ele>
        <time>2018-08-26T08:49:26Z</time>
      </trkpt>
      <trkpt lat="45.96071" lon="4.82972">
        <ele>241</ele>
        <time>2018-08-26T08:49:27Z</time>
      </trkpt>
      <trkpt lat="45.96069" lon="4.82978">
        <ele>241</ele>
        <time>2018-08-26T08:49:28Z</time>
      </trkpt>
      <trkpt lat="45.96069" lon="4.82987">
        <ele>241</ele>
        <time>2018-08-26T08:49:29Z</time>
      </trkpt>
      <trkpt lat="45.9607" lon="4.82994">
        <ele>241</ele>
        <time>2018-08-26T08:49:30Z</time>
      </trkpt>
      <trkpt lat="45.9607" lon="4.83001">
        <ele>241</ele>
        <time>2018-08-26T08:49:31Z</time>
      </trkpt>
      <trkpt lat="45.96069" lon="4.83008">
        <ele>241</ele>
        <time>2018-08-26T08:49:32Z</time>
      </trkpt>
      <trkpt lat="45.96069" lon="4.83014">
        <ele>242</ele>
        <time>2018-08-26T08:49:33Z</time>
      </trkpt>
      <trkpt lat="45.96069" lon="4.83022">
        <ele>242</ele>
        <time>2018-08-26T08:49:34Z</time>
      </trkpt>
      <trkpt lat="45.9607" lon="4.8303">
        <ele>242</ele>
        <time>2018-08-26T08:49:35Z</time>
      </trkpt>
      <trkpt lat="45.9607" lon="4.83037">
        <ele>243</ele>
        <time>2018-08-26T08:49:36Z</time>
      </trkpt>
      <trkpt lat="45.96072" lon="4.83044">
        <ele>243</ele>
        <time>2018-08-26T08:49:37Z</time>
      </trkpt>
      <trkpt lat="45.96073" lon="4.83052">
        <ele>243</ele>
        <time>2018-08-26T08:49:38Z</time>
      </trkpt>
      <trkpt lat="45.96075" lon="4.83059">
        <ele>242</ele>
        <time>2018-08-26T08:49:39Z</time>
      </trkpt>
      <trkpt lat="45.96078" lon="4.8307">
        <ele>242</ele>
        <time>2018-08-26T08:49:41Z</time>
      </trkpt>
      <trkpt lat="45.9608" lon="4.83078">
        <ele>241</ele>
        <time>2018-08-26T08:49:42Z</time>
      </trkpt>
      <trkpt lat="45.96082" lon="4.83085">
        <ele>240</ele>
        <time>2018-08-26T08:49:43Z</time>
      </trkpt>
      <trkpt lat="45.96083" lon="4.83091">
        <ele>241</ele>
        <time>2018-08-26T08:49:44Z</time>
      </trkpt>
      <trkpt lat="45.96085" lon="4.831">
        <ele>240</ele>
        <time>2018-08-26T08:49:45Z</time>
      </trkpt>
      <trkpt lat="45.96085" lon="4.83106">
        <ele>240</ele>
        <time>2018-08-26T08:49:46Z</time>
      </trkpt>
      <trkpt lat="45.96088" lon="4.83118">
        <ele>240</ele>
        <time>2018-08-26T08:49:48Z</time>
      </trkpt>
      <trkpt lat="45.96088" lon="4.83126">
        <ele>240</ele>
        <time>2018-08-26T08:49:49Z</time>
      </trkpt>
      <trkpt lat="45.96089" lon="4.83133">
        <ele>240</ele>
        <time>2018-08-26T08:49:50Z</time>
      </trkpt>
      <trkpt lat="45.96089" lon="4.8314">
        <ele>240</ele>
        <time>2018-08-26T08:49:51Z</time>
      </trkpt>
      <trkpt lat="45.9609" lon="4.83146">
        <ele>240</ele>
        <time>2018-08-26T08:49:52Z</time>
      </trkpt>
      <trkpt lat="45.9609" lon="4.83153">
        <ele>240</ele>
        <time>2018-08-26T08:49:53Z</time>
      </trkpt>
      <trkpt lat="45.96091" lon="4.83161">
        <ele>240</ele>
        <time>2018-08-26T08:49:54Z</time>
      </trkpt>
      <trkpt lat="45.96091" lon="4.83168">
        <ele>240</ele>
        <time>2018-08-26T08:49:55Z</time>
      </trkpt>
      <trkpt lat="45.96089" lon="4.8318">
        <ele>240</ele>
        <time>2018-08-26T08:49:57Z</time>
      </trkpt>
      <trkpt lat="45.96088" lon="4.83187">
        <ele>240</ele>
        <time>2018-08-26T08:49:58Z</time>
      </trkpt>
      <trkpt lat="45.96086" lon="4.83199">
        <ele>240</ele>
        <time>2018-08-26T08:50:00Z</time>
      </trkpt>
      <trkpt lat="45.96087" lon="4.83207">
        <ele>240</ele>
        <time>2018-08-26T08:50:01Z</time>
      </trkpt>
      <trkpt lat="45.96087" lon="4.83213">
        <ele>240</ele>
        <time>2018-08-26T08:50:02Z</time>
      </trkpt>
      <trkpt lat="45.96086" lon="4.83223">
        <ele>240</ele>
        <time>2018-08-26T08:50:03Z</time>
      </trkpt>
      <trkpt lat="45.96086" lon="4.8323">
        <ele>240</ele>
        <time>2018-08-26T08:50:04Z</time>
      </trkpt>
      <trkpt lat="45.96086" lon="4.83237">
        <ele>240</ele>
        <time>2018-08-26T08:50:05Z</time>
      </trkpt>
      <trkpt lat="45.96085" lon="4.83244">
        <ele>240</ele>
        <time>2018-08-26T08:50:06Z</time>
      </trkpt>
      <trkpt lat="45.96085" lon="4.83252">
        <ele>240</ele>
        <time>2018-08-26T08:50:07Z</time>
      </trkpt>
      <trkpt lat="45.96085" lon="4.8326">
        <ele>240</ele>
        <time>2018-08-26T08:50:08Z</time>
      </trkpt>
      <trkpt lat="45.96084" lon="4.83267">
        <ele>241</ele>
        <time>2018-08-26T08:50:09Z</time>
      </trkpt>
      <trkpt lat="45.96085" lon="4.83274">
        <ele>241</ele>
        <time>2018-08-26T08:50:10Z</time>
      </trkpt>
      <trkpt lat="45.96085" lon="4.83282">
        <ele>241</ele>
        <time>2018-08-26T08:50:11Z</time>
      </trkpt>
      <trkpt lat="45.96088" lon="4.83286">
        <ele>241</ele>
        <time>2018-08-26T08:50:12Z</time>
      </trkpt>
      <trkpt lat="45.96091" lon="4.83295">
        <ele>241</ele>
        <time>2018-08-26T08:50:13Z</time>
      </trkpt>
      <trkpt lat="45.96093" lon="4.83305">
        <ele>241</ele>
        <time>2018-08-26T08:50:14Z</time>
      </trkpt>
      <trkpt lat="45.96094" lon="4.83311">
        <ele>241</ele>
        <time>2018-08-26T08:50:15Z</time>
      </trkpt>
      <trkpt lat="45.96094" lon="4.83323">
        <ele>241</ele>
        <time>2018-08-26T08:50:17Z</time>
      </trkpt>
      <trkpt lat="45.96093" lon="4.83329">
        <ele>241</ele>
        <time>2018-08-26T08:50:18Z</time>
      </trkpt>
      <trkpt lat="45.96096" lon="4.83335">
        <ele>242</ele>
        <time>2018-08-26T08:50:19Z</time>
      </trkpt>
      <trkpt lat="45.96097" lon="4.83342">
        <ele>242</ele>
        <time>2018-08-26T08:50:20Z</time>
      </trkpt>
      <trkpt lat="45.96099" lon="4.83348">
        <ele>242</ele>
        <time>2018-08-26T08:50:21Z</time>
      </trkpt>
      <trkpt lat="45.961" lon="4.83354">
        <ele>242</ele>
        <time>2018-08-26T08:50:22Z</time>
      </trkpt>
      <trkpt lat="45.96101" lon="4.83364">
        <ele>242</ele>
        <time>2018-08-26T08:50:24Z</time>
      </trkpt>
      <trkpt lat="45.96102" lon="4.83372">
        <ele>242</ele>
        <time>2018-08-26T08:50:25Z</time>
      </trkpt>
      <trkpt lat="45.96104" lon="4.83384">
        <ele>242</ele>
        <time>2018-08-26T08:50:27Z</time>
      </trkpt>
      <trkpt lat="45.96107" lon="4.8339">
        <ele>243</ele>
        <time>2018-08-26T08:50:28Z</time>
      </trkpt>
      <trkpt lat="45.96109" lon="4.83401">
        <ele>243</ele>
        <time>2018-08-26T08:50:30Z</time>
      </trkpt>
      <trkpt lat="45.9611" lon="4.83406">
        <ele>243</ele>
        <time>2018-08-26T08:50:31Z</time>
      </trkpt>
      <trkpt lat="45.96111" lon="4.83412">
        <ele>243</ele>
        <time>2018-08-26T08:50:32Z</time>
      </trkpt>
      <trkpt lat="45.96114" lon="4.83418">
        <ele>243</ele>
        <time>2018-08-26T08:50:33Z</time>
      </trkpt>
      <trkpt lat="45.96115" lon="4.8343">
        <ele>243</ele>
        <time>2018-08-26T08:50:35Z</time>
      </trkpt>
      <trkpt lat="45.96117" lon="4.83436">
        <ele>242</ele>
        <time>2018-08-26T08:50:36Z</time>
      </trkpt>
      <trkpt lat="45.96118" lon="4.83442">
        <ele>242</ele>
        <time>2018-08-26T08:50:37Z</time>
      </trkpt>
      <trkpt lat="45.96121" lon="4.8345">
        <ele>242</ele>
        <time>2018-08-26T08:50:38Z</time>
      </trkpt>
      <trkpt lat="45.96123" lon="4.83461">
        <ele>242</ele>
        <time>2018-08-26T08:50:40Z</time>
      </trkpt>
      <trkpt lat="45.96124" lon="4.83466">
        <ele>242</ele>
        <time>2018-08-26T08:50:41Z</time>
      </trkpt>
      <trkpt lat="45.96127" lon="4.83477">
        <ele>242</ele>
        <time>2018-08-26T08:50:43Z</time>
      </trkpt>
      <trkpt lat="45.96127" lon="4.83479">
        <ele>242</ele>
        <time>2018-08-26T08:50:44Z</time>
      </trkpt>
      <trkpt lat="45.96129" lon="4.83487">
        <ele>242</ele>
        <time>2018-08-26T08:50:45Z</time>
      </trkpt>
      <trkpt lat="45.9613" lon="4.83492">
        <ele>242</ele>
        <time>2018-08-26T08:50:46Z</time>
      </trkpt>
      <trkpt lat="45.96132" lon="4.83502">
        <ele>242</ele>
        <time>2018-08-26T08:50:48Z</time>
      </trkpt>
      <trkpt lat="45.96132" lon="4.83507">
        <ele>242</ele>
        <time>2018-08-26T08:50:49Z</time>
      </trkpt>
      <trkpt lat="45.96133" lon="4.83513">
        <ele>242</ele>
        <time>2018-08-26T08:50:51Z</time>
      </trkpt>
      <trkpt lat="45.96135" lon="4.83521">
        <ele>242</ele>
        <time>2018-08-26T08:50:52Z</time>
      </trkpt>
      <trkpt lat="45.96136" lon="4.83526">
        <ele>242</ele>
        <time>2018-08-26T08:50:54Z</time>
      </trkpt>
      <trkpt lat="45.96138" lon="4.83534">
        <ele>242</ele>
        <time>2018-08-26T08:50:55Z</time>
      </trkpt>
      <trkpt lat="45.9614" lon="4.83544">
        <ele>242</ele>
        <time>2018-08-26T08:50:57Z</time>
      </trkpt>
      <trkpt lat="45.96141" lon="4.83549">
        <ele>242</ele>
        <time>2018-08-26T08:50:58Z</time>
      </trkpt>
      <trkpt lat="45.96143" lon="4.8356">
        <ele>242</ele>
        <time>2018-08-26T08:51:00Z</time>
      </trkpt>
      <trkpt lat="45.96144" lon="4.83566">
        <ele>241</ele>
        <time>2018-08-26T08:51:01Z</time>
      </trkpt>
      <trkpt lat="45.96146" lon="4.83577">
        <ele>241</ele>
        <time>2018-08-26T08:51:03Z</time>
      </trkpt>
      <trkpt lat="45.96148" lon="4.83583">
        <ele>241</ele>
        <time>2018-08-26T08:51:04Z</time>
      </trkpt>
      <trkpt lat="45.96149" lon="4.83589">
        <ele>242</ele>
        <time>2018-08-26T08:51:05Z</time>
      </trkpt>
      <trkpt lat="45.96152" lon="4.83596">
        <ele>242</ele>
        <time>2018-08-26T08:51:06Z</time>
      </trkpt>
      <trkpt lat="45.96155" lon="4.83608">
        <ele>242</ele>
        <time>2018-08-26T08:51:08Z</time>
      </trkpt>
      <trkpt lat="45.96156" lon="4.83613">
        <ele>242</ele>
        <time>2018-08-26T08:51:09Z</time>
      </trkpt>
      <trkpt lat="45.96158" lon="4.83624">
        <ele>242</ele>
        <time>2018-08-26T08:51:11Z</time>
      </trkpt>
      <trkpt lat="45.9616" lon="4.83629">
        <ele>243</ele>
        <time>2018-08-26T08:51:12Z</time>
      </trkpt>
      <trkpt lat="45.96162" lon="4.83635">
        <ele>243</ele>
        <time>2018-08-26T08:51:13Z</time>
      </trkpt>
      <trkpt lat="45.96164" lon="4.83641">
        <ele>243</ele>
        <time>2018-08-26T08:51:14Z</time>
      </trkpt>
      <trkpt lat="45.96169" lon="4.8365">
        <ele>242</ele>
        <time>2018-08-26T08:51:16Z</time>
      </trkpt>
      <trkpt lat="45.96172" lon="4.83655">
        <ele>242</ele>
        <time>2018-08-26T08:51:17Z</time>
      </trkpt>
      <trkpt lat="45.96176" lon="4.83658">
        <ele>242</ele>
        <time>2018-08-26T08:51:18Z</time>
      </trkpt>
      <trkpt lat="45.9618" lon="4.83663">
        <ele>242</ele>
        <time>2018-08-26T08:51:19Z</time>
      </trkpt>
      <trkpt lat="45.96184" lon="4.83668">
        <ele>243</ele>
        <time>2018-08-26T08:51:20Z</time>
      </trkpt>
      <trkpt lat="45.96189" lon="4.83671">
        <ele>243</ele>
        <time>2018-08-26T08:51:21Z</time>
      </trkpt>
      <trkpt lat="45.96192" lon="4.83676">
        <ele>243</ele>
        <time>2018-08-26T08:51:22Z</time>
      </trkpt>
      <trkpt lat="45.96196" lon="4.83681">
        <ele>243</ele>
        <time>2018-08-26T08:51:23Z</time>
      </trkpt>
      <trkpt lat="45.96202" lon="4.8369">
        <ele>243</ele>
        <time>2018-08-26T08:51:25Z</time>
      </trkpt>
      <trkpt lat="45.96204" lon="4.83694">
        <ele>243</ele>
        <time>2018-08-26T08:51:26Z</time>
      </trkpt>
      <trkpt lat="45.96208" lon="4.83699">
        <ele>243</ele>
        <time>2018-08-26T08:51:27Z</time>
      </trkpt>
      <trkpt lat="45.96213" lon="4.83703">
        <ele>243</ele>
        <time>2018-08-26T08:51:28Z</time>
      </trkpt>
      <trkpt lat="45.96217" lon="4.83708">
        <ele>244</ele>
        <time>2018-08-26T08:51:29Z</time>
      </trkpt>
      <trkpt lat="45.96221" lon="4.83711">
        <ele>244</ele>
        <time>2018-08-26T08:51:30Z</time>
      </trkpt>
      <trkpt lat="45.96225" lon="4.83714">
        <ele>244</ele>
        <time>2018-08-26T08:51:31Z</time>
      </trkpt>
      <trkpt lat="45.96229" lon="4.83719">
        <ele>244</ele>
        <time>2018-08-26T08:51:32Z</time>
      </trkpt>
      <trkpt lat="45.96234" lon="4.83723">
        <ele>244</ele>
        <time>2018-08-26T08:51:33Z</time>
      </trkpt>
      <trkpt lat="45.96238" lon="4.83727">
        <ele>244</ele>
        <time>2018-08-26T08:51:34Z</time>
      </trkpt>
      <trkpt lat="45.96242" lon="4.83732">
        <ele>244</ele>
        <time>2018-08-26T08:51:35Z</time>
      </trkpt>
      <trkpt lat="45.96245" lon="4.83736">
        <ele>244</ele>
        <time>2018-08-26T08:51:36Z</time>
      </trkpt>
      <trkpt lat="45.96249" lon="4.8374">
        <ele>244</ele>
        <time>2018-08-26T08:51:37Z</time>
      </trkpt>
      <trkpt lat="45.96254" lon="4.8374">
        <ele>245</ele>
        <time>2018-08-26T08:51:38Z</time>
      </trkpt>
      <trkpt lat="45.96258" lon="4.83744">
        <ele>245</ele>
        <time>2018-08-26T08:51:39Z</time>
      </trkpt>
      <trkpt lat="45.96263" lon="4.83752">
        <ele>245</ele>
        <time>2018-08-26T08:51:40Z</time>
      </trkpt>
      <trkpt lat="45.96266" lon="4.83756">
        <ele>245</ele>
        <time>2018-08-26T08:51:41Z</time>
      </trkpt>
      <trkpt lat="45.96271" lon="4.83759">
        <ele>245</ele>
        <time>2018-08-26T08:51:42Z</time>
      </trkpt>
      <trkpt lat="45.96276" lon="4.83763">
        <ele>245</ele>
        <time>2018-08-26T08:51:43Z</time>
      </trkpt>
      <trkpt lat="45.9628" lon="4.83767">
        <ele>245</ele>
        <time>2018-08-26T08:51:44Z</time>
      </trkpt>
      <trkpt lat="45.96284" lon="4.83772">
        <ele>245</ele>
        <time>2018-08-26T08:51:45Z</time>
      </trkpt>
      <trkpt lat="45.9629" lon="4.83775">
        <ele>245</ele>
        <time>2018-08-26T08:51:46Z</time>
      </trkpt>
      <trkpt lat="45.96294" lon="4.8378">
        <ele>245</ele>
        <time>2018-08-26T08:51:47Z</time>
      </trkpt>
      <trkpt lat="45.96298" lon="4.83785">
        <ele>245</ele>
        <time>2018-08-26T08:51:48Z</time>
      </trkpt>
      <trkpt lat="45.96302" lon="4.83786">
        <ele>245</ele>
        <time>2018-08-26T08:51:49Z</time>
      </trkpt>
      <trkpt lat="45.96307" lon="4.8379">
        <ele>245</ele>
        <time>2018-08-26T08:51:50Z</time>
      </trkpt>
      <trkpt lat="45.96312" lon="4.83794">
        <ele>245</ele>
        <time>2018-08-26T08:51:51Z</time>
      </trkpt>
      <trkpt lat="45.96317" lon="4.838">
        <ele>245</ele>
        <time>2018-08-26T08:51:52Z</time>
      </trkpt>
      <trkpt lat="45.96322" lon="4.83804">
        <ele>245</ele>
        <time>2018-08-26T08:51:53Z</time>
      </trkpt>
      <trkpt lat="45.96325" lon="4.83807">
        <ele>245</ele>
        <time>2018-08-26T08:51:54Z</time>
      </trkpt>
      <trkpt lat="45.96329" lon="4.83811">
        <ele>244</ele>
        <time>2018-08-26T08:51:55Z</time>
      </trkpt>
      <trkpt lat="45.96333" lon="4.83813">
        <ele>244</ele>
        <time>2018-08-26T08:51:56Z</time>
      </trkpt>
      <trkpt lat="45.9634" lon="4.8382">
        <ele>245</ele>
        <time>2018-08-26T08:51:58Z</time>
      </trkpt>
      <trkpt lat="45.96344" lon="4.83823">
        <ele>245</ele>
        <time>2018-08-26T08:51:59Z</time>
      </trkpt>
      <trkpt lat="45.96351" lon="4.8383">
        <ele>245</ele>
        <time>2018-08-26T08:52:01Z</time>
      </trkpt>
      <trkpt lat="45.96354" lon="4.83834">
        <ele>245</ele>
        <time>2018-08-26T08:52:02Z</time>
      </trkpt>
      <trkpt lat="45.9636" lon="4.83844">
        <ele>246</ele>
        <time>2018-08-26T08:52:04Z</time>
      </trkpt>
      <trkpt lat="45.96361" lon="4.83849">
        <ele>246</ele>
        <time>2018-08-26T08:52:05Z</time>
      </trkpt>
      <trkpt lat="45.96367" lon="4.83858">
        <ele>247</ele>
        <time>2018-08-26T08:52:07Z</time>
      </trkpt>
      <trkpt lat="45.96369" lon="4.83864">
        <ele>247</ele>
        <time>2018-08-26T08:52:08Z</time>
      </trkpt>
      <trkpt lat="45.96372" lon="4.83872">
        <ele>247</ele>
        <time>2018-08-26T08:52:10Z</time>
      </trkpt>
      <trkpt lat="45.96375" lon="4.83879">
        <ele>247</ele>
        <time>2018-08-26T08:52:11Z</time>
      </trkpt>
      <trkpt lat="45.96377" lon="4.83884">
        <ele>247</ele>
        <time>2018-08-26T08:52:13Z</time>
      </trkpt>
      <trkpt lat="45.9638" lon="4.83892">
        <ele>248</ele>
        <time>2018-08-26T08:52:14Z</time>
      </trkpt>
      <trkpt lat="45.96382" lon="4.839">
        <ele>248</ele>
        <time>2018-08-26T08:52:16Z</time>
      </trkpt>
      <trkpt lat="45.96384" lon="4.83907">
        <ele>248</ele>
        <time>2018-08-26T08:52:17Z</time>
      </trkpt>
      <trkpt lat="45.96388" lon="4.83914">
        <ele>248</ele>
        <time>2018-08-26T08:52:19Z</time>
      </trkpt>
      <trkpt lat="45.96389" lon="4.83917">
        <ele>251</ele>
        <time>2018-08-26T08:52:20Z</time>
      </trkpt>
      <trkpt lat="45.96394" lon="4.83925">
        <ele>251</ele>
        <time>2018-08-26T08:52:21Z</time>
      </trkpt>
      <trkpt lat="45.96395" lon="4.83928">
        <ele>251</ele>
        <time>2018-08-26T08:52:22Z</time>
      </trkpt>
      <trkpt lat="45.96397" lon="4.83934">
        <ele>251</ele>
        <time>2018-08-26T08:52:24Z</time>
      </trkpt>
      <trkpt lat="45.96401" lon="4.83944">
        <ele>252</ele>
        <time>2018-08-26T08:52:25Z</time>
      </trkpt>
      <trkpt lat="45.96404" lon="4.83953">
        <ele>252</ele>
        <time>2018-08-26T08:52:28Z</time>
      </trkpt>
      <trkpt lat="45.96405" lon="4.83957">
        <ele>252</ele>
        <time>2018-08-26T08:52:29Z</time>
      </trkpt>
      <trkpt lat="45.9641" lon="4.83967">
        <ele>253</ele>
        <time>2018-08-26T08:52:32Z</time>
      </trkpt>
      <trkpt lat="45.96412" lon="4.83971">
        <ele>253</ele>
        <time>2018-08-26T08:52:33Z</time>
      </trkpt>
      <trkpt lat="45.96416" lon="4.83982">
        <ele>253</ele>
        <time>2018-08-26T08:52:36Z</time>
      </trkpt>
      <trkpt lat="45.96418" lon="4.83985">
        <ele>251</ele>
        <time>2018-08-26T08:52:37Z</time>
      </trkpt>
      <trkpt lat="45.96421" lon="4.83993">
        <ele>252</ele>
        <time>2018-08-26T08:52:39Z</time>
      </trkpt>
      <trkpt lat="45.96423" lon="4.83997">
        <ele>252</ele>
        <time>2018-08-26T08:52:40Z</time>
      </trkpt>
      <trkpt lat="45.96426" lon="4.84004">
        <ele>252</ele>
        <time>2018-08-26T08:52:42Z</time>
      </trkpt>
      <trkpt lat="45.96427" lon="4.84008">
        <ele>252</ele>
        <time>2018-08-26T08:52:43Z</time>
      </trkpt>
      <trkpt lat="45.96431" lon="4.84019">
        <ele>252</ele>
        <time>2018-08-26T08:52:46Z</time>
      </trkpt>
      <trkpt lat="45.96436" lon="4.84031">
        <ele>251</ele>
        <time>2018-08-26T08:52:47Z</time>
      </trkpt>
      <trkpt lat="45.96441" lon="4.8404">
        <ele>251</ele>
        <time>2018-08-26T08:52:50Z</time>
      </trkpt>
      <trkpt lat="45.96444" lon="4.84048">
        <ele>251</ele>
        <time>2018-08-26T08:52:51Z</time>
      </trkpt>
      <trkpt lat="45.96446" lon="4.84054">
        <ele>251</ele>
        <time>2018-08-26T08:52:53Z</time>
      </trkpt>
      <trkpt lat="45.96449" lon="4.84061">
        <ele>251</ele>
        <time>2018-08-26T08:52:54Z</time>
      </trkpt>
      <trkpt lat="45.96452" lon="4.8407">
        <ele>251</ele>
        <time>2018-08-26T08:52:57Z</time>
      </trkpt>
      <trkpt lat="45.96453" lon="4.84073">
        <ele>251</ele>
        <time>2018-08-26T08:52:58Z</time>
      </trkpt>
      <trkpt lat="45.96456" lon="4.84081">
        <ele>251</ele>
        <time>2018-08-26T08:53:00Z</time>
      </trkpt>
      <trkpt lat="45.96457" lon="4.84085">
        <ele>252</ele>
        <time>2018-08-26T08:53:01Z</time>
      </trkpt>
      <trkpt lat="45.9646" lon="4.84093">
        <ele>252</ele>
        <time>2018-08-26T08:53:03Z</time>
      </trkpt>
      <trkpt lat="45.96461" lon="4.84097">
        <ele>252</ele>
        <time>2018-08-26T08:53:04Z</time>
      </trkpt>
      <trkpt lat="45.96464" lon="4.84105">
        <ele>251</ele>
        <time>2018-08-26T08:53:06Z</time>
      </trkpt>
      <trkpt lat="45.96465" lon="4.84109">
        <ele>251</ele>
        <time>2018-08-26T08:53:07Z</time>
      </trkpt>
      <trkpt lat="45.96467" lon="4.84117">
        <ele>251</ele>
        <time>2018-08-26T08:53:09Z</time>
      </trkpt>
      <trkpt lat="45.96469" lon="4.84121">
        <ele>251</ele>
        <time>2018-08-26T08:53:10Z</time>
      </trkpt>
      <trkpt lat="45.96471" lon="4.84129">
        <ele>251</ele>
        <time>2018-08-26T08:53:12Z</time>
      </trkpt>
      <trkpt lat="45.96473" lon="4.84133">
        <ele>251</ele>
        <time>2018-08-26T08:53:13Z</time>
      </trkpt>
      <trkpt lat="45.96476" lon="4.84146">
        <ele>251</ele>
        <time>2018-08-26T08:53:14Z</time>
      </trkpt>
      <trkpt lat="45.96478" lon="4.84152">
        <ele>251</ele>
        <time>2018-08-26T08:53:16Z</time>
      </trkpt>
      <trkpt lat="45.9648" lon="4.84161">
        <ele>251</ele>
        <time>2018-08-26T08:53:17Z</time>
      </trkpt>
      <trkpt lat="45.96482" lon="4.84171">
        <ele>251</ele>
        <time>2018-08-26T08:53:19Z</time>
      </trkpt>
      <trkpt lat="45.96483" lon="4.84177">
        <ele>251</ele>
        <time>2018-08-26T08:53:20Z</time>
      </trkpt>
      <trkpt lat="45.96485" lon="4.84188">
        <ele>251</ele>
        <time>2018-08-26T08:53:23Z</time>
      </trkpt>
      <trkpt lat="45.96487" lon="4.84197">
        <ele>251</ele>
        <time>2018-08-26T08:53:24Z</time>
      </trkpt>
      <trkpt lat="45.9649" lon="4.84208">
        <ele>252</ele>
        <time>2018-08-26T08:53:26Z</time>
      </trkpt>
      <trkpt lat="45.96494" lon="4.84216">
        <ele>252</ele>
        <time>2018-08-26T08:53:27Z</time>
      </trkpt>
      <trkpt lat="45.96495" lon="4.84223">
        <ele>252</ele>
        <time>2018-08-26T08:53:28Z</time>
      </trkpt>
      <trkpt lat="45.96498" lon="4.8423">
        <ele>251</ele>
        <time>2018-08-26T08:53:29Z</time>
      </trkpt>
      <trkpt lat="45.96501" lon="4.84238">
        <ele>250</ele>
        <time>2018-08-26T08:53:30Z</time>
      </trkpt>
      <trkpt lat="45.96502" lon="4.84245">
        <ele>250</ele>
        <time>2018-08-26T08:53:31Z</time>
      </trkpt>
      <trkpt lat="45.96503" lon="4.84252">
        <ele>251</ele>
        <time>2018-08-26T08:53:32Z</time>
      </trkpt>
      <trkpt lat="45.96505" lon="4.84259">
        <ele>251</ele>
        <time>2018-08-26T08:53:33Z</time>
      </trkpt>
      <trkpt lat="45.96507" lon="4.84266">
        <ele>250</ele>
        <time>2018-08-26T08:53:34Z</time>
      </trkpt>
      <trkpt lat="45.96508" lon="4.84273">
        <ele>250</ele>
        <time>2018-08-26T08:53:35Z</time>
      </trkpt>
      <trkpt lat="45.9651" lon="4.8428">
        <ele>250</ele>
        <time>2018-08-26T08:53:36Z</time>
      </trkpt>
      <trkpt lat="45.96511" lon="4.84287">
        <ele>250</ele>
        <time>2018-08-26T08:53:37Z</time>
      </trkpt>
      <trkpt lat="45.96512" lon="4.84296">
        <ele>250</ele>
        <time>2018-08-26T08:53:38Z</time>
      </trkpt>
      <trkpt lat="45.96515" lon="4.84305">
        <ele>250</ele>
        <time>2018-08-26T08:53:39Z</time>
      </trkpt>
      <trkpt lat="45.96517" lon="4.84311">
        <ele>250</ele>
        <time>2018-08-26T08:53:40Z</time>
      </trkpt>
      <trkpt lat="45.96518" lon="4.84319">
        <ele>250</ele>
        <time>2018-08-26T08:53:41Z</time>
      </trkpt>
      <trkpt lat="45.96519" lon="4.84324">
        <ele>250</ele>
        <time>2018-08-26T08:53:42Z</time>
      </trkpt>
      <trkpt lat="45.96524" lon="4.84332">
        <ele>250</ele>
        <time>2018-08-26T08:53:43Z</time>
      </trkpt>
      <trkpt lat="45.96526" lon="4.8434">
        <ele>251</ele>
        <time>2018-08-26T08:53:44Z</time>
      </trkpt>
      <trkpt lat="45.96527" lon="4.84348">
        <ele>251</ele>
        <time>2018-08-26T08:53:45Z</time>
      </trkpt>
      <trkpt lat="45.96529" lon="4.84356">
        <ele>251</ele>
        <time>2018-08-26T08:53:46Z</time>
      </trkpt>
      <trkpt lat="45.96532" lon="4.84364">
        <ele>251</ele>
        <time>2018-08-26T08:53:47Z</time>
      </trkpt>
      <trkpt lat="45.96533" lon="4.84372">
        <ele>251</ele>
        <time>2018-08-26T08:53:48Z</time>
      </trkpt>
      <trkpt lat="45.96533" lon="4.84379">
        <ele>251</ele>
        <time>2018-08-26T08:53:49Z</time>
      </trkpt>
      <trkpt lat="45.96537" lon="4.84389">
        <ele>252</ele>
        <time>2018-08-26T08:53:50Z</time>
      </trkpt>
      <trkpt lat="45.96536" lon="4.84397">
        <ele>252</ele>
        <time>2018-08-26T08:53:51Z</time>
      </trkpt>
      <trkpt lat="45.96535" lon="4.84404">
        <ele>252</ele>
        <time>2018-08-26T08:53:52Z</time>
      </trkpt>
      <trkpt lat="45.96534" lon="4.84412">
        <ele>252</ele>
        <time>2018-08-26T08:53:53Z</time>
      </trkpt>
      <trkpt lat="45.96533" lon="4.84419">
        <ele>253</ele>
        <time>2018-08-26T08:53:54Z</time>
      </trkpt>
      <trkpt lat="45.96533" lon="4.84427">
        <ele>253</ele>
        <time>2018-08-26T08:53:55Z</time>
      </trkpt>
      <trkpt lat="45.96532" lon="4.84434">
        <ele>253</ele>
        <time>2018-08-26T08:53:56Z</time>
      </trkpt>
      <trkpt lat="45.96532" lon="4.84442">
        <ele>253</ele>
        <time>2018-08-26T08:53:57Z</time>
      </trkpt>
      <trkpt lat="45.96532" lon="4.84449">
        <ele>253</ele>
        <time>2018-08-26T08:53:58Z</time>
      </trkpt>
      <trkpt lat="45.96531" lon="4.84457">
        <ele>253</ele>
        <time>2018-08-26T08:53:59Z</time>
      </trkpt>
      <trkpt lat="45.9653" lon="4.84466">
        <ele>253</ele>
        <time>2018-08-26T08:54:00Z</time>
      </trkpt>
      <trkpt lat="45.96531" lon="4.84478">
        <ele>253</ele>
        <time>2018-08-26T08:54:01Z</time>
      </trkpt>
      <trkpt lat="45.9653" lon="4.84485">
        <ele>253</ele>
        <time>2018-08-26T08:54:02Z</time>
      </trkpt>
      <trkpt lat="45.9653" lon="4.84492">
        <ele>253</ele>
        <time>2018-08-26T08:54:03Z</time>
      </trkpt>
      <trkpt lat="45.96529" lon="4.84505">
        <ele>253</ele>
        <time>2018-08-26T08:54:05Z</time>
      </trkpt>
      <trkpt lat="45.96527" lon="4.8451">
        <ele>253</ele>
        <time>2018-08-26T08:54:06Z</time>
      </trkpt>
      <trkpt lat="45.96527" lon="4.84517">
        <ele>253</ele>
        <time>2018-08-26T08:54:07Z</time>
      </trkpt>
      <trkpt lat="45.96527" lon="4.84525">
        <ele>253</ele>
        <time>2018-08-26T08:54:08Z</time>
      </trkpt>
      <trkpt lat="45.96525" lon="4.84531">
        <ele>253</ele>
        <time>2018-08-26T08:54:09Z</time>
      </trkpt>
      <trkpt lat="45.96525" lon="4.84539">
        <ele>253</ele>
        <time>2018-08-26T08:54:10Z</time>
      </trkpt>
      <trkpt lat="45.96524" lon="4.84546">
        <ele>253</ele>
        <time>2018-08-26T08:54:11Z</time>
      </trkpt>
      <trkpt lat="45.96524" lon="4.84552">
        <ele>253</ele>
        <time>2018-08-26T08:54:12Z</time>
      </trkpt>
      <trkpt lat="45.96524" lon="4.84559">
        <ele>253</ele>
        <time>2018-08-26T08:54:13Z</time>
      </trkpt>
      <trkpt lat="45.96524" lon="4.84566">
        <ele>253</ele>
        <time>2018-08-26T08:54:14Z</time>
      </trkpt>
      <trkpt lat="45.96523" lon="4.84579">
        <ele>253</ele>
        <time>2018-08-26T08:54:16Z</time>
      </trkpt>
      <trkpt lat="45.96523" lon="4.84586">
        <ele>252</ele>
        <time>2018-08-26T08:54:17Z</time>
      </trkpt>
      <trkpt lat="45.96522" lon="4.84593">
        <ele>252</ele>
        <time>2018-08-26T08:54:18Z</time>
      </trkpt>
      <trkpt lat="45.96521" lon="4.846">
        <ele>252</ele>
        <time>2018-08-26T08:54:19Z</time>
      </trkpt>
      <trkpt lat="45.96519" lon="4.84607">
        <ele>252</ele>
        <time>2018-08-26T08:54:20Z</time>
      </trkpt>
      <trkpt lat="45.96519" lon="4.84614">
        <ele>252</ele>
        <time>2018-08-26T08:54:21Z</time>
      </trkpt>
      <trkpt lat="45.96518" lon="4.84625">
        <ele>252</ele>
        <time>2018-08-26T08:54:23Z</time>
      </trkpt>
      <trkpt lat="45.96518" lon="4.84632">
        <ele>252</ele>
        <time>2018-08-26T08:54:24Z</time>
      </trkpt>
      <trkpt lat="45.96518" lon="4.84638">
        <ele>252</ele>
        <time>2018-08-26T08:54:25Z</time>
      </trkpt>
      <trkpt lat="45.96518" lon="4.84645">
        <ele>252</ele>
        <time>2018-08-26T08:54:26Z</time>
      </trkpt>
      <trkpt lat="45.96518" lon="4.84658">
        <ele>252</ele>
        <time>2018-08-26T08:54:28Z</time>
      </trkpt>
      <trkpt lat="45.96518" lon="4.84665">
        <ele>252</ele>
        <time>2018-08-26T08:54:29Z</time>
      </trkpt>
      <trkpt lat="45.96521" lon="4.84672">
        <ele>252</ele>
        <time>2018-08-26T08:54:30Z</time>
      </trkpt>
      <trkpt lat="45.96523" lon="4.84679">
        <ele>252</ele>
        <time>2018-08-26T08:54:31Z</time>
      </trkpt>
      <trkpt lat="45.96525" lon="4.84685">
        <ele>252</ele>
        <time>2018-08-26T08:54:32Z</time>
      </trkpt>
      <trkpt lat="45.96527" lon="4.84692">
        <ele>253</ele>
        <time>2018-08-26T08:54:33Z</time>
      </trkpt>
      <trkpt lat="45.9653" lon="4.84701">
        <ele>253</ele>
        <time>2018-08-26T08:54:34Z</time>
      </trkpt>
      <trkpt lat="45.9653" lon="4.84708">
        <ele>253</ele>
        <time>2018-08-26T08:54:35Z</time>
      </trkpt>
      <trkpt lat="45.96531" lon="4.84714">
        <ele>253</ele>
        <time>2018-08-26T08:54:36Z</time>
      </trkpt>
      <trkpt lat="45.96531" lon="4.84722">
        <ele>253</ele>
        <time>2018-08-26T08:54:37Z</time>
      </trkpt>
      <trkpt lat="45.96531" lon="4.84729">
        <ele>253</ele>
        <time>2018-08-26T08:54:38Z</time>
      </trkpt>
      <trkpt lat="45.96529" lon="4.84735">
        <ele>253</ele>
        <time>2018-08-26T08:54:39Z</time>
      </trkpt>
      <trkpt lat="45.96527" lon="4.84746">
        <ele>253</ele>
        <time>2018-08-26T08:54:41Z</time>
      </trkpt>
      <trkpt lat="45.96525" lon="4.84752">
        <ele>253</ele>
        <time>2018-08-26T08:54:42Z</time>
      </trkpt>
      <trkpt lat="45.96522" lon="4.84763">
        <ele>253</ele>
        <time>2018-08-26T08:54:44Z</time>
      </trkpt>
      <trkpt lat="45.96521" lon="4.84768">
        <ele>253</ele>
        <time>2018-08-26T08:54:45Z</time>
      </trkpt>
      <trkpt lat="45.96517" lon="4.84777">
        <ele>254</ele>
        <time>2018-08-26T08:54:47Z</time>
      </trkpt>
      <trkpt lat="45.96516" lon="4.84783">
        <ele>254</ele>
        <time>2018-08-26T08:54:48Z</time>
      </trkpt>
      <trkpt lat="45.96513" lon="4.84794">
        <ele>254</ele>
        <time>2018-08-26T08:54:50Z</time>
      </trkpt>
      <trkpt lat="45.96512" lon="4.848">
        <ele>254</ele>
        <time>2018-08-26T08:54:51Z</time>
      </trkpt>
      <trkpt lat="45.96509" lon="4.84811">
        <ele>254</ele>
        <time>2018-08-26T08:54:53Z</time>
      </trkpt>
      <trkpt lat="45.96509" lon="4.84814">
        <ele>254</ele>
        <time>2018-08-26T08:54:54Z</time>
      </trkpt>
      <trkpt lat="45.96506" lon="4.84826">
        <ele>253</ele>
        <time>2018-08-26T08:54:56Z</time>
      </trkpt>
      <trkpt lat="45.96505" lon="4.84831">
        <ele>253</ele>
        <time>2018-08-26T08:54:57Z</time>
      </trkpt>
      <trkpt lat="45.96502" lon="4.84842">
        <ele>255</ele>
        <time>2018-08-26T08:54:59Z</time>
      </trkpt>
      <trkpt lat="45.96502" lon="4.84845">
        <ele>255</ele>
        <time>2018-08-26T08:55:00Z</time>
      </trkpt>
      <trkpt lat="45.96502" lon="4.84855">
        <ele>256</ele>
        <time>2018-08-26T08:55:03Z</time>
      </trkpt>
      <trkpt lat="45.96502" lon="4.84859">
        <ele>256</ele>
        <time>2018-08-26T08:55:04Z</time>
      </trkpt>
      <trkpt lat="45.965" lon="4.84869">
        <ele>257</ele>
        <time>2018-08-26T08:55:07Z</time>
      </trkpt>
      <trkpt lat="45.965" lon="4.84873">
        <ele>255</ele>
        <time>2018-08-26T08:55:08Z</time>
      </trkpt>
      <trkpt lat="45.96497" lon="4.84886">
        <ele>255</ele>
        <time>2018-08-26T08:55:09Z</time>
      </trkpt>
      <trkpt lat="45.96496" lon="4.84891">
        <ele>256</ele>
        <time>2018-08-26T08:55:10Z</time>
      </trkpt>
      <trkpt lat="45.96493" lon="4.84903">
        <ele>256</ele>
        <time>2018-08-26T08:55:14Z</time>
      </trkpt>
      <trkpt lat="45.96492" lon="4.84907">
        <ele>256</ele>
        <time>2018-08-26T08:55:15Z</time>
      </trkpt>
      <trkpt lat="45.9649" lon="4.84915">
        <ele>256</ele>
        <time>2018-08-26T08:55:17Z</time>
      </trkpt>
      <trkpt lat="45.96489" lon="4.84919">
        <ele>258</ele>
        <time>2018-08-26T08:55:18Z</time>
      </trkpt>
      <trkpt lat="45.96486" lon="4.84931">
        <ele>259</ele>
        <time>2018-08-26T08:55:21Z</time>
      </trkpt>
      <trkpt lat="45.96485" lon="4.84936">
        <ele>260</ele>
        <time>2018-08-26T08:55:22Z</time>
      </trkpt>
      <trkpt lat="45.96482" lon="4.84945">
        <ele>260</ele>
        <time>2018-08-26T08:55:24Z</time>
      </trkpt>
      <trkpt lat="45.9648" lon="4.84949">
        <ele>260</ele>
        <time>2018-08-26T08:55:25Z</time>
      </trkpt>
      <trkpt lat="45.96477" lon="4.84959">
        <ele>261</ele>
        <time>2018-08-26T08:55:28Z</time>
      </trkpt>
      <trkpt lat="45.96475" lon="4.84964">
        <ele>261</ele>
        <time>2018-08-26T08:55:29Z</time>
      </trkpt>
      <trkpt lat="45.96473" lon="4.84973">
        <ele>262</ele>
        <time>2018-08-26T08:55:31Z</time>
      </trkpt>
      <trkpt lat="45.96472" lon="4.84977">
        <ele>262</ele>
        <time>2018-08-26T08:55:32Z</time>
      </trkpt>
      <trkpt lat="45.96471" lon="4.84987">
        <ele>262</ele>
        <time>2018-08-26T08:55:34Z</time>
      </trkpt>
      <trkpt lat="45.9647" lon="4.84991">
        <ele>262</ele>
        <time>2018-08-26T08:55:35Z</time>
      </trkpt>
      <trkpt lat="45.96469" lon="4.85">
        <ele>263</ele>
        <time>2018-08-26T08:55:37Z</time>
      </trkpt>
      <trkpt lat="45.96469" lon="4.85004">
        <ele>266</ele>
        <time>2018-08-26T08:55:38Z</time>
      </trkpt>
      <trkpt lat="45.96467" lon="4.85016">
        <ele>266</ele>
        <time>2018-08-26T08:55:41Z</time>
      </trkpt>
      <trkpt lat="45.96466" lon="4.85021">
        <ele>266</ele>
        <time>2018-08-26T08:55:42Z</time>
      </trkpt>
      <trkpt lat="45.96465" lon="4.8503">
        <ele>266</ele>
        <time>2018-08-26T08:55:44Z</time>
      </trkpt>
      <trkpt lat="45.96465" lon="4.85034">
        <ele>266</ele>
        <time>2018-08-26T08:55:45Z</time>
      </trkpt>
      <trkpt lat="45.96464" lon="4.85043">
        <ele>266</ele>
        <time>2018-08-26T08:55:47Z</time>
      </trkpt>
      <trkpt lat="45.96464" lon="4.85048">
        <ele>266</ele>
        <time>2018-08-26T08:55:48Z</time>
      </trkpt>
      <trkpt lat="45.96464" lon="4.85056">
        <ele>266</ele>
        <time>2018-08-26T08:55:50Z</time>
      </trkpt>
      <trkpt lat="45.96464" lon="4.85061">
        <ele>266</ele>
        <time>2018-08-26T08:55:51Z</time>
      </trkpt>
      <trkpt lat="45.96464" lon="4.85071">
        <ele>266</ele>
        <time>2018-08-26T08:55:53Z</time>
      </trkpt>
      <trkpt lat="45.96464" lon="4.85075">
        <ele>266</ele>
        <time>2018-08-26T08:55:54Z</time>
      </trkpt>
      <trkpt lat="45.96465" lon="4.85084">
        <ele>268</ele>
        <time>2018-08-26T08:55:56Z</time>
      </trkpt>
      <trkpt lat="45.96465" lon="4.85088">
        <ele>268</ele>
        <time>2018-08-26T08:55:57Z</time>
      </trkpt>
      <trkpt lat="45.96464" lon="4.85097">
        <ele>268</ele>
        <time>2018-08-26T08:55:59Z</time>
      </trkpt>
      <trkpt lat="45.96464" lon="4.85102">
        <ele>268</ele>
        <time>2018-08-26T08:56:00Z</time>
      </trkpt>
      <trkpt lat="45.96463" lon="4.8511">
        <ele>268</ele>
        <time>2018-08-26T08:56:02Z</time>
      </trkpt>
      <trkpt lat="45.96462" lon="4.85115">
        <ele>268</ele>
        <time>2018-08-26T08:56:03Z</time>
      </trkpt>
      <trkpt lat="45.96461" lon="4.85123">
        <ele>268</ele>
        <time>2018-08-26T08:56:05Z</time>
      </trkpt>
      <trkpt lat="45.96461" lon="4.85128">
        <ele>268</ele>
        <time>2018-08-26T08:56:06Z</time>
      </trkpt>
      <trkpt lat="45.9646" lon="4.85137">
        <ele>268</ele>
        <time>2018-08-26T08:56:08Z</time>
      </trkpt>
      <trkpt lat="45.96459" lon="4.85141">
        <ele>268</ele>
        <time>2018-08-26T08:56:09Z</time>
      </trkpt>
      <trkpt lat="45.96458" lon="4.85149">
        <ele>268</ele>
        <time>2018-08-26T08:56:11Z</time>
      </trkpt>
      <trkpt lat="45.96457" lon="4.85154">
        <ele>268</ele>
        <time>2018-08-26T08:56:12Z</time>
      </trkpt>
      <trkpt lat="45.96456" lon="4.85162">
        <ele>268</ele>
        <time>2018-08-26T08:56:14Z</time>
      </trkpt>
      <trkpt lat="45.96455" lon="4.85167">
        <ele>269</ele>
        <time>2018-08-26T08:56:15Z</time>
      </trkpt>
      <trkpt lat="45.96454" lon="4.85176">
        <ele>269</ele>
        <time>2018-08-26T08:56:17Z</time>
      </trkpt>
      <trkpt lat="45.96453" lon="4.85181">
        <ele>269</ele>
        <time>2018-08-26T08:56:18Z</time>
      </trkpt>
      <trkpt lat="45.96452" lon="4.85195">
        <ele>269</ele>
        <time>2018-08-26T08:56:19Z</time>
      </trkpt>
      <trkpt lat="45.9645" lon="4.85206">
        <ele>269</ele>
        <time>2018-08-26T08:56:21Z</time>
      </trkpt>
      <trkpt lat="45.9645" lon="4.85211">
        <ele>269</ele>
        <time>2018-08-26T08:56:22Z</time>
      </trkpt>
      <trkpt lat="45.96449" lon="4.85222">
        <ele>269</ele>
        <time>2018-08-26T08:56:24Z</time>
      </trkpt>
      <trkpt lat="45.96449" lon="4.85227">
        <ele>269</ele>
        <time>2018-08-26T08:56:25Z</time>
      </trkpt>
      <trkpt lat="45.96448" lon="4.85239">
        <ele>269</ele>
        <time>2018-08-26T08:56:28Z</time>
      </trkpt>
      <trkpt lat="45.96448" lon="4.85242">
        <ele>269</ele>
        <time>2018-08-26T08:56:29Z</time>
      </trkpt>
      <trkpt lat="45.96448" lon="4.85251">
        <ele>270</ele>
        <time>2018-08-26T08:56:30Z</time>
      </trkpt>
      <trkpt lat="45.96448" lon="4.85256">
        <ele>270</ele>
        <time>2018-08-26T08:56:31Z</time>
      </trkpt>
      <trkpt lat="45.96447" lon="4.85267">
        <ele>270</ele>
        <time>2018-08-26T08:56:33Z</time>
      </trkpt>
      <trkpt lat="45.96448" lon="4.85273">
        <ele>270</ele>
        <time>2018-08-26T08:56:34Z</time>
      </trkpt>
      <trkpt lat="45.96449" lon="4.85284">
        <ele>270</ele>
        <time>2018-08-26T08:56:37Z</time>
      </trkpt>
      <trkpt lat="45.96451" lon="4.85294">
        <ele>270</ele>
        <time>2018-08-26T08:56:38Z</time>
      </trkpt>
      <trkpt lat="45.96452" lon="4.85305">
        <ele>271</ele>
        <time>2018-08-26T08:56:40Z</time>
      </trkpt>
      <trkpt lat="45.96452" lon="4.85311">
        <ele>271</ele>
        <time>2018-08-26T08:56:41Z</time>
      </trkpt>
      <trkpt lat="45.96453" lon="4.85322">
        <ele>271</ele>
        <time>2018-08-26T08:56:43Z</time>
      </trkpt>
      <trkpt lat="45.96454" lon="4.85327">
        <ele>271</ele>
        <time>2018-08-26T08:56:44Z</time>
      </trkpt>
      <trkpt lat="45.96456" lon="4.85339">
        <ele>272</ele>
        <time>2018-08-26T08:56:47Z</time>
      </trkpt>
      <trkpt lat="45.96457" lon="4.85348">
        <ele>272</ele>
        <time>2018-08-26T08:56:48Z</time>
      </trkpt>
      <trkpt lat="45.96458" lon="4.8536">
        <ele>272</ele>
        <time>2018-08-26T08:56:50Z</time>
      </trkpt>
      <trkpt lat="45.96459" lon="4.85365">
        <ele>272</ele>
        <time>2018-08-26T08:56:51Z</time>
      </trkpt>
      <trkpt lat="45.9646" lon="4.85378">
        <ele>272</ele>
        <time>2018-08-26T08:56:53Z</time>
      </trkpt>
      <trkpt lat="45.9646" lon="4.85384">
        <ele>272</ele>
        <time>2018-08-26T08:56:54Z</time>
      </trkpt>
      <trkpt lat="45.9646" lon="4.8539">
        <ele>272</ele>
        <time>2018-08-26T08:56:55Z</time>
      </trkpt>
      <trkpt lat="45.9646" lon="4.85398">
        <ele>272</ele>
        <time>2018-08-26T08:56:56Z</time>
      </trkpt>
      <trkpt lat="45.9646" lon="4.85404">
        <ele>272</ele>
        <time>2018-08-26T08:56:57Z</time>
      </trkpt>
      <trkpt lat="45.96462" lon="4.85411">
        <ele>272</ele>
        <time>2018-08-26T08:56:58Z</time>
      </trkpt>
      <trkpt lat="45.96462" lon="4.85422">
        <ele>272</ele>
        <time>2018-08-26T08:57:00Z</time>
      </trkpt>
      <trkpt lat="45.96463" lon="4.85428">
        <ele>272</ele>
        <time>2018-08-26T08:57:01Z</time>
      </trkpt>
      <trkpt lat="45.96463" lon="4.85433">
        <ele>272</ele>
        <time>2018-08-26T08:57:03Z</time>
      </trkpt>
      <trkpt lat="45.96464" lon="4.85444">
        <ele>272</ele>
        <time>2018-08-26T08:57:04Z</time>
      </trkpt>
      <trkpt lat="45.96465" lon="4.85455">
        <ele>272</ele>
        <time>2018-08-26T08:57:06Z</time>
      </trkpt>
      <trkpt lat="45.96465" lon="4.85462">
        <ele>272</ele>
        <time>2018-08-26T08:57:07Z</time>
      </trkpt>
      <trkpt lat="45.96465" lon="4.85469">
        <ele>272</ele>
        <time>2018-08-26T08:57:08Z</time>
      </trkpt>
      <trkpt lat="45.96465" lon="4.85475">
        <ele>272</ele>
        <time>2018-08-26T08:57:09Z</time>
      </trkpt>
      <trkpt lat="45.96464" lon="4.85484">
        <ele>272</ele>
        <time>2018-08-26T08:57:10Z</time>
      </trkpt>
      <trkpt lat="45.96464" lon="4.85491">
        <ele>272</ele>
        <time>2018-08-26T08:57:11Z</time>
      </trkpt>
      <trkpt lat="45.96465" lon="4.85498">
        <ele>272</ele>
        <time>2018-08-26T08:57:12Z</time>
      </trkpt>
      <trkpt lat="45.96465" lon="4.85504">
        <ele>272</ele>
        <time>2018-08-26T08:57:13Z</time>
      </trkpt>
      <trkpt lat="45.96468" lon="4.85511">
        <ele>272</ele>
        <time>2018-08-26T08:57:14Z</time>
      </trkpt>
      <trkpt lat="45.96468" lon="4.85517">
        <ele>272</ele>
        <time>2018-08-26T08:57:15Z</time>
      </trkpt>
      <trkpt lat="45.9647" lon="4.85528">
        <ele>272</ele>
        <time>2018-08-26T08:57:17Z</time>
      </trkpt>
      <trkpt lat="45.96471" lon="4.85534">
        <ele>272</ele>
        <time>2018-08-26T08:57:18Z</time>
      </trkpt>
      <trkpt lat="45.96469" lon="4.85546">
        <ele>272</ele>
        <time>2018-08-26T08:57:20Z</time>
      </trkpt>
      <trkpt lat="45.96469" lon="4.85551">
        <ele>272</ele>
        <time>2018-08-26T08:57:21Z</time>
      </trkpt>
      <trkpt lat="45.96469" lon="4.85562">
        <ele>272</ele>
        <time>2018-08-26T08:57:23Z</time>
      </trkpt>
      <trkpt lat="45.96469" lon="4.85567">
        <ele>272</ele>
        <time>2018-08-26T08:57:24Z</time>
      </trkpt>
      <trkpt lat="45.9647" lon="4.85578">
        <ele>272</ele>
        <time>2018-08-26T08:57:26Z</time>
      </trkpt>
      <trkpt lat="45.96471" lon="4.85584">
        <ele>271</ele>
        <time>2018-08-26T08:57:27Z</time>
      </trkpt>
      <trkpt lat="45.96471" lon="4.85595">
        <ele>271</ele>
        <time>2018-08-26T08:57:30Z</time>
      </trkpt>
      <trkpt lat="45.96471" lon="4.85599">
        <ele>271</ele>
        <time>2018-08-26T08:57:31Z</time>
      </trkpt>
      <trkpt lat="45.96472" lon="4.85603">
        <ele>271</ele>
        <time>2018-08-26T08:57:32Z</time>
      </trkpt>
      <trkpt lat="45.96473" lon="4.85614">
        <ele>271</ele>
        <time>2018-08-26T08:57:33Z</time>
      </trkpt>
      <trkpt lat="45.96476" lon="4.85624">
        <ele>271</ele>
        <time>2018-08-26T08:57:35Z</time>
      </trkpt>
      <trkpt lat="45.96477" lon="4.8563">
        <ele>271</ele>
        <time>2018-08-26T08:57:36Z</time>
      </trkpt>
      <trkpt lat="45.96478" lon="4.85642">
        <ele>271</ele>
        <time>2018-08-26T08:57:38Z</time>
      </trkpt>
      <trkpt lat="45.96478" lon="4.85648">
        <ele>271</ele>
        <time>2018-08-26T08:57:39Z</time>
      </trkpt>
      <trkpt lat="45.96479" lon="4.8566">
        <ele>271</ele>
        <time>2018-08-26T08:57:41Z</time>
      </trkpt>
      <trkpt lat="45.9648" lon="4.85666">
        <ele>271</ele>
        <time>2018-08-26T08:57:42Z</time>
      </trkpt>
      <trkpt lat="45.96481" lon="4.85677">
        <ele>272</ele>
        <time>2018-08-26T08:57:44Z</time>
      </trkpt>
      <trkpt lat="45.96482" lon="4.85682">
        <ele>272</ele>
        <time>2018-08-26T08:57:45Z</time>
      </trkpt>
      <trkpt lat="45.96483" lon="4.85694">
        <ele>272</ele>
        <time>2018-08-26T08:57:47Z</time>
      </trkpt>
      <trkpt lat="45.96484" lon="4.857">
        <ele>272</ele>
        <time>2018-08-26T08:57:48Z</time>
      </trkpt>
      <trkpt lat="45.96485" lon="4.85706">
        <ele>272</ele>
        <time>2018-08-26T08:57:49Z</time>
      </trkpt>
      <trkpt lat="45.96485" lon="4.85713">
        <ele>272</ele>
        <time>2018-08-26T08:57:50Z</time>
      </trkpt>
      <trkpt lat="45.96486" lon="4.8572">
        <ele>272</ele>
        <time>2018-08-26T08:57:51Z</time>
      </trkpt>
      <trkpt lat="45.96487" lon="4.85726">
        <ele>273</ele>
        <time>2018-08-26T08:57:52Z</time>
      </trkpt>
      <trkpt lat="45.96488" lon="4.85737">
        <ele>273</ele>
        <time>2018-08-26T08:57:54Z</time>
      </trkpt>
      <trkpt lat="45.96489" lon="4.85742">
        <ele>273</ele>
        <time>2018-08-26T08:57:55Z</time>
      </trkpt>
      <trkpt lat="45.9649" lon="4.85751">
        <ele>274</ele>
        <time>2018-08-26T08:57:57Z</time>
      </trkpt>
      <trkpt lat="45.96491" lon="4.85756">
        <ele>274</ele>
        <time>2018-08-26T08:57:58Z</time>
      </trkpt>
      <trkpt lat="45.96491" lon="4.85763">
        <ele>274</ele>
        <time>2018-08-26T08:57:59Z</time>
      </trkpt>
      <trkpt lat="45.96493" lon="4.8577">
        <ele>274</ele>
        <time>2018-08-26T08:58:00Z</time>
      </trkpt>
      <trkpt lat="45.96494" lon="4.85777">
        <ele>274</ele>
        <time>2018-08-26T08:58:01Z</time>
      </trkpt>
      <trkpt lat="45.96494" lon="4.85784">
        <ele>274</ele>
        <time>2018-08-26T08:58:02Z</time>
      </trkpt>
      <trkpt lat="45.96495" lon="4.8579">
        <ele>274</ele>
        <time>2018-08-26T08:58:03Z</time>
      </trkpt>
      <trkpt lat="45.96496" lon="4.85799">
        <ele>274</ele>
        <time>2018-08-26T08:58:04Z</time>
      </trkpt>
      <trkpt lat="45.96498" lon="4.85811">
        <ele>274</ele>
        <time>2018-08-26T08:58:06Z</time>
      </trkpt>
      <trkpt lat="45.96498" lon="4.85818">
        <ele>274</ele>
        <time>2018-08-26T08:58:07Z</time>
      </trkpt>
      <trkpt lat="45.965" lon="4.85829">
        <ele>275</ele>
        <time>2018-08-26T08:58:09Z</time>
      </trkpt>
      <trkpt lat="45.965" lon="4.85834">
        <ele>275</ele>
        <time>2018-08-26T08:58:10Z</time>
      </trkpt>
      <trkpt lat="45.96501" lon="4.85846">
        <ele>275</ele>
        <time>2018-08-26T08:58:12Z</time>
      </trkpt>
      <trkpt lat="45.96502" lon="4.8585">
        <ele>275</ele>
        <time>2018-08-26T08:58:13Z</time>
      </trkpt>
      <trkpt lat="45.96504" lon="4.85862">
        <ele>275</ele>
        <time>2018-08-26T08:58:15Z</time>
      </trkpt>
      <trkpt lat="45.9651" lon="4.85869">
        <ele>275</ele>
        <time>2018-08-26T08:58:16Z</time>
      </trkpt>
      <trkpt lat="45.96511" lon="4.8588">
        <ele>275</ele>
        <time>2018-08-26T08:58:18Z</time>
      </trkpt>
      <trkpt lat="45.96511" lon="4.85886">
        <ele>275</ele>
        <time>2018-08-26T08:58:19Z</time>
      </trkpt>
      <trkpt lat="45.96511" lon="4.85898">
        <ele>275</ele>
        <time>2018-08-26T08:58:21Z</time>
      </trkpt>
      <trkpt lat="45.96511" lon="4.85903">
        <ele>275</ele>
        <time>2018-08-26T08:58:22Z</time>
      </trkpt>
      <trkpt lat="45.96513" lon="4.85915">
        <ele>275</ele>
        <time>2018-08-26T08:58:24Z</time>
      </trkpt>
      <trkpt lat="45.96514" lon="4.8592">
        <ele>275</ele>
        <time>2018-08-26T08:58:25Z</time>
      </trkpt>
      <trkpt lat="45.96518" lon="4.85932">
        <ele>275</ele>
        <time>2018-08-26T08:58:27Z</time>
      </trkpt>
      <trkpt lat="45.96521" lon="4.85937">
        <ele>275</ele>
        <time>2018-08-26T08:58:28Z</time>
      </trkpt>
      <trkpt lat="45.96523" lon="4.85943">
        <ele>275</ele>
        <time>2018-08-26T08:58:29Z</time>
      </trkpt>
      <trkpt lat="45.96526" lon="4.85948">
        <ele>275</ele>
        <time>2018-08-26T08:58:30Z</time>
      </trkpt>
      <trkpt lat="45.96531" lon="4.85958">
        <ele>275</ele>
        <time>2018-08-26T08:58:32Z</time>
      </trkpt>
      <trkpt lat="45.96534" lon="4.85963">
        <ele>275</ele>
        <time>2018-08-26T08:58:33Z</time>
      </trkpt>
      <trkpt lat="45.96539" lon="4.85973">
        <ele>275</ele>
        <time>2018-08-26T08:58:35Z</time>
      </trkpt>
      <trkpt lat="45.96541" lon="4.85978">
        <ele>275</ele>
        <time>2018-08-26T08:58:36Z</time>
      </trkpt>
      <trkpt lat="45.96546" lon="4.85988">
        <ele>275</ele>
        <time>2018-08-26T08:58:38Z</time>
      </trkpt>
      <trkpt lat="45.96549" lon="4.85992">
        <ele>276</ele>
        <time>2018-08-26T08:58:39Z</time>
      </trkpt>
      <trkpt lat="45.96554" lon="4.86001">
        <ele>276</ele>
        <time>2018-08-26T08:58:41Z</time>
      </trkpt>
      <trkpt lat="45.96556" lon="4.86006">
        <ele>276</ele>
        <time>2018-08-26T08:58:42Z</time>
      </trkpt>
      <trkpt lat="45.9656" lon="4.86015">
        <ele>276</ele>
        <time>2018-08-26T08:58:44Z</time>
      </trkpt>
      <trkpt lat="45.96562" lon="4.86019">
        <ele>276</ele>
        <time>2018-08-26T08:58:45Z</time>
      </trkpt>
      <trkpt lat="45.96567" lon="4.86027">
        <ele>276</ele>
        <time>2018-08-26T08:58:47Z</time>
      </trkpt>
      <trkpt lat="45.96568" lon="4.8603">
        <ele>276</ele>
        <time>2018-08-26T08:58:48Z</time>
      </trkpt>
      <trkpt lat="45.96573" lon="4.86039">
        <ele>276</ele>
        <time>2018-08-26T08:58:50Z</time>
      </trkpt>
      <trkpt lat="45.96575" lon="4.86043">
        <ele>276</ele>
        <time>2018-08-26T08:58:51Z</time>
      </trkpt>
      <trkpt lat="45.9658" lon="4.8605">
        <ele>276</ele>
        <time>2018-08-26T08:58:54Z</time>
      </trkpt>
      <trkpt lat="45.96584" lon="4.86059">
        <ele>280</ele>
        <time>2018-08-26T08:58:55Z</time>
      </trkpt>
      <trkpt lat="45.96588" lon="4.86068">
        <ele>279</ele>
        <time>2018-08-26T08:58:57Z</time>
      </trkpt>
      <trkpt lat="45.9659" lon="4.86073">
        <ele>279</ele>
        <time>2018-08-26T08:58:58Z</time>
      </trkpt>
      <trkpt lat="45.96592" lon="4.86083">
        <ele>279</ele>
        <time>2018-08-26T08:59:00Z</time>
      </trkpt>
      <trkpt lat="45.96594" lon="4.86088">
        <ele>279</ele>
        <time>2018-08-26T08:59:01Z</time>
      </trkpt>
      <trkpt lat="45.96595" lon="4.861">
        <ele>280</ele>
        <time>2018-08-26T08:59:04Z</time>
      </trkpt>
      <trkpt lat="45.96595" lon="4.86104">
        <ele>280</ele>
        <time>2018-08-26T08:59:05Z</time>
      </trkpt>
      <trkpt lat="45.96596" lon="4.86116">
        <ele>281</ele>
        <time>2018-08-26T08:59:08Z</time>
      </trkpt>
      <trkpt lat="45.96596" lon="4.86121">
        <ele>281</ele>
        <time>2018-08-26T08:59:09Z</time>
      </trkpt>
      <trkpt lat="45.96596" lon="4.86126">
        <ele>281</ele>
        <time>2018-08-26T08:59:10Z</time>
      </trkpt>
      <trkpt lat="45.96596" lon="4.8614">
        <ele>281</ele>
        <time>2018-08-26T08:59:11Z</time>
      </trkpt>
      <trkpt lat="45.96593" lon="4.86151">
        <ele>281</ele>
        <time>2018-08-26T08:59:13Z</time>
      </trkpt>
      <trkpt lat="45.96592" lon="4.86156">
        <ele>281</ele>
        <time>2018-08-26T08:59:14Z</time>
      </trkpt>
      <trkpt lat="45.9659" lon="4.86168">
        <ele>281</ele>
        <time>2018-08-26T08:59:16Z</time>
      </trkpt>
      <trkpt lat="45.9659" lon="4.86174">
        <ele>281</ele>
        <time>2018-08-26T08:59:17Z</time>
      </trkpt>
      <trkpt lat="45.96591" lon="4.86184">
        <ele>281</ele>
        <time>2018-08-26T08:59:19Z</time>
      </trkpt>
      <trkpt lat="45.9659" lon="4.86189">
        <ele>282</ele>
        <time>2018-08-26T08:59:20Z</time>
      </trkpt>
      <trkpt lat="45.96589" lon="4.86199">
        <ele>282</ele>
        <time>2018-08-26T08:59:23Z</time>
      </trkpt>
      <trkpt lat="45.96589" lon="4.86202">
        <ele>282</ele>
        <time>2018-08-26T08:59:24Z</time>
      </trkpt>
      <trkpt lat="45.96588" lon="4.86214">
        <ele>282</ele>
        <time>2018-08-26T08:59:27Z</time>
      </trkpt>
      <trkpt lat="45.96588" lon="4.86219">
        <ele>282</ele>
        <time>2018-08-26T08:59:28Z</time>
      </trkpt>
      <trkpt lat="45.96587" lon="4.86227">
        <ele>282</ele>
        <time>2018-08-26T08:59:30Z</time>
      </trkpt>
      <trkpt lat="45.96586" lon="4.86231">
        <ele>282</ele>
        <time>2018-08-26T08:59:31Z</time>
      </trkpt>
      <trkpt lat="45.96586" lon="4.8624">
        <ele>282</ele>
        <time>2018-08-26T08:59:33Z</time>
      </trkpt>
      <trkpt lat="45.96585" lon="4.86244">
        <ele>281</ele>
        <time>2018-08-26T08:59:34Z</time>
      </trkpt>
      <trkpt lat="45.96585" lon="4.86254">
        <ele>282</ele>
        <time>2018-08-26T08:59:36Z</time>
      </trkpt>
      <trkpt lat="45.96585" lon="4.86259">
        <ele>282</ele>
        <time>2018-08-26T08:59:37Z</time>
      </trkpt>
      <trkpt lat="45.96586" lon="4.86273">
        <ele>283</ele>
        <time>2018-08-26T08:59:38Z</time>
      </trkpt>
      <trkpt lat="45.96586" lon="4.86285">
        <ele>284</ele>
        <time>2018-08-26T08:59:40Z</time>
      </trkpt>
      <trkpt lat="45.96585" lon="4.8629">
        <ele>284</ele>
        <time>2018-08-26T08:59:41Z</time>
      </trkpt>
      <trkpt lat="45.96582" lon="4.86301">
        <ele>283</ele>
        <time>2018-08-26T08:59:43Z</time>
      </trkpt>
      <trkpt lat="45.96581" lon="4.86306">
        <ele>283</ele>
        <time>2018-08-26T08:59:44Z</time>
      </trkpt>
      <trkpt lat="45.96581" lon="4.86316">
        <ele>283</ele>
        <time>2018-08-26T08:59:47Z</time>
      </trkpt>
      <trkpt lat="45.96581" lon="4.8632">
        <ele>284</ele>
        <time>2018-08-26T08:59:48Z</time>
      </trkpt>
      <trkpt lat="45.96581" lon="4.86333">
        <ele>285</ele>
        <time>2018-08-26T08:59:51Z</time>
      </trkpt>
      <trkpt lat="45.9658" lon="4.86337">
        <ele>285</ele>
        <time>2018-08-26T08:59:52Z</time>
      </trkpt>
      <trkpt lat="45.9658" lon="4.86352">
        <ele>285</ele>
        <time>2018-08-26T08:59:53Z</time>
      </trkpt>
      <trkpt lat="45.96579" lon="4.86362">
        <ele>286</ele>
        <time>2018-08-26T08:59:55Z</time>
      </trkpt>
      <trkpt lat="45.96579" lon="4.86365">
        <ele>286</ele>
        <time>2018-08-26T08:59:56Z</time>
      </trkpt>
      <trkpt lat="45.96578" lon="4.86375">
        <ele>286</ele>
        <time>2018-08-26T08:59:59Z</time>
      </trkpt>
      <trkpt lat="45.96578" lon="4.86379">
        <ele>286</ele>
        <time>2018-08-26T09:00:00Z</time>
      </trkpt>
      <trkpt lat="45.96578" lon="4.86388">
        <ele>287</ele>
        <time>2018-08-26T09:00:02Z</time>
      </trkpt>
      <trkpt lat="45.96578" lon="4.86393">
        <ele>287</ele>
        <time>2018-08-26T09:00:03Z</time>
      </trkpt>
      <trkpt lat="45.96578" lon="4.86402">
        <ele>288</ele>
        <time>2018-08-26T09:00:05Z</time>
      </trkpt>
      <trkpt lat="45.96578" lon="4.86407">
        <ele>288</ele>
        <time>2018-08-26T09:00:06Z</time>
      </trkpt>
      <trkpt lat="45.96577" lon="4.86416">
        <ele>289</ele>
        <time>2018-08-26T09:00:08Z</time>
      </trkpt>
      <trkpt lat="45.96577" lon="4.8642">
        <ele>289</ele>
        <time>2018-08-26T09:00:09Z</time>
      </trkpt>
      <trkpt lat="45.96576" lon="4.86429">
        <ele>289</ele>
        <time>2018-08-26T09:00:11Z</time>
      </trkpt>
      <trkpt lat="45.96577" lon="4.86433">
        <ele>289</ele>
        <time>2018-08-26T09:00:12Z</time>
      </trkpt>
      <trkpt lat="45.96577" lon="4.86442">
        <ele>289</ele>
        <time>2018-08-26T09:00:14Z</time>
      </trkpt>
      <trkpt lat="45.96577" lon="4.86446">
        <ele>289</ele>
        <time>2018-08-26T09:00:15Z</time>
      </trkpt>
      <trkpt lat="45.96577" lon="4.86455">
        <ele>289</ele>
        <time>2018-08-26T09:00:17Z</time>
      </trkpt>
      <trkpt lat="45.96577" lon="4.86459">
        <ele>289</ele>
        <time>2018-08-26T09:00:18Z</time>
      </trkpt>
      <trkpt lat="45.96578" lon="4.86468">
        <ele>289</ele>
        <time>2018-08-26T09:00:20Z</time>
      </trkpt>
      <trkpt lat="45.96579" lon="4.86472">
        <ele>289</ele>
        <time>2018-08-26T09:00:21Z</time>
      </trkpt>
      <trkpt lat="45.9658" lon="4.86481">
        <ele>290</ele>
        <time>2018-08-26T09:00:23Z</time>
      </trkpt>
      <trkpt lat="45.96582" lon="4.86485">
        <ele>290</ele>
        <time>2018-08-26T09:00:24Z</time>
      </trkpt>
      <trkpt lat="45.96585" lon="4.86492">
        <ele>292</ele>
        <time>2018-08-26T09:00:26Z</time>
      </trkpt>
      <trkpt lat="45.96587" lon="4.86496">
        <ele>292</ele>
        <time>2018-08-26T09:00:27Z</time>
      </trkpt>
      <trkpt lat="45.96591" lon="4.86502">
        <ele>292</ele>
        <time>2018-08-26T09:00:29Z</time>
      </trkpt>
      <trkpt lat="45.96593" lon="4.86506">
        <ele>292</ele>
        <time>2018-08-26T09:00:30Z</time>
      </trkpt>
      <trkpt lat="45.966" lon="4.86514">
        <ele>291</ele>
        <time>2018-08-26T09:00:31Z</time>
      </trkpt>
      <trkpt lat="45.96607" lon="4.8652">
        <ele>291</ele>
        <time>2018-08-26T09:00:33Z</time>
      </trkpt>
      <trkpt lat="45.9661" lon="4.86522">
        <ele>291</ele>
        <time>2018-08-26T09:00:34Z</time>
      </trkpt>
      <trkpt lat="45.96616" lon="4.86528">
        <ele>291</ele>
        <time>2018-08-26T09:00:36Z</time>
      </trkpt>
      <trkpt lat="45.96619" lon="4.86531">
        <ele>291</ele>
        <time>2018-08-26T09:00:37Z</time>
      </trkpt>
      <trkpt lat="45.96626" lon="4.86538">
        <ele>291</ele>
        <time>2018-08-26T09:00:39Z</time>
      </trkpt>
      <trkpt lat="45.96629" lon="4.86541">
        <ele>291</ele>
        <time>2018-08-26T09:00:40Z</time>
      </trkpt>
      <trkpt lat="45.96636" lon="4.86546">
        <ele>291</ele>
        <time>2018-08-26T09:00:42Z</time>
      </trkpt>
      <trkpt lat="45.96638" lon="4.86548">
        <ele>291</ele>
        <time>2018-08-26T09:00:43Z</time>
      </trkpt>
      <trkpt lat="45.96644" lon="4.86554">
        <ele>291</ele>
        <time>2018-08-26T09:00:46Z</time>
      </trkpt>
      <trkpt lat="45.9665" lon="4.86561">
        <ele>290</ele>
        <time>2018-08-26T09:00:47Z</time>
      </trkpt>
      <trkpt lat="45.96656" lon="4.86568">
        <ele>290</ele>
        <time>2018-08-26T09:00:49Z</time>
      </trkpt>
      <trkpt lat="45.9666" lon="4.86571">
        <ele>290</ele>
        <time>2018-08-26T09:00:50Z</time>
      </trkpt>
      <trkpt lat="45.96663" lon="4.86575">
        <ele>290</ele>
        <time>2018-08-26T09:00:51Z</time>
      </trkpt>
      <trkpt lat="45.96667" lon="4.86579">
        <ele>290</ele>
        <time>2018-08-26T09:00:52Z</time>
      </trkpt>
      <trkpt lat="45.9667" lon="4.86582">
        <ele>290</ele>
        <time>2018-08-26T09:00:53Z</time>
      </trkpt>
      <trkpt lat="45.96675" lon="4.86587">
        <ele>290</ele>
        <time>2018-08-26T09:00:54Z</time>
      </trkpt>
      <trkpt lat="45.96682" lon="4.86593">
        <ele>290</ele>
        <time>2018-08-26T09:00:56Z</time>
      </trkpt>
      <trkpt lat="45.96686" lon="4.86597">
        <ele>290</ele>
        <time>2018-08-26T09:00:57Z</time>
      </trkpt>
      <trkpt lat="45.96691" lon="4.86601">
        <ele>290</ele>
        <time>2018-08-26T09:00:58Z</time>
      </trkpt>
      <trkpt lat="45.96694" lon="4.86605">
        <ele>290</ele>
        <time>2018-08-26T09:00:59Z</time>
      </trkpt>
      <trkpt lat="45.96699" lon="4.86608">
        <ele>290</ele>
        <time>2018-08-26T09:01:00Z</time>
      </trkpt>
      <trkpt lat="45.96703" lon="4.86612">
        <ele>290</ele>
        <time>2018-08-26T09:01:01Z</time>
      </trkpt>
      <trkpt lat="45.9671" lon="4.86606">
        <ele>290</ele>
        <time>2018-08-26T09:01:02Z</time>
      </trkpt>
      <trkpt lat="45.96714" lon="4.86609">
        <ele>290</ele>
        <time>2018-08-26T09:01:03Z</time>
      </trkpt>
      <trkpt lat="45.96719" lon="4.86609">
        <ele>290</ele>
        <time>2018-08-26T09:01:04Z</time>
      </trkpt>
      <trkpt lat="45.96723" lon="4.86612">
        <ele>290</ele>
        <time>2018-08-26T09:01:05Z</time>
      </trkpt>
      <trkpt lat="45.96727" lon="4.86616">
        <ele>290</ele>
        <time>2018-08-26T09:01:06Z</time>
      </trkpt>
      <trkpt lat="45.96731" lon="4.86618">
        <ele>290</ele>
        <time>2018-08-26T09:01:07Z</time>
      </trkpt>
      <trkpt lat="45.96738" lon="4.86623">
        <ele>290</ele>
        <time>2018-08-26T09:01:09Z</time>
      </trkpt>
      <trkpt lat="45.96742" lon="4.86633">
        <ele>290</ele>
        <time>2018-08-26T09:01:10Z</time>
      </trkpt>
      <trkpt lat="45.96745" lon="4.86644">
        <ele>290</ele>
        <time>2018-08-26T09:01:12Z</time>
      </trkpt>
      <trkpt lat="45.96744" lon="4.86652">
        <ele>290</ele>
        <time>2018-08-26T09:01:13Z</time>
      </trkpt>
      <trkpt lat="45.96741" lon="4.86658">
        <ele>290</ele>
        <time>2018-08-26T09:01:14Z</time>
      </trkpt>
      <trkpt lat="45.96738" lon="4.86663">
        <ele>290</ele>
        <time>2018-08-26T09:01:15Z</time>
      </trkpt>
      <trkpt lat="45.96735" lon="4.8667">
        <ele>290</ele>
        <time>2018-08-26T09:01:16Z</time>
      </trkpt>
      <trkpt lat="45.96731" lon="4.86675">
        <ele>290</ele>
        <time>2018-08-26T09:01:17Z</time>
      </trkpt>
      <trkpt lat="45.96727" lon="4.86683">
        <ele>289</ele>
        <time>2018-08-26T09:01:18Z</time>
      </trkpt>
      <trkpt lat="45.96723" lon="4.86689">
        <ele>289</ele>
        <time>2018-08-26T09:01:19Z</time>
      </trkpt>
      <trkpt lat="45.96719" lon="4.86695">
        <ele>289</ele>
        <time>2018-08-26T09:01:20Z</time>
      </trkpt>
      <trkpt lat="45.96715" lon="4.867">
        <ele>289</ele>
        <time>2018-08-26T09:01:21Z</time>
      </trkpt>
      <trkpt lat="45.96712" lon="4.86706">
        <ele>289</ele>
        <time>2018-08-26T09:01:22Z</time>
      </trkpt>
      <trkpt lat="45.96707" lon="4.86709">
        <ele>289</ele>
        <time>2018-08-26T09:01:23Z</time>
      </trkpt>
      <trkpt lat="45.96704" lon="4.86716">
        <ele>289</ele>
        <time>2018-08-26T09:01:24Z</time>
      </trkpt>
      <trkpt lat="45.96701" lon="4.86726">
        <ele>289</ele>
        <time>2018-08-26T09:01:25Z</time>
      </trkpt>
      <trkpt lat="45.96696" lon="4.86728">
        <ele>289</ele>
        <time>2018-08-26T09:01:26Z</time>
      </trkpt>
      <trkpt lat="45.96692" lon="4.86734">
        <ele>289</ele>
        <time>2018-08-26T09:01:27Z</time>
      </trkpt>
      <trkpt lat="45.9669" lon="4.86742">
        <ele>289</ele>
        <time>2018-08-26T09:01:28Z</time>
      </trkpt>
      <trkpt lat="45.96687" lon="4.86749">
        <ele>289</ele>
        <time>2018-08-26T09:01:29Z</time>
      </trkpt>
      <trkpt lat="45.96683" lon="4.86756">
        <ele>289</ele>
        <time>2018-08-26T09:01:30Z</time>
      </trkpt>
      <trkpt lat="45.96678" lon="4.86761">
        <ele>289</ele>
        <time>2018-08-26T09:01:31Z</time>
      </trkpt>
      <trkpt lat="45.9668" lon="4.8677">
        <ele>289</ele>
        <time>2018-08-26T09:01:32Z</time>
      </trkpt>
      <trkpt lat="45.96676" lon="4.86776">
        <ele>289</ele>
        <time>2018-08-26T09:01:33Z</time>
      </trkpt>
      <trkpt lat="45.96672" lon="4.86782">
        <ele>289</ele>
        <time>2018-08-26T09:01:34Z</time>
      </trkpt>
      <trkpt lat="45.96667" lon="4.86784">
        <ele>289</ele>
        <time>2018-08-26T09:01:35Z</time>
      </trkpt>
      <trkpt lat="45.96664" lon="4.8679">
        <ele>288</ele>
        <time>2018-08-26T09:01:36Z</time>
      </trkpt>
      <trkpt lat="45.9666" lon="4.86796">
        <ele>288</ele>
        <time>2018-08-26T09:01:37Z</time>
      </trkpt>
      <trkpt lat="45.96658" lon="4.86803">
        <ele>288</ele>
        <time>2018-08-26T09:01:38Z</time>
      </trkpt>
      <trkpt lat="45.96654" lon="4.86809">
        <ele>288</ele>
        <time>2018-08-26T09:01:39Z</time>
      </trkpt>
      <trkpt lat="45.9665" lon="4.86815">
        <ele>288</ele>
        <time>2018-08-26T09:01:40Z</time>
      </trkpt>
      <trkpt lat="45.96646" lon="4.8682">
        <ele>288</ele>
        <time>2018-08-26T09:01:41Z</time>
      </trkpt>
      <trkpt lat="45.96642" lon="4.86823">
        <ele>288</ele>
        <time>2018-08-26T09:01:42Z</time>
      </trkpt>
      <trkpt lat="45.96639" lon="4.86829">
        <ele>288</ele>
        <time>2018-08-26T09:01:43Z</time>
      </trkpt>
      <trkpt lat="45.96635" lon="4.86834">
        <ele>287</ele>
        <time>2018-08-26T09:01:44Z</time>
      </trkpt>
      <trkpt lat="45.96631" lon="4.8684">
        <ele>287</ele>
        <time>2018-08-26T09:01:45Z</time>
      </trkpt>
      <trkpt lat="45.96628" lon="4.86843">
        <ele>287</ele>
        <time>2018-08-26T09:01:46Z</time>
      </trkpt>
      <trkpt lat="45.96624" lon="4.86849">
        <ele>287</ele>
        <time>2018-08-26T09:01:47Z</time>
      </trkpt>
      <trkpt lat="45.96621" lon="4.86853">
        <ele>287</ele>
        <time>2018-08-26T09:01:48Z</time>
      </trkpt>
      <trkpt lat="45.96616" lon="4.86858">
        <ele>287</ele>
        <time>2018-08-26T09:01:49Z</time>
      </trkpt>
      <trkpt lat="45.96613" lon="4.86865">
        <ele>287</ele>
        <time>2018-08-26T09:01:50Z</time>
      </trkpt>
      <trkpt lat="45.96609" lon="4.86871">
        <ele>287</ele>
        <time>2018-08-26T09:01:51Z</time>
      </trkpt>
      <trkpt lat="45.96606" lon="4.86878">
        <ele>287</ele>
        <time>2018-08-26T09:01:52Z</time>
      </trkpt>
      <trkpt lat="45.96603" lon="4.86884">
        <ele>287</ele>
        <time>2018-08-26T09:01:53Z</time>
      </trkpt>
      <trkpt lat="45.96599" lon="4.86891">
        <ele>286</ele>
        <time>2018-08-26T09:01:54Z</time>
      </trkpt>
      <trkpt lat="45.96595" lon="4.86896">
        <ele>286</ele>
        <time>2018-08-26T09:01:55Z</time>
      </trkpt>
      <trkpt lat="45.96593" lon="4.86902">
        <ele>286</ele>
        <time>2018-08-26T09:01:56Z</time>
      </trkpt>
      <trkpt lat="45.9659" lon="4.86907">
        <ele>286</ele>
        <time>2018-08-26T09:01:57Z</time>
      </trkpt>
      <trkpt lat="45.96587" lon="4.86913">
        <ele>285</ele>
        <time>2018-08-26T09:01:58Z</time>
      </trkpt>
      <trkpt lat="45.96582" lon="4.8692">
        <ele>285</ele>
        <time>2018-08-26T09:01:59Z</time>
      </trkpt>
      <trkpt lat="45.96578" lon="4.86926">
        <ele>284</ele>
        <time>2018-08-26T09:02:00Z</time>
      </trkpt>
      <trkpt lat="45.96576" lon="4.86933">
        <ele>284</ele>
        <time>2018-08-26T09:02:01Z</time>
      </trkpt>
      <trkpt lat="45.96579" lon="4.86948">
        <ele>284</ele>
        <time>2018-08-26T09:02:02Z</time>
      </trkpt>
      <trkpt lat="45.96577" lon="4.86956">
        <ele>284</ele>
        <time>2018-08-26T09:02:03Z</time>
      </trkpt>
      <trkpt lat="45.9657" lon="4.86959">
        <ele>284</ele>
        <time>2018-08-26T09:02:04Z</time>
      </trkpt>
      <trkpt lat="45.96561" lon="4.86962">
        <ele>283</ele>
        <time>2018-08-26T09:02:05Z</time>
      </trkpt>
      <trkpt lat="45.96553" lon="4.86962">
        <ele>283</ele>
        <time>2018-08-26T09:02:06Z</time>
      </trkpt>
      <trkpt lat="45.96549" lon="4.86969">
        <ele>283</ele>
        <time>2018-08-26T09:02:07Z</time>
      </trkpt>
      <trkpt lat="45.96543" lon="4.86978">
        <ele>283</ele>
        <time>2018-08-26T09:02:09Z</time>
      </trkpt>
      <trkpt lat="45.96543" lon="4.8698">
        <ele>283</ele>
        <time>2018-08-26T09:02:10Z</time>
      </trkpt>
      <trkpt lat="45.9654" lon="4.86991">
        <ele>283</ele>
        <time>2018-08-26T09:02:14Z</time>
      </trkpt>
      <trkpt lat="45.96539" lon="4.86994">
        <ele>283</ele>
        <time>2018-08-26T09:02:15Z</time>
      </trkpt>
      <trkpt lat="45.96536" lon="4.87003">
        <ele>283</ele>
        <time>2018-08-26T09:02:19Z</time>
      </trkpt>
      <trkpt lat="45.96535" lon="4.87006">
        <ele>283</ele>
        <time>2018-08-26T09:02:20Z</time>
      </trkpt>
      <trkpt lat="45.9653" lon="4.87016">
        <ele>283</ele>
        <time>2018-08-26T09:02:24Z</time>
      </trkpt>
      <trkpt lat="45.96529" lon="4.87018">
        <ele>283</ele>
        <time>2018-08-26T09:02:25Z</time>
      </trkpt>
      <trkpt lat="45.96531" lon="4.87028">
        <ele>283</ele>
        <time>2018-08-26T09:06:18Z</time>
      </trkpt>
      <trkpt lat="45.96531" lon="4.87028">
        <ele>283</ele>
        <time>2018-08-26T09:06:19Z</time>
      </trkpt>
      <trkpt lat="45.9653" lon="4.87027">
        <ele>283</ele>
        <time>2018-08-26T09:11:27Z</time>
      </trkpt>
      <trkpt lat="45.9653" lon="4.87027">
        <ele>283</ele>
        <time>2018-08-26T09:11:28Z</time>
      </trkpt>
      <trkpt lat="45.96538" lon="4.87031">
        <ele>283</ele>
        <time>2018-08-26T09:12:02Z</time>
      </trkpt>
      <trkpt lat="45.96539" lon="4.87031">
        <ele>283</ele>
        <time>2018-08-26T09:12:03Z</time>
      </trkpt>
      <trkpt lat="45.96544" lon="4.87023">
        <ele>283</ele>
        <time>2018-08-26T09:12:09Z</time>
      </trkpt>
      <trkpt lat="45.96546" lon="4.87023">
        <ele>283</ele>
        <time>2018-08-26T09:12:10Z</time>
      </trkpt>
      <trkpt lat="45.96553" lon="4.87028">
        <ele>283</ele>
        <time>2018-08-26T09:12:14Z</time>
      </trkpt>
      <trkpt lat="45.96554" lon="4.87031">
        <ele>283</ele>
        <time>2018-08-26T09:12:15Z</time>
      </trkpt>
      <trkpt lat="45.96555" lon="4.87035">
        <ele>283</ele>
        <time>2018-08-26T09:12:16Z</time>
      </trkpt>
      <trkpt lat="45.96558" lon="4.87047">
        <ele>283</ele>
        <time>2018-08-26T09:12:17Z</time>
      </trkpt>
      <trkpt lat="45.96559" lon="4.87059">
        <ele>283</ele>
        <time>2018-08-26T09:12:21Z</time>
      </trkpt>
      <trkpt lat="45.96559" lon="4.87062">
        <ele>283</ele>
        <time>2018-08-26T09:12:22Z</time>
      </trkpt>
      <trkpt lat="45.96558" lon="4.87065">
        <ele>283</ele>
        <time>2018-08-26T09:12:23Z</time>
      </trkpt>
      <trkpt lat="45.96553" lon="4.87073">
        <ele>283</ele>
        <time>2018-08-26T09:12:24Z</time>
      </trkpt>
      <trkpt lat="45.96546" lon="4.8707">
        <ele>283</ele>
        <time>2018-08-26T09:12:26Z</time>
      </trkpt>
      <trkpt lat="45.96544" lon="4.87069">
        <ele>283</ele>
        <time>2018-08-26T09:12:27Z</time>
      </trkpt>
      <trkpt lat="45.96537" lon="4.87063">
        <ele>283</ele>
        <time>2018-08-26T09:12:32Z</time>
      </trkpt>
      <trkpt lat="45.96537" lon="4.87059">
        <ele>283</ele>
        <time>2018-08-26T09:12:33Z</time>
      </trkpt>
      <trkpt lat="45.96537" lon="4.8705">
        <ele>283</ele>
        <time>2018-08-26T09:12:35Z</time>
      </trkpt>
      <trkpt lat="45.96537" lon="4.87046">
        <ele>283</ele>
        <time>2018-08-26T09:12:36Z</time>
      </trkpt>
      <trkpt lat="45.96537" lon="4.87037">
        <ele>283</ele>
        <time>2018-08-26T09:12:38Z</time>
      </trkpt>
      <trkpt lat="45.96537" lon="4.87032">
        <ele>283</ele>
        <time>2018-08-26T09:12:39Z</time>
      </trkpt>
      <trkpt lat="45.96538" lon="4.87022">
        <ele>283</ele>
        <time>2018-08-26T09:12:41Z</time>
      </trkpt>
      <trkpt lat="45.96539" lon="4.87017">
        <ele>283</ele>
        <time>2018-08-26T09:12:42Z</time>
      </trkpt>
      <trkpt lat="45.96541" lon="4.87003">
        <ele>283</ele>
        <time>2018-08-26T09:12:43Z</time>
      </trkpt>
      <trkpt lat="45.96542" lon="4.86992">
        <ele>283</ele>
        <time>2018-08-26T09:12:45Z</time>
      </trkpt>
      <trkpt lat="45.96543" lon="4.86989">
        <ele>283</ele>
        <time>2018-08-26T09:12:46Z</time>
      </trkpt>
      <trkpt lat="45.9655" lon="4.86983">
        <ele>283</ele>
        <time>2018-08-26T09:12:49Z</time>
      </trkpt>
      <trkpt lat="45.96551" lon="4.86983">
        <ele>283</ele>
        <time>2018-08-26T09:12:50Z</time>
      </trkpt>
      <trkpt lat="45.96554" lon="4.86983">
        <ele>283</ele>
        <time>2018-08-26T09:12:51Z</time>
      </trkpt>
      <trkpt lat="45.96561" lon="4.86983">
        <ele>284</ele>
        <time>2018-08-26T09:12:52Z</time>
      </trkpt>
      <trkpt lat="45.96567" lon="4.86983">
        <ele>284</ele>
        <time>2018-08-26T09:12:54Z</time>
      </trkpt>
      <trkpt lat="45.96572" lon="4.86983">
        <ele>284</ele>
        <time>2018-08-26T09:12:55Z</time>
      </trkpt>
      <trkpt lat="45.9658" lon="4.86985">
        <ele>284</ele>
        <time>2018-08-26T09:12:57Z</time>
      </trkpt>
      <trkpt lat="45.96584" lon="4.86985">
        <ele>285</ele>
        <time>2018-08-26T09:12:58Z</time>
      </trkpt>
      <trkpt lat="45.96592" lon="4.86987">
        <ele>286</ele>
        <time>2018-08-26T09:13:01Z</time>
      </trkpt>
      <trkpt lat="45.96594" lon="4.86987">
        <ele>286</ele>
        <time>2018-08-26T09:13:02Z</time>
      </trkpt>
      <trkpt lat="45.966" lon="4.86986">
        <ele>286</ele>
        <time>2018-08-26T09:13:03Z</time>
      </trkpt>
      <trkpt lat="45.96604" lon="4.86984">
        <ele>286</ele>
        <time>2018-08-26T09:13:04Z</time>
      </trkpt>
      <trkpt lat="45.96611" lon="4.86982">
        <ele>286</ele>
        <time>2018-08-26T09:13:07Z</time>
      </trkpt>
      <trkpt lat="45.96614" lon="4.86981">
        <ele>286</ele>
        <time>2018-08-26T09:13:08Z</time>
      </trkpt>
      <trkpt lat="45.9662" lon="4.86979">
        <ele>286</ele>
        <time>2018-08-26T09:13:10Z</time>
      </trkpt>
      <trkpt lat="45.96624" lon="4.86978">
        <ele>286</ele>
        <time>2018-08-26T09:13:11Z</time>
      </trkpt>
      <trkpt lat="45.96631" lon="4.86976">
        <ele>286</ele>
        <time>2018-08-26T09:13:13Z</time>
      </trkpt>
      <trkpt lat="45.96635" lon="4.86975">
        <ele>286</ele>
        <time>2018-08-26T09:13:14Z</time>
      </trkpt>
      <trkpt lat="45.96642" lon="4.86975">
        <ele>286</ele>
        <time>2018-08-26T09:13:16Z</time>
      </trkpt>
      <trkpt lat="45.96651" lon="4.86979">
        <ele>287</ele>
        <time>2018-08-26T09:13:17Z</time>
      </trkpt>
      <trkpt lat="45.96655" lon="4.86983">
        <ele>287</ele>
        <time>2018-08-26T09:13:19Z</time>
      </trkpt>
      <trkpt lat="45.9666" lon="4.8699">
        <ele>287</ele>
        <time>2018-08-26T09:13:20Z</time>
      </trkpt>
      <trkpt lat="45.96664" lon="4.87">
        <ele>287</ele>
        <time>2018-08-26T09:13:22Z</time>
      </trkpt>
      <trkpt lat="45.96666" lon="4.87005">
        <ele>287</ele>
        <time>2018-08-26T09:13:23Z</time>
      </trkpt>
      <trkpt lat="45.96672" lon="4.87015">
        <ele>287</ele>
        <time>2018-08-26T09:13:25Z</time>
      </trkpt>
      <trkpt lat="45.96675" lon="4.87019">
        <ele>287</ele>
        <time>2018-08-26T09:13:26Z</time>
      </trkpt>
      <trkpt lat="45.96679" lon="4.87023">
        <ele>287</ele>
        <time>2018-08-26T09:13:27Z</time>
      </trkpt>
      <trkpt lat="45.96682" lon="4.87027">
        <ele>287</ele>
        <time>2018-08-26T09:13:28Z</time>
      </trkpt>
      <trkpt lat="45.96687" lon="4.87029">
        <ele>287</ele>
        <time>2018-08-26T09:13:29Z</time>
      </trkpt>
      <trkpt lat="45.96691" lon="4.87033">
        <ele>287</ele>
        <time>2018-08-26T09:13:30Z</time>
      </trkpt>
      <trkpt lat="45.96695" lon="4.87036">
        <ele>287</ele>
        <time>2018-08-26T09:13:31Z</time>
      </trkpt>
      <trkpt lat="45.96699" lon="4.87039">
        <ele>287</ele>
        <time>2018-08-26T09:13:32Z</time>
      </trkpt>
      <trkpt lat="45.96706" lon="4.87046">
        <ele>287</ele>
        <time>2018-08-26T09:13:34Z</time>
      </trkpt>
      <trkpt lat="45.96711" lon="4.87046">
        <ele>287</ele>
        <time>2018-08-26T09:13:35Z</time>
      </trkpt>
      <trkpt lat="45.96717" lon="4.8705">
        <ele>287</ele>
        <time>2018-08-26T09:13:37Z</time>
      </trkpt>
      <trkpt lat="45.9672" lon="4.87053">
        <ele>287</ele>
        <time>2018-08-26T09:13:38Z</time>
      </trkpt>
      <trkpt lat="45.96725" lon="4.87052">
        <ele>287</ele>
        <time>2018-08-26T09:13:39Z</time>
      </trkpt>
      <trkpt lat="45.9673" lon="4.87053">
        <ele>287</ele>
        <time>2018-08-26T09:13:40Z</time>
      </trkpt>
      <trkpt lat="45.96738" lon="4.87058">
        <ele>287</ele>
        <time>2018-08-26T09:13:42Z</time>
      </trkpt>
      <trkpt lat="45.96742" lon="4.87061">
        <ele>287</ele>
        <time>2018-08-26T09:13:43Z</time>
      </trkpt>
      <trkpt lat="45.96746" lon="4.87067">
        <ele>287</ele>
        <time>2018-08-26T09:13:44Z</time>
      </trkpt>
      <trkpt lat="45.96749" lon="4.87071">
        <ele>287</ele>
        <time>2018-08-26T09:13:45Z</time>
      </trkpt>
      <trkpt lat="45.96756" lon="4.87077">
        <ele>287</ele>
        <time>2018-08-26T09:13:47Z</time>
      </trkpt>
      <trkpt lat="45.9676" lon="4.87082">
        <ele>287</ele>
        <time>2018-08-26T09:13:48Z</time>
      </trkpt>
      <trkpt lat="45.96763" lon="4.87087">
        <ele>287</ele>
        <time>2018-08-26T09:13:49Z</time>
      </trkpt>
      <trkpt lat="45.96767" lon="4.87092">
        <ele>287</ele>
        <time>2018-08-26T09:13:50Z</time>
      </trkpt>
      <trkpt lat="45.9677" lon="4.87097">
        <ele>287</ele>
        <time>2018-08-26T09:13:51Z</time>
      </trkpt>
      <trkpt lat="45.96774" lon="4.87103">
        <ele>286</ele>
        <time>2018-08-26T09:13:52Z</time>
      </trkpt>
      <trkpt lat="45.96776" lon="4.87108">
        <ele>286</ele>
        <time>2018-08-26T09:13:53Z</time>
      </trkpt>
      <trkpt lat="45.96779" lon="4.87114">
        <ele>286</ele>
        <time>2018-08-26T09:13:54Z</time>
      </trkpt>
      <trkpt lat="45.96782" lon="4.8712">
        <ele>286</ele>
        <time>2018-08-26T09:13:55Z</time>
      </trkpt>
      <trkpt lat="45.96784" lon="4.87125">
        <ele>286</ele>
        <time>2018-08-26T09:13:56Z</time>
      </trkpt>
      <trkpt lat="45.96788" lon="4.8713">
        <ele>286</ele>
        <time>2018-08-26T09:13:57Z</time>
      </trkpt>
      <trkpt lat="45.96791" lon="4.87134">
        <ele>286</ele>
        <time>2018-08-26T09:13:58Z</time>
      </trkpt>
      <trkpt lat="45.96799" lon="4.8714">
        <ele>286</ele>
        <time>2018-08-26T09:14:00Z</time>
      </trkpt>
      <trkpt lat="45.96801" lon="4.87137">
        <ele>286</ele>
        <time>2018-08-26T09:14:01Z</time>
      </trkpt>
      <trkpt lat="45.96806" lon="4.87127">
        <ele>286</ele>
        <time>2018-08-26T09:14:03Z</time>
      </trkpt>
      <trkpt lat="45.96808" lon="4.87122">
        <ele>286</ele>
        <time>2018-08-26T09:14:04Z</time>
      </trkpt>
      <trkpt lat="45.96811" lon="4.87111">
        <ele>286</ele>
        <time>2018-08-26T09:14:06Z</time>
      </trkpt>
      <trkpt lat="45.96813" lon="4.87105">
        <ele>286</ele>
        <time>2018-08-26T09:14:07Z</time>
      </trkpt>
      <trkpt lat="45.96815" lon="4.87099">
        <ele>287</ele>
        <time>2018-08-26T09:14:08Z</time>
      </trkpt>
      <trkpt lat="45.96817" lon="4.87093">
        <ele>287</ele>
        <time>2018-08-26T09:14:09Z</time>
      </trkpt>
      <trkpt lat="45.96818" lon="4.87086">
        <ele>287</ele>
        <time>2018-08-26T09:14:10Z</time>
      </trkpt>
      <trkpt lat="45.9682" lon="4.8708">
        <ele>287</ele>
        <time>2018-08-26T09:14:11Z</time>
      </trkpt>
      <trkpt lat="45.96823" lon="4.8707">
        <ele>287</ele>
        <time>2018-08-26T09:14:13Z</time>
      </trkpt>
      <trkpt lat="45.96825" lon="4.87065">
        <ele>287</ele>
        <time>2018-08-26T09:14:14Z</time>
      </trkpt>
      <trkpt lat="45.96828" lon="4.87053">
        <ele>287</ele>
        <time>2018-08-26T09:14:16Z</time>
      </trkpt>
      <trkpt lat="45.9683" lon="4.87047">
        <ele>287</ele>
        <time>2018-08-26T09:14:17Z</time>
      </trkpt>
      <trkpt lat="45.96834" lon="4.87039">
        <ele>287</ele>
        <time>2018-08-26T09:14:19Z</time>
      </trkpt>
      <trkpt lat="45.96835" lon="4.87033">
        <ele>287</ele>
        <time>2018-08-26T09:14:20Z</time>
      </trkpt>
      <trkpt lat="45.96837" lon="4.87027">
        <ele>287</ele>
        <time>2018-08-26T09:14:21Z</time>
      </trkpt>
      <trkpt lat="45.96838" lon="4.8702">
        <ele>287</ele>
        <time>2018-08-26T09:14:22Z</time>
      </trkpt>
      <trkpt lat="45.96842" lon="4.87009">
        <ele>288</ele>
        <time>2018-08-26T09:14:24Z</time>
      </trkpt>
      <trkpt lat="45.96845" lon="4.87005">
        <ele>288</ele>
        <time>2018-08-26T09:14:25Z</time>
      </trkpt>
      <trkpt lat="45.96846" lon="4.87">
        <ele>288</ele>
        <time>2018-08-26T09:14:27Z</time>
      </trkpt>
      <trkpt lat="45.96849" lon="4.86992">
        <ele>288</ele>
        <time>2018-08-26T09:14:28Z</time>
      </trkpt>
      <trkpt lat="45.96852" lon="4.86981">
        <ele>288</ele>
        <time>2018-08-26T09:14:30Z</time>
      </trkpt>
      <trkpt lat="45.96855" lon="4.86977">
        <ele>288</ele>
        <time>2018-08-26T09:14:31Z</time>
      </trkpt>
      <trkpt lat="45.96859" lon="4.86966">
        <ele>288</ele>
        <time>2018-08-26T09:14:33Z</time>
      </trkpt>
      <trkpt lat="45.96862" lon="4.86957">
        <ele>288</ele>
        <time>2018-08-26T09:14:34Z</time>
      </trkpt>
      <trkpt lat="45.96863" lon="4.8695">
        <ele>288</ele>
        <time>2018-08-26T09:14:35Z</time>
      </trkpt>
      <trkpt lat="45.96866" lon="4.86945">
        <ele>288</ele>
        <time>2018-08-26T09:14:36Z</time>
      </trkpt>
      <trkpt lat="45.96868" lon="4.86937">
        <ele>288</ele>
        <time>2018-08-26T09:14:37Z</time>
      </trkpt>
      <trkpt lat="45.96871" lon="4.86933">
        <ele>288</ele>
        <time>2018-08-26T09:14:38Z</time>
      </trkpt>
      <trkpt lat="45.96873" lon="4.86921">
        <ele>288</ele>
        <time>2018-08-26T09:14:40Z</time>
      </trkpt>
      <trkpt lat="45.96875" lon="4.86917">
        <ele>289</ele>
        <time>2018-08-26T09:14:41Z</time>
      </trkpt>
      <trkpt lat="45.96879" lon="4.86907">
        <ele>289</ele>
        <time>2018-08-26T09:14:43Z</time>
      </trkpt>
      <trkpt lat="45.9688" lon="4.869">
        <ele>289</ele>
        <time>2018-08-26T09:14:44Z</time>
      </trkpt>
      <trkpt lat="45.96884" lon="4.86891">
        <ele>289</ele>
        <time>2018-08-26T09:14:46Z</time>
      </trkpt>
      <trkpt lat="45.96886" lon="4.86884">
        <ele>289</ele>
        <time>2018-08-26T09:14:47Z</time>
      </trkpt>
      <trkpt lat="45.96888" lon="4.86879">
        <ele>289</ele>
        <time>2018-08-26T09:14:48Z</time>
      </trkpt>
      <trkpt lat="45.96891" lon="4.86872">
        <ele>289</ele>
        <time>2018-08-26T09:14:49Z</time>
      </trkpt>
      <trkpt lat="45.96895" lon="4.8686">
        <ele>289</ele>
        <time>2018-08-26T09:14:51Z</time>
      </trkpt>
      <trkpt lat="45.96896" lon="4.86855">
        <ele>289</ele>
        <time>2018-08-26T09:14:52Z</time>
      </trkpt>
      <trkpt lat="45.96899" lon="4.86844">
        <ele>288</ele>
        <time>2018-08-26T09:14:54Z</time>
      </trkpt>
      <trkpt lat="45.969" lon="4.86841">
        <ele>288</ele>
        <time>2018-08-26T09:14:55Z</time>
      </trkpt>
      <trkpt lat="45.96904" lon="4.86833">
        <ele>288</ele>
        <time>2018-08-26T09:14:57Z</time>
      </trkpt>
      <trkpt lat="45.96905" lon="4.8683">
        <ele>288</ele>
        <time>2018-08-26T09:14:58Z</time>
      </trkpt>
      <trkpt lat="45.96908" lon="4.8682">
        <ele>288</ele>
        <time>2018-08-26T09:15:02Z</time>
      </trkpt>
      <trkpt lat="45.96909" lon="4.86817">
        <ele>288</ele>
        <time>2018-08-26T09:15:03Z</time>
      </trkpt>
      <trkpt lat="45.96915" lon="4.8681">
        <ele>288</ele>
        <time>2018-08-26T09:15:06Z</time>
      </trkpt>
      <trkpt lat="45.96922" lon="4.86806">
        <ele>287</ele>
        <time>2018-08-26T09:15:07Z</time>
      </trkpt>
      <trkpt lat="45.96929" lon="4.86814">
        <ele>287</ele>
        <time>2018-08-26T09:15:09Z</time>
      </trkpt>
      <trkpt lat="45.96933" lon="4.86817">
        <ele>287</ele>
        <time>2018-08-26T09:15:10Z</time>
      </trkpt>
      <trkpt lat="45.9694" lon="4.86821">
        <ele>287</ele>
        <time>2018-08-26T09:15:12Z</time>
      </trkpt>
      <trkpt lat="45.96945" lon="4.86824">
        <ele>287</ele>
        <time>2018-08-26T09:15:13Z</time>
      </trkpt>
      <trkpt lat="45.9695" lon="4.86827">
        <ele>287</ele>
        <time>2018-08-26T09:15:14Z</time>
      </trkpt>
      <trkpt lat="45.96957" lon="4.86831">
        <ele>286</ele>
        <time>2018-08-26T09:15:15Z</time>
      </trkpt>
      <trkpt lat="45.96962" lon="4.86835">
        <ele>287</ele>
        <time>2018-08-26T09:15:16Z</time>
      </trkpt>
      <trkpt lat="45.96968" lon="4.86837">
        <ele>286</ele>
        <time>2018-08-26T09:15:17Z</time>
      </trkpt>
      <trkpt lat="45.96973" lon="4.86839">
        <ele>286</ele>
        <time>2018-08-26T09:15:18Z</time>
      </trkpt>
      <trkpt lat="45.96979" lon="4.8684">
        <ele>286</ele>
        <time>2018-08-26T09:15:19Z</time>
      </trkpt>
      <trkpt lat="45.96985" lon="4.86842">
        <ele>286</ele>
        <time>2018-08-26T09:15:20Z</time>
      </trkpt>
      <trkpt lat="45.96991" lon="4.86843">
        <ele>286</ele>
        <time>2018-08-26T09:15:21Z</time>
      </trkpt>
      <trkpt lat="45.96998" lon="4.86843">
        <ele>286</ele>
        <time>2018-08-26T09:15:22Z</time>
      </trkpt>
      <trkpt lat="45.97004" lon="4.86844">
        <ele>285</ele>
        <time>2018-08-26T09:15:23Z</time>
      </trkpt>
      <trkpt lat="45.97011" lon="4.86844">
        <ele>285</ele>
        <time>2018-08-26T09:15:24Z</time>
      </trkpt>
      <trkpt lat="45.97016" lon="4.86844">
        <ele>285</ele>
        <time>2018-08-26T09:15:25Z</time>
      </trkpt>
      <trkpt lat="45.97024" lon="4.86844">
        <ele>285</ele>
        <time>2018-08-26T09:15:26Z</time>
      </trkpt>
      <trkpt lat="45.97029" lon="4.86842">
        <ele>285</ele>
        <time>2018-08-26T09:15:27Z</time>
      </trkpt>
      <trkpt lat="45.97036" lon="4.86842">
        <ele>285</ele>
        <time>2018-08-26T09:15:28Z</time>
      </trkpt>
      <trkpt lat="45.97042" lon="4.86841">
        <ele>285</ele>
        <time>2018-08-26T09:15:29Z</time>
      </trkpt>
      <trkpt lat="45.97049" lon="4.8684">
        <ele>285</ele>
        <time>2018-08-26T09:15:30Z</time>
      </trkpt>
      <trkpt lat="45.97054" lon="4.86839">
        <ele>285</ele>
        <time>2018-08-26T09:15:31Z</time>
      </trkpt>
      <trkpt lat="45.97062" lon="4.8684">
        <ele>284</ele>
        <time>2018-08-26T09:15:32Z</time>
      </trkpt>
      <trkpt lat="45.97068" lon="4.86838">
        <ele>284</ele>
        <time>2018-08-26T09:15:33Z</time>
      </trkpt>
      <trkpt lat="45.97074" lon="4.86839">
        <ele>284</ele>
        <time>2018-08-26T09:15:34Z</time>
      </trkpt>
      <trkpt lat="45.9708" lon="4.86839">
        <ele>284</ele>
        <time>2018-08-26T09:15:35Z</time>
      </trkpt>
      <trkpt lat="45.97085" lon="4.86838">
        <ele>284</ele>
        <time>2018-08-26T09:15:36Z</time>
      </trkpt>
      <trkpt lat="45.9709" lon="4.86837">
        <ele>284</ele>
        <time>2018-08-26T09:15:37Z</time>
      </trkpt>
      <trkpt lat="45.97097" lon="4.86834">
        <ele>284</ele>
        <time>2018-08-26T09:15:38Z</time>
      </trkpt>
      <trkpt lat="45.97105" lon="4.86833">
        <ele>284</ele>
        <time>2018-08-26T09:15:39Z</time>
      </trkpt>
      <trkpt lat="45.97109" lon="4.86829">
        <ele>283</ele>
        <time>2018-08-26T09:15:40Z</time>
      </trkpt>
      <trkpt lat="45.97114" lon="4.86828">
        <ele>283</ele>
        <time>2018-08-26T09:15:41Z</time>
      </trkpt>
      <trkpt lat="45.97123" lon="4.86824">
        <ele>283</ele>
        <time>2018-08-26T09:15:43Z</time>
      </trkpt>
      <trkpt lat="45.97128" lon="4.86824">
        <ele>283</ele>
        <time>2018-08-26T09:15:44Z</time>
      </trkpt>
      <trkpt lat="45.97133" lon="4.86822">
        <ele>283</ele>
        <time>2018-08-26T09:15:45Z</time>
      </trkpt>
      <trkpt lat="45.97139" lon="4.86819">
        <ele>283</ele>
        <time>2018-08-26T09:15:46Z</time>
      </trkpt>
      <trkpt lat="45.97144" lon="4.86817">
        <ele>283</ele>
        <time>2018-08-26T09:15:47Z</time>
      </trkpt>
      <trkpt lat="45.97149" lon="4.86815">
        <ele>283</ele>
        <time>2018-08-26T09:15:48Z</time>
      </trkpt>
      <trkpt lat="45.97154" lon="4.86812">
        <ele>283</ele>
        <time>2018-08-26T09:15:49Z</time>
      </trkpt>
      <trkpt lat="45.97159" lon="4.86808">
        <ele>283</ele>
        <time>2018-08-26T09:15:50Z</time>
      </trkpt>
      <trkpt lat="45.97164" lon="4.86805">
        <ele>283</ele>
        <time>2018-08-26T09:15:51Z</time>
      </trkpt>
      <trkpt lat="45.97168" lon="4.86801">
        <ele>283</ele>
        <time>2018-08-26T09:15:52Z</time>
      </trkpt>
      <trkpt lat="45.97175" lon="4.86798">
        <ele>283</ele>
        <time>2018-08-26T09:15:53Z</time>
      </trkpt>
      <trkpt lat="45.9718" lon="4.86798">
        <ele>284</ele>
        <time>2018-08-26T09:15:54Z</time>
      </trkpt>
      <trkpt lat="45.97184" lon="4.86797">
        <ele>284</ele>
        <time>2018-08-26T09:15:55Z</time>
      </trkpt>
      <trkpt lat="45.97189" lon="4.86797">
        <ele>284</ele>
        <time>2018-08-26T09:15:56Z</time>
      </trkpt>
      <trkpt lat="45.97194" lon="4.86794">
        <ele>284</ele>
        <time>2018-08-26T09:15:57Z</time>
      </trkpt>
      <trkpt lat="45.97199" lon="4.86792">
        <ele>284</ele>
        <time>2018-08-26T09:15:58Z</time>
      </trkpt>
      <trkpt lat="45.97205" lon="4.8679">
        <ele>284</ele>
        <time>2018-08-26T09:15:59Z</time>
      </trkpt>
      <trkpt lat="45.9721" lon="4.86788">
        <ele>284</ele>
        <time>2018-08-26T09:16:00Z</time>
      </trkpt>
      <trkpt lat="45.97216" lon="4.86787">
        <ele>284</ele>
        <time>2018-08-26T09:16:01Z</time>
      </trkpt>
      <trkpt lat="45.97224" lon="4.86783">
        <ele>284</ele>
        <time>2018-08-26T09:16:02Z</time>
      </trkpt>
      <trkpt lat="45.97229" lon="4.86783">
        <ele>284</ele>
        <time>2018-08-26T09:16:03Z</time>
      </trkpt>
      <trkpt lat="45.97234" lon="4.86785">
        <ele>284</ele>
        <time>2018-08-26T09:16:04Z</time>
      </trkpt>
      <trkpt lat="45.97239" lon="4.86785">
        <ele>284</ele>
        <time>2018-08-26T09:16:05Z</time>
      </trkpt>
      <trkpt lat="45.97245" lon="4.8679">
        <ele>284</ele>
        <time>2018-08-26T09:16:06Z</time>
      </trkpt>
      <trkpt lat="45.9725" lon="4.86793">
        <ele>284</ele>
        <time>2018-08-26T09:16:07Z</time>
      </trkpt>
      <trkpt lat="45.97255" lon="4.86797">
        <ele>285</ele>
        <time>2018-08-26T09:16:08Z</time>
      </trkpt>
      <trkpt lat="45.97259" lon="4.86804">
        <ele>285</ele>
        <time>2018-08-26T09:16:09Z</time>
      </trkpt>
      <trkpt lat="45.97262" lon="4.8681">
        <ele>285</ele>
        <time>2018-08-26T09:16:10Z</time>
      </trkpt>
      <trkpt lat="45.97266" lon="4.86817">
        <ele>285</ele>
        <time>2018-08-26T09:16:11Z</time>
      </trkpt>
      <trkpt lat="45.97268" lon="4.86824">
        <ele>285</ele>
        <time>2018-08-26T09:16:12Z</time>
      </trkpt>
      <trkpt lat="45.97271" lon="4.8683">
        <ele>285</ele>
        <time>2018-08-26T09:16:13Z</time>
      </trkpt>
      <trkpt lat="45.97275" lon="4.86837">
        <ele>285</ele>
        <time>2018-08-26T09:16:14Z</time>
      </trkpt>
      <trkpt lat="45.97278" lon="4.86843">
        <ele>285</ele>
        <time>2018-08-26T09:16:15Z</time>
      </trkpt>
      <trkpt lat="45.97281" lon="4.86849">
        <ele>285</ele>
        <time>2018-08-26T09:16:16Z</time>
      </trkpt>
      <trkpt lat="45.97284" lon="4.86856">
        <ele>285</ele>
        <time>2018-08-26T09:16:17Z</time>
      </trkpt>
      <trkpt lat="45.97288" lon="4.86862">
        <ele>285</ele>
        <time>2018-08-26T09:16:18Z</time>
      </trkpt>
      <trkpt lat="45.97292" lon="4.86867">
        <ele>284</ele>
        <time>2018-08-26T09:16:19Z</time>
      </trkpt>
      <trkpt lat="45.97296" lon="4.86873">
        <ele>284</ele>
        <time>2018-08-26T09:16:20Z</time>
      </trkpt>
      <trkpt lat="45.973" lon="4.86878">
        <ele>284</ele>
        <time>2018-08-26T09:16:21Z</time>
      </trkpt>
      <trkpt lat="45.97302" lon="4.86883">
        <ele>284</ele>
        <time>2018-08-26T09:16:22Z</time>
      </trkpt>
      <trkpt lat="45.97309" lon="4.86891">
        <ele>284</ele>
        <time>2018-08-26T09:16:24Z</time>
      </trkpt>
      <trkpt lat="45.97312" lon="4.86896">
        <ele>284</ele>
        <time>2018-08-26T09:16:25Z</time>
      </trkpt>
      <trkpt lat="45.97318" lon="4.86905">
        <ele>284</ele>
        <time>2018-08-26T09:16:27Z</time>
      </trkpt>
      <trkpt lat="45.97321" lon="4.8691">
        <ele>284</ele>
        <time>2018-08-26T09:16:28Z</time>
      </trkpt>
      <trkpt lat="45.97325" lon="4.86915">
        <ele>284</ele>
        <time>2018-08-26T09:16:29Z</time>
      </trkpt>
      <trkpt lat="45.97329" lon="4.86921">
        <ele>284</ele>
        <time>2018-08-26T09:16:30Z</time>
      </trkpt>
      <trkpt lat="45.97332" lon="4.86926">
        <ele>284</ele>
        <time>2018-08-26T09:16:31Z</time>
      </trkpt>
      <trkpt lat="45.97337" lon="4.86933">
        <ele>284</ele>
        <time>2018-08-26T09:16:32Z</time>
      </trkpt>
      <trkpt lat="45.97341" lon="4.86939">
        <ele>284</ele>
        <time>2018-08-26T09:16:33Z</time>
      </trkpt>
      <trkpt lat="45.97345" lon="4.86945">
        <ele>284</ele>
        <time>2018-08-26T09:16:34Z</time>
      </trkpt>
      <trkpt lat="45.97349" lon="4.8695">
        <ele>284</ele>
        <time>2018-08-26T09:16:35Z</time>
      </trkpt>
      <trkpt lat="45.97354" lon="4.86957">
        <ele>284</ele>
        <time>2018-08-26T09:16:36Z</time>
      </trkpt>
      <trkpt lat="45.97359" lon="4.86962">
        <ele>285</ele>
        <time>2018-08-26T09:16:37Z</time>
      </trkpt>
      <trkpt lat="45.97364" lon="4.86966">
        <ele>285</ele>
        <time>2018-08-26T09:16:38Z</time>
      </trkpt>
      <trkpt lat="45.97369" lon="4.86971">
        <ele>285</ele>
        <time>2018-08-26T09:16:39Z</time>
      </trkpt>
      <trkpt lat="45.97372" lon="4.86979">
        <ele>285</ele>
        <time>2018-08-26T09:16:40Z</time>
      </trkpt>
      <trkpt lat="45.97376" lon="4.86984">
        <ele>285</ele>
        <time>2018-08-26T09:16:41Z</time>
      </trkpt>
      <trkpt lat="45.97379" lon="4.86988">
        <ele>285</ele>
        <time>2018-08-26T09:16:42Z</time>
      </trkpt>
      <trkpt lat="45.97384" lon="4.86992">
        <ele>285</ele>
        <time>2018-08-26T09:16:43Z</time>
      </trkpt>
      <trkpt lat="45.97389" lon="4.86997">
        <ele>285</ele>
        <time>2018-08-26T09:16:44Z</time>
      </trkpt>
      <trkpt lat="45.97394" lon="4.87002">
        <ele>285</ele>
        <time>2018-08-26T09:16:45Z</time>
      </trkpt>
      <trkpt lat="45.97398" lon="4.87006">
        <ele>285</ele>
        <time>2018-08-26T09:16:46Z</time>
      </trkpt>
      <trkpt lat="45.97403" lon="4.87007">
        <ele>285</ele>
        <time>2018-08-26T09:16:47Z</time>
      </trkpt>
      <trkpt lat="45.97407" lon="4.87012">
        <ele>285</ele>
        <time>2018-08-26T09:16:48Z</time>
      </trkpt>
      <trkpt lat="45.97413" lon="4.87021">
        <ele>285</ele>
        <time>2018-08-26T09:16:50Z</time>
      </trkpt>
      <trkpt lat="45.97417" lon="4.87025">
        <ele>284</ele>
        <time>2018-08-26T09:16:51Z</time>
      </trkpt>
      <trkpt lat="45.97424" lon="4.87032">
        <ele>284</ele>
        <time>2018-08-26T09:16:53Z</time>
      </trkpt>
      <trkpt lat="45.97428" lon="4.87036">
        <ele>284</ele>
        <time>2018-08-26T09:16:54Z</time>
      </trkpt>
      <trkpt lat="45.97436" lon="4.8704">
        <ele>284</ele>
        <time>2018-08-26T09:16:55Z</time>
      </trkpt>
      <trkpt lat="45.9744" lon="4.87045">
        <ele>284</ele>
        <time>2018-08-26T09:16:56Z</time>
      </trkpt>
      <trkpt lat="45.97445" lon="4.87051">
        <ele>284</ele>
        <time>2018-08-26T09:16:57Z</time>
      </trkpt>
      <trkpt lat="45.9745" lon="4.87056">
        <ele>284</ele>
        <time>2018-08-26T09:16:58Z</time>
      </trkpt>
      <trkpt lat="45.97454" lon="4.87059">
        <ele>284</ele>
        <time>2018-08-26T09:16:59Z</time>
      </trkpt>
      <trkpt lat="45.97458" lon="4.87064">
        <ele>284</ele>
        <time>2018-08-26T09:17:00Z</time>
      </trkpt>
      <trkpt lat="45.97462" lon="4.87069">
        <ele>284</ele>
        <time>2018-08-26T09:17:01Z</time>
      </trkpt>
      <trkpt lat="45.97466" lon="4.87073">
        <ele>284</ele>
        <time>2018-08-26T09:17:02Z</time>
      </trkpt>
      <trkpt lat="45.97471" lon="4.87078">
        <ele>284</ele>
        <time>2018-08-26T09:17:03Z</time>
      </trkpt>
      <trkpt lat="45.97474" lon="4.87081">
        <ele>284</ele>
        <time>2018-08-26T09:17:04Z</time>
      </trkpt>
      <trkpt lat="45.97478" lon="4.87085">
        <ele>283</ele>
        <time>2018-08-26T09:17:05Z</time>
      </trkpt>
      <trkpt lat="45.97482" lon="4.87089">
        <ele>283</ele>
        <time>2018-08-26T09:17:06Z</time>
      </trkpt>
      <trkpt lat="45.97486" lon="4.87094">
        <ele>283</ele>
        <time>2018-08-26T09:17:07Z</time>
      </trkpt>
      <trkpt lat="45.9749" lon="4.87098">
        <ele>283</ele>
        <time>2018-08-26T09:17:08Z</time>
      </trkpt>
      <trkpt lat="45.97495" lon="4.87103">
        <ele>283</ele>
        <time>2018-08-26T09:17:09Z</time>
      </trkpt>
      <trkpt lat="45.97499" lon="4.87108">
        <ele>283</ele>
        <time>2018-08-26T09:17:10Z</time>
      </trkpt>
      <trkpt lat="45.97503" lon="4.87112">
        <ele>283</ele>
        <time>2018-08-26T09:17:11Z</time>
      </trkpt>
      <trkpt lat="45.97508" lon="4.87113">
        <ele>283</ele>
        <time>2018-08-26T09:17:12Z</time>
      </trkpt>
      <trkpt lat="45.97512" lon="4.87118">
        <ele>283</ele>
        <time>2018-08-26T09:17:13Z</time>
      </trkpt>
      <trkpt lat="45.97515" lon="4.87124">
        <ele>283</ele>
        <time>2018-08-26T09:17:14Z</time>
      </trkpt>
      <trkpt lat="45.97519" lon="4.87128">
        <ele>283</ele>
        <time>2018-08-26T09:17:15Z</time>
      </trkpt>
      <trkpt lat="45.97524" lon="4.87132">
        <ele>283</ele>
        <time>2018-08-26T09:17:16Z</time>
      </trkpt>
      <trkpt lat="45.97528" lon="4.87136">
        <ele>283</ele>
        <time>2018-08-26T09:17:17Z</time>
      </trkpt>
      <trkpt lat="45.97533" lon="4.87141">
        <ele>283</ele>
        <time>2018-08-26T09:17:18Z</time>
      </trkpt>
      <trkpt lat="45.97537" lon="4.87145">
        <ele>283</ele>
        <time>2018-08-26T09:17:19Z</time>
      </trkpt>
      <trkpt lat="45.97542" lon="4.87149">
        <ele>283</ele>
        <time>2018-08-26T09:17:20Z</time>
      </trkpt>
      <trkpt lat="45.97548" lon="4.87154">
        <ele>283</ele>
        <time>2018-08-26T09:17:21Z</time>
      </trkpt>
      <trkpt lat="45.97553" lon="4.87158">
        <ele>283</ele>
        <time>2018-08-26T09:17:22Z</time>
      </trkpt>
      <trkpt lat="45.97557" lon="4.87162">
        <ele>283</ele>
        <time>2018-08-26T09:17:23Z</time>
      </trkpt>
      <trkpt lat="45.97562" lon="4.87164">
        <ele>283</ele>
        <time>2018-08-26T09:17:24Z</time>
      </trkpt>
      <trkpt lat="45.97566" lon="4.87169">
        <ele>283</ele>
        <time>2018-08-26T09:17:25Z</time>
      </trkpt>
      <trkpt lat="45.9757" lon="4.87174">
        <ele>283</ele>
        <time>2018-08-26T09:17:26Z</time>
      </trkpt>
      <trkpt lat="45.97575" lon="4.87179">
        <ele>283</ele>
        <time>2018-08-26T09:17:27Z</time>
      </trkpt>
      <trkpt lat="45.97581" lon="4.87182">
        <ele>283</ele>
        <time>2018-08-26T09:17:28Z</time>
      </trkpt>
      <trkpt lat="45.97586" lon="4.87186">
        <ele>283</ele>
        <time>2018-08-26T09:17:29Z</time>
      </trkpt>
      <trkpt lat="45.97591" lon="4.8719">
        <ele>283</ele>
        <time>2018-08-26T09:17:30Z</time>
      </trkpt>
      <trkpt lat="45.97596" lon="4.87198">
        <ele>283</ele>
        <time>2018-08-26T09:17:31Z</time>
      </trkpt>
      <trkpt lat="45.97602" lon="4.87204">
        <ele>284</ele>
        <time>2018-08-26T09:17:32Z</time>
      </trkpt>
      <trkpt lat="45.97608" lon="4.8721">
        <ele>284</ele>
        <time>2018-08-26T09:17:33Z</time>
      </trkpt>
      <trkpt lat="45.97612" lon="4.87215">
        <ele>284</ele>
        <time>2018-08-26T09:17:34Z</time>
      </trkpt>
      <trkpt lat="45.97616" lon="4.87221">
        <ele>284</ele>
        <time>2018-08-26T09:17:35Z</time>
      </trkpt>
      <trkpt lat="45.97622" lon="4.87223">
        <ele>284</ele>
        <time>2018-08-26T09:17:36Z</time>
      </trkpt>
      <trkpt lat="45.97626" lon="4.87228">
        <ele>284</ele>
        <time>2018-08-26T09:17:37Z</time>
      </trkpt>
      <trkpt lat="45.97631" lon="4.87233">
        <ele>284</ele>
        <time>2018-08-26T09:17:38Z</time>
      </trkpt>
      <trkpt lat="45.97636" lon="4.87237">
        <ele>284</ele>
        <time>2018-08-26T09:17:39Z</time>
      </trkpt>
      <trkpt lat="45.9764" lon="4.87241">
        <ele>284</ele>
        <time>2018-08-26T09:17:40Z</time>
      </trkpt>
      <trkpt lat="45.97645" lon="4.87245">
        <ele>285</ele>
        <time>2018-08-26T09:17:41Z</time>
      </trkpt>
      <trkpt lat="45.9765" lon="4.87251">
        <ele>285</ele>
        <time>2018-08-26T09:17:42Z</time>
      </trkpt>
      <trkpt lat="45.97656" lon="4.87256">
        <ele>285</ele>
        <time>2018-08-26T09:17:43Z</time>
      </trkpt>
      <trkpt lat="45.97661" lon="4.87262">
        <ele>285</ele>
        <time>2018-08-26T09:17:44Z</time>
      </trkpt>
      <trkpt lat="45.97666" lon="4.87262">
        <ele>285</ele>
        <time>2018-08-26T09:17:45Z</time>
      </trkpt>
      <trkpt lat="45.97671" lon="4.87268">
        <ele>286</ele>
        <time>2018-08-26T09:17:46Z</time>
      </trkpt>
      <trkpt lat="45.97676" lon="4.87273">
        <ele>286</ele>
        <time>2018-08-26T09:17:47Z</time>
      </trkpt>
      <trkpt lat="45.97681" lon="4.87277">
        <ele>286</ele>
        <time>2018-08-26T09:17:48Z</time>
      </trkpt>
      <trkpt lat="45.97687" lon="4.87283">
        <ele>286</ele>
        <time>2018-08-26T09:17:49Z</time>
      </trkpt>
      <trkpt lat="45.97693" lon="4.87287">
        <ele>286</ele>
        <time>2018-08-26T09:17:50Z</time>
      </trkpt>
      <trkpt lat="45.97697" lon="4.87292">
        <ele>286</ele>
        <time>2018-08-26T09:17:51Z</time>
      </trkpt>
      <trkpt lat="45.97702" lon="4.87297">
        <ele>286</ele>
        <time>2018-08-26T09:17:52Z</time>
      </trkpt>
      <trkpt lat="45.97709" lon="4.87303">
        <ele>286</ele>
        <time>2018-08-26T09:17:54Z</time>
      </trkpt>
      <trkpt lat="45.97712" lon="4.87309">
        <ele>286</ele>
        <time>2018-08-26T09:17:55Z</time>
      </trkpt>
      <trkpt lat="45.97716" lon="4.87315">
        <ele>286</ele>
        <time>2018-08-26T09:17:56Z</time>
      </trkpt>
      <trkpt lat="45.97721" lon="4.87321">
        <ele>286</ele>
        <time>2018-08-26T09:17:57Z</time>
      </trkpt>
      <trkpt lat="45.97722" lon="4.87326">
        <ele>286</ele>
        <time>2018-08-26T09:17:58Z</time>
      </trkpt>
      <trkpt lat="45.97726" lon="4.87331">
        <ele>286</ele>
        <time>2018-08-26T09:17:59Z</time>
      </trkpt>
      <trkpt lat="45.9773" lon="4.87338">
        <ele>286</ele>
        <time>2018-08-26T09:18:00Z</time>
      </trkpt>
      <trkpt lat="45.97734" lon="4.87343">
        <ele>286</ele>
        <time>2018-08-26T09:18:01Z</time>
      </trkpt>
      <trkpt lat="45.9774" lon="4.87351">
        <ele>286</ele>
        <time>2018-08-26T09:18:03Z</time>
      </trkpt>
      <trkpt lat="45.97744" lon="4.87358">
        <ele>286</ele>
        <time>2018-08-26T09:18:04Z</time>
      </trkpt>
      <trkpt lat="45.9775" lon="4.87367">
        <ele>285</ele>
        <time>2018-08-26T09:18:05Z</time>
      </trkpt>
      <trkpt lat="45.97754" lon="4.87372">
        <ele>285</ele>
        <time>2018-08-26T09:18:06Z</time>
      </trkpt>
      <trkpt lat="45.97758" lon="4.87377">
        <ele>284</ele>
        <time>2018-08-26T09:18:07Z</time>
      </trkpt>
      <trkpt lat="45.97762" lon="4.87382">
        <ele>284</ele>
        <time>2018-08-26T09:18:08Z</time>
      </trkpt>
      <trkpt lat="45.97769" lon="4.87389">
        <ele>284</ele>
        <time>2018-08-26T09:18:09Z</time>
      </trkpt>
      <trkpt lat="45.97774" lon="4.87396">
        <ele>284</ele>
        <time>2018-08-26T09:18:10Z</time>
      </trkpt>
      <trkpt lat="45.97779" lon="4.87401">
        <ele>284</ele>
        <time>2018-08-26T09:18:11Z</time>
      </trkpt>
      <trkpt lat="45.97784" lon="4.87405">
        <ele>284</ele>
        <time>2018-08-26T09:18:12Z</time>
      </trkpt>
      <trkpt lat="45.97791" lon="4.87411">
        <ele>284</ele>
        <time>2018-08-26T09:18:13Z</time>
      </trkpt>
      <trkpt lat="45.97793" lon="4.87415">
        <ele>284</ele>
        <time>2018-08-26T09:18:14Z</time>
      </trkpt>
      <trkpt lat="45.97799" lon="4.87421">
        <ele>283</ele>
        <time>2018-08-26T09:18:15Z</time>
      </trkpt>
      <trkpt lat="45.97804" lon="4.87427">
        <ele>283</ele>
        <time>2018-08-26T09:18:16Z</time>
      </trkpt>
      <trkpt lat="45.97809" lon="4.87433">
        <ele>282</ele>
        <time>2018-08-26T09:18:17Z</time>
      </trkpt>
      <trkpt lat="45.97814" lon="4.87438">
        <ele>282</ele>
        <time>2018-08-26T09:18:18Z</time>
      </trkpt>
      <trkpt lat="45.97819" lon="4.87445">
        <ele>282</ele>
        <time>2018-08-26T09:18:19Z</time>
      </trkpt>
      <trkpt lat="45.97826" lon="4.87451">
        <ele>282</ele>
        <time>2018-08-26T09:18:20Z</time>
      </trkpt>
      <trkpt lat="45.9783" lon="4.87457">
        <ele>282</ele>
        <time>2018-08-26T09:18:21Z</time>
      </trkpt>
      <trkpt lat="45.97835" lon="4.87463">
        <ele>281</ele>
        <time>2018-08-26T09:18:22Z</time>
      </trkpt>
      <trkpt lat="45.9784" lon="4.87468">
        <ele>281</ele>
        <time>2018-08-26T09:18:23Z</time>
      </trkpt>
      <trkpt lat="45.97845" lon="4.87474">
        <ele>281</ele>
        <time>2018-08-26T09:18:24Z</time>
      </trkpt>
      <trkpt lat="45.9785" lon="4.8748">
        <ele>281</ele>
        <time>2018-08-26T09:18:25Z</time>
      </trkpt>
      <trkpt lat="45.97856" lon="4.87486">
        <ele>281</ele>
        <time>2018-08-26T09:18:26Z</time>
      </trkpt>
      <trkpt lat="45.97861" lon="4.87491">
        <ele>280</ele>
        <time>2018-08-26T09:18:27Z</time>
      </trkpt>
      <trkpt lat="45.97866" lon="4.87496">
        <ele>280</ele>
        <time>2018-08-26T09:18:28Z</time>
      </trkpt>
      <trkpt lat="45.97871" lon="4.87502">
        <ele>281</ele>
        <time>2018-08-26T09:18:29Z</time>
      </trkpt>
      <trkpt lat="45.97877" lon="4.87506">
        <ele>281</ele>
        <time>2018-08-26T09:18:30Z</time>
      </trkpt>
      <trkpt lat="45.97881" lon="4.8751">
        <ele>281</ele>
        <time>2018-08-26T09:18:31Z</time>
      </trkpt>
      <trkpt lat="45.97889" lon="4.87513">
        <ele>281</ele>
        <time>2018-08-26T09:18:32Z</time>
      </trkpt>
      <trkpt lat="45.97896" lon="4.87515">
        <ele>280</ele>
        <time>2018-08-26T09:18:33Z</time>
      </trkpt>
      <trkpt lat="45.97901" lon="4.87517">
        <ele>280</ele>
        <time>2018-08-26T09:18:34Z</time>
      </trkpt>
      <trkpt lat="45.97908" lon="4.87519">
        <ele>280</ele>
        <time>2018-08-26T09:18:35Z</time>
      </trkpt>
      <trkpt lat="45.97916" lon="4.87519">
        <ele>280</ele>
        <time>2018-08-26T09:18:36Z</time>
      </trkpt>
      <trkpt lat="45.97922" lon="4.8752">
        <ele>280</ele>
        <time>2018-08-26T09:18:37Z</time>
      </trkpt>
      <trkpt lat="45.97927" lon="4.87522">
        <ele>279</ele>
        <time>2018-08-26T09:18:38Z</time>
      </trkpt>
      <trkpt lat="45.97935" lon="4.87525">
        <ele>279</ele>
        <time>2018-08-26T09:18:39Z</time>
      </trkpt>
      <trkpt lat="45.9794" lon="4.87525">
        <ele>279</ele>
        <time>2018-08-26T09:18:40Z</time>
      </trkpt>
      <trkpt lat="45.97946" lon="4.87528">
        <ele>279</ele>
        <time>2018-08-26T09:18:41Z</time>
      </trkpt>
      <trkpt lat="45.97951" lon="4.87531">
        <ele>279</ele>
        <time>2018-08-26T09:18:42Z</time>
      </trkpt>
      <trkpt lat="45.97957" lon="4.87534">
        <ele>279</ele>
        <time>2018-08-26T09:18:43Z</time>
      </trkpt>
      <trkpt lat="45.97964" lon="4.87538">
        <ele>279</ele>
        <time>2018-08-26T09:18:44Z</time>
      </trkpt>
      <trkpt lat="45.97969" lon="4.87542">
        <ele>279</ele>
        <time>2018-08-26T09:18:45Z</time>
      </trkpt>
      <trkpt lat="45.97975" lon="4.87546">
        <ele>279</ele>
        <time>2018-08-26T09:18:46Z</time>
      </trkpt>
      <trkpt lat="45.97979" lon="4.87551">
        <ele>279</ele>
        <time>2018-08-26T09:18:47Z</time>
      </trkpt>
      <trkpt lat="45.97985" lon="4.87555">
        <ele>279</ele>
        <time>2018-08-26T09:18:48Z</time>
      </trkpt>
      <trkpt lat="45.97989" lon="4.8756">
        <ele>279</ele>
        <time>2018-08-26T09:18:49Z</time>
      </trkpt>
      <trkpt lat="45.97992" lon="4.87566">
        <ele>280</ele>
        <time>2018-08-26T09:18:50Z</time>
      </trkpt>
      <trkpt lat="45.97995" lon="4.87571">
        <ele>280</ele>
        <time>2018-08-26T09:18:51Z</time>
      </trkpt>
      <trkpt lat="45.97998" lon="4.87579">
        <ele>280</ele>
        <time>2018-08-26T09:18:52Z</time>
      </trkpt>
      <trkpt lat="45.98001" lon="4.87586">
        <ele>280</ele>
        <time>2018-08-26T09:18:53Z</time>
      </trkpt>
      <trkpt lat="45.98004" lon="4.87591">
        <ele>280</ele>
        <time>2018-08-26T09:18:54Z</time>
      </trkpt>
      <trkpt lat="45.98006" lon="4.87597">
        <ele>280</ele>
        <time>2018-08-26T09:18:55Z</time>
      </trkpt>
      <trkpt lat="45.98009" lon="4.87603">
        <ele>280</ele>
        <time>2018-08-26T09:18:56Z</time>
      </trkpt>
      <trkpt lat="45.98011" lon="4.87609">
        <ele>280</ele>
        <time>2018-08-26T09:18:57Z</time>
      </trkpt>
      <trkpt lat="45.98012" lon="4.87615">
        <ele>280</ele>
        <time>2018-08-26T09:18:58Z</time>
      </trkpt>
      <trkpt lat="45.98014" lon="4.87622">
        <ele>280</ele>
        <time>2018-08-26T09:18:59Z</time>
      </trkpt>
      <trkpt lat="45.98015" lon="4.87629">
        <ele>280</ele>
        <time>2018-08-26T09:19:00Z</time>
      </trkpt>
      <trkpt lat="45.98018" lon="4.87639">
        <ele>280</ele>
        <time>2018-08-26T09:19:02Z</time>
      </trkpt>
      <trkpt lat="45.98021" lon="4.87647">
        <ele>280</ele>
        <time>2018-08-26T09:19:03Z</time>
      </trkpt>
      <trkpt lat="45.98024" lon="4.87656">
        <ele>280</ele>
        <time>2018-08-26T09:19:04Z</time>
      </trkpt>
      <trkpt lat="45.98026" lon="4.87662">
        <ele>280</ele>
        <time>2018-08-26T09:19:05Z</time>
      </trkpt>
      <trkpt lat="45.98028" lon="4.87669">
        <ele>280</ele>
        <time>2018-08-26T09:19:06Z</time>
      </trkpt>
      <trkpt lat="45.9803" lon="4.87676">
        <ele>280</ele>
        <time>2018-08-26T09:19:07Z</time>
      </trkpt>
      <trkpt lat="45.98032" lon="4.87683">
        <ele>280</ele>
        <time>2018-08-26T09:19:08Z</time>
      </trkpt>
      <trkpt lat="45.98033" lon="4.87691">
        <ele>280</ele>
        <time>2018-08-26T09:19:09Z</time>
      </trkpt>
      <trkpt lat="45.98035" lon="4.87699">
        <ele>280</ele>
        <time>2018-08-26T09:19:10Z</time>
      </trkpt>
      <trkpt lat="45.98038" lon="4.87705">
        <ele>280</ele>
        <time>2018-08-26T09:19:11Z</time>
      </trkpt>
      <trkpt lat="45.9804" lon="4.87712">
        <ele>279</ele>
        <time>2018-08-26T09:19:12Z</time>
      </trkpt>
      <trkpt lat="45.98042" lon="4.87719">
        <ele>279</ele>
        <time>2018-08-26T09:19:13Z</time>
      </trkpt>
      <trkpt lat="45.98043" lon="4.87726">
        <ele>280</ele>
        <time>2018-08-26T09:19:14Z</time>
      </trkpt>
      <trkpt lat="45.98045" lon="4.87733">
        <ele>280</ele>
        <time>2018-08-26T09:19:15Z</time>
      </trkpt>
      <trkpt lat="45.98047" lon="4.8774">
        <ele>280</ele>
        <time>2018-08-26T09:19:16Z</time>
      </trkpt>
      <trkpt lat="45.98049" lon="4.87746">
        <ele>280</ele>
        <time>2018-08-26T09:19:17Z</time>
      </trkpt>
      <trkpt lat="45.98051" lon="4.87752">
        <ele>280</ele>
        <time>2018-08-26T09:19:18Z</time>
      </trkpt>
      <trkpt lat="45.98053" lon="4.87759">
        <ele>280</ele>
        <time>2018-08-26T09:19:19Z</time>
      </trkpt>
      <trkpt lat="45.98055" lon="4.87767">
        <ele>280</ele>
        <time>2018-08-26T09:19:20Z</time>
      </trkpt>
      <trkpt lat="45.98059" lon="4.87774">
        <ele>280</ele>
        <time>2018-08-26T09:19:21Z</time>
      </trkpt>
      <trkpt lat="45.98061" lon="4.87781">
        <ele>280</ele>
        <time>2018-08-26T09:19:22Z</time>
      </trkpt>
      <trkpt lat="45.98064" lon="4.8779">
        <ele>280</ele>
        <time>2018-08-26T09:19:23Z</time>
      </trkpt>
      <trkpt lat="45.98066" lon="4.87799">
        <ele>280</ele>
        <time>2018-08-26T09:19:24Z</time>
      </trkpt>
      <trkpt lat="45.98069" lon="4.87808">
        <ele>280</ele>
        <time>2018-08-26T09:19:25Z</time>
      </trkpt>
      <trkpt lat="45.98071" lon="4.87816">
        <ele>279</ele>
        <time>2018-08-26T09:19:26Z</time>
      </trkpt>
      <trkpt lat="45.98074" lon="4.87824">
        <ele>279</ele>
        <time>2018-08-26T09:19:27Z</time>
      </trkpt>
      <trkpt lat="45.98076" lon="4.87832">
        <ele>279</ele>
        <time>2018-08-26T09:19:28Z</time>
      </trkpt>
      <trkpt lat="45.98079" lon="4.87841">
        <ele>279</ele>
        <time>2018-08-26T09:19:29Z</time>
      </trkpt>
      <trkpt lat="45.98081" lon="4.87848">
        <ele>279</ele>
        <time>2018-08-26T09:19:30Z</time>
      </trkpt>
      <trkpt lat="45.98083" lon="4.87856">
        <ele>280</ele>
        <time>2018-08-26T09:19:31Z</time>
      </trkpt>
      <trkpt lat="45.98083" lon="4.87862">
        <ele>280</ele>
        <time>2018-08-26T09:19:32Z</time>
      </trkpt>
      <trkpt lat="45.98085" lon="4.8787">
        <ele>278</ele>
        <time>2018-08-26T09:19:33Z</time>
      </trkpt>
      <trkpt lat="45.98088" lon="4.87879">
        <ele>278</ele>
        <time>2018-08-26T09:19:34Z</time>
      </trkpt>
      <trkpt lat="45.98091" lon="4.87888">
        <ele>278</ele>
        <time>2018-08-26T09:19:35Z</time>
      </trkpt>
      <trkpt lat="45.98092" lon="4.87897">
        <ele>278</ele>
        <time>2018-08-26T09:19:36Z</time>
      </trkpt>
      <trkpt lat="45.98094" lon="4.87904">
        <ele>278</ele>
        <time>2018-08-26T09:19:37Z</time>
      </trkpt>
      <trkpt lat="45.98098" lon="4.87913">
        <ele>278</ele>
        <time>2018-08-26T09:19:38Z</time>
      </trkpt>
      <trkpt lat="45.98102" lon="4.87923">
        <ele>277</ele>
        <time>2018-08-26T09:19:39Z</time>
      </trkpt>
      <trkpt lat="45.98102" lon="4.87929">
        <ele>277</ele>
        <time>2018-08-26T09:19:40Z</time>
      </trkpt>
      <trkpt lat="45.98105" lon="4.87937">
        <ele>277</ele>
        <time>2018-08-26T09:19:41Z</time>
      </trkpt>
      <trkpt lat="45.98106" lon="4.87945">
        <ele>277</ele>
        <time>2018-08-26T09:19:42Z</time>
      </trkpt>
      <trkpt lat="45.98108" lon="4.87954">
        <ele>277</ele>
        <time>2018-08-26T09:19:43Z</time>
      </trkpt>
      <trkpt lat="45.9811" lon="4.87963">
        <ele>277</ele>
        <time>2018-08-26T09:19:44Z</time>
      </trkpt>
      <trkpt lat="45.98113" lon="4.87971">
        <ele>277</ele>
        <time>2018-08-26T09:19:45Z</time>
      </trkpt>
      <trkpt lat="45.98116" lon="4.8798">
        <ele>277</ele>
        <time>2018-08-26T09:19:46Z</time>
      </trkpt>
      <trkpt lat="45.98118" lon="4.87988">
        <ele>277</ele>
        <time>2018-08-26T09:19:47Z</time>
      </trkpt>
      <trkpt lat="45.9812" lon="4.87997">
        <ele>277</ele>
        <time>2018-08-26T09:19:48Z</time>
      </trkpt>
      <trkpt lat="45.98122" lon="4.88006">
        <ele>276</ele>
        <time>2018-08-26T09:19:49Z</time>
      </trkpt>
      <trkpt lat="45.98125" lon="4.88015">
        <ele>276</ele>
        <time>2018-08-26T09:19:50Z</time>
      </trkpt>
      <trkpt lat="45.98128" lon="4.88024">
        <ele>276</ele>
        <time>2018-08-26T09:19:51Z</time>
      </trkpt>
      <trkpt lat="45.98131" lon="4.88034">
        <ele>276</ele>
        <time>2018-08-26T09:19:52Z</time>
      </trkpt>
      <trkpt lat="45.98134" lon="4.88043">
        <ele>276</ele>
        <time>2018-08-26T09:19:53Z</time>
      </trkpt>
      <trkpt lat="45.98135" lon="4.88052">
        <ele>275</ele>
        <time>2018-08-26T09:19:54Z</time>
      </trkpt>
      <trkpt lat="45.98137" lon="4.88062">
        <ele>275</ele>
        <time>2018-08-26T09:19:55Z</time>
      </trkpt>
      <trkpt lat="45.9814" lon="4.88071">
        <ele>275</ele>
        <time>2018-08-26T09:19:56Z</time>
      </trkpt>
      <trkpt lat="45.98143" lon="4.8808">
        <ele>275</ele>
        <time>2018-08-26T09:19:57Z</time>
      </trkpt>
      <trkpt lat="45.98146" lon="4.88089">
        <ele>274</ele>
        <time>2018-08-26T09:19:58Z</time>
      </trkpt>
      <trkpt lat="45.9815" lon="4.881">
        <ele>274</ele>
        <time>2018-08-26T09:19:59Z</time>
      </trkpt>
      <trkpt lat="45.98154" lon="4.88111">
        <ele>274</ele>
        <time>2018-08-26T09:20:00Z</time>
      </trkpt>
      <trkpt lat="45.98157" lon="4.88123">
        <ele>274</ele>
        <time>2018-08-26T09:20:01Z</time>
      </trkpt>
      <trkpt lat="45.9816" lon="4.88132">
        <ele>274</ele>
        <time>2018-08-26T09:20:02Z</time>
      </trkpt>
      <trkpt lat="45.98163" lon="4.88139">
        <ele>274</ele>
        <time>2018-08-26T09:20:03Z</time>
      </trkpt>
      <trkpt lat="45.98166" lon="4.88147">
        <ele>274</ele>
        <time>2018-08-26T09:20:04Z</time>
      </trkpt>
      <trkpt lat="45.98169" lon="4.88157">
        <ele>273</ele>
        <time>2018-08-26T09:20:05Z</time>
      </trkpt>
      <trkpt lat="45.98172" lon="4.88168">
        <ele>273</ele>
        <time>2018-08-26T09:20:06Z</time>
      </trkpt>
      <trkpt lat="45.98174" lon="4.88177">
        <ele>273</ele>
        <time>2018-08-26T09:20:07Z</time>
      </trkpt>
      <trkpt lat="45.98176" lon="4.88186">
        <ele>273</ele>
        <time>2018-08-26T09:20:08Z</time>
      </trkpt>
      <trkpt lat="45.98179" lon="4.88196">
        <ele>273</ele>
        <time>2018-08-26T09:20:09Z</time>
      </trkpt>
      <trkpt lat="45.9818" lon="4.88203">
        <ele>273</ele>
        <time>2018-08-26T09:20:10Z</time>
      </trkpt>
      <trkpt lat="45.98182" lon="4.88212">
        <ele>273</ele>
        <time>2018-08-26T09:20:11Z</time>
      </trkpt>
      <trkpt lat="45.98186" lon="4.8822">
        <ele>273</ele>
        <time>2018-08-26T09:20:12Z</time>
      </trkpt>
      <trkpt lat="45.98188" lon="4.88228">
        <ele>273</ele>
        <time>2018-08-26T09:20:13Z</time>
      </trkpt>
      <trkpt lat="45.98191" lon="4.88236">
        <ele>273</ele>
        <time>2018-08-26T09:20:14Z</time>
      </trkpt>
      <trkpt lat="45.98194" lon="4.88245">
        <ele>273</ele>
        <time>2018-08-26T09:20:15Z</time>
      </trkpt>
      <trkpt lat="45.98196" lon="4.88252">
        <ele>274</ele>
        <time>2018-08-26T09:20:16Z</time>
      </trkpt>
      <trkpt lat="45.98198" lon="4.88259">
        <ele>274</ele>
        <time>2018-08-26T09:20:17Z</time>
      </trkpt>
      <trkpt lat="45.98199" lon="4.88266">
        <ele>274</ele>
        <time>2018-08-26T09:20:18Z</time>
      </trkpt>
      <trkpt lat="45.98201" lon="4.88274">
        <ele>274</ele>
        <time>2018-08-26T09:20:19Z</time>
      </trkpt>
      <trkpt lat="45.98203" lon="4.88281">
        <ele>274</ele>
        <time>2018-08-26T09:20:20Z</time>
      </trkpt>
      <trkpt lat="45.98205" lon="4.88287">
        <ele>274</ele>
        <time>2018-08-26T09:20:21Z</time>
      </trkpt>
      <trkpt lat="45.98206" lon="4.88293">
        <ele>274</ele>
        <time>2018-08-26T09:20:22Z</time>
      </trkpt>
      <trkpt lat="45.98209" lon="4.883">
        <ele>274</ele>
        <time>2018-08-26T09:20:23Z</time>
      </trkpt>
      <trkpt lat="45.9821" lon="4.88306">
        <ele>274</ele>
        <time>2018-08-26T09:20:24Z</time>
      </trkpt>
      <trkpt lat="45.98211" lon="4.88313">
        <ele>274</ele>
        <time>2018-08-26T09:20:25Z</time>
      </trkpt>
      <trkpt lat="45.98211" lon="4.8832">
        <ele>274</ele>
        <time>2018-08-26T09:20:26Z</time>
      </trkpt>
      <trkpt lat="45.98212" lon="4.88328">
        <ele>274</ele>
        <time>2018-08-26T09:20:27Z</time>
      </trkpt>
      <trkpt lat="45.98212" lon="4.88334">
        <ele>275</ele>
        <time>2018-08-26T09:20:28Z</time>
      </trkpt>
      <trkpt lat="45.98212" lon="4.88342">
        <ele>275</ele>
        <time>2018-08-26T09:20:29Z</time>
      </trkpt>
      <trkpt lat="45.98212" lon="4.88353">
        <ele>275</ele>
        <time>2018-08-26T09:20:31Z</time>
      </trkpt>
      <trkpt lat="45.98214" lon="4.8836">
        <ele>275</ele>
        <time>2018-08-26T09:20:32Z</time>
      </trkpt>
      <trkpt lat="45.98216" lon="4.88367">
        <ele>275</ele>
        <time>2018-08-26T09:20:33Z</time>
      </trkpt>
      <trkpt lat="45.98217" lon="4.88374">
        <ele>275</ele>
        <time>2018-08-26T09:20:34Z</time>
      </trkpt>
      <trkpt lat="45.98221" lon="4.88386">
        <ele>275</ele>
        <time>2018-08-26T09:20:35Z</time>
      </trkpt>
      <trkpt lat="45.98222" lon="4.88392">
        <ele>275</ele>
        <time>2018-08-26T09:20:36Z</time>
      </trkpt>
      <trkpt lat="45.98224" lon="4.88398">
        <ele>275</ele>
        <time>2018-08-26T09:20:37Z</time>
      </trkpt>
      <trkpt lat="45.98225" lon="4.88405">
        <ele>275</ele>
        <time>2018-08-26T09:20:38Z</time>
      </trkpt>
      <trkpt lat="45.98227" lon="4.88411">
        <ele>275</ele>
        <time>2018-08-26T09:20:39Z</time>
      </trkpt>
      <trkpt lat="45.98228" lon="4.88418">
        <ele>276</ele>
        <time>2018-08-26T09:20:40Z</time>
      </trkpt>
      <trkpt lat="45.98228" lon="4.88424">
        <ele>276</ele>
        <time>2018-08-26T09:20:41Z</time>
      </trkpt>
      <trkpt lat="45.98229" lon="4.88437">
        <ele>276</ele>
        <time>2018-08-26T09:20:43Z</time>
      </trkpt>
      <trkpt lat="45.9823" lon="4.88443">
        <ele>276</ele>
        <time>2018-08-26T09:20:44Z</time>
      </trkpt>
      <trkpt lat="45.98232" lon="4.88449">
        <ele>276</ele>
        <time>2018-08-26T09:20:45Z</time>
      </trkpt>
      <trkpt lat="45.98233" lon="4.88457">
        <ele>276</ele>
        <time>2018-08-26T09:20:46Z</time>
      </trkpt>
      <trkpt lat="45.98234" lon="4.88463">
        <ele>276</ele>
        <time>2018-08-26T09:20:47Z</time>
      </trkpt>
      <trkpt lat="45.98237" lon="4.88471">
        <ele>276</ele>
        <time>2018-08-26T09:20:48Z</time>
      </trkpt>
      <trkpt lat="45.98237" lon="4.88477">
        <ele>276</ele>
        <time>2018-08-26T09:20:49Z</time>
      </trkpt>
      <trkpt lat="45.98239" lon="4.88484">
        <ele>276</ele>
        <time>2018-08-26T09:20:50Z</time>
      </trkpt>
      <trkpt lat="45.98241" lon="4.88491">
        <ele>276</ele>
        <time>2018-08-26T09:20:51Z</time>
      </trkpt>
      <trkpt lat="45.98243" lon="4.88497">
        <ele>277</ele>
        <time>2018-08-26T09:20:52Z</time>
      </trkpt>
      <trkpt lat="45.98246" lon="4.88505">
        <ele>277</ele>
        <time>2018-08-26T09:20:53Z</time>
      </trkpt>
      <trkpt lat="45.98248" lon="4.88513">
        <ele>276</ele>
        <time>2018-08-26T09:20:54Z</time>
      </trkpt>
      <trkpt lat="45.9825" lon="4.88521">
        <ele>276</ele>
        <time>2018-08-26T09:20:55Z</time>
      </trkpt>
      <trkpt lat="45.98251" lon="4.88527">
        <ele>277</ele>
        <time>2018-08-26T09:20:56Z</time>
      </trkpt>
      <trkpt lat="45.98254" lon="4.88536">
        <ele>276</ele>
        <time>2018-08-26T09:20:57Z</time>
      </trkpt>
      <trkpt lat="45.98255" lon="4.88543">
        <ele>276</ele>
        <time>2018-08-26T09:20:58Z</time>
      </trkpt>
      <trkpt lat="45.98258" lon="4.88551">
        <ele>276</ele>
        <time>2018-08-26T09:20:59Z</time>
      </trkpt>
      <trkpt lat="45.98259" lon="4.88557">
        <ele>276</ele>
        <time>2018-08-26T09:21:00Z</time>
      </trkpt>
      <trkpt lat="45.9826" lon="4.88565">
        <ele>276</ele>
        <time>2018-08-26T09:21:01Z</time>
      </trkpt>
      <trkpt lat="45.98261" lon="4.88571">
        <ele>276</ele>
        <time>2018-08-26T09:21:02Z</time>
      </trkpt>
      <trkpt lat="45.98263" lon="4.88579">
        <ele>276</ele>
        <time>2018-08-26T09:21:03Z</time>
      </trkpt>
      <trkpt lat="45.98264" lon="4.88586">
        <ele>275</ele>
        <time>2018-08-26T09:21:04Z</time>
      </trkpt>
      <trkpt lat="45.98263" lon="4.88596">
        <ele>275</ele>
        <time>2018-08-26T09:21:06Z</time>
      </trkpt>
      <trkpt lat="45.98266" lon="4.88603">
        <ele>275</ele>
        <time>2018-08-26T09:21:07Z</time>
      </trkpt>
      <trkpt lat="45.98267" lon="4.8861">
        <ele>276</ele>
        <time>2018-08-26T09:21:08Z</time>
      </trkpt>
      <trkpt lat="45.98271" lon="4.88619">
        <ele>276</ele>
        <time>2018-08-26T09:21:09Z</time>
      </trkpt>
      <trkpt lat="45.98271" lon="4.88626">
        <ele>276</ele>
        <time>2018-08-26T09:21:10Z</time>
      </trkpt>
      <trkpt lat="45.98273" lon="4.88633">
        <ele>276</ele>
        <time>2018-08-26T09:21:11Z</time>
      </trkpt>
      <trkpt lat="45.98275" lon="4.88645">
        <ele>276</ele>
        <time>2018-08-26T09:21:13Z</time>
      </trkpt>
      <trkpt lat="45.98277" lon="4.88652">
        <ele>276</ele>
        <time>2018-08-26T09:21:14Z</time>
      </trkpt>
      <trkpt lat="45.98278" lon="4.88659">
        <ele>276</ele>
        <time>2018-08-26T09:21:15Z</time>
      </trkpt>
      <trkpt lat="45.9828" lon="4.88664">
        <ele>276</ele>
        <time>2018-08-26T09:21:16Z</time>
      </trkpt>
      <trkpt lat="45.98282" lon="4.88676">
        <ele>276</ele>
        <time>2018-08-26T09:21:18Z</time>
      </trkpt>
      <trkpt lat="45.98283" lon="4.88683">
        <ele>276</ele>
        <time>2018-08-26T09:21:19Z</time>
      </trkpt>
      <trkpt lat="45.98285" lon="4.88689">
        <ele>276</ele>
        <time>2018-08-26T09:21:20Z</time>
      </trkpt>
      <trkpt lat="45.98286" lon="4.88695">
        <ele>276</ele>
        <time>2018-08-26T09:21:21Z</time>
      </trkpt>
      <trkpt lat="45.98289" lon="4.88703">
        <ele>276</ele>
        <time>2018-08-26T09:21:22Z</time>
      </trkpt>
      <trkpt lat="45.98291" lon="4.88709">
        <ele>276</ele>
        <time>2018-08-26T09:21:23Z</time>
      </trkpt>
      <trkpt lat="45.98293" lon="4.88715">
        <ele>276</ele>
        <time>2018-08-26T09:21:24Z</time>
      </trkpt>
      <trkpt lat="45.98294" lon="4.88722">
        <ele>276</ele>
        <time>2018-08-26T09:21:25Z</time>
      </trkpt>
      <trkpt lat="45.98297" lon="4.88734">
        <ele>276</ele>
        <time>2018-08-26T09:21:27Z</time>
      </trkpt>
      <trkpt lat="45.98299" lon="4.88743">
        <ele>276</ele>
        <time>2018-08-26T09:21:28Z</time>
      </trkpt>
      <trkpt lat="45.983" lon="4.88748">
        <ele>276</ele>
        <time>2018-08-26T09:21:29Z</time>
      </trkpt>
      <trkpt lat="45.98303" lon="4.88756">
        <ele>276</ele>
        <time>2018-08-26T09:21:30Z</time>
      </trkpt>
      <trkpt lat="45.98306" lon="4.88762">
        <ele>276</ele>
        <time>2018-08-26T09:21:31Z</time>
      </trkpt>
      <trkpt lat="45.98308" lon="4.88769">
        <ele>277</ele>
        <time>2018-08-26T09:21:32Z</time>
      </trkpt>
      <trkpt lat="45.9831" lon="4.88776">
        <ele>277</ele>
        <time>2018-08-26T09:21:33Z</time>
      </trkpt>
      <trkpt lat="45.98312" lon="4.88782">
        <ele>277</ele>
        <time>2018-08-26T09:21:34Z</time>
      </trkpt>
      <trkpt lat="45.98313" lon="4.8879">
        <ele>277</ele>
        <time>2018-08-26T09:21:35Z</time>
      </trkpt>
      <trkpt lat="45.98315" lon="4.88795">
        <ele>277</ele>
        <time>2018-08-26T09:21:36Z</time>
      </trkpt>
      <trkpt lat="45.98317" lon="4.88803">
        <ele>277</ele>
        <time>2018-08-26T09:21:37Z</time>
      </trkpt>
      <trkpt lat="45.98319" lon="4.8881">
        <ele>277</ele>
        <time>2018-08-26T09:21:38Z</time>
      </trkpt>
      <trkpt lat="45.98321" lon="4.88817">
        <ele>277</ele>
        <time>2018-08-26T09:21:39Z</time>
      </trkpt>
      <trkpt lat="45.98323" lon="4.88825">
        <ele>277</ele>
        <time>2018-08-26T09:21:40Z</time>
      </trkpt>
      <trkpt lat="45.98326" lon="4.88835">
        <ele>278</ele>
        <time>2018-08-26T09:21:42Z</time>
      </trkpt>
      <trkpt lat="45.98329" lon="4.88838">
        <ele>278</ele>
        <time>2018-08-26T09:21:43Z</time>
      </trkpt>
      <trkpt lat="45.98331" lon="4.88845">
        <ele>278</ele>
        <time>2018-08-26T09:21:44Z</time>
      </trkpt>
      <trkpt lat="45.98332" lon="4.88851">
        <ele>278</ele>
        <time>2018-08-26T09:21:45Z</time>
      </trkpt>
      <trkpt lat="45.98334" lon="4.88858">
        <ele>280</ele>
        <time>2018-08-26T09:21:46Z</time>
      </trkpt>
      <trkpt lat="45.98335" lon="4.88865">
        <ele>280</ele>
        <time>2018-08-26T09:21:47Z</time>
      </trkpt>
      <trkpt lat="45.98336" lon="4.88873">
        <ele>280</ele>
        <time>2018-08-26T09:21:48Z</time>
      </trkpt>
      <trkpt lat="45.98336" lon="4.88879">
        <ele>280</ele>
        <time>2018-08-26T09:21:49Z</time>
      </trkpt>
      <trkpt lat="45.98338" lon="4.88886">
        <ele>280</ele>
        <time>2018-08-26T09:21:50Z</time>
      </trkpt>
      <trkpt lat="45.98339" lon="4.88893">
        <ele>280</ele>
        <time>2018-08-26T09:21:51Z</time>
      </trkpt>
      <trkpt lat="45.9834" lon="4.889">
        <ele>280</ele>
        <time>2018-08-26T09:21:52Z</time>
      </trkpt>
      <trkpt lat="45.98345" lon="4.88909">
        <ele>280</ele>
        <time>2018-08-26T09:21:53Z</time>
      </trkpt>
      <trkpt lat="45.98347" lon="4.88921">
        <ele>281</ele>
        <time>2018-08-26T09:21:55Z</time>
      </trkpt>
      <trkpt lat="45.98348" lon="4.88927">
        <ele>281</ele>
        <time>2018-08-26T09:21:56Z</time>
      </trkpt>
      <trkpt lat="45.98351" lon="4.88938">
        <ele>281</ele>
        <time>2018-08-26T09:21:58Z</time>
      </trkpt>
      <trkpt lat="45.98353" lon="4.88943">
        <ele>282</ele>
        <time>2018-08-26T09:21:59Z</time>
      </trkpt>
      <trkpt lat="45.98355" lon="4.88954">
        <ele>282</ele>
        <time>2018-08-26T09:22:01Z</time>
      </trkpt>
      <trkpt lat="45.98356" lon="4.8896">
        <ele>282</ele>
        <time>2018-08-26T09:22:02Z</time>
      </trkpt>
      <trkpt lat="45.98356" lon="4.88971">
        <ele>282</ele>
        <time>2018-08-26T09:22:04Z</time>
      </trkpt>
      <trkpt lat="45.98358" lon="4.88977">
        <ele>282</ele>
        <time>2018-08-26T09:22:05Z</time>
      </trkpt>
      <trkpt lat="45.98359" lon="4.88983">
        <ele>282</ele>
        <time>2018-08-26T09:22:06Z</time>
      </trkpt>
      <trkpt lat="45.98361" lon="4.88991">
        <ele>282</ele>
        <time>2018-08-26T09:22:07Z</time>
      </trkpt>
      <trkpt lat="45.98362" lon="4.88997">
        <ele>282</ele>
        <time>2018-08-26T09:22:08Z</time>
      </trkpt>
      <trkpt lat="45.98363" lon="4.89004">
        <ele>283</ele>
        <time>2018-08-26T09:22:09Z</time>
      </trkpt>
      <trkpt lat="45.98366" lon="4.89011">
        <ele>283</ele>
        <time>2018-08-26T09:22:10Z</time>
      </trkpt>
      <trkpt lat="45.98366" lon="4.89016">
        <ele>283</ele>
        <time>2018-08-26T09:22:11Z</time>
      </trkpt>
      <trkpt lat="45.98367" lon="4.89022">
        <ele>284</ele>
        <time>2018-08-26T09:22:12Z</time>
      </trkpt>
      <trkpt lat="45.98369" lon="4.89029">
        <ele>284</ele>
        <time>2018-08-26T09:22:13Z</time>
      </trkpt>
      <trkpt lat="45.98373" lon="4.8904">
        <ele>284</ele>
        <time>2018-08-26T09:22:15Z</time>
      </trkpt>
      <trkpt lat="45.98375" lon="4.89046">
        <ele>284</ele>
        <time>2018-08-26T09:22:16Z</time>
      </trkpt>
      <trkpt lat="45.98376" lon="4.89052">
        <ele>284</ele>
        <time>2018-08-26T09:22:17Z</time>
      </trkpt>
      <trkpt lat="45.98378" lon="4.89058">
        <ele>284</ele>
        <time>2018-08-26T09:22:18Z</time>
      </trkpt>
      <trkpt lat="45.98383" lon="4.89068">
        <ele>285</ele>
        <time>2018-08-26T09:22:20Z</time>
      </trkpt>
      <trkpt lat="45.98385" lon="4.89072">
        <ele>285</ele>
        <time>2018-08-26T09:22:21Z</time>
      </trkpt>
      <trkpt lat="45.98391" lon="4.8908">
        <ele>285</ele>
        <time>2018-08-26T09:22:23Z</time>
      </trkpt>
      <trkpt lat="45.98393" lon="4.89084">
        <ele>286</ele>
        <time>2018-08-26T09:22:24Z</time>
      </trkpt>
      <trkpt lat="45.98398" lon="4.89094">
        <ele>286</ele>
        <time>2018-08-26T09:22:26Z</time>
      </trkpt>
      <trkpt lat="45.98401" lon="4.89098">
        <ele>286</ele>
        <time>2018-08-26T09:22:27Z</time>
      </trkpt>
      <trkpt lat="45.98405" lon="4.89107">
        <ele>286</ele>
        <time>2018-08-26T09:22:29Z</time>
      </trkpt>
      <trkpt lat="45.98409" lon="4.89111">
        <ele>286</ele>
        <time>2018-08-26T09:22:30Z</time>
      </trkpt>
      <trkpt lat="45.98414" lon="4.89118">
        <ele>286</ele>
        <time>2018-08-26T09:22:32Z</time>
      </trkpt>
      <trkpt lat="45.98418" lon="4.89122">
        <ele>288</ele>
        <time>2018-08-26T09:22:33Z</time>
      </trkpt>
      <trkpt lat="45.98423" lon="4.89129">
        <ele>288</ele>
        <time>2018-08-26T09:22:35Z</time>
      </trkpt>
      <trkpt lat="45.98426" lon="4.89134">
        <ele>288</ele>
        <time>2018-08-26T09:22:36Z</time>
      </trkpt>
      <trkpt lat="45.98431" lon="4.89143">
        <ele>288</ele>
        <time>2018-08-26T09:22:38Z</time>
      </trkpt>
      <trkpt lat="45.98434" lon="4.89148">
        <ele>288</ele>
        <time>2018-08-26T09:22:39Z</time>
      </trkpt>
      <trkpt lat="45.98439" lon="4.89158">
        <ele>288</ele>
        <time>2018-08-26T09:22:41Z</time>
      </trkpt>
      <trkpt lat="45.98441" lon="4.89163">
        <ele>288</ele>
        <time>2018-08-26T09:22:42Z</time>
      </trkpt>
      <trkpt lat="45.98446" lon="4.89171">
        <ele>288</ele>
        <time>2018-08-26T09:22:44Z</time>
      </trkpt>
      <trkpt lat="45.98447" lon="4.89174">
        <ele>288</ele>
        <time>2018-08-26T09:22:45Z</time>
      </trkpt>
      <trkpt lat="45.98452" lon="4.89183">
        <ele>289</ele>
        <time>2018-08-26T09:22:48Z</time>
      </trkpt>
      <trkpt lat="45.98453" lon="4.89186">
        <ele>289</ele>
        <time>2018-08-26T09:22:49Z</time>
      </trkpt>
      <trkpt lat="45.98458" lon="4.89197">
        <ele>289</ele>
        <time>2018-08-26T09:22:52Z</time>
      </trkpt>
      <trkpt lat="45.9846" lon="4.89201">
        <ele>289</ele>
        <time>2018-08-26T09:22:53Z</time>
      </trkpt>
      <trkpt lat="45.98463" lon="4.89208">
        <ele>289</ele>
        <time>2018-08-26T09:22:55Z</time>
      </trkpt>
      <trkpt lat="45.98465" lon="4.89212">
        <ele>289</ele>
        <time>2018-08-26T09:22:56Z</time>
      </trkpt>
      <trkpt lat="45.9847" lon="4.89224">
        <ele>289</ele>
        <time>2018-08-26T09:22:57Z</time>
      </trkpt>
      <trkpt lat="45.98474" lon="4.89231">
        <ele>289</ele>
        <time>2018-08-26T09:22:59Z</time>
      </trkpt>
      <trkpt lat="45.98477" lon="4.89237">
        <ele>289</ele>
        <time>2018-08-26T09:23:00Z</time>
      </trkpt>
      <trkpt lat="45.98481" lon="4.89244">
        <ele>289</ele>
        <time>2018-08-26T09:23:03Z</time>
      </trkpt>
      <trkpt lat="45.98485" lon="4.89253">
        <ele>291</ele>
        <time>2018-08-26T09:23:04Z</time>
      </trkpt>
      <trkpt lat="45.98489" lon="4.89263">
        <ele>291</ele>
        <time>2018-08-26T09:23:06Z</time>
      </trkpt>
      <trkpt lat="45.98492" lon="4.89267">
        <ele>291</ele>
        <time>2018-08-26T09:23:07Z</time>
      </trkpt>
      <trkpt lat="45.98495" lon="4.89272">
        <ele>292</ele>
        <time>2018-08-26T09:23:09Z</time>
      </trkpt>
      <trkpt lat="45.98499" lon="4.89279">
        <ele>292</ele>
        <time>2018-08-26T09:23:10Z</time>
      </trkpt>
      <trkpt lat="45.98504" lon="4.89288">
        <ele>292</ele>
        <time>2018-08-26T09:23:12Z</time>
      </trkpt>
      <trkpt lat="45.98506" lon="4.89292">
        <ele>292</ele>
        <time>2018-08-26T09:23:13Z</time>
      </trkpt>
      <trkpt lat="45.98512" lon="4.893">
        <ele>293</ele>
        <time>2018-08-26T09:23:15Z</time>
      </trkpt>
      <trkpt lat="45.98515" lon="4.89305">
        <ele>293</ele>
        <time>2018-08-26T09:23:16Z</time>
      </trkpt>
      <trkpt lat="45.98518" lon="4.89311">
        <ele>293</ele>
        <time>2018-08-26T09:23:17Z</time>
      </trkpt>
      <trkpt lat="45.98521" lon="4.89316">
        <ele>293</ele>
        <time>2018-08-26T09:23:18Z</time>
      </trkpt>
      <trkpt lat="45.98527" lon="4.89325">
        <ele>293</ele>
        <time>2018-08-26T09:23:20Z</time>
      </trkpt>
      <trkpt lat="45.98529" lon="4.89329">
        <ele>293</ele>
        <time>2018-08-26T09:23:21Z</time>
      </trkpt>
      <trkpt lat="45.98532" lon="4.89334">
        <ele>295</ele>
        <time>2018-08-26T09:23:22Z</time>
      </trkpt>
      <trkpt lat="45.98537" lon="4.8934">
        <ele>295</ele>
        <time>2018-08-26T09:23:23Z</time>
      </trkpt>
      <trkpt lat="45.9854" lon="4.89344">
        <ele>295</ele>
        <time>2018-08-26T09:23:24Z</time>
      </trkpt>
      <trkpt lat="45.98545" lon="4.89349">
        <ele>295</ele>
        <time>2018-08-26T09:23:25Z</time>
      </trkpt>
      <trkpt lat="45.98548" lon="4.89354">
        <ele>295</ele>
        <time>2018-08-26T09:23:26Z</time>
      </trkpt>
      <trkpt lat="45.98552" lon="4.89359">
        <ele>295</ele>
        <time>2018-08-26T09:23:27Z</time>
      </trkpt>
      <trkpt lat="45.98555" lon="4.89362">
        <ele>295</ele>
        <time>2018-08-26T09:23:28Z</time>
      </trkpt>
      <trkpt lat="45.98559" lon="4.89367">
        <ele>295</ele>
        <time>2018-08-26T09:23:29Z</time>
      </trkpt>
      <trkpt lat="45.98563" lon="4.89371">
        <ele>295</ele>
        <time>2018-08-26T09:23:30Z</time>
      </trkpt>
      <trkpt lat="45.98567" lon="4.89374">
        <ele>295</ele>
        <time>2018-08-26T09:23:31Z</time>
      </trkpt>
      <trkpt lat="45.98571" lon="4.89379">
        <ele>295</ele>
        <time>2018-08-26T09:23:32Z</time>
      </trkpt>
      <trkpt lat="45.98574" lon="4.89384">
        <ele>295</ele>
        <time>2018-08-26T09:23:33Z</time>
      </trkpt>
      <trkpt lat="45.98577" lon="4.8939">
        <ele>295</ele>
        <time>2018-08-26T09:23:34Z</time>
      </trkpt>
      <trkpt lat="45.98581" lon="4.89394">
        <ele>295</ele>
        <time>2018-08-26T09:23:35Z</time>
      </trkpt>
      <trkpt lat="45.98584" lon="4.894">
        <ele>292</ele>
        <time>2018-08-26T09:23:36Z</time>
      </trkpt>
      <trkpt lat="45.98588" lon="4.89403">
        <ele>292</ele>
        <time>2018-08-26T09:23:37Z</time>
      </trkpt>
      <trkpt lat="45.98592" lon="4.89406">
        <ele>292</ele>
        <time>2018-08-26T09:23:38Z</time>
      </trkpt>
      <trkpt lat="45.98596" lon="4.89411">
        <ele>292</ele>
        <time>2018-08-26T09:23:39Z</time>
      </trkpt>
      <trkpt lat="45.98602" lon="4.89412">
        <ele>292</ele>
        <time>2018-08-26T09:23:40Z</time>
      </trkpt>
      <trkpt lat="45.98606" lon="4.89415">
        <ele>292</ele>
        <time>2018-08-26T09:23:41Z</time>
      </trkpt>
      <trkpt lat="45.98608" lon="4.89421">
        <ele>292</ele>
        <time>2018-08-26T09:23:42Z</time>
      </trkpt>
      <trkpt lat="45.98613" lon="4.89424">
        <ele>292</ele>
        <time>2018-08-26T09:23:43Z</time>
      </trkpt>
      <trkpt lat="45.98619" lon="4.8943">
        <ele>291</ele>
        <time>2018-08-26T09:23:45Z</time>
      </trkpt>
      <trkpt lat="45.98624" lon="4.89433">
        <ele>291</ele>
        <time>2018-08-26T09:23:46Z</time>
      </trkpt>
      <trkpt lat="45.9863" lon="4.89438">
        <ele>291</ele>
        <time>2018-08-26T09:23:47Z</time>
      </trkpt>
      <trkpt lat="45.98634" lon="4.89441">
        <ele>291</ele>
        <time>2018-08-26T09:23:48Z</time>
      </trkpt>
      <trkpt lat="45.98638" lon="4.89444">
        <ele>291</ele>
        <time>2018-08-26T09:23:49Z</time>
      </trkpt>
      <trkpt lat="45.98642" lon="4.89448">
        <ele>291</ele>
        <time>2018-08-26T09:23:50Z</time>
      </trkpt>
      <trkpt lat="45.98646" lon="4.89452">
        <ele>291</ele>
        <time>2018-08-26T09:23:51Z</time>
      </trkpt>
      <trkpt lat="45.98651" lon="4.89456">
        <ele>290</ele>
        <time>2018-08-26T09:23:52Z</time>
      </trkpt>
      <trkpt lat="45.98655" lon="4.89459">
        <ele>290</ele>
        <time>2018-08-26T09:23:53Z</time>
      </trkpt>
      <trkpt lat="45.9866" lon="4.89464">
        <ele>290</ele>
        <time>2018-08-26T09:23:54Z</time>
      </trkpt>
      <trkpt lat="45.98666" lon="4.89472">
        <ele>290</ele>
        <time>2018-08-26T09:23:56Z</time>
      </trkpt>
      <trkpt lat="45.98669" lon="4.89476">
        <ele>289</ele>
        <time>2018-08-26T09:23:57Z</time>
      </trkpt>
      <trkpt lat="45.98675" lon="4.89485">
        <ele>289</ele>
        <time>2018-08-26T09:23:59Z</time>
      </trkpt>
      <trkpt lat="45.98679" lon="4.89489">
        <ele>289</ele>
        <time>2018-08-26T09:24:00Z</time>
      </trkpt>
      <trkpt lat="45.98686" lon="4.89496">
        <ele>289</ele>
        <time>2018-08-26T09:24:02Z</time>
      </trkpt>
      <trkpt lat="45.98689" lon="4.89501">
        <ele>289</ele>
        <time>2018-08-26T09:24:03Z</time>
      </trkpt>
      <trkpt lat="45.98691" lon="4.89506">
        <ele>289</ele>
        <time>2018-08-26T09:24:04Z</time>
      </trkpt>
      <trkpt lat="45.98695" lon="4.89511">
        <ele>289</ele>
        <time>2018-08-26T09:24:05Z</time>
      </trkpt>
      <trkpt lat="45.98701" lon="4.8952">
        <ele>289</ele>
        <time>2018-08-26T09:24:07Z</time>
      </trkpt>
      <trkpt lat="45.98704" lon="4.89523">
        <ele>289</ele>
        <time>2018-08-26T09:24:08Z</time>
      </trkpt>
      <trkpt lat="45.98707" lon="4.89528">
        <ele>289</ele>
        <time>2018-08-26T09:24:09Z</time>
      </trkpt>
      <trkpt lat="45.98711" lon="4.89533">
        <ele>289</ele>
        <time>2018-08-26T09:24:10Z</time>
      </trkpt>
      <trkpt lat="45.98718" lon="4.8954">
        <ele>290</ele>
        <time>2018-08-26T09:24:12Z</time>
      </trkpt>
      <trkpt lat="45.98722" lon="4.89545">
        <ele>290</ele>
        <time>2018-08-26T09:24:13Z</time>
      </trkpt>
      <trkpt lat="45.98725" lon="4.89548">
        <ele>290</ele>
        <time>2018-08-26T09:24:14Z</time>
      </trkpt>
      <trkpt lat="45.9873" lon="4.89554">
        <ele>290</ele>
        <time>2018-08-26T09:24:15Z</time>
      </trkpt>
      <trkpt lat="45.98732" lon="4.8956">
        <ele>290</ele>
        <time>2018-08-26T09:24:16Z</time>
      </trkpt>
      <trkpt lat="45.98736" lon="4.89565">
        <ele>290</ele>
        <time>2018-08-26T09:24:17Z</time>
      </trkpt>
      <trkpt lat="45.98739" lon="4.89571">
        <ele>290</ele>
        <time>2018-08-26T09:24:18Z</time>
      </trkpt>
      <trkpt lat="45.98742" lon="4.89577">
        <ele>290</ele>
        <time>2018-08-26T09:24:19Z</time>
      </trkpt>
      <trkpt lat="45.98746" lon="4.89582">
        <ele>291</ele>
        <time>2018-08-26T09:24:20Z</time>
      </trkpt>
      <trkpt lat="45.9875" lon="4.89589">
        <ele>291</ele>
        <time>2018-08-26T09:24:21Z</time>
      </trkpt>
      <trkpt lat="45.98756" lon="4.89597">
        <ele>291</ele>
        <time>2018-08-26T09:24:23Z</time>
      </trkpt>
      <trkpt lat="45.98759" lon="4.89602">
        <ele>291</ele>
        <time>2018-08-26T09:24:24Z</time>
      </trkpt>
      <trkpt lat="45.98762" lon="4.89606">
        <ele>291</ele>
        <time>2018-08-26T09:24:25Z</time>
      </trkpt>
      <trkpt lat="45.98766" lon="4.89611">
        <ele>291</ele>
        <time>2018-08-26T09:24:26Z</time>
      </trkpt>
      <trkpt lat="45.98772" lon="4.8962">
        <ele>291</ele>
        <time>2018-08-26T09:24:28Z</time>
      </trkpt>
      <trkpt lat="45.98775" lon="4.89625">
        <ele>291</ele>
        <time>2018-08-26T09:24:29Z</time>
      </trkpt>
      <trkpt lat="45.98781" lon="4.89635">
        <ele>291</ele>
        <time>2018-08-26T09:24:31Z</time>
      </trkpt>
      <trkpt lat="45.98783" lon="4.89638">
        <ele>291</ele>
        <time>2018-08-26T09:24:32Z</time>
      </trkpt>
      <trkpt lat="45.98789" lon="4.89647">
        <ele>291</ele>
        <time>2018-08-26T09:24:34Z</time>
      </trkpt>
      <trkpt lat="45.98792" lon="4.89651">
        <ele>291</ele>
        <time>2018-08-26T09:24:35Z</time>
      </trkpt>
      <trkpt lat="45.98799" lon="4.89658">
        <ele>291</ele>
        <time>2018-08-26T09:24:37Z</time>
      </trkpt>
      <trkpt lat="45.98801" lon="4.89662">
        <ele>291</ele>
        <time>2018-08-26T09:24:38Z</time>
      </trkpt>
      <trkpt lat="45.98807" lon="4.89669">
        <ele>292</ele>
        <time>2018-08-26T09:24:40Z</time>
      </trkpt>
      <trkpt lat="45.98811" lon="4.89673">
        <ele>292</ele>
        <time>2018-08-26T09:24:41Z</time>
      </trkpt>
      <trkpt lat="45.98815" lon="4.89677">
        <ele>292</ele>
        <time>2018-08-26T09:24:42Z</time>
      </trkpt>
      <trkpt lat="45.98819" lon="4.89682">
        <ele>292</ele>
        <time>2018-08-26T09:24:43Z</time>
      </trkpt>
      <trkpt lat="45.98826" lon="4.8969">
        <ele>292</ele>
        <time>2018-08-26T09:24:45Z</time>
      </trkpt>
      <trkpt lat="45.9883" lon="4.89694">
        <ele>292</ele>
        <time>2018-08-26T09:24:46Z</time>
      </trkpt>
      <trkpt lat="45.98837" lon="4.89696">
        <ele>292</ele>
        <time>2018-08-26T09:24:48Z</time>
      </trkpt>
      <trkpt lat="45.98842" lon="4.89698">
        <ele>292</ele>
        <time>2018-08-26T09:24:49Z</time>
      </trkpt>
      <trkpt lat="45.98849" lon="4.89705">
        <ele>292</ele>
        <time>2018-08-26T09:24:51Z</time>
      </trkpt>
      <trkpt lat="45.98854" lon="4.89709">
        <ele>293</ele>
        <time>2018-08-26T09:24:52Z</time>
      </trkpt>
      <trkpt lat="45.98861" lon="4.89716">
        <ele>293</ele>
        <time>2018-08-26T09:24:54Z</time>
      </trkpt>
      <trkpt lat="45.98865" lon="4.8972">
        <ele>293</ele>
        <time>2018-08-26T09:24:55Z</time>
      </trkpt>
      <trkpt lat="45.98873" lon="4.89726">
        <ele>293</ele>
        <time>2018-08-26T09:24:57Z</time>
      </trkpt>
      <trkpt lat="45.98877" lon="4.89729">
        <ele>293</ele>
        <time>2018-08-26T09:24:58Z</time>
      </trkpt>
      <trkpt lat="45.98884" lon="4.89734">
        <ele>293</ele>
        <time>2018-08-26T09:25:00Z</time>
      </trkpt>
      <trkpt lat="45.98888" lon="4.89737">
        <ele>293</ele>
        <time>2018-08-26T09:25:01Z</time>
      </trkpt>
      <trkpt lat="45.98895" lon="4.89741">
        <ele>293</ele>
        <time>2018-08-26T09:25:03Z</time>
      </trkpt>
      <trkpt lat="45.98899" lon="4.89744">
        <ele>293</ele>
        <time>2018-08-26T09:25:04Z</time>
      </trkpt>
      <trkpt lat="45.98907" lon="4.8975">
        <ele>293</ele>
        <time>2018-08-26T09:25:06Z</time>
      </trkpt>
      <trkpt lat="45.98912" lon="4.89753">
        <ele>293</ele>
        <time>2018-08-26T09:25:07Z</time>
      </trkpt>
      <trkpt lat="45.98918" lon="4.89756">
        <ele>293</ele>
        <time>2018-08-26T09:25:08Z</time>
      </trkpt>
      <trkpt lat="45.98923" lon="4.8976">
        <ele>293</ele>
        <time>2018-08-26T09:25:09Z</time>
      </trkpt>
      <trkpt lat="45.98929" lon="4.89764">
        <ele>293</ele>
        <time>2018-08-26T09:25:10Z</time>
      </trkpt>
      <trkpt lat="45.98933" lon="4.89767">
        <ele>293</ele>
        <time>2018-08-26T09:25:11Z</time>
      </trkpt>
      <trkpt lat="45.98938" lon="4.89769">
        <ele>293</ele>
        <time>2018-08-26T09:25:12Z</time>
      </trkpt>
      <trkpt lat="45.98942" lon="4.89772">
        <ele>293</ele>
        <time>2018-08-26T09:25:13Z</time>
      </trkpt>
      <trkpt lat="45.98946" lon="4.89776">
        <ele>293</ele>
        <time>2018-08-26T09:25:14Z</time>
      </trkpt>
      <trkpt lat="45.98951" lon="4.8978">
        <ele>293</ele>
        <time>2018-08-26T09:25:15Z</time>
      </trkpt>
      <trkpt lat="45.98955" lon="4.89784">
        <ele>293</ele>
        <time>2018-08-26T09:25:16Z</time>
      </trkpt>
      <trkpt lat="45.9896" lon="4.89787">
        <ele>293</ele>
        <time>2018-08-26T09:25:17Z</time>
      </trkpt>
      <trkpt lat="45.98964" lon="4.8979">
        <ele>293</ele>
        <time>2018-08-26T09:25:18Z</time>
      </trkpt>
      <trkpt lat="45.98969" lon="4.89795">
        <ele>293</ele>
        <time>2018-08-26T09:25:19Z</time>
      </trkpt>
      <trkpt lat="45.98973" lon="4.89798">
        <ele>293</ele>
        <time>2018-08-26T09:25:20Z</time>
      </trkpt>
      <trkpt lat="45.98977" lon="4.89803">
        <ele>293</ele>
        <time>2018-08-26T09:25:21Z</time>
      </trkpt>
      <trkpt lat="45.98981" lon="4.89808">
        <ele>293</ele>
        <time>2018-08-26T09:25:22Z</time>
      </trkpt>
      <trkpt lat="45.98986" lon="4.89814">
        <ele>293</ele>
        <time>2018-08-26T09:25:23Z</time>
      </trkpt>
      <trkpt lat="45.98989" lon="4.8982">
        <ele>293</ele>
        <time>2018-08-26T09:25:24Z</time>
      </trkpt>
      <trkpt lat="45.98993" lon="4.89826">
        <ele>293</ele>
        <time>2018-08-26T09:25:25Z</time>
      </trkpt>
      <trkpt lat="45.98996" lon="4.89831">
        <ele>293</ele>
        <time>2018-08-26T09:25:26Z</time>
      </trkpt>
      <trkpt lat="45.99001" lon="4.89835">
        <ele>293</ele>
        <time>2018-08-26T09:25:27Z</time>
      </trkpt>
      <trkpt lat="45.99004" lon="4.89839">
        <ele>293</ele>
        <time>2018-08-26T09:25:28Z</time>
      </trkpt>
      <trkpt lat="45.99008" lon="4.89845">
        <ele>293</ele>
        <time>2018-08-26T09:25:29Z</time>
      </trkpt>
      <trkpt lat="45.99012" lon="4.89848">
        <ele>293</ele>
        <time>2018-08-26T09:25:30Z</time>
      </trkpt>
      <trkpt lat="45.99016" lon="4.89853">
        <ele>293</ele>
        <time>2018-08-26T09:25:31Z</time>
      </trkpt>
      <trkpt lat="45.9902" lon="4.89858">
        <ele>293</ele>
        <time>2018-08-26T09:25:32Z</time>
      </trkpt>
      <trkpt lat="45.99024" lon="4.89863">
        <ele>293</ele>
        <time>2018-08-26T09:25:33Z</time>
      </trkpt>
      <trkpt lat="45.99028" lon="4.89867">
        <ele>293</ele>
        <time>2018-08-26T09:25:34Z</time>
      </trkpt>
      <trkpt lat="45.99031" lon="4.89873">
        <ele>293</ele>
        <time>2018-08-26T09:25:35Z</time>
      </trkpt>
      <trkpt lat="45.99037" lon="4.8988">
        <ele>293</ele>
        <time>2018-08-26T09:25:37Z</time>
      </trkpt>
      <trkpt lat="45.9904" lon="4.89884">
        <ele>293</ele>
        <time>2018-08-26T09:25:38Z</time>
      </trkpt>
      <trkpt lat="45.99043" lon="4.89889">
        <ele>293</ele>
        <time>2018-08-26T09:25:39Z</time>
      </trkpt>
      <trkpt lat="45.99047" lon="4.89894">
        <ele>293</ele>
        <time>2018-08-26T09:25:40Z</time>
      </trkpt>
      <trkpt lat="45.99053" lon="4.89903">
        <ele>293</ele>
        <time>2018-08-26T09:25:42Z</time>
      </trkpt>
      <trkpt lat="45.99056" lon="4.89908">
        <ele>293</ele>
        <time>2018-08-26T09:25:43Z</time>
      </trkpt>
      <trkpt lat="45.9906" lon="4.89913">
        <ele>294</ele>
        <time>2018-08-26T09:25:44Z</time>
      </trkpt>
      <trkpt lat="45.99064" lon="4.89918">
        <ele>294</ele>
        <time>2018-08-26T09:25:45Z</time>
      </trkpt>
      <trkpt lat="45.99067" lon="4.89922">
        <ele>294</ele>
        <time>2018-08-26T09:25:46Z</time>
      </trkpt>
      <trkpt lat="45.9907" lon="4.89927">
        <ele>294</ele>
        <time>2018-08-26T09:25:47Z</time>
      </trkpt>
      <trkpt lat="45.99074" lon="4.89933">
        <ele>294</ele>
        <time>2018-08-26T09:25:48Z</time>
      </trkpt>
      <trkpt lat="45.99078" lon="4.89938">
        <ele>294</ele>
        <time>2018-08-26T09:25:49Z</time>
      </trkpt>
      <trkpt lat="45.99084" lon="4.89948">
        <ele>295</ele>
        <time>2018-08-26T09:25:51Z</time>
      </trkpt>
      <trkpt lat="45.99087" lon="4.89952">
        <ele>295</ele>
        <time>2018-08-26T09:25:52Z</time>
      </trkpt>
      <trkpt lat="45.99092" lon="4.89957">
        <ele>295</ele>
        <time>2018-08-26T09:25:53Z</time>
      </trkpt>
      <trkpt lat="45.99095" lon="4.89962">
        <ele>295</ele>
        <time>2018-08-26T09:25:54Z</time>
      </trkpt>
      <trkpt lat="45.99099" lon="4.89966">
        <ele>295</ele>
        <time>2018-08-26T09:25:55Z</time>
      </trkpt>
      <trkpt lat="45.99103" lon="4.8997">
        <ele>295</ele>
        <time>2018-08-26T09:25:56Z</time>
      </trkpt>
      <trkpt lat="45.99106" lon="4.89975">
        <ele>295</ele>
        <time>2018-08-26T09:25:57Z</time>
      </trkpt>
      <trkpt lat="45.99111" lon="4.89981">
        <ele>295</ele>
        <time>2018-08-26T09:25:58Z</time>
      </trkpt>
      <trkpt lat="45.99115" lon="4.89984">
        <ele>295</ele>
        <time>2018-08-26T09:25:59Z</time>
      </trkpt>
      <trkpt lat="45.99119" lon="4.89988">
        <ele>295</ele>
        <time>2018-08-26T09:26:00Z</time>
      </trkpt>
      <trkpt lat="45.99122" lon="4.89992">
        <ele>295</ele>
        <time>2018-08-26T09:26:01Z</time>
      </trkpt>
      <trkpt lat="45.99126" lon="4.89997">
        <ele>296</ele>
        <time>2018-08-26T09:26:02Z</time>
      </trkpt>
      <trkpt lat="45.9913" lon="4.90001">
        <ele>296</ele>
        <time>2018-08-26T09:26:03Z</time>
      </trkpt>
      <trkpt lat="45.99134" lon="4.90005">
        <ele>296</ele>
        <time>2018-08-26T09:26:04Z</time>
      </trkpt>
      <trkpt lat="45.99139" lon="4.90014">
        <ele>297</ele>
        <time>2018-08-26T09:26:06Z</time>
      </trkpt>
      <trkpt lat="45.99142" lon="4.90018">
        <ele>297</ele>
        <time>2018-08-26T09:26:07Z</time>
      </trkpt>
      <trkpt lat="45.99148" lon="4.90027">
        <ele>297</ele>
        <time>2018-08-26T09:26:09Z</time>
      </trkpt>
      <trkpt lat="45.99152" lon="4.90032">
        <ele>297</ele>
        <time>2018-08-26T09:26:10Z</time>
      </trkpt>
      <trkpt lat="45.99155" lon="4.90037">
        <ele>297</ele>
        <time>2018-08-26T09:26:11Z</time>
      </trkpt>
      <trkpt lat="45.99159" lon="4.90042">
        <ele>297</ele>
        <time>2018-08-26T09:26:12Z</time>
      </trkpt>
      <trkpt lat="45.99163" lon="4.90048">
        <ele>297</ele>
        <time>2018-08-26T09:26:13Z</time>
      </trkpt>
      <trkpt lat="45.99166" lon="4.90053">
        <ele>297</ele>
        <time>2018-08-26T09:26:14Z</time>
      </trkpt>
      <trkpt lat="45.9917" lon="4.90058">
        <ele>297</ele>
        <time>2018-08-26T09:26:15Z</time>
      </trkpt>
      <trkpt lat="45.99173" lon="4.90065">
        <ele>297</ele>
        <time>2018-08-26T09:26:16Z</time>
      </trkpt>
      <trkpt lat="45.99177" lon="4.9007">
        <ele>297</ele>
        <time>2018-08-26T09:26:17Z</time>
      </trkpt>
      <trkpt lat="45.99179" lon="4.90075">
        <ele>297</ele>
        <time>2018-08-26T09:26:18Z</time>
      </trkpt>
      <trkpt lat="45.99185" lon="4.9008">
        <ele>297</ele>
        <time>2018-08-26T09:26:19Z</time>
      </trkpt>
      <trkpt lat="45.99187" lon="4.90086">
        <ele>297</ele>
        <time>2018-08-26T09:26:20Z</time>
      </trkpt>
      <trkpt lat="45.99191" lon="4.90092">
        <ele>297</ele>
        <time>2018-08-26T09:26:21Z</time>
      </trkpt>
      <trkpt lat="45.99195" lon="4.90099">
        <ele>297</ele>
        <time>2018-08-26T09:26:22Z</time>
      </trkpt>
      <trkpt lat="45.992" lon="4.90109">
        <ele>297</ele>
        <time>2018-08-26T09:26:24Z</time>
      </trkpt>
      <trkpt lat="45.99205" lon="4.90113">
        <ele>297</ele>
        <time>2018-08-26T09:26:25Z</time>
      </trkpt>
      <trkpt lat="45.99208" lon="4.90119">
        <ele>297</ele>
        <time>2018-08-26T09:26:26Z</time>
      </trkpt>
      <trkpt lat="45.99212" lon="4.90126">
        <ele>297</ele>
        <time>2018-08-26T09:26:27Z</time>
      </trkpt>
      <trkpt lat="45.99217" lon="4.90131">
        <ele>297</ele>
        <time>2018-08-26T09:26:28Z</time>
      </trkpt>
      <trkpt lat="45.99221" lon="4.90136">
        <ele>297</ele>
        <time>2018-08-26T09:26:29Z</time>
      </trkpt>
      <trkpt lat="45.99225" lon="4.90146">
        <ele>297</ele>
        <time>2018-08-26T09:26:31Z</time>
      </trkpt>
      <trkpt lat="45.99229" lon="4.90151">
        <ele>297</ele>
        <time>2018-08-26T09:26:32Z</time>
      </trkpt>
      <trkpt lat="45.99231" lon="4.90156">
        <ele>297</ele>
        <time>2018-08-26T09:26:33Z</time>
      </trkpt>
      <trkpt lat="45.99235" lon="4.90161">
        <ele>297</ele>
        <time>2018-08-26T09:26:34Z</time>
      </trkpt>
      <trkpt lat="45.99238" lon="4.90167">
        <ele>297</ele>
        <time>2018-08-26T09:26:35Z</time>
      </trkpt>
      <trkpt lat="45.99242" lon="4.9017">
        <ele>297</ele>
        <time>2018-08-26T09:26:36Z</time>
      </trkpt>
      <trkpt lat="45.99245" lon="4.90176">
        <ele>297</ele>
        <time>2018-08-26T09:26:37Z</time>
      </trkpt>
      <trkpt lat="45.9925" lon="4.9018">
        <ele>297</ele>
        <time>2018-08-26T09:26:38Z</time>
      </trkpt>
      <trkpt lat="45.99252" lon="4.90185">
        <ele>298</ele>
        <time>2018-08-26T09:26:39Z</time>
      </trkpt>
      <trkpt lat="45.99257" lon="4.90189">
        <ele>298</ele>
        <time>2018-08-26T09:26:40Z</time>
      </trkpt>
      <trkpt lat="45.99261" lon="4.90194">
        <ele>298</ele>
        <time>2018-08-26T09:26:41Z</time>
      </trkpt>
      <trkpt lat="45.99266" lon="4.90203">
        <ele>298</ele>
        <time>2018-08-26T09:26:42Z</time>
      </trkpt>
      <trkpt lat="45.9927" lon="4.90209">
        <ele>298</ele>
        <time>2018-08-26T09:26:43Z</time>
      </trkpt>
      <trkpt lat="45.99273" lon="4.90213">
        <ele>298</ele>
        <time>2018-08-26T09:26:44Z</time>
      </trkpt>
      <trkpt lat="45.99277" lon="4.90218">
        <ele>298</ele>
        <time>2018-08-26T09:26:45Z</time>
      </trkpt>
      <trkpt lat="45.99281" lon="4.90225">
        <ele>298</ele>
        <time>2018-08-26T09:26:46Z</time>
      </trkpt>
      <trkpt lat="45.99288" lon="4.90232">
        <ele>298</ele>
        <time>2018-08-26T09:26:48Z</time>
      </trkpt>
      <trkpt lat="45.9929" lon="4.90237">
        <ele>298</ele>
        <time>2018-08-26T09:26:49Z</time>
      </trkpt>
      <trkpt lat="45.99294" lon="4.90241">
        <ele>298</ele>
        <time>2018-08-26T09:26:50Z</time>
      </trkpt>
      <trkpt lat="45.99298" lon="4.90246">
        <ele>298</ele>
        <time>2018-08-26T09:26:51Z</time>
      </trkpt>
      <trkpt lat="45.99302" lon="4.90251">
        <ele>299</ele>
        <time>2018-08-26T09:26:52Z</time>
      </trkpt>
      <trkpt lat="45.99306" lon="4.90258">
        <ele>299</ele>
        <time>2018-08-26T09:26:53Z</time>
      </trkpt>
      <trkpt lat="45.99308" lon="4.90263">
        <ele>299</ele>
        <time>2018-08-26T09:26:54Z</time>
      </trkpt>
      <trkpt lat="45.99312" lon="4.90268">
        <ele>299</ele>
        <time>2018-08-26T09:26:55Z</time>
      </trkpt>
      <trkpt lat="45.99313" lon="4.90278">
        <ele>299</ele>
        <time>2018-08-26T09:26:58Z</time>
      </trkpt>
      <trkpt lat="45.99314" lon="4.90281">
        <ele>299</ele>
        <time>2018-08-26T09:26:59Z</time>
      </trkpt>
      <trkpt lat="45.99318" lon="4.90285">
        <ele>299</ele>
        <time>2018-08-26T09:27:01Z</time>
      </trkpt>
      <trkpt lat="45.99328" lon="4.90292">
        <ele>299</ele>
        <time>2018-08-26T09:27:02Z</time>
      </trkpt>
      <trkpt lat="45.99335" lon="4.90292">
        <ele>300</ele>
        <time>2018-08-26T09:27:04Z</time>
      </trkpt>
      <trkpt lat="45.99339" lon="4.90293">
        <ele>300</ele>
        <time>2018-08-26T09:27:05Z</time>
      </trkpt>
      <trkpt lat="45.99347" lon="4.90294">
        <ele>300</ele>
        <time>2018-08-26T09:27:07Z</time>
      </trkpt>
      <trkpt lat="45.99351" lon="4.90295">
        <ele>300</ele>
        <time>2018-08-26T09:27:08Z</time>
      </trkpt>
      <trkpt lat="45.99359" lon="4.90296">
        <ele>300</ele>
        <time>2018-08-26T09:27:10Z</time>
      </trkpt>
      <trkpt lat="45.99363" lon="4.90297">
        <ele>300</ele>
        <time>2018-08-26T09:27:11Z</time>
      </trkpt>
      <trkpt lat="45.9937" lon="4.90295">
        <ele>300</ele>
        <time>2018-08-26T09:27:13Z</time>
      </trkpt>
      <trkpt lat="45.99375" lon="4.90297">
        <ele>300</ele>
        <time>2018-08-26T09:27:14Z</time>
      </trkpt>
      <trkpt lat="45.99383" lon="4.90299">
        <ele>300</ele>
        <time>2018-08-26T09:27:16Z</time>
      </trkpt>
      <trkpt lat="45.99388" lon="4.903">
        <ele>300</ele>
        <time>2018-08-26T09:27:17Z</time>
      </trkpt>
      <trkpt lat="45.99394" lon="4.90301">
        <ele>300</ele>
        <time>2018-08-26T09:27:18Z</time>
      </trkpt>
      <trkpt lat="45.99399" lon="4.90299">
        <ele>300</ele>
        <time>2018-08-26T09:27:19Z</time>
      </trkpt>
      <trkpt lat="45.99407" lon="4.90298">
        <ele>300</ele>
        <time>2018-08-26T09:27:21Z</time>
      </trkpt>
      <trkpt lat="45.99412" lon="4.90298">
        <ele>300</ele>
        <time>2018-08-26T09:27:22Z</time>
      </trkpt>
      <trkpt lat="45.99417" lon="4.90301">
        <ele>300</ele>
        <time>2018-08-26T09:27:23Z</time>
      </trkpt>
      <trkpt lat="45.99422" lon="4.90299">
        <ele>300</ele>
        <time>2018-08-26T09:27:24Z</time>
      </trkpt>
      <trkpt lat="45.99426" lon="4.90299">
        <ele>300</ele>
        <time>2018-08-26T09:27:25Z</time>
      </trkpt>
      <trkpt lat="45.99431" lon="4.903">
        <ele>300</ele>
        <time>2018-08-26T09:27:26Z</time>
      </trkpt>
      <trkpt lat="45.99435" lon="4.90299">
        <ele>300</ele>
        <time>2018-08-26T09:27:27Z</time>
      </trkpt>
      <trkpt lat="45.99441" lon="4.90299">
        <ele>300</ele>
        <time>2018-08-26T09:27:28Z</time>
      </trkpt>
      <trkpt lat="45.99449" lon="4.90302">
        <ele>300</ele>
        <time>2018-08-26T09:27:30Z</time>
      </trkpt>
      <trkpt lat="45.99454" lon="4.90303">
        <ele>300</ele>
        <time>2018-08-26T09:27:31Z</time>
      </trkpt>
      <trkpt lat="45.99458" lon="4.90306">
        <ele>300</ele>
        <time>2018-08-26T09:27:32Z</time>
      </trkpt>
      <trkpt lat="45.99463" lon="4.90307">
        <ele>300</ele>
        <time>2018-08-26T09:27:33Z</time>
      </trkpt>
      <trkpt lat="45.99469" lon="4.90309">
        <ele>300</ele>
        <time>2018-08-26T09:27:34Z</time>
      </trkpt>
      <trkpt lat="45.99474" lon="4.9031">
        <ele>300</ele>
        <time>2018-08-26T09:27:35Z</time>
      </trkpt>
      <trkpt lat="45.9948" lon="4.90311">
        <ele>300</ele>
        <time>2018-08-26T09:27:36Z</time>
      </trkpt>
      <trkpt lat="45.99484" lon="4.90312">
        <ele>300</ele>
        <time>2018-08-26T09:27:37Z</time>
      </trkpt>
      <trkpt lat="45.99488" lon="4.90312">
        <ele>300</ele>
        <time>2018-08-26T09:27:38Z</time>
      </trkpt>
      <trkpt lat="45.99493" lon="4.90313">
        <ele>300</ele>
        <time>2018-08-26T09:27:39Z</time>
      </trkpt>
      <trkpt lat="45.99501" lon="4.90314">
        <ele>301</ele>
        <time>2018-08-26T09:27:41Z</time>
      </trkpt>
      <trkpt lat="45.99505" lon="4.90315">
        <ele>301</ele>
        <time>2018-08-26T09:27:42Z</time>
      </trkpt>
      <trkpt lat="45.99513" lon="4.90315">
        <ele>301</ele>
        <time>2018-08-26T09:27:44Z</time>
      </trkpt>
      <trkpt lat="45.9952" lon="4.90315">
        <ele>300</ele>
        <time>2018-08-26T09:27:45Z</time>
      </trkpt>
      <trkpt lat="45.99525" lon="4.90315">
        <ele>300</ele>
        <time>2018-08-26T09:27:46Z</time>
      </trkpt>
      <trkpt lat="45.99529" lon="4.90314">
        <ele>300</ele>
        <time>2018-08-26T09:27:47Z</time>
      </trkpt>
      <trkpt lat="45.99538" lon="4.90315">
        <ele>300</ele>
        <time>2018-08-26T09:27:49Z</time>
      </trkpt>
      <trkpt lat="45.99541" lon="4.90315">
        <ele>300</ele>
        <time>2018-08-26T09:27:50Z</time>
      </trkpt>
      <trkpt lat="45.99548" lon="4.9032">
        <ele>300</ele>
        <time>2018-08-26T09:27:52Z</time>
      </trkpt>
      <trkpt lat="45.99552" lon="4.90321">
        <ele>301</ele>
        <time>2018-08-26T09:27:53Z</time>
      </trkpt>
      <trkpt lat="45.99559" lon="4.90322">
        <ele>301</ele>
        <time>2018-08-26T09:27:56Z</time>
      </trkpt>
      <trkpt lat="45.99561" lon="4.90323">
        <ele>301</ele>
        <time>2018-08-26T09:27:57Z</time>
      </trkpt>
      <trkpt lat="45.99569" lon="4.90324">
        <ele>301</ele>
        <time>2018-08-26T09:28:00Z</time>
      </trkpt>
      <trkpt lat="45.99571" lon="4.90325">
        <ele>301</ele>
        <time>2018-08-26T09:28:01Z</time>
      </trkpt>
      <trkpt lat="45.99577" lon="4.90325">
        <ele>301</ele>
        <time>2018-08-26T09:28:03Z</time>
      </trkpt>
      <trkpt lat="45.9958" lon="4.90325">
        <ele>301</ele>
        <time>2018-08-26T09:28:04Z</time>
      </trkpt>
      <trkpt lat="45.99584" lon="4.90326">
        <ele>301</ele>
        <time>2018-08-26T09:28:05Z</time>
      </trkpt>
      <trkpt lat="45.99593" lon="4.90326">
        <ele>301</ele>
        <time>2018-08-26T09:28:06Z</time>
      </trkpt>
      <trkpt lat="45.99601" lon="4.90328">
        <ele>301</ele>
        <time>2018-08-26T09:28:08Z</time>
      </trkpt>
      <trkpt lat="45.99602" lon="4.90328">
        <ele>301</ele>
        <time>2018-08-26T09:28:09Z</time>
      </trkpt>
      <trkpt lat="45.99608" lon="4.90328">
        <ele>301</ele>
        <time>2018-08-26T09:28:11Z</time>
      </trkpt>
      <trkpt lat="45.99615" lon="4.90329">
        <ele>302</ele>
        <time>2018-08-26T09:28:12Z</time>
      </trkpt>
      <trkpt lat="45.99623" lon="4.9033">
        <ele>302</ele>
        <time>2018-08-26T09:28:14Z</time>
      </trkpt>
      <trkpt lat="45.9963" lon="4.90327">
        <ele>302</ele>
        <time>2018-08-26T09:28:15Z</time>
      </trkpt>
      <trkpt lat="45.99638" lon="4.90327">
        <ele>302</ele>
        <time>2018-08-26T09:28:17Z</time>
      </trkpt>
      <trkpt lat="45.99641" lon="4.90326">
        <ele>302</ele>
        <time>2018-08-26T09:28:18Z</time>
      </trkpt>
      <trkpt lat="45.99646" lon="4.90326">
        <ele>302</ele>
        <time>2018-08-26T09:28:19Z</time>
      </trkpt>
      <trkpt lat="45.9965" lon="4.90326">
        <ele>302</ele>
        <time>2018-08-26T09:28:20Z</time>
      </trkpt>
      <trkpt lat="45.99659" lon="4.90329">
        <ele>302</ele>
        <time>2018-08-26T09:28:23Z</time>
      </trkpt>
      <trkpt lat="45.99661" lon="4.9033">
        <ele>302</ele>
        <time>2018-08-26T09:28:24Z</time>
      </trkpt>
      <trkpt lat="45.99666" lon="4.90327">
        <ele>302</ele>
        <time>2018-08-26T09:28:28Z</time>
      </trkpt>
      <trkpt lat="45.99666" lon="4.90318">
        <ele>302</ele>
        <time>2018-08-26T09:28:29Z</time>
      </trkpt>
      <trkpt lat="45.99667" lon="4.90307">
        <ele>304</ele>
        <time>2018-08-26T09:28:33Z</time>
      </trkpt>
      <trkpt lat="45.99668" lon="4.90302">
        <ele>304</ele>
        <time>2018-08-26T09:28:34Z</time>
      </trkpt>
      <trkpt lat="45.99669" lon="4.90298">
        <ele>304</ele>
        <time>2018-08-26T09:28:35Z</time>
      </trkpt>
      <trkpt lat="45.99673" lon="4.90286">
        <ele>304</ele>
        <time>2018-08-26T09:28:36Z</time>
      </trkpt>
      <trkpt lat="45.99676" lon="4.90275">
        <ele>304</ele>
        <time>2018-08-26T09:28:38Z</time>
      </trkpt>
      <trkpt lat="45.99677" lon="4.9027">
        <ele>304</ele>
        <time>2018-08-26T09:28:39Z</time>
      </trkpt>
      <trkpt lat="45.99678" lon="4.90258">
        <ele>304</ele>
        <time>2018-08-26T09:28:41Z</time>
      </trkpt>
      <trkpt lat="45.99678" lon="4.90251">
        <ele>304</ele>
        <time>2018-08-26T09:28:42Z</time>
      </trkpt>
      <trkpt lat="45.99677" lon="4.90239">
        <ele>304</ele>
        <time>2018-08-26T09:28:44Z</time>
      </trkpt>
      <trkpt lat="45.99676" lon="4.90234">
        <ele>304</ele>
        <time>2018-08-26T09:28:45Z</time>
      </trkpt>
      <trkpt lat="45.99674" lon="4.90226">
        <ele>304</ele>
        <time>2018-08-26T09:28:46Z</time>
      </trkpt>
      <trkpt lat="45.99673" lon="4.9022">
        <ele>303</ele>
        <time>2018-08-26T09:28:47Z</time>
      </trkpt>
      <trkpt lat="45.99672" lon="4.90212">
        <ele>303</ele>
        <time>2018-08-26T09:28:48Z</time>
      </trkpt>
      <trkpt lat="45.99671" lon="4.90205">
        <ele>303</ele>
        <time>2018-08-26T09:28:49Z</time>
      </trkpt>
      <trkpt lat="45.99669" lon="4.90196">
        <ele>303</ele>
        <time>2018-08-26T09:28:50Z</time>
      </trkpt>
      <trkpt lat="45.99666" lon="4.90187">
        <ele>301</ele>
        <time>2018-08-26T09:28:51Z</time>
      </trkpt>
      <trkpt lat="45.99664" lon="4.90177">
        <ele>301</ele>
        <time>2018-08-26T09:28:52Z</time>
      </trkpt>
      <trkpt lat="45.99662" lon="4.90168">
        <ele>301</ele>
        <time>2018-08-26T09:28:53Z</time>
      </trkpt>
      <trkpt lat="45.99659" lon="4.90157">
        <ele>300</ele>
        <time>2018-08-26T09:28:54Z</time>
      </trkpt>
      <trkpt lat="45.99657" lon="4.9015">
        <ele>300</ele>
        <time>2018-08-26T09:28:55Z</time>
      </trkpt>
      <trkpt lat="45.99655" lon="4.90138">
        <ele>299</ele>
        <time>2018-08-26T09:28:56Z</time>
      </trkpt>
      <trkpt lat="45.99653" lon="4.90127">
        <ele>299</ele>
        <time>2018-08-26T09:28:57Z</time>
      </trkpt>
      <trkpt lat="45.9965" lon="4.90114">
        <ele>299</ele>
        <time>2018-08-26T09:28:58Z</time>
      </trkpt>
      <trkpt lat="45.99647" lon="4.90102">
        <ele>299</ele>
        <time>2018-08-26T09:28:59Z</time>
      </trkpt>
      <trkpt lat="45.99643" lon="4.90092">
        <ele>299</ele>
        <time>2018-08-26T09:29:00Z</time>
      </trkpt>
      <trkpt lat="45.9964" lon="4.90083">
        <ele>297</ele>
        <time>2018-08-26T09:29:01Z</time>
      </trkpt>
      <trkpt lat="45.99637" lon="4.90073">
        <ele>297</ele>
        <time>2018-08-26T09:29:02Z</time>
      </trkpt>
      <trkpt lat="45.9963" lon="4.90061">
        <ele>297</ele>
        <time>2018-08-26T09:29:03Z</time>
      </trkpt>
      <trkpt lat="45.99625" lon="4.90049">
        <ele>297</ele>
        <time>2018-08-26T09:29:04Z</time>
      </trkpt>
      <trkpt lat="45.99622" lon="4.90038">
        <ele>296</ele>
        <time>2018-08-26T09:29:05Z</time>
      </trkpt>
      <trkpt lat="45.99618" lon="4.90027">
        <ele>296</ele>
        <time>2018-08-26T09:29:06Z</time>
      </trkpt>
      <trkpt lat="45.99614" lon="4.90016">
        <ele>296</ele>
        <time>2018-08-26T09:29:07Z</time>
      </trkpt>
      <trkpt lat="45.99613" lon="4.90006">
        <ele>296</ele>
        <time>2018-08-26T09:29:08Z</time>
      </trkpt>
      <trkpt lat="45.99611" lon="4.89995">
        <ele>294</ele>
        <time>2018-08-26T09:29:09Z</time>
      </trkpt>
      <trkpt lat="45.9961" lon="4.89983">
        <ele>294</ele>
        <time>2018-08-26T09:29:10Z</time>
      </trkpt>
      <trkpt lat="45.99608" lon="4.89972">
        <ele>294</ele>
        <time>2018-08-26T09:29:11Z</time>
      </trkpt>
      <trkpt lat="45.99605" lon="4.8996">
        <ele>294</ele>
        <time>2018-08-26T09:29:12Z</time>
      </trkpt>
      <trkpt lat="45.99604" lon="4.89949">
        <ele>294</ele>
        <time>2018-08-26T09:29:13Z</time>
      </trkpt>
      <trkpt lat="45.99604" lon="4.89939">
        <ele>293</ele>
        <time>2018-08-26T09:29:14Z</time>
      </trkpt>
      <trkpt lat="45.99603" lon="4.89928">
        <ele>293</ele>
        <time>2018-08-26T09:29:15Z</time>
      </trkpt>
      <trkpt lat="45.99602" lon="4.89918">
        <ele>293</ele>
        <time>2018-08-26T09:29:16Z</time>
      </trkpt>
      <trkpt lat="45.99604" lon="4.89907">
        <ele>292</ele>
        <time>2018-08-26T09:29:17Z</time>
      </trkpt>
      <trkpt lat="45.99603" lon="4.89898">
        <ele>292</ele>
        <time>2018-08-26T09:29:18Z</time>
      </trkpt>
      <trkpt lat="45.99603" lon="4.89888">
        <ele>292</ele>
        <time>2018-08-26T09:29:19Z</time>
      </trkpt>
      <trkpt lat="45.99602" lon="4.89877">
        <ele>292</ele>
        <time>2018-08-26T09:29:20Z</time>
      </trkpt>
      <trkpt lat="45.99601" lon="4.89865">
        <ele>293</ele>
        <time>2018-08-26T09:29:21Z</time>
      </trkpt>
      <trkpt lat="45.99597" lon="4.89853">
        <ele>293</ele>
        <time>2018-08-26T09:29:22Z</time>
      </trkpt>
      <trkpt lat="45.99598" lon="4.89844">
        <ele>293</ele>
        <time>2018-08-26T09:29:23Z</time>
      </trkpt>
      <trkpt lat="45.99599" lon="4.89834">
        <ele>293</ele>
        <time>2018-08-26T09:29:24Z</time>
      </trkpt>
      <trkpt lat="45.996" lon="4.89826">
        <ele>293</ele>
        <time>2018-08-26T09:29:25Z</time>
      </trkpt>
      <trkpt lat="45.99601" lon="4.89816">
        <ele>292</ele>
        <time>2018-08-26T09:29:26Z</time>
      </trkpt>
      <trkpt lat="45.99601" lon="4.89806">
        <ele>292</ele>
        <time>2018-08-26T09:29:27Z</time>
      </trkpt>
      <trkpt lat="45.99603" lon="4.89798">
        <ele>292</ele>
        <time>2018-08-26T09:29:28Z</time>
      </trkpt>
      <trkpt lat="45.99602" lon="4.89787">
        <ele>292</ele>
        <time>2018-08-26T09:29:29Z</time>
      </trkpt>
      <trkpt lat="45.99602" lon="4.89778">
        <ele>292</ele>
        <time>2018-08-26T09:29:30Z</time>
      </trkpt>
      <trkpt lat="45.99603" lon="4.89769">
        <ele>292</ele>
        <time>2018-08-26T09:29:31Z</time>
      </trkpt>
      <trkpt lat="45.99602" lon="4.8976">
        <ele>292</ele>
        <time>2018-08-26T09:29:32Z</time>
      </trkpt>
      <trkpt lat="45.99602" lon="4.89751">
        <ele>292</ele>
        <time>2018-08-26T09:29:33Z</time>
      </trkpt>
      <trkpt lat="45.99601" lon="4.8974">
        <ele>292</ele>
        <time>2018-08-26T09:29:34Z</time>
      </trkpt>
      <trkpt lat="45.996" lon="4.89733">
        <ele>292</ele>
        <time>2018-08-26T09:29:35Z</time>
      </trkpt>
      <trkpt lat="45.99601" lon="4.89725">
        <ele>292</ele>
        <time>2018-08-26T09:29:36Z</time>
      </trkpt>
      <trkpt lat="45.99604" lon="4.89716">
        <ele>292</ele>
        <time>2018-08-26T09:29:37Z</time>
      </trkpt>
      <trkpt lat="45.99603" lon="4.89706">
        <ele>292</ele>
        <time>2018-08-26T09:29:38Z</time>
      </trkpt>
      <trkpt lat="45.99603" lon="4.89697">
        <ele>292</ele>
        <time>2018-08-26T09:29:39Z</time>
      </trkpt>
      <trkpt lat="45.99604" lon="4.89689">
        <ele>291</ele>
        <time>2018-08-26T09:29:40Z</time>
      </trkpt>
      <trkpt lat="45.99604" lon="4.89681">
        <ele>292</ele>
        <time>2018-08-26T09:29:41Z</time>
      </trkpt>
      <trkpt lat="45.99605" lon="4.89673">
        <ele>292</ele>
        <time>2018-08-26T09:29:42Z</time>
      </trkpt>
      <trkpt lat="45.99605" lon="4.89666">
        <ele>291</ele>
        <time>2018-08-26T09:29:43Z</time>
      </trkpt>
      <trkpt lat="45.99604" lon="4.89656">
        <ele>291</ele>
        <time>2018-08-26T09:29:44Z</time>
      </trkpt>
      <trkpt lat="45.99602" lon="4.89649">
        <ele>291</ele>
        <time>2018-08-26T09:29:45Z</time>
      </trkpt>
      <trkpt lat="45.99603" lon="4.89639">
        <ele>291</ele>
        <time>2018-08-26T09:29:46Z</time>
      </trkpt>
      <trkpt lat="45.99602" lon="4.89629">
        <ele>291</ele>
        <time>2018-08-26T09:29:47Z</time>
      </trkpt>
      <trkpt lat="45.99602" lon="4.8962">
        <ele>291</ele>
        <time>2018-08-26T09:29:48Z</time>
      </trkpt>
      <trkpt lat="45.99601" lon="4.89611">
        <ele>291</ele>
        <time>2018-08-26T09:29:49Z</time>
      </trkpt>
      <trkpt lat="45.99601" lon="4.89601">
        <ele>292</ele>
        <time>2018-08-26T09:29:50Z</time>
      </trkpt>
      <trkpt lat="45.996" lon="4.89592">
        <ele>292</ele>
        <time>2018-08-26T09:29:51Z</time>
      </trkpt>
      <trkpt lat="45.996" lon="4.89582">
        <ele>291</ele>
        <time>2018-08-26T09:29:52Z</time>
      </trkpt>
      <trkpt lat="45.99602" lon="4.89573">
        <ele>291</ele>
        <time>2018-08-26T09:29:53Z</time>
      </trkpt>
      <trkpt lat="45.99602" lon="4.89565">
        <ele>291</ele>
        <time>2018-08-26T09:29:54Z</time>
      </trkpt>
      <trkpt lat="45.99602" lon="4.89557">
        <ele>291</ele>
        <time>2018-08-26T09:29:55Z</time>
      </trkpt>
      <trkpt lat="45.99602" lon="4.89548">
        <ele>291</ele>
        <time>2018-08-26T09:29:56Z</time>
      </trkpt>
      <trkpt lat="45.996" lon="4.89536">
        <ele>291</ele>
        <time>2018-08-26T09:29:58Z</time>
      </trkpt>
      <trkpt lat="45.99598" lon="4.89526">
        <ele>291</ele>
        <time>2018-08-26T09:29:59Z</time>
      </trkpt>
      <trkpt lat="45.99599" lon="4.89518">
        <ele>290</ele>
        <time>2018-08-26T09:30:00Z</time>
      </trkpt>
      <trkpt lat="45.99597" lon="4.89513">
        <ele>290</ele>
        <time>2018-08-26T09:30:01Z</time>
      </trkpt>
      <trkpt lat="45.99597" lon="4.89506">
        <ele>290</ele>
        <time>2018-08-26T09:30:02Z</time>
      </trkpt>
      <trkpt lat="45.99598" lon="4.89498">
        <ele>290</ele>
        <time>2018-08-26T09:30:03Z</time>
      </trkpt>
      <trkpt lat="45.99594" lon="4.89488">
        <ele>290</ele>
        <time>2018-08-26T09:30:04Z</time>
      </trkpt>
      <trkpt lat="45.99594" lon="4.89479">
        <ele>290</ele>
        <time>2018-08-26T09:30:05Z</time>
      </trkpt>
      <trkpt lat="45.99594" lon="4.89471">
        <ele>290</ele>
        <time>2018-08-26T09:30:06Z</time>
      </trkpt>
      <trkpt lat="45.99594" lon="4.89463">
        <ele>290</ele>
        <time>2018-08-26T09:30:07Z</time>
      </trkpt>
      <trkpt lat="45.99594" lon="4.89455">
        <ele>290</ele>
        <time>2018-08-26T09:30:08Z</time>
      </trkpt>
      <trkpt lat="45.99596" lon="4.89449">
        <ele>290</ele>
        <time>2018-08-26T09:30:09Z</time>
      </trkpt>
      <trkpt lat="45.99596" lon="4.89441">
        <ele>290</ele>
        <time>2018-08-26T09:30:10Z</time>
      </trkpt>
      <trkpt lat="45.99595" lon="4.89431">
        <ele>290</ele>
        <time>2018-08-26T09:30:11Z</time>
      </trkpt>
      <trkpt lat="45.99594" lon="4.89422">
        <ele>290</ele>
        <time>2018-08-26T09:30:12Z</time>
      </trkpt>
      <trkpt lat="45.99594" lon="4.89413">
        <ele>290</ele>
        <time>2018-08-26T09:30:13Z</time>
      </trkpt>
      <trkpt lat="45.99593" lon="4.89404">
        <ele>290</ele>
        <time>2018-08-26T09:30:14Z</time>
      </trkpt>
      <trkpt lat="45.99592" lon="4.89394">
        <ele>290</ele>
        <time>2018-08-26T09:30:15Z</time>
      </trkpt>
      <trkpt lat="45.99592" lon="4.89384">
        <ele>290</ele>
        <time>2018-08-26T09:30:16Z</time>
      </trkpt>
      <trkpt lat="45.99592" lon="4.89375">
        <ele>290</ele>
        <time>2018-08-26T09:30:17Z</time>
      </trkpt>
      <trkpt lat="45.99591" lon="4.89366">
        <ele>289</ele>
        <time>2018-08-26T09:30:18Z</time>
      </trkpt>
      <trkpt lat="45.99591" lon="4.89358">
        <ele>289</ele>
        <time>2018-08-26T09:30:19Z</time>
      </trkpt>
      <trkpt lat="45.99588" lon="4.89348">
        <ele>289</ele>
        <time>2018-08-26T09:30:20Z</time>
      </trkpt>
      <trkpt lat="45.99588" lon="4.89339">
        <ele>289</ele>
        <time>2018-08-26T09:30:21Z</time>
      </trkpt>
      <trkpt lat="45.99586" lon="4.89329">
        <ele>289</ele>
        <time>2018-08-26T09:30:22Z</time>
      </trkpt>
      <trkpt lat="45.99586" lon="4.8932">
        <ele>289</ele>
        <time>2018-08-26T09:30:23Z</time>
      </trkpt>
      <trkpt lat="45.99587" lon="4.89311">
        <ele>289</ele>
        <time>2018-08-26T09:30:24Z</time>
      </trkpt>
      <trkpt lat="45.99585" lon="4.89301">
        <ele>289</ele>
        <time>2018-08-26T09:30:25Z</time>
      </trkpt>
      <trkpt lat="45.99585" lon="4.89294">
        <ele>289</ele>
        <time>2018-08-26T09:30:26Z</time>
      </trkpt>
      <trkpt lat="45.99585" lon="4.89285">
        <ele>289</ele>
        <time>2018-08-26T09:30:27Z</time>
      </trkpt>
      <trkpt lat="45.99584" lon="4.89275">
        <ele>288</ele>
        <time>2018-08-26T09:30:28Z</time>
      </trkpt>
      <trkpt lat="45.99583" lon="4.89267">
        <ele>288</ele>
        <time>2018-08-26T09:30:29Z</time>
      </trkpt>
      <trkpt lat="45.99583" lon="4.89259">
        <ele>288</ele>
        <time>2018-08-26T09:30:30Z</time>
      </trkpt>
      <trkpt lat="45.99583" lon="4.89252">
        <ele>288</ele>
        <time>2018-08-26T09:30:31Z</time>
      </trkpt>
      <trkpt lat="45.99584" lon="4.89245">
        <ele>288</ele>
        <time>2018-08-26T09:30:32Z</time>
      </trkpt>
      <trkpt lat="45.99584" lon="4.89237">
        <ele>288</ele>
        <time>2018-08-26T09:30:33Z</time>
      </trkpt>
      <trkpt lat="45.99583" lon="4.89227">
        <ele>288</ele>
        <time>2018-08-26T09:30:34Z</time>
      </trkpt>
      <trkpt lat="45.99582" lon="4.89219">
        <ele>288</ele>
        <time>2018-08-26T09:30:35Z</time>
      </trkpt>
      <trkpt lat="45.99582" lon="4.89211">
        <ele>288</ele>
        <time>2018-08-26T09:30:36Z</time>
      </trkpt>
      <trkpt lat="45.99581" lon="4.89201">
        <ele>288</ele>
        <time>2018-08-26T09:30:37Z</time>
      </trkpt>
      <trkpt lat="45.9958" lon="4.8919">
        <ele>288</ele>
        <time>2018-08-26T09:30:38Z</time>
      </trkpt>
      <trkpt lat="45.99578" lon="4.89181">
        <ele>288</ele>
        <time>2018-08-26T09:30:39Z</time>
      </trkpt>
      <trkpt lat="45.99578" lon="4.89171">
        <ele>288</ele>
        <time>2018-08-26T09:30:40Z</time>
      </trkpt>
      <trkpt lat="45.99578" lon="4.89161">
        <ele>288</ele>
        <time>2018-08-26T09:30:41Z</time>
      </trkpt>
      <trkpt lat="45.99578" lon="4.89153">
        <ele>288</ele>
        <time>2018-08-26T09:30:42Z</time>
      </trkpt>
      <trkpt lat="45.99578" lon="4.89145">
        <ele>289</ele>
        <time>2018-08-26T09:30:43Z</time>
      </trkpt>
      <trkpt lat="45.99578" lon="4.89135">
        <ele>289</ele>
        <time>2018-08-26T09:30:44Z</time>
      </trkpt>
      <trkpt lat="45.99578" lon="4.89126">
        <ele>289</ele>
        <time>2018-08-26T09:30:45Z</time>
      </trkpt>
      <trkpt lat="45.99578" lon="4.89114">
        <ele>289</ele>
        <time>2018-08-26T09:30:46Z</time>
      </trkpt>
      <trkpt lat="45.99577" lon="4.89106">
        <ele>289</ele>
        <time>2018-08-26T09:30:47Z</time>
      </trkpt>
      <trkpt lat="45.99577" lon="4.89095">
        <ele>289</ele>
        <time>2018-08-26T09:30:48Z</time>
      </trkpt>
      <trkpt lat="45.99578" lon="4.89086">
        <ele>289</ele>
        <time>2018-08-26T09:30:49Z</time>
      </trkpt>
      <trkpt lat="45.99579" lon="4.89075">
        <ele>289</ele>
        <time>2018-08-26T09:30:50Z</time>
      </trkpt>
      <trkpt lat="45.99581" lon="4.89066">
        <ele>289</ele>
        <time>2018-08-26T09:30:51Z</time>
      </trkpt>
      <trkpt lat="45.99583" lon="4.89056">
        <ele>289</ele>
        <time>2018-08-26T09:30:52Z</time>
      </trkpt>
      <trkpt lat="45.99586" lon="4.89049">
        <ele>289</ele>
        <time>2018-08-26T09:30:53Z</time>
      </trkpt>
      <trkpt lat="45.99587" lon="4.8904">
        <ele>289</ele>
        <time>2018-08-26T09:30:54Z</time>
      </trkpt>
      <trkpt lat="45.99587" lon="4.89031">
        <ele>289</ele>
        <time>2018-08-26T09:30:55Z</time>
      </trkpt>
      <trkpt lat="45.99587" lon="4.8902">
        <ele>288</ele>
        <time>2018-08-26T09:30:56Z</time>
      </trkpt>
      <trkpt lat="45.99586" lon="4.89012">
        <ele>288</ele>
        <time>2018-08-26T09:30:57Z</time>
      </trkpt>
      <trkpt lat="45.99586" lon="4.89003">
        <ele>288</ele>
        <time>2018-08-26T09:30:58Z</time>
      </trkpt>
      <trkpt lat="45.99585" lon="4.88993">
        <ele>288</ele>
        <time>2018-08-26T09:30:59Z</time>
      </trkpt>
      <trkpt lat="45.99584" lon="4.88983">
        <ele>288</ele>
        <time>2018-08-26T09:31:00Z</time>
      </trkpt>
      <trkpt lat="45.99583" lon="4.88974">
        <ele>287</ele>
        <time>2018-08-26T09:31:01Z</time>
      </trkpt>
      <trkpt lat="45.99582" lon="4.88965">
        <ele>287</ele>
        <time>2018-08-26T09:31:02Z</time>
      </trkpt>
      <trkpt lat="45.99582" lon="4.88957">
        <ele>287</ele>
        <time>2018-08-26T09:31:03Z</time>
      </trkpt>
      <trkpt lat="45.99581" lon="4.88949">
        <ele>287</ele>
        <time>2018-08-26T09:31:04Z</time>
      </trkpt>
      <trkpt lat="45.99581" lon="4.88941">
        <ele>287</ele>
        <time>2018-08-26T09:31:05Z</time>
      </trkpt>
      <trkpt lat="45.9958" lon="4.88931">
        <ele>287</ele>
        <time>2018-08-26T09:31:06Z</time>
      </trkpt>
      <trkpt lat="45.99579" lon="4.88922">
        <ele>287</ele>
        <time>2018-08-26T09:31:07Z</time>
      </trkpt>
      <trkpt lat="45.99578" lon="4.8891">
        <ele>287</ele>
        <time>2018-08-26T09:31:08Z</time>
      </trkpt>
      <trkpt lat="45.99576" lon="4.88899">
        <ele>287</ele>
        <time>2018-08-26T09:31:09Z</time>
      </trkpt>
      <trkpt lat="45.99576" lon="4.88889">
        <ele>287</ele>
        <time>2018-08-26T09:31:10Z</time>
      </trkpt>
      <trkpt lat="45.99574" lon="4.88879">
        <ele>287</ele>
        <time>2018-08-26T09:31:11Z</time>
      </trkpt>
      <trkpt lat="45.99574" lon="4.88867">
        <ele>287</ele>
        <time>2018-08-26T09:31:12Z</time>
      </trkpt>
      <trkpt lat="45.99573" lon="4.88858">
        <ele>287</ele>
        <time>2018-08-26T09:31:13Z</time>
      </trkpt>
      <trkpt lat="45.99572" lon="4.88848">
        <ele>287</ele>
        <time>2018-08-26T09:31:14Z</time>
      </trkpt>
      <trkpt lat="45.99571" lon="4.88837">
        <ele>287</ele>
        <time>2018-08-26T09:31:15Z</time>
      </trkpt>
      <trkpt lat="45.9957" lon="4.88827">
        <ele>287</ele>
        <time>2018-08-26T09:31:16Z</time>
      </trkpt>
      <trkpt lat="45.99569" lon="4.88819">
        <ele>287</ele>
        <time>2018-08-26T09:31:17Z</time>
      </trkpt>
      <trkpt lat="45.99569" lon="4.8881">
        <ele>287</ele>
        <time>2018-08-26T09:31:18Z</time>
      </trkpt>
      <trkpt lat="45.99568" lon="4.88801">
        <ele>287</ele>
        <time>2018-08-26T09:31:19Z</time>
      </trkpt>
      <trkpt lat="45.99565" lon="4.88792">
        <ele>287</ele>
        <time>2018-08-26T09:31:20Z</time>
      </trkpt>
      <trkpt lat="45.99563" lon="4.88781">
        <ele>287</ele>
        <time>2018-08-26T09:31:21Z</time>
      </trkpt>
      <trkpt lat="45.99562" lon="4.88773">
        <ele>287</ele>
        <time>2018-08-26T09:31:22Z</time>
      </trkpt>
      <trkpt lat="45.99561" lon="4.88763">
        <ele>287</ele>
        <time>2018-08-26T09:31:23Z</time>
      </trkpt>
      <trkpt lat="45.99562" lon="4.88755">
        <ele>287</ele>
        <time>2018-08-26T09:31:24Z</time>
      </trkpt>
      <trkpt lat="45.9956" lon="4.88745">
        <ele>287</ele>
        <time>2018-08-26T09:31:25Z</time>
      </trkpt>
      <trkpt lat="45.99559" lon="4.88735">
        <ele>286</ele>
        <time>2018-08-26T09:31:26Z</time>
      </trkpt>
      <trkpt lat="45.99557" lon="4.88726">
        <ele>286</ele>
        <time>2018-08-26T09:31:27Z</time>
      </trkpt>
      <trkpt lat="45.99556" lon="4.88715">
        <ele>286</ele>
        <time>2018-08-26T09:31:28Z</time>
      </trkpt>
      <trkpt lat="45.99555" lon="4.88706">
        <ele>286</ele>
        <time>2018-08-26T09:31:29Z</time>
      </trkpt>
      <trkpt lat="45.99556" lon="4.88696">
        <ele>286</ele>
        <time>2018-08-26T09:31:30Z</time>
      </trkpt>
      <trkpt lat="45.99554" lon="4.88686">
        <ele>286</ele>
        <time>2018-08-26T09:31:31Z</time>
      </trkpt>
      <trkpt lat="45.99554" lon="4.88676">
        <ele>286</ele>
        <time>2018-08-26T09:31:32Z</time>
      </trkpt>
      <trkpt lat="45.99553" lon="4.88667">
        <ele>286</ele>
        <time>2018-08-26T09:31:33Z</time>
      </trkpt>
      <trkpt lat="45.99553" lon="4.88656">
        <ele>286</ele>
        <time>2018-08-26T09:31:34Z</time>
      </trkpt>
      <trkpt lat="45.99553" lon="4.88645">
        <ele>286</ele>
        <time>2018-08-26T09:31:35Z</time>
      </trkpt>
      <trkpt lat="45.99553" lon="4.88635">
        <ele>286</ele>
        <time>2018-08-26T09:31:36Z</time>
      </trkpt>
      <trkpt lat="45.99552" lon="4.88625">
        <ele>286</ele>
        <time>2018-08-26T09:31:37Z</time>
      </trkpt>
      <trkpt lat="45.99549" lon="4.88615">
        <ele>286</ele>
        <time>2018-08-26T09:31:38Z</time>
      </trkpt>
      <trkpt lat="45.99547" lon="4.88605">
        <ele>286</ele>
        <time>2018-08-26T09:31:39Z</time>
      </trkpt>
      <trkpt lat="45.99546" lon="4.88595">
        <ele>286</ele>
        <time>2018-08-26T09:31:40Z</time>
      </trkpt>
      <trkpt lat="45.99545" lon="4.88586">
        <ele>286</ele>
        <time>2018-08-26T09:31:41Z</time>
      </trkpt>
      <trkpt lat="45.99543" lon="4.88578">
        <ele>286</ele>
        <time>2018-08-26T09:31:42Z</time>
      </trkpt>
      <trkpt lat="45.99542" lon="4.8857">
        <ele>285</ele>
        <time>2018-08-26T09:31:43Z</time>
      </trkpt>
      <trkpt lat="45.9954" lon="4.8856">
        <ele>285</ele>
        <time>2018-08-26T09:31:44Z</time>
      </trkpt>
      <trkpt lat="45.99535" lon="4.88549">
        <ele>285</ele>
        <time>2018-08-26T09:31:45Z</time>
      </trkpt>
      <trkpt lat="45.99531" lon="4.88538">
        <ele>285</ele>
        <time>2018-08-26T09:31:46Z</time>
      </trkpt>
      <trkpt lat="45.99527" lon="4.88532">
        <ele>285</ele>
        <time>2018-08-26T09:31:47Z</time>
      </trkpt>
      <trkpt lat="45.99522" lon="4.88522">
        <ele>285</ele>
        <time>2018-08-26T09:31:48Z</time>
      </trkpt>
      <trkpt lat="45.99517" lon="4.88512">
        <ele>285</ele>
        <time>2018-08-26T09:31:49Z</time>
      </trkpt>
      <trkpt lat="45.99513" lon="4.88505">
        <ele>285</ele>
        <time>2018-08-26T09:31:50Z</time>
      </trkpt>
      <trkpt lat="45.99509" lon="4.88496">
        <ele>284</ele>
        <time>2018-08-26T09:31:51Z</time>
      </trkpt>
      <trkpt lat="45.99507" lon="4.88487">
        <ele>284</ele>
        <time>2018-08-26T09:31:52Z</time>
      </trkpt>
      <trkpt lat="45.99501" lon="4.88478">
        <ele>284</ele>
        <time>2018-08-26T09:31:53Z</time>
      </trkpt>
      <trkpt lat="45.99497" lon="4.8847">
        <ele>284</ele>
        <time>2018-08-26T09:31:54Z</time>
      </trkpt>
      <trkpt lat="45.99492" lon="4.8846">
        <ele>284</ele>
        <time>2018-08-26T09:31:55Z</time>
      </trkpt>
      <trkpt lat="45.99486" lon="4.88452">
        <ele>284</ele>
        <time>2018-08-26T09:31:56Z</time>
      </trkpt>
      <trkpt lat="45.99481" lon="4.88444">
        <ele>284</ele>
        <time>2018-08-26T09:31:57Z</time>
      </trkpt>
      <trkpt lat="45.99476" lon="4.88436">
        <ele>284</ele>
        <time>2018-08-26T09:31:58Z</time>
      </trkpt>
      <trkpt lat="45.9947" lon="4.88429">
        <ele>284</ele>
        <time>2018-08-26T09:31:59Z</time>
      </trkpt>
      <trkpt lat="45.99463" lon="4.88422">
        <ele>284</ele>
        <time>2018-08-26T09:32:00Z</time>
      </trkpt>
      <trkpt lat="45.99456" lon="4.88415">
        <ele>283</ele>
        <time>2018-08-26T09:32:01Z</time>
      </trkpt>
      <trkpt lat="45.99449" lon="4.88409">
        <ele>283</ele>
        <time>2018-08-26T09:32:02Z</time>
      </trkpt>
      <trkpt lat="45.99442" lon="4.88401">
        <ele>283</ele>
        <time>2018-08-26T09:32:03Z</time>
      </trkpt>
      <trkpt lat="45.99438" lon="4.88394">
        <ele>283</ele>
        <time>2018-08-26T09:32:04Z</time>
      </trkpt>
      <trkpt lat="45.99431" lon="4.88389">
        <ele>283</ele>
        <time>2018-08-26T09:32:05Z</time>
      </trkpt>
      <trkpt lat="45.99429" lon="4.88386">
        <ele>283</ele>
        <time>2018-08-26T09:32:06Z</time>
      </trkpt>
      <trkpt lat="45.99427" lon="4.88373">
        <ele>283</ele>
        <time>2018-08-26T09:32:07Z</time>
      </trkpt>
      <trkpt lat="45.99424" lon="4.88363">
        <ele>283</ele>
        <time>2018-08-26T09:32:08Z</time>
      </trkpt>
      <trkpt lat="45.99419" lon="4.88353">
        <ele>283</ele>
        <time>2018-08-26T09:32:09Z</time>
      </trkpt>
      <trkpt lat="45.99416" lon="4.88342">
        <ele>282</ele>
        <time>2018-08-26T09:32:10Z</time>
      </trkpt>
      <trkpt lat="45.99412" lon="4.88332">
        <ele>282</ele>
        <time>2018-08-26T09:32:11Z</time>
      </trkpt>
      <trkpt lat="45.99407" lon="4.88321">
        <ele>283</ele>
        <time>2018-08-26T09:32:12Z</time>
      </trkpt>
      <trkpt lat="45.99403" lon="4.88311">
        <ele>283</ele>
        <time>2018-08-26T09:32:13Z</time>
      </trkpt>
      <trkpt lat="45.99398" lon="4.883">
        <ele>284</ele>
        <time>2018-08-26T09:32:14Z</time>
      </trkpt>
      <trkpt lat="45.99395" lon="4.88291">
        <ele>284</ele>
        <time>2018-08-26T09:32:15Z</time>
      </trkpt>
      <trkpt lat="45.99394" lon="4.88281">
        <ele>284</ele>
        <time>2018-08-26T09:32:16Z</time>
      </trkpt>
      <trkpt lat="45.99391" lon="4.88272">
        <ele>285</ele>
        <time>2018-08-26T09:32:17Z</time>
      </trkpt>
      <trkpt lat="45.99386" lon="4.88265">
        <ele>285</ele>
        <time>2018-08-26T09:32:18Z</time>
      </trkpt>
      <trkpt lat="45.99383" lon="4.88257">
        <ele>285</ele>
        <time>2018-08-26T09:32:19Z</time>
      </trkpt>
      <trkpt lat="45.99378" lon="4.88248">
        <ele>287</ele>
        <time>2018-08-26T09:32:20Z</time>
      </trkpt>
      <trkpt lat="45.99374" lon="4.88241">
        <ele>287</ele>
        <time>2018-08-26T09:32:21Z</time>
      </trkpt>
      <trkpt lat="45.9937" lon="4.88234">
        <ele>287</ele>
        <time>2018-08-26T09:32:22Z</time>
      </trkpt>
      <trkpt lat="45.99365" lon="4.88228">
        <ele>287</ele>
        <time>2018-08-26T09:32:23Z</time>
      </trkpt>
      <trkpt lat="45.99359" lon="4.88222">
        <ele>287</ele>
        <time>2018-08-26T09:32:24Z</time>
      </trkpt>
      <trkpt lat="45.99352" lon="4.88216">
        <ele>287</ele>
        <time>2018-08-26T09:32:25Z</time>
      </trkpt>
      <trkpt lat="45.99347" lon="4.88211">
        <ele>287</ele>
        <time>2018-08-26T09:32:26Z</time>
      </trkpt>
      <trkpt lat="45.99339" lon="4.88204">
        <ele>288</ele>
        <time>2018-08-26T09:32:27Z</time>
      </trkpt>
      <trkpt lat="45.99334" lon="4.88199">
        <ele>288</ele>
        <time>2018-08-26T09:32:28Z</time>
      </trkpt>
      <trkpt lat="45.99328" lon="4.88195">
        <ele>285</ele>
        <time>2018-08-26T09:32:29Z</time>
      </trkpt>
      <trkpt lat="45.99322" lon="4.8819">
        <ele>285</ele>
        <time>2018-08-26T09:32:30Z</time>
      </trkpt>
      <trkpt lat="45.99315" lon="4.88182">
        <ele>285</ele>
        <time>2018-08-26T09:32:31Z</time>
      </trkpt>
      <trkpt lat="45.99311" lon="4.88178">
        <ele>285</ele>
        <time>2018-08-26T09:32:32Z</time>
      </trkpt>
      <trkpt lat="45.99305" lon="4.88173">
        <ele>285</ele>
        <time>2018-08-26T09:32:33Z</time>
      </trkpt>
      <trkpt lat="45.99298" lon="4.88167">
        <ele>284</ele>
        <time>2018-08-26T09:32:34Z</time>
      </trkpt>
      <trkpt lat="45.99292" lon="4.88162">
        <ele>284</ele>
        <time>2018-08-26T09:32:35Z</time>
      </trkpt>
      <trkpt lat="45.99286" lon="4.88155">
        <ele>284</ele>
        <time>2018-08-26T09:32:36Z</time>
      </trkpt>
      <trkpt lat="45.9928" lon="4.88149">
        <ele>284</ele>
        <time>2018-08-26T09:32:37Z</time>
      </trkpt>
      <trkpt lat="45.99271" lon="4.88142">
        <ele>283</ele>
        <time>2018-08-26T09:32:38Z</time>
      </trkpt>
      <trkpt lat="45.99264" lon="4.88134">
        <ele>283</ele>
        <time>2018-08-26T09:32:39Z</time>
      </trkpt>
      <trkpt lat="45.99255" lon="4.88129">
        <ele>283</ele>
        <time>2018-08-26T09:32:40Z</time>
      </trkpt>
      <trkpt lat="45.99247" lon="4.88125">
        <ele>280</ele>
        <time>2018-08-26T09:32:41Z</time>
      </trkpt>
      <trkpt lat="45.99241" lon="4.88118">
        <ele>280</ele>
        <time>2018-08-26T09:32:42Z</time>
      </trkpt>
      <trkpt lat="45.99235" lon="4.88113">
        <ele>280</ele>
        <time>2018-08-26T09:32:43Z</time>
      </trkpt>
      <trkpt lat="45.99229" lon="4.88107">
        <ele>280</ele>
        <time>2018-08-26T09:32:44Z</time>
      </trkpt>
      <trkpt lat="45.99222" lon="4.88101">
        <ele>280</ele>
        <time>2018-08-26T09:32:45Z</time>
      </trkpt>
      <trkpt lat="45.99216" lon="4.88095">
        <ele>280</ele>
        <time>2018-08-26T09:32:46Z</time>
      </trkpt>
      <trkpt lat="45.9921" lon="4.88089">
        <ele>280</ele>
        <time>2018-08-26T09:32:47Z</time>
      </trkpt>
      <trkpt lat="45.99204" lon="4.88084">
        <ele>280</ele>
        <time>2018-08-26T09:32:48Z</time>
      </trkpt>
      <trkpt lat="45.99199" lon="4.88079">
        <ele>280</ele>
        <time>2018-08-26T09:32:49Z</time>
      </trkpt>
      <trkpt lat="45.99194" lon="4.88073">
        <ele>280</ele>
        <time>2018-08-26T09:32:50Z</time>
      </trkpt>
      <trkpt lat="45.99187" lon="4.88068">
        <ele>280</ele>
        <time>2018-08-26T09:32:51Z</time>
      </trkpt>
      <trkpt lat="45.9918" lon="4.88062">
        <ele>279</ele>
        <time>2018-08-26T09:32:52Z</time>
      </trkpt>
      <trkpt lat="45.99173" lon="4.88057">
        <ele>279</ele>
        <time>2018-08-26T09:32:53Z</time>
      </trkpt>
      <trkpt lat="45.99165" lon="4.88051">
        <ele>279</ele>
        <time>2018-08-26T09:32:54Z</time>
      </trkpt>
      <trkpt lat="45.99157" lon="4.88046">
        <ele>279</ele>
        <time>2018-08-26T09:32:55Z</time>
      </trkpt>
      <trkpt lat="45.9915" lon="4.8804">
        <ele>279</ele>
        <time>2018-08-26T09:32:56Z</time>
      </trkpt>
      <trkpt lat="45.99142" lon="4.88035">
        <ele>279</ele>
        <time>2018-08-26T09:32:57Z</time>
      </trkpt>
      <trkpt lat="45.99135" lon="4.88034">
        <ele>279</ele>
        <time>2018-08-26T09:32:58Z</time>
      </trkpt>
      <trkpt lat="45.99129" lon="4.88031">
        <ele>279</ele>
        <time>2018-08-26T09:32:59Z</time>
      </trkpt>
      <trkpt lat="45.99121" lon="4.88027">
        <ele>278</ele>
        <time>2018-08-26T09:33:00Z</time>
      </trkpt>
      <trkpt lat="45.99112" lon="4.88023">
        <ele>278</ele>
        <time>2018-08-26T09:33:01Z</time>
      </trkpt>
      <trkpt lat="45.99104" lon="4.88018">
        <ele>278</ele>
        <time>2018-08-26T09:33:02Z</time>
      </trkpt>
      <trkpt lat="45.99099" lon="4.88014">
        <ele>278</ele>
        <time>2018-08-26T09:33:03Z</time>
      </trkpt>
      <trkpt lat="45.99091" lon="4.88009">
        <ele>278</ele>
        <time>2018-08-26T09:33:04Z</time>
      </trkpt>
      <trkpt lat="45.99083" lon="4.88004">
        <ele>278</ele>
        <time>2018-08-26T09:33:05Z</time>
      </trkpt>
      <trkpt lat="45.99075" lon="4.87997">
        <ele>278</ele>
        <time>2018-08-26T09:33:06Z</time>
      </trkpt>
      <trkpt lat="45.99067" lon="4.87989">
        <ele>277</ele>
        <time>2018-08-26T09:33:07Z</time>
      </trkpt>
      <trkpt lat="45.99059" lon="4.87985">
        <ele>277</ele>
        <time>2018-08-26T09:33:08Z</time>
      </trkpt>
      <trkpt lat="45.99054" lon="4.87982">
        <ele>277</ele>
        <time>2018-08-26T09:33:09Z</time>
      </trkpt>
      <trkpt lat="45.99046" lon="4.87983">
        <ele>277</ele>
        <time>2018-08-26T09:33:10Z</time>
      </trkpt>
      <trkpt lat="45.99038" lon="4.87979">
        <ele>276</ele>
        <time>2018-08-26T09:33:11Z</time>
      </trkpt>
      <trkpt lat="45.99031" lon="4.87975">
        <ele>276</ele>
        <time>2018-08-26T09:33:12Z</time>
      </trkpt>
      <trkpt lat="45.99023" lon="4.87969">
        <ele>276</ele>
        <time>2018-08-26T09:33:13Z</time>
      </trkpt>
      <trkpt lat="45.99016" lon="4.87965">
        <ele>276</ele>
        <time>2018-08-26T09:33:14Z</time>
      </trkpt>
      <trkpt lat="45.99007" lon="4.87961">
        <ele>276</ele>
        <time>2018-08-26T09:33:15Z</time>
      </trkpt>
      <trkpt lat="45.98997" lon="4.87956">
        <ele>274</ele>
        <time>2018-08-26T09:33:16Z</time>
      </trkpt>
      <trkpt lat="45.9899" lon="4.87952">
        <ele>274</ele>
        <time>2018-08-26T09:33:17Z</time>
      </trkpt>
      <trkpt lat="45.98981" lon="4.87947">
        <ele>274</ele>
        <time>2018-08-26T09:33:18Z</time>
      </trkpt>
      <trkpt lat="45.98973" lon="4.87942">
        <ele>274</ele>
        <time>2018-08-26T09:33:19Z</time>
      </trkpt>
      <trkpt lat="45.98965" lon="4.87937">
        <ele>274</ele>
        <time>2018-08-26T09:33:20Z</time>
      </trkpt>
      <trkpt lat="45.98956" lon="4.87932">
        <ele>273</ele>
        <time>2018-08-26T09:33:21Z</time>
      </trkpt>
      <trkpt lat="45.98948" lon="4.87928">
        <ele>273</ele>
        <time>2018-08-26T09:33:22Z</time>
      </trkpt>
      <trkpt lat="45.9894" lon="4.87923">
        <ele>273</ele>
        <time>2018-08-26T09:33:23Z</time>
      </trkpt>
      <trkpt lat="45.98933" lon="4.87917">
        <ele>272</ele>
        <time>2018-08-26T09:33:24Z</time>
      </trkpt>
      <trkpt lat="45.98926" lon="4.8791">
        <ele>272</ele>
        <time>2018-08-26T09:33:25Z</time>
      </trkpt>
      <trkpt lat="45.98918" lon="4.87902">
        <ele>273</ele>
        <time>2018-08-26T09:33:26Z</time>
      </trkpt>
      <trkpt lat="45.98909" lon="4.87894">
        <ele>272</ele>
        <time>2018-08-26T09:33:27Z</time>
      </trkpt>
      <trkpt lat="45.98902" lon="4.87885">
        <ele>272</ele>
        <time>2018-08-26T09:33:28Z</time>
      </trkpt>
      <trkpt lat="45.98895" lon="4.87876">
        <ele>272</ele>
        <time>2018-08-26T09:33:29Z</time>
      </trkpt>
      <trkpt lat="45.98889" lon="4.87867">
        <ele>272</ele>
        <time>2018-08-26T09:33:30Z</time>
      </trkpt>
      <trkpt lat="45.98883" lon="4.87856">
        <ele>272</ele>
        <time>2018-08-26T09:33:31Z</time>
      </trkpt>
      <trkpt lat="45.98878" lon="4.87846">
        <ele>272</ele>
        <time>2018-08-26T09:33:32Z</time>
      </trkpt>
      <trkpt lat="45.98872" lon="4.87836">
        <ele>273</ele>
        <time>2018-08-26T09:33:33Z</time>
      </trkpt>
      <trkpt lat="45.98867" lon="4.87825">
        <ele>273</ele>
        <time>2018-08-26T09:33:34Z</time>
      </trkpt>
      <trkpt lat="45.98863" lon="4.87817">
        <ele>273</ele>
        <time>2018-08-26T09:33:35Z</time>
      </trkpt>
      <trkpt lat="45.98858" lon="4.87806">
        <ele>273</ele>
        <time>2018-08-26T09:33:36Z</time>
      </trkpt>
      <trkpt lat="45.98854" lon="4.87795">
        <ele>273</ele>
        <time>2018-08-26T09:33:37Z</time>
      </trkpt>
      <trkpt lat="45.98851" lon="4.87786">
        <ele>273</ele>
        <time>2018-08-26T09:33:38Z</time>
      </trkpt>
      <trkpt lat="45.98849" lon="4.87775">
        <ele>273</ele>
        <time>2018-08-26T09:33:39Z</time>
      </trkpt>
      <trkpt lat="45.98845" lon="4.87764">
        <ele>273</ele>
        <time>2018-08-26T09:33:40Z</time>
      </trkpt>
      <trkpt lat="45.98843" lon="4.87751">
        <ele>273</ele>
        <time>2018-08-26T09:33:41Z</time>
      </trkpt>
      <trkpt lat="45.98841" lon="4.87741">
        <ele>273</ele>
        <time>2018-08-26T09:33:42Z</time>
      </trkpt>
      <trkpt lat="45.98839" lon="4.8773">
        <ele>273</ele>
        <time>2018-08-26T09:33:43Z</time>
      </trkpt>
      <trkpt lat="45.98837" lon="4.8772">
        <ele>273</ele>
        <time>2018-08-26T09:33:44Z</time>
      </trkpt>
      <trkpt lat="45.98836" lon="4.87712">
        <ele>273</ele>
        <time>2018-08-26T09:33:45Z</time>
      </trkpt>
      <trkpt lat="45.98833" lon="4.87701">
        <ele>273</ele>
        <time>2018-08-26T09:33:46Z</time>
      </trkpt>
      <trkpt lat="45.98832" lon="4.87694">
        <ele>273</ele>
        <time>2018-08-26T09:33:47Z</time>
      </trkpt>
      <trkpt lat="45.98831" lon="4.87683">
        <ele>273</ele>
        <time>2018-08-26T09:33:48Z</time>
      </trkpt>
      <trkpt lat="45.98829" lon="4.87673">
        <ele>272</ele>
        <time>2018-08-26T09:33:49Z</time>
      </trkpt>
      <trkpt lat="45.98822" lon="4.8766">
        <ele>272</ele>
        <time>2018-08-26T09:33:50Z</time>
      </trkpt>
      <trkpt lat="45.98819" lon="4.8765">
        <ele>272</ele>
        <time>2018-08-26T09:33:51Z</time>
      </trkpt>
      <trkpt lat="45.98817" lon="4.87642">
        <ele>272</ele>
        <time>2018-08-26T09:33:52Z</time>
      </trkpt>
      <trkpt lat="45.98814" lon="4.87632">
        <ele>271</ele>
        <time>2018-08-26T09:33:53Z</time>
      </trkpt>
      <trkpt lat="45.98811" lon="4.87623">
        <ele>271</ele>
        <time>2018-08-26T09:33:54Z</time>
      </trkpt>
      <trkpt lat="45.98807" lon="4.87616">
        <ele>271</ele>
        <time>2018-08-26T09:33:55Z</time>
      </trkpt>
      <trkpt lat="45.98803" lon="4.87608">
        <ele>271</ele>
        <time>2018-08-26T09:33:56Z</time>
      </trkpt>
      <trkpt lat="45.98798" lon="4.87601">
        <ele>271</ele>
        <time>2018-08-26T09:33:57Z</time>
      </trkpt>
      <trkpt lat="45.98794" lon="4.87594">
        <ele>271</ele>
        <time>2018-08-26T09:33:58Z</time>
      </trkpt>
      <trkpt lat="45.98791" lon="4.87588">
        <ele>271</ele>
        <time>2018-08-26T09:33:59Z</time>
      </trkpt>
      <trkpt lat="45.98787" lon="4.87581">
        <ele>269</ele>
        <time>2018-08-26T09:34:00Z</time>
      </trkpt>
      <trkpt lat="45.9878" lon="4.87574">
        <ele>269</ele>
        <time>2018-08-26T09:34:01Z</time>
      </trkpt>
      <trkpt lat="45.98773" lon="4.87568">
        <ele>269</ele>
        <time>2018-08-26T09:34:02Z</time>
      </trkpt>
      <trkpt lat="45.98766" lon="4.87563">
        <ele>269</ele>
        <time>2018-08-26T09:34:03Z</time>
      </trkpt>
      <trkpt lat="45.9876" lon="4.87559">
        <ele>269</ele>
        <time>2018-08-26T09:34:04Z</time>
      </trkpt>
      <trkpt lat="45.98753" lon="4.87558">
        <ele>269</ele>
        <time>2018-08-26T09:34:05Z</time>
      </trkpt>
      <trkpt lat="45.98745" lon="4.87555">
        <ele>267</ele>
        <time>2018-08-26T09:34:06Z</time>
      </trkpt>
      <trkpt lat="45.98739" lon="4.87553">
        <ele>267</ele>
        <time>2018-08-26T09:34:07Z</time>
      </trkpt>
      <trkpt lat="45.98733" lon="4.87553">
        <ele>267</ele>
        <time>2018-08-26T09:34:08Z</time>
      </trkpt>
      <trkpt lat="45.98725" lon="4.87552">
        <ele>267</ele>
        <time>2018-08-26T09:34:09Z</time>
      </trkpt>
      <trkpt lat="45.98719" lon="4.87554">
        <ele>267</ele>
        <time>2018-08-26T09:34:10Z</time>
      </trkpt>
      <trkpt lat="45.98712" lon="4.87555">
        <ele>267</ele>
        <time>2018-08-26T09:34:11Z</time>
      </trkpt>
      <trkpt lat="45.98706" lon="4.87557">
        <ele>267</ele>
        <time>2018-08-26T09:34:12Z</time>
      </trkpt>
      <trkpt lat="45.98699" lon="4.87558">
        <ele>267</ele>
        <time>2018-08-26T09:34:13Z</time>
      </trkpt>
      <trkpt lat="45.98695" lon="4.87563">
        <ele>267</ele>
        <time>2018-08-26T09:34:14Z</time>
      </trkpt>
      <trkpt lat="45.9869" lon="4.87565">
        <ele>267</ele>
        <time>2018-08-26T09:34:15Z</time>
      </trkpt>
      <trkpt lat="45.98684" lon="4.87563">
        <ele>267</ele>
        <time>2018-08-26T09:34:16Z</time>
      </trkpt>
      <trkpt lat="45.98675" lon="4.87563">
        <ele>267</ele>
        <time>2018-08-26T09:34:17Z</time>
      </trkpt>
      <trkpt lat="45.98668" lon="4.87563">
        <ele>267</ele>
        <time>2018-08-26T09:34:18Z</time>
      </trkpt>
      <trkpt lat="45.98663" lon="4.87561">
        <ele>267</ele>
        <time>2018-08-26T09:34:19Z</time>
      </trkpt>
      <trkpt lat="45.98655" lon="4.87559">
        <ele>267</ele>
        <time>2018-08-26T09:34:21Z</time>
      </trkpt>
      <trkpt lat="45.98649" lon="4.87554">
        <ele>267</ele>
        <time>2018-08-26T09:34:22Z</time>
      </trkpt>
      <trkpt lat="45.98647" lon="4.87548">
        <ele>267</ele>
        <time>2018-08-26T09:34:23Z</time>
      </trkpt>
      <trkpt lat="45.98645" lon="4.8754">
        <ele>267</ele>
        <time>2018-08-26T09:34:24Z</time>
      </trkpt>
      <trkpt lat="45.98643" lon="4.87528">
        <ele>267</ele>
        <time>2018-08-26T09:34:26Z</time>
      </trkpt>
      <trkpt lat="45.98642" lon="4.87522">
        <ele>267</ele>
        <time>2018-08-26T09:34:27Z</time>
      </trkpt>
      <trkpt lat="45.98639" lon="4.87514">
        <ele>267</ele>
        <time>2018-08-26T09:34:28Z</time>
      </trkpt>
      <trkpt lat="45.98638" lon="4.87507">
        <ele>267</ele>
        <time>2018-08-26T09:34:29Z</time>
      </trkpt>
      <trkpt lat="45.98637" lon="4.875">
        <ele>267</ele>
        <time>2018-08-26T09:34:30Z</time>
      </trkpt>
      <trkpt lat="45.98635" lon="4.87493">
        <ele>267</ele>
        <time>2018-08-26T09:34:31Z</time>
      </trkpt>
      <trkpt lat="45.98634" lon="4.87487">
        <ele>268</ele>
        <time>2018-08-26T09:34:32Z</time>
      </trkpt>
      <trkpt lat="45.98632" lon="4.87479">
        <ele>268</ele>
        <time>2018-08-26T09:34:33Z</time>
      </trkpt>
      <trkpt lat="45.98629" lon="4.87468">
        <ele>268</ele>
        <time>2018-08-26T09:34:35Z</time>
      </trkpt>
      <trkpt lat="45.98628" lon="4.8746">
        <ele>268</ele>
        <time>2018-08-26T09:34:36Z</time>
      </trkpt>
      <trkpt lat="45.98627" lon="4.87454">
        <ele>268</ele>
        <time>2018-08-26T09:34:37Z</time>
      </trkpt>
      <trkpt lat="45.98626" lon="4.87448">
        <ele>268</ele>
        <time>2018-08-26T09:34:38Z</time>
      </trkpt>
      <trkpt lat="45.98625" lon="4.87436">
        <ele>269</ele>
        <time>2018-08-26T09:34:40Z</time>
      </trkpt>
      <trkpt lat="45.98624" lon="4.87431">
        <ele>269</ele>
        <time>2018-08-26T09:34:41Z</time>
      </trkpt>
      <trkpt lat="45.98622" lon="4.8742">
        <ele>269</ele>
        <time>2018-08-26T09:34:43Z</time>
      </trkpt>
      <trkpt lat="45.9862" lon="4.87415">
        <ele>271</ele>
        <time>2018-08-26T09:34:44Z</time>
      </trkpt>
      <trkpt lat="45.98619" lon="4.87409">
        <ele>271</ele>
        <time>2018-08-26T09:34:45Z</time>
      </trkpt>
      <trkpt lat="45.98617" lon="4.87403">
        <ele>271</ele>
        <time>2018-08-26T09:34:46Z</time>
      </trkpt>
      <trkpt lat="45.98615" lon="4.87391">
        <ele>271</ele>
        <time>2018-08-26T09:34:48Z</time>
      </trkpt>
      <trkpt lat="45.98614" lon="4.87386">
        <ele>271</ele>
        <time>2018-08-26T09:34:49Z</time>
      </trkpt>
      <trkpt lat="45.98612" lon="4.87374">
        <ele>271</ele>
        <time>2018-08-26T09:34:51Z</time>
      </trkpt>
      <trkpt lat="45.98612" lon="4.87369">
        <ele>271</ele>
        <time>2018-08-26T09:34:52Z</time>
      </trkpt>
      <trkpt lat="45.9861" lon="4.87359">
        <ele>272</ele>
        <time>2018-08-26T09:34:54Z</time>
      </trkpt>
      <trkpt lat="45.98609" lon="4.87354">
        <ele>272</ele>
        <time>2018-08-26T09:34:55Z</time>
      </trkpt>
      <trkpt lat="45.98608" lon="4.87343">
        <ele>272</ele>
        <time>2018-08-26T09:34:57Z</time>
      </trkpt>
      <trkpt lat="45.98608" lon="4.87338">
        <ele>272</ele>
        <time>2018-08-26T09:34:58Z</time>
      </trkpt>
      <trkpt lat="45.98607" lon="4.87327">
        <ele>274</ele>
        <time>2018-08-26T09:35:00Z</time>
      </trkpt>
      <trkpt lat="45.98606" lon="4.87322">
        <ele>274</ele>
        <time>2018-08-26T09:35:01Z</time>
      </trkpt>
      <trkpt lat="45.98605" lon="4.87312">
        <ele>274</ele>
        <time>2018-08-26T09:35:03Z</time>
      </trkpt>
      <trkpt lat="45.98605" lon="4.87304">
        <ele>274</ele>
        <time>2018-08-26T09:35:04Z</time>
      </trkpt>
      <trkpt lat="45.98605" lon="4.87297">
        <ele>275</ele>
        <time>2018-08-26T09:35:05Z</time>
      </trkpt>
      <trkpt lat="45.98605" lon="4.87291">
        <ele>275</ele>
        <time>2018-08-26T09:35:06Z</time>
      </trkpt>
      <trkpt lat="45.98606" lon="4.8728">
        <ele>275</ele>
        <time>2018-08-26T09:35:08Z</time>
      </trkpt>
      <trkpt lat="45.98605" lon="4.87272">
        <ele>275</ele>
        <time>2018-08-26T09:35:09Z</time>
      </trkpt>
      <trkpt lat="45.98603" lon="4.8726">
        <ele>275</ele>
        <time>2018-08-26T09:35:11Z</time>
      </trkpt>
      <trkpt lat="45.98603" lon="4.87254">
        <ele>275</ele>
        <time>2018-08-26T09:35:12Z</time>
      </trkpt>
      <trkpt lat="45.98604" lon="4.87245">
        <ele>277</ele>
        <time>2018-08-26T09:35:14Z</time>
      </trkpt>
      <trkpt lat="45.98605" lon="4.87238">
        <ele>277</ele>
        <time>2018-08-26T09:35:15Z</time>
      </trkpt>
      <trkpt lat="45.98605" lon="4.87227">
        <ele>277</ele>
        <time>2018-08-26T09:35:17Z</time>
      </trkpt>
      <trkpt lat="45.98606" lon="4.87221">
        <ele>277</ele>
        <time>2018-08-26T09:35:18Z</time>
      </trkpt>
      <trkpt lat="45.98608" lon="4.8721">
        <ele>277</ele>
        <time>2018-08-26T09:35:20Z</time>
      </trkpt>
      <trkpt lat="45.98609" lon="4.87204">
        <ele>277</ele>
        <time>2018-08-26T09:35:21Z</time>
      </trkpt>
      <trkpt lat="45.9861" lon="4.87193">
        <ele>277</ele>
        <time>2018-08-26T09:35:23Z</time>
      </trkpt>
      <trkpt lat="45.98611" lon="4.87187">
        <ele>277</ele>
        <time>2018-08-26T09:35:24Z</time>
      </trkpt>
      <trkpt lat="45.98612" lon="4.87179">
        <ele>278</ele>
        <time>2018-08-26T09:35:25Z</time>
      </trkpt>
      <trkpt lat="45.98614" lon="4.87172">
        <ele>278</ele>
        <time>2018-08-26T09:35:26Z</time>
      </trkpt>
      <trkpt lat="45.98614" lon="4.87169">
        <ele>278</ele>
        <time>2018-08-26T09:35:27Z</time>
      </trkpt>
      <trkpt lat="45.98614" lon="4.87155">
        <ele>278</ele>
        <time>2018-08-26T09:35:28Z</time>
      </trkpt>
      <trkpt lat="45.98612" lon="4.87144">
        <ele>278</ele>
        <time>2018-08-26T09:35:30Z</time>
      </trkpt>
      <trkpt lat="45.98613" lon="4.87137">
        <ele>279</ele>
        <time>2018-08-26T09:35:31Z</time>
      </trkpt>
      <trkpt lat="45.98612" lon="4.87125">
        <ele>279</ele>
        <time>2018-08-26T09:35:33Z</time>
      </trkpt>
      <trkpt lat="45.98612" lon="4.8712">
        <ele>279</ele>
        <time>2018-08-26T09:35:34Z</time>
      </trkpt>
      <trkpt lat="45.98611" lon="4.87112">
        <ele>279</ele>
        <time>2018-08-26T09:35:35Z</time>
      </trkpt>
      <trkpt lat="45.98609" lon="4.87105">
        <ele>279</ele>
        <time>2018-08-26T09:35:36Z</time>
      </trkpt>
      <trkpt lat="45.98607" lon="4.87094">
        <ele>279</ele>
        <time>2018-08-26T09:35:38Z</time>
      </trkpt>
      <trkpt lat="45.98605" lon="4.87089">
        <ele>279</ele>
        <time>2018-08-26T09:35:39Z</time>
      </trkpt>
      <trkpt lat="45.98604" lon="4.87077">
        <ele>279</ele>
        <time>2018-08-26T09:35:41Z</time>
      </trkpt>
      <trkpt lat="45.98602" lon="4.87071">
        <ele>279</ele>
        <time>2018-08-26T09:35:42Z</time>
      </trkpt>
      <trkpt lat="45.98599" lon="4.8706">
        <ele>279</ele>
        <time>2018-08-26T09:35:44Z</time>
      </trkpt>
      <trkpt lat="45.98598" lon="4.87054">
        <ele>279</ele>
        <time>2018-08-26T09:35:45Z</time>
      </trkpt>
      <trkpt lat="45.98597" lon="4.87042">
        <ele>279</ele>
        <time>2018-08-26T09:35:47Z</time>
      </trkpt>
      <trkpt lat="45.98596" lon="4.87036">
        <ele>279</ele>
        <time>2018-08-26T09:35:48Z</time>
      </trkpt>
      <trkpt lat="45.98594" lon="4.8703">
        <ele>279</ele>
        <time>2018-08-26T09:35:49Z</time>
      </trkpt>
      <trkpt lat="45.98593" lon="4.87023">
        <ele>279</ele>
        <time>2018-08-26T09:35:50Z</time>
      </trkpt>
      <trkpt lat="45.98591" lon="4.87014">
        <ele>279</ele>
        <time>2018-08-26T09:35:52Z</time>
      </trkpt>
      <trkpt lat="45.98593" lon="4.8701">
        <ele>279</ele>
        <time>2018-08-26T09:35:53Z</time>
      </trkpt>
      <trkpt lat="45.98592" lon="4.86999">
        <ele>279</ele>
        <time>2018-08-26T09:35:55Z</time>
      </trkpt>
      <trkpt lat="45.9859" lon="4.86992">
        <ele>279</ele>
        <time>2018-08-26T09:35:56Z</time>
      </trkpt>
      <trkpt lat="45.9859" lon="4.86983">
        <ele>279</ele>
        <time>2018-08-26T09:35:58Z</time>
      </trkpt>
      <trkpt lat="45.98588" lon="4.86976">
        <ele>279</ele>
        <time>2018-08-26T09:35:59Z</time>
      </trkpt>
      <trkpt lat="45.98588" lon="4.8697">
        <ele>279</ele>
        <time>2018-08-26T09:36:00Z</time>
      </trkpt>
      <trkpt lat="45.98588" lon="4.86963">
        <ele>279</ele>
        <time>2018-08-26T09:36:01Z</time>
      </trkpt>
      <trkpt lat="45.98588" lon="4.86956">
        <ele>279</ele>
        <time>2018-08-26T09:36:02Z</time>
      </trkpt>
      <trkpt lat="45.98587" lon="4.8695">
        <ele>279</ele>
        <time>2018-08-26T09:36:03Z</time>
      </trkpt>
      <trkpt lat="45.98587" lon="4.86943">
        <ele>279</ele>
        <time>2018-08-26T09:36:04Z</time>
      </trkpt>
      <trkpt lat="45.98587" lon="4.86936">
        <ele>279</ele>
        <time>2018-08-26T09:36:05Z</time>
      </trkpt>
      <trkpt lat="45.98587" lon="4.86929">
        <ele>279</ele>
        <time>2018-08-26T09:36:06Z</time>
      </trkpt>
      <trkpt lat="45.98587" lon="4.86923">
        <ele>279</ele>
        <time>2018-08-26T09:36:07Z</time>
      </trkpt>
      <trkpt lat="45.98587" lon="4.86916">
        <ele>279</ele>
        <time>2018-08-26T09:36:08Z</time>
      </trkpt>
      <trkpt lat="45.98586" lon="4.8691">
        <ele>278</ele>
        <time>2018-08-26T09:36:09Z</time>
      </trkpt>
      <trkpt lat="45.98586" lon="4.86898">
        <ele>278</ele>
        <time>2018-08-26T09:36:11Z</time>
      </trkpt>
      <trkpt lat="45.98587" lon="4.86891">
        <ele>278</ele>
        <time>2018-08-26T09:36:12Z</time>
      </trkpt>
      <trkpt lat="45.98587" lon="4.8688">
        <ele>277</ele>
        <time>2018-08-26T09:36:14Z</time>
      </trkpt>
      <trkpt lat="45.98588" lon="4.86874">
        <ele>277</ele>
        <time>2018-08-26T09:36:15Z</time>
      </trkpt>
      <trkpt lat="45.98588" lon="4.86862">
        <ele>277</ele>
        <time>2018-08-26T09:36:17Z</time>
      </trkpt>
      <trkpt lat="45.98588" lon="4.86855">
        <ele>277</ele>
        <time>2018-08-26T09:36:18Z</time>
      </trkpt>
      <trkpt lat="45.98588" lon="4.86845">
        <ele>277</ele>
        <time>2018-08-26T09:36:20Z</time>
      </trkpt>
      <trkpt lat="45.98588" lon="4.86839">
        <ele>277</ele>
        <time>2018-08-26T09:36:21Z</time>
      </trkpt>
      <trkpt lat="45.98586" lon="4.8683">
        <ele>277</ele>
        <time>2018-08-26T09:36:23Z</time>
      </trkpt>
      <trkpt lat="45.98584" lon="4.86824">
        <ele>277</ele>
        <time>2018-08-26T09:36:24Z</time>
      </trkpt>
      <trkpt lat="45.98583" lon="4.86817">
        <ele>277</ele>
        <time>2018-08-26T09:36:25Z</time>
      </trkpt>
      <trkpt lat="45.98581" lon="4.8681">
        <ele>277</ele>
        <time>2018-08-26T09:36:26Z</time>
      </trkpt>
      <trkpt lat="45.98579" lon="4.86797">
        <ele>277</ele>
        <time>2018-08-26T09:36:28Z</time>
      </trkpt>
      <trkpt lat="45.98576" lon="4.86791">
        <ele>277</ele>
        <time>2018-08-26T09:36:29Z</time>
      </trkpt>
      <trkpt lat="45.98575" lon="4.86784">
        <ele>277</ele>
        <time>2018-08-26T09:36:30Z</time>
      </trkpt>
      <trkpt lat="45.98573" lon="4.86776">
        <ele>277</ele>
        <time>2018-08-26T09:36:31Z</time>
      </trkpt>
      <trkpt lat="45.98572" lon="4.8677">
        <ele>277</ele>
        <time>2018-08-26T09:36:32Z</time>
      </trkpt>
      <trkpt lat="45.98572" lon="4.86762">
        <ele>277</ele>
        <time>2018-08-26T09:36:33Z</time>
      </trkpt>
      <trkpt lat="45.98571" lon="4.86755">
        <ele>277</ele>
        <time>2018-08-26T09:36:34Z</time>
      </trkpt>
      <trkpt lat="45.9857" lon="4.86747">
        <ele>277</ele>
        <time>2018-08-26T09:36:35Z</time>
      </trkpt>
      <trkpt lat="45.98569" lon="4.8674">
        <ele>277</ele>
        <time>2018-08-26T09:36:36Z</time>
      </trkpt>
      <trkpt lat="45.98568" lon="4.86732">
        <ele>277</ele>
        <time>2018-08-26T09:36:37Z</time>
      </trkpt>
      <trkpt lat="45.98568" lon="4.86724">
        <ele>277</ele>
        <time>2018-08-26T09:36:38Z</time>
      </trkpt>
      <trkpt lat="45.98569" lon="4.86717">
        <ele>277</ele>
        <time>2018-08-26T09:36:39Z</time>
      </trkpt>
      <trkpt lat="45.98568" lon="4.86709">
        <ele>277</ele>
        <time>2018-08-26T09:36:40Z</time>
      </trkpt>
      <trkpt lat="45.98566" lon="4.867">
        <ele>277</ele>
        <time>2018-08-26T09:36:41Z</time>
      </trkpt>
      <trkpt lat="45.98566" lon="4.86692">
        <ele>277</ele>
        <time>2018-08-26T09:36:42Z</time>
      </trkpt>
      <trkpt lat="45.98564" lon="4.86684">
        <ele>277</ele>
        <time>2018-08-26T09:36:43Z</time>
      </trkpt>
      <trkpt lat="45.98564" lon="4.86675">
        <ele>277</ele>
        <time>2018-08-26T09:36:44Z</time>
      </trkpt>
      <trkpt lat="45.98564" lon="4.86667">
        <ele>276</ele>
        <time>2018-08-26T09:36:45Z</time>
      </trkpt>
      <trkpt lat="45.98564" lon="4.8666">
        <ele>277</ele>
        <time>2018-08-26T09:36:46Z</time>
      </trkpt>
      <trkpt lat="45.98564" lon="4.86653">
        <ele>277</ele>
        <time>2018-08-26T09:36:47Z</time>
      </trkpt>
      <trkpt lat="45.98562" lon="4.86645">
        <ele>277</ele>
        <time>2018-08-26T09:36:48Z</time>
      </trkpt>
      <trkpt lat="45.98562" lon="4.86637">
        <ele>277</ele>
        <time>2018-08-26T09:36:49Z</time>
      </trkpt>
      <trkpt lat="45.98561" lon="4.86629">
        <ele>278</ele>
        <time>2018-08-26T09:36:50Z</time>
      </trkpt>
      <trkpt lat="45.98559" lon="4.86621">
        <ele>278</ele>
        <time>2018-08-26T09:36:51Z</time>
      </trkpt>
      <trkpt lat="45.98557" lon="4.86613">
        <ele>278</ele>
        <time>2018-08-26T09:36:52Z</time>
      </trkpt>
      <trkpt lat="45.98556" lon="4.86605">
        <ele>278</ele>
        <time>2018-08-26T09:36:53Z</time>
      </trkpt>
      <trkpt lat="45.98555" lon="4.86597">
        <ele>278</ele>
        <time>2018-08-26T09:36:54Z</time>
      </trkpt>
      <trkpt lat="45.98553" lon="4.86592">
        <ele>278</ele>
        <time>2018-08-26T09:36:55Z</time>
      </trkpt>
      <trkpt lat="45.98553" lon="4.86585">
        <ele>278</ele>
        <time>2018-08-26T09:36:56Z</time>
      </trkpt>
      <trkpt lat="45.9855" lon="4.86579">
        <ele>278</ele>
        <time>2018-08-26T09:36:57Z</time>
      </trkpt>
      <trkpt lat="45.98549" lon="4.86572">
        <ele>278</ele>
        <time>2018-08-26T09:36:58Z</time>
      </trkpt>
      <trkpt lat="45.98546" lon="4.86567">
        <ele>278</ele>
        <time>2018-08-26T09:36:59Z</time>
      </trkpt>
      <trkpt lat="45.98543" lon="4.86563">
        <ele>278</ele>
        <time>2018-08-26T09:37:00Z</time>
      </trkpt>
      <trkpt lat="45.98539" lon="4.86557">
        <ele>278</ele>
        <time>2018-08-26T09:37:01Z</time>
      </trkpt>
      <trkpt lat="45.98537" lon="4.86551">
        <ele>279</ele>
        <time>2018-08-26T09:37:02Z</time>
      </trkpt>
      <trkpt lat="45.98534" lon="4.86545">
        <ele>279</ele>
        <time>2018-08-26T09:37:03Z</time>
      </trkpt>
      <trkpt lat="45.98532" lon="4.86538">
        <ele>279</ele>
        <time>2018-08-26T09:37:04Z</time>
      </trkpt>
      <trkpt lat="45.98529" lon="4.86532">
        <ele>279</ele>
        <time>2018-08-26T09:37:05Z</time>
      </trkpt>
      <trkpt lat="45.98528" lon="4.86526">
        <ele>279</ele>
        <time>2018-08-26T09:37:06Z</time>
      </trkpt>
      <trkpt lat="45.98524" lon="4.86519">
        <ele>279</ele>
        <time>2018-08-26T09:37:07Z</time>
      </trkpt>
      <trkpt lat="45.98517" lon="4.86514">
        <ele>279</ele>
        <time>2018-08-26T09:37:08Z</time>
      </trkpt>
      <trkpt lat="45.98513" lon="4.86507">
        <ele>279</ele>
        <time>2018-08-26T09:37:09Z</time>
      </trkpt>
      <trkpt lat="45.98508" lon="4.86499">
        <ele>279</ele>
        <time>2018-08-26T09:37:11Z</time>
      </trkpt>
      <trkpt lat="45.98505" lon="4.86493">
        <ele>279</ele>
        <time>2018-08-26T09:37:12Z</time>
      </trkpt>
      <trkpt lat="45.985" lon="4.86483">
        <ele>279</ele>
        <time>2018-08-26T09:37:14Z</time>
      </trkpt>
      <trkpt lat="45.98499" lon="4.8648">
        <ele>279</ele>
        <time>2018-08-26T09:37:15Z</time>
      </trkpt>
      <trkpt lat="45.98497" lon="4.86469">
        <ele>279</ele>
        <time>2018-08-26T09:37:17Z</time>
      </trkpt>
      <trkpt lat="45.98494" lon="4.86462">
        <ele>278</ele>
        <time>2018-08-26T09:37:18Z</time>
      </trkpt>
      <trkpt lat="45.98489" lon="4.86453">
        <ele>278</ele>
        <time>2018-08-26T09:37:20Z</time>
      </trkpt>
      <trkpt lat="45.98488" lon="4.86449">
        <ele>278</ele>
        <time>2018-08-26T09:37:21Z</time>
      </trkpt>
      <trkpt lat="45.98483" lon="4.86439">
        <ele>278</ele>
        <time>2018-08-26T09:37:23Z</time>
      </trkpt>
      <trkpt lat="45.98481" lon="4.86435">
        <ele>278</ele>
        <time>2018-08-26T09:37:24Z</time>
      </trkpt>
      <trkpt lat="45.98478" lon="4.86425">
        <ele>278</ele>
        <time>2018-08-26T09:37:26Z</time>
      </trkpt>
      <trkpt lat="45.98477" lon="4.8642">
        <ele>278</ele>
        <time>2018-08-26T09:37:27Z</time>
      </trkpt>
      <trkpt lat="45.98474" lon="4.86409">
        <ele>277</ele>
        <time>2018-08-26T09:37:29Z</time>
      </trkpt>
      <trkpt lat="45.98473" lon="4.86404">
        <ele>277</ele>
        <time>2018-08-26T09:37:30Z</time>
      </trkpt>
      <trkpt lat="45.9847" lon="4.86396">
        <ele>277</ele>
        <time>2018-08-26T09:37:31Z</time>
      </trkpt>
      <trkpt lat="45.98467" lon="4.8639">
        <ele>277</ele>
        <time>2018-08-26T09:37:32Z</time>
      </trkpt>
      <trkpt lat="45.98462" lon="4.86379">
        <ele>277</ele>
        <time>2018-08-26T09:37:34Z</time>
      </trkpt>
      <trkpt lat="45.98459" lon="4.86373">
        <ele>277</ele>
        <time>2018-08-26T09:37:35Z</time>
      </trkpt>
      <trkpt lat="45.98457" lon="4.86366">
        <ele>277</ele>
        <time>2018-08-26T09:37:36Z</time>
      </trkpt>
      <trkpt lat="45.98456" lon="4.86359">
        <ele>277</ele>
        <time>2018-08-26T09:37:37Z</time>
      </trkpt>
      <trkpt lat="45.98454" lon="4.86353">
        <ele>277</ele>
        <time>2018-08-26T09:37:38Z</time>
      </trkpt>
      <trkpt lat="45.98451" lon="4.86347">
        <ele>277</ele>
        <time>2018-08-26T09:37:39Z</time>
      </trkpt>
      <trkpt lat="45.98448" lon="4.86336">
        <ele>277</ele>
        <time>2018-08-26T09:37:41Z</time>
      </trkpt>
      <trkpt lat="45.98449" lon="4.86331">
        <ele>276</ele>
        <time>2018-08-26T09:37:42Z</time>
      </trkpt>
      <trkpt lat="45.98446" lon="4.8632">
        <ele>276</ele>
        <time>2018-08-26T09:37:44Z</time>
      </trkpt>
      <trkpt lat="45.98445" lon="4.86313">
        <ele>276</ele>
        <time>2018-08-26T09:37:45Z</time>
      </trkpt>
      <trkpt lat="45.98443" lon="4.86302">
        <ele>276</ele>
        <time>2018-08-26T09:37:47Z</time>
      </trkpt>
      <trkpt lat="45.9844" lon="4.86296">
        <ele>276</ele>
        <time>2018-08-26T09:37:48Z</time>
      </trkpt>
      <trkpt lat="45.98439" lon="4.86285">
        <ele>276</ele>
        <time>2018-08-26T09:37:50Z</time>
      </trkpt>
      <trkpt lat="45.98436" lon="4.86277">
        <ele>276</ele>
        <time>2018-08-26T09:37:51Z</time>
      </trkpt>
      <trkpt lat="45.98436" lon="4.86266">
        <ele>275</ele>
        <time>2018-08-26T09:37:54Z</time>
      </trkpt>
      <trkpt lat="45.98435" lon="4.86263">
        <ele>275</ele>
        <time>2018-08-26T09:37:55Z</time>
      </trkpt>
      <trkpt lat="45.98434" lon="4.86254">
        <ele>275</ele>
        <time>2018-08-26T09:37:57Z</time>
      </trkpt>
      <trkpt lat="45.98433" lon="4.8625">
        <ele>275</ele>
        <time>2018-08-26T09:37:58Z</time>
      </trkpt>
      <trkpt lat="45.98431" lon="4.86237">
        <ele>275</ele>
        <time>2018-08-26T09:37:59Z</time>
      </trkpt>
      <trkpt lat="45.98431" lon="4.86234">
        <ele>275</ele>
        <time>2018-08-26T09:38:00Z</time>
      </trkpt>
      <trkpt lat="45.98428" lon="4.86222">
        <ele>275</ele>
        <time>2018-08-26T09:38:02Z</time>
      </trkpt>
      <trkpt lat="45.98427" lon="4.86217">
        <ele>275</ele>
        <time>2018-08-26T09:38:03Z</time>
      </trkpt>
      <trkpt lat="45.98426" lon="4.86206">
        <ele>275</ele>
        <time>2018-08-26T09:38:05Z</time>
      </trkpt>
      <trkpt lat="45.98425" lon="4.862">
        <ele>275</ele>
        <time>2018-08-26T09:38:06Z</time>
      </trkpt>
      <trkpt lat="45.98423" lon="4.86187">
        <ele>275</ele>
        <time>2018-08-26T09:38:08Z</time>
      </trkpt>
      <trkpt lat="45.98422" lon="4.86181">
        <ele>275</ele>
        <time>2018-08-26T09:38:09Z</time>
      </trkpt>
      <trkpt lat="45.9842" lon="4.86169">
        <ele>276</ele>
        <time>2018-08-26T09:38:11Z</time>
      </trkpt>
      <trkpt lat="45.98419" lon="4.86163">
        <ele>276</ele>
        <time>2018-08-26T09:38:12Z</time>
      </trkpt>
      <trkpt lat="45.98417" lon="4.86151">
        <ele>276</ele>
        <time>2018-08-26T09:38:14Z</time>
      </trkpt>
      <trkpt lat="45.98416" lon="4.86145">
        <ele>276</ele>
        <time>2018-08-26T09:38:15Z</time>
      </trkpt>
      <trkpt lat="45.98415" lon="4.86133">
        <ele>276</ele>
        <time>2018-08-26T09:38:17Z</time>
      </trkpt>
      <trkpt lat="45.98413" lon="4.86126">
        <ele>276</ele>
        <time>2018-08-26T09:38:18Z</time>
      </trkpt>
      <trkpt lat="45.98411" lon="4.86119">
        <ele>277</ele>
        <time>2018-08-26T09:38:19Z</time>
      </trkpt>
      <trkpt lat="45.9841" lon="4.86113">
        <ele>277</ele>
        <time>2018-08-26T09:38:20Z</time>
      </trkpt>
      <trkpt lat="45.98409" lon="4.86104">
        <ele>277</ele>
        <time>2018-08-26T09:38:21Z</time>
      </trkpt>
      <trkpt lat="45.98408" lon="4.86096">
        <ele>277</ele>
        <time>2018-08-26T09:38:22Z</time>
      </trkpt>
      <trkpt lat="45.98406" lon="4.86089">
        <ele>277</ele>
        <time>2018-08-26T09:38:23Z</time>
      </trkpt>
      <trkpt lat="45.98407" lon="4.86081">
        <ele>277</ele>
        <time>2018-08-26T09:38:24Z</time>
      </trkpt>
      <trkpt lat="45.98405" lon="4.86071">
        <ele>277</ele>
        <time>2018-08-26T09:38:25Z</time>
      </trkpt>
      <trkpt lat="45.98403" lon="4.86062">
        <ele>277</ele>
        <time>2018-08-26T09:38:26Z</time>
      </trkpt>
      <trkpt lat="45.98399" lon="4.86052">
        <ele>277</ele>
        <time>2018-08-26T09:38:27Z</time>
      </trkpt>
      <trkpt lat="45.98396" lon="4.86042">
        <ele>277</ele>
        <time>2018-08-26T09:38:28Z</time>
      </trkpt>
      <trkpt lat="45.98392" lon="4.86031">
        <ele>277</ele>
        <time>2018-08-26T09:38:29Z</time>
      </trkpt>
      <trkpt lat="45.98387" lon="4.86027">
        <ele>277</ele>
        <time>2018-08-26T09:38:30Z</time>
      </trkpt>
      <trkpt lat="45.98382" lon="4.86026">
        <ele>277</ele>
        <time>2018-08-26T09:38:31Z</time>
      </trkpt>
      <trkpt lat="45.98378" lon="4.86018">
        <ele>277</ele>
        <time>2018-08-26T09:38:32Z</time>
      </trkpt>
      <trkpt lat="45.98372" lon="4.86004">
        <ele>277</ele>
        <time>2018-08-26T09:38:33Z</time>
      </trkpt>
      <trkpt lat="45.98371" lon="4.85997">
        <ele>277</ele>
        <time>2018-08-26T09:38:34Z</time>
      </trkpt>
      <trkpt lat="45.98369" lon="4.8599">
        <ele>277</ele>
        <time>2018-08-26T09:38:35Z</time>
      </trkpt>
      <trkpt lat="45.98367" lon="4.85981">
        <ele>276</ele>
        <time>2018-08-26T09:38:36Z</time>
      </trkpt>
      <trkpt lat="45.98364" lon="4.85974">
        <ele>276</ele>
        <time>2018-08-26T09:38:37Z</time>
      </trkpt>
      <trkpt lat="45.9836" lon="4.85964">
        <ele>276</ele>
        <time>2018-08-26T09:38:38Z</time>
      </trkpt>
      <trkpt lat="45.98358" lon="4.85957">
        <ele>276</ele>
        <time>2018-08-26T09:38:39Z</time>
      </trkpt>
      <trkpt lat="45.98356" lon="4.8595">
        <ele>276</ele>
        <time>2018-08-26T09:38:40Z</time>
      </trkpt>
      <trkpt lat="45.98353" lon="4.85944">
        <ele>276</ele>
        <time>2018-08-26T09:38:41Z</time>
      </trkpt>
      <trkpt lat="45.98349" lon="4.85937">
        <ele>276</ele>
        <time>2018-08-26T09:38:42Z</time>
      </trkpt>
      <trkpt lat="45.98347" lon="4.8593">
        <ele>276</ele>
        <time>2018-08-26T09:38:43Z</time>
      </trkpt>
      <trkpt lat="45.98343" lon="4.85922">
        <ele>276</ele>
        <time>2018-08-26T09:38:44Z</time>
      </trkpt>
      <trkpt lat="45.9834" lon="4.85915">
        <ele>276</ele>
        <time>2018-08-26T09:38:45Z</time>
      </trkpt>
      <trkpt lat="45.9834" lon="4.85904">
        <ele>276</ele>
        <time>2018-08-26T09:38:46Z</time>
      </trkpt>
      <trkpt lat="45.98338" lon="4.85896">
        <ele>276</ele>
        <time>2018-08-26T09:38:47Z</time>
      </trkpt>
      <trkpt lat="45.98334" lon="4.85888">
        <ele>276</ele>
        <time>2018-08-26T09:38:48Z</time>
      </trkpt>
      <trkpt lat="45.98331" lon="4.85878">
        <ele>276</ele>
        <time>2018-08-26T09:38:49Z</time>
      </trkpt>
      <trkpt lat="45.98329" lon="4.85873">
        <ele>276</ele>
        <time>2018-08-26T09:38:50Z</time>
      </trkpt>
      <trkpt lat="45.98324" lon="4.85866">
        <ele>276</ele>
        <time>2018-08-26T09:38:51Z</time>
      </trkpt>
      <trkpt lat="45.98319" lon="4.8586">
        <ele>276</ele>
        <time>2018-08-26T09:38:52Z</time>
      </trkpt>
      <trkpt lat="45.98316" lon="4.85853">
        <ele>276</ele>
        <time>2018-08-26T09:38:53Z</time>
      </trkpt>
      <trkpt lat="45.98313" lon="4.85846">
        <ele>276</ele>
        <time>2018-08-26T09:38:54Z</time>
      </trkpt>
      <trkpt lat="45.98311" lon="4.8584">
        <ele>276</ele>
        <time>2018-08-26T09:38:55Z</time>
      </trkpt>
      <trkpt lat="45.98309" lon="4.85833">
        <ele>275</ele>
        <time>2018-08-26T09:38:56Z</time>
      </trkpt>
      <trkpt lat="45.98306" lon="4.85827">
        <ele>275</ele>
        <time>2018-08-26T09:38:57Z</time>
      </trkpt>
      <trkpt lat="45.98304" lon="4.85819">
        <ele>275</ele>
        <time>2018-08-26T09:38:58Z</time>
      </trkpt>
      <trkpt lat="45.98303" lon="4.85812">
        <ele>275</ele>
        <time>2018-08-26T09:38:59Z</time>
      </trkpt>
      <trkpt lat="45.98301" lon="4.85804">
        <ele>275</ele>
        <time>2018-08-26T09:39:00Z</time>
      </trkpt>
      <trkpt lat="45.98298" lon="4.85797">
        <ele>275</ele>
        <time>2018-08-26T09:39:01Z</time>
      </trkpt>
      <trkpt lat="45.98294" lon="4.85788">
        <ele>275</ele>
        <time>2018-08-26T09:39:02Z</time>
      </trkpt>
      <trkpt lat="45.98292" lon="4.85782">
        <ele>275</ele>
        <time>2018-08-26T09:39:03Z</time>
      </trkpt>
      <trkpt lat="45.98289" lon="4.85772">
        <ele>275</ele>
        <time>2018-08-26T09:39:04Z</time>
      </trkpt>
      <trkpt lat="45.98288" lon="4.85764">
        <ele>275</ele>
        <time>2018-08-26T09:39:05Z</time>
      </trkpt>
      <trkpt lat="45.98284" lon="4.85756">
        <ele>275</ele>
        <time>2018-08-26T09:39:06Z</time>
      </trkpt>
      <trkpt lat="45.98283" lon="4.8575">
        <ele>275</ele>
        <time>2018-08-26T09:39:07Z</time>
      </trkpt>
      <trkpt lat="45.98277" lon="4.85742">
        <ele>274</ele>
        <time>2018-08-26T09:39:09Z</time>
      </trkpt>
      <trkpt lat="45.98275" lon="4.85733">
        <ele>274</ele>
        <time>2018-08-26T09:39:10Z</time>
      </trkpt>
      <trkpt lat="45.98272" lon="4.85727">
        <ele>274</ele>
        <time>2018-08-26T09:39:11Z</time>
      </trkpt>
      <trkpt lat="45.98267" lon="4.85721">
        <ele>275</ele>
        <time>2018-08-26T09:39:12Z</time>
      </trkpt>
      <trkpt lat="45.98264" lon="4.85713">
        <ele>275</ele>
        <time>2018-08-26T09:39:13Z</time>
      </trkpt>
      <trkpt lat="45.98261" lon="4.85706">
        <ele>275</ele>
        <time>2018-08-26T09:39:14Z</time>
      </trkpt>
      <trkpt lat="45.98259" lon="4.85699">
        <ele>275</ele>
        <time>2018-08-26T09:39:15Z</time>
      </trkpt>
      <trkpt lat="45.98255" lon="4.85693">
        <ele>275</ele>
        <time>2018-08-26T09:39:16Z</time>
      </trkpt>
      <trkpt lat="45.98254" lon="4.85686">
        <ele>275</ele>
        <time>2018-08-26T09:39:17Z</time>
      </trkpt>
      <trkpt lat="45.98251" lon="4.85679">
        <ele>275</ele>
        <time>2018-08-26T09:39:18Z</time>
      </trkpt>
      <trkpt lat="45.98248" lon="4.85671">
        <ele>276</ele>
        <time>2018-08-26T09:39:19Z</time>
      </trkpt>
      <trkpt lat="45.98246" lon="4.85664">
        <ele>276</ele>
        <time>2018-08-26T09:39:20Z</time>
      </trkpt>
      <trkpt lat="45.98243" lon="4.85656">
        <ele>276</ele>
        <time>2018-08-26T09:39:21Z</time>
      </trkpt>
      <trkpt lat="45.98241" lon="4.85649">
        <ele>276</ele>
        <time>2018-08-26T09:39:22Z</time>
      </trkpt>
      <trkpt lat="45.98237" lon="4.85641">
        <ele>277</ele>
        <time>2018-08-26T09:39:23Z</time>
      </trkpt>
      <trkpt lat="45.98235" lon="4.85634">
        <ele>277</ele>
        <time>2018-08-26T09:39:24Z</time>
      </trkpt>
      <trkpt lat="45.98231" lon="4.85626">
        <ele>277</ele>
        <time>2018-08-26T09:39:25Z</time>
      </trkpt>
      <trkpt lat="45.98229" lon="4.8562">
        <ele>277</ele>
        <time>2018-08-26T09:39:26Z</time>
      </trkpt>
      <trkpt lat="45.98224" lon="4.85612">
        <ele>277</ele>
        <time>2018-08-26T09:39:28Z</time>
      </trkpt>
      <trkpt lat="45.98222" lon="4.85606">
        <ele>277</ele>
        <time>2018-08-26T09:39:29Z</time>
      </trkpt>
      <trkpt lat="45.9822" lon="4.856">
        <ele>277</ele>
        <time>2018-08-26T09:39:30Z</time>
      </trkpt>
      <trkpt lat="45.98217" lon="4.85593">
        <ele>277</ele>
        <time>2018-08-26T09:39:31Z</time>
      </trkpt>
      <trkpt lat="45.98214" lon="4.85585">
        <ele>277</ele>
        <time>2018-08-26T09:39:32Z</time>
      </trkpt>
      <trkpt lat="45.98211" lon="4.85575">
        <ele>276</ele>
        <time>2018-08-26T09:39:33Z</time>
      </trkpt>
      <trkpt lat="45.98206" lon="4.85569">
        <ele>276</ele>
        <time>2018-08-26T09:39:34Z</time>
      </trkpt>
      <trkpt lat="45.98203" lon="4.85564">
        <ele>276</ele>
        <time>2018-08-26T09:39:35Z</time>
      </trkpt>
      <trkpt lat="45.982" lon="4.85557">
        <ele>276</ele>
        <time>2018-08-26T09:39:36Z</time>
      </trkpt>
      <trkpt lat="45.98196" lon="4.85551">
        <ele>276</ele>
        <time>2018-08-26T09:39:37Z</time>
      </trkpt>
      <trkpt lat="45.98194" lon="4.85545">
        <ele>276</ele>
        <time>2018-08-26T09:39:38Z</time>
      </trkpt>
      <trkpt lat="45.98191" lon="4.85536">
        <ele>276</ele>
        <time>2018-08-26T09:39:39Z</time>
      </trkpt>
      <trkpt lat="45.98189" lon="4.85529">
        <ele>276</ele>
        <time>2018-08-26T09:39:40Z</time>
      </trkpt>
      <trkpt lat="45.98187" lon="4.8552">
        <ele>275</ele>
        <time>2018-08-26T09:39:41Z</time>
      </trkpt>
      <trkpt lat="45.98184" lon="4.85514">
        <ele>275</ele>
        <time>2018-08-26T09:39:42Z</time>
      </trkpt>
      <trkpt lat="45.98183" lon="4.85506">
        <ele>275</ele>
        <time>2018-08-26T09:39:43Z</time>
      </trkpt>
      <trkpt lat="45.98178" lon="4.85495">
        <ele>275</ele>
        <time>2018-08-26T09:39:45Z</time>
      </trkpt>
      <trkpt lat="45.98175" lon="4.85488">
        <ele>275</ele>
        <time>2018-08-26T09:39:46Z</time>
      </trkpt>
      <trkpt lat="45.98172" lon="4.85481">
        <ele>275</ele>
        <time>2018-08-26T09:39:47Z</time>
      </trkpt>
      <trkpt lat="45.98168" lon="4.85475">
        <ele>275</ele>
        <time>2018-08-26T09:39:48Z</time>
      </trkpt>
      <trkpt lat="45.98166" lon="4.85468">
        <ele>275</ele>
        <time>2018-08-26T09:39:49Z</time>
      </trkpt>
      <trkpt lat="45.98164" lon="4.85462">
        <ele>275</ele>
        <time>2018-08-26T09:39:50Z</time>
      </trkpt>
      <trkpt lat="45.98162" lon="4.85456">
        <ele>276</ele>
        <time>2018-08-26T09:39:51Z</time>
      </trkpt>
      <trkpt lat="45.98163" lon="4.85447">
        <ele>276</ele>
        <time>2018-08-26T09:39:52Z</time>
      </trkpt>
      <trkpt lat="45.9816" lon="4.8544">
        <ele>276</ele>
        <time>2018-08-26T09:39:53Z</time>
      </trkpt>
      <trkpt lat="45.98154" lon="4.85436">
        <ele>276</ele>
        <time>2018-08-26T09:39:54Z</time>
      </trkpt>
      <trkpt lat="45.9815" lon="4.85429">
        <ele>276</ele>
        <time>2018-08-26T09:39:55Z</time>
      </trkpt>
      <trkpt lat="45.98148" lon="4.85423">
        <ele>276</ele>
        <time>2018-08-26T09:39:56Z</time>
      </trkpt>
      <trkpt lat="45.98144" lon="4.85415">
        <ele>276</ele>
        <time>2018-08-26T09:39:57Z</time>
      </trkpt>
      <trkpt lat="45.98142" lon="4.85408">
        <ele>276</ele>
        <time>2018-08-26T09:39:58Z</time>
      </trkpt>
      <trkpt lat="45.9814" lon="4.85401">
        <ele>276</ele>
        <time>2018-08-26T09:39:59Z</time>
      </trkpt>
      <trkpt lat="45.98138" lon="4.85394">
        <ele>276</ele>
        <time>2018-08-26T09:40:00Z</time>
      </trkpt>
      <trkpt lat="45.98134" lon="4.85386">
        <ele>276</ele>
        <time>2018-08-26T09:40:01Z</time>
      </trkpt>
      <trkpt lat="45.98133" lon="4.8538">
        <ele>276</ele>
        <time>2018-08-26T09:40:02Z</time>
      </trkpt>
      <trkpt lat="45.98131" lon="4.85371">
        <ele>276</ele>
        <time>2018-08-26T09:40:03Z</time>
      </trkpt>
      <trkpt lat="45.98124" lon="4.85366">
        <ele>276</ele>
        <time>2018-08-26T09:40:04Z</time>
      </trkpt>
      <trkpt lat="45.98119" lon="4.85355">
        <ele>276</ele>
        <time>2018-08-26T09:40:06Z</time>
      </trkpt>
      <trkpt lat="45.98117" lon="4.85348">
        <ele>276</ele>
        <time>2018-08-26T09:40:07Z</time>
      </trkpt>
      <trkpt lat="45.98112" lon="4.85338">
        <ele>276</ele>
        <time>2018-08-26T09:40:09Z</time>
      </trkpt>
      <trkpt lat="45.98109" lon="4.85332">
        <ele>276</ele>
        <time>2018-08-26T09:40:10Z</time>
      </trkpt>
      <trkpt lat="45.98108" lon="4.85326">
        <ele>276</ele>
        <time>2018-08-26T09:40:11Z</time>
      </trkpt>
      <trkpt lat="45.98106" lon="4.8532">
        <ele>276</ele>
        <time>2018-08-26T09:40:12Z</time>
      </trkpt>
      <trkpt lat="45.98101" lon="4.85309">
        <ele>276</ele>
        <time>2018-08-26T09:40:14Z</time>
      </trkpt>
      <trkpt lat="45.98098" lon="4.85302">
        <ele>276</ele>
        <time>2018-08-26T09:40:15Z</time>
      </trkpt>
      <trkpt lat="45.98095" lon="4.85295">
        <ele>276</ele>
        <time>2018-08-26T09:40:16Z</time>
      </trkpt>
      <trkpt lat="45.9809" lon="4.8529">
        <ele>276</ele>
        <time>2018-08-26T09:40:17Z</time>
      </trkpt>
      <trkpt lat="45.98085" lon="4.8528">
        <ele>276</ele>
        <time>2018-08-26T09:40:19Z</time>
      </trkpt>
      <trkpt lat="45.98082" lon="4.8528">
        <ele>276</ele>
        <time>2018-08-26T09:40:20Z</time>
      </trkpt>
      <trkpt lat="45.98079" lon="4.85274">
        <ele>276</ele>
        <time>2018-08-26T09:40:21Z</time>
      </trkpt>
      <trkpt lat="45.98076" lon="4.85268">
        <ele>276</ele>
        <time>2018-08-26T09:40:22Z</time>
      </trkpt>
      <trkpt lat="45.9807" lon="4.8526">
        <ele>276</ele>
        <time>2018-08-26T09:40:24Z</time>
      </trkpt>
      <trkpt lat="45.98067" lon="4.85255">
        <ele>276</ele>
        <time>2018-08-26T09:40:25Z</time>
      </trkpt>
      <trkpt lat="45.98062" lon="4.85247">
        <ele>276</ele>
        <time>2018-08-26T09:40:27Z</time>
      </trkpt>
      <trkpt lat="45.98062" lon="4.85244">
        <ele>276</ele>
        <time>2018-08-26T09:40:28Z</time>
      </trkpt>
      <trkpt lat="45.9806" lon="4.85235">
        <ele>276</ele>
        <time>2018-08-26T09:40:30Z</time>
      </trkpt>
      <trkpt lat="45.98059" lon="4.8523">
        <ele>276</ele>
        <time>2018-08-26T09:40:31Z</time>
      </trkpt>
      <trkpt lat="45.98058" lon="4.85218">
        <ele>276</ele>
        <time>2018-08-26T09:40:41Z</time>
      </trkpt>
      <trkpt lat="45.98057" lon="4.85216">
        <ele>276</ele>
        <time>2018-08-26T09:40:42Z</time>
      </trkpt>
      <trkpt lat="45.98054" lon="4.85207">
        <ele>276</ele>
        <time>2018-08-26T09:40:46Z</time>
      </trkpt>
      <trkpt lat="45.98052" lon="4.85204">
        <ele>276</ele>
        <time>2018-08-26T09:40:47Z</time>
      </trkpt>
      <trkpt lat="45.9805" lon="4.85198">
        <ele>276</ele>
        <time>2018-08-26T09:40:49Z</time>
      </trkpt>
      <trkpt lat="45.98046" lon="4.85187">
        <ele>276</ele>
        <time>2018-08-26T09:40:50Z</time>
      </trkpt>
      <trkpt lat="45.98042" lon="4.85176">
        <ele>276</ele>
        <time>2018-08-26T09:40:52Z</time>
      </trkpt>
      <trkpt lat="45.98038" lon="4.85168">
        <ele>275</ele>
        <time>2018-08-26T09:40:53Z</time>
      </trkpt>
      <trkpt lat="45.98036" lon="4.85161">
        <ele>275</ele>
        <time>2018-08-26T09:40:54Z</time>
      </trkpt>
      <trkpt lat="45.98034" lon="4.85154">
        <ele>275</ele>
        <time>2018-08-26T09:40:55Z</time>
      </trkpt>
      <trkpt lat="45.98033" lon="4.85145">
        <ele>275</ele>
        <time>2018-08-26T09:40:56Z</time>
      </trkpt>
      <trkpt lat="45.98032" lon="4.85136">
        <ele>275</ele>
        <time>2018-08-26T09:40:57Z</time>
      </trkpt>
      <trkpt lat="45.98028" lon="4.85131">
        <ele>274</ele>
        <time>2018-08-26T09:40:58Z</time>
      </trkpt>
      <trkpt lat="45.98026" lon="4.85121">
        <ele>274</ele>
        <time>2018-08-26T09:40:59Z</time>
      </trkpt>
      <trkpt lat="45.98023" lon="4.8511">
        <ele>274</ele>
        <time>2018-08-26T09:41:01Z</time>
      </trkpt>
      <trkpt lat="45.98022" lon="4.85102">
        <ele>274</ele>
        <time>2018-08-26T09:41:02Z</time>
      </trkpt>
      <trkpt lat="45.98022" lon="4.85092">
        <ele>274</ele>
        <time>2018-08-26T09:41:03Z</time>
      </trkpt>
      <trkpt lat="45.98023" lon="4.85082">
        <ele>273</ele>
        <time>2018-08-26T09:41:04Z</time>
      </trkpt>
      <trkpt lat="45.98023" lon="4.85072">
        <ele>273</ele>
        <time>2018-08-26T09:41:05Z</time>
      </trkpt>
      <trkpt lat="45.98026" lon="4.85067">
        <ele>273</ele>
        <time>2018-08-26T09:41:06Z</time>
      </trkpt>
      <trkpt lat="45.98026" lon="4.85059">
        <ele>273</ele>
        <time>2018-08-26T09:41:07Z</time>
      </trkpt>
      <trkpt lat="45.98024" lon="4.85047">
        <ele>273</ele>
        <time>2018-08-26T09:41:08Z</time>
      </trkpt>
      <trkpt lat="45.98024" lon="4.85039">
        <ele>273</ele>
        <time>2018-08-26T09:41:09Z</time>
      </trkpt>
      <trkpt lat="45.98024" lon="4.85029">
        <ele>273</ele>
        <time>2018-08-26T09:41:10Z</time>
      </trkpt>
      <trkpt lat="45.98023" lon="4.85019">
        <ele>273</ele>
        <time>2018-08-26T09:41:11Z</time>
      </trkpt>
      <trkpt lat="45.98022" lon="4.85008">
        <ele>273</ele>
        <time>2018-08-26T09:41:12Z</time>
      </trkpt>
      <trkpt lat="45.9802" lon="4.84998">
        <ele>272</ele>
        <time>2018-08-26T09:41:13Z</time>
      </trkpt>
      <trkpt lat="45.98018" lon="4.84987">
        <ele>272</ele>
        <time>2018-08-26T09:41:14Z</time>
      </trkpt>
      <trkpt lat="45.98016" lon="4.8498">
        <ele>272</ele>
        <time>2018-08-26T09:41:15Z</time>
      </trkpt>
      <trkpt lat="45.98016" lon="4.84973">
        <ele>272</ele>
        <time>2018-08-26T09:41:16Z</time>
      </trkpt>
      <trkpt lat="45.98015" lon="4.84965">
        <ele>272</ele>
        <time>2018-08-26T09:41:17Z</time>
      </trkpt>
      <trkpt lat="45.98015" lon="4.84957">
        <ele>272</ele>
        <time>2018-08-26T09:41:18Z</time>
      </trkpt>
      <trkpt lat="45.98014" lon="4.84949">
        <ele>272</ele>
        <time>2018-08-26T09:41:19Z</time>
      </trkpt>
      <trkpt lat="45.98014" lon="4.84942">
        <ele>272</ele>
        <time>2018-08-26T09:41:20Z</time>
      </trkpt>
      <trkpt lat="45.98016" lon="4.84933">
        <ele>272</ele>
        <time>2018-08-26T09:41:21Z</time>
      </trkpt>
      <trkpt lat="45.98015" lon="4.84925">
        <ele>272</ele>
        <time>2018-08-26T09:41:22Z</time>
      </trkpt>
      <trkpt lat="45.98015" lon="4.84919">
        <ele>272</ele>
        <time>2018-08-26T09:41:23Z</time>
      </trkpt>
      <trkpt lat="45.98014" lon="4.84911">
        <ele>272</ele>
        <time>2018-08-26T09:41:24Z</time>
      </trkpt>
      <trkpt lat="45.98014" lon="4.84904">
        <ele>272</ele>
        <time>2018-08-26T09:41:25Z</time>
      </trkpt>
      <trkpt lat="45.98014" lon="4.84895">
        <ele>272</ele>
        <time>2018-08-26T09:41:26Z</time>
      </trkpt>
      <trkpt lat="45.98012" lon="4.84886">
        <ele>272</ele>
        <time>2018-08-26T09:41:27Z</time>
      </trkpt>
      <trkpt lat="45.98012" lon="4.8488">
        <ele>272</ele>
        <time>2018-08-26T09:41:28Z</time>
      </trkpt>
      <trkpt lat="45.98012" lon="4.84872">
        <ele>272</ele>
        <time>2018-08-26T09:41:29Z</time>
      </trkpt>
      <trkpt lat="45.9801" lon="4.84863">
        <ele>272</ele>
        <time>2018-08-26T09:41:30Z</time>
      </trkpt>
      <trkpt lat="45.98008" lon="4.84855">
        <ele>272</ele>
        <time>2018-08-26T09:41:31Z</time>
      </trkpt>
      <trkpt lat="45.98007" lon="4.84846">
        <ele>272</ele>
        <time>2018-08-26T09:41:32Z</time>
      </trkpt>
      <trkpt lat="45.98006" lon="4.84838">
        <ele>272</ele>
        <time>2018-08-26T09:41:33Z</time>
      </trkpt>
      <trkpt lat="45.98006" lon="4.8483">
        <ele>272</ele>
        <time>2018-08-26T09:41:34Z</time>
      </trkpt>
      <trkpt lat="45.98006" lon="4.84823">
        <ele>272</ele>
        <time>2018-08-26T09:41:35Z</time>
      </trkpt>
      <trkpt lat="45.98005" lon="4.84814">
        <ele>272</ele>
        <time>2018-08-26T09:41:36Z</time>
      </trkpt>
      <trkpt lat="45.98003" lon="4.84805">
        <ele>273</ele>
        <time>2018-08-26T09:41:37Z</time>
      </trkpt>
      <trkpt lat="45.98002" lon="4.84797">
        <ele>273</ele>
        <time>2018-08-26T09:41:38Z</time>
      </trkpt>
      <trkpt lat="45.98001" lon="4.84789">
        <ele>273</ele>
        <time>2018-08-26T09:41:39Z</time>
      </trkpt>
      <trkpt lat="45.98001" lon="4.84779">
        <ele>273</ele>
        <time>2018-08-26T09:41:40Z</time>
      </trkpt>
      <trkpt lat="45.98" lon="4.8477">
        <ele>274</ele>
        <time>2018-08-26T09:41:41Z</time>
      </trkpt>
      <trkpt lat="45.97998" lon="4.84765">
        <ele>275</ele>
        <time>2018-08-26T09:41:42Z</time>
      </trkpt>
      <trkpt lat="45.97995" lon="4.84753">
        <ele>275</ele>
        <time>2018-08-26T09:41:44Z</time>
      </trkpt>
      <trkpt lat="45.97994" lon="4.84745">
        <ele>275</ele>
        <time>2018-08-26T09:41:45Z</time>
      </trkpt>
      <trkpt lat="45.97994" lon="4.84742">
        <ele>275</ele>
        <time>2018-08-26T09:41:46Z</time>
      </trkpt>
      <trkpt lat="45.97991" lon="4.84731">
        <ele>275</ele>
        <time>2018-08-26T09:41:47Z</time>
      </trkpt>
      <trkpt lat="45.97991" lon="4.84725">
        <ele>275</ele>
        <time>2018-08-26T09:41:48Z</time>
      </trkpt>
      <trkpt lat="45.97992" lon="4.84718">
        <ele>275</ele>
        <time>2018-08-26T09:41:49Z</time>
      </trkpt>
      <trkpt lat="45.97992" lon="4.84712">
        <ele>275</ele>
        <time>2018-08-26T09:41:50Z</time>
      </trkpt>
      <trkpt lat="45.9799" lon="4.847">
        <ele>275</ele>
        <time>2018-08-26T09:41:51Z</time>
      </trkpt>
      <trkpt lat="45.9799" lon="4.84691">
        <ele>275</ele>
        <time>2018-08-26T09:41:52Z</time>
      </trkpt>
      <trkpt lat="45.97988" lon="4.8468">
        <ele>275</ele>
        <time>2018-08-26T09:41:53Z</time>
      </trkpt>
      <trkpt lat="45.97989" lon="4.84675">
        <ele>275</ele>
        <time>2018-08-26T09:41:54Z</time>
      </trkpt>
      <trkpt lat="45.97988" lon="4.84666">
        <ele>274</ele>
        <time>2018-08-26T09:41:55Z</time>
      </trkpt>
      <trkpt lat="45.97988" lon="4.84656">
        <ele>274</ele>
        <time>2018-08-26T09:41:57Z</time>
      </trkpt>
      <trkpt lat="45.97987" lon="4.84648">
        <ele>274</ele>
        <time>2018-08-26T09:41:58Z</time>
      </trkpt>
      <trkpt lat="45.97986" lon="4.8464">
        <ele>275</ele>
        <time>2018-08-26T09:41:59Z</time>
      </trkpt>
      <trkpt lat="45.97983" lon="4.84629">
        <ele>275</ele>
        <time>2018-08-26T09:42:00Z</time>
      </trkpt>
      <trkpt lat="45.97981" lon="4.84621">
        <ele>275</ele>
        <time>2018-08-26T09:42:01Z</time>
      </trkpt>
      <trkpt lat="45.9798" lon="4.84613">
        <ele>275</ele>
        <time>2018-08-26T09:42:02Z</time>
      </trkpt>
      <trkpt lat="45.9798" lon="4.846">
        <ele>274</ele>
        <time>2018-08-26T09:42:04Z</time>
      </trkpt>
      <trkpt lat="45.97978" lon="4.84591">
        <ele>274</ele>
        <time>2018-08-26T09:42:05Z</time>
      </trkpt>
      <trkpt lat="45.97977" lon="4.84583">
        <ele>275</ele>
        <time>2018-08-26T09:42:06Z</time>
      </trkpt>
      <trkpt lat="45.97976" lon="4.84577">
        <ele>275</ele>
        <time>2018-08-26T09:42:07Z</time>
      </trkpt>
      <trkpt lat="45.97974" lon="4.84569">
        <ele>275</ele>
        <time>2018-08-26T09:42:08Z</time>
      </trkpt>
      <trkpt lat="45.97973" lon="4.84561">
        <ele>275</ele>
        <time>2018-08-26T09:42:09Z</time>
      </trkpt>
      <trkpt lat="45.9797" lon="4.84554">
        <ele>275</ele>
        <time>2018-08-26T09:42:10Z</time>
      </trkpt>
      <trkpt lat="45.9797" lon="4.84546">
        <ele>275</ele>
        <time>2018-08-26T09:42:11Z</time>
      </trkpt>
      <trkpt lat="45.97965" lon="4.84538">
        <ele>275</ele>
        <time>2018-08-26T09:42:12Z</time>
      </trkpt>
      <trkpt lat="45.97963" lon="4.84529">
        <ele>275</ele>
        <time>2018-08-26T09:42:13Z</time>
      </trkpt>
      <trkpt lat="45.97961" lon="4.84521">
        <ele>275</ele>
        <time>2018-08-26T09:42:14Z</time>
      </trkpt>
      <trkpt lat="45.9796" lon="4.84513">
        <ele>275</ele>
        <time>2018-08-26T09:42:15Z</time>
      </trkpt>
      <trkpt lat="45.97958" lon="4.84505">
        <ele>275</ele>
        <time>2018-08-26T09:42:16Z</time>
      </trkpt>
      <trkpt lat="45.97957" lon="4.845">
        <ele>275</ele>
        <time>2018-08-26T09:42:17Z</time>
      </trkpt>
      <trkpt lat="45.97955" lon="4.84491">
        <ele>275</ele>
        <time>2018-08-26T09:42:18Z</time>
      </trkpt>
      <trkpt lat="45.97954" lon="4.84484">
        <ele>275</ele>
        <time>2018-08-26T09:42:19Z</time>
      </trkpt>
      <trkpt lat="45.97948" lon="4.84475">
        <ele>275</ele>
        <time>2018-08-26T09:42:20Z</time>
      </trkpt>
      <trkpt lat="45.97947" lon="4.84467">
        <ele>275</ele>
        <time>2018-08-26T09:42:21Z</time>
      </trkpt>
      <trkpt lat="45.97946" lon="4.84459">
        <ele>275</ele>
        <time>2018-08-26T09:42:22Z</time>
      </trkpt>
      <trkpt lat="45.97944" lon="4.84453">
        <ele>275</ele>
        <time>2018-08-26T09:42:23Z</time>
      </trkpt>
      <trkpt lat="45.97943" lon="4.84445">
        <ele>275</ele>
        <time>2018-08-26T09:42:24Z</time>
      </trkpt>
      <trkpt lat="45.97941" lon="4.84439">
        <ele>275</ele>
        <time>2018-08-26T09:42:25Z</time>
      </trkpt>
      <trkpt lat="45.9794" lon="4.84432">
        <ele>275</ele>
        <time>2018-08-26T09:42:26Z</time>
      </trkpt>
      <trkpt lat="45.9794" lon="4.84423">
        <ele>275</ele>
        <time>2018-08-26T09:42:27Z</time>
      </trkpt>
      <trkpt lat="45.97939" lon="4.84416">
        <ele>275</ele>
        <time>2018-08-26T09:42:28Z</time>
      </trkpt>
      <trkpt lat="45.97937" lon="4.84408">
        <ele>275</ele>
        <time>2018-08-26T09:42:29Z</time>
      </trkpt>
      <trkpt lat="45.97937" lon="4.844">
        <ele>275</ele>
        <time>2018-08-26T09:42:30Z</time>
      </trkpt>
      <trkpt lat="45.97936" lon="4.84392">
        <ele>275</ele>
        <time>2018-08-26T09:42:31Z</time>
      </trkpt>
      <trkpt lat="45.97936" lon="4.84385">
        <ele>275</ele>
        <time>2018-08-26T09:42:32Z</time>
      </trkpt>
      <trkpt lat="45.97935" lon="4.84377">
        <ele>275</ele>
        <time>2018-08-26T09:42:33Z</time>
      </trkpt>
      <trkpt lat="45.97934" lon="4.8437">
        <ele>275</ele>
        <time>2018-08-26T09:42:34Z</time>
      </trkpt>
      <trkpt lat="45.97934" lon="4.84361">
        <ele>275</ele>
        <time>2018-08-26T09:42:35Z</time>
      </trkpt>
      <trkpt lat="45.97934" lon="4.84355">
        <ele>275</ele>
        <time>2018-08-26T09:42:36Z</time>
      </trkpt>
      <trkpt lat="45.97933" lon="4.84348">
        <ele>275</ele>
        <time>2018-08-26T09:42:37Z</time>
      </trkpt>
      <trkpt lat="45.97932" lon="4.84341">
        <ele>275</ele>
        <time>2018-08-26T09:42:38Z</time>
      </trkpt>
      <trkpt lat="45.97931" lon="4.84333">
        <ele>275</ele>
        <time>2018-08-26T09:42:39Z</time>
      </trkpt>
      <trkpt lat="45.97928" lon="4.84325">
        <ele>275</ele>
        <time>2018-08-26T09:42:40Z</time>
      </trkpt>
      <trkpt lat="45.97927" lon="4.84319">
        <ele>275</ele>
        <time>2018-08-26T09:42:41Z</time>
      </trkpt>
      <trkpt lat="45.97925" lon="4.84314">
        <ele>275</ele>
        <time>2018-08-26T09:42:42Z</time>
      </trkpt>
      <trkpt lat="45.97925" lon="4.84306">
        <ele>275</ele>
        <time>2018-08-26T09:42:43Z</time>
      </trkpt>
      <trkpt lat="45.97922" lon="4.84299">
        <ele>275</ele>
        <time>2018-08-26T09:42:44Z</time>
      </trkpt>
      <trkpt lat="45.9792" lon="4.84292">
        <ele>275</ele>
        <time>2018-08-26T09:42:45Z</time>
      </trkpt>
      <trkpt lat="45.97921" lon="4.8428">
        <ele>275</ele>
        <time>2018-08-26T09:42:47Z</time>
      </trkpt>
      <trkpt lat="45.97921" lon="4.84274">
        <ele>275</ele>
        <time>2018-08-26T09:42:48Z</time>
      </trkpt>
      <trkpt lat="45.97924" lon="4.84269">
        <ele>275</ele>
        <time>2018-08-26T09:42:49Z</time>
      </trkpt>
      <trkpt lat="45.97929" lon="4.84266">
        <ele>275</ele>
        <time>2018-08-26T09:42:50Z</time>
      </trkpt>
      <trkpt lat="45.97933" lon="4.84259">
        <ele>275</ele>
        <time>2018-08-26T09:42:52Z</time>
      </trkpt>
      <trkpt lat="45.97937" lon="4.84255">
        <ele>275</ele>
        <time>2018-08-26T09:42:53Z</time>
      </trkpt>
      <trkpt lat="45.97941" lon="4.84251">
        <ele>275</ele>
        <time>2018-08-26T09:42:54Z</time>
      </trkpt>
      <trkpt lat="45.97945" lon="4.84248">
        <ele>275</ele>
        <time>2018-08-26T09:42:55Z</time>
      </trkpt>
      <trkpt lat="45.9795" lon="4.84245">
        <ele>275</ele>
        <time>2018-08-26T09:42:56Z</time>
      </trkpt>
      <trkpt lat="45.97954" lon="4.84238">
        <ele>275</ele>
        <time>2018-08-26T09:42:57Z</time>
      </trkpt>
      <trkpt lat="45.97958" lon="4.84234">
        <ele>275</ele>
        <time>2018-08-26T09:42:58Z</time>
      </trkpt>
      <trkpt lat="45.97963" lon="4.84232">
        <ele>274</ele>
        <time>2018-08-26T09:42:59Z</time>
      </trkpt>
      <trkpt lat="45.97968" lon="4.84226">
        <ele>274</ele>
        <time>2018-08-26T09:43:00Z</time>
      </trkpt>
      <trkpt lat="45.97972" lon="4.84222">
        <ele>274</ele>
        <time>2018-08-26T09:43:01Z</time>
      </trkpt>
      <trkpt lat="45.97979" lon="4.84216">
        <ele>274</ele>
        <time>2018-08-26T09:43:03Z</time>
      </trkpt>
      <trkpt lat="45.97983" lon="4.84212">
        <ele>274</ele>
        <time>2018-08-26T09:43:04Z</time>
      </trkpt>
      <trkpt lat="45.9799" lon="4.84206">
        <ele>274</ele>
        <time>2018-08-26T09:43:06Z</time>
      </trkpt>
      <trkpt lat="45.97995" lon="4.84201">
        <ele>274</ele>
        <time>2018-08-26T09:43:07Z</time>
      </trkpt>
      <trkpt lat="45.97999" lon="4.84194">
        <ele>274</ele>
        <time>2018-08-26T09:43:08Z</time>
      </trkpt>
      <trkpt lat="45.98003" lon="4.84189">
        <ele>274</ele>
        <time>2018-08-26T09:43:09Z</time>
      </trkpt>
      <trkpt lat="45.98007" lon="4.84186">
        <ele>274</ele>
        <time>2018-08-26T09:43:10Z</time>
      </trkpt>
      <trkpt lat="45.98012" lon="4.84183">
        <ele>274</ele>
        <time>2018-08-26T09:43:11Z</time>
      </trkpt>
      <trkpt lat="45.98016" lon="4.84179">
        <ele>274</ele>
        <time>2018-08-26T09:43:12Z</time>
      </trkpt>
      <trkpt lat="45.9802" lon="4.84176">
        <ele>274</ele>
        <time>2018-08-26T09:43:13Z</time>
      </trkpt>
      <trkpt lat="45.98024" lon="4.84173">
        <ele>274</ele>
        <time>2018-08-26T09:43:14Z</time>
      </trkpt>
      <trkpt lat="45.98028" lon="4.84168">
        <ele>274</ele>
        <time>2018-08-26T09:43:15Z</time>
      </trkpt>
      <trkpt lat="45.98035" lon="4.84161">
        <ele>273</ele>
        <time>2018-08-26T09:43:17Z</time>
      </trkpt>
      <trkpt lat="45.98039" lon="4.84156">
        <ele>273</ele>
        <time>2018-08-26T09:43:18Z</time>
      </trkpt>
      <trkpt lat="45.98046" lon="4.84149">
        <ele>273</ele>
        <time>2018-08-26T09:43:20Z</time>
      </trkpt>
      <trkpt lat="45.98049" lon="4.84144">
        <ele>273</ele>
        <time>2018-08-26T09:43:21Z</time>
      </trkpt>
      <trkpt lat="45.98054" lon="4.84141">
        <ele>273</ele>
        <time>2018-08-26T09:43:22Z</time>
      </trkpt>
      <trkpt lat="45.98058" lon="4.84138">
        <ele>273</ele>
        <time>2018-08-26T09:43:23Z</time>
      </trkpt>
      <trkpt lat="45.98062" lon="4.84134">
        <ele>273</ele>
        <time>2018-08-26T09:43:24Z</time>
      </trkpt>
      <trkpt lat="45.98066" lon="4.84131">
        <ele>273</ele>
        <time>2018-08-26T09:43:25Z</time>
      </trkpt>
      <trkpt lat="45.98072" lon="4.84123">
        <ele>273</ele>
        <time>2018-08-26T09:43:27Z</time>
      </trkpt>
      <trkpt lat="45.98076" lon="4.84119">
        <ele>273</ele>
        <time>2018-08-26T09:43:28Z</time>
      </trkpt>
      <trkpt lat="45.9808" lon="4.84115">
        <ele>273</ele>
        <time>2018-08-26T09:43:29Z</time>
      </trkpt>
      <trkpt lat="45.98084" lon="4.84111">
        <ele>273</ele>
        <time>2018-08-26T09:43:30Z</time>
      </trkpt>
      <trkpt lat="45.9809" lon="4.84109">
        <ele>273</ele>
        <time>2018-08-26T09:43:31Z</time>
      </trkpt>
      <trkpt lat="45.98092" lon="4.84105">
        <ele>273</ele>
        <time>2018-08-26T09:43:32Z</time>
      </trkpt>
      <trkpt lat="45.98096" lon="4.84101">
        <ele>273</ele>
        <time>2018-08-26T09:43:33Z</time>
      </trkpt>
      <trkpt lat="45.98101" lon="4.84099">
        <ele>273</ele>
        <time>2018-08-26T09:43:34Z</time>
      </trkpt>
      <trkpt lat="45.98105" lon="4.84095">
        <ele>273</ele>
        <time>2018-08-26T09:43:35Z</time>
      </trkpt>
      <trkpt lat="45.98109" lon="4.84091">
        <ele>273</ele>
        <time>2018-08-26T09:43:36Z</time>
      </trkpt>
      <trkpt lat="45.98115" lon="4.84088">
        <ele>273</ele>
        <time>2018-08-26T09:43:37Z</time>
      </trkpt>
      <trkpt lat="45.98118" lon="4.84084">
        <ele>273</ele>
        <time>2018-08-26T09:43:38Z</time>
      </trkpt>
      <trkpt lat="45.98122" lon="4.84078">
        <ele>273</ele>
        <time>2018-08-26T09:43:39Z</time>
      </trkpt>
      <trkpt lat="45.98125" lon="4.84074">
        <ele>273</ele>
        <time>2018-08-26T09:43:40Z</time>
      </trkpt>
      <trkpt lat="45.98129" lon="4.84068">
        <ele>273</ele>
        <time>2018-08-26T09:43:41Z</time>
      </trkpt>
      <trkpt lat="45.98133" lon="4.84065">
        <ele>273</ele>
        <time>2018-08-26T09:43:42Z</time>
      </trkpt>
      <trkpt lat="45.98136" lon="4.84059">
        <ele>273</ele>
        <time>2018-08-26T09:43:43Z</time>
      </trkpt>
      <trkpt lat="45.9814" lon="4.84055">
        <ele>273</ele>
        <time>2018-08-26T09:43:44Z</time>
      </trkpt>
      <trkpt lat="45.98145" lon="4.84053">
        <ele>273</ele>
        <time>2018-08-26T09:43:45Z</time>
      </trkpt>
      <trkpt lat="45.98149" lon="4.84048">
        <ele>273</ele>
        <time>2018-08-26T09:43:46Z</time>
      </trkpt>
      <trkpt lat="45.98153" lon="4.84043">
        <ele>273</ele>
        <time>2018-08-26T09:43:47Z</time>
      </trkpt>
      <trkpt lat="45.98157" lon="4.84039">
        <ele>273</ele>
        <time>2018-08-26T09:43:48Z</time>
      </trkpt>
      <trkpt lat="45.9816" lon="4.84033">
        <ele>273</ele>
        <time>2018-08-26T09:43:49Z</time>
      </trkpt>
      <trkpt lat="45.98162" lon="4.84026">
        <ele>273</ele>
        <time>2018-08-26T09:43:50Z</time>
      </trkpt>
      <trkpt lat="45.98166" lon="4.8402">
        <ele>273</ele>
        <time>2018-08-26T09:43:51Z</time>
      </trkpt>
      <trkpt lat="45.98169" lon="4.84014">
        <ele>273</ele>
        <time>2018-08-26T09:43:52Z</time>
      </trkpt>
      <trkpt lat="45.98171" lon="4.84009">
        <ele>273</ele>
        <time>2018-08-26T09:43:53Z</time>
      </trkpt>
      <trkpt lat="45.98174" lon="4.84002">
        <ele>273</ele>
        <time>2018-08-26T09:43:54Z</time>
      </trkpt>
      <trkpt lat="45.98176" lon="4.83996">
        <ele>273</ele>
        <time>2018-08-26T09:43:55Z</time>
      </trkpt>
      <trkpt lat="45.98179" lon="4.8399">
        <ele>273</ele>
        <time>2018-08-26T09:43:56Z</time>
      </trkpt>
      <trkpt lat="45.98182" lon="4.83983">
        <ele>273</ele>
        <time>2018-08-26T09:43:57Z</time>
      </trkpt>
      <trkpt lat="45.98184" lon="4.83977">
        <ele>273</ele>
        <time>2018-08-26T09:43:58Z</time>
      </trkpt>
      <trkpt lat="45.98187" lon="4.8397">
        <ele>273</ele>
        <time>2018-08-26T09:43:59Z</time>
      </trkpt>
      <trkpt lat="45.98189" lon="4.83963">
        <ele>273</ele>
        <time>2018-08-26T09:44:00Z</time>
      </trkpt>
      <trkpt lat="45.98191" lon="4.83957">
        <ele>273</ele>
        <time>2018-08-26T09:44:01Z</time>
      </trkpt>
      <trkpt lat="45.98195" lon="4.83953">
        <ele>273</ele>
        <time>2018-08-26T09:44:02Z</time>
      </trkpt>
      <trkpt lat="45.98197" lon="4.83947">
        <ele>273</ele>
        <time>2018-08-26T09:44:03Z</time>
      </trkpt>
      <trkpt lat="45.98199" lon="4.83941">
        <ele>273</ele>
        <time>2018-08-26T09:44:04Z</time>
      </trkpt>
      <trkpt lat="45.98202" lon="4.83933">
        <ele>273</ele>
        <time>2018-08-26T09:44:05Z</time>
      </trkpt>
      <trkpt lat="45.98205" lon="4.83928">
        <ele>273</ele>
        <time>2018-08-26T09:44:06Z</time>
      </trkpt>
      <trkpt lat="45.98207" lon="4.83921">
        <ele>273</ele>
        <time>2018-08-26T09:44:07Z</time>
      </trkpt>
      <trkpt lat="45.98209" lon="4.83914">
        <ele>273</ele>
        <time>2018-08-26T09:44:08Z</time>
      </trkpt>
      <trkpt lat="45.98211" lon="4.83907">
        <ele>273</ele>
        <time>2018-08-26T09:44:09Z</time>
      </trkpt>
      <trkpt lat="45.98215" lon="4.83901">
        <ele>273</ele>
        <time>2018-08-26T09:44:10Z</time>
      </trkpt>
      <trkpt lat="45.98218" lon="4.83894">
        <ele>273</ele>
        <time>2018-08-26T09:44:11Z</time>
      </trkpt>
      <trkpt lat="45.9822" lon="4.83888">
        <ele>272</ele>
        <time>2018-08-26T09:44:12Z</time>
      </trkpt>
      <trkpt lat="45.98223" lon="4.83881">
        <ele>272</ele>
        <time>2018-08-26T09:44:13Z</time>
      </trkpt>
      <trkpt lat="45.98224" lon="4.83876">
        <ele>272</ele>
        <time>2018-08-26T09:44:14Z</time>
      </trkpt>
      <trkpt lat="45.98226" lon="4.83869">
        <ele>272</ele>
        <time>2018-08-26T09:44:15Z</time>
      </trkpt>
      <trkpt lat="45.98228" lon="4.83863">
        <ele>272</ele>
        <time>2018-08-26T09:44:16Z</time>
      </trkpt>
      <trkpt lat="45.98229" lon="4.83855">
        <ele>272</ele>
        <time>2018-08-26T09:44:17Z</time>
      </trkpt>
      <trkpt lat="45.98231" lon="4.83849">
        <ele>272</ele>
        <time>2018-08-26T09:44:18Z</time>
      </trkpt>
      <trkpt lat="45.98234" lon="4.83842">
        <ele>272</ele>
        <time>2018-08-26T09:44:19Z</time>
      </trkpt>
      <trkpt lat="45.98235" lon="4.83835">
        <ele>272</ele>
        <time>2018-08-26T09:44:20Z</time>
      </trkpt>
      <trkpt lat="45.98237" lon="4.83826">
        <ele>272</ele>
        <time>2018-08-26T09:44:21Z</time>
      </trkpt>
      <trkpt lat="45.9824" lon="4.83819">
        <ele>272</ele>
        <time>2018-08-26T09:44:22Z</time>
      </trkpt>
      <trkpt lat="45.98242" lon="4.83812">
        <ele>272</ele>
        <time>2018-08-26T09:44:23Z</time>
      </trkpt>
      <trkpt lat="45.98245" lon="4.83808">
        <ele>272</ele>
        <time>2018-08-26T09:44:24Z</time>
      </trkpt>
      <trkpt lat="45.98248" lon="4.83802">
        <ele>272</ele>
        <time>2018-08-26T09:44:25Z</time>
      </trkpt>
      <trkpt lat="45.9825" lon="4.83794">
        <ele>272</ele>
        <time>2018-08-26T09:44:26Z</time>
      </trkpt>
      <trkpt lat="45.98252" lon="4.83788">
        <ele>272</ele>
        <time>2018-08-26T09:44:27Z</time>
      </trkpt>
      <trkpt lat="45.98255" lon="4.83781">
        <ele>272</ele>
        <time>2018-08-26T09:44:28Z</time>
      </trkpt>
      <trkpt lat="45.98259" lon="4.83775">
        <ele>272</ele>
        <time>2018-08-26T09:44:29Z</time>
      </trkpt>
      <trkpt lat="45.98261" lon="4.83768">
        <ele>272</ele>
        <time>2018-08-26T09:44:30Z</time>
      </trkpt>
      <trkpt lat="45.98264" lon="4.83762">
        <ele>272</ele>
        <time>2018-08-26T09:44:31Z</time>
      </trkpt>
      <trkpt lat="45.98267" lon="4.83755">
        <ele>272</ele>
        <time>2018-08-26T09:44:32Z</time>
      </trkpt>
      <trkpt lat="45.98269" lon="4.83746">
        <ele>272</ele>
        <time>2018-08-26T09:44:33Z</time>
      </trkpt>
      <trkpt lat="45.98272" lon="4.83738">
        <ele>272</ele>
        <time>2018-08-26T09:44:34Z</time>
      </trkpt>
      <trkpt lat="45.98274" lon="4.83731">
        <ele>272</ele>
        <time>2018-08-26T09:44:35Z</time>
      </trkpt>
      <trkpt lat="45.98275" lon="4.83723">
        <ele>272</ele>
        <time>2018-08-26T09:44:36Z</time>
      </trkpt>
      <trkpt lat="45.98278" lon="4.83715">
        <ele>272</ele>
        <time>2018-08-26T09:44:37Z</time>
      </trkpt>
      <trkpt lat="45.9828" lon="4.83709">
        <ele>272</ele>
        <time>2018-08-26T09:44:38Z</time>
      </trkpt>
      <trkpt lat="45.98283" lon="4.83704">
        <ele>272</ele>
        <time>2018-08-26T09:44:39Z</time>
      </trkpt>
      <trkpt lat="45.98286" lon="4.83697">
        <ele>272</ele>
        <time>2018-08-26T09:44:40Z</time>
      </trkpt>
      <trkpt lat="45.98289" lon="4.8369">
        <ele>272</ele>
        <time>2018-08-26T09:44:41Z</time>
      </trkpt>
      <trkpt lat="45.98292" lon="4.83683">
        <ele>272</ele>
        <time>2018-08-26T09:44:42Z</time>
      </trkpt>
      <trkpt lat="45.98293" lon="4.83675">
        <ele>272</ele>
        <time>2018-08-26T09:44:43Z</time>
      </trkpt>
      <trkpt lat="45.98296" lon="4.83666">
        <ele>271</ele>
        <time>2018-08-26T09:44:44Z</time>
      </trkpt>
      <trkpt lat="45.98299" lon="4.83659">
        <ele>271</ele>
        <time>2018-08-26T09:44:45Z</time>
      </trkpt>
      <trkpt lat="45.98303" lon="4.83652">
        <ele>271</ele>
        <time>2018-08-26T09:44:46Z</time>
      </trkpt>
      <trkpt lat="45.98306" lon="4.83648">
        <ele>271</ele>
        <time>2018-08-26T09:44:47Z</time>
      </trkpt>
      <trkpt lat="45.9831" lon="4.83642">
        <ele>271</ele>
        <time>2018-08-26T09:44:48Z</time>
      </trkpt>
      <trkpt lat="45.98312" lon="4.83636">
        <ele>271</ele>
        <time>2018-08-26T09:44:49Z</time>
      </trkpt>
      <trkpt lat="45.98314" lon="4.8363">
        <ele>271</ele>
        <time>2018-08-26T09:44:50Z</time>
      </trkpt>
      <trkpt lat="45.98317" lon="4.83625">
        <ele>271</ele>
        <time>2018-08-26T09:44:51Z</time>
      </trkpt>
      <trkpt lat="45.9832" lon="4.83618">
        <ele>271</ele>
        <time>2018-08-26T09:44:52Z</time>
      </trkpt>
      <trkpt lat="45.98323" lon="4.83612">
        <ele>271</ele>
        <time>2018-08-26T09:44:53Z</time>
      </trkpt>
      <trkpt lat="45.98326" lon="4.83606">
        <ele>271</ele>
        <time>2018-08-26T09:44:54Z</time>
      </trkpt>
      <trkpt lat="45.9833" lon="4.836">
        <ele>271</ele>
        <time>2018-08-26T09:44:55Z</time>
      </trkpt>
      <trkpt lat="45.98333" lon="4.83594">
        <ele>270</ele>
        <time>2018-08-26T09:44:56Z</time>
      </trkpt>
      <trkpt lat="45.98338" lon="4.83589">
        <ele>270</ele>
        <time>2018-08-26T09:44:57Z</time>
      </trkpt>
      <trkpt lat="45.98342" lon="4.83583">
        <ele>270</ele>
        <time>2018-08-26T09:44:58Z</time>
      </trkpt>
      <trkpt lat="45.98347" lon="4.83577">
        <ele>270</ele>
        <time>2018-08-26T09:44:59Z</time>
      </trkpt>
      <trkpt lat="45.98352" lon="4.83571">
        <ele>269</ele>
        <time>2018-08-26T09:45:00Z</time>
      </trkpt>
      <trkpt lat="45.98356" lon="4.83564">
        <ele>269</ele>
        <time>2018-08-26T09:45:01Z</time>
      </trkpt>
      <trkpt lat="45.98361" lon="4.83558">
        <ele>269</ele>
        <time>2018-08-26T09:45:02Z</time>
      </trkpt>
      <trkpt lat="45.98365" lon="4.83552">
        <ele>269</ele>
        <time>2018-08-26T09:45:03Z</time>
      </trkpt>
      <trkpt lat="45.98368" lon="4.83544">
        <ele>269</ele>
        <time>2018-08-26T09:45:04Z</time>
      </trkpt>
      <trkpt lat="45.98372" lon="4.83539">
        <ele>269</ele>
        <time>2018-08-26T09:45:05Z</time>
      </trkpt>
      <trkpt lat="45.98376" lon="4.83534">
        <ele>269</ele>
        <time>2018-08-26T09:45:06Z</time>
      </trkpt>
      <trkpt lat="45.9838" lon="4.83528">
        <ele>269</ele>
        <time>2018-08-26T09:45:07Z</time>
      </trkpt>
      <trkpt lat="45.98383" lon="4.83524">
        <ele>269</ele>
        <time>2018-08-26T09:45:08Z</time>
      </trkpt>
      <trkpt lat="45.98387" lon="4.83518">
        <ele>269</ele>
        <time>2018-08-26T09:45:09Z</time>
      </trkpt>
      <trkpt lat="45.98391" lon="4.83514">
        <ele>269</ele>
        <time>2018-08-26T09:45:10Z</time>
      </trkpt>
      <trkpt lat="45.98396" lon="4.83509">
        <ele>269</ele>
        <time>2018-08-26T09:45:11Z</time>
      </trkpt>
      <trkpt lat="45.98401" lon="4.83504">
        <ele>268</ele>
        <time>2018-08-26T09:45:12Z</time>
      </trkpt>
      <trkpt lat="45.98407" lon="4.83497">
        <ele>268</ele>
        <time>2018-08-26T09:45:13Z</time>
      </trkpt>
      <trkpt lat="45.98412" lon="4.83492">
        <ele>268</ele>
        <time>2018-08-26T09:45:14Z</time>
      </trkpt>
      <trkpt lat="45.98418" lon="4.83486">
        <ele>268</ele>
        <time>2018-08-26T09:45:15Z</time>
      </trkpt>
      <trkpt lat="45.98422" lon="4.8348">
        <ele>268</ele>
        <time>2018-08-26T09:45:16Z</time>
      </trkpt>
      <trkpt lat="45.98427" lon="4.83473">
        <ele>268</ele>
        <time>2018-08-26T09:45:17Z</time>
      </trkpt>
      <trkpt lat="45.98432" lon="4.83468">
        <ele>268</ele>
        <time>2018-08-26T09:45:18Z</time>
      </trkpt>
      <trkpt lat="45.98435" lon="4.83462">
        <ele>268</ele>
        <time>2018-08-26T09:45:19Z</time>
      </trkpt>
      <trkpt lat="45.98439" lon="4.83456">
        <ele>268</ele>
        <time>2018-08-26T09:45:20Z</time>
      </trkpt>
      <trkpt lat="45.98443" lon="4.8345">
        <ele>268</ele>
        <time>2018-08-26T09:45:21Z</time>
      </trkpt>
      <trkpt lat="45.98447" lon="4.83444">
        <ele>268</ele>
        <time>2018-08-26T09:45:22Z</time>
      </trkpt>
      <trkpt lat="45.98451" lon="4.83438">
        <ele>268</ele>
        <time>2018-08-26T09:45:23Z</time>
      </trkpt>
      <trkpt lat="45.98455" lon="4.83431">
        <ele>268</ele>
        <time>2018-08-26T09:45:24Z</time>
      </trkpt>
      <trkpt lat="45.98459" lon="4.83425">
        <ele>269</ele>
        <time>2018-08-26T09:45:25Z</time>
      </trkpt>
      <trkpt lat="45.98463" lon="4.8342">
        <ele>269</ele>
        <time>2018-08-26T09:45:26Z</time>
      </trkpt>
      <trkpt lat="45.98467" lon="4.83415">
        <ele>269</ele>
        <time>2018-08-26T09:45:27Z</time>
      </trkpt>
      <trkpt lat="45.98472" lon="4.83409">
        <ele>269</ele>
        <time>2018-08-26T09:45:28Z</time>
      </trkpt>
      <trkpt lat="45.98477" lon="4.83404">
        <ele>269</ele>
        <time>2018-08-26T09:45:29Z</time>
      </trkpt>
      <trkpt lat="45.98481" lon="4.83399">
        <ele>269</ele>
        <time>2018-08-26T09:45:30Z</time>
      </trkpt>
      <trkpt lat="45.98485" lon="4.83394">
        <ele>269</ele>
        <time>2018-08-26T09:45:31Z</time>
      </trkpt>
      <trkpt lat="45.9849" lon="4.8339">
        <ele>269</ele>
        <time>2018-08-26T09:45:32Z</time>
      </trkpt>
      <trkpt lat="45.98494" lon="4.83383">
        <ele>269</ele>
        <time>2018-08-26T09:45:33Z</time>
      </trkpt>
      <trkpt lat="45.98496" lon="4.83377">
        <ele>269</ele>
        <time>2018-08-26T09:45:34Z</time>
      </trkpt>
      <trkpt lat="45.985" lon="4.83371">
        <ele>270</ele>
        <time>2018-08-26T09:45:35Z</time>
      </trkpt>
      <trkpt lat="45.98504" lon="4.83365">
        <ele>269</ele>
        <time>2018-08-26T09:45:36Z</time>
      </trkpt>
      <trkpt lat="45.98509" lon="4.83359">
        <ele>269</ele>
        <time>2018-08-26T09:45:37Z</time>
      </trkpt>
      <trkpt lat="45.98512" lon="4.83354">
        <ele>270</ele>
        <time>2018-08-26T09:45:38Z</time>
      </trkpt>
      <trkpt lat="45.98515" lon="4.83349">
        <ele>270</ele>
        <time>2018-08-26T09:45:39Z</time>
      </trkpt>
      <trkpt lat="45.98519" lon="4.83343">
        <ele>270</ele>
        <time>2018-08-26T09:45:40Z</time>
      </trkpt>
      <trkpt lat="45.98523" lon="4.83338">
        <ele>270</ele>
        <time>2018-08-26T09:45:41Z</time>
      </trkpt>
      <trkpt lat="45.98526" lon="4.83332">
        <ele>270</ele>
        <time>2018-08-26T09:45:42Z</time>
      </trkpt>
      <trkpt lat="45.98529" lon="4.83327">
        <ele>269</ele>
        <time>2018-08-26T09:45:43Z</time>
      </trkpt>
      <trkpt lat="45.98534" lon="4.83322">
        <ele>269</ele>
        <time>2018-08-26T09:45:44Z</time>
      </trkpt>
      <trkpt lat="45.98537" lon="4.83317">
        <ele>269</ele>
        <time>2018-08-26T09:45:45Z</time>
      </trkpt>
      <trkpt lat="45.98541" lon="4.83311">
        <ele>269</ele>
        <time>2018-08-26T09:45:46Z</time>
      </trkpt>
      <trkpt lat="45.98545" lon="4.83306">
        <ele>269</ele>
        <time>2018-08-26T09:45:47Z</time>
      </trkpt>
      <trkpt lat="45.98548" lon="4.83301">
        <ele>269</ele>
        <time>2018-08-26T09:45:48Z</time>
      </trkpt>
      <trkpt lat="45.98552" lon="4.83295">
        <ele>269</ele>
        <time>2018-08-26T09:45:49Z</time>
      </trkpt>
      <trkpt lat="45.98556" lon="4.83291">
        <ele>269</ele>
        <time>2018-08-26T09:45:50Z</time>
      </trkpt>
      <trkpt lat="45.9856" lon="4.83285">
        <ele>269</ele>
        <time>2018-08-26T09:45:51Z</time>
      </trkpt>
      <trkpt lat="45.98564" lon="4.83282">
        <ele>269</ele>
        <time>2018-08-26T09:45:52Z</time>
      </trkpt>
      <trkpt lat="45.98568" lon="4.83277">
        <ele>269</ele>
        <time>2018-08-26T09:45:53Z</time>
      </trkpt>
      <trkpt lat="45.98571" lon="4.83273">
        <ele>269</ele>
        <time>2018-08-26T09:45:54Z</time>
      </trkpt>
      <trkpt lat="45.98574" lon="4.83268">
        <ele>269</ele>
        <time>2018-08-26T09:45:55Z</time>
      </trkpt>
      <trkpt lat="45.98577" lon="4.83263">
        <ele>269</ele>
        <time>2018-08-26T09:45:56Z</time>
      </trkpt>
      <trkpt lat="45.9858" lon="4.83258">
        <ele>268</ele>
        <time>2018-08-26T09:45:57Z</time>
      </trkpt>
      <trkpt lat="45.98584" lon="4.83253">
        <ele>268</ele>
        <time>2018-08-26T09:45:58Z</time>
      </trkpt>
      <trkpt lat="45.98587" lon="4.83248">
        <ele>268</ele>
        <time>2018-08-26T09:45:59Z</time>
      </trkpt>
      <trkpt lat="45.9859" lon="4.83243">
        <ele>268</ele>
        <time>2018-08-26T09:46:00Z</time>
      </trkpt>
      <trkpt lat="45.98595" lon="4.83237">
        <ele>268</ele>
        <time>2018-08-26T09:46:01Z</time>
      </trkpt>
      <trkpt lat="45.986" lon="4.8323">
        <ele>268</ele>
        <time>2018-08-26T09:46:02Z</time>
      </trkpt>
      <trkpt lat="45.98604" lon="4.83225">
        <ele>267</ele>
        <time>2018-08-26T09:46:03Z</time>
      </trkpt>
      <trkpt lat="45.98609" lon="4.83219">
        <ele>267</ele>
        <time>2018-08-26T09:46:04Z</time>
      </trkpt>
      <trkpt lat="45.98613" lon="4.83214">
        <ele>267</ele>
        <time>2018-08-26T09:46:05Z</time>
      </trkpt>
      <trkpt lat="45.98616" lon="4.8321">
        <ele>267</ele>
        <time>2018-08-26T09:46:06Z</time>
      </trkpt>
      <trkpt lat="45.98621" lon="4.83205">
        <ele>267</ele>
        <time>2018-08-26T09:46:07Z</time>
      </trkpt>
      <trkpt lat="45.98625" lon="4.832">
        <ele>267</ele>
        <time>2018-08-26T09:46:08Z</time>
      </trkpt>
      <trkpt lat="45.98627" lon="4.83195">
        <ele>267</ele>
        <time>2018-08-26T09:46:09Z</time>
      </trkpt>
      <trkpt lat="45.98631" lon="4.83189">
        <ele>267</ele>
        <time>2018-08-26T09:46:10Z</time>
      </trkpt>
      <trkpt lat="45.98635" lon="4.83184">
        <ele>267</ele>
        <time>2018-08-26T09:46:11Z</time>
      </trkpt>
      <trkpt lat="45.98639" lon="4.83179">
        <ele>267</ele>
        <time>2018-08-26T09:46:12Z</time>
      </trkpt>
      <trkpt lat="45.98645" lon="4.83175">
        <ele>267</ele>
        <time>2018-08-26T09:46:13Z</time>
      </trkpt>
      <trkpt lat="45.98649" lon="4.8317">
        <ele>267</ele>
        <time>2018-08-26T09:46:14Z</time>
      </trkpt>
      <trkpt lat="45.98653" lon="4.83166">
        <ele>267</ele>
        <time>2018-08-26T09:46:15Z</time>
      </trkpt>
      <trkpt lat="45.98658" lon="4.83163">
        <ele>267</ele>
        <time>2018-08-26T09:46:16Z</time>
      </trkpt>
      <trkpt lat="45.98663" lon="4.83159">
        <ele>267</ele>
        <time>2018-08-26T09:46:17Z</time>
      </trkpt>
      <trkpt lat="45.98667" lon="4.83156">
        <ele>266</ele>
        <time>2018-08-26T09:46:18Z</time>
      </trkpt>
      <trkpt lat="45.98671" lon="4.83152">
        <ele>266</ele>
        <time>2018-08-26T09:46:19Z</time>
      </trkpt>
      <trkpt lat="45.98675" lon="4.83149">
        <ele>266</ele>
        <time>2018-08-26T09:46:20Z</time>
      </trkpt>
      <trkpt lat="45.98679" lon="4.83146">
        <ele>266</ele>
        <time>2018-08-26T09:46:21Z</time>
      </trkpt>
      <trkpt lat="45.98684" lon="4.83143">
        <ele>266</ele>
        <time>2018-08-26T09:46:22Z</time>
      </trkpt>
      <trkpt lat="45.98687" lon="4.83139">
        <ele>266</ele>
        <time>2018-08-26T09:46:23Z</time>
      </trkpt>
      <trkpt lat="45.98692" lon="4.83137">
        <ele>266</ele>
        <time>2018-08-26T09:46:24Z</time>
      </trkpt>
      <trkpt lat="45.98698" lon="4.83132">
        <ele>266</ele>
        <time>2018-08-26T09:46:25Z</time>
      </trkpt>
      <trkpt lat="45.98703" lon="4.83126">
        <ele>267</ele>
        <time>2018-08-26T09:46:26Z</time>
      </trkpt>
      <trkpt lat="45.98707" lon="4.83123">
        <ele>267</ele>
        <time>2018-08-26T09:46:27Z</time>
      </trkpt>
      <trkpt lat="45.98711" lon="4.83117">
        <ele>267</ele>
        <time>2018-08-26T09:46:28Z</time>
      </trkpt>
      <trkpt lat="45.98715" lon="4.83113">
        <ele>267</ele>
        <time>2018-08-26T09:46:29Z</time>
      </trkpt>
      <trkpt lat="45.9872" lon="4.83109">
        <ele>267</ele>
        <time>2018-08-26T09:46:30Z</time>
      </trkpt>
      <trkpt lat="45.98725" lon="4.83105">
        <ele>267</ele>
        <time>2018-08-26T09:46:31Z</time>
      </trkpt>
      <trkpt lat="45.9873" lon="4.83101">
        <ele>267</ele>
        <time>2018-08-26T09:46:32Z</time>
      </trkpt>
      <trkpt lat="45.98734" lon="4.83096">
        <ele>267</ele>
        <time>2018-08-26T09:46:33Z</time>
      </trkpt>
      <trkpt lat="45.98739" lon="4.83092">
        <ele>267</ele>
        <time>2018-08-26T09:46:34Z</time>
      </trkpt>
      <trkpt lat="45.98743" lon="4.8309">
        <ele>267</ele>
        <time>2018-08-26T09:46:35Z</time>
      </trkpt>
      <trkpt lat="45.98749" lon="4.83085">
        <ele>267</ele>
        <time>2018-08-26T09:46:36Z</time>
      </trkpt>
      <trkpt lat="45.98754" lon="4.8308">
        <ele>267</ele>
        <time>2018-08-26T09:46:37Z</time>
      </trkpt>
      <trkpt lat="45.98759" lon="4.83077">
        <ele>266</ele>
        <time>2018-08-26T09:46:38Z</time>
      </trkpt>
      <trkpt lat="45.98765" lon="4.83073">
        <ele>266</ele>
        <time>2018-08-26T09:46:39Z</time>
      </trkpt>
      <trkpt lat="45.98771" lon="4.83068">
        <ele>265</ele>
        <time>2018-08-26T09:46:40Z</time>
      </trkpt>
      <trkpt lat="45.98777" lon="4.83062">
        <ele>265</ele>
        <time>2018-08-26T09:46:41Z</time>
      </trkpt>
      <trkpt lat="45.98783" lon="4.83056">
        <ele>265</ele>
        <time>2018-08-26T09:46:42Z</time>
      </trkpt>
      <trkpt lat="45.9879" lon="4.83052">
        <ele>265</ele>
        <time>2018-08-26T09:46:43Z</time>
      </trkpt>
      <trkpt lat="45.98795" lon="4.83046">
        <ele>265</ele>
        <time>2018-08-26T09:46:44Z</time>
      </trkpt>
      <trkpt lat="45.98801" lon="4.83041">
        <ele>264</ele>
        <time>2018-08-26T09:46:45Z</time>
      </trkpt>
      <trkpt lat="45.98808" lon="4.83036">
        <ele>264</ele>
        <time>2018-08-26T09:46:46Z</time>
      </trkpt>
      <trkpt lat="45.98814" lon="4.83031">
        <ele>264</ele>
        <time>2018-08-26T09:46:47Z</time>
      </trkpt>
      <trkpt lat="45.9882" lon="4.83025">
        <ele>264</ele>
        <time>2018-08-26T09:46:48Z</time>
      </trkpt>
      <trkpt lat="45.98826" lon="4.8302">
        <ele>264</ele>
        <time>2018-08-26T09:46:49Z</time>
      </trkpt>
      <trkpt lat="45.98832" lon="4.83015">
        <ele>264</ele>
        <time>2018-08-26T09:46:50Z</time>
      </trkpt>
      <trkpt lat="45.98839" lon="4.8301">
        <ele>262</ele>
        <time>2018-08-26T09:46:51Z</time>
      </trkpt>
      <trkpt lat="45.98846" lon="4.83006">
        <ele>261</ele>
        <time>2018-08-26T09:46:52Z</time>
      </trkpt>
      <trkpt lat="45.98854" lon="4.82997">
        <ele>261</ele>
        <time>2018-08-26T09:46:53Z</time>
      </trkpt>
      <trkpt lat="45.98861" lon="4.82992">
        <ele>261</ele>
        <time>2018-08-26T09:46:54Z</time>
      </trkpt>
      <trkpt lat="45.98868" lon="4.82987">
        <ele>260</ele>
        <time>2018-08-26T09:46:55Z</time>
      </trkpt>
      <trkpt lat="45.98875" lon="4.82983">
        <ele>260</ele>
        <time>2018-08-26T09:46:56Z</time>
      </trkpt>
      <trkpt lat="45.98882" lon="4.82978">
        <ele>259</ele>
        <time>2018-08-26T09:46:57Z</time>
      </trkpt>
      <trkpt lat="45.9889" lon="4.82974">
        <ele>259</ele>
        <time>2018-08-26T09:46:58Z</time>
      </trkpt>
      <trkpt lat="45.98897" lon="4.82968">
        <ele>259</ele>
        <time>2018-08-26T09:46:59Z</time>
      </trkpt>
      <trkpt lat="45.98904" lon="4.82962">
        <ele>259</ele>
        <time>2018-08-26T09:47:00Z</time>
      </trkpt>
      <trkpt lat="45.98911" lon="4.82957">
        <ele>258</ele>
        <time>2018-08-26T09:47:01Z</time>
      </trkpt>
      <trkpt lat="45.98918" lon="4.82947">
        <ele>255</ele>
        <time>2018-08-26T09:47:02Z</time>
      </trkpt>
      <trkpt lat="45.98923" lon="4.82938">
        <ele>255</ele>
        <time>2018-08-26T09:47:03Z</time>
      </trkpt>
      <trkpt lat="45.98927" lon="4.82926">
        <ele>255</ele>
        <time>2018-08-26T09:47:04Z</time>
      </trkpt>
      <trkpt lat="45.98933" lon="4.82913">
        <ele>254</ele>
        <time>2018-08-26T09:47:05Z</time>
      </trkpt>
      <trkpt lat="45.9894" lon="4.82899">
        <ele>253</ele>
        <time>2018-08-26T09:47:06Z</time>
      </trkpt>
      <trkpt lat="45.98946" lon="4.82885">
        <ele>253</ele>
        <time>2018-08-26T09:47:07Z</time>
      </trkpt>
      <trkpt lat="45.98952" lon="4.8287">
        <ele>253</ele>
        <time>2018-08-26T09:47:08Z</time>
      </trkpt>
      <trkpt lat="45.98958" lon="4.82856">
        <ele>252</ele>
        <time>2018-08-26T09:47:09Z</time>
      </trkpt>
      <trkpt lat="45.98965" lon="4.82839">
        <ele>252</ele>
        <time>2018-08-26T09:47:10Z</time>
      </trkpt>
      <trkpt lat="45.98971" lon="4.82823">
        <ele>249</ele>
        <time>2018-08-26T09:47:11Z</time>
      </trkpt>
      <trkpt lat="45.98979" lon="4.82808">
        <ele>248</ele>
        <time>2018-08-26T09:47:12Z</time>
      </trkpt>
      <trkpt lat="45.98988" lon="4.82792">
        <ele>247</ele>
        <time>2018-08-26T09:47:13Z</time>
      </trkpt>
      <trkpt lat="45.98994" lon="4.82775">
        <ele>246</ele>
        <time>2018-08-26T09:47:14Z</time>
      </trkpt>
      <trkpt lat="45.99001" lon="4.82759">
        <ele>241</ele>
        <time>2018-08-26T09:47:15Z</time>
      </trkpt>
      <trkpt lat="45.99008" lon="4.82743">
        <ele>240</ele>
        <time>2018-08-26T09:47:16Z</time>
      </trkpt>
      <trkpt lat="45.99016" lon="4.82727">
        <ele>239</ele>
        <time>2018-08-26T09:47:17Z</time>
      </trkpt>
      <trkpt lat="45.99023" lon="4.82711">
        <ele>238</ele>
        <time>2018-08-26T09:47:18Z</time>
      </trkpt>
      <trkpt lat="45.99029" lon="4.82695">
        <ele>238</ele>
        <time>2018-08-26T09:47:19Z</time>
      </trkpt>
      <trkpt lat="45.99035" lon="4.82679">
        <ele>238</ele>
        <time>2018-08-26T09:47:20Z</time>
      </trkpt>
      <trkpt lat="45.99041" lon="4.82664">
        <ele>236</ele>
        <time>2018-08-26T09:47:21Z</time>
      </trkpt>
      <trkpt lat="45.99046" lon="4.8265">
        <ele>236</ele>
        <time>2018-08-26T09:47:22Z</time>
      </trkpt>
      <trkpt lat="45.99051" lon="4.82638">
        <ele>236</ele>
        <time>2018-08-26T09:47:23Z</time>
      </trkpt>
      <trkpt lat="45.99057" lon="4.82626">
        <ele>236</ele>
        <time>2018-08-26T09:47:24Z</time>
      </trkpt>
      <trkpt lat="45.99062" lon="4.82615">
        <ele>236</ele>
        <time>2018-08-26T09:47:25Z</time>
      </trkpt>
      <trkpt lat="45.99066" lon="4.82605">
        <ele>236</ele>
        <time>2018-08-26T09:47:26Z</time>
      </trkpt>
      <trkpt lat="45.99071" lon="4.82598">
        <ele>235</ele>
        <time>2018-08-26T09:47:27Z</time>
      </trkpt>
      <trkpt lat="45.99073" lon="4.8259">
        <ele>235</ele>
        <time>2018-08-26T09:47:28Z</time>
      </trkpt>
      <trkpt lat="45.99077" lon="4.82583">
        <ele>235</ele>
        <time>2018-08-26T09:47:29Z</time>
      </trkpt>
      <trkpt lat="45.99081" lon="4.82581">
        <ele>235</ele>
        <time>2018-08-26T09:47:30Z</time>
      </trkpt>
      <trkpt lat="45.99079" lon="4.82569">
        <ele>235</ele>
        <time>2018-08-26T09:47:33Z</time>
      </trkpt>
      <trkpt lat="45.99075" lon="4.82567">
        <ele>235</ele>
        <time>2018-08-26T09:47:34Z</time>
      </trkpt>
      <trkpt lat="45.9907" lon="4.82566">
        <ele>235</ele>
        <time>2018-08-26T09:47:35Z</time>
      </trkpt>
      <trkpt lat="45.99066" lon="4.82565">
        <ele>235</ele>
        <time>2018-08-26T09:47:36Z</time>
      </trkpt>
      <trkpt lat="45.99058" lon="4.82563">
        <ele>235</ele>
        <time>2018-08-26T09:47:38Z</time>
      </trkpt>
      <trkpt lat="45.99053" lon="4.82561">
        <ele>235</ele>
        <time>2018-08-26T09:47:39Z</time>
      </trkpt>
      <trkpt lat="45.99048" lon="4.82557">
        <ele>235</ele>
        <time>2018-08-26T09:47:40Z</time>
      </trkpt>
      <trkpt lat="45.99045" lon="4.82554">
        <ele>235</ele>
        <time>2018-08-26T09:47:41Z</time>
      </trkpt>
      <trkpt lat="45.99041" lon="4.82554">
        <ele>235</ele>
        <time>2018-08-26T09:47:42Z</time>
      </trkpt>
      <trkpt lat="45.99035" lon="4.82548">
        <ele>235</ele>
        <time>2018-08-26T09:47:43Z</time>
      </trkpt>
      <trkpt lat="45.99031" lon="4.82544">
        <ele>235</ele>
        <time>2018-08-26T09:47:44Z</time>
      </trkpt>
      <trkpt lat="45.99025" lon="4.8254">
        <ele>235</ele>
        <time>2018-08-26T09:47:45Z</time>
      </trkpt>
      <trkpt lat="45.99021" lon="4.82534">
        <ele>235</ele>
        <time>2018-08-26T09:47:46Z</time>
      </trkpt>
      <trkpt lat="45.99014" lon="4.82529">
        <ele>235</ele>
        <time>2018-08-26T09:47:47Z</time>
      </trkpt>
      <trkpt lat="45.99009" lon="4.82523">
        <ele>235</ele>
        <time>2018-08-26T09:47:48Z</time>
      </trkpt>
      <trkpt lat="45.99007" lon="4.82517">
        <ele>235</ele>
        <time>2018-08-26T09:47:49Z</time>
      </trkpt>
      <trkpt lat="45.99004" lon="4.82512">
        <ele>235</ele>
        <time>2018-08-26T09:47:50Z</time>
      </trkpt>
      <trkpt lat="45.99002" lon="4.82506">
        <ele>235</ele>
        <time>2018-08-26T09:47:51Z</time>
      </trkpt>
      <trkpt lat="45.98997" lon="4.82498">
        <ele>235</ele>
        <time>2018-08-26T09:47:53Z</time>
      </trkpt>
      <trkpt lat="45.98994" lon="4.82493">
        <ele>236</ele>
        <time>2018-08-26T09:47:54Z</time>
      </trkpt>
      <trkpt lat="45.98994" lon="4.82491">
        <ele>236</ele>
        <time>2018-08-26T09:47:55Z</time>
      </trkpt>
      <trkpt lat="45.98989" lon="4.82481">
        <ele>236</ele>
        <time>2018-08-26T09:47:56Z</time>
      </trkpt>
      <trkpt lat="45.98989" lon="4.82476">
        <ele>236</ele>
        <time>2018-08-26T09:47:57Z</time>
      </trkpt>
      <trkpt lat="45.98987" lon="4.82468">
        <ele>236</ele>
        <time>2018-08-26T09:47:58Z</time>
      </trkpt>
      <trkpt lat="45.98985" lon="4.82461">
        <ele>236</ele>
        <time>2018-08-26T09:47:59Z</time>
      </trkpt>
      <trkpt lat="45.98984" lon="4.82453">
        <ele>236</ele>
        <time>2018-08-26T09:48:00Z</time>
      </trkpt>
      <trkpt lat="45.98981" lon="4.82445">
        <ele>236</ele>
        <time>2018-08-26T09:48:01Z</time>
      </trkpt>
      <trkpt lat="45.98979" lon="4.82437">
        <ele>236</ele>
        <time>2018-08-26T09:48:02Z</time>
      </trkpt>
      <trkpt lat="45.98978" lon="4.82429">
        <ele>236</ele>
        <time>2018-08-26T09:48:03Z</time>
      </trkpt>
      <trkpt lat="45.98976" lon="4.8242">
        <ele>236</ele>
        <time>2018-08-26T09:48:04Z</time>
      </trkpt>
      <trkpt lat="45.98973" lon="4.82412">
        <ele>235</ele>
        <time>2018-08-26T09:48:05Z</time>
      </trkpt>
      <trkpt lat="45.98971" lon="4.82405">
        <ele>235</ele>
        <time>2018-08-26T09:48:06Z</time>
      </trkpt>
      <trkpt lat="45.98969" lon="4.82398">
        <ele>235</ele>
        <time>2018-08-26T09:48:07Z</time>
      </trkpt>
      <trkpt lat="45.98968" lon="4.82391">
        <ele>235</ele>
        <time>2018-08-26T09:48:08Z</time>
      </trkpt>
      <trkpt lat="45.98965" lon="4.82385">
        <ele>235</ele>
        <time>2018-08-26T09:48:09Z</time>
      </trkpt>
      <trkpt lat="45.98962" lon="4.82378">
        <ele>235</ele>
        <time>2018-08-26T09:48:10Z</time>
      </trkpt>
      <trkpt lat="45.9896" lon="4.82371">
        <ele>235</ele>
        <time>2018-08-26T09:48:11Z</time>
      </trkpt>
      <trkpt lat="45.98958" lon="4.82364">
        <ele>235</ele>
        <time>2018-08-26T09:48:12Z</time>
      </trkpt>
      <trkpt lat="45.98955" lon="4.82357">
        <ele>235</ele>
        <time>2018-08-26T09:48:13Z</time>
      </trkpt>
      <trkpt lat="45.98952" lon="4.8235">
        <ele>235</ele>
        <time>2018-08-26T09:48:14Z</time>
      </trkpt>
      <trkpt lat="45.98949" lon="4.82343">
        <ele>235</ele>
        <time>2018-08-26T09:48:15Z</time>
      </trkpt>
      <trkpt lat="45.98946" lon="4.82336">
        <ele>235</ele>
        <time>2018-08-26T09:48:16Z</time>
      </trkpt>
      <trkpt lat="45.98943" lon="4.8233">
        <ele>234</ele>
        <time>2018-08-26T09:48:17Z</time>
      </trkpt>
      <trkpt lat="45.9894" lon="4.82323">
        <ele>234</ele>
        <time>2018-08-26T09:48:18Z</time>
      </trkpt>
      <trkpt lat="45.98936" lon="4.82318">
        <ele>235</ele>
        <time>2018-08-26T09:48:19Z</time>
      </trkpt>
      <trkpt lat="45.98931" lon="4.82312">
        <ele>235</ele>
        <time>2018-08-26T09:48:20Z</time>
      </trkpt>
      <trkpt lat="45.98924" lon="4.82306">
        <ele>234</ele>
        <time>2018-08-26T09:48:21Z</time>
      </trkpt>
      <trkpt lat="45.98918" lon="4.82303">
        <ele>234</ele>
        <time>2018-08-26T09:48:22Z</time>
      </trkpt>
      <trkpt lat="45.98911" lon="4.82295">
        <ele>237</ele>
        <time>2018-08-26T09:48:24Z</time>
      </trkpt>
      <trkpt lat="45.98907" lon="4.82291">
        <ele>236</ele>
        <time>2018-08-26T09:48:25Z</time>
      </trkpt>
      <trkpt lat="45.98901" lon="4.82283">
        <ele>236</ele>
        <time>2018-08-26T09:48:27Z</time>
      </trkpt>
      <trkpt lat="45.98897" lon="4.82278">
        <ele>236</ele>
        <time>2018-08-26T09:48:28Z</time>
      </trkpt>
      <trkpt lat="45.98893" lon="4.82272">
        <ele>236</ele>
        <time>2018-08-26T09:48:29Z</time>
      </trkpt>
      <trkpt lat="45.98889" lon="4.82266">
        <ele>236</ele>
        <time>2018-08-26T09:48:30Z</time>
      </trkpt>
      <trkpt lat="45.98887" lon="4.82259">
        <ele>236</ele>
        <time>2018-08-26T09:48:31Z</time>
      </trkpt>
      <trkpt lat="45.98883" lon="4.82251">
        <ele>236</ele>
        <time>2018-08-26T09:48:32Z</time>
      </trkpt>
      <trkpt lat="45.98879" lon="4.82245">
        <ele>236</ele>
        <time>2018-08-26T09:48:33Z</time>
      </trkpt>
      <trkpt lat="45.98876" lon="4.82238">
        <ele>236</ele>
        <time>2018-08-26T09:48:34Z</time>
      </trkpt>
      <trkpt lat="45.98873" lon="4.82231">
        <ele>236</ele>
        <time>2018-08-26T09:48:35Z</time>
      </trkpt>
      <trkpt lat="45.98872" lon="4.82225">
        <ele>236</ele>
        <time>2018-08-26T09:48:36Z</time>
      </trkpt>
      <trkpt lat="45.9887" lon="4.82219">
        <ele>236</ele>
        <time>2018-08-26T09:48:37Z</time>
      </trkpt>
      <trkpt lat="45.98868" lon="4.82212">
        <ele>236</ele>
        <time>2018-08-26T09:48:38Z</time>
      </trkpt>
      <trkpt lat="45.98866" lon="4.82205">
        <ele>236</ele>
        <time>2018-08-26T09:48:39Z</time>
      </trkpt>
      <trkpt lat="45.98863" lon="4.82198">
        <ele>236</ele>
        <time>2018-08-26T09:48:40Z</time>
      </trkpt>
      <trkpt lat="45.98861" lon="4.82192">
        <ele>236</ele>
        <time>2018-08-26T09:48:41Z</time>
      </trkpt>
      <trkpt lat="45.98857" lon="4.82184">
        <ele>236</ele>
        <time>2018-08-26T09:48:42Z</time>
      </trkpt>
      <trkpt lat="45.98855" lon="4.82177">
        <ele>236</ele>
        <time>2018-08-26T09:48:43Z</time>
      </trkpt>
      <trkpt lat="45.98852" lon="4.82174">
        <ele>236</ele>
        <time>2018-08-26T09:48:44Z</time>
      </trkpt>
      <trkpt lat="45.98848" lon="4.82162">
        <ele>236</ele>
        <time>2018-08-26T09:48:46Z</time>
      </trkpt>
      <trkpt lat="45.98846" lon="4.82154">
        <ele>236</ele>
        <time>2018-08-26T09:48:47Z</time>
      </trkpt>
      <trkpt lat="45.98843" lon="4.82145">
        <ele>236</ele>
        <time>2018-08-26T09:48:48Z</time>
      </trkpt>
      <trkpt lat="45.98841" lon="4.82137">
        <ele>236</ele>
        <time>2018-08-26T09:48:49Z</time>
      </trkpt>
      <trkpt lat="45.98839" lon="4.82128">
        <ele>236</ele>
        <time>2018-08-26T09:48:50Z</time>
      </trkpt>
      <trkpt lat="45.98837" lon="4.82118">
        <ele>236</ele>
        <time>2018-08-26T09:48:51Z</time>
      </trkpt>
      <trkpt lat="45.98837" lon="4.82108">
        <ele>236</ele>
        <time>2018-08-26T09:48:52Z</time>
      </trkpt>
      <trkpt lat="45.98836" lon="4.821">
        <ele>236</ele>
        <time>2018-08-26T09:48:53Z</time>
      </trkpt>
      <trkpt lat="45.98835" lon="4.82091">
        <ele>236</ele>
        <time>2018-08-26T09:48:54Z</time>
      </trkpt>
      <trkpt lat="45.98833" lon="4.82083">
        <ele>236</ele>
        <time>2018-08-26T09:48:55Z</time>
      </trkpt>
      <trkpt lat="45.98829" lon="4.82072">
        <ele>237</ele>
        <time>2018-08-26T09:48:57Z</time>
      </trkpt>
      <trkpt lat="45.98828" lon="4.82064">
        <ele>237</ele>
        <time>2018-08-26T09:48:58Z</time>
      </trkpt>
      <trkpt lat="45.98827" lon="4.82056">
        <ele>237</ele>
        <time>2018-08-26T09:48:59Z</time>
      </trkpt>
      <trkpt lat="45.98826" lon="4.82051">
        <ele>237</ele>
        <time>2018-08-26T09:49:00Z</time>
      </trkpt>
      <trkpt lat="45.98825" lon="4.82044">
        <ele>238</ele>
        <time>2018-08-26T09:49:01Z</time>
      </trkpt>
      <trkpt lat="45.98824" lon="4.82037">
        <ele>238</ele>
        <time>2018-08-26T09:49:02Z</time>
      </trkpt>
      <trkpt lat="45.98825" lon="4.82029">
        <ele>238</ele>
        <time>2018-08-26T09:49:03Z</time>
      </trkpt>
      <trkpt lat="45.98825" lon="4.82021">
        <ele>238</ele>
        <time>2018-08-26T09:49:04Z</time>
      </trkpt>
      <trkpt lat="45.98824" lon="4.82013">
        <ele>238</ele>
        <time>2018-08-26T09:49:05Z</time>
      </trkpt>
      <trkpt lat="45.98823" lon="4.82006">
        <ele>238</ele>
        <time>2018-08-26T09:49:06Z</time>
      </trkpt>
      <trkpt lat="45.98822" lon="4.81998">
        <ele>238</ele>
        <time>2018-08-26T09:49:07Z</time>
      </trkpt>
      <trkpt lat="45.98821" lon="4.8199">
        <ele>238</ele>
        <time>2018-08-26T09:49:08Z</time>
      </trkpt>
      <trkpt lat="45.98819" lon="4.81981">
        <ele>238</ele>
        <time>2018-08-26T09:49:09Z</time>
      </trkpt>
      <trkpt lat="45.98819" lon="4.81974">
        <ele>239</ele>
        <time>2018-08-26T09:49:10Z</time>
      </trkpt>
      <trkpt lat="45.98817" lon="4.81967">
        <ele>239</ele>
        <time>2018-08-26T09:49:11Z</time>
      </trkpt>
      <trkpt lat="45.98817" lon="4.81959">
        <ele>239</ele>
        <time>2018-08-26T09:49:12Z</time>
      </trkpt>
      <trkpt lat="45.98816" lon="4.81949">
        <ele>239</ele>
        <time>2018-08-26T09:49:13Z</time>
      </trkpt>
      <trkpt lat="45.98816" lon="4.81941">
        <ele>239</ele>
        <time>2018-08-26T09:49:14Z</time>
      </trkpt>
      <trkpt lat="45.98813" lon="4.81929">
        <ele>239</ele>
        <time>2018-08-26T09:49:15Z</time>
      </trkpt>
      <trkpt lat="45.98813" lon="4.81922">
        <ele>239</ele>
        <time>2018-08-26T09:49:16Z</time>
      </trkpt>
      <trkpt lat="45.98811" lon="4.81914">
        <ele>239</ele>
        <time>2018-08-26T09:49:17Z</time>
      </trkpt>
      <trkpt lat="45.98809" lon="4.81905">
        <ele>239</ele>
        <time>2018-08-26T09:49:18Z</time>
      </trkpt>
      <trkpt lat="45.98807" lon="4.81897">
        <ele>239</ele>
        <time>2018-08-26T09:49:19Z</time>
      </trkpt>
      <trkpt lat="45.98806" lon="4.81891">
        <ele>239</ele>
        <time>2018-08-26T09:49:20Z</time>
      </trkpt>
      <trkpt lat="45.98803" lon="4.81884">
        <ele>239</ele>
        <time>2018-08-26T09:49:21Z</time>
      </trkpt>
      <trkpt lat="45.98801" lon="4.81878">
        <ele>239</ele>
        <time>2018-08-26T09:49:22Z</time>
      </trkpt>
      <trkpt lat="45.988" lon="4.81872">
        <ele>239</ele>
        <time>2018-08-26T09:49:23Z</time>
      </trkpt>
      <trkpt lat="45.98798" lon="4.81865">
        <ele>239</ele>
        <time>2018-08-26T09:49:24Z</time>
      </trkpt>
      <trkpt lat="45.98794" lon="4.81855">
        <ele>239</ele>
        <time>2018-08-26T09:49:26Z</time>
      </trkpt>
      <trkpt lat="45.98791" lon="4.8185">
        <ele>239</ele>
        <time>2018-08-26T09:49:27Z</time>
      </trkpt>
      <trkpt lat="45.98788" lon="4.81843">
        <ele>239</ele>
        <time>2018-08-26T09:49:28Z</time>
      </trkpt>
      <trkpt lat="45.98785" lon="4.81837">
        <ele>239</ele>
        <time>2018-08-26T09:49:29Z</time>
      </trkpt>
      <trkpt lat="45.98782" lon="4.81832">
        <ele>240</ele>
        <time>2018-08-26T09:49:30Z</time>
      </trkpt>
      <trkpt lat="45.98778" lon="4.81826">
        <ele>240</ele>
        <time>2018-08-26T09:49:31Z</time>
      </trkpt>
      <trkpt lat="45.98772" lon="4.81819">
        <ele>240</ele>
        <time>2018-08-26T09:49:32Z</time>
      </trkpt>
      <trkpt lat="45.98768" lon="4.81812">
        <ele>240</ele>
        <time>2018-08-26T09:49:33Z</time>
      </trkpt>
      <trkpt lat="45.98766" lon="4.81806">
        <ele>240</ele>
        <time>2018-08-26T09:49:34Z</time>
      </trkpt>
      <trkpt lat="45.98764" lon="4.81799">
        <ele>240</ele>
        <time>2018-08-26T09:49:35Z</time>
      </trkpt>
      <trkpt lat="45.98761" lon="4.81792">
        <ele>241</ele>
        <time>2018-08-26T09:49:36Z</time>
      </trkpt>
      <trkpt lat="45.9876" lon="4.81786">
        <ele>241</ele>
        <time>2018-08-26T09:49:37Z</time>
      </trkpt>
      <trkpt lat="45.98755" lon="4.81777">
        <ele>241</ele>
        <time>2018-08-26T09:49:39Z</time>
      </trkpt>
      <trkpt lat="45.98754" lon="4.81775">
        <ele>241</ele>
        <time>2018-08-26T09:49:40Z</time>
      </trkpt>
      <trkpt lat="45.98754" lon="4.81772">
        <ele>241</ele>
        <time>2018-08-26T09:49:41Z</time>
      </trkpt>
      <trkpt lat="45.9875" lon="4.81762">
        <ele>240</ele>
        <time>2018-08-26T09:49:42Z</time>
      </trkpt>
      <trkpt lat="45.98748" lon="4.81756">
        <ele>241</ele>
        <time>2018-08-26T09:49:43Z</time>
      </trkpt>
      <trkpt lat="45.98745" lon="4.8175">
        <ele>241</ele>
        <time>2018-08-26T09:49:44Z</time>
      </trkpt>
      <trkpt lat="45.98742" lon="4.81745">
        <ele>240</ele>
        <time>2018-08-26T09:49:45Z</time>
      </trkpt>
      <trkpt lat="45.98738" lon="4.81738">
        <ele>240</ele>
        <time>2018-08-26T09:49:46Z</time>
      </trkpt>
      <trkpt lat="45.98734" lon="4.81733">
        <ele>239</ele>
        <time>2018-08-26T09:49:47Z</time>
      </trkpt>
      <trkpt lat="45.9873" lon="4.81728">
        <ele>239</ele>
        <time>2018-08-26T09:49:48Z</time>
      </trkpt>
      <trkpt lat="45.98724" lon="4.81727">
        <ele>239</ele>
        <time>2018-08-26T09:49:49Z</time>
      </trkpt>
      <trkpt lat="45.98718" lon="4.81727">
        <ele>239</ele>
        <time>2018-08-26T09:49:50Z</time>
      </trkpt>
      <trkpt lat="45.9871" lon="4.8173">
        <ele>239</ele>
        <time>2018-08-26T09:49:52Z</time>
      </trkpt>
      <trkpt lat="45.98705" lon="4.81731">
        <ele>239</ele>
        <time>2018-08-26T09:49:53Z</time>
      </trkpt>
      <trkpt lat="45.98697" lon="4.81732">
        <ele>239</ele>
        <time>2018-08-26T09:49:55Z</time>
      </trkpt>
      <trkpt lat="45.98695" lon="4.81732">
        <ele>238</ele>
        <time>2018-08-26T09:49:56Z</time>
      </trkpt>
      <trkpt lat="45.9869" lon="4.81733">
        <ele>238</ele>
        <time>2018-08-26T09:49:57Z</time>
      </trkpt>
      <trkpt lat="45.98686" lon="4.81733">
        <ele>238</ele>
        <time>2018-08-26T09:49:58Z</time>
      </trkpt>
      <trkpt lat="45.98681" lon="4.81734">
        <ele>238</ele>
        <time>2018-08-26T09:49:59Z</time>
      </trkpt>
      <trkpt lat="45.98676" lon="4.81736">
        <ele>238</ele>
        <time>2018-08-26T09:50:00Z</time>
      </trkpt>
      <trkpt lat="45.98671" lon="4.81739">
        <ele>238</ele>
        <time>2018-08-26T09:50:01Z</time>
      </trkpt>
      <trkpt lat="45.98666" lon="4.81741">
        <ele>238</ele>
        <time>2018-08-26T09:50:02Z</time>
      </trkpt>
      <trkpt lat="45.98657" lon="4.81741">
        <ele>237</ele>
        <time>2018-08-26T09:50:03Z</time>
      </trkpt>
      <trkpt lat="45.98651" lon="4.81742">
        <ele>237</ele>
        <time>2018-08-26T09:50:04Z</time>
      </trkpt>
      <trkpt lat="45.98647" lon="4.81746">
        <ele>237</ele>
        <time>2018-08-26T09:50:05Z</time>
      </trkpt>
      <trkpt lat="45.98641" lon="4.81747">
        <ele>237</ele>
        <time>2018-08-26T09:50:06Z</time>
      </trkpt>
      <trkpt lat="45.98635" lon="4.81749">
        <ele>237</ele>
        <time>2018-08-26T09:50:07Z</time>
      </trkpt>
      <trkpt lat="45.9863" lon="4.81749">
        <ele>237</ele>
        <time>2018-08-26T09:50:08Z</time>
      </trkpt>
      <trkpt lat="45.98625" lon="4.81751">
        <ele>238</ele>
        <time>2018-08-26T09:50:09Z</time>
      </trkpt>
      <trkpt lat="45.9862" lon="4.81753">
        <ele>238</ele>
        <time>2018-08-26T09:50:10Z</time>
      </trkpt>
      <trkpt lat="45.98615" lon="4.81754">
        <ele>238</ele>
        <time>2018-08-26T09:50:11Z</time>
      </trkpt>
      <trkpt lat="45.9861" lon="4.81756">
        <ele>238</ele>
        <time>2018-08-26T09:50:12Z</time>
      </trkpt>
      <trkpt lat="45.98606" lon="4.81762">
        <ele>238</ele>
        <time>2018-08-26T09:50:13Z</time>
      </trkpt>
      <trkpt lat="45.98601" lon="4.81765">
        <ele>238</ele>
        <time>2018-08-26T09:50:14Z</time>
      </trkpt>
      <trkpt lat="45.98595" lon="4.81767">
        <ele>238</ele>
        <time>2018-08-26T09:50:15Z</time>
      </trkpt>
      <trkpt lat="45.98591" lon="4.81771">
        <ele>238</ele>
        <time>2018-08-26T09:50:16Z</time>
      </trkpt>
      <trkpt lat="45.98585" lon="4.81775">
        <ele>238</ele>
        <time>2018-08-26T09:50:17Z</time>
      </trkpt>
      <trkpt lat="45.9858" lon="4.81779">
        <ele>238</ele>
        <time>2018-08-26T09:50:18Z</time>
      </trkpt>
      <trkpt lat="45.98575" lon="4.81783">
        <ele>238</ele>
        <time>2018-08-26T09:50:19Z</time>
      </trkpt>
      <trkpt lat="45.98572" lon="4.81791">
        <ele>238</ele>
        <time>2018-08-26T09:50:20Z</time>
      </trkpt>
      <trkpt lat="45.98567" lon="4.81796">
        <ele>238</ele>
        <time>2018-08-26T09:50:21Z</time>
      </trkpt>
      <trkpt lat="45.98561" lon="4.81804">
        <ele>238</ele>
        <time>2018-08-26T09:50:23Z</time>
      </trkpt>
      <trkpt lat="45.98555" lon="4.81805">
        <ele>238</ele>
        <time>2018-08-26T09:50:24Z</time>
      </trkpt>
      <trkpt lat="45.98551" lon="4.81808">
        <ele>238</ele>
        <time>2018-08-26T09:50:25Z</time>
      </trkpt>
      <trkpt lat="45.98546" lon="4.81809">
        <ele>238</ele>
        <time>2018-08-26T09:50:26Z</time>
      </trkpt>
      <trkpt lat="45.98541" lon="4.81805">
        <ele>238</ele>
        <time>2018-08-26T09:50:27Z</time>
      </trkpt>
      <trkpt lat="45.98537" lon="4.818">
        <ele>238</ele>
        <time>2018-08-26T09:50:28Z</time>
      </trkpt>
      <trkpt lat="45.98532" lon="4.81797">
        <ele>238</ele>
        <time>2018-08-26T09:50:29Z</time>
      </trkpt>
      <trkpt lat="45.98528" lon="4.81791">
        <ele>238</ele>
        <time>2018-08-26T09:50:30Z</time>
      </trkpt>
      <trkpt lat="45.98523" lon="4.81785">
        <ele>238</ele>
        <time>2018-08-26T09:50:31Z</time>
      </trkpt>
      <trkpt lat="45.98519" lon="4.81779">
        <ele>238</ele>
        <time>2018-08-26T09:50:32Z</time>
      </trkpt>
      <trkpt lat="45.98513" lon="4.81773">
        <ele>238</ele>
        <time>2018-08-26T09:50:33Z</time>
      </trkpt>
      <trkpt lat="45.98509" lon="4.81769">
        <ele>237</ele>
        <time>2018-08-26T09:50:34Z</time>
      </trkpt>
      <trkpt lat="45.98506" lon="4.81762">
        <ele>237</ele>
        <time>2018-08-26T09:50:35Z</time>
      </trkpt>
      <trkpt lat="45.98502" lon="4.81757">
        <ele>237</ele>
        <time>2018-08-26T09:50:36Z</time>
      </trkpt>
      <trkpt lat="45.98499" lon="4.81753">
        <ele>237</ele>
        <time>2018-08-26T09:50:37Z</time>
      </trkpt>
      <trkpt lat="45.98494" lon="4.81751">
        <ele>238</ele>
        <time>2018-08-26T09:50:38Z</time>
      </trkpt>
      <trkpt lat="45.9849" lon="4.81747">
        <ele>238</ele>
        <time>2018-08-26T09:50:39Z</time>
      </trkpt>
      <trkpt lat="45.98486" lon="4.81743">
        <ele>238</ele>
        <time>2018-08-26T09:50:40Z</time>
      </trkpt>
      <trkpt lat="45.9848" lon="4.81735">
        <ele>238</ele>
        <time>2018-08-26T09:50:42Z</time>
      </trkpt>
      <trkpt lat="45.98477" lon="4.81734">
        <ele>238</ele>
        <time>2018-08-26T09:50:43Z</time>
      </trkpt>
      <trkpt lat="45.98474" lon="4.8173">
        <ele>239</ele>
        <time>2018-08-26T09:50:44Z</time>
      </trkpt>
      <trkpt lat="45.98469" lon="4.81726">
        <ele>239</ele>
        <time>2018-08-26T09:50:45Z</time>
      </trkpt>
      <trkpt lat="45.98463" lon="4.81722">
        <ele>239</ele>
        <time>2018-08-26T09:50:47Z</time>
      </trkpt>
      <trkpt lat="45.9846" lon="4.81719">
        <ele>239</ele>
        <time>2018-08-26T09:50:48Z</time>
      </trkpt>
      <trkpt lat="45.98454" lon="4.81713">
        <ele>239</ele>
        <time>2018-08-26T09:50:51Z</time>
      </trkpt>
      <trkpt lat="45.98451" lon="4.8171">
        <ele>239</ele>
        <time>2018-08-26T09:50:52Z</time>
      </trkpt>
      <trkpt lat="45.98446" lon="4.81702">
        <ele>239</ele>
        <time>2018-08-26T09:50:55Z</time>
      </trkpt>
      <trkpt lat="45.98445" lon="4.81698">
        <ele>239</ele>
        <time>2018-08-26T09:50:56Z</time>
      </trkpt>
      <trkpt lat="45.9844" lon="4.81688">
        <ele>240</ele>
        <time>2018-08-26T09:50:57Z</time>
      </trkpt>
      <trkpt lat="45.98438" lon="4.81684">
        <ele>240</ele>
        <time>2018-08-26T09:50:58Z</time>
      </trkpt>
      <trkpt lat="45.98432" lon="4.81676">
        <ele>240</ele>
        <time>2018-08-26T09:51:00Z</time>
      </trkpt>
      <trkpt lat="45.98429" lon="4.81672">
        <ele>240</ele>
        <time>2018-08-26T09:51:01Z</time>
      </trkpt>
      <trkpt lat="45.98421" lon="4.81669">
        <ele>241</ele>
        <time>2018-08-26T09:51:03Z</time>
      </trkpt>
      <trkpt lat="45.98418" lon="4.81667">
        <ele>241</ele>
        <time>2018-08-26T09:51:04Z</time>
      </trkpt>
      <trkpt lat="45.98411" lon="4.81666">
        <ele>241</ele>
        <time>2018-08-26T09:51:06Z</time>
      </trkpt>
      <trkpt lat="45.98407" lon="4.81667">
        <ele>241</ele>
        <time>2018-08-26T09:51:07Z</time>
      </trkpt>
      <trkpt lat="45.98403" lon="4.81668">
        <ele>242</ele>
        <time>2018-08-26T09:51:08Z</time>
      </trkpt>
      <trkpt lat="45.98397" lon="4.81668">
        <ele>243</ele>
        <time>2018-08-26T09:51:09Z</time>
      </trkpt>
      <trkpt lat="45.9839" lon="4.81671">
        <ele>243</ele>
        <time>2018-08-26T09:51:11Z</time>
      </trkpt>
      <trkpt lat="45.98384" lon="4.81673">
        <ele>243</ele>
        <time>2018-08-26T09:51:12Z</time>
      </trkpt>
      <trkpt lat="45.98378" lon="4.81672">
        <ele>244</ele>
        <time>2018-08-26T09:51:13Z</time>
      </trkpt>
      <trkpt lat="45.98373" lon="4.81675">
        <ele>244</ele>
        <time>2018-08-26T09:51:14Z</time>
      </trkpt>
      <trkpt lat="45.98368" lon="4.81676">
        <ele>244</ele>
        <time>2018-08-26T09:51:15Z</time>
      </trkpt>
      <trkpt lat="45.98363" lon="4.81677">
        <ele>244</ele>
        <time>2018-08-26T09:51:16Z</time>
      </trkpt>
      <trkpt lat="45.98359" lon="4.81677">
        <ele>244</ele>
        <time>2018-08-26T09:51:17Z</time>
      </trkpt>
      <trkpt lat="45.98353" lon="4.81677">
        <ele>245</ele>
        <time>2018-08-26T09:51:18Z</time>
      </trkpt>
      <trkpt lat="45.98344" lon="4.81676">
        <ele>245</ele>
        <time>2018-08-26T09:51:20Z</time>
      </trkpt>
      <trkpt lat="45.9834" lon="4.81674">
        <ele>245</ele>
        <time>2018-08-26T09:51:21Z</time>
      </trkpt>
      <trkpt lat="45.98335" lon="4.81669">
        <ele>246</ele>
        <time>2018-08-26T09:51:22Z</time>
      </trkpt>
      <trkpt lat="45.98331" lon="4.81667">
        <ele>246</ele>
        <time>2018-08-26T09:51:23Z</time>
      </trkpt>
      <trkpt lat="45.98326" lon="4.81665">
        <ele>246</ele>
        <time>2018-08-26T09:51:24Z</time>
      </trkpt>
      <trkpt lat="45.98321" lon="4.81663">
        <ele>246</ele>
        <time>2018-08-26T09:51:25Z</time>
      </trkpt>
      <trkpt lat="45.98318" lon="4.8166">
        <ele>246</ele>
        <time>2018-08-26T09:51:26Z</time>
      </trkpt>
      <trkpt lat="45.98314" lon="4.81655">
        <ele>246</ele>
        <time>2018-08-26T09:51:27Z</time>
      </trkpt>
      <trkpt lat="45.9831" lon="4.81651">
        <ele>246</ele>
        <time>2018-08-26T09:51:28Z</time>
      </trkpt>
      <trkpt lat="45.98303" lon="4.81647">
        <ele>246</ele>
        <time>2018-08-26T09:51:29Z</time>
      </trkpt>
      <trkpt lat="45.98299" lon="4.81644">
        <ele>247</ele>
        <time>2018-08-26T09:51:30Z</time>
      </trkpt>
      <trkpt lat="45.98294" lon="4.81639">
        <ele>247</ele>
        <time>2018-08-26T09:51:31Z</time>
      </trkpt>
      <trkpt lat="45.9829" lon="4.81635">
        <ele>247</ele>
        <time>2018-08-26T09:51:32Z</time>
      </trkpt>
      <trkpt lat="45.98286" lon="4.81631">
        <ele>247</ele>
        <time>2018-08-26T09:51:33Z</time>
      </trkpt>
      <trkpt lat="45.98282" lon="4.81627">
        <ele>247</ele>
        <time>2018-08-26T09:51:34Z</time>
      </trkpt>
      <trkpt lat="45.98278" lon="4.8162">
        <ele>247</ele>
        <time>2018-08-26T09:51:35Z</time>
      </trkpt>
      <trkpt lat="45.98276" lon="4.81614">
        <ele>247</ele>
        <time>2018-08-26T09:51:36Z</time>
      </trkpt>
      <trkpt lat="45.98273" lon="4.81609">
        <ele>247</ele>
        <time>2018-08-26T09:51:37Z</time>
      </trkpt>
      <trkpt lat="45.98269" lon="4.81598">
        <ele>247</ele>
        <time>2018-08-26T09:51:39Z</time>
      </trkpt>
      <trkpt lat="45.98265" lon="4.81592">
        <ele>247</ele>
        <time>2018-08-26T09:51:40Z</time>
      </trkpt>
      <trkpt lat="45.9826" lon="4.81581">
        <ele>247</ele>
        <time>2018-08-26T09:51:42Z</time>
      </trkpt>
      <trkpt lat="45.98259" lon="4.81575">
        <ele>247</ele>
        <time>2018-08-26T09:51:43Z</time>
      </trkpt>
      <trkpt lat="45.98255" lon="4.81571">
        <ele>247</ele>
        <time>2018-08-26T09:51:44Z</time>
      </trkpt>
      <trkpt lat="45.98253" lon="4.81565">
        <ele>247</ele>
        <time>2018-08-26T09:51:45Z</time>
      </trkpt>
      <trkpt lat="45.98251" lon="4.81558">
        <ele>247</ele>
        <time>2018-08-26T09:51:46Z</time>
      </trkpt>
      <trkpt lat="45.98252" lon="4.81551">
        <ele>247</ele>
        <time>2018-08-26T09:51:47Z</time>
      </trkpt>
      <trkpt lat="45.98251" lon="4.81545">
        <ele>247</ele>
        <time>2018-08-26T09:51:48Z</time>
      </trkpt>
      <trkpt lat="45.98248" lon="4.81539">
        <ele>249</ele>
        <time>2018-08-26T09:51:49Z</time>
      </trkpt>
      <trkpt lat="45.98247" lon="4.8153">
        <ele>249</ele>
        <time>2018-08-26T09:51:51Z</time>
      </trkpt>
      <trkpt lat="45.98247" lon="4.81521">
        <ele>249</ele>
        <time>2018-08-26T09:51:52Z</time>
      </trkpt>
      <trkpt lat="45.98244" lon="4.81513">
        <ele>249</ele>
        <time>2018-08-26T09:51:53Z</time>
      </trkpt>
      <trkpt lat="45.98243" lon="4.81507">
        <ele>249</ele>
        <time>2018-08-26T09:51:54Z</time>
      </trkpt>
      <trkpt lat="45.98239" lon="4.81497">
        <ele>249</ele>
        <time>2018-08-26T09:51:56Z</time>
      </trkpt>
      <trkpt lat="45.98237" lon="4.81493">
        <ele>249</ele>
        <time>2018-08-26T09:51:57Z</time>
      </trkpt>
      <trkpt lat="45.98234" lon="4.81483">
        <ele>249</ele>
        <time>2018-08-26T09:51:59Z</time>
      </trkpt>
      <trkpt lat="45.98231" lon="4.81479">
        <ele>249</ele>
        <time>2018-08-26T09:52:00Z</time>
      </trkpt>
      <trkpt lat="45.98229" lon="4.81473">
        <ele>249</ele>
        <time>2018-08-26T09:52:01Z</time>
      </trkpt>
      <trkpt lat="45.98227" lon="4.81467">
        <ele>249</ele>
        <time>2018-08-26T09:52:02Z</time>
      </trkpt>
      <trkpt lat="45.98225" lon="4.81459">
        <ele>249</ele>
        <time>2018-08-26T09:52:03Z</time>
      </trkpt>
      <trkpt lat="45.98224" lon="4.81453">
        <ele>249</ele>
        <time>2018-08-26T09:52:04Z</time>
      </trkpt>
      <trkpt lat="45.98221" lon="4.81447">
        <ele>249</ele>
        <time>2018-08-26T09:52:05Z</time>
      </trkpt>
      <trkpt lat="45.98218" lon="4.8144">
        <ele>249</ele>
        <time>2018-08-26T09:52:06Z</time>
      </trkpt>
      <trkpt lat="45.98216" lon="4.81433">
        <ele>249</ele>
        <time>2018-08-26T09:52:07Z</time>
      </trkpt>
      <trkpt lat="45.98213" lon="4.81427">
        <ele>249</ele>
        <time>2018-08-26T09:52:08Z</time>
      </trkpt>
      <trkpt lat="45.98211" lon="4.81419">
        <ele>249</ele>
        <time>2018-08-26T09:52:09Z</time>
      </trkpt>
      <trkpt lat="45.98209" lon="4.81413">
        <ele>248</ele>
        <time>2018-08-26T09:52:10Z</time>
      </trkpt>
      <trkpt lat="45.98209" lon="4.81408">
        <ele>248</ele>
        <time>2018-08-26T09:52:11Z</time>
      </trkpt>
      <trkpt lat="45.98206" lon="4.814">
        <ele>248</ele>
        <time>2018-08-26T09:52:12Z</time>
      </trkpt>
      <trkpt lat="45.98203" lon="4.81389">
        <ele>248</ele>
        <time>2018-08-26T09:52:14Z</time>
      </trkpt>
      <trkpt lat="45.98201" lon="4.81383">
        <ele>248</ele>
        <time>2018-08-26T09:52:15Z</time>
      </trkpt>
      <trkpt lat="45.982" lon="4.81374">
        <ele>248</ele>
        <time>2018-08-26T09:52:16Z</time>
      </trkpt>
      <trkpt lat="45.98198" lon="4.81366">
        <ele>248</ele>
        <time>2018-08-26T09:52:17Z</time>
      </trkpt>
      <trkpt lat="45.98196" lon="4.81358">
        <ele>248</ele>
        <time>2018-08-26T09:52:18Z</time>
      </trkpt>
      <trkpt lat="45.98194" lon="4.81349">
        <ele>248</ele>
        <time>2018-08-26T09:52:19Z</time>
      </trkpt>
      <trkpt lat="45.98192" lon="4.81341">
        <ele>248</ele>
        <time>2018-08-26T09:52:20Z</time>
      </trkpt>
      <trkpt lat="45.98189" lon="4.81334">
        <ele>248</ele>
        <time>2018-08-26T09:52:21Z</time>
      </trkpt>
      <trkpt lat="45.98188" lon="4.81325">
        <ele>247</ele>
        <time>2018-08-26T09:52:22Z</time>
      </trkpt>
      <trkpt lat="45.98186" lon="4.81316">
        <ele>247</ele>
        <time>2018-08-26T09:52:23Z</time>
      </trkpt>
      <trkpt lat="45.98185" lon="4.81308">
        <ele>247</ele>
        <time>2018-08-26T09:52:24Z</time>
      </trkpt>
      <trkpt lat="45.98182" lon="4.813">
        <ele>247</ele>
        <time>2018-08-26T09:52:25Z</time>
      </trkpt>
      <trkpt lat="45.98181" lon="4.81292">
        <ele>247</ele>
        <time>2018-08-26T09:52:26Z</time>
      </trkpt>
      <trkpt lat="45.98179" lon="4.81284">
        <ele>247</ele>
        <time>2018-08-26T09:52:27Z</time>
      </trkpt>
      <trkpt lat="45.98177" lon="4.81276">
        <ele>247</ele>
        <time>2018-08-26T09:52:28Z</time>
      </trkpt>
      <trkpt lat="45.98175" lon="4.81268">
        <ele>247</ele>
        <time>2018-08-26T09:52:29Z</time>
      </trkpt>
      <trkpt lat="45.98174" lon="4.8126">
        <ele>247</ele>
        <time>2018-08-26T09:52:30Z</time>
      </trkpt>
      <trkpt lat="45.98173" lon="4.81251">
        <ele>248</ele>
        <time>2018-08-26T09:52:31Z</time>
      </trkpt>
      <trkpt lat="45.98172" lon="4.81241">
        <ele>247</ele>
        <time>2018-08-26T09:52:32Z</time>
      </trkpt>
      <trkpt lat="45.9817" lon="4.81232">
        <ele>246</ele>
        <time>2018-08-26T09:52:33Z</time>
      </trkpt>
      <trkpt lat="45.98168" lon="4.81223">
        <ele>246</ele>
        <time>2018-08-26T09:52:34Z</time>
      </trkpt>
      <trkpt lat="45.98168" lon="4.81214">
        <ele>246</ele>
        <time>2018-08-26T09:52:35Z</time>
      </trkpt>
      <trkpt lat="45.98167" lon="4.81206">
        <ele>247</ele>
        <time>2018-08-26T09:52:36Z</time>
      </trkpt>
      <trkpt lat="45.98166" lon="4.812">
        <ele>246</ele>
        <time>2018-08-26T09:52:37Z</time>
      </trkpt>
      <trkpt lat="45.98164" lon="4.81191">
        <ele>246</ele>
        <time>2018-08-26T09:52:38Z</time>
      </trkpt>
      <trkpt lat="45.98162" lon="4.81183">
        <ele>246</ele>
        <time>2018-08-26T09:52:39Z</time>
      </trkpt>
      <trkpt lat="45.98161" lon="4.81174">
        <ele>246</ele>
        <time>2018-08-26T09:52:40Z</time>
      </trkpt>
      <trkpt lat="45.98159" lon="4.81164">
        <ele>245</ele>
        <time>2018-08-26T09:52:41Z</time>
      </trkpt>
      <trkpt lat="45.98158" lon="4.81155">
        <ele>245</ele>
        <time>2018-08-26T09:52:42Z</time>
      </trkpt>
      <trkpt lat="45.98156" lon="4.81147">
        <ele>245</ele>
        <time>2018-08-26T09:52:43Z</time>
      </trkpt>
      <trkpt lat="45.98153" lon="4.81139">
        <ele>245</ele>
        <time>2018-08-26T09:52:44Z</time>
      </trkpt>
      <trkpt lat="45.98152" lon="4.8113">
        <ele>245</ele>
        <time>2018-08-26T09:52:45Z</time>
      </trkpt>
      <trkpt lat="45.9815" lon="4.81122">
        <ele>245</ele>
        <time>2018-08-26T09:52:46Z</time>
      </trkpt>
      <trkpt lat="45.98146" lon="4.81114">
        <ele>245</ele>
        <time>2018-08-26T09:52:47Z</time>
      </trkpt>
      <trkpt lat="45.98142" lon="4.81103">
        <ele>245</ele>
        <time>2018-08-26T09:52:48Z</time>
      </trkpt>
      <trkpt lat="45.9814" lon="4.81095">
        <ele>245</ele>
        <time>2018-08-26T09:52:49Z</time>
      </trkpt>
      <trkpt lat="45.98137" lon="4.81087">
        <ele>245</ele>
        <time>2018-08-26T09:52:50Z</time>
      </trkpt>
      <trkpt lat="45.98134" lon="4.81079">
        <ele>243</ele>
        <time>2018-08-26T09:52:51Z</time>
      </trkpt>
      <trkpt lat="45.9813" lon="4.8107">
        <ele>243</ele>
        <time>2018-08-26T09:52:52Z</time>
      </trkpt>
      <trkpt lat="45.98126" lon="4.81062">
        <ele>243</ele>
        <time>2018-08-26T09:52:53Z</time>
      </trkpt>
      <trkpt lat="45.98123" lon="4.81054">
        <ele>243</ele>
        <time>2018-08-26T09:52:54Z</time>
      </trkpt>
      <trkpt lat="45.9812" lon="4.81048">
        <ele>242</ele>
        <time>2018-08-26T09:52:55Z</time>
      </trkpt>
      <trkpt lat="45.98117" lon="4.8104">
        <ele>242</ele>
        <time>2018-08-26T09:52:56Z</time>
      </trkpt>
      <trkpt lat="45.98115" lon="4.81032">
        <ele>242</ele>
        <time>2018-08-26T09:52:57Z</time>
      </trkpt>
      <trkpt lat="45.98112" lon="4.81025">
        <ele>242</ele>
        <time>2018-08-26T09:52:58Z</time>
      </trkpt>
      <trkpt lat="45.9811" lon="4.8102">
        <ele>242</ele>
        <time>2018-08-26T09:52:59Z</time>
      </trkpt>
      <trkpt lat="45.98108" lon="4.81014">
        <ele>242</ele>
        <time>2018-08-26T09:53:00Z</time>
      </trkpt>
      <trkpt lat="45.98106" lon="4.81007">
        <ele>242</ele>
        <time>2018-08-26T09:53:01Z</time>
      </trkpt>
      <trkpt lat="45.98104" lon="4.81">
        <ele>242</ele>
        <time>2018-08-26T09:53:02Z</time>
      </trkpt>
      <trkpt lat="45.98102" lon="4.80995">
        <ele>240</ele>
        <time>2018-08-26T09:53:03Z</time>
      </trkpt>
      <trkpt lat="45.98098" lon="4.80984">
        <ele>240</ele>
        <time>2018-08-26T09:53:05Z</time>
      </trkpt>
      <trkpt lat="45.98097" lon="4.8098">
        <ele>239</ele>
        <time>2018-08-26T09:53:06Z</time>
      </trkpt>
      <trkpt lat="45.98094" lon="4.80975">
        <ele>239</ele>
        <time>2018-08-26T09:53:07Z</time>
      </trkpt>
      <trkpt lat="45.98092" lon="4.80967">
        <ele>239</ele>
        <time>2018-08-26T09:53:08Z</time>
      </trkpt>
      <trkpt lat="45.9809" lon="4.80959">
        <ele>239</ele>
        <time>2018-08-26T09:53:09Z</time>
      </trkpt>
      <trkpt lat="45.98088" lon="4.8095">
        <ele>238</ele>
        <time>2018-08-26T09:53:10Z</time>
      </trkpt>
      <trkpt lat="45.98086" lon="4.8094">
        <ele>238</ele>
        <time>2018-08-26T09:53:11Z</time>
      </trkpt>
      <trkpt lat="45.98084" lon="4.80929">
        <ele>238</ele>
        <time>2018-08-26T09:53:12Z</time>
      </trkpt>
      <trkpt lat="45.98081" lon="4.80918">
        <ele>239</ele>
        <time>2018-08-26T09:53:13Z</time>
      </trkpt>
      <trkpt lat="45.98078" lon="4.80907">
        <ele>238</ele>
        <time>2018-08-26T09:53:14Z</time>
      </trkpt>
      <trkpt lat="45.98075" lon="4.80896">
        <ele>238</ele>
        <time>2018-08-26T09:53:15Z</time>
      </trkpt>
      <trkpt lat="45.98073" lon="4.80886">
        <ele>237</ele>
        <time>2018-08-26T09:53:16Z</time>
      </trkpt>
      <trkpt lat="45.98071" lon="4.80875">
        <ele>237</ele>
        <time>2018-08-26T09:53:17Z</time>
      </trkpt>
      <trkpt lat="45.98068" lon="4.80865">
        <ele>237</ele>
        <time>2018-08-26T09:53:18Z</time>
      </trkpt>
      <trkpt lat="45.98065" lon="4.80853">
        <ele>236</ele>
        <time>2018-08-26T09:53:19Z</time>
      </trkpt>
      <trkpt lat="45.98061" lon="4.80842">
        <ele>236</ele>
        <time>2018-08-26T09:53:20Z</time>
      </trkpt>
      <trkpt lat="45.98059" lon="4.8083">
        <ele>234</ele>
        <time>2018-08-26T09:53:21Z</time>
      </trkpt>
      <trkpt lat="45.98057" lon="4.80823">
        <ele>234</ele>
        <time>2018-08-26T09:53:22Z</time>
      </trkpt>
      <trkpt lat="45.98053" lon="4.80811">
        <ele>234</ele>
        <time>2018-08-26T09:53:23Z</time>
      </trkpt>
      <trkpt lat="45.98055" lon="4.80806">
        <ele>234</ele>
        <time>2018-08-26T09:53:24Z</time>
      </trkpt>
      <trkpt lat="45.98054" lon="4.80797">
        <ele>233</ele>
        <time>2018-08-26T09:53:25Z</time>
      </trkpt>
      <trkpt lat="45.98052" lon="4.80788">
        <ele>233</ele>
        <time>2018-08-26T09:53:26Z</time>
      </trkpt>
      <trkpt lat="45.98049" lon="4.80779">
        <ele>233</ele>
        <time>2018-08-26T09:53:27Z</time>
      </trkpt>
      <trkpt lat="45.98046" lon="4.8077">
        <ele>233</ele>
        <time>2018-08-26T09:53:28Z</time>
      </trkpt>
      <trkpt lat="45.98044" lon="4.80761">
        <ele>233</ele>
        <time>2018-08-26T09:53:29Z</time>
      </trkpt>
      <trkpt lat="45.98043" lon="4.80753">
        <ele>233</ele>
        <time>2018-08-26T09:53:30Z</time>
      </trkpt>
      <trkpt lat="45.98042" lon="4.80745">
        <ele>231</ele>
        <time>2018-08-26T09:53:31Z</time>
      </trkpt>
      <trkpt lat="45.98041" lon="4.80739">
        <ele>231</ele>
        <time>2018-08-26T09:53:32Z</time>
      </trkpt>
      <trkpt lat="45.98039" lon="4.80732">
        <ele>231</ele>
        <time>2018-08-26T09:53:33Z</time>
      </trkpt>
      <trkpt lat="45.98038" lon="4.80726">
        <ele>231</ele>
        <time>2018-08-26T09:53:34Z</time>
      </trkpt>
      <trkpt lat="45.98037" lon="4.8072">
        <ele>231</ele>
        <time>2018-08-26T09:53:35Z</time>
      </trkpt>
      <trkpt lat="45.98036" lon="4.80708">
        <ele>231</ele>
        <time>2018-08-26T09:53:38Z</time>
      </trkpt>
      <trkpt lat="45.98039" lon="4.80701">
        <ele>230</ele>
        <time>2018-08-26T09:53:39Z</time>
      </trkpt>
      <trkpt lat="45.98047" lon="4.80698">
        <ele>230</ele>
        <time>2018-08-26T09:53:41Z</time>
      </trkpt>
      <trkpt lat="45.98051" lon="4.80697">
        <ele>230</ele>
        <time>2018-08-26T09:53:42Z</time>
      </trkpt>
      <trkpt lat="45.98058" lon="4.80696">
        <ele>230</ele>
        <time>2018-08-26T09:53:43Z</time>
      </trkpt>
      <trkpt lat="45.98063" lon="4.80694">
        <ele>230</ele>
        <time>2018-08-26T09:53:44Z</time>
      </trkpt>
      <trkpt lat="45.9807" lon="4.80695">
        <ele>230</ele>
        <time>2018-08-26T09:53:45Z</time>
      </trkpt>
      <trkpt lat="45.98077" lon="4.80695">
        <ele>230</ele>
        <time>2018-08-26T09:53:46Z</time>
      </trkpt>
      <trkpt lat="45.98084" lon="4.80695">
        <ele>228</ele>
        <time>2018-08-26T09:53:47Z</time>
      </trkpt>
      <trkpt lat="45.98093" lon="4.80696">
        <ele>228</ele>
        <time>2018-08-26T09:53:48Z</time>
      </trkpt>
      <trkpt lat="45.981" lon="4.80696">
        <ele>228</ele>
        <time>2018-08-26T09:53:49Z</time>
      </trkpt>
      <trkpt lat="45.9811" lon="4.80695">
        <ele>228</ele>
        <time>2018-08-26T09:53:50Z</time>
      </trkpt>
      <trkpt lat="45.98117" lon="4.80695">
        <ele>228</ele>
        <time>2018-08-26T09:53:51Z</time>
      </trkpt>
      <trkpt lat="45.98126" lon="4.80693">
        <ele>228</ele>
        <time>2018-08-26T09:53:52Z</time>
      </trkpt>
      <trkpt lat="45.98133" lon="4.80691">
        <ele>228</ele>
        <time>2018-08-26T09:53:53Z</time>
      </trkpt>
      <trkpt lat="45.9814" lon="4.8069">
        <ele>228</ele>
        <time>2018-08-26T09:53:54Z</time>
      </trkpt>
      <trkpt lat="45.98148" lon="4.80691">
        <ele>228</ele>
        <time>2018-08-26T09:53:55Z</time>
      </trkpt>
      <trkpt lat="45.98155" lon="4.8069">
        <ele>227</ele>
        <time>2018-08-26T09:53:56Z</time>
      </trkpt>
      <trkpt lat="45.98162" lon="4.80689">
        <ele>227</ele>
        <time>2018-08-26T09:53:57Z</time>
      </trkpt>
      <trkpt lat="45.9817" lon="4.80688">
        <ele>225</ele>
        <time>2018-08-26T09:53:58Z</time>
      </trkpt>
      <trkpt lat="45.98176" lon="4.80686">
        <ele>225</ele>
        <time>2018-08-26T09:53:59Z</time>
      </trkpt>
      <trkpt lat="45.98183" lon="4.80685">
        <ele>225</ele>
        <time>2018-08-26T09:54:00Z</time>
      </trkpt>
      <trkpt lat="45.9819" lon="4.80684">
        <ele>225</ele>
        <time>2018-08-26T09:54:01Z</time>
      </trkpt>
      <trkpt lat="45.98196" lon="4.80682">
        <ele>225</ele>
        <time>2018-08-26T09:54:02Z</time>
      </trkpt>
      <trkpt lat="45.98202" lon="4.80679">
        <ele>225</ele>
        <time>2018-08-26T09:54:03Z</time>
      </trkpt>
      <trkpt lat="45.98209" lon="4.80675">
        <ele>224</ele>
        <time>2018-08-26T09:54:04Z</time>
      </trkpt>
      <trkpt lat="45.98214" lon="4.8067">
        <ele>224</ele>
        <time>2018-08-26T09:54:05Z</time>
      </trkpt>
      <trkpt lat="45.9822" lon="4.80664">
        <ele>224</ele>
        <time>2018-08-26T09:54:06Z</time>
      </trkpt>
      <trkpt lat="45.98225" lon="4.80657">
        <ele>223</ele>
        <time>2018-08-26T09:54:07Z</time>
      </trkpt>
      <trkpt lat="45.98229" lon="4.80649">
        <ele>223</ele>
        <time>2018-08-26T09:54:08Z</time>
      </trkpt>
      <trkpt lat="45.98232" lon="4.80639">
        <ele>224</ele>
        <time>2018-08-26T09:54:09Z</time>
      </trkpt>
      <trkpt lat="45.98236" lon="4.8063">
        <ele>224</ele>
        <time>2018-08-26T09:54:10Z</time>
      </trkpt>
      <trkpt lat="45.98239" lon="4.80619">
        <ele>224</ele>
        <time>2018-08-26T09:54:11Z</time>
      </trkpt>
      <trkpt lat="45.98242" lon="4.80607">
        <ele>224</ele>
        <time>2018-08-26T09:54:12Z</time>
      </trkpt>
      <trkpt lat="45.98245" lon="4.80598">
        <ele>224</ele>
        <time>2018-08-26T09:54:13Z</time>
      </trkpt>
      <trkpt lat="45.98248" lon="4.80588">
        <ele>224</ele>
        <time>2018-08-26T09:54:14Z</time>
      </trkpt>
      <trkpt lat="45.98251" lon="4.80578">
        <ele>224</ele>
        <time>2018-08-26T09:54:15Z</time>
      </trkpt>
      <trkpt lat="45.98254" lon="4.80568">
        <ele>224</ele>
        <time>2018-08-26T09:54:16Z</time>
      </trkpt>
      <trkpt lat="45.98257" lon="4.80557">
        <ele>224</ele>
        <time>2018-08-26T09:54:17Z</time>
      </trkpt>
      <trkpt lat="45.98259" lon="4.80546">
        <ele>224</ele>
        <time>2018-08-26T09:54:18Z</time>
      </trkpt>
      <trkpt lat="45.98262" lon="4.80538">
        <ele>224</ele>
        <time>2018-08-26T09:54:19Z</time>
      </trkpt>
      <trkpt lat="45.98265" lon="4.80529">
        <ele>224</ele>
        <time>2018-08-26T09:54:20Z</time>
      </trkpt>
      <trkpt lat="45.98268" lon="4.80521">
        <ele>224</ele>
        <time>2018-08-26T09:54:21Z</time>
      </trkpt>
      <trkpt lat="45.98269" lon="4.80513">
        <ele>223</ele>
        <time>2018-08-26T09:54:22Z</time>
      </trkpt>
      <trkpt lat="45.98272" lon="4.80504">
        <ele>223</ele>
        <time>2018-08-26T09:54:23Z</time>
      </trkpt>
      <trkpt lat="45.98274" lon="4.80495">
        <ele>223</ele>
        <time>2018-08-26T09:54:24Z</time>
      </trkpt>
      <trkpt lat="45.98276" lon="4.80487">
        <ele>223</ele>
        <time>2018-08-26T09:54:25Z</time>
      </trkpt>
      <trkpt lat="45.98278" lon="4.80479">
        <ele>223</ele>
        <time>2018-08-26T09:54:26Z</time>
      </trkpt>
      <trkpt lat="45.9828" lon="4.8047">
        <ele>223</ele>
        <time>2018-08-26T09:54:27Z</time>
      </trkpt>
      <trkpt lat="45.98283" lon="4.80461">
        <ele>223</ele>
        <time>2018-08-26T09:54:28Z</time>
      </trkpt>
      <trkpt lat="45.98285" lon="4.80453">
        <ele>224</ele>
        <time>2018-08-26T09:54:29Z</time>
      </trkpt>
      <trkpt lat="45.98286" lon="4.80444">
        <ele>224</ele>
        <time>2018-08-26T09:54:30Z</time>
      </trkpt>
      <trkpt lat="45.98288" lon="4.80438">
        <ele>224</ele>
        <time>2018-08-26T09:54:31Z</time>
      </trkpt>
      <trkpt lat="45.98291" lon="4.80432">
        <ele>224</ele>
        <time>2018-08-26T09:54:32Z</time>
      </trkpt>
      <trkpt lat="45.98291" lon="4.80424">
        <ele>224</ele>
        <time>2018-08-26T09:54:33Z</time>
      </trkpt>
      <trkpt lat="45.98293" lon="4.80417">
        <ele>224</ele>
        <time>2018-08-26T09:54:34Z</time>
      </trkpt>
      <trkpt lat="45.98295" lon="4.8041">
        <ele>224</ele>
        <time>2018-08-26T09:54:35Z</time>
      </trkpt>
      <trkpt lat="45.98296" lon="4.80404">
        <ele>224</ele>
        <time>2018-08-26T09:54:36Z</time>
      </trkpt>
      <trkpt lat="45.98297" lon="4.80396">
        <ele>225</ele>
        <time>2018-08-26T09:54:37Z</time>
      </trkpt>
      <trkpt lat="45.98299" lon="4.8039">
        <ele>225</ele>
        <time>2018-08-26T09:54:38Z</time>
      </trkpt>
      <trkpt lat="45.983" lon="4.80384">
        <ele>225</ele>
        <time>2018-08-26T09:54:39Z</time>
      </trkpt>
      <trkpt lat="45.98303" lon="4.80377">
        <ele>225</ele>
        <time>2018-08-26T09:54:40Z</time>
      </trkpt>
      <trkpt lat="45.98305" lon="4.8037">
        <ele>225</ele>
        <time>2018-08-26T09:54:41Z</time>
      </trkpt>
      <trkpt lat="45.98306" lon="4.80362">
        <ele>225</ele>
        <time>2018-08-26T09:54:42Z</time>
      </trkpt>
      <trkpt lat="45.98308" lon="4.80356">
        <ele>225</ele>
        <time>2018-08-26T09:54:43Z</time>
      </trkpt>
      <trkpt lat="45.98308" lon="4.80348">
        <ele>226</ele>
        <time>2018-08-26T09:54:44Z</time>
      </trkpt>
      <trkpt lat="45.9831" lon="4.80342">
        <ele>226</ele>
        <time>2018-08-26T09:54:45Z</time>
      </trkpt>
      <trkpt lat="45.98311" lon="4.80336">
        <ele>226</ele>
        <time>2018-08-26T09:54:46Z</time>
      </trkpt>
      <trkpt lat="45.98312" lon="4.80329">
        <ele>227</ele>
        <time>2018-08-26T09:54:47Z</time>
      </trkpt>
      <trkpt lat="45.98313" lon="4.80323">
        <ele>227</ele>
        <time>2018-08-26T09:54:48Z</time>
      </trkpt>
      <trkpt lat="45.98316" lon="4.80315">
        <ele>227</ele>
        <time>2018-08-26T09:54:50Z</time>
      </trkpt>
      <trkpt lat="45.98317" lon="4.80308">
        <ele>227</ele>
        <time>2018-08-26T09:54:51Z</time>
      </trkpt>
      <trkpt lat="45.98318" lon="4.80296">
        <ele>226</ele>
        <time>2018-08-26T09:54:53Z</time>
      </trkpt>
      <trkpt lat="45.98319" lon="4.80291">
        <ele>226</ele>
        <time>2018-08-26T09:54:54Z</time>
      </trkpt>
      <trkpt lat="45.98323" lon="4.80282">
        <ele>227</ele>
        <time>2018-08-26T09:54:56Z</time>
      </trkpt>
      <trkpt lat="45.98323" lon="4.80276">
        <ele>227</ele>
        <time>2018-08-26T09:54:57Z</time>
      </trkpt>
      <trkpt lat="45.98324" lon="4.8027">
        <ele>227</ele>
        <time>2018-08-26T09:54:58Z</time>
      </trkpt>
      <trkpt lat="45.98326" lon="4.80263">
        <ele>228</ele>
        <time>2018-08-26T09:54:59Z</time>
      </trkpt>
      <trkpt lat="45.98326" lon="4.80253">
        <ele>229</ele>
        <time>2018-08-26T09:55:01Z</time>
      </trkpt>
      <trkpt lat="45.98327" lon="4.8025">
        <ele>229</ele>
        <time>2018-08-26T09:55:02Z</time>
      </trkpt>
      <trkpt lat="45.98329" lon="4.80242">
        <ele>229</ele>
        <time>2018-08-26T09:55:03Z</time>
      </trkpt>
      <trkpt lat="45.98331" lon="4.80237">
        <ele>228</ele>
        <time>2018-08-26T09:55:04Z</time>
      </trkpt>
      <trkpt lat="45.98332" lon="4.80231">
        <ele>228</ele>
        <time>2018-08-26T09:55:06Z</time>
      </trkpt>
      <trkpt lat="45.98334" lon="4.80222">
        <ele>230</ele>
        <time>2018-08-26T09:55:07Z</time>
      </trkpt>
      <trkpt lat="45.98334" lon="4.80214">
        <ele>230</ele>
        <time>2018-08-26T09:55:09Z</time>
      </trkpt>
      <trkpt lat="45.98333" lon="4.80206">
        <ele>227</ele>
        <time>2018-08-26T09:55:10Z</time>
      </trkpt>
      <trkpt lat="45.98331" lon="4.802">
        <ele>227</ele>
        <time>2018-08-26T09:55:11Z</time>
      </trkpt>
      <trkpt lat="45.98328" lon="4.80194">
        <ele>227</ele>
        <time>2018-08-26T09:55:12Z</time>
      </trkpt>
      <trkpt lat="45.98325" lon="4.80187">
        <ele>227</ele>
        <time>2018-08-26T09:55:13Z</time>
      </trkpt>
      <trkpt lat="45.98322" lon="4.80181">
        <ele>227</ele>
        <time>2018-08-26T09:55:14Z</time>
      </trkpt>
      <trkpt lat="45.98319" lon="4.80176">
        <ele>227</ele>
        <time>2018-08-26T09:55:15Z</time>
      </trkpt>
      <trkpt lat="45.98317" lon="4.8017">
        <ele>227</ele>
        <time>2018-08-26T09:55:16Z</time>
      </trkpt>
      <trkpt lat="45.98312" lon="4.80163">
        <ele>228</ele>
        <time>2018-08-26T09:55:17Z</time>
      </trkpt>
      <trkpt lat="45.9831" lon="4.80159">
        <ele>228</ele>
        <time>2018-08-26T09:55:18Z</time>
      </trkpt>
      <trkpt lat="45.98307" lon="4.80152">
        <ele>228</ele>
        <time>2018-08-26T09:55:19Z</time>
      </trkpt>
      <trkpt lat="45.98305" lon="4.80146">
        <ele>228</ele>
        <time>2018-08-26T09:55:20Z</time>
      </trkpt>
      <trkpt lat="45.98304" lon="4.80139">
        <ele>228</ele>
        <time>2018-08-26T09:55:21Z</time>
      </trkpt>
      <trkpt lat="45.98302" lon="4.80133">
        <ele>228</ele>
        <time>2018-08-26T09:55:22Z</time>
      </trkpt>
      <trkpt lat="45.98298" lon="4.80127">
        <ele>228</ele>
        <time>2018-08-26T09:55:23Z</time>
      </trkpt>
      <trkpt lat="45.98296" lon="4.80121">
        <ele>228</ele>
        <time>2018-08-26T09:55:24Z</time>
      </trkpt>
      <trkpt lat="45.98292" lon="4.80114">
        <ele>228</ele>
        <time>2018-08-26T09:55:25Z</time>
      </trkpt>
      <trkpt lat="45.9829" lon="4.80107">
        <ele>228</ele>
        <time>2018-08-26T09:55:26Z</time>
      </trkpt>
      <trkpt lat="45.98286" lon="4.80099">
        <ele>228</ele>
        <time>2018-08-26T09:55:27Z</time>
      </trkpt>
      <trkpt lat="45.98284" lon="4.80093">
        <ele>228</ele>
        <time>2018-08-26T09:55:28Z</time>
      </trkpt>
      <trkpt lat="45.98281" lon="4.80082">
        <ele>229</ele>
        <time>2018-08-26T09:55:30Z</time>
      </trkpt>
      <trkpt lat="45.9828" lon="4.80077">
        <ele>229</ele>
        <time>2018-08-26T09:55:31Z</time>
      </trkpt>
      <trkpt lat="45.98276" lon="4.80067">
        <ele>229</ele>
        <time>2018-08-26T09:55:33Z</time>
      </trkpt>
      <trkpt lat="45.98273" lon="4.8006">
        <ele>229</ele>
        <time>2018-08-26T09:55:34Z</time>
      </trkpt>
      <trkpt lat="45.9827" lon="4.80049">
        <ele>229</ele>
        <time>2018-08-26T09:55:36Z</time>
      </trkpt>
      <trkpt lat="45.98267" lon="4.80042">
        <ele>229</ele>
        <time>2018-08-26T09:55:37Z</time>
      </trkpt>
      <trkpt lat="45.98266" lon="4.80037">
        <ele>229</ele>
        <time>2018-08-26T09:55:38Z</time>
      </trkpt>
      <trkpt lat="45.98264" lon="4.80029">
        <ele>228</ele>
        <time>2018-08-26T09:55:39Z</time>
      </trkpt>
      <trkpt lat="45.98262" lon="4.80023">
        <ele>228</ele>
        <time>2018-08-26T09:55:40Z</time>
      </trkpt>
      <trkpt lat="45.9826" lon="4.80016">
        <ele>228</ele>
        <time>2018-08-26T09:55:41Z</time>
      </trkpt>
      <trkpt lat="45.98257" lon="4.80008">
        <ele>227</ele>
        <time>2018-08-26T09:55:42Z</time>
      </trkpt>
      <trkpt lat="45.98255" lon="4.80002">
        <ele>227</ele>
        <time>2018-08-26T09:55:43Z</time>
      </trkpt>
      <trkpt lat="45.98252" lon="4.79991">
        <ele>227</ele>
        <time>2018-08-26T09:55:45Z</time>
      </trkpt>
      <trkpt lat="45.9825" lon="4.79985">
        <ele>225</ele>
        <time>2018-08-26T09:55:46Z</time>
      </trkpt>
      <trkpt lat="45.98247" lon="4.79978">
        <ele>225</ele>
        <time>2018-08-26T09:55:47Z</time>
      </trkpt>
      <trkpt lat="45.98245" lon="4.79973">
        <ele>225</ele>
        <time>2018-08-26T09:55:48Z</time>
      </trkpt>
      <trkpt lat="45.98243" lon="4.79967">
        <ele>225</ele>
        <time>2018-08-26T09:55:49Z</time>
      </trkpt>
      <trkpt lat="45.98238" lon="4.7996">
        <ele>225</ele>
        <time>2018-08-26T09:55:50Z</time>
      </trkpt>
      <trkpt lat="45.98235" lon="4.79951">
        <ele>225</ele>
        <time>2018-08-26T09:55:52Z</time>
      </trkpt>
      <trkpt lat="45.98233" lon="4.79945">
        <ele>225</ele>
        <time>2018-08-26T09:55:53Z</time>
      </trkpt>
      <trkpt lat="45.9823" lon="4.79938">
        <ele>225</ele>
        <time>2018-08-26T09:55:54Z</time>
      </trkpt>
      <trkpt lat="45.98228" lon="4.79932">
        <ele>225</ele>
        <time>2018-08-26T09:55:55Z</time>
      </trkpt>
      <trkpt lat="45.98226" lon="4.79927">
        <ele>225</ele>
        <time>2018-08-26T09:55:56Z</time>
      </trkpt>
      <trkpt lat="45.98224" lon="4.7992">
        <ele>225</ele>
        <time>2018-08-26T09:55:57Z</time>
      </trkpt>
      <trkpt lat="45.98221" lon="4.79908">
        <ele>225</ele>
        <time>2018-08-26T09:55:59Z</time>
      </trkpt>
      <trkpt lat="45.9822" lon="4.79903">
        <ele>225</ele>
        <time>2018-08-26T09:56:00Z</time>
      </trkpt>
      <trkpt lat="45.98219" lon="4.79892">
        <ele>225</ele>
        <time>2018-08-26T09:56:02Z</time>
      </trkpt>
      <trkpt lat="45.98215" lon="4.79888">
        <ele>225</ele>
        <time>2018-08-26T09:56:03Z</time>
      </trkpt>
      <trkpt lat="45.98213" lon="4.79878">
        <ele>225</ele>
        <time>2018-08-26T09:56:05Z</time>
      </trkpt>
      <trkpt lat="45.98212" lon="4.79871">
        <ele>225</ele>
        <time>2018-08-26T09:56:06Z</time>
      </trkpt>
      <trkpt lat="45.9821" lon="4.79865">
        <ele>225</ele>
        <time>2018-08-26T09:56:07Z</time>
      </trkpt>
      <trkpt lat="45.98209" lon="4.79857">
        <ele>225</ele>
        <time>2018-08-26T09:56:08Z</time>
      </trkpt>
      <trkpt lat="45.98204" lon="4.79846">
        <ele>225</ele>
        <time>2018-08-26T09:56:10Z</time>
      </trkpt>
      <trkpt lat="45.98203" lon="4.79841">
        <ele>225</ele>
        <time>2018-08-26T09:56:11Z</time>
      </trkpt>
      <trkpt lat="45.98203" lon="4.79832">
        <ele>226</ele>
        <time>2018-08-26T09:56:13Z</time>
      </trkpt>
      <trkpt lat="45.98201" lon="4.79827">
        <ele>226</ele>
        <time>2018-08-26T09:56:14Z</time>
      </trkpt>
      <trkpt lat="45.98197" lon="4.79816">
        <ele>226</ele>
        <time>2018-08-26T09:56:16Z</time>
      </trkpt>
      <trkpt lat="45.98196" lon="4.79814">
        <ele>226</ele>
        <time>2018-08-26T09:56:17Z</time>
      </trkpt>
      <trkpt lat="45.98193" lon="4.79805">
        <ele>226</ele>
        <time>2018-08-26T09:56:20Z</time>
      </trkpt>
      <trkpt lat="45.98192" lon="4.79801">
        <ele>226</ele>
        <time>2018-08-26T09:56:21Z</time>
      </trkpt>
      <trkpt lat="45.9819" lon="4.79792">
        <ele>226</ele>
        <time>2018-08-26T09:56:23Z</time>
      </trkpt>
      <trkpt lat="45.98189" lon="4.79788">
        <ele>226</ele>
        <time>2018-08-26T09:56:24Z</time>
      </trkpt>
      <trkpt lat="45.98189" lon="4.79775">
        <ele>226</ele>
        <time>2018-08-26T09:56:27Z</time>
      </trkpt>
      <trkpt lat="45.9819" lon="4.79771">
        <ele>226</ele>
        <time>2018-08-26T09:56:28Z</time>
      </trkpt>
      <trkpt lat="45.98195" lon="4.79761">
        <ele>226</ele>
        <time>2018-08-26T09:56:31Z</time>
      </trkpt>
      <trkpt lat="45.98197" lon="4.79759">
        <ele>226</ele>
        <time>2018-08-26T09:56:32Z</time>
      </trkpt>
      <trkpt lat="45.98205" lon="4.79754">
        <ele>226</ele>
        <time>2018-08-26T09:56:35Z</time>
      </trkpt>
      <trkpt lat="45.98208" lon="4.79754">
        <ele>226</ele>
        <time>2018-08-26T09:56:36Z</time>
      </trkpt>
      <trkpt lat="45.98217" lon="4.79752">
        <ele>227</ele>
        <time>2018-08-26T09:56:39Z</time>
      </trkpt>
      <trkpt lat="45.9822" lon="4.79752">
        <ele>227</ele>
        <time>2018-08-26T09:56:40Z</time>
      </trkpt>
      <trkpt lat="45.98226" lon="4.79751">
        <ele>227</ele>
        <time>2018-08-26T09:56:42Z</time>
      </trkpt>
      <trkpt lat="45.98229" lon="4.79751">
        <ele>227</ele>
        <time>2018-08-26T09:56:43Z</time>
      </trkpt>
      <trkpt lat="45.98236" lon="4.7975">
        <ele>227</ele>
        <time>2018-08-26T09:56:45Z</time>
      </trkpt>
      <trkpt lat="45.98239" lon="4.7975">
        <ele>228</ele>
        <time>2018-08-26T09:56:46Z</time>
      </trkpt>
      <trkpt lat="45.98245" lon="4.79749">
        <ele>228</ele>
        <time>2018-08-26T09:56:48Z</time>
      </trkpt>
      <trkpt lat="45.98248" lon="4.79748">
        <ele>228</ele>
        <time>2018-08-26T09:56:49Z</time>
      </trkpt>
      <trkpt lat="45.98254" lon="4.79747">
        <ele>229</ele>
        <time>2018-08-26T09:56:51Z</time>
      </trkpt>
      <trkpt lat="45.98257" lon="4.79746">
        <ele>230</ele>
        <time>2018-08-26T09:56:52Z</time>
      </trkpt>
      <trkpt lat="45.98266" lon="4.79744">
        <ele>232</ele>
        <time>2018-08-26T09:56:55Z</time>
      </trkpt>
      <trkpt lat="45.98269" lon="4.79743">
        <ele>232</ele>
        <time>2018-08-26T09:56:56Z</time>
      </trkpt>
      <trkpt lat="45.98275" lon="4.79742">
        <ele>233</ele>
        <time>2018-08-26T09:56:58Z</time>
      </trkpt>
      <trkpt lat="45.98278" lon="4.79741">
        <ele>233</ele>
        <time>2018-08-26T09:56:59Z</time>
      </trkpt>
      <trkpt lat="45.98286" lon="4.7974">
        <ele>234</ele>
        <time>2018-08-26T09:57:02Z</time>
      </trkpt>
      <trkpt lat="45.98289" lon="4.79739">
        <ele>234</ele>
        <time>2018-08-26T09:57:03Z</time>
      </trkpt>
      <trkpt lat="45.98298" lon="4.79739">
        <ele>235</ele>
        <time>2018-08-26T09:57:06Z</time>
      </trkpt>
      <trkpt lat="45.98301" lon="4.79738">
        <ele>235</ele>
        <time>2018-08-26T09:57:07Z</time>
      </trkpt>
      <trkpt lat="45.98307" lon="4.79737">
        <ele>235</ele>
        <time>2018-08-26T09:57:09Z</time>
      </trkpt>
      <trkpt lat="45.9831" lon="4.79736">
        <ele>236</ele>
        <time>2018-08-26T09:57:10Z</time>
      </trkpt>
      <trkpt lat="45.98318" lon="4.79733">
        <ele>236</ele>
        <time>2018-08-26T09:57:13Z</time>
      </trkpt>
      <trkpt lat="45.98321" lon="4.79731">
        <ele>236</ele>
        <time>2018-08-26T09:57:14Z</time>
      </trkpt>
      <trkpt lat="45.98327" lon="4.79729">
        <ele>236</ele>
        <time>2018-08-26T09:57:16Z</time>
      </trkpt>
      <trkpt lat="45.9833" lon="4.79728">
        <ele>236</ele>
        <time>2018-08-26T09:57:17Z</time>
      </trkpt>
      <trkpt lat="45.98339" lon="4.79727">
        <ele>240</ele>
        <time>2018-08-26T09:57:20Z</time>
      </trkpt>
      <trkpt lat="45.98342" lon="4.79726">
        <ele>240</ele>
        <time>2018-08-26T09:57:21Z</time>
      </trkpt>
      <trkpt lat="45.9835" lon="4.79724">
        <ele>240</ele>
        <time>2018-08-26T09:57:24Z</time>
      </trkpt>
      <trkpt lat="45.98352" lon="4.79724">
        <ele>240</ele>
        <time>2018-08-26T09:57:25Z</time>
      </trkpt>
      <trkpt lat="45.9836" lon="4.79722">
        <ele>240</ele>
        <time>2018-08-26T09:57:28Z</time>
      </trkpt>
      <trkpt lat="45.98363" lon="4.79721">
        <ele>240</ele>
        <time>2018-08-26T09:57:29Z</time>
      </trkpt>
      <trkpt lat="45.9837" lon="4.79721">
        <ele>241</ele>
        <time>2018-08-26T09:57:32Z</time>
      </trkpt>
      <trkpt lat="45.98373" lon="4.79721">
        <ele>241</ele>
        <time>2018-08-26T09:57:33Z</time>
      </trkpt>
      <trkpt lat="45.98381" lon="4.7972">
        <ele>241</ele>
        <time>2018-08-26T09:57:36Z</time>
      </trkpt>
      <trkpt lat="45.98384" lon="4.79719">
        <ele>241</ele>
        <time>2018-08-26T09:57:37Z</time>
      </trkpt>
      <trkpt lat="45.9839" lon="4.79718">
        <ele>241</ele>
        <time>2018-08-26T09:57:39Z</time>
      </trkpt>
      <trkpt lat="45.98393" lon="4.79717">
        <ele>241</ele>
        <time>2018-08-26T09:57:40Z</time>
      </trkpt>
      <trkpt lat="45.98401" lon="4.79717">
        <ele>241</ele>
        <time>2018-08-26T09:57:43Z</time>
      </trkpt>
      <trkpt lat="45.98404" lon="4.79716">
        <ele>241</ele>
        <time>2018-08-26T09:57:44Z</time>
      </trkpt>
      <trkpt lat="45.98413" lon="4.79716">
        <ele>241</ele>
        <time>2018-08-26T09:57:47Z</time>
      </trkpt>
      <trkpt lat="45.98416" lon="4.79716">
        <ele>241</ele>
        <time>2018-08-26T09:57:48Z</time>
      </trkpt>
      <trkpt lat="45.98424" lon="4.79715">
        <ele>242</ele>
        <time>2018-08-26T09:57:51Z</time>
      </trkpt>
      <trkpt lat="45.98427" lon="4.79716">
        <ele>242</ele>
        <time>2018-08-26T09:57:52Z</time>
      </trkpt>
      <trkpt lat="45.98434" lon="4.79716">
        <ele>242</ele>
        <time>2018-08-26T09:57:55Z</time>
      </trkpt>
      <trkpt lat="45.98437" lon="4.79716">
        <ele>242</ele>
        <time>2018-08-26T09:57:56Z</time>
      </trkpt>
      <trkpt lat="45.98444" lon="4.79716">
        <ele>243</ele>
        <time>2018-08-26T09:57:59Z</time>
      </trkpt>
      <trkpt lat="45.98447" lon="4.79716">
        <ele>243</ele>
        <time>2018-08-26T09:58:00Z</time>
      </trkpt>
      <trkpt lat="45.98455" lon="4.79715">
        <ele>243</ele>
        <time>2018-08-26T09:58:03Z</time>
      </trkpt>
      <trkpt lat="45.98458" lon="4.79714">
        <ele>243</ele>
        <time>2018-08-26T09:58:04Z</time>
      </trkpt>
      <trkpt lat="45.98466" lon="4.79714">
        <ele>243</ele>
        <time>2018-08-26T09:58:07Z</time>
      </trkpt>
      <trkpt lat="45.98469" lon="4.79715">
        <ele>243</ele>
        <time>2018-08-26T09:58:08Z</time>
      </trkpt>
      <trkpt lat="45.98476" lon="4.79715">
        <ele>243</ele>
        <time>2018-08-26T09:58:11Z</time>
      </trkpt>
      <trkpt lat="45.98479" lon="4.79715">
        <ele>243</ele>
        <time>2018-08-26T09:58:12Z</time>
      </trkpt>
      <trkpt lat="45.98486" lon="4.79716">
        <ele>243</ele>
        <time>2018-08-26T09:58:15Z</time>
      </trkpt>
      <trkpt lat="45.98489" lon="4.79716">
        <ele>243</ele>
        <time>2018-08-26T09:58:16Z</time>
      </trkpt>
      <trkpt lat="45.98496" lon="4.79717">
        <ele>243</ele>
        <time>2018-08-26T09:58:19Z</time>
      </trkpt>
      <trkpt lat="45.98499" lon="4.79717">
        <ele>243</ele>
        <time>2018-08-26T09:58:20Z</time>
      </trkpt>
      <trkpt lat="45.98508" lon="4.79718">
        <ele>244</ele>
        <time>2018-08-26T09:58:24Z</time>
      </trkpt>
      <trkpt lat="45.9851" lon="4.79719">
        <ele>244</ele>
        <time>2018-08-26T09:58:25Z</time>
      </trkpt>
      <trkpt lat="45.98518" lon="4.79719">
        <ele>244</ele>
        <time>2018-08-26T09:58:28Z</time>
      </trkpt>
      <trkpt lat="45.98521" lon="4.79719">
        <ele>244</ele>
        <time>2018-08-26T09:58:29Z</time>
      </trkpt>
      <trkpt lat="45.9853" lon="4.79717">
        <ele>244</ele>
        <time>2018-08-26T09:58:32Z</time>
      </trkpt>
      <trkpt lat="45.98533" lon="4.79716">
        <ele>244</ele>
        <time>2018-08-26T09:58:33Z</time>
      </trkpt>
      <trkpt lat="45.98538" lon="4.79712">
        <ele>244</ele>
        <time>2018-08-26T09:58:35Z</time>
      </trkpt>
      <trkpt lat="45.98541" lon="4.7971">
        <ele>244</ele>
        <time>2018-08-26T09:58:36Z</time>
      </trkpt>
      <trkpt lat="45.98547" lon="4.79706">
        <ele>244</ele>
        <time>2018-08-26T09:58:38Z</time>
      </trkpt>
      <trkpt lat="45.98549" lon="4.79703">
        <ele>244</ele>
        <time>2018-08-26T09:58:39Z</time>
      </trkpt>
      <trkpt lat="45.98557" lon="4.79697">
        <ele>244</ele>
        <time>2018-08-26T09:58:42Z</time>
      </trkpt>
      <trkpt lat="45.98559" lon="4.79695">
        <ele>244</ele>
        <time>2018-08-26T09:58:43Z</time>
      </trkpt>
      <trkpt lat="45.98564" lon="4.79691">
        <ele>244</ele>
        <time>2018-08-26T09:58:45Z</time>
      </trkpt>
      <trkpt lat="45.98567" lon="4.79688">
        <ele>244</ele>
        <time>2018-08-26T09:58:46Z</time>
      </trkpt>
      <trkpt lat="45.98572" lon="4.79682">
        <ele>244</ele>
        <time>2018-08-26T09:58:48Z</time>
      </trkpt>
      <trkpt lat="45.98574" lon="4.79679">
        <ele>245</ele>
        <time>2018-08-26T09:58:49Z</time>
      </trkpt>
      <trkpt lat="45.98578" lon="4.79672">
        <ele>245</ele>
        <time>2018-08-26T09:58:51Z</time>
      </trkpt>
      <trkpt lat="45.9858" lon="4.79669">
        <ele>245</ele>
        <time>2018-08-26T09:58:52Z</time>
      </trkpt>
      <trkpt lat="45.98585" lon="4.79659">
        <ele>245</ele>
        <time>2018-08-26T09:58:55Z</time>
      </trkpt>
      <trkpt lat="45.98586" lon="4.79656">
        <ele>245</ele>
        <time>2018-08-26T09:58:56Z</time>
      </trkpt>
      <trkpt lat="45.98592" lon="4.79646">
        <ele>245</ele>
        <time>2018-08-26T09:58:59Z</time>
      </trkpt>
      <trkpt lat="45.98594" lon="4.79643">
        <ele>245</ele>
        <time>2018-08-26T09:59:00Z</time>
      </trkpt>
      <trkpt lat="45.98599" lon="4.79638">
        <ele>245</ele>
        <time>2018-08-26T09:59:02Z</time>
      </trkpt>
      <trkpt lat="45.98602" lon="4.79635">
        <ele>245</ele>
        <time>2018-08-26T09:59:03Z</time>
      </trkpt>
      <trkpt lat="45.98607" lon="4.79631">
        <ele>245</ele>
        <time>2018-08-26T09:59:05Z</time>
      </trkpt>
      <trkpt lat="45.9861" lon="4.79629">
        <ele>245</ele>
        <time>2018-08-26T09:59:06Z</time>
      </trkpt>
      <trkpt lat="45.98619" lon="4.79623">
        <ele>245</ele>
        <time>2018-08-26T09:59:07Z</time>
      </trkpt>
      <trkpt lat="45.98625" lon="4.79616">
        <ele>245</ele>
        <time>2018-08-26T09:59:09Z</time>
      </trkpt>
      <trkpt lat="45.98627" lon="4.79611">
        <ele>245</ele>
        <time>2018-08-26T09:59:10Z</time>
      </trkpt>
      <trkpt lat="45.98627" lon="4.79599">
        <ele>245</ele>
        <time>2018-08-26T09:59:12Z</time>
      </trkpt>
      <trkpt lat="45.98626" lon="4.79595">
        <ele>245</ele>
        <time>2018-08-26T09:59:13Z</time>
      </trkpt>
      <trkpt lat="45.98621" lon="4.79585">
        <ele>245</ele>
        <time>2018-08-26T09:59:15Z</time>
      </trkpt>
      <trkpt lat="45.98616" lon="4.79582">
        <ele>245</ele>
        <time>2018-08-26T09:59:16Z</time>
      </trkpt>
      <trkpt lat="45.98612" lon="4.7958">
        <ele>245</ele>
        <time>2018-08-26T09:59:17Z</time>
      </trkpt>
      <trkpt lat="45.98607" lon="4.79579">
        <ele>245</ele>
        <time>2018-08-26T09:59:18Z</time>
      </trkpt>
      <trkpt lat="45.98602" lon="4.79579">
        <ele>245</ele>
        <time>2018-08-26T09:59:19Z</time>
      </trkpt>
      <trkpt lat="45.98598" lon="4.79582">
        <ele>245</ele>
        <time>2018-08-26T09:59:20Z</time>
      </trkpt>
      <trkpt lat="45.98592" lon="4.79584">
        <ele>245</ele>
        <time>2018-08-26T09:59:21Z</time>
      </trkpt>
      <trkpt lat="45.98588" lon="4.79583">
        <ele>245</ele>
        <time>2018-08-26T09:59:22Z</time>
      </trkpt>
      <trkpt lat="45.98582" lon="4.7958">
        <ele>245</ele>
        <time>2018-08-26T09:59:23Z</time>
      </trkpt>
      <trkpt lat="45.98577" lon="4.79578">
        <ele>245</ele>
        <time>2018-08-26T09:59:24Z</time>
      </trkpt>
      <trkpt lat="45.98572" lon="4.79574">
        <ele>245</ele>
        <time>2018-08-26T09:59:25Z</time>
      </trkpt>
      <trkpt lat="45.98568" lon="4.79572">
        <ele>244</ele>
        <time>2018-08-26T09:59:26Z</time>
      </trkpt>
      <trkpt lat="45.98563" lon="4.79568">
        <ele>244</ele>
        <time>2018-08-26T09:59:27Z</time>
      </trkpt>
      <trkpt lat="45.9856" lon="4.79564">
        <ele>244</ele>
        <time>2018-08-26T09:59:28Z</time>
      </trkpt>
      <trkpt lat="45.98555" lon="4.79559">
        <ele>244</ele>
        <time>2018-08-26T09:59:29Z</time>
      </trkpt>
      <trkpt lat="45.9855" lon="4.79554">
        <ele>244</ele>
        <time>2018-08-26T09:59:30Z</time>
      </trkpt>
      <trkpt lat="45.98546" lon="4.79548">
        <ele>244</ele>
        <time>2018-08-26T09:59:31Z</time>
      </trkpt>
      <trkpt lat="45.98542" lon="4.79543">
        <ele>244</ele>
        <time>2018-08-26T09:59:32Z</time>
      </trkpt>
      <trkpt lat="45.98539" lon="4.79536">
        <ele>244</ele>
        <time>2018-08-26T09:59:33Z</time>
      </trkpt>
      <trkpt lat="45.98535" lon="4.7953">
        <ele>244</ele>
        <time>2018-08-26T09:59:34Z</time>
      </trkpt>
      <trkpt lat="45.98532" lon="4.79521">
        <ele>244</ele>
        <time>2018-08-26T09:59:35Z</time>
      </trkpt>
      <trkpt lat="45.9853" lon="4.79513">
        <ele>244</ele>
        <time>2018-08-26T09:59:36Z</time>
      </trkpt>
      <trkpt lat="45.98528" lon="4.79507">
        <ele>244</ele>
        <time>2018-08-26T09:59:37Z</time>
      </trkpt>
      <trkpt lat="45.9853" lon="4.795">
        <ele>244</ele>
        <time>2018-08-26T09:59:38Z</time>
      </trkpt>
      <trkpt lat="45.98532" lon="4.79491">
        <ele>244</ele>
        <time>2018-08-26T09:59:39Z</time>
      </trkpt>
      <trkpt lat="45.98532" lon="4.79484">
        <ele>244</ele>
        <time>2018-08-26T09:59:40Z</time>
      </trkpt>
      <trkpt lat="45.9853" lon="4.79477">
        <ele>244</ele>
        <time>2018-08-26T09:59:41Z</time>
      </trkpt>
      <trkpt lat="45.98529" lon="4.7947">
        <ele>244</ele>
        <time>2018-08-26T09:59:42Z</time>
      </trkpt>
      <trkpt lat="45.98528" lon="4.79461">
        <ele>244</ele>
        <time>2018-08-26T09:59:43Z</time>
      </trkpt>
      <trkpt lat="45.9853" lon="4.79453">
        <ele>244</ele>
        <time>2018-08-26T09:59:44Z</time>
      </trkpt>
      <trkpt lat="45.9853" lon="4.79445">
        <ele>244</ele>
        <time>2018-08-26T09:59:45Z</time>
      </trkpt>
      <trkpt lat="45.9853" lon="4.79437">
        <ele>244</ele>
        <time>2018-08-26T09:59:46Z</time>
      </trkpt>
      <trkpt lat="45.9853" lon="4.79428">
        <ele>244</ele>
        <time>2018-08-26T09:59:47Z</time>
      </trkpt>
      <trkpt lat="45.98528" lon="4.79418">
        <ele>244</ele>
        <time>2018-08-26T09:59:48Z</time>
      </trkpt>
      <trkpt lat="45.98527" lon="4.7941">
        <ele>244</ele>
        <time>2018-08-26T09:59:49Z</time>
      </trkpt>
      <trkpt lat="45.98526" lon="4.79401">
        <ele>244</ele>
        <time>2018-08-26T09:59:50Z</time>
      </trkpt>
      <trkpt lat="45.98525" lon="4.79394">
        <ele>244</ele>
        <time>2018-08-26T09:59:51Z</time>
      </trkpt>
      <trkpt lat="45.98523" lon="4.79386">
        <ele>244</ele>
        <time>2018-08-26T09:59:52Z</time>
      </trkpt>
      <trkpt lat="45.98521" lon="4.79377">
        <ele>244</ele>
        <time>2018-08-26T09:59:53Z</time>
      </trkpt>
      <trkpt lat="45.9852" lon="4.79369">
        <ele>243</ele>
        <time>2018-08-26T09:59:54Z</time>
      </trkpt>
      <trkpt lat="45.98519" lon="4.79363">
        <ele>243</ele>
        <time>2018-08-26T09:59:55Z</time>
      </trkpt>
      <trkpt lat="45.98517" lon="4.79355">
        <ele>243</ele>
        <time>2018-08-26T09:59:56Z</time>
      </trkpt>
      <trkpt lat="45.98516" lon="4.79347">
        <ele>243</ele>
        <time>2018-08-26T09:59:57Z</time>
      </trkpt>
      <trkpt lat="45.98514" lon="4.7934">
        <ele>243</ele>
        <time>2018-08-26T09:59:58Z</time>
      </trkpt>
      <trkpt lat="45.98512" lon="4.79335">
        <ele>243</ele>
        <time>2018-08-26T09:59:59Z</time>
      </trkpt>
      <trkpt lat="45.9851" lon="4.79328">
        <ele>243</ele>
        <time>2018-08-26T10:00:00Z</time>
      </trkpt>
      <trkpt lat="45.98507" lon="4.7932">
        <ele>243</ele>
        <time>2018-08-26T10:00:01Z</time>
      </trkpt>
      <trkpt lat="45.98505" lon="4.79313">
        <ele>243</ele>
        <time>2018-08-26T10:00:02Z</time>
      </trkpt>
      <trkpt lat="45.98503" lon="4.79307">
        <ele>243</ele>
        <time>2018-08-26T10:00:03Z</time>
      </trkpt>
      <trkpt lat="45.985" lon="4.79301">
        <ele>243</ele>
        <time>2018-08-26T10:00:04Z</time>
      </trkpt>
      <trkpt lat="45.98498" lon="4.79294">
        <ele>243</ele>
        <time>2018-08-26T10:00:05Z</time>
      </trkpt>
      <trkpt lat="45.98496" lon="4.79288">
        <ele>243</ele>
        <time>2018-08-26T10:00:06Z</time>
      </trkpt>
      <trkpt lat="45.98493" lon="4.79281">
        <ele>243</ele>
        <time>2018-08-26T10:00:07Z</time>
      </trkpt>
      <trkpt lat="45.98489" lon="4.79274">
        <ele>243</ele>
        <time>2018-08-26T10:00:08Z</time>
      </trkpt>
      <trkpt lat="45.98487" lon="4.79267">
        <ele>243</ele>
        <time>2018-08-26T10:00:09Z</time>
      </trkpt>
      <trkpt lat="45.98483" lon="4.79261">
        <ele>243</ele>
        <time>2018-08-26T10:00:10Z</time>
      </trkpt>
      <trkpt lat="45.98478" lon="4.79255">
        <ele>243</ele>
        <time>2018-08-26T10:00:11Z</time>
      </trkpt>
      <trkpt lat="45.98474" lon="4.79247">
        <ele>243</ele>
        <time>2018-08-26T10:00:12Z</time>
      </trkpt>
      <trkpt lat="45.9847" lon="4.7924">
        <ele>243</ele>
        <time>2018-08-26T10:00:13Z</time>
      </trkpt>
      <trkpt lat="45.98467" lon="4.79233">
        <ele>243</ele>
        <time>2018-08-26T10:00:14Z</time>
      </trkpt>
      <trkpt lat="45.98463" lon="4.79227">
        <ele>243</ele>
        <time>2018-08-26T10:00:15Z</time>
      </trkpt>
      <trkpt lat="45.9846" lon="4.7922">
        <ele>243</ele>
        <time>2018-08-26T10:00:16Z</time>
      </trkpt>
      <trkpt lat="45.98456" lon="4.79213">
        <ele>243</ele>
        <time>2018-08-26T10:00:17Z</time>
      </trkpt>
      <trkpt lat="45.98452" lon="4.79206">
        <ele>242</ele>
        <time>2018-08-26T10:00:18Z</time>
      </trkpt>
      <trkpt lat="45.98448" lon="4.79202">
        <ele>242</ele>
        <time>2018-08-26T10:00:19Z</time>
      </trkpt>
      <trkpt lat="45.98445" lon="4.79196">
        <ele>242</ele>
        <time>2018-08-26T10:00:20Z</time>
      </trkpt>
      <trkpt lat="45.9844" lon="4.7919">
        <ele>242</ele>
        <time>2018-08-26T10:00:21Z</time>
      </trkpt>
      <trkpt lat="45.98435" lon="4.79182">
        <ele>242</ele>
        <time>2018-08-26T10:00:22Z</time>
      </trkpt>
      <trkpt lat="45.98431" lon="4.79174">
        <ele>242</ele>
        <time>2018-08-26T10:00:23Z</time>
      </trkpt>
      <trkpt lat="45.98427" lon="4.79166">
        <ele>242</ele>
        <time>2018-08-26T10:00:24Z</time>
      </trkpt>
      <trkpt lat="45.98423" lon="4.7916">
        <ele>242</ele>
        <time>2018-08-26T10:00:25Z</time>
      </trkpt>
      <trkpt lat="45.9842" lon="4.79153">
        <ele>242</ele>
        <time>2018-08-26T10:00:26Z</time>
      </trkpt>
      <trkpt lat="45.98416" lon="4.79145">
        <ele>242</ele>
        <time>2018-08-26T10:00:27Z</time>
      </trkpt>
      <trkpt lat="45.98412" lon="4.79137">
        <ele>242</ele>
        <time>2018-08-26T10:00:28Z</time>
      </trkpt>
      <trkpt lat="45.98409" lon="4.7913">
        <ele>242</ele>
        <time>2018-08-26T10:00:29Z</time>
      </trkpt>
      <trkpt lat="45.98406" lon="4.79122">
        <ele>242</ele>
        <time>2018-08-26T10:00:30Z</time>
      </trkpt>
      <trkpt lat="45.98402" lon="4.79116">
        <ele>242</ele>
        <time>2018-08-26T10:00:31Z</time>
      </trkpt>
      <trkpt lat="45.98398" lon="4.79109">
        <ele>242</ele>
        <time>2018-08-26T10:00:32Z</time>
      </trkpt>
      <trkpt lat="45.98394" lon="4.79103">
        <ele>242</ele>
        <time>2018-08-26T10:00:33Z</time>
      </trkpt>
      <trkpt lat="45.98391" lon="4.79098">
        <ele>242</ele>
        <time>2018-08-26T10:00:34Z</time>
      </trkpt>
      <trkpt lat="45.98389" lon="4.79092">
        <ele>242</ele>
        <time>2018-08-26T10:00:35Z</time>
      </trkpt>
      <trkpt lat="45.98386" lon="4.79085">
        <ele>242</ele>
        <time>2018-08-26T10:00:36Z</time>
      </trkpt>
      <trkpt lat="45.98382" lon="4.79079">
        <ele>242</ele>
        <time>2018-08-26T10:00:37Z</time>
      </trkpt>
      <trkpt lat="45.98378" lon="4.79071">
        <ele>242</ele>
        <time>2018-08-26T10:00:38Z</time>
      </trkpt>
      <trkpt lat="45.98374" lon="4.79063">
        <ele>242</ele>
        <time>2018-08-26T10:00:39Z</time>
      </trkpt>
      <trkpt lat="45.98369" lon="4.79054">
        <ele>242</ele>
        <time>2018-08-26T10:00:40Z</time>
      </trkpt>
      <trkpt lat="45.98364" lon="4.79046">
        <ele>242</ele>
        <time>2018-08-26T10:00:41Z</time>
      </trkpt>
      <trkpt lat="45.9836" lon="4.79038">
        <ele>242</ele>
        <time>2018-08-26T10:00:42Z</time>
      </trkpt>
      <trkpt lat="45.98356" lon="4.79031">
        <ele>242</ele>
        <time>2018-08-26T10:00:43Z</time>
      </trkpt>
      <trkpt lat="45.98349" lon="4.79023">
        <ele>242</ele>
        <time>2018-08-26T10:00:44Z</time>
      </trkpt>
      <trkpt lat="45.98343" lon="4.79018">
        <ele>242</ele>
        <time>2018-08-26T10:00:45Z</time>
      </trkpt>
      <trkpt lat="45.98337" lon="4.79014">
        <ele>242</ele>
        <time>2018-08-26T10:00:46Z</time>
      </trkpt>
      <trkpt lat="45.98332" lon="4.79012">
        <ele>242</ele>
        <time>2018-08-26T10:00:47Z</time>
      </trkpt>
      <trkpt lat="45.98327" lon="4.79009">
        <ele>242</ele>
        <time>2018-08-26T10:00:48Z</time>
      </trkpt>
      <trkpt lat="45.98321" lon="4.79005">
        <ele>242</ele>
        <time>2018-08-26T10:00:49Z</time>
      </trkpt>
      <trkpt lat="45.98315" lon="4.79002">
        <ele>242</ele>
        <time>2018-08-26T10:00:50Z</time>
      </trkpt>
      <trkpt lat="45.98311" lon="4.78997">
        <ele>241</ele>
        <time>2018-08-26T10:00:51Z</time>
      </trkpt>
      <trkpt lat="45.98304" lon="4.78994">
        <ele>241</ele>
        <time>2018-08-26T10:00:52Z</time>
      </trkpt>
      <trkpt lat="45.98298" lon="4.7899">
        <ele>241</ele>
        <time>2018-08-26T10:00:53Z</time>
      </trkpt>
      <trkpt lat="45.98292" lon="4.78988">
        <ele>241</ele>
        <time>2018-08-26T10:00:54Z</time>
      </trkpt>
      <trkpt lat="45.98285" lon="4.78985">
        <ele>241</ele>
        <time>2018-08-26T10:00:55Z</time>
      </trkpt>
      <trkpt lat="45.9828" lon="4.78981">
        <ele>241</ele>
        <time>2018-08-26T10:00:56Z</time>
      </trkpt>
      <trkpt lat="45.98272" lon="4.78977">
        <ele>241</ele>
        <time>2018-08-26T10:00:57Z</time>
      </trkpt>
      <trkpt lat="45.98268" lon="4.78975">
        <ele>241</ele>
        <time>2018-08-26T10:00:58Z</time>
      </trkpt>
      <trkpt lat="45.9826" lon="4.78974">
        <ele>241</ele>
        <time>2018-08-26T10:00:59Z</time>
      </trkpt>
      <trkpt lat="45.98254" lon="4.7897">
        <ele>241</ele>
        <time>2018-08-26T10:01:00Z</time>
      </trkpt>
      <trkpt lat="45.98248" lon="4.78966">
        <ele>241</ele>
        <time>2018-08-26T10:01:01Z</time>
      </trkpt>
      <trkpt lat="45.98242" lon="4.78962">
        <ele>241</ele>
        <time>2018-08-26T10:01:02Z</time>
      </trkpt>
      <trkpt lat="45.98238" lon="4.78958">
        <ele>241</ele>
        <time>2018-08-26T10:01:03Z</time>
      </trkpt>
      <trkpt lat="45.98234" lon="4.78954">
        <ele>241</ele>
        <time>2018-08-26T10:01:04Z</time>
      </trkpt>
      <trkpt lat="45.98228" lon="4.7895">
        <ele>241</ele>
        <time>2018-08-26T10:01:05Z</time>
      </trkpt>
      <trkpt lat="45.98222" lon="4.78947">
        <ele>241</ele>
        <time>2018-08-26T10:01:06Z</time>
      </trkpt>
      <trkpt lat="45.98215" lon="4.78943">
        <ele>241</ele>
        <time>2018-08-26T10:01:07Z</time>
      </trkpt>
      <trkpt lat="45.98209" lon="4.78939">
        <ele>241</ele>
        <time>2018-08-26T10:01:08Z</time>
      </trkpt>
      <trkpt lat="45.98201" lon="4.78936">
        <ele>241</ele>
        <time>2018-08-26T10:01:09Z</time>
      </trkpt>
      <trkpt lat="45.98195" lon="4.78933">
        <ele>241</ele>
        <time>2018-08-26T10:01:10Z</time>
      </trkpt>
      <trkpt lat="45.98186" lon="4.7893">
        <ele>241</ele>
        <time>2018-08-26T10:01:11Z</time>
      </trkpt>
      <trkpt lat="45.98179" lon="4.78926">
        <ele>240</ele>
        <time>2018-08-26T10:01:12Z</time>
      </trkpt>
      <trkpt lat="45.98171" lon="4.78922">
        <ele>240</ele>
        <time>2018-08-26T10:01:13Z</time>
      </trkpt>
      <trkpt lat="45.98166" lon="4.78919">
        <ele>240</ele>
        <time>2018-08-26T10:01:14Z</time>
      </trkpt>
      <trkpt lat="45.98159" lon="4.78915">
        <ele>240</ele>
        <time>2018-08-26T10:01:15Z</time>
      </trkpt>
      <trkpt lat="45.98155" lon="4.7891">
        <ele>240</ele>
        <time>2018-08-26T10:01:16Z</time>
      </trkpt>
      <trkpt lat="45.98148" lon="4.78908">
        <ele>240</ele>
        <time>2018-08-26T10:01:17Z</time>
      </trkpt>
      <trkpt lat="45.98143" lon="4.78906">
        <ele>240</ele>
        <time>2018-08-26T10:01:18Z</time>
      </trkpt>
      <trkpt lat="45.98136" lon="4.78902">
        <ele>240</ele>
        <time>2018-08-26T10:01:19Z</time>
      </trkpt>
      <trkpt lat="45.9813" lon="4.78898">
        <ele>240</ele>
        <time>2018-08-26T10:01:20Z</time>
      </trkpt>
      <trkpt lat="45.98122" lon="4.78893">
        <ele>240</ele>
        <time>2018-08-26T10:01:21Z</time>
      </trkpt>
      <trkpt lat="45.98116" lon="4.78889">
        <ele>240</ele>
        <time>2018-08-26T10:01:22Z</time>
      </trkpt>
      <trkpt lat="45.98111" lon="4.78884">
        <ele>240</ele>
        <time>2018-08-26T10:01:23Z</time>
      </trkpt>
      <trkpt lat="45.98105" lon="4.7888">
        <ele>240</ele>
        <time>2018-08-26T10:01:24Z</time>
      </trkpt>
      <trkpt lat="45.98098" lon="4.78876">
        <ele>240</ele>
        <time>2018-08-26T10:01:25Z</time>
      </trkpt>
      <trkpt lat="45.98093" lon="4.78874">
        <ele>239</ele>
        <time>2018-08-26T10:01:26Z</time>
      </trkpt>
      <trkpt lat="45.98087" lon="4.78871">
        <ele>239</ele>
        <time>2018-08-26T10:01:27Z</time>
      </trkpt>
      <trkpt lat="45.98081" lon="4.78867">
        <ele>239</ele>
        <time>2018-08-26T10:01:28Z</time>
      </trkpt>
      <trkpt lat="45.98074" lon="4.78862">
        <ele>239</ele>
        <time>2018-08-26T10:01:29Z</time>
      </trkpt>
      <trkpt lat="45.98068" lon="4.78857">
        <ele>239</ele>
        <time>2018-08-26T10:01:30Z</time>
      </trkpt>
      <trkpt lat="45.98062" lon="4.78853">
        <ele>239</ele>
        <time>2018-08-26T10:01:31Z</time>
      </trkpt>
      <trkpt lat="45.98056" lon="4.78848">
        <ele>239</ele>
        <time>2018-08-26T10:01:32Z</time>
      </trkpt>
      <trkpt lat="45.98049" lon="4.78844">
        <ele>239</ele>
        <time>2018-08-26T10:01:33Z</time>
      </trkpt>
      <trkpt lat="45.98043" lon="4.7884">
        <ele>238</ele>
        <time>2018-08-26T10:01:34Z</time>
      </trkpt>
      <trkpt lat="45.98037" lon="4.78836">
        <ele>238</ele>
        <time>2018-08-26T10:01:35Z</time>
      </trkpt>
      <trkpt lat="45.98032" lon="4.78831">
        <ele>238</ele>
        <time>2018-08-26T10:01:36Z</time>
      </trkpt>
      <trkpt lat="45.98026" lon="4.78826">
        <ele>238</ele>
        <time>2018-08-26T10:01:37Z</time>
      </trkpt>
      <trkpt lat="45.9802" lon="4.78822">
        <ele>238</ele>
        <time>2018-08-26T10:01:38Z</time>
      </trkpt>
      <trkpt lat="45.98015" lon="4.78818">
        <ele>238</ele>
        <time>2018-08-26T10:01:39Z</time>
      </trkpt>
      <trkpt lat="45.98009" lon="4.78814">
        <ele>238</ele>
        <time>2018-08-26T10:01:40Z</time>
      </trkpt>
      <trkpt lat="45.98004" lon="4.7881">
        <ele>238</ele>
        <time>2018-08-26T10:01:41Z</time>
      </trkpt>
      <trkpt lat="45.98001" lon="4.78805">
        <ele>238</ele>
        <time>2018-08-26T10:01:42Z</time>
      </trkpt>
      <trkpt lat="45.97995" lon="4.78803">
        <ele>238</ele>
        <time>2018-08-26T10:01:43Z</time>
      </trkpt>
      <trkpt lat="45.97989" lon="4.78799">
        <ele>238</ele>
        <time>2018-08-26T10:01:44Z</time>
      </trkpt>
      <trkpt lat="45.97982" lon="4.78794">
        <ele>238</ele>
        <time>2018-08-26T10:01:45Z</time>
      </trkpt>
      <trkpt lat="45.97976" lon="4.78789">
        <ele>238</ele>
        <time>2018-08-26T10:01:46Z</time>
      </trkpt>
      <trkpt lat="45.9797" lon="4.78784">
        <ele>238</ele>
        <time>2018-08-26T10:01:47Z</time>
      </trkpt>
      <trkpt lat="45.97964" lon="4.7878">
        <ele>238</ele>
        <time>2018-08-26T10:01:48Z</time>
      </trkpt>
      <trkpt lat="45.97958" lon="4.78775">
        <ele>238</ele>
        <time>2018-08-26T10:01:49Z</time>
      </trkpt>
      <trkpt lat="45.97952" lon="4.78771">
        <ele>238</ele>
        <time>2018-08-26T10:01:50Z</time>
      </trkpt>
      <trkpt lat="45.97946" lon="4.78767">
        <ele>238</ele>
        <time>2018-08-26T10:01:51Z</time>
      </trkpt>
      <trkpt lat="45.9794" lon="4.78763">
        <ele>238</ele>
        <time>2018-08-26T10:01:52Z</time>
      </trkpt>
      <trkpt lat="45.97935" lon="4.78759">
        <ele>238</ele>
        <time>2018-08-26T10:01:53Z</time>
      </trkpt>
      <trkpt lat="45.97929" lon="4.78754">
        <ele>237</ele>
        <time>2018-08-26T10:01:54Z</time>
      </trkpt>
      <trkpt lat="45.97923" lon="4.7875">
        <ele>237</ele>
        <time>2018-08-26T10:01:55Z</time>
      </trkpt>
      <trkpt lat="45.97918" lon="4.78746">
        <ele>237</ele>
        <time>2018-08-26T10:01:56Z</time>
      </trkpt>
      <trkpt lat="45.97913" lon="4.78742">
        <ele>237</ele>
        <time>2018-08-26T10:01:57Z</time>
      </trkpt>
      <trkpt lat="45.97907" lon="4.78737">
        <ele>237</ele>
        <time>2018-08-26T10:01:58Z</time>
      </trkpt>
      <trkpt lat="45.97906" lon="4.78732">
        <ele>237</ele>
        <time>2018-08-26T10:01:59Z</time>
      </trkpt>
      <trkpt lat="45.97901" lon="4.78726">
        <ele>237</ele>
        <time>2018-08-26T10:02:00Z</time>
      </trkpt>
      <trkpt lat="45.9789" lon="4.7872">
        <ele>236</ele>
        <time>2018-08-26T10:02:01Z</time>
      </trkpt>
      <trkpt lat="45.97884" lon="4.78715">
        <ele>236</ele>
        <time>2018-08-26T10:02:02Z</time>
      </trkpt>
      <trkpt lat="45.97878" lon="4.7871">
        <ele>236</ele>
        <time>2018-08-26T10:02:03Z</time>
      </trkpt>
      <trkpt lat="45.97871" lon="4.78705">
        <ele>236</ele>
        <time>2018-08-26T10:02:04Z</time>
      </trkpt>
      <trkpt lat="45.97864" lon="4.78701">
        <ele>236</ele>
        <time>2018-08-26T10:02:05Z</time>
      </trkpt>
      <trkpt lat="45.97858" lon="4.78697">
        <ele>236</ele>
        <time>2018-08-26T10:02:06Z</time>
      </trkpt>
      <trkpt lat="45.97852" lon="4.78692">
        <ele>236</ele>
        <time>2018-08-26T10:02:07Z</time>
      </trkpt>
      <trkpt lat="45.97845" lon="4.78689">
        <ele>236</ele>
        <time>2018-08-26T10:02:08Z</time>
      </trkpt>
      <trkpt lat="45.97837" lon="4.78686">
        <ele>236</ele>
        <time>2018-08-26T10:02:09Z</time>
      </trkpt>
      <trkpt lat="45.97831" lon="4.78683">
        <ele>235</ele>
        <time>2018-08-26T10:02:10Z</time>
      </trkpt>
      <trkpt lat="45.97824" lon="4.78679">
        <ele>235</ele>
        <time>2018-08-26T10:02:11Z</time>
      </trkpt>
      <trkpt lat="45.97818" lon="4.78676">
        <ele>235</ele>
        <time>2018-08-26T10:02:12Z</time>
      </trkpt>
      <trkpt lat="45.97808" lon="4.78673">
        <ele>235</ele>
        <time>2018-08-26T10:02:13Z</time>
      </trkpt>
      <trkpt lat="45.97801" lon="4.78671">
        <ele>235</ele>
        <time>2018-08-26T10:02:14Z</time>
      </trkpt>
      <trkpt lat="45.97794" lon="4.78668">
        <ele>235</ele>
        <time>2018-08-26T10:02:15Z</time>
      </trkpt>
      <trkpt lat="45.97788" lon="4.78666">
        <ele>235</ele>
        <time>2018-08-26T10:02:16Z</time>
      </trkpt>
      <trkpt lat="45.97783" lon="4.78664">
        <ele>235</ele>
        <time>2018-08-26T10:02:17Z</time>
      </trkpt>
      <trkpt lat="45.97778" lon="4.78661">
        <ele>235</ele>
        <time>2018-08-26T10:02:18Z</time>
      </trkpt>
      <trkpt lat="45.97771" lon="4.78658">
        <ele>235</ele>
        <time>2018-08-26T10:02:19Z</time>
      </trkpt>
      <trkpt lat="45.97765" lon="4.78655">
        <ele>235</ele>
        <time>2018-08-26T10:02:20Z</time>
      </trkpt>
      <trkpt lat="45.97759" lon="4.78653">
        <ele>235</ele>
        <time>2018-08-26T10:02:21Z</time>
      </trkpt>
      <trkpt lat="45.97752" lon="4.7865">
        <ele>235</ele>
        <time>2018-08-26T10:02:22Z</time>
      </trkpt>
      <trkpt lat="45.97747" lon="4.78647">
        <ele>234</ele>
        <time>2018-08-26T10:02:23Z</time>
      </trkpt>
      <trkpt lat="45.97739" lon="4.78643">
        <ele>234</ele>
        <time>2018-08-26T10:02:24Z</time>
      </trkpt>
      <trkpt lat="45.97731" lon="4.78639">
        <ele>234</ele>
        <time>2018-08-26T10:02:25Z</time>
      </trkpt>
      <trkpt lat="45.97725" lon="4.78636">
        <ele>234</ele>
        <time>2018-08-26T10:02:26Z</time>
      </trkpt>
      <trkpt lat="45.97719" lon="4.78633">
        <ele>234</ele>
        <time>2018-08-26T10:02:27Z</time>
      </trkpt>
      <trkpt lat="45.97713" lon="4.78631">
        <ele>234</ele>
        <time>2018-08-26T10:02:28Z</time>
      </trkpt>
      <trkpt lat="45.97706" lon="4.78627">
        <ele>234</ele>
        <time>2018-08-26T10:02:29Z</time>
      </trkpt>
      <trkpt lat="45.977" lon="4.78625">
        <ele>234</ele>
        <time>2018-08-26T10:02:30Z</time>
      </trkpt>
      <trkpt lat="45.97691" lon="4.78623">
        <ele>234</ele>
        <time>2018-08-26T10:02:31Z</time>
      </trkpt>
      <trkpt lat="45.97686" lon="4.78621">
        <ele>234</ele>
        <time>2018-08-26T10:02:32Z</time>
      </trkpt>
      <trkpt lat="45.97682" lon="4.78619">
        <ele>234</ele>
        <time>2018-08-26T10:02:33Z</time>
      </trkpt>
      <trkpt lat="45.97679" lon="4.78613">
        <ele>234</ele>
        <time>2018-08-26T10:02:34Z</time>
      </trkpt>
      <trkpt lat="45.97673" lon="4.78609">
        <ele>234</ele>
        <time>2018-08-26T10:02:35Z</time>
      </trkpt>
      <trkpt lat="45.97668" lon="4.78609">
        <ele>234</ele>
        <time>2018-08-26T10:02:36Z</time>
      </trkpt>
      <trkpt lat="45.97661" lon="4.78605">
        <ele>233</ele>
        <time>2018-08-26T10:02:37Z</time>
      </trkpt>
      <trkpt lat="45.97653" lon="4.78602">
        <ele>233</ele>
        <time>2018-08-26T10:02:38Z</time>
      </trkpt>
      <trkpt lat="45.97646" lon="4.78599">
        <ele>233</ele>
        <time>2018-08-26T10:02:39Z</time>
      </trkpt>
      <trkpt lat="45.9764" lon="4.78597">
        <ele>233</ele>
        <time>2018-08-26T10:02:40Z</time>
      </trkpt>
      <trkpt lat="45.97634" lon="4.78594">
        <ele>233</ele>
        <time>2018-08-26T10:02:41Z</time>
      </trkpt>
      <trkpt lat="45.97628" lon="4.78592">
        <ele>233</ele>
        <time>2018-08-26T10:02:42Z</time>
      </trkpt>
      <trkpt lat="45.97623" lon="4.78591">
        <ele>233</ele>
        <time>2018-08-26T10:02:43Z</time>
      </trkpt>
      <trkpt lat="45.97616" lon="4.78588">
        <ele>233</ele>
        <time>2018-08-26T10:02:44Z</time>
      </trkpt>
      <trkpt lat="45.9761" lon="4.78586">
        <ele>233</ele>
        <time>2018-08-26T10:02:45Z</time>
      </trkpt>
      <trkpt lat="45.97603" lon="4.78584">
        <ele>233</ele>
        <time>2018-08-26T10:02:46Z</time>
      </trkpt>
      <trkpt lat="45.97596" lon="4.78582">
        <ele>234</ele>
        <time>2018-08-26T10:02:47Z</time>
      </trkpt>
      <trkpt lat="45.9759" lon="4.7858">
        <ele>233</ele>
        <time>2018-08-26T10:02:48Z</time>
      </trkpt>
      <trkpt lat="45.97585" lon="4.78577">
        <ele>233</ele>
        <time>2018-08-26T10:02:49Z</time>
      </trkpt>
      <trkpt lat="45.97577" lon="4.78575">
        <ele>233</ele>
        <time>2018-08-26T10:02:50Z</time>
      </trkpt>
      <trkpt lat="45.97571" lon="4.78572">
        <ele>233</ele>
        <time>2018-08-26T10:02:51Z</time>
      </trkpt>
      <trkpt lat="45.97565" lon="4.78571">
        <ele>233</ele>
        <time>2018-08-26T10:02:52Z</time>
      </trkpt>
      <trkpt lat="45.97559" lon="4.78568">
        <ele>234</ele>
        <time>2018-08-26T10:02:53Z</time>
      </trkpt>
      <trkpt lat="45.97552" lon="4.78565">
        <ele>234</ele>
        <time>2018-08-26T10:02:54Z</time>
      </trkpt>
      <trkpt lat="45.97545" lon="4.78563">
        <ele>234</ele>
        <time>2018-08-26T10:02:55Z</time>
      </trkpt>
      <trkpt lat="45.97538" lon="4.78561">
        <ele>234</ele>
        <time>2018-08-26T10:02:56Z</time>
      </trkpt>
      <trkpt lat="45.97531" lon="4.78557">
        <ele>234</ele>
        <time>2018-08-26T10:02:57Z</time>
      </trkpt>
      <trkpt lat="45.97524" lon="4.78553">
        <ele>234</ele>
        <time>2018-08-26T10:02:58Z</time>
      </trkpt>
      <trkpt lat="45.97518" lon="4.7855">
        <ele>234</ele>
        <time>2018-08-26T10:02:59Z</time>
      </trkpt>
      <trkpt lat="45.97511" lon="4.78545">
        <ele>234</ele>
        <time>2018-08-26T10:03:00Z</time>
      </trkpt>
      <trkpt lat="45.97506" lon="4.78544">
        <ele>234</ele>
        <time>2018-08-26T10:03:01Z</time>
      </trkpt>
      <trkpt lat="45.975" lon="4.7854">
        <ele>233</ele>
        <time>2018-08-26T10:03:02Z</time>
      </trkpt>
      <trkpt lat="45.97494" lon="4.78535">
        <ele>233</ele>
        <time>2018-08-26T10:03:03Z</time>
      </trkpt>
      <trkpt lat="45.97487" lon="4.7853">
        <ele>233</ele>
        <time>2018-08-26T10:03:04Z</time>
      </trkpt>
      <trkpt lat="45.97481" lon="4.78526">
        <ele>233</ele>
        <time>2018-08-26T10:03:05Z</time>
      </trkpt>
      <trkpt lat="45.97474" lon="4.78522">
        <ele>233</ele>
        <time>2018-08-26T10:03:06Z</time>
      </trkpt>
      <trkpt lat="45.97468" lon="4.78518">
        <ele>233</ele>
        <time>2018-08-26T10:03:07Z</time>
      </trkpt>
      <trkpt lat="45.97462" lon="4.78513">
        <ele>233</ele>
        <time>2018-08-26T10:03:08Z</time>
      </trkpt>
      <trkpt lat="45.97459" lon="4.78509">
        <ele>234</ele>
        <time>2018-08-26T10:03:09Z</time>
      </trkpt>
      <trkpt lat="45.9745" lon="4.78505">
        <ele>234</ele>
        <time>2018-08-26T10:03:10Z</time>
      </trkpt>
      <trkpt lat="45.97443" lon="4.785">
        <ele>234</ele>
        <time>2018-08-26T10:03:11Z</time>
      </trkpt>
      <trkpt lat="45.97438" lon="4.78495">
        <ele>234</ele>
        <time>2018-08-26T10:03:12Z</time>
      </trkpt>
      <trkpt lat="45.97433" lon="4.7849">
        <ele>234</ele>
        <time>2018-08-26T10:03:13Z</time>
      </trkpt>
      <trkpt lat="45.97428" lon="4.78486">
        <ele>234</ele>
        <time>2018-08-26T10:03:14Z</time>
      </trkpt>
      <trkpt lat="45.97423" lon="4.78481">
        <ele>234</ele>
        <time>2018-08-26T10:03:15Z</time>
      </trkpt>
      <trkpt lat="45.97417" lon="4.78474">
        <ele>234</ele>
        <time>2018-08-26T10:03:16Z</time>
      </trkpt>
      <trkpt lat="45.97411" lon="4.78468">
        <ele>233</ele>
        <time>2018-08-26T10:03:17Z</time>
      </trkpt>
      <trkpt lat="45.97405" lon="4.78461">
        <ele>233</ele>
        <time>2018-08-26T10:03:18Z</time>
      </trkpt>
      <trkpt lat="45.97399" lon="4.78455">
        <ele>233</ele>
        <time>2018-08-26T10:03:19Z</time>
      </trkpt>
      <trkpt lat="45.97393" lon="4.7845">
        <ele>233</ele>
        <time>2018-08-26T10:03:20Z</time>
      </trkpt>
      <trkpt lat="45.97387" lon="4.78444">
        <ele>233</ele>
        <time>2018-08-26T10:03:21Z</time>
      </trkpt>
      <trkpt lat="45.97381" lon="4.78438">
        <ele>233</ele>
        <time>2018-08-26T10:03:22Z</time>
      </trkpt>
      <trkpt lat="45.97376" lon="4.78431">
        <ele>233</ele>
        <time>2018-08-26T10:03:23Z</time>
      </trkpt>
      <trkpt lat="45.9737" lon="4.78425">
        <ele>233</ele>
        <time>2018-08-26T10:03:24Z</time>
      </trkpt>
      <trkpt lat="45.97364" lon="4.7842">
        <ele>233</ele>
        <time>2018-08-26T10:03:25Z</time>
      </trkpt>
      <trkpt lat="45.97359" lon="4.78414">
        <ele>232</ele>
        <time>2018-08-26T10:03:26Z</time>
      </trkpt>
      <trkpt lat="45.97352" lon="4.78409">
        <ele>232</ele>
        <time>2018-08-26T10:03:27Z</time>
      </trkpt>
      <trkpt lat="45.97347" lon="4.78404">
        <ele>232</ele>
        <time>2018-08-26T10:03:28Z</time>
      </trkpt>
      <trkpt lat="45.97342" lon="4.78399">
        <ele>232</ele>
        <time>2018-08-26T10:03:29Z</time>
      </trkpt>
      <trkpt lat="45.97336" lon="4.78392">
        <ele>232</ele>
        <time>2018-08-26T10:03:30Z</time>
      </trkpt>
      <trkpt lat="45.97331" lon="4.78387">
        <ele>232</ele>
        <time>2018-08-26T10:03:31Z</time>
      </trkpt>
      <trkpt lat="45.97325" lon="4.7838">
        <ele>232</ele>
        <time>2018-08-26T10:03:32Z</time>
      </trkpt>
      <trkpt lat="45.9732" lon="4.78374">
        <ele>232</ele>
        <time>2018-08-26T10:03:33Z</time>
      </trkpt>
      <trkpt lat="45.97315" lon="4.78367">
        <ele>232</ele>
        <time>2018-08-26T10:03:34Z</time>
      </trkpt>
      <trkpt lat="45.97309" lon="4.78362">
        <ele>232</ele>
        <time>2018-08-26T10:03:35Z</time>
      </trkpt>
      <trkpt lat="45.97305" lon="4.78357">
        <ele>232</ele>
        <time>2018-08-26T10:03:36Z</time>
      </trkpt>
      <trkpt lat="45.97299" lon="4.78349">
        <ele>232</ele>
        <time>2018-08-26T10:03:37Z</time>
      </trkpt>
      <trkpt lat="45.97293" lon="4.78342">
        <ele>232</ele>
        <time>2018-08-26T10:03:38Z</time>
      </trkpt>
      <trkpt lat="45.97288" lon="4.78334">
        <ele>232</ele>
        <time>2018-08-26T10:03:39Z</time>
      </trkpt>
      <trkpt lat="45.97284" lon="4.78327">
        <ele>232</ele>
        <time>2018-08-26T10:03:40Z</time>
      </trkpt>
      <trkpt lat="45.97279" lon="4.78319">
        <ele>232</ele>
        <time>2018-08-26T10:03:41Z</time>
      </trkpt>
      <trkpt lat="45.97274" lon="4.78313">
        <ele>232</ele>
        <time>2018-08-26T10:03:42Z</time>
      </trkpt>
      <trkpt lat="45.9727" lon="4.78305">
        <ele>232</ele>
        <time>2018-08-26T10:03:43Z</time>
      </trkpt>
      <trkpt lat="45.97265" lon="4.78298">
        <ele>232</ele>
        <time>2018-08-26T10:03:44Z</time>
      </trkpt>
      <trkpt lat="45.9726" lon="4.78291">
        <ele>232</ele>
        <time>2018-08-26T10:03:45Z</time>
      </trkpt>
      <trkpt lat="45.97248" lon="4.78285">
        <ele>231</ele>
        <time>2018-08-26T10:03:46Z</time>
      </trkpt>
      <trkpt lat="45.97242" lon="4.78278">
        <ele>231</ele>
        <time>2018-08-26T10:03:47Z</time>
      </trkpt>
      <trkpt lat="45.97237" lon="4.7827">
        <ele>231</ele>
        <time>2018-08-26T10:03:48Z</time>
      </trkpt>
      <trkpt lat="45.97232" lon="4.78262">
        <ele>231</ele>
        <time>2018-08-26T10:03:49Z</time>
      </trkpt>
      <trkpt lat="45.97227" lon="4.78254">
        <ele>231</ele>
        <time>2018-08-26T10:03:50Z</time>
      </trkpt>
      <trkpt lat="45.97222" lon="4.78248">
        <ele>231</ele>
        <time>2018-08-26T10:03:51Z</time>
      </trkpt>
      <trkpt lat="45.97218" lon="4.78241">
        <ele>231</ele>
        <time>2018-08-26T10:03:52Z</time>
      </trkpt>
      <trkpt lat="45.97214" lon="4.78233">
        <ele>231</ele>
        <time>2018-08-26T10:03:53Z</time>
      </trkpt>
      <trkpt lat="45.97209" lon="4.78225">
        <ele>231</ele>
        <time>2018-08-26T10:03:54Z</time>
      </trkpt>
      <trkpt lat="45.97208" lon="4.78219">
        <ele>231</ele>
        <time>2018-08-26T10:03:55Z</time>
      </trkpt>
      <trkpt lat="45.97204" lon="4.78212">
        <ele>231</ele>
        <time>2018-08-26T10:03:56Z</time>
      </trkpt>
      <trkpt lat="45.972" lon="4.78206">
        <ele>231</ele>
        <time>2018-08-26T10:03:57Z</time>
      </trkpt>
      <trkpt lat="45.97196" lon="4.78198">
        <ele>231</ele>
        <time>2018-08-26T10:03:58Z</time>
      </trkpt>
      <trkpt lat="45.97192" lon="4.78191">
        <ele>231</ele>
        <time>2018-08-26T10:03:59Z</time>
      </trkpt>
      <trkpt lat="45.97188" lon="4.78183">
        <ele>231</ele>
        <time>2018-08-26T10:04:00Z</time>
      </trkpt>
      <trkpt lat="45.97183" lon="4.78177">
        <ele>231</ele>
        <time>2018-08-26T10:04:01Z</time>
      </trkpt>
      <trkpt lat="45.97177" lon="4.7817">
        <ele>231</ele>
        <time>2018-08-26T10:04:02Z</time>
      </trkpt>
      <trkpt lat="45.97173" lon="4.78163">
        <ele>231</ele>
        <time>2018-08-26T10:04:03Z</time>
      </trkpt>
      <trkpt lat="45.97169" lon="4.78155">
        <ele>231</ele>
        <time>2018-08-26T10:04:04Z</time>
      </trkpt>
      <trkpt lat="45.97165" lon="4.78147">
        <ele>230</ele>
        <time>2018-08-26T10:04:05Z</time>
      </trkpt>
      <trkpt lat="45.97161" lon="4.78139">
        <ele>230</ele>
        <time>2018-08-26T10:04:06Z</time>
      </trkpt>
      <trkpt lat="45.97157" lon="4.78131">
        <ele>230</ele>
        <time>2018-08-26T10:04:07Z</time>
      </trkpt>
      <trkpt lat="45.97152" lon="4.78122">
        <ele>230</ele>
        <time>2018-08-26T10:04:08Z</time>
      </trkpt>
      <trkpt lat="45.9715" lon="4.78114">
        <ele>230</ele>
        <time>2018-08-26T10:04:09Z</time>
      </trkpt>
      <trkpt lat="45.97148" lon="4.78104">
        <ele>230</ele>
        <time>2018-08-26T10:04:10Z</time>
      </trkpt>
      <trkpt lat="45.97144" lon="4.78096">
        <ele>230</ele>
        <time>2018-08-26T10:04:11Z</time>
      </trkpt>
      <trkpt lat="45.97139" lon="4.78089">
        <ele>230</ele>
        <time>2018-08-26T10:04:12Z</time>
      </trkpt>
      <trkpt lat="45.97135" lon="4.78082">
        <ele>230</ele>
        <time>2018-08-26T10:04:13Z</time>
      </trkpt>
      <trkpt lat="45.9713" lon="4.78075">
        <ele>230</ele>
        <time>2018-08-26T10:04:14Z</time>
      </trkpt>
      <trkpt lat="45.97128" lon="4.78068">
        <ele>230</ele>
        <time>2018-08-26T10:04:15Z</time>
      </trkpt>
      <trkpt lat="45.97122" lon="4.78061">
        <ele>229</ele>
        <time>2018-08-26T10:04:16Z</time>
      </trkpt>
      <trkpt lat="45.97117" lon="4.78054">
        <ele>229</ele>
        <time>2018-08-26T10:04:17Z</time>
      </trkpt>
      <trkpt lat="45.97112" lon="4.78049">
        <ele>229</ele>
        <time>2018-08-26T10:04:18Z</time>
      </trkpt>
      <trkpt lat="45.97107" lon="4.78042">
        <ele>229</ele>
        <time>2018-08-26T10:04:19Z</time>
      </trkpt>
      <trkpt lat="45.971" lon="4.78038">
        <ele>229</ele>
        <time>2018-08-26T10:04:20Z</time>
      </trkpt>
      <trkpt lat="45.97094" lon="4.78033">
        <ele>229</ele>
        <time>2018-08-26T10:04:21Z</time>
      </trkpt>
      <trkpt lat="45.97087" lon="4.78026">
        <ele>229</ele>
        <time>2018-08-26T10:04:22Z</time>
      </trkpt>
      <trkpt lat="45.97079" lon="4.78021">
        <ele>229</ele>
        <time>2018-08-26T10:04:23Z</time>
      </trkpt>
      <trkpt lat="45.97072" lon="4.78014">
        <ele>229</ele>
        <time>2018-08-26T10:04:24Z</time>
      </trkpt>
      <trkpt lat="45.97066" lon="4.78008">
        <ele>229</ele>
        <time>2018-08-26T10:04:25Z</time>
      </trkpt>
      <trkpt lat="45.9706" lon="4.78004">
        <ele>229</ele>
        <time>2018-08-26T10:04:26Z</time>
      </trkpt>
      <trkpt lat="45.97052" lon="4.77999">
        <ele>229</ele>
        <time>2018-08-26T10:04:27Z</time>
      </trkpt>
      <trkpt lat="45.97046" lon="4.77991">
        <ele>229</ele>
        <time>2018-08-26T10:04:28Z</time>
      </trkpt>
      <trkpt lat="45.97041" lon="4.77984">
        <ele>229</ele>
        <time>2018-08-26T10:04:29Z</time>
      </trkpt>
      <trkpt lat="45.97034" lon="4.77977">
        <ele>229</ele>
        <time>2018-08-26T10:04:30Z</time>
      </trkpt>
      <trkpt lat="45.97029" lon="4.7797">
        <ele>229</ele>
        <time>2018-08-26T10:04:31Z</time>
      </trkpt>
      <trkpt lat="45.97023" lon="4.77964">
        <ele>228</ele>
        <time>2018-08-26T10:04:32Z</time>
      </trkpt>
      <trkpt lat="45.97017" lon="4.77957">
        <ele>228</ele>
        <time>2018-08-26T10:04:33Z</time>
      </trkpt>
      <trkpt lat="45.97011" lon="4.7795">
        <ele>228</ele>
        <time>2018-08-26T10:04:34Z</time>
      </trkpt>
      <trkpt lat="45.97005" lon="4.77943">
        <ele>228</ele>
        <time>2018-08-26T10:04:35Z</time>
      </trkpt>
      <trkpt lat="45.97" lon="4.77937">
        <ele>228</ele>
        <time>2018-08-26T10:04:36Z</time>
      </trkpt>
      <trkpt lat="45.96995" lon="4.77929">
        <ele>227</ele>
        <time>2018-08-26T10:04:37Z</time>
      </trkpt>
      <trkpt lat="45.96989" lon="4.77923">
        <ele>227</ele>
        <time>2018-08-26T10:04:38Z</time>
      </trkpt>
      <trkpt lat="45.96984" lon="4.77916">
        <ele>227</ele>
        <time>2018-08-26T10:04:39Z</time>
      </trkpt>
      <trkpt lat="45.96979" lon="4.77911">
        <ele>227</ele>
        <time>2018-08-26T10:04:40Z</time>
      </trkpt>
      <trkpt lat="45.96974" lon="4.77904">
        <ele>227</ele>
        <time>2018-08-26T10:04:41Z</time>
      </trkpt>
      <trkpt lat="45.96969" lon="4.77899">
        <ele>228</ele>
        <time>2018-08-26T10:04:42Z</time>
      </trkpt>
      <trkpt lat="45.96963" lon="4.77891">
        <ele>228</ele>
        <time>2018-08-26T10:04:43Z</time>
      </trkpt>
      <trkpt lat="45.96957" lon="4.77883">
        <ele>228</ele>
        <time>2018-08-26T10:04:44Z</time>
      </trkpt>
      <trkpt lat="45.9695" lon="4.77876">
        <ele>228</ele>
        <time>2018-08-26T10:04:45Z</time>
      </trkpt>
      <trkpt lat="45.96944" lon="4.77868">
        <ele>228</ele>
        <time>2018-08-26T10:04:46Z</time>
      </trkpt>
      <trkpt lat="45.96937" lon="4.77865">
        <ele>228</ele>
        <time>2018-08-26T10:04:47Z</time>
      </trkpt>
      <trkpt lat="45.96931" lon="4.77857">
        <ele>228</ele>
        <time>2018-08-26T10:04:48Z</time>
      </trkpt>
      <trkpt lat="45.96924" lon="4.7785">
        <ele>228</ele>
        <time>2018-08-26T10:04:49Z</time>
      </trkpt>
      <trkpt lat="45.96918" lon="4.77843">
        <ele>228</ele>
        <time>2018-08-26T10:04:50Z</time>
      </trkpt>
      <trkpt lat="45.96912" lon="4.77836">
        <ele>228</ele>
        <time>2018-08-26T10:04:51Z</time>
      </trkpt>
      <trkpt lat="45.96906" lon="4.77828">
        <ele>228</ele>
        <time>2018-08-26T10:04:52Z</time>
      </trkpt>
      <trkpt lat="45.96902" lon="4.77822">
        <ele>228</ele>
        <time>2018-08-26T10:04:53Z</time>
      </trkpt>
      <trkpt lat="45.96897" lon="4.77814">
        <ele>228</ele>
        <time>2018-08-26T10:04:54Z</time>
      </trkpt>
      <trkpt lat="45.96891" lon="4.77806">
        <ele>228</ele>
        <time>2018-08-26T10:04:55Z</time>
      </trkpt>
      <trkpt lat="45.96886" lon="4.77799">
        <ele>228</ele>
        <time>2018-08-26T10:04:56Z</time>
      </trkpt>
      <trkpt lat="45.96879" lon="4.77792">
        <ele>228</ele>
        <time>2018-08-26T10:04:57Z</time>
      </trkpt>
      <trkpt lat="45.96874" lon="4.77787">
        <ele>228</ele>
        <time>2018-08-26T10:04:58Z</time>
      </trkpt>
      <trkpt lat="45.96868" lon="4.77781">
        <ele>228</ele>
        <time>2018-08-26T10:04:59Z</time>
      </trkpt>
      <trkpt lat="45.96859" lon="4.77774">
        <ele>228</ele>
        <time>2018-08-26T10:05:00Z</time>
      </trkpt>
      <trkpt lat="45.96853" lon="4.77767">
        <ele>228</ele>
        <time>2018-08-26T10:05:01Z</time>
      </trkpt>
      <trkpt lat="45.96846" lon="4.77761">
        <ele>228</ele>
        <time>2018-08-26T10:05:02Z</time>
      </trkpt>
      <trkpt lat="45.96839" lon="4.77752">
        <ele>228</ele>
        <time>2018-08-26T10:05:03Z</time>
      </trkpt>
      <trkpt lat="45.96832" lon="4.77745">
        <ele>228</ele>
        <time>2018-08-26T10:05:04Z</time>
      </trkpt>
      <trkpt lat="45.96825" lon="4.77739">
        <ele>228</ele>
        <time>2018-08-26T10:05:05Z</time>
      </trkpt>
      <trkpt lat="45.96819" lon="4.77732">
        <ele>228</ele>
        <time>2018-08-26T10:05:06Z</time>
      </trkpt>
      <trkpt lat="45.96813" lon="4.77722">
        <ele>228</ele>
        <time>2018-08-26T10:05:07Z</time>
      </trkpt>
      <trkpt lat="45.96804" lon="4.77716">
        <ele>228</ele>
        <time>2018-08-26T10:05:08Z</time>
      </trkpt>
      <trkpt lat="45.96798" lon="4.77709">
        <ele>228</ele>
        <time>2018-08-26T10:05:09Z</time>
      </trkpt>
      <trkpt lat="45.96791" lon="4.77701">
        <ele>227</ele>
        <time>2018-08-26T10:05:10Z</time>
      </trkpt>
      <trkpt lat="45.96784" lon="4.77694">
        <ele>227</ele>
        <time>2018-08-26T10:05:11Z</time>
      </trkpt>
      <trkpt lat="45.96778" lon="4.77687">
        <ele>227</ele>
        <time>2018-08-26T10:05:12Z</time>
      </trkpt>
      <trkpt lat="45.96772" lon="4.7768">
        <ele>227</ele>
        <time>2018-08-26T10:05:13Z</time>
      </trkpt>
      <trkpt lat="45.96766" lon="4.77672">
        <ele>227</ele>
        <time>2018-08-26T10:05:14Z</time>
      </trkpt>
      <trkpt lat="45.9676" lon="4.77664">
        <ele>227</ele>
        <time>2018-08-26T10:05:15Z</time>
      </trkpt>
      <trkpt lat="45.96754" lon="4.77656">
        <ele>227</ele>
        <time>2018-08-26T10:05:16Z</time>
      </trkpt>
      <trkpt lat="45.96748" lon="4.77649">
        <ele>227</ele>
        <time>2018-08-26T10:05:17Z</time>
      </trkpt>
      <trkpt lat="45.96742" lon="4.77641">
        <ele>227</ele>
        <time>2018-08-26T10:05:18Z</time>
      </trkpt>
      <trkpt lat="45.96737" lon="4.77634">
        <ele>226</ele>
        <time>2018-08-26T10:05:19Z</time>
      </trkpt>
      <trkpt lat="45.96731" lon="4.77626">
        <ele>226</ele>
        <time>2018-08-26T10:05:20Z</time>
      </trkpt>
      <trkpt lat="45.96725" lon="4.77618">
        <ele>226</ele>
        <time>2018-08-26T10:05:21Z</time>
      </trkpt>
      <trkpt lat="45.96719" lon="4.77611">
        <ele>226</ele>
        <time>2018-08-26T10:05:22Z</time>
      </trkpt>
      <trkpt lat="45.96713" lon="4.77603">
        <ele>226</ele>
        <time>2018-08-26T10:05:23Z</time>
      </trkpt>
      <trkpt lat="45.96707" lon="4.77596">
        <ele>226</ele>
        <time>2018-08-26T10:05:24Z</time>
      </trkpt>
      <trkpt lat="45.96701" lon="4.7759">
        <ele>226</ele>
        <time>2018-08-26T10:05:25Z</time>
      </trkpt>
      <trkpt lat="45.96695" lon="4.77584">
        <ele>226</ele>
        <time>2018-08-26T10:05:26Z</time>
      </trkpt>
      <trkpt lat="45.96689" lon="4.77577">
        <ele>225</ele>
        <time>2018-08-26T10:05:27Z</time>
      </trkpt>
      <trkpt lat="45.96683" lon="4.77572">
        <ele>225</ele>
        <time>2018-08-26T10:05:28Z</time>
      </trkpt>
      <trkpt lat="45.96677" lon="4.77566">
        <ele>225</ele>
        <time>2018-08-26T10:05:29Z</time>
      </trkpt>
      <trkpt lat="45.9667" lon="4.77561">
        <ele>225</ele>
        <time>2018-08-26T10:05:30Z</time>
      </trkpt>
      <trkpt lat="45.96663" lon="4.77557">
        <ele>224</ele>
        <time>2018-08-26T10:05:31Z</time>
      </trkpt>
      <trkpt lat="45.96656" lon="4.77553">
        <ele>224</ele>
        <time>2018-08-26T10:05:32Z</time>
      </trkpt>
      <trkpt lat="45.96649" lon="4.77548">
        <ele>224</ele>
        <time>2018-08-26T10:05:33Z</time>
      </trkpt>
      <trkpt lat="45.96642" lon="4.77542">
        <ele>224</ele>
        <time>2018-08-26T10:05:34Z</time>
      </trkpt>
      <trkpt lat="45.96635" lon="4.77537">
        <ele>224</ele>
        <time>2018-08-26T10:05:35Z</time>
      </trkpt>
      <trkpt lat="45.96627" lon="4.77532">
        <ele>224</ele>
        <time>2018-08-26T10:05:36Z</time>
      </trkpt>
      <trkpt lat="45.9662" lon="4.77527">
        <ele>224</ele>
        <time>2018-08-26T10:05:37Z</time>
      </trkpt>
      <trkpt lat="45.96614" lon="4.77521">
        <ele>224</ele>
        <time>2018-08-26T10:05:38Z</time>
      </trkpt>
      <trkpt lat="45.96607" lon="4.77517">
        <ele>224</ele>
        <time>2018-08-26T10:05:39Z</time>
      </trkpt>
      <trkpt lat="45.966" lon="4.77512">
        <ele>224</ele>
        <time>2018-08-26T10:05:40Z</time>
      </trkpt>
      <trkpt lat="45.96592" lon="4.77507">
        <ele>224</ele>
        <time>2018-08-26T10:05:41Z</time>
      </trkpt>
      <trkpt lat="45.96585" lon="4.77504">
        <ele>224</ele>
        <time>2018-08-26T10:05:42Z</time>
      </trkpt>
      <trkpt lat="45.96579" lon="4.77501">
        <ele>224</ele>
        <time>2018-08-26T10:05:43Z</time>
      </trkpt>
      <trkpt lat="45.96572" lon="4.77495">
        <ele>224</ele>
        <time>2018-08-26T10:05:44Z</time>
      </trkpt>
      <trkpt lat="45.96565" lon="4.7749">
        <ele>224</ele>
        <time>2018-08-26T10:05:45Z</time>
      </trkpt>
      <trkpt lat="45.96558" lon="4.77485">
        <ele>224</ele>
        <time>2018-08-26T10:05:46Z</time>
      </trkpt>
      <trkpt lat="45.96551" lon="4.77481">
        <ele>223</ele>
        <time>2018-08-26T10:05:47Z</time>
      </trkpt>
      <trkpt lat="45.96544" lon="4.77475">
        <ele>223</ele>
        <time>2018-08-26T10:05:48Z</time>
      </trkpt>
      <trkpt lat="45.96538" lon="4.7747">
        <ele>223</ele>
        <time>2018-08-26T10:05:49Z</time>
      </trkpt>
      <trkpt lat="45.96531" lon="4.77465">
        <ele>223</ele>
        <time>2018-08-26T10:05:50Z</time>
      </trkpt>
      <trkpt lat="45.96524" lon="4.77461">
        <ele>223</ele>
        <time>2018-08-26T10:05:51Z</time>
      </trkpt>
      <trkpt lat="45.96516" lon="4.77456">
        <ele>223</ele>
        <time>2018-08-26T10:05:52Z</time>
      </trkpt>
      <trkpt lat="45.96508" lon="4.77451">
        <ele>223</ele>
        <time>2018-08-26T10:05:53Z</time>
      </trkpt>
      <trkpt lat="45.965" lon="4.77446">
        <ele>223</ele>
        <time>2018-08-26T10:05:54Z</time>
      </trkpt>
      <trkpt lat="45.96493" lon="4.7744">
        <ele>222</ele>
        <time>2018-08-26T10:05:55Z</time>
      </trkpt>
      <trkpt lat="45.96485" lon="4.77435">
        <ele>222</ele>
        <time>2018-08-26T10:05:56Z</time>
      </trkpt>
      <trkpt lat="45.96477" lon="4.7743">
        <ele>222</ele>
        <time>2018-08-26T10:05:57Z</time>
      </trkpt>
      <trkpt lat="45.96468" lon="4.77426">
        <ele>221</ele>
        <time>2018-08-26T10:05:58Z</time>
      </trkpt>
      <trkpt lat="45.96458" lon="4.77421">
        <ele>221</ele>
        <time>2018-08-26T10:05:59Z</time>
      </trkpt>
      <trkpt lat="45.9645" lon="4.77415">
        <ele>222</ele>
        <time>2018-08-26T10:06:00Z</time>
      </trkpt>
      <trkpt lat="45.96444" lon="4.7741">
        <ele>222</ele>
        <time>2018-08-26T10:06:01Z</time>
      </trkpt>
      <trkpt lat="45.96438" lon="4.77406">
        <ele>222</ele>
        <time>2018-08-26T10:06:02Z</time>
      </trkpt>
      <trkpt lat="45.9643" lon="4.77402">
        <ele>222</ele>
        <time>2018-08-26T10:06:03Z</time>
      </trkpt>
      <trkpt lat="45.9642" lon="4.77396">
        <ele>222</ele>
        <time>2018-08-26T10:06:04Z</time>
      </trkpt>
      <trkpt lat="45.96409" lon="4.77392">
        <ele>220</ele>
        <time>2018-08-26T10:06:05Z</time>
      </trkpt>
      <trkpt lat="45.96402" lon="4.77389">
        <ele>220</ele>
        <time>2018-08-26T10:06:06Z</time>
      </trkpt>
      <trkpt lat="45.96394" lon="4.77386">
        <ele>220</ele>
        <time>2018-08-26T10:06:07Z</time>
      </trkpt>
      <trkpt lat="45.96388" lon="4.77383">
        <ele>220</ele>
        <time>2018-08-26T10:06:08Z</time>
      </trkpt>
      <trkpt lat="45.96381" lon="4.7738">
        <ele>220</ele>
        <time>2018-08-26T10:06:09Z</time>
      </trkpt>
      <trkpt lat="45.96374" lon="4.77375">
        <ele>219</ele>
        <time>2018-08-26T10:06:10Z</time>
      </trkpt>
      <trkpt lat="45.96366" lon="4.77371">
        <ele>219</ele>
        <time>2018-08-26T10:06:11Z</time>
      </trkpt>
      <trkpt lat="45.96358" lon="4.77365">
        <ele>219</ele>
        <time>2018-08-26T10:06:12Z</time>
      </trkpt>
      <trkpt lat="45.96351" lon="4.7736">
        <ele>219</ele>
        <time>2018-08-26T10:06:13Z</time>
      </trkpt>
      <trkpt lat="45.96342" lon="4.77355">
        <ele>219</ele>
        <time>2018-08-26T10:06:14Z</time>
      </trkpt>
      <trkpt lat="45.96334" lon="4.77349">
        <ele>220</ele>
        <time>2018-08-26T10:06:15Z</time>
      </trkpt>
      <trkpt lat="45.96326" lon="4.77343">
        <ele>218</ele>
        <time>2018-08-26T10:06:16Z</time>
      </trkpt>
      <trkpt lat="45.96318" lon="4.77339">
        <ele>218</ele>
        <time>2018-08-26T10:06:17Z</time>
      </trkpt>
      <trkpt lat="45.96312" lon="4.77334">
        <ele>218</ele>
        <time>2018-08-26T10:06:18Z</time>
      </trkpt>
      <trkpt lat="45.96304" lon="4.7733">
        <ele>219</ele>
        <time>2018-08-26T10:06:19Z</time>
      </trkpt>
      <trkpt lat="45.96297" lon="4.77325">
        <ele>219</ele>
        <time>2018-08-26T10:06:20Z</time>
      </trkpt>
      <trkpt lat="45.96289" lon="4.77321">
        <ele>219</ele>
        <time>2018-08-26T10:06:21Z</time>
      </trkpt>
      <trkpt lat="45.96281" lon="4.77316">
        <ele>219</ele>
        <time>2018-08-26T10:06:22Z</time>
      </trkpt>
      <trkpt lat="45.96274" lon="4.77311">
        <ele>219</ele>
        <time>2018-08-26T10:06:23Z</time>
      </trkpt>
      <trkpt lat="45.96267" lon="4.77307">
        <ele>219</ele>
        <time>2018-08-26T10:06:24Z</time>
      </trkpt>
      <trkpt lat="45.96258" lon="4.77303">
        <ele>219</ele>
        <time>2018-08-26T10:06:25Z</time>
      </trkpt>
      <trkpt lat="45.96251" lon="4.77298">
        <ele>219</ele>
        <time>2018-08-26T10:06:26Z</time>
      </trkpt>
      <trkpt lat="45.96243" lon="4.77294">
        <ele>217</ele>
        <time>2018-08-26T10:06:27Z</time>
      </trkpt>
      <trkpt lat="45.96235" lon="4.7729">
        <ele>217</ele>
        <time>2018-08-26T10:06:28Z</time>
      </trkpt>
      <trkpt lat="45.96226" lon="4.77286">
        <ele>217</ele>
        <time>2018-08-26T10:06:29Z</time>
      </trkpt>
      <trkpt lat="45.96219" lon="4.77282">
        <ele>217</ele>
        <time>2018-08-26T10:06:30Z</time>
      </trkpt>
      <trkpt lat="45.96212" lon="4.77277">
        <ele>217</ele>
        <time>2018-08-26T10:06:31Z</time>
      </trkpt>
      <trkpt lat="45.96202" lon="4.77271">
        <ele>217</ele>
        <time>2018-08-26T10:06:32Z</time>
      </trkpt>
      <trkpt lat="45.96195" lon="4.77268">
        <ele>216</ele>
        <time>2018-08-26T10:06:33Z</time>
      </trkpt>
      <trkpt lat="45.96187" lon="4.77264">
        <ele>216</ele>
        <time>2018-08-26T10:06:34Z</time>
      </trkpt>
      <trkpt lat="45.9618" lon="4.77259">
        <ele>216</ele>
        <time>2018-08-26T10:06:35Z</time>
      </trkpt>
      <trkpt lat="45.96172" lon="4.77254">
        <ele>216</ele>
        <time>2018-08-26T10:06:36Z</time>
      </trkpt>
      <trkpt lat="45.96164" lon="4.7725">
        <ele>216</ele>
        <time>2018-08-26T10:06:37Z</time>
      </trkpt>
      <trkpt lat="45.96157" lon="4.77246">
        <ele>216</ele>
        <time>2018-08-26T10:06:38Z</time>
      </trkpt>
      <trkpt lat="45.96151" lon="4.77241">
        <ele>215</ele>
        <time>2018-08-26T10:06:39Z</time>
      </trkpt>
      <trkpt lat="45.96143" lon="4.77238">
        <ele>215</ele>
        <time>2018-08-26T10:06:40Z</time>
      </trkpt>
      <trkpt lat="45.96132" lon="4.77236">
        <ele>215</ele>
        <time>2018-08-26T10:06:41Z</time>
      </trkpt>
      <trkpt lat="45.96123" lon="4.77236">
        <ele>214</ele>
        <time>2018-08-26T10:06:42Z</time>
      </trkpt>
      <trkpt lat="45.96114" lon="4.77237">
        <ele>214</ele>
        <time>2018-08-26T10:06:43Z</time>
      </trkpt>
      <trkpt lat="45.96106" lon="4.77237">
        <ele>213</ele>
        <time>2018-08-26T10:06:44Z</time>
      </trkpt>
      <trkpt lat="45.96096" lon="4.77239">
        <ele>212</ele>
        <time>2018-08-26T10:06:45Z</time>
      </trkpt>
      <trkpt lat="45.96088" lon="4.77241">
        <ele>212</ele>
        <time>2018-08-26T10:06:46Z</time>
      </trkpt>
      <trkpt lat="45.96078" lon="4.77242">
        <ele>210</ele>
        <time>2018-08-26T10:06:47Z</time>
      </trkpt>
      <trkpt lat="45.96069" lon="4.77243">
        <ele>210</ele>
        <time>2018-08-26T10:06:48Z</time>
      </trkpt>
      <trkpt lat="45.96059" lon="4.77244">
        <ele>209</ele>
        <time>2018-08-26T10:06:49Z</time>
      </trkpt>
      <trkpt lat="45.9605" lon="4.77245">
        <ele>209</ele>
        <time>2018-08-26T10:06:50Z</time>
      </trkpt>
      <trkpt lat="45.96042" lon="4.77246">
        <ele>208</ele>
        <time>2018-08-26T10:06:51Z</time>
      </trkpt>
      <trkpt lat="45.96032" lon="4.77247">
        <ele>208</ele>
        <time>2018-08-26T10:06:52Z</time>
      </trkpt>
      <trkpt lat="45.96023" lon="4.77245">
        <ele>207</ele>
        <time>2018-08-26T10:06:53Z</time>
      </trkpt>
      <trkpt lat="45.96013" lon="4.77246">
        <ele>206</ele>
        <time>2018-08-26T10:06:54Z</time>
      </trkpt>
      <trkpt lat="45.96003" lon="4.77244">
        <ele>205</ele>
        <time>2018-08-26T10:06:55Z</time>
      </trkpt>
      <trkpt lat="45.95993" lon="4.77241">
        <ele>202</ele>
        <time>2018-08-26T10:06:56Z</time>
      </trkpt>
      <trkpt lat="45.95983" lon="4.77235">
        <ele>202</ele>
        <time>2018-08-26T10:06:57Z</time>
      </trkpt>
      <trkpt lat="45.95975" lon="4.77226">
        <ele>202</ele>
        <time>2018-08-26T10:06:58Z</time>
      </trkpt>
      <trkpt lat="45.95967" lon="4.77217">
        <ele>202</ele>
        <time>2018-08-26T10:06:59Z</time>
      </trkpt>
      <trkpt lat="45.9596" lon="4.77206">
        <ele>201</ele>
        <time>2018-08-26T10:07:00Z</time>
      </trkpt>
      <trkpt lat="45.95956" lon="4.77194">
        <ele>201</ele>
        <time>2018-08-26T10:07:01Z</time>
      </trkpt>
      <trkpt lat="45.9595" lon="4.77178">
        <ele>201</ele>
        <time>2018-08-26T10:07:02Z</time>
      </trkpt>
      <trkpt lat="45.95947" lon="4.77163">
        <ele>201</ele>
        <time>2018-08-26T10:07:03Z</time>
      </trkpt>
      <trkpt lat="45.95944" lon="4.77147">
        <ele>201</ele>
        <time>2018-08-26T10:07:04Z</time>
      </trkpt>
      <trkpt lat="45.95942" lon="4.77132">
        <ele>201</ele>
        <time>2018-08-26T10:07:05Z</time>
      </trkpt>
      <trkpt lat="45.95944" lon="4.77116">
        <ele>201</ele>
        <time>2018-08-26T10:07:06Z</time>
      </trkpt>
      <trkpt lat="45.95946" lon="4.77101">
        <ele>201</ele>
        <time>2018-08-26T10:07:07Z</time>
      </trkpt>
      <trkpt lat="45.95951" lon="4.77086">
        <ele>202</ele>
        <time>2018-08-26T10:07:08Z</time>
      </trkpt>
      <trkpt lat="45.95955" lon="4.77072">
        <ele>201</ele>
        <time>2018-08-26T10:07:09Z</time>
      </trkpt>
      <trkpt lat="45.95957" lon="4.77058">
        <ele>200</ele>
        <time>2018-08-26T10:07:10Z</time>
      </trkpt>
      <trkpt lat="45.95962" lon="4.77046">
        <ele>200</ele>
        <time>2018-08-26T10:07:11Z</time>
      </trkpt>
      <trkpt lat="45.95965" lon="4.77035">
        <ele>200</ele>
        <time>2018-08-26T10:07:12Z</time>
      </trkpt>
      <trkpt lat="45.95971" lon="4.77021">
        <ele>200</ele>
        <time>2018-08-26T10:07:13Z</time>
      </trkpt>
      <trkpt lat="45.95975" lon="4.77008">
        <ele>200</ele>
        <time>2018-08-26T10:07:14Z</time>
      </trkpt>
      <trkpt lat="45.95982" lon="4.76997">
        <ele>198</ele>
        <time>2018-08-26T10:07:15Z</time>
      </trkpt>
      <trkpt lat="45.95984" lon="4.76984">
        <ele>198</ele>
        <time>2018-08-26T10:07:16Z</time>
      </trkpt>
      <trkpt lat="45.95985" lon="4.7697">
        <ele>197</ele>
        <time>2018-08-26T10:07:17Z</time>
      </trkpt>
      <trkpt lat="45.95984" lon="4.76955">
        <ele>196</ele>
        <time>2018-08-26T10:07:18Z</time>
      </trkpt>
      <trkpt lat="45.95982" lon="4.7694">
        <ele>196</ele>
        <time>2018-08-26T10:07:19Z</time>
      </trkpt>
      <trkpt lat="45.95974" lon="4.76929">
        <ele>195</ele>
        <time>2018-08-26T10:07:20Z</time>
      </trkpt>
      <trkpt lat="45.95968" lon="4.76921">
        <ele>195</ele>
        <time>2018-08-26T10:07:21Z</time>
      </trkpt>
      <trkpt lat="45.9596" lon="4.76912">
        <ele>193</ele>
        <time>2018-08-26T10:07:22Z</time>
      </trkpt>
      <trkpt lat="45.95948" lon="4.76904">
        <ele>193</ele>
        <time>2018-08-26T10:07:23Z</time>
      </trkpt>
      <trkpt lat="45.9594" lon="4.76895">
        <ele>192</ele>
        <time>2018-08-26T10:07:24Z</time>
      </trkpt>
      <trkpt lat="45.95933" lon="4.76889">
        <ele>192</ele>
        <time>2018-08-26T10:07:25Z</time>
      </trkpt>
      <trkpt lat="45.95927" lon="4.7688">
        <ele>192</ele>
        <time>2018-08-26T10:07:26Z</time>
      </trkpt>
      <trkpt lat="45.95917" lon="4.76871">
        <ele>191</ele>
        <time>2018-08-26T10:07:27Z</time>
      </trkpt>
      <trkpt lat="45.95908" lon="4.76861">
        <ele>191</ele>
        <time>2018-08-26T10:07:28Z</time>
      </trkpt>
      <trkpt lat="45.95901" lon="4.76853">
        <ele>191</ele>
        <time>2018-08-26T10:07:29Z</time>
      </trkpt>
      <trkpt lat="45.95893" lon="4.76844">
        <ele>191</ele>
        <time>2018-08-26T10:07:30Z</time>
      </trkpt>
      <trkpt lat="45.95886" lon="4.76834">
        <ele>191</ele>
        <time>2018-08-26T10:07:31Z</time>
      </trkpt>
      <trkpt lat="45.95878" lon="4.76826">
        <ele>191</ele>
        <time>2018-08-26T10:07:32Z</time>
      </trkpt>
      <trkpt lat="45.95869" lon="4.76818">
        <ele>191</ele>
        <time>2018-08-26T10:07:33Z</time>
      </trkpt>
      <trkpt lat="45.95861" lon="4.7681">
        <ele>191</ele>
        <time>2018-08-26T10:07:34Z</time>
      </trkpt>
      <trkpt lat="45.95853" lon="4.76803">
        <ele>191</ele>
        <time>2018-08-26T10:07:35Z</time>
      </trkpt>
      <trkpt lat="45.95847" lon="4.76796">
        <ele>191</ele>
        <time>2018-08-26T10:07:36Z</time>
      </trkpt>
      <trkpt lat="45.95841" lon="4.76787">
        <ele>191</ele>
        <time>2018-08-26T10:07:37Z</time>
      </trkpt>
      <trkpt lat="45.95836" lon="4.76776">
        <ele>191</ele>
        <time>2018-08-26T10:07:38Z</time>
      </trkpt>
      <trkpt lat="45.95833" lon="4.76766">
        <ele>191</ele>
        <time>2018-08-26T10:07:39Z</time>
      </trkpt>
      <trkpt lat="45.95831" lon="4.76754">
        <ele>191</ele>
        <time>2018-08-26T10:07:40Z</time>
      </trkpt>
      <trkpt lat="45.95829" lon="4.76743">
        <ele>190</ele>
        <time>2018-08-26T10:07:41Z</time>
      </trkpt>
      <trkpt lat="45.95827" lon="4.76732">
        <ele>190</ele>
        <time>2018-08-26T10:07:42Z</time>
      </trkpt>
      <trkpt lat="45.95824" lon="4.76721">
        <ele>189</ele>
        <time>2018-08-26T10:07:43Z</time>
      </trkpt>
      <trkpt lat="45.95822" lon="4.76711">
        <ele>189</ele>
        <time>2018-08-26T10:07:44Z</time>
      </trkpt>
      <trkpt lat="45.95819" lon="4.76699">
        <ele>189</ele>
        <time>2018-08-26T10:07:45Z</time>
      </trkpt>
      <trkpt lat="45.95818" lon="4.7669">
        <ele>189</ele>
        <time>2018-08-26T10:07:46Z</time>
      </trkpt>
      <trkpt lat="45.95817" lon="4.76679">
        <ele>189</ele>
        <time>2018-08-26T10:07:47Z</time>
      </trkpt>
      <trkpt lat="45.95818" lon="4.76672">
        <ele>188</ele>
        <time>2018-08-26T10:07:48Z</time>
      </trkpt>
      <trkpt lat="45.95816" lon="4.76661">
        <ele>188</ele>
        <time>2018-08-26T10:07:49Z</time>
      </trkpt>
      <trkpt lat="45.95815" lon="4.7665">
        <ele>188</ele>
        <time>2018-08-26T10:07:50Z</time>
      </trkpt>
      <trkpt lat="45.95812" lon="4.76642">
        <ele>188</ele>
        <time>2018-08-26T10:07:51Z</time>
      </trkpt>
      <trkpt lat="45.95812" lon="4.76633">
        <ele>188</ele>
        <time>2018-08-26T10:07:52Z</time>
      </trkpt>
      <trkpt lat="45.95811" lon="4.76624">
        <ele>188</ele>
        <time>2018-08-26T10:07:53Z</time>
      </trkpt>
      <trkpt lat="45.95809" lon="4.76616">
        <ele>188</ele>
        <time>2018-08-26T10:07:54Z</time>
      </trkpt>
      <trkpt lat="45.95807" lon="4.76609">
        <ele>188</ele>
        <time>2018-08-26T10:07:55Z</time>
      </trkpt>
      <trkpt lat="45.95806" lon="4.76601">
        <ele>188</ele>
        <time>2018-08-26T10:07:56Z</time>
      </trkpt>
      <trkpt lat="45.95803" lon="4.76592">
        <ele>187</ele>
        <time>2018-08-26T10:07:57Z</time>
      </trkpt>
      <trkpt lat="45.95802" lon="4.76584">
        <ele>187</ele>
        <time>2018-08-26T10:07:58Z</time>
      </trkpt>
      <trkpt lat="45.95801" lon="4.76576">
        <ele>187</ele>
        <time>2018-08-26T10:07:59Z</time>
      </trkpt>
      <trkpt lat="45.95801" lon="4.76568">
        <ele>187</ele>
        <time>2018-08-26T10:08:00Z</time>
      </trkpt>
      <trkpt lat="45.958" lon="4.76558">
        <ele>187</ele>
        <time>2018-08-26T10:08:01Z</time>
      </trkpt>
      <trkpt lat="45.95798" lon="4.7655">
        <ele>187</ele>
        <time>2018-08-26T10:08:02Z</time>
      </trkpt>
      <trkpt lat="45.95798" lon="4.76541">
        <ele>187</ele>
        <time>2018-08-26T10:08:03Z</time>
      </trkpt>
      <trkpt lat="45.95795" lon="4.76531">
        <ele>187</ele>
        <time>2018-08-26T10:08:04Z</time>
      </trkpt>
      <trkpt lat="45.95793" lon="4.76521">
        <ele>187</ele>
        <time>2018-08-26T10:08:05Z</time>
      </trkpt>
      <trkpt lat="45.95792" lon="4.76513">
        <ele>187</ele>
        <time>2018-08-26T10:08:06Z</time>
      </trkpt>
      <trkpt lat="45.95791" lon="4.76505">
        <ele>187</ele>
        <time>2018-08-26T10:08:07Z</time>
      </trkpt>
      <trkpt lat="45.95791" lon="4.76496">
        <ele>186</ele>
        <time>2018-08-26T10:08:08Z</time>
      </trkpt>
      <trkpt lat="45.9579" lon="4.76488">
        <ele>186</ele>
        <time>2018-08-26T10:08:09Z</time>
      </trkpt>
      <trkpt lat="45.95792" lon="4.76476">
        <ele>187</ele>
        <time>2018-08-26T10:08:11Z</time>
      </trkpt>
      <trkpt lat="45.9579" lon="4.76468">
        <ele>186</ele>
        <time>2018-08-26T10:08:12Z</time>
      </trkpt>
      <trkpt lat="45.95789" lon="4.76461">
        <ele>186</ele>
        <time>2018-08-26T10:08:13Z</time>
      </trkpt>
      <trkpt lat="45.95787" lon="4.76453">
        <ele>186</ele>
        <time>2018-08-26T10:08:14Z</time>
      </trkpt>
      <trkpt lat="45.95787" lon="4.76444">
        <ele>186</ele>
        <time>2018-08-26T10:08:15Z</time>
      </trkpt>
      <trkpt lat="45.95787" lon="4.76435">
        <ele>186</ele>
        <time>2018-08-26T10:08:16Z</time>
      </trkpt>
      <trkpt lat="45.95786" lon="4.76427">
        <ele>186</ele>
        <time>2018-08-26T10:08:17Z</time>
      </trkpt>
      <trkpt lat="45.95784" lon="4.76419">
        <ele>186</ele>
        <time>2018-08-26T10:08:18Z</time>
      </trkpt>
      <trkpt lat="45.95783" lon="4.7641">
        <ele>186</ele>
        <time>2018-08-26T10:08:19Z</time>
      </trkpt>
      <trkpt lat="45.95782" lon="4.764">
        <ele>186</ele>
        <time>2018-08-26T10:08:20Z</time>
      </trkpt>
      <trkpt lat="45.95781" lon="4.76392">
        <ele>186</ele>
        <time>2018-08-26T10:08:21Z</time>
      </trkpt>
      <trkpt lat="45.95779" lon="4.76385">
        <ele>186</ele>
        <time>2018-08-26T10:08:22Z</time>
      </trkpt>
      <trkpt lat="45.95779" lon="4.76377">
        <ele>186</ele>
        <time>2018-08-26T10:08:23Z</time>
      </trkpt>
      <trkpt lat="45.95779" lon="4.76368">
        <ele>186</ele>
        <time>2018-08-26T10:08:24Z</time>
      </trkpt>
      <trkpt lat="45.95779" lon="4.7636">
        <ele>186</ele>
        <time>2018-08-26T10:08:25Z</time>
      </trkpt>
      <trkpt lat="45.95778" lon="4.76352">
        <ele>186</ele>
        <time>2018-08-26T10:08:26Z</time>
      </trkpt>
      <trkpt lat="45.95778" lon="4.76339">
        <ele>186</ele>
        <time>2018-08-26T10:08:28Z</time>
      </trkpt>
      <trkpt lat="45.95778" lon="4.7633">
        <ele>186</ele>
        <time>2018-08-26T10:08:29Z</time>
      </trkpt>
      <trkpt lat="45.95778" lon="4.76322">
        <ele>186</ele>
        <time>2018-08-26T10:08:30Z</time>
      </trkpt>
      <trkpt lat="45.95778" lon="4.76315">
        <ele>186</ele>
        <time>2018-08-26T10:08:31Z</time>
      </trkpt>
      <trkpt lat="45.95777" lon="4.76308">
        <ele>186</ele>
        <time>2018-08-26T10:08:32Z</time>
      </trkpt>
      <trkpt lat="45.95776" lon="4.76301">
        <ele>186</ele>
        <time>2018-08-26T10:08:33Z</time>
      </trkpt>
      <trkpt lat="45.95775" lon="4.76294">
        <ele>186</ele>
        <time>2018-08-26T10:08:34Z</time>
      </trkpt>
      <trkpt lat="45.95774" lon="4.76288">
        <ele>186</ele>
        <time>2018-08-26T10:08:35Z</time>
      </trkpt>
      <trkpt lat="45.95775" lon="4.7628">
        <ele>186</ele>
        <time>2018-08-26T10:08:36Z</time>
      </trkpt>
      <trkpt lat="45.95774" lon="4.76272">
        <ele>186</ele>
        <time>2018-08-26T10:08:37Z</time>
      </trkpt>
      <trkpt lat="45.95773" lon="4.76265">
        <ele>186</ele>
        <time>2018-08-26T10:08:38Z</time>
      </trkpt>
      <trkpt lat="45.95773" lon="4.76257">
        <ele>186</ele>
        <time>2018-08-26T10:08:39Z</time>
      </trkpt>
      <trkpt lat="45.95772" lon="4.7625">
        <ele>186</ele>
        <time>2018-08-26T10:08:40Z</time>
      </trkpt>
      <trkpt lat="45.95772" lon="4.76242">
        <ele>186</ele>
        <time>2018-08-26T10:08:41Z</time>
      </trkpt>
      <trkpt lat="45.95772" lon="4.76235">
        <ele>186</ele>
        <time>2018-08-26T10:08:42Z</time>
      </trkpt>
      <trkpt lat="45.95771" lon="4.76226">
        <ele>186</ele>
        <time>2018-08-26T10:08:43Z</time>
      </trkpt>
      <trkpt lat="45.9577" lon="4.76218">
        <ele>186</ele>
        <time>2018-08-26T10:08:44Z</time>
      </trkpt>
      <trkpt lat="45.95768" lon="4.76208">
        <ele>186</ele>
        <time>2018-08-26T10:08:45Z</time>
      </trkpt>
      <trkpt lat="45.95769" lon="4.76198">
        <ele>186</ele>
        <time>2018-08-26T10:08:46Z</time>
      </trkpt>
      <trkpt lat="45.9577" lon="4.76189">
        <ele>186</ele>
        <time>2018-08-26T10:08:47Z</time>
      </trkpt>
      <trkpt lat="45.95768" lon="4.76181">
        <ele>186</ele>
        <time>2018-08-26T10:08:48Z</time>
      </trkpt>
      <trkpt lat="45.95768" lon="4.76174">
        <ele>186</ele>
        <time>2018-08-26T10:08:49Z</time>
      </trkpt>
      <trkpt lat="45.95767" lon="4.76166">
        <ele>186</ele>
        <time>2018-08-26T10:08:50Z</time>
      </trkpt>
      <trkpt lat="45.95766" lon="4.76159">
        <ele>186</ele>
        <time>2018-08-26T10:08:51Z</time>
      </trkpt>
      <trkpt lat="45.95765" lon="4.76146">
        <ele>186</ele>
        <time>2018-08-26T10:08:53Z</time>
      </trkpt>
      <trkpt lat="45.95765" lon="4.7614">
        <ele>186</ele>
        <time>2018-08-26T10:08:54Z</time>
      </trkpt>
      <trkpt lat="45.95765" lon="4.76133">
        <ele>186</ele>
        <time>2018-08-26T10:08:55Z</time>
      </trkpt>
      <trkpt lat="45.95764" lon="4.76124">
        <ele>186</ele>
        <time>2018-08-26T10:08:56Z</time>
      </trkpt>
      <trkpt lat="45.95762" lon="4.76116">
        <ele>186</ele>
        <time>2018-08-26T10:08:57Z</time>
      </trkpt>
      <trkpt lat="45.95761" lon="4.7611">
        <ele>186</ele>
        <time>2018-08-26T10:08:58Z</time>
      </trkpt>
      <trkpt lat="45.95759" lon="4.76103">
        <ele>186</ele>
        <time>2018-08-26T10:08:59Z</time>
      </trkpt>
      <trkpt lat="45.95757" lon="4.76096">
        <ele>186</ele>
        <time>2018-08-26T10:09:00Z</time>
      </trkpt>
      <trkpt lat="45.95756" lon="4.76089">
        <ele>185</ele>
        <time>2018-08-26T10:09:01Z</time>
      </trkpt>
      <trkpt lat="45.95752" lon="4.76081">
        <ele>185</ele>
        <time>2018-08-26T10:09:02Z</time>
      </trkpt>
      <trkpt lat="45.9575" lon="4.76073">
        <ele>185</ele>
        <time>2018-08-26T10:09:03Z</time>
      </trkpt>
      <trkpt lat="45.95746" lon="4.76065">
        <ele>185</ele>
        <time>2018-08-26T10:09:04Z</time>
      </trkpt>
      <trkpt lat="45.95742" lon="4.76058">
        <ele>184</ele>
        <time>2018-08-26T10:09:05Z</time>
      </trkpt>
      <trkpt lat="45.95739" lon="4.7605">
        <ele>184</ele>
        <time>2018-08-26T10:09:06Z</time>
      </trkpt>
      <trkpt lat="45.95737" lon="4.76043">
        <ele>184</ele>
        <time>2018-08-26T10:09:07Z</time>
      </trkpt>
      <trkpt lat="45.95733" lon="4.76036">
        <ele>184</ele>
        <time>2018-08-26T10:09:08Z</time>
      </trkpt>
      <trkpt lat="45.9573" lon="4.76029">
        <ele>184</ele>
        <time>2018-08-26T10:09:09Z</time>
      </trkpt>
      <trkpt lat="45.95726" lon="4.76021">
        <ele>185</ele>
        <time>2018-08-26T10:09:10Z</time>
      </trkpt>
      <trkpt lat="45.95722" lon="4.76014">
        <ele>185</ele>
        <time>2018-08-26T10:09:11Z</time>
      </trkpt>
      <trkpt lat="45.95719" lon="4.76005">
        <ele>184</ele>
        <time>2018-08-26T10:09:12Z</time>
      </trkpt>
      <trkpt lat="45.95713" lon="4.75999">
        <ele>185</ele>
        <time>2018-08-26T10:09:13Z</time>
      </trkpt>
      <trkpt lat="45.95709" lon="4.75992">
        <ele>185</ele>
        <time>2018-08-26T10:09:14Z</time>
      </trkpt>
      <trkpt lat="45.95705" lon="4.75984">
        <ele>185</ele>
        <time>2018-08-26T10:09:15Z</time>
      </trkpt>
      <trkpt lat="45.95701" lon="4.75976">
        <ele>185</ele>
        <time>2018-08-26T10:09:16Z</time>
      </trkpt>
      <trkpt lat="45.95698" lon="4.75967">
        <ele>185</ele>
        <time>2018-08-26T10:09:17Z</time>
      </trkpt>
      <trkpt lat="45.95694" lon="4.75959">
        <ele>185</ele>
        <time>2018-08-26T10:09:18Z</time>
      </trkpt>
      <trkpt lat="45.95691" lon="4.75951">
        <ele>185</ele>
        <time>2018-08-26T10:09:19Z</time>
      </trkpt>
      <trkpt lat="45.95689" lon="4.75943">
        <ele>185</ele>
        <time>2018-08-26T10:09:20Z</time>
      </trkpt>
      <trkpt lat="45.95686" lon="4.75935">
        <ele>185</ele>
        <time>2018-08-26T10:09:21Z</time>
      </trkpt>
      <trkpt lat="45.95683" lon="4.75927">
        <ele>185</ele>
        <time>2018-08-26T10:09:22Z</time>
      </trkpt>
      <trkpt lat="45.95679" lon="4.75919">
        <ele>185</ele>
        <time>2018-08-26T10:09:23Z</time>
      </trkpt>
      <trkpt lat="45.95677" lon="4.75913">
        <ele>185</ele>
        <time>2018-08-26T10:09:24Z</time>
      </trkpt>
      <trkpt lat="45.95677" lon="4.75905">
        <ele>185</ele>
        <time>2018-08-26T10:09:25Z</time>
      </trkpt>
      <trkpt lat="45.95673" lon="4.75897">
        <ele>186</ele>
        <time>2018-08-26T10:09:26Z</time>
      </trkpt>
      <trkpt lat="45.9567" lon="4.7589">
        <ele>186</ele>
        <time>2018-08-26T10:09:27Z</time>
      </trkpt>
      <trkpt lat="45.95668" lon="4.75882">
        <ele>186</ele>
        <time>2018-08-26T10:09:28Z</time>
      </trkpt>
      <trkpt lat="45.95663" lon="4.75874">
        <ele>184</ele>
        <time>2018-08-26T10:09:29Z</time>
      </trkpt>
      <trkpt lat="45.9566" lon="4.75867">
        <ele>184</ele>
        <time>2018-08-26T10:09:30Z</time>
      </trkpt>
      <trkpt lat="45.95658" lon="4.75859">
        <ele>184</ele>
        <time>2018-08-26T10:09:31Z</time>
      </trkpt>
      <trkpt lat="45.95657" lon="4.7585">
        <ele>185</ele>
        <time>2018-08-26T10:09:32Z</time>
      </trkpt>
      <trkpt lat="45.95655" lon="4.75842">
        <ele>185</ele>
        <time>2018-08-26T10:09:33Z</time>
      </trkpt>
      <trkpt lat="45.95654" lon="4.75835">
        <ele>185</ele>
        <time>2018-08-26T10:09:34Z</time>
      </trkpt>
      <trkpt lat="45.95653" lon="4.75827">
        <ele>185</ele>
        <time>2018-08-26T10:09:35Z</time>
      </trkpt>
      <trkpt lat="45.95651" lon="4.75819">
        <ele>185</ele>
        <time>2018-08-26T10:09:36Z</time>
      </trkpt>
      <trkpt lat="45.9565" lon="4.75811">
        <ele>185</ele>
        <time>2018-08-26T10:09:37Z</time>
      </trkpt>
      <trkpt lat="45.95648" lon="4.75803">
        <ele>185</ele>
        <time>2018-08-26T10:09:38Z</time>
      </trkpt>
      <trkpt lat="45.95647" lon="4.75795">
        <ele>185</ele>
        <time>2018-08-26T10:09:39Z</time>
      </trkpt>
      <trkpt lat="45.95642" lon="4.75786">
        <ele>185</ele>
        <time>2018-08-26T10:09:40Z</time>
      </trkpt>
      <trkpt lat="45.95642" lon="4.75778">
        <ele>186</ele>
        <time>2018-08-26T10:09:41Z</time>
      </trkpt>
      <trkpt lat="45.95642" lon="4.75771">
        <ele>186</ele>
        <time>2018-08-26T10:09:42Z</time>
      </trkpt>
      <trkpt lat="45.95637" lon="4.75764">
        <ele>186</ele>
        <time>2018-08-26T10:09:43Z</time>
      </trkpt>
      <trkpt lat="45.95634" lon="4.75755">
        <ele>186</ele>
        <time>2018-08-26T10:09:44Z</time>
      </trkpt>
      <trkpt lat="45.95633" lon="4.75747">
        <ele>187</ele>
        <time>2018-08-26T10:09:45Z</time>
      </trkpt>
      <trkpt lat="45.95633" lon="4.75737">
        <ele>187</ele>
        <time>2018-08-26T10:09:46Z</time>
      </trkpt>
      <trkpt lat="45.95633" lon="4.7573">
        <ele>187</ele>
        <time>2018-08-26T10:09:47Z</time>
      </trkpt>
      <trkpt lat="45.95632" lon="4.7572">
        <ele>187</ele>
        <time>2018-08-26T10:09:48Z</time>
      </trkpt>
      <trkpt lat="45.9563" lon="4.75712">
        <ele>187</ele>
        <time>2018-08-26T10:09:49Z</time>
      </trkpt>
      <trkpt lat="45.9563" lon="4.75704">
        <ele>187</ele>
        <time>2018-08-26T10:09:50Z</time>
      </trkpt>
      <trkpt lat="45.95629" lon="4.75696">
        <ele>187</ele>
        <time>2018-08-26T10:09:51Z</time>
      </trkpt>
      <trkpt lat="45.95628" lon="4.75687">
        <ele>187</ele>
        <time>2018-08-26T10:09:52Z</time>
      </trkpt>
      <trkpt lat="45.95627" lon="4.75679">
        <ele>187</ele>
        <time>2018-08-26T10:09:53Z</time>
      </trkpt>
      <trkpt lat="45.95625" lon="4.75671">
        <ele>187</ele>
        <time>2018-08-26T10:09:54Z</time>
      </trkpt>
      <trkpt lat="45.95624" lon="4.75664">
        <ele>188</ele>
        <time>2018-08-26T10:09:55Z</time>
      </trkpt>
      <trkpt lat="45.95623" lon="4.75656">
        <ele>188</ele>
        <time>2018-08-26T10:09:56Z</time>
      </trkpt>
      <trkpt lat="45.95622" lon="4.75649">
        <ele>188</ele>
        <time>2018-08-26T10:09:57Z</time>
      </trkpt>
      <trkpt lat="45.9562" lon="4.75644">
        <ele>188</ele>
        <time>2018-08-26T10:09:58Z</time>
      </trkpt>
      <trkpt lat="45.95618" lon="4.75636">
        <ele>188</ele>
        <time>2018-08-26T10:09:59Z</time>
      </trkpt>
      <trkpt lat="45.95615" lon="4.75628">
        <ele>188</ele>
        <time>2018-08-26T10:10:00Z</time>
      </trkpt>
      <trkpt lat="45.95613" lon="4.75621">
        <ele>188</ele>
        <time>2018-08-26T10:10:01Z</time>
      </trkpt>
      <trkpt lat="45.9561" lon="4.75614">
        <ele>188</ele>
        <time>2018-08-26T10:10:02Z</time>
      </trkpt>
      <trkpt lat="45.95607" lon="4.75606">
        <ele>188</ele>
        <time>2018-08-26T10:10:03Z</time>
      </trkpt>
      <trkpt lat="45.95605" lon="4.75598">
        <ele>187</ele>
        <time>2018-08-26T10:10:04Z</time>
      </trkpt>
      <trkpt lat="45.95602" lon="4.75591">
        <ele>187</ele>
        <time>2018-08-26T10:10:05Z</time>
      </trkpt>
      <trkpt lat="45.95599" lon="4.75583">
        <ele>188</ele>
        <time>2018-08-26T10:10:06Z</time>
      </trkpt>
      <trkpt lat="45.95596" lon="4.75576">
        <ele>188</ele>
        <time>2018-08-26T10:10:07Z</time>
      </trkpt>
      <trkpt lat="45.95593" lon="4.7557">
        <ele>188</ele>
        <time>2018-08-26T10:10:08Z</time>
      </trkpt>
      <trkpt lat="45.9559" lon="4.75563">
        <ele>188</ele>
        <time>2018-08-26T10:10:09Z</time>
      </trkpt>
      <trkpt lat="45.95588" lon="4.75558">
        <ele>188</ele>
        <time>2018-08-26T10:10:10Z</time>
      </trkpt>
      <trkpt lat="45.95586" lon="4.75553">
        <ele>188</ele>
        <time>2018-08-26T10:10:11Z</time>
      </trkpt>
      <trkpt lat="45.9558" lon="4.75548">
        <ele>186</ele>
        <time>2018-08-26T10:10:12Z</time>
      </trkpt>
      <trkpt lat="45.95572" lon="4.75544">
        <ele>186</ele>
        <time>2018-08-26T10:10:13Z</time>
      </trkpt>
      <trkpt lat="45.95568" lon="4.75538">
        <ele>186</ele>
        <time>2018-08-26T10:10:14Z</time>
      </trkpt>
      <trkpt lat="45.95564" lon="4.75533">
        <ele>186</ele>
        <time>2018-08-26T10:10:15Z</time>
      </trkpt>
      <trkpt lat="45.95559" lon="4.75528">
        <ele>186</ele>
        <time>2018-08-26T10:10:16Z</time>
      </trkpt>
      <trkpt lat="45.95553" lon="4.75521">
        <ele>186</ele>
        <time>2018-08-26T10:10:17Z</time>
      </trkpt>
      <trkpt lat="45.95551" lon="4.75516">
        <ele>186</ele>
        <time>2018-08-26T10:10:18Z</time>
      </trkpt>
      <trkpt lat="45.95547" lon="4.7551">
        <ele>186</ele>
        <time>2018-08-26T10:10:19Z</time>
      </trkpt>
      <trkpt lat="45.95542" lon="4.75504">
        <ele>186</ele>
        <time>2018-08-26T10:10:20Z</time>
      </trkpt>
      <trkpt lat="45.95544" lon="4.75493">
        <ele>187</ele>
        <time>2018-08-26T10:10:22Z</time>
      </trkpt>
      <trkpt lat="45.9555" lon="4.75485">
        <ele>188</ele>
        <time>2018-08-26T10:10:23Z</time>
      </trkpt>
      <trkpt lat="45.95545" lon="4.75478">
        <ele>187</ele>
        <time>2018-08-26T10:10:24Z</time>
      </trkpt>
      <trkpt lat="45.95542" lon="4.75472">
        <ele>187</ele>
        <time>2018-08-26T10:10:25Z</time>
      </trkpt>
      <trkpt lat="45.9554" lon="4.75466">
        <ele>187</ele>
        <time>2018-08-26T10:10:26Z</time>
      </trkpt>
      <trkpt lat="45.95536" lon="4.75459">
        <ele>187</ele>
        <time>2018-08-26T10:10:27Z</time>
      </trkpt>
      <trkpt lat="45.95533" lon="4.75453">
        <ele>187</ele>
        <time>2018-08-26T10:10:28Z</time>
      </trkpt>
      <trkpt lat="45.95529" lon="4.75447">
        <ele>187</ele>
        <time>2018-08-26T10:10:29Z</time>
      </trkpt>
      <trkpt lat="45.95524" lon="4.75441">
        <ele>187</ele>
        <time>2018-08-26T10:10:30Z</time>
      </trkpt>
      <trkpt lat="45.9552" lon="4.75434">
        <ele>187</ele>
        <time>2018-08-26T10:10:31Z</time>
      </trkpt>
      <trkpt lat="45.95513" lon="4.75427">
        <ele>186</ele>
        <time>2018-08-26T10:10:32Z</time>
      </trkpt>
      <trkpt lat="45.95511" lon="4.7542">
        <ele>186</ele>
        <time>2018-08-26T10:10:33Z</time>
      </trkpt>
      <trkpt lat="45.95506" lon="4.75412">
        <ele>186</ele>
        <time>2018-08-26T10:10:34Z</time>
      </trkpt>
      <trkpt lat="45.95504" lon="4.75404">
        <ele>187</ele>
        <time>2018-08-26T10:10:35Z</time>
      </trkpt>
      <trkpt lat="45.95501" lon="4.75398">
        <ele>187</ele>
        <time>2018-08-26T10:10:36Z</time>
      </trkpt>
      <trkpt lat="45.95499" lon="4.75389">
        <ele>185</ele>
        <time>2018-08-26T10:10:37Z</time>
      </trkpt>
      <trkpt lat="45.95497" lon="4.75382">
        <ele>185</ele>
        <time>2018-08-26T10:10:38Z</time>
      </trkpt>
      <trkpt lat="45.95494" lon="4.75375">
        <ele>185</ele>
        <time>2018-08-26T10:10:39Z</time>
      </trkpt>
      <trkpt lat="45.95491" lon="4.75369">
        <ele>186</ele>
        <time>2018-08-26T10:10:40Z</time>
      </trkpt>
      <trkpt lat="45.95486" lon="4.75361">
        <ele>186</ele>
        <time>2018-08-26T10:10:41Z</time>
      </trkpt>
      <trkpt lat="45.95482" lon="4.75354">
        <ele>186</ele>
        <time>2018-08-26T10:10:42Z</time>
      </trkpt>
      <trkpt lat="45.95478" lon="4.75348">
        <ele>186</ele>
        <time>2018-08-26T10:10:43Z</time>
      </trkpt>
      <trkpt lat="45.95476" lon="4.7534">
        <ele>186</ele>
        <time>2018-08-26T10:10:44Z</time>
      </trkpt>
      <trkpt lat="45.95472" lon="4.75332">
        <ele>188</ele>
        <time>2018-08-26T10:10:45Z</time>
      </trkpt>
      <trkpt lat="45.95468" lon="4.75326">
        <ele>188</ele>
        <time>2018-08-26T10:10:46Z</time>
      </trkpt>
      <trkpt lat="45.95465" lon="4.7532">
        <ele>188</ele>
        <time>2018-08-26T10:10:47Z</time>
      </trkpt>
      <trkpt lat="45.9546" lon="4.75309">
        <ele>188</ele>
        <time>2018-08-26T10:10:49Z</time>
      </trkpt>
      <trkpt lat="45.95457" lon="4.75302">
        <ele>188</ele>
        <time>2018-08-26T10:10:50Z</time>
      </trkpt>
      <trkpt lat="45.95455" lon="4.75298">
        <ele>188</ele>
        <time>2018-08-26T10:10:51Z</time>
      </trkpt>
      <trkpt lat="45.95451" lon="4.75292">
        <ele>188</ele>
        <time>2018-08-26T10:10:52Z</time>
      </trkpt>
      <trkpt lat="45.95448" lon="4.75286">
        <ele>188</ele>
        <time>2018-08-26T10:10:53Z</time>
      </trkpt>
      <trkpt lat="45.95446" lon="4.7528">
        <ele>189</ele>
        <time>2018-08-26T10:10:54Z</time>
      </trkpt>
      <trkpt lat="45.95443" lon="4.75274">
        <ele>189</ele>
        <time>2018-08-26T10:10:55Z</time>
      </trkpt>
      <trkpt lat="45.95439" lon="4.75267">
        <ele>189</ele>
        <time>2018-08-26T10:10:56Z</time>
      </trkpt>
      <trkpt lat="45.95436" lon="4.7526">
        <ele>189</ele>
        <time>2018-08-26T10:10:57Z</time>
      </trkpt>
      <trkpt lat="45.95433" lon="4.75254">
        <ele>189</ele>
        <time>2018-08-26T10:10:58Z</time>
      </trkpt>
      <trkpt lat="45.9543" lon="4.75247">
        <ele>190</ele>
        <time>2018-08-26T10:10:59Z</time>
      </trkpt>
      <trkpt lat="45.95426" lon="4.75241">
        <ele>190</ele>
        <time>2018-08-26T10:11:00Z</time>
      </trkpt>
      <trkpt lat="45.95422" lon="4.75234">
        <ele>190</ele>
        <time>2018-08-26T10:11:01Z</time>
      </trkpt>
      <trkpt lat="45.95422" lon="4.75227">
        <ele>191</ele>
        <time>2018-08-26T10:11:02Z</time>
      </trkpt>
      <trkpt lat="45.95418" lon="4.7522">
        <ele>191</ele>
        <time>2018-08-26T10:11:03Z</time>
      </trkpt>
      <trkpt lat="45.95414" lon="4.75214">
        <ele>189</ele>
        <time>2018-08-26T10:11:04Z</time>
      </trkpt>
      <trkpt lat="45.95407" lon="4.75208">
        <ele>189</ele>
        <time>2018-08-26T10:11:05Z</time>
      </trkpt>
      <trkpt lat="45.95404" lon="4.75201">
        <ele>189</ele>
        <time>2018-08-26T10:11:06Z</time>
      </trkpt>
      <trkpt lat="45.954" lon="4.75194">
        <ele>189</ele>
        <time>2018-08-26T10:11:07Z</time>
      </trkpt>
      <trkpt lat="45.95397" lon="4.75188">
        <ele>189</ele>
        <time>2018-08-26T10:11:08Z</time>
      </trkpt>
      <trkpt lat="45.95392" lon="4.75181">
        <ele>189</ele>
        <time>2018-08-26T10:11:09Z</time>
      </trkpt>
      <trkpt lat="45.95389" lon="4.75176">
        <ele>189</ele>
        <time>2018-08-26T10:11:10Z</time>
      </trkpt>
      <trkpt lat="45.95386" lon="4.75171">
        <ele>189</ele>
        <time>2018-08-26T10:11:11Z</time>
      </trkpt>
      <trkpt lat="45.95383" lon="4.75165">
        <ele>191</ele>
        <time>2018-08-26T10:11:12Z</time>
      </trkpt>
      <trkpt lat="45.95379" lon="4.7516">
        <ele>191</ele>
        <time>2018-08-26T10:11:13Z</time>
      </trkpt>
      <trkpt lat="45.95375" lon="4.75154">
        <ele>191</ele>
        <time>2018-08-26T10:11:14Z</time>
      </trkpt>
      <trkpt lat="45.95371" lon="4.75147">
        <ele>191</ele>
        <time>2018-08-26T10:11:15Z</time>
      </trkpt>
      <trkpt lat="45.95368" lon="4.75141">
        <ele>191</ele>
        <time>2018-08-26T10:11:16Z</time>
      </trkpt>
      <trkpt lat="45.95365" lon="4.75136">
        <ele>191</ele>
        <time>2018-08-26T10:11:17Z</time>
      </trkpt>
      <trkpt lat="45.9536" lon="4.75131">
        <ele>191</ele>
        <time>2018-08-26T10:11:18Z</time>
      </trkpt>
      <trkpt lat="45.95353" lon="4.75125">
        <ele>191</ele>
        <time>2018-08-26T10:11:20Z</time>
      </trkpt>
      <trkpt lat="45.9535" lon="4.7512">
        <ele>191</ele>
        <time>2018-08-26T10:11:21Z</time>
      </trkpt>
      <trkpt lat="45.95346" lon="4.75113">
        <ele>192</ele>
        <time>2018-08-26T10:11:22Z</time>
      </trkpt>
      <trkpt lat="45.95346" lon="4.75108">
        <ele>192</ele>
        <time>2018-08-26T10:11:23Z</time>
      </trkpt>
      <trkpt lat="45.95343" lon="4.75102">
        <ele>192</ele>
        <time>2018-08-26T10:11:24Z</time>
      </trkpt>
      <trkpt lat="45.9534" lon="4.75097">
        <ele>192</ele>
        <time>2018-08-26T10:11:25Z</time>
      </trkpt>
      <trkpt lat="45.95336" lon="4.75091">
        <ele>193</ele>
        <time>2018-08-26T10:11:26Z</time>
      </trkpt>
      <trkpt lat="45.95334" lon="4.75086">
        <ele>193</ele>
        <time>2018-08-26T10:11:27Z</time>
      </trkpt>
      <trkpt lat="45.95331" lon="4.75081">
        <ele>193</ele>
        <time>2018-08-26T10:11:28Z</time>
      </trkpt>
      <trkpt lat="45.95325" lon="4.75076">
        <ele>192</ele>
        <time>2018-08-26T10:11:29Z</time>
      </trkpt>
      <trkpt lat="45.95321" lon="4.75072">
        <ele>192</ele>
        <time>2018-08-26T10:11:30Z</time>
      </trkpt>
      <trkpt lat="45.95318" lon="4.75065">
        <ele>192</ele>
        <time>2018-08-26T10:11:31Z</time>
      </trkpt>
      <trkpt lat="45.95313" lon="4.75056">
        <ele>192</ele>
        <time>2018-08-26T10:11:33Z</time>
      </trkpt>
      <trkpt lat="45.9531" lon="4.75051">
        <ele>192</ele>
        <time>2018-08-26T10:11:34Z</time>
      </trkpt>
      <trkpt lat="45.95307" lon="4.75046">
        <ele>192</ele>
        <time>2018-08-26T10:11:35Z</time>
      </trkpt>
      <trkpt lat="45.95303" lon="4.75042">
        <ele>191</ele>
        <time>2018-08-26T10:11:36Z</time>
      </trkpt>
      <trkpt lat="45.95299" lon="4.75037">
        <ele>191</ele>
        <time>2018-08-26T10:11:37Z</time>
      </trkpt>
      <trkpt lat="45.95295" lon="4.75031">
        <ele>191</ele>
        <time>2018-08-26T10:11:38Z</time>
      </trkpt>
      <trkpt lat="45.95291" lon="4.75027">
        <ele>191</ele>
        <time>2018-08-26T10:11:39Z</time>
      </trkpt>
      <trkpt lat="45.95288" lon="4.75023">
        <ele>191</ele>
        <time>2018-08-26T10:11:40Z</time>
      </trkpt>
      <trkpt lat="45.95284" lon="4.75017">
        <ele>191</ele>
        <time>2018-08-26T10:11:41Z</time>
      </trkpt>
      <trkpt lat="45.95282" lon="4.75012">
        <ele>191</ele>
        <time>2018-08-26T10:11:42Z</time>
      </trkpt>
      <trkpt lat="45.95277" lon="4.75007">
        <ele>191</ele>
        <time>2018-08-26T10:11:43Z</time>
      </trkpt>
      <trkpt lat="45.95274" lon="4.75002">
        <ele>191</ele>
        <time>2018-08-26T10:11:44Z</time>
      </trkpt>
      <trkpt lat="45.9527" lon="4.74991">
        <ele>192</ele>
        <time>2018-08-26T10:11:46Z</time>
      </trkpt>
      <trkpt lat="45.95269" lon="4.74986">
        <ele>192</ele>
        <time>2018-08-26T10:11:47Z</time>
      </trkpt>
      <trkpt lat="45.95265" lon="4.7498">
        <ele>192</ele>
        <time>2018-08-26T10:11:48Z</time>
      </trkpt>
      <trkpt lat="45.95262" lon="4.74975">
        <ele>192</ele>
        <time>2018-08-26T10:11:49Z</time>
      </trkpt>
      <trkpt lat="45.95257" lon="4.74966">
        <ele>192</ele>
        <time>2018-08-26T10:11:51Z</time>
      </trkpt>
      <trkpt lat="45.95255" lon="4.74961">
        <ele>192</ele>
        <time>2018-08-26T10:11:52Z</time>
      </trkpt>
      <trkpt lat="45.95252" lon="4.74956">
        <ele>192</ele>
        <time>2018-08-26T10:11:53Z</time>
      </trkpt>
      <trkpt lat="45.95249" lon="4.74951">
        <ele>192</ele>
        <time>2018-08-26T10:11:54Z</time>
      </trkpt>
      <trkpt lat="45.95245" lon="4.74945">
        <ele>192</ele>
        <time>2018-08-26T10:11:55Z</time>
      </trkpt>
      <trkpt lat="45.95242" lon="4.7494">
        <ele>192</ele>
        <time>2018-08-26T10:11:56Z</time>
      </trkpt>
      <trkpt lat="45.95238" lon="4.74933">
        <ele>192</ele>
        <time>2018-08-26T10:11:57Z</time>
      </trkpt>
      <trkpt lat="45.95233" lon="4.74928">
        <ele>192</ele>
        <time>2018-08-26T10:11:58Z</time>
      </trkpt>
      <trkpt lat="45.95226" lon="4.74919">
        <ele>192</ele>
        <time>2018-08-26T10:12:00Z</time>
      </trkpt>
      <trkpt lat="45.95224" lon="4.74914">
        <ele>193</ele>
        <time>2018-08-26T10:12:01Z</time>
      </trkpt>
      <trkpt lat="45.95219" lon="4.74909">
        <ele>193</ele>
        <time>2018-08-26T10:12:02Z</time>
      </trkpt>
      <trkpt lat="45.95216" lon="4.74903">
        <ele>193</ele>
        <time>2018-08-26T10:12:03Z</time>
      </trkpt>
      <trkpt lat="45.95211" lon="4.74898">
        <ele>193</ele>
        <time>2018-08-26T10:12:04Z</time>
      </trkpt>
      <trkpt lat="45.95208" lon="4.74893">
        <ele>194</ele>
        <time>2018-08-26T10:12:05Z</time>
      </trkpt>
      <trkpt lat="45.95205" lon="4.74887">
        <ele>194</ele>
        <time>2018-08-26T10:12:06Z</time>
      </trkpt>
      <trkpt lat="45.95202" lon="4.74882">
        <ele>194</ele>
        <time>2018-08-26T10:12:07Z</time>
      </trkpt>
      <trkpt lat="45.95198" lon="4.74877">
        <ele>194</ele>
        <time>2018-08-26T10:12:08Z</time>
      </trkpt>
      <trkpt lat="45.95195" lon="4.74871">
        <ele>194</ele>
        <time>2018-08-26T10:12:09Z</time>
      </trkpt>
      <trkpt lat="45.95191" lon="4.74864">
        <ele>194</ele>
        <time>2018-08-26T10:12:10Z</time>
      </trkpt>
      <trkpt lat="45.95188" lon="4.74858">
        <ele>194</ele>
        <time>2018-08-26T10:12:11Z</time>
      </trkpt>
      <trkpt lat="45.95184" lon="4.74853">
        <ele>194</ele>
        <time>2018-08-26T10:12:12Z</time>
      </trkpt>
      <trkpt lat="45.9518" lon="4.74847">
        <ele>194</ele>
        <time>2018-08-26T10:12:13Z</time>
      </trkpt>
      <trkpt lat="45.95177" lon="4.74842">
        <ele>194</ele>
        <time>2018-08-26T10:12:14Z</time>
      </trkpt>
      <trkpt lat="45.95173" lon="4.74837">
        <ele>194</ele>
        <time>2018-08-26T10:12:15Z</time>
      </trkpt>
      <trkpt lat="45.95169" lon="4.74832">
        <ele>194</ele>
        <time>2018-08-26T10:12:16Z</time>
      </trkpt>
      <trkpt lat="45.95166" lon="4.74826">
        <ele>194</ele>
        <time>2018-08-26T10:12:17Z</time>
      </trkpt>
      <trkpt lat="45.95162" lon="4.7482">
        <ele>194</ele>
        <time>2018-08-26T10:12:18Z</time>
      </trkpt>
      <trkpt lat="45.95159" lon="4.74814">
        <ele>194</ele>
        <time>2018-08-26T10:12:19Z</time>
      </trkpt>
      <trkpt lat="45.95157" lon="4.74808">
        <ele>194</ele>
        <time>2018-08-26T10:12:20Z</time>
      </trkpt>
      <trkpt lat="45.95154" lon="4.74803">
        <ele>194</ele>
        <time>2018-08-26T10:12:21Z</time>
      </trkpt>
      <trkpt lat="45.95149" lon="4.74794">
        <ele>194</ele>
        <time>2018-08-26T10:12:23Z</time>
      </trkpt>
      <trkpt lat="45.95145" lon="4.7479">
        <ele>194</ele>
        <time>2018-08-26T10:12:24Z</time>
      </trkpt>
      <trkpt lat="45.9514" lon="4.7478">
        <ele>194</ele>
        <time>2018-08-26T10:12:26Z</time>
      </trkpt>
      <trkpt lat="45.95138" lon="4.74776">
        <ele>194</ele>
        <time>2018-08-26T10:12:27Z</time>
      </trkpt>
      <trkpt lat="45.95134" lon="4.74765">
        <ele>194</ele>
        <time>2018-08-26T10:12:29Z</time>
      </trkpt>
      <trkpt lat="45.9513" lon="4.74759">
        <ele>194</ele>
        <time>2018-08-26T10:12:30Z</time>
      </trkpt>
      <trkpt lat="45.95127" lon="4.74753">
        <ele>194</ele>
        <time>2018-08-26T10:12:31Z</time>
      </trkpt>
      <trkpt lat="45.95123" lon="4.74748">
        <ele>194</ele>
        <time>2018-08-26T10:12:32Z</time>
      </trkpt>
      <trkpt lat="45.95119" lon="4.74741">
        <ele>194</ele>
        <time>2018-08-26T10:12:33Z</time>
      </trkpt>
      <trkpt lat="45.95116" lon="4.74734">
        <ele>194</ele>
        <time>2018-08-26T10:12:34Z</time>
      </trkpt>
      <trkpt lat="45.95113" lon="4.74728">
        <ele>194</ele>
        <time>2018-08-26T10:12:35Z</time>
      </trkpt>
      <trkpt lat="45.95106" lon="4.7472">
        <ele>194</ele>
        <time>2018-08-26T10:12:36Z</time>
      </trkpt>
      <trkpt lat="45.95103" lon="4.74715">
        <ele>194</ele>
        <time>2018-08-26T10:12:37Z</time>
      </trkpt>
      <trkpt lat="45.95099" lon="4.74708">
        <ele>194</ele>
        <time>2018-08-26T10:12:38Z</time>
      </trkpt>
      <trkpt lat="45.95097" lon="4.74701">
        <ele>194</ele>
        <time>2018-08-26T10:12:39Z</time>
      </trkpt>
      <trkpt lat="45.95094" lon="4.74695">
        <ele>194</ele>
        <time>2018-08-26T10:12:40Z</time>
      </trkpt>
      <trkpt lat="45.95089" lon="4.74689">
        <ele>195</ele>
        <time>2018-08-26T10:12:41Z</time>
      </trkpt>
      <trkpt lat="45.95086" lon="4.74683">
        <ele>195</ele>
        <time>2018-08-26T10:12:42Z</time>
      </trkpt>
      <trkpt lat="45.95082" lon="4.74678">
        <ele>194</ele>
        <time>2018-08-26T10:12:43Z</time>
      </trkpt>
      <trkpt lat="45.9508" lon="4.74673">
        <ele>195</ele>
        <time>2018-08-26T10:12:44Z</time>
      </trkpt>
      <trkpt lat="45.95078" lon="4.74666">
        <ele>195</ele>
        <time>2018-08-26T10:12:45Z</time>
      </trkpt>
      <trkpt lat="45.95075" lon="4.7466">
        <ele>195</ele>
        <time>2018-08-26T10:12:46Z</time>
      </trkpt>
      <trkpt lat="45.95072" lon="4.74655">
        <ele>195</ele>
        <time>2018-08-26T10:12:47Z</time>
      </trkpt>
      <trkpt lat="45.95066" lon="4.7465">
        <ele>195</ele>
        <time>2018-08-26T10:12:48Z</time>
      </trkpt>
      <trkpt lat="45.95063" lon="4.74644">
        <ele>195</ele>
        <time>2018-08-26T10:12:49Z</time>
      </trkpt>
      <trkpt lat="45.9506" lon="4.74638">
        <ele>194</ele>
        <time>2018-08-26T10:12:50Z</time>
      </trkpt>
      <trkpt lat="45.95056" lon="4.74631">
        <ele>194</ele>
        <time>2018-08-26T10:12:51Z</time>
      </trkpt>
      <trkpt lat="45.95053" lon="4.74624">
        <ele>194</ele>
        <time>2018-08-26T10:12:52Z</time>
      </trkpt>
      <trkpt lat="45.95041" lon="4.74618">
        <ele>194</ele>
        <time>2018-08-26T10:12:53Z</time>
      </trkpt>
      <trkpt lat="45.95037" lon="4.74611">
        <ele>194</ele>
        <time>2018-08-26T10:12:54Z</time>
      </trkpt>
      <trkpt lat="45.95035" lon="4.74605">
        <ele>194</ele>
        <time>2018-08-26T10:12:55Z</time>
      </trkpt>
      <trkpt lat="45.95034" lon="4.74597">
        <ele>194</ele>
        <time>2018-08-26T10:12:56Z</time>
      </trkpt>
      <trkpt lat="45.95029" lon="4.7459">
        <ele>194</ele>
        <time>2018-08-26T10:12:57Z</time>
      </trkpt>
      <trkpt lat="45.95028" lon="4.74582">
        <ele>194</ele>
        <time>2018-08-26T10:12:58Z</time>
      </trkpt>
      <trkpt lat="45.95024" lon="4.74574">
        <ele>194</ele>
        <time>2018-08-26T10:12:59Z</time>
      </trkpt>
      <trkpt lat="45.9502" lon="4.74568">
        <ele>194</ele>
        <time>2018-08-26T10:13:00Z</time>
      </trkpt>
      <trkpt lat="45.95016" lon="4.7456">
        <ele>194</ele>
        <time>2018-08-26T10:13:01Z</time>
      </trkpt>
      <trkpt lat="45.95012" lon="4.74553">
        <ele>194</ele>
        <time>2018-08-26T10:13:02Z</time>
      </trkpt>
      <trkpt lat="45.95008" lon="4.74546">
        <ele>194</ele>
        <time>2018-08-26T10:13:03Z</time>
      </trkpt>
      <trkpt lat="45.95002" lon="4.74539">
        <ele>194</ele>
        <time>2018-08-26T10:13:04Z</time>
      </trkpt>
      <trkpt lat="45.94998" lon="4.74532">
        <ele>193</ele>
        <time>2018-08-26T10:13:05Z</time>
      </trkpt>
      <trkpt lat="45.94995" lon="4.74525">
        <ele>193</ele>
        <time>2018-08-26T10:13:06Z</time>
      </trkpt>
      <trkpt lat="45.94992" lon="4.74517">
        <ele>193</ele>
        <time>2018-08-26T10:13:07Z</time>
      </trkpt>
      <trkpt lat="45.94988" lon="4.7451">
        <ele>193</ele>
        <time>2018-08-26T10:13:08Z</time>
      </trkpt>
      <trkpt lat="45.94985" lon="4.74503">
        <ele>193</ele>
        <time>2018-08-26T10:13:09Z</time>
      </trkpt>
      <trkpt lat="45.94981" lon="4.74495">
        <ele>193</ele>
        <time>2018-08-26T10:13:10Z</time>
      </trkpt>
      <trkpt lat="45.94978" lon="4.74486">
        <ele>193</ele>
        <time>2018-08-26T10:13:11Z</time>
      </trkpt>
      <trkpt lat="45.94974" lon="4.74479">
        <ele>193</ele>
        <time>2018-08-26T10:13:12Z</time>
      </trkpt>
      <trkpt lat="45.94971" lon="4.74472">
        <ele>193</ele>
        <time>2018-08-26T10:13:13Z</time>
      </trkpt>
      <trkpt lat="45.94967" lon="4.74465">
        <ele>193</ele>
        <time>2018-08-26T10:13:14Z</time>
      </trkpt>
      <trkpt lat="45.94963" lon="4.7446">
        <ele>193</ele>
        <time>2018-08-26T10:13:15Z</time>
      </trkpt>
      <trkpt lat="45.9496" lon="4.74455">
        <ele>192</ele>
        <time>2018-08-26T10:13:16Z</time>
      </trkpt>
      <trkpt lat="45.94957" lon="4.74449">
        <ele>192</ele>
        <time>2018-08-26T10:13:17Z</time>
      </trkpt>
      <trkpt lat="45.94954" lon="4.74443">
        <ele>192</ele>
        <time>2018-08-26T10:13:18Z</time>
      </trkpt>
      <trkpt lat="45.9495" lon="4.74436">
        <ele>192</ele>
        <time>2018-08-26T10:13:19Z</time>
      </trkpt>
      <trkpt lat="45.94948" lon="4.74429">
        <ele>192</ele>
        <time>2018-08-26T10:13:20Z</time>
      </trkpt>
      <trkpt lat="45.94942" lon="4.74423">
        <ele>192</ele>
        <time>2018-08-26T10:13:21Z</time>
      </trkpt>
      <trkpt lat="45.94938" lon="4.74415">
        <ele>192</ele>
        <time>2018-08-26T10:13:22Z</time>
      </trkpt>
      <trkpt lat="45.94935" lon="4.74408">
        <ele>192</ele>
        <time>2018-08-26T10:13:23Z</time>
      </trkpt>
      <trkpt lat="45.94934" lon="4.744">
        <ele>192</ele>
        <time>2018-08-26T10:13:24Z</time>
      </trkpt>
      <trkpt lat="45.9493" lon="4.74393">
        <ele>192</ele>
        <time>2018-08-26T10:13:25Z</time>
      </trkpt>
      <trkpt lat="45.94926" lon="4.74385">
        <ele>192</ele>
        <time>2018-08-26T10:13:26Z</time>
      </trkpt>
      <trkpt lat="45.94923" lon="4.74377">
        <ele>192</ele>
        <time>2018-08-26T10:13:27Z</time>
      </trkpt>
      <trkpt lat="45.94918" lon="4.74369">
        <ele>192</ele>
        <time>2018-08-26T10:13:28Z</time>
      </trkpt>
      <trkpt lat="45.94915" lon="4.74362">
        <ele>191</ele>
        <time>2018-08-26T10:13:29Z</time>
      </trkpt>
      <trkpt lat="45.94911" lon="4.74353">
        <ele>191</ele>
        <time>2018-08-26T10:13:30Z</time>
      </trkpt>
      <trkpt lat="45.94907" lon="4.74346">
        <ele>191</ele>
        <time>2018-08-26T10:13:31Z</time>
      </trkpt>
      <trkpt lat="45.94903" lon="4.74339">
        <ele>191</ele>
        <time>2018-08-26T10:13:32Z</time>
      </trkpt>
      <trkpt lat="45.94899" lon="4.74331">
        <ele>191</ele>
        <time>2018-08-26T10:13:33Z</time>
      </trkpt>
      <trkpt lat="45.94895" lon="4.74324">
        <ele>191</ele>
        <time>2018-08-26T10:13:34Z</time>
      </trkpt>
      <trkpt lat="45.94891" lon="4.74315">
        <ele>191</ele>
        <time>2018-08-26T10:13:35Z</time>
      </trkpt>
      <trkpt lat="45.94887" lon="4.74307">
        <ele>191</ele>
        <time>2018-08-26T10:13:36Z</time>
      </trkpt>
      <trkpt lat="45.94882" lon="4.74299">
        <ele>191</ele>
        <time>2018-08-26T10:13:37Z</time>
      </trkpt>
      <trkpt lat="45.94879" lon="4.74293">
        <ele>191</ele>
        <time>2018-08-26T10:13:38Z</time>
      </trkpt>
      <trkpt lat="45.94868" lon="4.74284">
        <ele>191</ele>
        <time>2018-08-26T10:13:39Z</time>
      </trkpt>
      <trkpt lat="45.94863" lon="4.74278">
        <ele>190</ele>
        <time>2018-08-26T10:13:40Z</time>
      </trkpt>
      <trkpt lat="45.94859" lon="4.74271">
        <ele>190</ele>
        <time>2018-08-26T10:13:41Z</time>
      </trkpt>
      <trkpt lat="45.94855" lon="4.74263">
        <ele>190</ele>
        <time>2018-08-26T10:13:42Z</time>
      </trkpt>
      <trkpt lat="45.94851" lon="4.74254">
        <ele>190</ele>
        <time>2018-08-26T10:13:43Z</time>
      </trkpt>
      <trkpt lat="45.94848" lon="4.74247">
        <ele>190</ele>
        <time>2018-08-26T10:13:44Z</time>
      </trkpt>
      <trkpt lat="45.94847" lon="4.7424">
        <ele>190</ele>
        <time>2018-08-26T10:13:45Z</time>
      </trkpt>
      <trkpt lat="45.94843" lon="4.74231">
        <ele>190</ele>
        <time>2018-08-26T10:13:46Z</time>
      </trkpt>
      <trkpt lat="45.94839" lon="4.74222">
        <ele>190</ele>
        <time>2018-08-26T10:13:47Z</time>
      </trkpt>
      <trkpt lat="45.94835" lon="4.74214">
        <ele>190</ele>
        <time>2018-08-26T10:13:48Z</time>
      </trkpt>
      <trkpt lat="45.94831" lon="4.74206">
        <ele>189</ele>
        <time>2018-08-26T10:13:49Z</time>
      </trkpt>
      <trkpt lat="45.94827" lon="4.74199">
        <ele>189</ele>
        <time>2018-08-26T10:13:50Z</time>
      </trkpt>
      <trkpt lat="45.94822" lon="4.74191">
        <ele>189</ele>
        <time>2018-08-26T10:13:51Z</time>
      </trkpt>
      <trkpt lat="45.94818" lon="4.74183">
        <ele>189</ele>
        <time>2018-08-26T10:13:52Z</time>
      </trkpt>
      <trkpt lat="45.94813" lon="4.74176">
        <ele>189</ele>
        <time>2018-08-26T10:13:53Z</time>
      </trkpt>
      <trkpt lat="45.94809" lon="4.74169">
        <ele>189</ele>
        <time>2018-08-26T10:13:54Z</time>
      </trkpt>
      <trkpt lat="45.94804" lon="4.74162">
        <ele>189</ele>
        <time>2018-08-26T10:13:55Z</time>
      </trkpt>
      <trkpt lat="45.94799" lon="4.74154">
        <ele>189</ele>
        <time>2018-08-26T10:13:56Z</time>
      </trkpt>
      <trkpt lat="45.94794" lon="4.74147">
        <ele>189</ele>
        <time>2018-08-26T10:13:57Z</time>
      </trkpt>
      <trkpt lat="45.9479" lon="4.74139">
        <ele>189</ele>
        <time>2018-08-26T10:13:58Z</time>
      </trkpt>
      <trkpt lat="45.94786" lon="4.74132">
        <ele>189</ele>
        <time>2018-08-26T10:13:59Z</time>
      </trkpt>
      <trkpt lat="45.94781" lon="4.74124">
        <ele>189</ele>
        <time>2018-08-26T10:14:00Z</time>
      </trkpt>
      <trkpt lat="45.94776" lon="4.74116">
        <ele>189</ele>
        <time>2018-08-26T10:14:01Z</time>
      </trkpt>
      <trkpt lat="45.94771" lon="4.74108">
        <ele>189</ele>
        <time>2018-08-26T10:14:02Z</time>
      </trkpt>
      <trkpt lat="45.94766" lon="4.74101">
        <ele>189</ele>
        <time>2018-08-26T10:14:03Z</time>
      </trkpt>
      <trkpt lat="45.94759" lon="4.74094">
        <ele>189</ele>
        <time>2018-08-26T10:14:04Z</time>
      </trkpt>
      <trkpt lat="45.94755" lon="4.74087">
        <ele>189</ele>
        <time>2018-08-26T10:14:05Z</time>
      </trkpt>
      <trkpt lat="45.9475" lon="4.7408">
        <ele>189</ele>
        <time>2018-08-26T10:14:06Z</time>
      </trkpt>
      <trkpt lat="45.94745" lon="4.74073">
        <ele>188</ele>
        <time>2018-08-26T10:14:07Z</time>
      </trkpt>
      <trkpt lat="45.94739" lon="4.74067">
        <ele>188</ele>
        <time>2018-08-26T10:14:08Z</time>
      </trkpt>
      <trkpt lat="45.94734" lon="4.74061">
        <ele>188</ele>
        <time>2018-08-26T10:14:09Z</time>
      </trkpt>
      <trkpt lat="45.94729" lon="4.74055">
        <ele>188</ele>
        <time>2018-08-26T10:14:10Z</time>
      </trkpt>
      <trkpt lat="45.94724" lon="4.74048">
        <ele>187</ele>
        <time>2018-08-26T10:14:11Z</time>
      </trkpt>
      <trkpt lat="45.94718" lon="4.74041">
        <ele>187</ele>
        <time>2018-08-26T10:14:12Z</time>
      </trkpt>
      <trkpt lat="45.94714" lon="4.74034">
        <ele>187</ele>
        <time>2018-08-26T10:14:13Z</time>
      </trkpt>
      <trkpt lat="45.94709" lon="4.74027">
        <ele>187</ele>
        <time>2018-08-26T10:14:14Z</time>
      </trkpt>
      <trkpt lat="45.94707" lon="4.74021">
        <ele>187</ele>
        <time>2018-08-26T10:14:15Z</time>
      </trkpt>
      <trkpt lat="45.94701" lon="4.74014">
        <ele>187</ele>
        <time>2018-08-26T10:14:16Z</time>
      </trkpt>
      <trkpt lat="45.94698" lon="4.74009">
        <ele>187</ele>
        <time>2018-08-26T10:14:17Z</time>
      </trkpt>
      <trkpt lat="45.94693" lon="4.74003">
        <ele>187</ele>
        <time>2018-08-26T10:14:18Z</time>
      </trkpt>
      <trkpt lat="45.94689" lon="4.73997">
        <ele>187</ele>
        <time>2018-08-26T10:14:19Z</time>
      </trkpt>
      <trkpt lat="45.94685" lon="4.73992">
        <ele>187</ele>
        <time>2018-08-26T10:14:20Z</time>
      </trkpt>
      <trkpt lat="45.9468" lon="4.73986">
        <ele>187</ele>
        <time>2018-08-26T10:14:21Z</time>
      </trkpt>
      <trkpt lat="45.94675" lon="4.73979">
        <ele>187</ele>
        <time>2018-08-26T10:14:22Z</time>
      </trkpt>
      <trkpt lat="45.94671" lon="4.73973">
        <ele>187</ele>
        <time>2018-08-26T10:14:23Z</time>
      </trkpt>
      <trkpt lat="45.94666" lon="4.73967">
        <ele>187</ele>
        <time>2018-08-26T10:14:24Z</time>
      </trkpt>
      <trkpt lat="45.94662" lon="4.73958">
        <ele>187</ele>
        <time>2018-08-26T10:14:25Z</time>
      </trkpt>
      <trkpt lat="45.94654" lon="4.73952">
        <ele>187</ele>
        <time>2018-08-26T10:14:26Z</time>
      </trkpt>
      <trkpt lat="45.9465" lon="4.73948">
        <ele>187</ele>
        <time>2018-08-26T10:14:27Z</time>
      </trkpt>
      <trkpt lat="45.94647" lon="4.73941">
        <ele>187</ele>
        <time>2018-08-26T10:14:28Z</time>
      </trkpt>
      <trkpt lat="45.94641" lon="4.73934">
        <ele>187</ele>
        <time>2018-08-26T10:14:29Z</time>
      </trkpt>
      <trkpt lat="45.94636" lon="4.73928">
        <ele>187</ele>
        <time>2018-08-26T10:14:30Z</time>
      </trkpt>
      <trkpt lat="45.94631" lon="4.73923">
        <ele>187</ele>
        <time>2018-08-26T10:14:31Z</time>
      </trkpt>
      <trkpt lat="45.94626" lon="4.73916">
        <ele>187</ele>
        <time>2018-08-26T10:14:32Z</time>
      </trkpt>
      <trkpt lat="45.94621" lon="4.73909">
        <ele>187</ele>
        <time>2018-08-26T10:14:33Z</time>
      </trkpt>
      <trkpt lat="45.94615" lon="4.73903">
        <ele>187</ele>
        <time>2018-08-26T10:14:34Z</time>
      </trkpt>
      <trkpt lat="45.9461" lon="4.73898">
        <ele>187</ele>
        <time>2018-08-26T10:14:35Z</time>
      </trkpt>
      <trkpt lat="45.94605" lon="4.73892">
        <ele>187</ele>
        <time>2018-08-26T10:14:36Z</time>
      </trkpt>
      <trkpt lat="45.946" lon="4.73885">
        <ele>187</ele>
        <time>2018-08-26T10:14:37Z</time>
      </trkpt>
      <trkpt lat="45.94595" lon="4.73879">
        <ele>187</ele>
        <time>2018-08-26T10:14:38Z</time>
      </trkpt>
      <trkpt lat="45.9459" lon="4.73874">
        <ele>187</ele>
        <time>2018-08-26T10:14:39Z</time>
      </trkpt>
      <trkpt lat="45.94585" lon="4.73868">
        <ele>187</ele>
        <time>2018-08-26T10:14:40Z</time>
      </trkpt>
      <trkpt lat="45.94581" lon="4.73863">
        <ele>186</ele>
        <time>2018-08-26T10:14:41Z</time>
      </trkpt>
      <trkpt lat="45.94577" lon="4.73859">
        <ele>186</ele>
        <time>2018-08-26T10:14:42Z</time>
      </trkpt>
      <trkpt lat="45.94573" lon="4.73854">
        <ele>186</ele>
        <time>2018-08-26T10:14:43Z</time>
      </trkpt>
      <trkpt lat="45.94568" lon="4.73849">
        <ele>186</ele>
        <time>2018-08-26T10:14:44Z</time>
      </trkpt>
      <trkpt lat="45.94562" lon="4.73843">
        <ele>186</ele>
        <time>2018-08-26T10:14:45Z</time>
      </trkpt>
      <trkpt lat="45.94556" lon="4.73837">
        <ele>186</ele>
        <time>2018-08-26T10:14:46Z</time>
      </trkpt>
      <trkpt lat="45.94551" lon="4.73832">
        <ele>186</ele>
        <time>2018-08-26T10:14:47Z</time>
      </trkpt>
      <trkpt lat="45.94545" lon="4.73827">
        <ele>186</ele>
        <time>2018-08-26T10:14:48Z</time>
      </trkpt>
      <trkpt lat="45.94539" lon="4.73823">
        <ele>186</ele>
        <time>2018-08-26T10:14:49Z</time>
      </trkpt>
      <trkpt lat="45.94534" lon="4.73817">
        <ele>186</ele>
        <time>2018-08-26T10:14:50Z</time>
      </trkpt>
      <trkpt lat="45.94528" lon="4.73811">
        <ele>186</ele>
        <time>2018-08-26T10:14:51Z</time>
      </trkpt>
      <trkpt lat="45.94524" lon="4.73807">
        <ele>186</ele>
        <time>2018-08-26T10:14:52Z</time>
      </trkpt>
      <trkpt lat="45.94519" lon="4.73801">
        <ele>186</ele>
        <time>2018-08-26T10:14:53Z</time>
      </trkpt>
      <trkpt lat="45.94512" lon="4.73793">
        <ele>186</ele>
        <time>2018-08-26T10:14:55Z</time>
      </trkpt>
      <trkpt lat="45.94508" lon="4.73788">
        <ele>186</ele>
        <time>2018-08-26T10:14:56Z</time>
      </trkpt>
      <trkpt lat="45.94503" lon="4.73782">
        <ele>186</ele>
        <time>2018-08-26T10:14:57Z</time>
      </trkpt>
      <trkpt lat="45.94498" lon="4.73776">
        <ele>186</ele>
        <time>2018-08-26T10:14:58Z</time>
      </trkpt>
      <trkpt lat="45.94494" lon="4.73772">
        <ele>186</ele>
        <time>2018-08-26T10:14:59Z</time>
      </trkpt>
      <trkpt lat="45.94489" lon="4.73765">
        <ele>186</ele>
        <time>2018-08-26T10:15:00Z</time>
      </trkpt>
      <trkpt lat="45.94486" lon="4.73759">
        <ele>186</ele>
        <time>2018-08-26T10:15:01Z</time>
      </trkpt>
      <trkpt lat="45.94486" lon="4.73752">
        <ele>186</ele>
        <time>2018-08-26T10:15:02Z</time>
      </trkpt>
      <trkpt lat="45.94485" lon="4.73744">
        <ele>186</ele>
        <time>2018-08-26T10:15:03Z</time>
      </trkpt>
      <trkpt lat="45.94487" lon="4.73736">
        <ele>186</ele>
        <time>2018-08-26T10:15:04Z</time>
      </trkpt>
      <trkpt lat="45.94488" lon="4.73728">
        <ele>186</ele>
        <time>2018-08-26T10:15:05Z</time>
      </trkpt>
      <trkpt lat="45.94488" lon="4.73719">
        <ele>186</ele>
        <time>2018-08-26T10:15:06Z</time>
      </trkpt>
      <trkpt lat="45.94489" lon="4.7371">
        <ele>186</ele>
        <time>2018-08-26T10:15:07Z</time>
      </trkpt>
      <trkpt lat="45.9449" lon="4.73702">
        <ele>186</ele>
        <time>2018-08-26T10:15:08Z</time>
      </trkpt>
      <trkpt lat="45.94492" lon="4.73693">
        <ele>186</ele>
        <time>2018-08-26T10:15:09Z</time>
      </trkpt>
      <trkpt lat="45.94493" lon="4.73685">
        <ele>186</ele>
        <time>2018-08-26T10:15:10Z</time>
      </trkpt>
      <trkpt lat="45.94494" lon="4.73677">
        <ele>185</ele>
        <time>2018-08-26T10:15:11Z</time>
      </trkpt>
      <trkpt lat="45.94494" lon="4.7367">
        <ele>185</ele>
        <time>2018-08-26T10:15:12Z</time>
      </trkpt>
      <trkpt lat="45.94495" lon="4.73663">
        <ele>185</ele>
        <time>2018-08-26T10:15:13Z</time>
      </trkpt>
      <trkpt lat="45.94497" lon="4.73655">
        <ele>185</ele>
        <time>2018-08-26T10:15:14Z</time>
      </trkpt>
      <trkpt lat="45.94497" lon="4.73647">
        <ele>185</ele>
        <time>2018-08-26T10:15:15Z</time>
      </trkpt>
      <trkpt lat="45.94498" lon="4.7364">
        <ele>186</ele>
        <time>2018-08-26T10:15:16Z</time>
      </trkpt>
      <trkpt lat="45.94499" lon="4.73632">
        <ele>186</ele>
        <time>2018-08-26T10:15:17Z</time>
      </trkpt>
      <trkpt lat="45.94501" lon="4.73626">
        <ele>184</ele>
        <time>2018-08-26T10:15:18Z</time>
      </trkpt>
      <trkpt lat="45.94502" lon="4.73619">
        <ele>184</ele>
        <time>2018-08-26T10:15:19Z</time>
      </trkpt>
      <trkpt lat="45.94503" lon="4.7361">
        <ele>184</ele>
        <time>2018-08-26T10:15:20Z</time>
      </trkpt>
      <trkpt lat="45.94504" lon="4.73602">
        <ele>184</ele>
        <time>2018-08-26T10:15:21Z</time>
      </trkpt>
      <trkpt lat="45.94504" lon="4.73592">
        <ele>185</ele>
        <time>2018-08-26T10:15:22Z</time>
      </trkpt>
      <trkpt lat="45.94505" lon="4.73585">
        <ele>185</ele>
        <time>2018-08-26T10:15:23Z</time>
      </trkpt>
      <trkpt lat="45.94505" lon="4.73576">
        <ele>184</ele>
        <time>2018-08-26T10:15:24Z</time>
      </trkpt>
      <trkpt lat="45.94505" lon="4.73565">
        <ele>184</ele>
        <time>2018-08-26T10:15:25Z</time>
      </trkpt>
      <trkpt lat="45.94506" lon="4.73555">
        <ele>183</ele>
        <time>2018-08-26T10:15:26Z</time>
      </trkpt>
      <trkpt lat="45.94506" lon="4.73546">
        <ele>183</ele>
        <time>2018-08-26T10:15:27Z</time>
      </trkpt>
      <trkpt lat="45.94506" lon="4.73537">
        <ele>183</ele>
        <time>2018-08-26T10:15:28Z</time>
      </trkpt>
      <trkpt lat="45.94504" lon="4.73525">
        <ele>183</ele>
        <time>2018-08-26T10:15:29Z</time>
      </trkpt>
      <trkpt lat="45.94504" lon="4.73517">
        <ele>183</ele>
        <time>2018-08-26T10:15:30Z</time>
      </trkpt>
      <trkpt lat="45.94502" lon="4.73506">
        <ele>183</ele>
        <time>2018-08-26T10:15:31Z</time>
      </trkpt>
      <trkpt lat="45.94503" lon="4.73496">
        <ele>183</ele>
        <time>2018-08-26T10:15:32Z</time>
      </trkpt>
      <trkpt lat="45.94504" lon="4.73487">
        <ele>182</ele>
        <time>2018-08-26T10:15:33Z</time>
      </trkpt>
      <trkpt lat="45.94503" lon="4.73477">
        <ele>182</ele>
        <time>2018-08-26T10:15:34Z</time>
      </trkpt>
      <trkpt lat="45.94503" lon="4.73467">
        <ele>181</ele>
        <time>2018-08-26T10:15:35Z</time>
      </trkpt>
      <trkpt lat="45.94504" lon="4.73456">
        <ele>181</ele>
        <time>2018-08-26T10:15:36Z</time>
      </trkpt>
      <trkpt lat="45.94504" lon="4.73445">
        <ele>181</ele>
        <time>2018-08-26T10:15:37Z</time>
      </trkpt>
      <trkpt lat="45.94503" lon="4.73435">
        <ele>181</ele>
        <time>2018-08-26T10:15:38Z</time>
      </trkpt>
      <trkpt lat="45.94504" lon="4.73424">
        <ele>180</ele>
        <time>2018-08-26T10:15:39Z</time>
      </trkpt>
      <trkpt lat="45.94504" lon="4.73414">
        <ele>180</ele>
        <time>2018-08-26T10:15:40Z</time>
      </trkpt>
      <trkpt lat="45.94504" lon="4.73404">
        <ele>179</ele>
        <time>2018-08-26T10:15:41Z</time>
      </trkpt>
      <trkpt lat="45.94502" lon="4.73393">
        <ele>179</ele>
        <time>2018-08-26T10:15:42Z</time>
      </trkpt>
      <trkpt lat="45.94502" lon="4.73383">
        <ele>179</ele>
        <time>2018-08-26T10:15:43Z</time>
      </trkpt>
      <trkpt lat="45.945" lon="4.73371">
        <ele>179</ele>
        <time>2018-08-26T10:15:44Z</time>
      </trkpt>
      <trkpt lat="45.945" lon="4.7336">
        <ele>178</ele>
        <time>2018-08-26T10:15:45Z</time>
      </trkpt>
      <trkpt lat="45.94499" lon="4.73349">
        <ele>178</ele>
        <time>2018-08-26T10:15:46Z</time>
      </trkpt>
      <trkpt lat="45.94497" lon="4.73338">
        <ele>177</ele>
        <time>2018-08-26T10:15:47Z</time>
      </trkpt>
      <trkpt lat="45.94498" lon="4.73327">
        <ele>177</ele>
        <time>2018-08-26T10:15:48Z</time>
      </trkpt>
      <trkpt lat="45.94497" lon="4.73315">
        <ele>177</ele>
        <time>2018-08-26T10:15:49Z</time>
      </trkpt>
      <trkpt lat="45.94496" lon="4.73304">
        <ele>177</ele>
        <time>2018-08-26T10:15:50Z</time>
      </trkpt>
      <trkpt lat="45.94494" lon="4.73293">
        <ele>177</ele>
        <time>2018-08-26T10:15:51Z</time>
      </trkpt>
      <trkpt lat="45.94493" lon="4.73281">
        <ele>177</ele>
        <time>2018-08-26T10:15:52Z</time>
      </trkpt>
      <trkpt lat="45.9449" lon="4.73269">
        <ele>177</ele>
        <time>2018-08-26T10:15:53Z</time>
      </trkpt>
      <trkpt lat="45.94489" lon="4.73257">
        <ele>176</ele>
        <time>2018-08-26T10:15:54Z</time>
      </trkpt>
      <trkpt lat="45.94486" lon="4.73245">
        <ele>175</ele>
        <time>2018-08-26T10:15:55Z</time>
      </trkpt>
      <trkpt lat="45.94485" lon="4.73234">
        <ele>175</ele>
        <time>2018-08-26T10:15:56Z</time>
      </trkpt>
      <trkpt lat="45.94482" lon="4.73223">
        <ele>175</ele>
        <time>2018-08-26T10:15:57Z</time>
      </trkpt>
      <trkpt lat="45.94483" lon="4.73211">
        <ele>175</ele>
        <time>2018-08-26T10:15:58Z</time>
      </trkpt>
      <trkpt lat="45.94481" lon="4.73198">
        <ele>174</ele>
        <time>2018-08-26T10:15:59Z</time>
      </trkpt>
      <trkpt lat="45.94479" lon="4.73186">
        <ele>174</ele>
        <time>2018-08-26T10:16:00Z</time>
      </trkpt>
      <trkpt lat="45.94477" lon="4.73174">
        <ele>174</ele>
        <time>2018-08-26T10:16:01Z</time>
      </trkpt>
      <trkpt lat="45.94475" lon="4.73162">
        <ele>173</ele>
        <time>2018-08-26T10:16:02Z</time>
      </trkpt>
      <trkpt lat="45.94473" lon="4.7315">
        <ele>172</ele>
        <time>2018-08-26T10:16:03Z</time>
      </trkpt>
      <trkpt lat="45.94473" lon="4.7314">
        <ele>172</ele>
        <time>2018-08-26T10:16:04Z</time>
      </trkpt>
      <trkpt lat="45.94471" lon="4.73129">
        <ele>172</ele>
        <time>2018-08-26T10:16:05Z</time>
      </trkpt>
      <trkpt lat="45.94469" lon="4.73117">
        <ele>172</ele>
        <time>2018-08-26T10:16:06Z</time>
      </trkpt>
      <trkpt lat="45.94468" lon="4.73109">
        <ele>172</ele>
        <time>2018-08-26T10:16:07Z</time>
      </trkpt>
      <trkpt lat="45.94466" lon="4.731">
        <ele>172</ele>
        <time>2018-08-26T10:16:08Z</time>
      </trkpt>
      <trkpt lat="45.94465" lon="4.7309">
        <ele>171</ele>
        <time>2018-08-26T10:16:09Z</time>
      </trkpt>
      <trkpt lat="45.94466" lon="4.73081">
        <ele>170</ele>
        <time>2018-08-26T10:16:10Z</time>
      </trkpt>
      <trkpt lat="45.94463" lon="4.73073">
        <ele>170</ele>
        <time>2018-08-26T10:16:11Z</time>
      </trkpt>
      <trkpt lat="45.94462" lon="4.73064">
        <ele>170</ele>
        <time>2018-08-26T10:16:12Z</time>
      </trkpt>
      <trkpt lat="45.9446" lon="4.73057">
        <ele>170</ele>
        <time>2018-08-26T10:16:13Z</time>
      </trkpt>
      <trkpt lat="45.94459" lon="4.7305">
        <ele>170</ele>
        <time>2018-08-26T10:16:14Z</time>
      </trkpt>
      <trkpt lat="45.94459" lon="4.73043">
        <ele>170</ele>
        <time>2018-08-26T10:16:15Z</time>
      </trkpt>
      <trkpt lat="45.94456" lon="4.73031">
        <ele>169</ele>
        <time>2018-08-26T10:16:17Z</time>
      </trkpt>
      <trkpt lat="45.94455" lon="4.73024">
        <ele>169</ele>
        <time>2018-08-26T10:16:18Z</time>
      </trkpt>
      <trkpt lat="45.94453" lon="4.73011">
        <ele>169</ele>
        <time>2018-08-26T10:16:20Z</time>
      </trkpt>
      <trkpt lat="45.94454" lon="4.73006">
        <ele>169</ele>
        <time>2018-08-26T10:16:21Z</time>
      </trkpt>
      <trkpt lat="45.94452" lon="4.72994">
        <ele>167</ele>
        <time>2018-08-26T10:16:23Z</time>
      </trkpt>
      <trkpt lat="45.94453" lon="4.72986">
        <ele>167</ele>
        <time>2018-08-26T10:16:24Z</time>
      </trkpt>
      <trkpt lat="45.94452" lon="4.72974">
        <ele>167</ele>
        <time>2018-08-26T10:16:26Z</time>
      </trkpt>
      <trkpt lat="45.94449" lon="4.7297">
        <ele>167</ele>
        <time>2018-08-26T10:16:27Z</time>
      </trkpt>
      <trkpt lat="45.94446" lon="4.72957">
        <ele>167</ele>
        <time>2018-08-26T10:16:29Z</time>
      </trkpt>
      <trkpt lat="45.94447" lon="4.7295">
        <ele>167</ele>
        <time>2018-08-26T10:16:30Z</time>
      </trkpt>
      <trkpt lat="45.94444" lon="4.72938">
        <ele>167</ele>
        <time>2018-08-26T10:16:32Z</time>
      </trkpt>
      <trkpt lat="45.94444" lon="4.72934">
        <ele>167</ele>
        <time>2018-08-26T10:16:33Z</time>
      </trkpt>
      <trkpt lat="45.9444" lon="4.72924">
        <ele>167</ele>
        <time>2018-08-26T10:16:35Z</time>
      </trkpt>
      <trkpt lat="45.94439" lon="4.72918">
        <ele>167</ele>
        <time>2018-08-26T10:16:36Z</time>
      </trkpt>
      <trkpt lat="45.94439" lon="4.72906">
        <ele>166</ele>
        <time>2018-08-26T10:16:38Z</time>
      </trkpt>
      <trkpt lat="45.94439" lon="4.72899">
        <ele>166</ele>
        <time>2018-08-26T10:16:39Z</time>
      </trkpt>
      <trkpt lat="45.94439" lon="4.72893">
        <ele>166</ele>
        <time>2018-08-26T10:16:40Z</time>
      </trkpt>
      <trkpt lat="45.94439" lon="4.72886">
        <ele>166</ele>
        <time>2018-08-26T10:16:41Z</time>
      </trkpt>
      <trkpt lat="45.94439" lon="4.72879">
        <ele>166</ele>
        <time>2018-08-26T10:16:42Z</time>
      </trkpt>
      <trkpt lat="45.94438" lon="4.72871">
        <ele>166</ele>
        <time>2018-08-26T10:16:43Z</time>
      </trkpt>
      <trkpt lat="45.94437" lon="4.72863">
        <ele>166</ele>
        <time>2018-08-26T10:16:44Z</time>
      </trkpt>
      <trkpt lat="45.94436" lon="4.72855">
        <ele>166</ele>
        <time>2018-08-26T10:16:45Z</time>
      </trkpt>
      <trkpt lat="45.94434" lon="4.72847">
        <ele>166</ele>
        <time>2018-08-26T10:16:46Z</time>
      </trkpt>
      <trkpt lat="45.94433" lon="4.72838">
        <ele>166</ele>
        <time>2018-08-26T10:16:47Z</time>
      </trkpt>
      <trkpt lat="45.94432" lon="4.72829">
        <ele>167</ele>
        <time>2018-08-26T10:16:48Z</time>
      </trkpt>
      <trkpt lat="45.94431" lon="4.7282">
        <ele>167</ele>
        <time>2018-08-26T10:16:49Z</time>
      </trkpt>
      <trkpt lat="45.94427" lon="4.7281">
        <ele>167</ele>
        <time>2018-08-26T10:16:50Z</time>
      </trkpt>
      <trkpt lat="45.94426" lon="4.728">
        <ele>167</ele>
        <time>2018-08-26T10:16:51Z</time>
      </trkpt>
      <trkpt lat="45.94425" lon="4.72791">
        <ele>168</ele>
        <time>2018-08-26T10:16:52Z</time>
      </trkpt>
      <trkpt lat="45.94423" lon="4.72782">
        <ele>168</ele>
        <time>2018-08-26T10:16:53Z</time>
      </trkpt>
      <trkpt lat="45.94421" lon="4.72772">
        <ele>169</ele>
        <time>2018-08-26T10:16:54Z</time>
      </trkpt>
      <trkpt lat="45.9442" lon="4.72763">
        <ele>169</ele>
        <time>2018-08-26T10:16:55Z</time>
      </trkpt>
      <trkpt lat="45.94418" lon="4.72753">
        <ele>171</ele>
        <time>2018-08-26T10:16:56Z</time>
      </trkpt>
      <trkpt lat="45.94417" lon="4.72743">
        <ele>171</ele>
        <time>2018-08-26T10:16:57Z</time>
      </trkpt>
      <trkpt lat="45.94416" lon="4.72733">
        <ele>172</ele>
        <time>2018-08-26T10:16:58Z</time>
      </trkpt>
      <trkpt lat="45.94415" lon="4.72723">
        <ele>172</ele>
        <time>2018-08-26T10:16:59Z</time>
      </trkpt>
      <trkpt lat="45.94415" lon="4.72713">
        <ele>172</ele>
        <time>2018-08-26T10:17:00Z</time>
      </trkpt>
      <trkpt lat="45.94414" lon="4.72703">
        <ele>172</ele>
        <time>2018-08-26T10:17:01Z</time>
      </trkpt>
      <trkpt lat="45.94413" lon="4.72694">
        <ele>173</ele>
        <time>2018-08-26T10:17:02Z</time>
      </trkpt>
      <trkpt lat="45.94411" lon="4.72685">
        <ele>173</ele>
        <time>2018-08-26T10:17:03Z</time>
      </trkpt>
      <trkpt lat="45.94411" lon="4.72675">
        <ele>173</ele>
        <time>2018-08-26T10:17:04Z</time>
      </trkpt>
      <trkpt lat="45.9441" lon="4.72664">
        <ele>174</ele>
        <time>2018-08-26T10:17:05Z</time>
      </trkpt>
      <trkpt lat="45.94409" lon="4.72655">
        <ele>174</ele>
        <time>2018-08-26T10:17:06Z</time>
      </trkpt>
      <trkpt lat="45.94408" lon="4.72644">
        <ele>174</ele>
        <time>2018-08-26T10:17:07Z</time>
      </trkpt>
      <trkpt lat="45.94406" lon="4.72634">
        <ele>174</ele>
        <time>2018-08-26T10:17:08Z</time>
      </trkpt>
      <trkpt lat="45.94405" lon="4.72625">
        <ele>174</ele>
        <time>2018-08-26T10:17:09Z</time>
      </trkpt>
      <trkpt lat="45.94404" lon="4.72618">
        <ele>173</ele>
        <time>2018-08-26T10:17:10Z</time>
      </trkpt>
      <trkpt lat="45.94403" lon="4.72609">
        <ele>173</ele>
        <time>2018-08-26T10:17:11Z</time>
      </trkpt>
      <trkpt lat="45.94402" lon="4.726">
        <ele>173</ele>
        <time>2018-08-26T10:17:12Z</time>
      </trkpt>
      <trkpt lat="45.94401" lon="4.72591">
        <ele>173</ele>
        <time>2018-08-26T10:17:13Z</time>
      </trkpt>
      <trkpt lat="45.94399" lon="4.72583">
        <ele>173</ele>
        <time>2018-08-26T10:17:14Z</time>
      </trkpt>
      <trkpt lat="45.94398" lon="4.72575">
        <ele>173</ele>
        <time>2018-08-26T10:17:15Z</time>
      </trkpt>
      <trkpt lat="45.94397" lon="4.72568">
        <ele>173</ele>
        <time>2018-08-26T10:17:16Z</time>
      </trkpt>
      <trkpt lat="45.94396" lon="4.7256">
        <ele>173</ele>
        <time>2018-08-26T10:17:17Z</time>
      </trkpt>
      <trkpt lat="45.94395" lon="4.7255">
        <ele>173</ele>
        <time>2018-08-26T10:17:18Z</time>
      </trkpt>
      <trkpt lat="45.94393" lon="4.72541">
        <ele>174</ele>
        <time>2018-08-26T10:17:19Z</time>
      </trkpt>
      <trkpt lat="45.94391" lon="4.72533">
        <ele>174</ele>
        <time>2018-08-26T10:17:20Z</time>
      </trkpt>
      <trkpt lat="45.94389" lon="4.72526">
        <ele>174</ele>
        <time>2018-08-26T10:17:21Z</time>
      </trkpt>
      <trkpt lat="45.94386" lon="4.72518">
        <ele>174</ele>
        <time>2018-08-26T10:17:22Z</time>
      </trkpt>
      <trkpt lat="45.94384" lon="4.7251">
        <ele>174</ele>
        <time>2018-08-26T10:17:23Z</time>
      </trkpt>
      <trkpt lat="45.9438" lon="4.72503">
        <ele>174</ele>
        <time>2018-08-26T10:17:24Z</time>
      </trkpt>
      <trkpt lat="45.94378" lon="4.72496">
        <ele>173</ele>
        <time>2018-08-26T10:17:25Z</time>
      </trkpt>
      <trkpt lat="45.94376" lon="4.72489">
        <ele>173</ele>
        <time>2018-08-26T10:17:26Z</time>
      </trkpt>
      <trkpt lat="45.94372" lon="4.72482">
        <ele>173</ele>
        <time>2018-08-26T10:17:27Z</time>
      </trkpt>
      <trkpt lat="45.9437" lon="4.72475">
        <ele>173</ele>
        <time>2018-08-26T10:17:28Z</time>
      </trkpt>
      <trkpt lat="45.94365" lon="4.72466">
        <ele>173</ele>
        <time>2018-08-26T10:17:29Z</time>
      </trkpt>
      <trkpt lat="45.94365" lon="4.72461">
        <ele>173</ele>
        <time>2018-08-26T10:17:30Z</time>
      </trkpt>
      <trkpt lat="45.94363" lon="4.72453">
        <ele>173</ele>
        <time>2018-08-26T10:17:31Z</time>
      </trkpt>
      <trkpt lat="45.9436" lon="4.72444">
        <ele>173</ele>
        <time>2018-08-26T10:17:32Z</time>
      </trkpt>
      <trkpt lat="45.94359" lon="4.72438">
        <ele>173</ele>
        <time>2018-08-26T10:17:33Z</time>
      </trkpt>
      <trkpt lat="45.94356" lon="4.7243">
        <ele>173</ele>
        <time>2018-08-26T10:17:34Z</time>
      </trkpt>
      <trkpt lat="45.94352" lon="4.72423">
        <ele>173</ele>
        <time>2018-08-26T10:17:35Z</time>
      </trkpt>
      <trkpt lat="45.94349" lon="4.72417">
        <ele>173</ele>
        <time>2018-08-26T10:17:36Z</time>
      </trkpt>
      <trkpt lat="45.94346" lon="4.72411">
        <ele>173</ele>
        <time>2018-08-26T10:17:37Z</time>
      </trkpt>
      <trkpt lat="45.94342" lon="4.72403">
        <ele>173</ele>
        <time>2018-08-26T10:17:38Z</time>
      </trkpt>
      <trkpt lat="45.94339" lon="4.72397">
        <ele>172</ele>
        <time>2018-08-26T10:17:39Z</time>
      </trkpt>
      <trkpt lat="45.94336" lon="4.7239">
        <ele>172</ele>
        <time>2018-08-26T10:17:40Z</time>
      </trkpt>
      <trkpt lat="45.94335" lon="4.72384">
        <ele>172</ele>
        <time>2018-08-26T10:17:41Z</time>
      </trkpt>
      <trkpt lat="45.94332" lon="4.72376">
        <ele>172</ele>
        <time>2018-08-26T10:17:42Z</time>
      </trkpt>
      <trkpt lat="45.94326" lon="4.72369">
        <ele>172</ele>
        <time>2018-08-26T10:17:43Z</time>
      </trkpt>
      <trkpt lat="45.94323" lon="4.72363">
        <ele>172</ele>
        <time>2018-08-26T10:17:44Z</time>
      </trkpt>
      <trkpt lat="45.9432" lon="4.72356">
        <ele>172</ele>
        <time>2018-08-26T10:17:45Z</time>
      </trkpt>
      <trkpt lat="45.94318" lon="4.7235">
        <ele>172</ele>
        <time>2018-08-26T10:17:46Z</time>
      </trkpt>
      <trkpt lat="45.94316" lon="4.72344">
        <ele>172</ele>
        <time>2018-08-26T10:17:47Z</time>
      </trkpt>
      <trkpt lat="45.94314" lon="4.72338">
        <ele>172</ele>
        <time>2018-08-26T10:17:48Z</time>
      </trkpt>
      <trkpt lat="45.9431" lon="4.72331">
        <ele>172</ele>
        <time>2018-08-26T10:17:49Z</time>
      </trkpt>
      <trkpt lat="45.94305" lon="4.72324">
        <ele>171</ele>
        <time>2018-08-26T10:17:50Z</time>
      </trkpt>
      <trkpt lat="45.94302" lon="4.72317">
        <ele>171</ele>
        <time>2018-08-26T10:17:51Z</time>
      </trkpt>
      <trkpt lat="45.94299" lon="4.7231">
        <ele>171</ele>
        <time>2018-08-26T10:17:52Z</time>
      </trkpt>
      <trkpt lat="45.94296" lon="4.72303">
        <ele>171</ele>
        <time>2018-08-26T10:17:53Z</time>
      </trkpt>
      <trkpt lat="45.94293" lon="4.72296">
        <ele>171</ele>
        <time>2018-08-26T10:17:54Z</time>
      </trkpt>
      <trkpt lat="45.94289" lon="4.7229">
        <ele>171</ele>
        <time>2018-08-26T10:17:55Z</time>
      </trkpt>
      <trkpt lat="45.94287" lon="4.72285">
        <ele>171</ele>
        <time>2018-08-26T10:17:56Z</time>
      </trkpt>
      <trkpt lat="45.94284" lon="4.72279">
        <ele>171</ele>
        <time>2018-08-26T10:17:57Z</time>
      </trkpt>
      <trkpt lat="45.94278" lon="4.72271">
        <ele>171</ele>
        <time>2018-08-26T10:17:59Z</time>
      </trkpt>
      <trkpt lat="45.94274" lon="4.72269">
        <ele>171</ele>
        <time>2018-08-26T10:18:00Z</time>
      </trkpt>
      <trkpt lat="45.94269" lon="4.72268">
        <ele>171</ele>
        <time>2018-08-26T10:18:01Z</time>
      </trkpt>
      <trkpt lat="45.94264" lon="4.72269">
        <ele>171</ele>
        <time>2018-08-26T10:18:02Z</time>
      </trkpt>
      <trkpt lat="45.94259" lon="4.72271">
        <ele>171</ele>
        <time>2018-08-26T10:18:03Z</time>
      </trkpt>
      <trkpt lat="45.94254" lon="4.72277">
        <ele>171</ele>
        <time>2018-08-26T10:18:04Z</time>
      </trkpt>
      <trkpt lat="45.94251" lon="4.72281">
        <ele>171</ele>
        <time>2018-08-26T10:18:05Z</time>
      </trkpt>
      <trkpt lat="45.94246" lon="4.72284">
        <ele>171</ele>
        <time>2018-08-26T10:18:06Z</time>
      </trkpt>
      <trkpt lat="45.9424" lon="4.72285">
        <ele>171</ele>
        <time>2018-08-26T10:18:07Z</time>
      </trkpt>
      <trkpt lat="45.94235" lon="4.72287">
        <ele>171</ele>
        <time>2018-08-26T10:18:08Z</time>
      </trkpt>
      <trkpt lat="45.9423" lon="4.72288">
        <ele>171</ele>
        <time>2018-08-26T10:18:09Z</time>
      </trkpt>
      <trkpt lat="45.94226" lon="4.72289">
        <ele>171</ele>
        <time>2018-08-26T10:18:10Z</time>
      </trkpt>
      <trkpt lat="45.9422" lon="4.72289">
        <ele>171</ele>
        <time>2018-08-26T10:18:11Z</time>
      </trkpt>
      <trkpt lat="45.94214" lon="4.7229">
        <ele>171</ele>
        <time>2018-08-26T10:18:12Z</time>
      </trkpt>
      <trkpt lat="45.94207" lon="4.72289">
        <ele>171</ele>
        <time>2018-08-26T10:18:13Z</time>
      </trkpt>
      <trkpt lat="45.94201" lon="4.72291">
        <ele>171</ele>
        <time>2018-08-26T10:18:14Z</time>
      </trkpt>
      <trkpt lat="45.94195" lon="4.72291">
        <ele>171</ele>
        <time>2018-08-26T10:18:15Z</time>
      </trkpt>
      <trkpt lat="45.94187" lon="4.7229">
        <ele>171</ele>
        <time>2018-08-26T10:18:16Z</time>
      </trkpt>
      <trkpt lat="45.94181" lon="4.72288">
        <ele>171</ele>
        <time>2018-08-26T10:18:17Z</time>
      </trkpt>
      <trkpt lat="45.94175" lon="4.72288">
        <ele>171</ele>
        <time>2018-08-26T10:18:18Z</time>
      </trkpt>
      <trkpt lat="45.94169" lon="4.72287">
        <ele>171</ele>
        <time>2018-08-26T10:18:19Z</time>
      </trkpt>
      <trkpt lat="45.94164" lon="4.72286">
        <ele>171</ele>
        <time>2018-08-26T10:18:20Z</time>
      </trkpt>
      <trkpt lat="45.94155" lon="4.72286">
        <ele>171</ele>
        <time>2018-08-26T10:18:21Z</time>
      </trkpt>
      <trkpt lat="45.9415" lon="4.72284">
        <ele>171</ele>
        <time>2018-08-26T10:18:22Z</time>
      </trkpt>
      <trkpt lat="45.94145" lon="4.72282">
        <ele>171</ele>
        <time>2018-08-26T10:18:23Z</time>
      </trkpt>
      <trkpt lat="45.9414" lon="4.72278">
        <ele>171</ele>
        <time>2018-08-26T10:18:24Z</time>
      </trkpt>
      <trkpt lat="45.94137" lon="4.72277">
        <ele>171</ele>
        <time>2018-08-26T10:18:25Z</time>
      </trkpt>
      <trkpt lat="45.94131" lon="4.72274">
        <ele>171</ele>
        <time>2018-08-26T10:18:26Z</time>
      </trkpt>
      <trkpt lat="45.94123" lon="4.72272">
        <ele>171</ele>
        <time>2018-08-26T10:18:27Z</time>
      </trkpt>
      <trkpt lat="45.94118" lon="4.72269">
        <ele>171</ele>
        <time>2018-08-26T10:18:28Z</time>
      </trkpt>
      <trkpt lat="45.94112" lon="4.72267">
        <ele>171</ele>
        <time>2018-08-26T10:18:29Z</time>
      </trkpt>
      <trkpt lat="45.94106" lon="4.72265">
        <ele>171</ele>
        <time>2018-08-26T10:18:30Z</time>
      </trkpt>
      <trkpt lat="45.941" lon="4.72266">
        <ele>171</ele>
        <time>2018-08-26T10:18:31Z</time>
      </trkpt>
      <trkpt lat="45.94096" lon="4.7227">
        <ele>171</ele>
        <time>2018-08-26T10:18:32Z</time>
      </trkpt>
      <trkpt lat="45.9409" lon="4.72271">
        <ele>171</ele>
        <time>2018-08-26T10:18:33Z</time>
      </trkpt>
      <trkpt lat="45.94084" lon="4.72273">
        <ele>171</ele>
        <time>2018-08-26T10:18:34Z</time>
      </trkpt>
      <trkpt lat="45.94079" lon="4.72278">
        <ele>171</ele>
        <time>2018-08-26T10:18:35Z</time>
      </trkpt>
      <trkpt lat="45.94074" lon="4.72282">
        <ele>171</ele>
        <time>2018-08-26T10:18:36Z</time>
      </trkpt>
      <trkpt lat="45.94069" lon="4.72287">
        <ele>171</ele>
        <time>2018-08-26T10:18:37Z</time>
      </trkpt>
      <trkpt lat="45.94064" lon="4.72292">
        <ele>171</ele>
        <time>2018-08-26T10:18:38Z</time>
      </trkpt>
      <trkpt lat="45.9406" lon="4.72298">
        <ele>171</ele>
        <time>2018-08-26T10:18:39Z</time>
      </trkpt>
      <trkpt lat="45.94055" lon="4.72304">
        <ele>171</ele>
        <time>2018-08-26T10:18:40Z</time>
      </trkpt>
      <trkpt lat="45.94051" lon="4.72309">
        <ele>171</ele>
        <time>2018-08-26T10:18:41Z</time>
      </trkpt>
      <trkpt lat="45.94046" lon="4.72315">
        <ele>171</ele>
        <time>2018-08-26T10:18:42Z</time>
      </trkpt>
      <trkpt lat="45.9404" lon="4.72319">
        <ele>171</ele>
        <time>2018-08-26T10:18:43Z</time>
      </trkpt>
      <trkpt lat="45.94035" lon="4.72324">
        <ele>171</ele>
        <time>2018-08-26T10:18:44Z</time>
      </trkpt>
      <trkpt lat="45.94031" lon="4.72329">
        <ele>171</ele>
        <time>2018-08-26T10:18:45Z</time>
      </trkpt>
      <trkpt lat="45.94026" lon="4.72334">
        <ele>171</ele>
        <time>2018-08-26T10:18:46Z</time>
      </trkpt>
      <trkpt lat="45.94022" lon="4.72339">
        <ele>171</ele>
        <time>2018-08-26T10:18:47Z</time>
      </trkpt>
      <trkpt lat="45.94018" lon="4.72344">
        <ele>171</ele>
        <time>2018-08-26T10:18:48Z</time>
      </trkpt>
      <trkpt lat="45.94015" lon="4.72352">
        <ele>171</ele>
        <time>2018-08-26T10:18:49Z</time>
      </trkpt>
      <trkpt lat="45.9401" lon="4.72356">
        <ele>171</ele>
        <time>2018-08-26T10:18:50Z</time>
      </trkpt>
      <trkpt lat="45.94006" lon="4.72362">
        <ele>171</ele>
        <time>2018-08-26T10:18:51Z</time>
      </trkpt>
      <trkpt lat="45.94001" lon="4.72366">
        <ele>171</ele>
        <time>2018-08-26T10:18:52Z</time>
      </trkpt>
      <trkpt lat="45.93996" lon="4.7237">
        <ele>171</ele>
        <time>2018-08-26T10:18:53Z</time>
      </trkpt>
      <trkpt lat="45.93992" lon="4.72375">
        <ele>171</ele>
        <time>2018-08-26T10:18:54Z</time>
      </trkpt>
      <trkpt lat="45.93987" lon="4.72381">
        <ele>171</ele>
        <time>2018-08-26T10:18:55Z</time>
      </trkpt>
      <trkpt lat="45.93983" lon="4.72387">
        <ele>171</ele>
        <time>2018-08-26T10:18:56Z</time>
      </trkpt>
      <trkpt lat="45.93979" lon="4.72394">
        <ele>171</ele>
        <time>2018-08-26T10:18:57Z</time>
      </trkpt>
      <trkpt lat="45.93974" lon="4.72397">
        <ele>171</ele>
        <time>2018-08-26T10:18:58Z</time>
      </trkpt>
      <trkpt lat="45.93971" lon="4.72403">
        <ele>171</ele>
        <time>2018-08-26T10:18:59Z</time>
      </trkpt>
      <trkpt lat="45.93967" lon="4.72408">
        <ele>171</ele>
        <time>2018-08-26T10:19:00Z</time>
      </trkpt>
      <trkpt lat="45.93962" lon="4.72412">
        <ele>171</ele>
        <time>2018-08-26T10:19:01Z</time>
      </trkpt>
      <trkpt lat="45.93959" lon="4.72417">
        <ele>171</ele>
        <time>2018-08-26T10:19:02Z</time>
      </trkpt>
      <trkpt lat="45.93957" lon="4.72426">
        <ele>171</ele>
        <time>2018-08-26T10:19:03Z</time>
      </trkpt>
      <trkpt lat="45.93953" lon="4.72431">
        <ele>171</ele>
        <time>2018-08-26T10:19:04Z</time>
      </trkpt>
      <trkpt lat="45.93949" lon="4.72436">
        <ele>171</ele>
        <time>2018-08-26T10:19:05Z</time>
      </trkpt>
      <trkpt lat="45.93945" lon="4.7244">
        <ele>171</ele>
        <time>2018-08-26T10:19:06Z</time>
      </trkpt>
      <trkpt lat="45.93941" lon="4.7244">
        <ele>171</ele>
        <time>2018-08-26T10:19:07Z</time>
      </trkpt>
      <trkpt lat="45.93937" lon="4.72445">
        <ele>171</ele>
        <time>2018-08-26T10:19:08Z</time>
      </trkpt>
      <trkpt lat="45.93933" lon="4.7245">
        <ele>171</ele>
        <time>2018-08-26T10:19:09Z</time>
      </trkpt>
      <trkpt lat="45.93929" lon="4.72455">
        <ele>171</ele>
        <time>2018-08-26T10:19:10Z</time>
      </trkpt>
      <trkpt lat="45.93925" lon="4.72458">
        <ele>171</ele>
        <time>2018-08-26T10:19:11Z</time>
      </trkpt>
      <trkpt lat="45.93921" lon="4.72462">
        <ele>171</ele>
        <time>2018-08-26T10:19:12Z</time>
      </trkpt>
      <trkpt lat="45.93914" lon="4.7247">
        <ele>172</ele>
        <time>2018-08-26T10:19:14Z</time>
      </trkpt>
      <trkpt lat="45.93911" lon="4.72477">
        <ele>172</ele>
        <time>2018-08-26T10:19:15Z</time>
      </trkpt>
      <trkpt lat="45.93907" lon="4.72481">
        <ele>172</ele>
        <time>2018-08-26T10:19:16Z</time>
      </trkpt>
      <trkpt lat="45.93904" lon="4.72487">
        <ele>172</ele>
        <time>2018-08-26T10:19:17Z</time>
      </trkpt>
      <trkpt lat="45.93901" lon="4.72491">
        <ele>172</ele>
        <time>2018-08-26T10:19:18Z</time>
      </trkpt>
      <trkpt lat="45.93896" lon="4.72495">
        <ele>172</ele>
        <time>2018-08-26T10:19:19Z</time>
      </trkpt>
      <trkpt lat="45.93891" lon="4.72505">
        <ele>173</ele>
        <time>2018-08-26T10:19:21Z</time>
      </trkpt>
      <trkpt lat="45.93889" lon="4.72513">
        <ele>173</ele>
        <time>2018-08-26T10:19:22Z</time>
      </trkpt>
      <trkpt lat="45.93881" lon="4.72517">
        <ele>173</ele>
        <time>2018-08-26T10:19:24Z</time>
      </trkpt>
      <trkpt lat="45.93877" lon="4.72516">
        <ele>173</ele>
        <time>2018-08-26T10:19:25Z</time>
      </trkpt>
      <trkpt lat="45.93872" lon="4.72517">
        <ele>173</ele>
        <time>2018-08-26T10:19:26Z</time>
      </trkpt>
      <trkpt lat="45.93868" lon="4.72516">
        <ele>173</ele>
        <time>2018-08-26T10:19:27Z</time>
      </trkpt>
      <trkpt lat="45.93863" lon="4.72513">
        <ele>173</ele>
        <time>2018-08-26T10:19:28Z</time>
      </trkpt>
      <trkpt lat="45.93859" lon="4.7251">
        <ele>173</ele>
        <time>2018-08-26T10:19:29Z</time>
      </trkpt>
      <trkpt lat="45.93854" lon="4.72508">
        <ele>173</ele>
        <time>2018-08-26T10:19:30Z</time>
      </trkpt>
      <trkpt lat="45.93834" lon="4.72494">
        <ele>174</ele>
        <time>2018-08-26T10:19:35Z</time>
      </trkpt>
      <trkpt lat="45.93831" lon="4.72467">
        <ele>172</ele>
        <time>2018-08-26T10:19:36Z</time>
      </trkpt>
      <trkpt lat="45.93826" lon="4.72465">
        <ele>172</ele>
        <time>2018-08-26T10:19:37Z</time>
      </trkpt>
      <trkpt lat="45.9382" lon="4.72463">
        <ele>172</ele>
        <time>2018-08-26T10:19:38Z</time>
      </trkpt>
      <trkpt lat="45.93815" lon="4.72456">
        <ele>172</ele>
        <time>2018-08-26T10:19:39Z</time>
      </trkpt>
      <trkpt lat="45.93811" lon="4.72452">
        <ele>172</ele>
        <time>2018-08-26T10:19:40Z</time>
      </trkpt>
      <trkpt lat="45.93807" lon="4.72446">
        <ele>172</ele>
        <time>2018-08-26T10:19:41Z</time>
      </trkpt>
      <trkpt lat="45.93801" lon="4.72446">
        <ele>172</ele>
        <time>2018-08-26T10:19:42Z</time>
      </trkpt>
      <trkpt lat="45.93797" lon="4.72441">
        <ele>172</ele>
        <time>2018-08-26T10:19:43Z</time>
      </trkpt>
      <trkpt lat="45.93791" lon="4.72439">
        <ele>172</ele>
        <time>2018-08-26T10:19:44Z</time>
      </trkpt>
      <trkpt lat="45.93784" lon="4.72432">
        <ele>172</ele>
        <time>2018-08-26T10:19:47Z</time>
      </trkpt>
      <trkpt lat="45.93779" lon="4.72429">
        <ele>172</ele>
        <time>2018-08-26T10:19:48Z</time>
      </trkpt>
      <trkpt lat="45.93776" lon="4.72426">
        <ele>171</ele>
        <time>2018-08-26T10:19:49Z</time>
      </trkpt>
      <trkpt lat="45.93771" lon="4.72422">
        <ele>171</ele>
        <time>2018-08-26T10:19:50Z</time>
      </trkpt>
      <trkpt lat="45.93764" lon="4.72415">
        <ele>171</ele>
        <time>2018-08-26T10:19:52Z</time>
      </trkpt>
      <trkpt lat="45.9376" lon="4.7241">
        <ele>171</ele>
        <time>2018-08-26T10:19:53Z</time>
      </trkpt>
      <trkpt lat="45.93752" lon="4.72404">
        <ele>171</ele>
        <time>2018-08-26T10:19:55Z</time>
      </trkpt>
      <trkpt lat="45.9375" lon="4.724">
        <ele>171</ele>
        <time>2018-08-26T10:19:56Z</time>
      </trkpt>
      <trkpt lat="45.93743" lon="4.72397">
        <ele>171</ele>
        <time>2018-08-26T10:19:57Z</time>
      </trkpt>
      <trkpt lat="45.9374" lon="4.72395">
        <ele>171</ele>
        <time>2018-08-26T10:19:58Z</time>
      </trkpt>
      <trkpt lat="45.93735" lon="4.72391">
        <ele>171</ele>
        <time>2018-08-26T10:20:00Z</time>
      </trkpt>
      <trkpt lat="45.9373" lon="4.72387">
        <ele>171</ele>
        <time>2018-08-26T10:20:01Z</time>
      </trkpt>
      <trkpt lat="45.93724" lon="4.72379">
        <ele>171</ele>
        <time>2018-08-26T10:20:03Z</time>
      </trkpt>
      <trkpt lat="45.93723" lon="4.72377">
        <ele>171</ele>
        <time>2018-08-26T10:20:04Z</time>
      </trkpt>
      <trkpt lat="45.93717" lon="4.7237">
        <ele>172</ele>
        <time>2018-08-26T10:20:07Z</time>
      </trkpt>
      <trkpt lat="45.93715" lon="4.72368">
        <ele>172</ele>
        <time>2018-08-26T10:20:08Z</time>
      </trkpt>
      <trkpt lat="45.93712" lon="4.72366">
        <ele>172</ele>
        <time>2018-08-26T10:20:09Z</time>
      </trkpt>
      <trkpt lat="45.93704" lon="4.72359">
        <ele>171</ele>
        <time>2018-08-26T10:20:10Z</time>
      </trkpt>
      <trkpt lat="45.93697" lon="4.72355">
        <ele>171</ele>
        <time>2018-08-26T10:20:12Z</time>
      </trkpt>
      <trkpt lat="45.93691" lon="4.72352">
        <ele>171</ele>
        <time>2018-08-26T10:20:13Z</time>
      </trkpt>
      <trkpt lat="45.93682" lon="4.72346">
        <ele>171</ele>
        <time>2018-08-26T10:20:14Z</time>
      </trkpt>
      <trkpt lat="45.93675" lon="4.7234">
        <ele>171</ele>
        <time>2018-08-26T10:20:16Z</time>
      </trkpt>
      <trkpt lat="45.93671" lon="4.72336">
        <ele>171</ele>
        <time>2018-08-26T10:20:17Z</time>
      </trkpt>
      <trkpt lat="45.93665" lon="4.72331">
        <ele>171</ele>
        <time>2018-08-26T10:20:18Z</time>
      </trkpt>
      <trkpt lat="45.93662" lon="4.72326">
        <ele>171</ele>
        <time>2018-08-26T10:20:19Z</time>
      </trkpt>
      <trkpt lat="45.93658" lon="4.72322">
        <ele>172</ele>
        <time>2018-08-26T10:20:21Z</time>
      </trkpt>
      <trkpt lat="45.93654" lon="4.72317">
        <ele>172</ele>
        <time>2018-08-26T10:20:22Z</time>
      </trkpt>
      <trkpt lat="45.93649" lon="4.72311">
        <ele>172</ele>
        <time>2018-08-26T10:20:23Z</time>
      </trkpt>
      <trkpt lat="45.93645" lon="4.72306">
        <ele>172</ele>
        <time>2018-08-26T10:20:24Z</time>
      </trkpt>
      <trkpt lat="45.93641" lon="4.72301">
        <ele>172</ele>
        <time>2018-08-26T10:20:25Z</time>
      </trkpt>
      <trkpt lat="45.93638" lon="4.72298">
        <ele>172</ele>
        <time>2018-08-26T10:20:26Z</time>
      </trkpt>
      <trkpt lat="45.93635" lon="4.72292">
        <ele>172</ele>
        <time>2018-08-26T10:20:27Z</time>
      </trkpt>
      <trkpt lat="45.93631" lon="4.72287">
        <ele>172</ele>
        <time>2018-08-26T10:20:28Z</time>
      </trkpt>
      <trkpt lat="45.93627" lon="4.72284">
        <ele>172</ele>
        <time>2018-08-26T10:20:29Z</time>
      </trkpt>
      <trkpt lat="45.93624" lon="4.72278">
        <ele>172</ele>
        <time>2018-08-26T10:20:30Z</time>
      </trkpt>
      <trkpt lat="45.93617" lon="4.72273">
        <ele>172</ele>
        <time>2018-08-26T10:20:32Z</time>
      </trkpt>
      <trkpt lat="45.93614" lon="4.72269">
        <ele>172</ele>
        <time>2018-08-26T10:20:33Z</time>
      </trkpt>
      <trkpt lat="45.93607" lon="4.72265">
        <ele>173</ele>
        <time>2018-08-26T10:20:35Z</time>
      </trkpt>
      <trkpt lat="45.93604" lon="4.72261">
        <ele>173</ele>
        <time>2018-08-26T10:20:36Z</time>
      </trkpt>
      <trkpt lat="45.93597" lon="4.72254">
        <ele>173</ele>
        <time>2018-08-26T10:20:38Z</time>
      </trkpt>
      <trkpt lat="45.93594" lon="4.7225">
        <ele>173</ele>
        <time>2018-08-26T10:20:39Z</time>
      </trkpt>
      <trkpt lat="45.93591" lon="4.72248">
        <ele>173</ele>
        <time>2018-08-26T10:20:40Z</time>
      </trkpt>
      <trkpt lat="45.93586" lon="4.72243">
        <ele>173</ele>
        <time>2018-08-26T10:20:41Z</time>
      </trkpt>
      <trkpt lat="45.93582" lon="4.72239">
        <ele>173</ele>
        <time>2018-08-26T10:20:42Z</time>
      </trkpt>
      <trkpt lat="45.93577" lon="4.72236">
        <ele>173</ele>
        <time>2018-08-26T10:20:43Z</time>
      </trkpt>
      <trkpt lat="45.9357" lon="4.7223">
        <ele>173</ele>
        <time>2018-08-26T10:20:45Z</time>
      </trkpt>
      <trkpt lat="45.93569" lon="4.7223">
        <ele>173</ele>
        <time>2018-08-26T10:20:46Z</time>
      </trkpt>
      <trkpt lat="45.93563" lon="4.72222">
        <ele>173</ele>
        <time>2018-08-26T10:20:57Z</time>
      </trkpt>
      <trkpt lat="45.93562" lon="4.72221">
        <ele>173</ele>
        <time>2018-08-26T10:20:58Z</time>
      </trkpt>
      <trkpt lat="45.93554" lon="4.72218">
        <ele>173</ele>
        <time>2018-08-26T10:21:02Z</time>
      </trkpt>
      <trkpt lat="45.93552" lon="4.72219">
        <ele>173</ele>
        <time>2018-08-26T10:21:03Z</time>
      </trkpt>
      <trkpt lat="45.93547" lon="4.72225">
        <ele>172</ele>
        <time>2018-08-26T10:21:06Z</time>
      </trkpt>
      <trkpt lat="45.93545" lon="4.72228">
        <ele>172</ele>
        <time>2018-08-26T10:21:07Z</time>
      </trkpt>
      <trkpt lat="45.9354" lon="4.72238">
        <ele>172</ele>
        <time>2018-08-26T10:21:10Z</time>
      </trkpt>
      <trkpt lat="45.93539" lon="4.72241">
        <ele>172</ele>
        <time>2018-08-26T10:21:11Z</time>
      </trkpt>
      <trkpt lat="45.93535" lon="4.72248">
        <ele>172</ele>
        <time>2018-08-26T10:21:13Z</time>
      </trkpt>
      <trkpt lat="45.93534" lon="4.72252">
        <ele>172</ele>
        <time>2018-08-26T10:21:14Z</time>
      </trkpt>
      <trkpt lat="45.93529" lon="4.72265">
        <ele>172</ele>
        <time>2018-08-26T10:21:15Z</time>
      </trkpt>
      <trkpt lat="45.93525" lon="4.72274">
        <ele>172</ele>
        <time>2018-08-26T10:21:17Z</time>
      </trkpt>
      <trkpt lat="45.93523" lon="4.72279">
        <ele>172</ele>
        <time>2018-08-26T10:21:18Z</time>
      </trkpt>
      <trkpt lat="45.93519" lon="4.72289">
        <ele>172</ele>
        <time>2018-08-26T10:21:20Z</time>
      </trkpt>
      <trkpt lat="45.93517" lon="4.72294">
        <ele>172</ele>
        <time>2018-08-26T10:21:21Z</time>
      </trkpt>
      <trkpt lat="45.93514" lon="4.72299">
        <ele>172</ele>
        <time>2018-08-26T10:21:22Z</time>
      </trkpt>
      <trkpt lat="45.93511" lon="4.72305">
        <ele>173</ele>
        <time>2018-08-26T10:21:23Z</time>
      </trkpt>
      <trkpt lat="45.93507" lon="4.72312">
        <ele>173</ele>
        <time>2018-08-26T10:21:24Z</time>
      </trkpt>
      <trkpt lat="45.93504" lon="4.72318">
        <ele>173</ele>
        <time>2018-08-26T10:21:25Z</time>
      </trkpt>
      <trkpt lat="45.93499" lon="4.72323">
        <ele>173</ele>
        <time>2018-08-26T10:21:26Z</time>
      </trkpt>
      <trkpt lat="45.93495" lon="4.72328">
        <ele>173</ele>
        <time>2018-08-26T10:21:27Z</time>
      </trkpt>
      <trkpt lat="45.93491" lon="4.72335">
        <ele>173</ele>
        <time>2018-08-26T10:21:28Z</time>
      </trkpt>
      <trkpt lat="45.93486" lon="4.72341">
        <ele>173</ele>
        <time>2018-08-26T10:21:29Z</time>
      </trkpt>
      <trkpt lat="45.93482" lon="4.72346">
        <ele>173</ele>
        <time>2018-08-26T10:21:30Z</time>
      </trkpt>
      <trkpt lat="45.93478" lon="4.72352">
        <ele>173</ele>
        <time>2018-08-26T10:21:31Z</time>
      </trkpt>
      <trkpt lat="45.93474" lon="4.72358">
        <ele>173</ele>
        <time>2018-08-26T10:21:32Z</time>
      </trkpt>
      <trkpt lat="45.9347" lon="4.72364">
        <ele>173</ele>
        <time>2018-08-26T10:21:33Z</time>
      </trkpt>
      <trkpt lat="45.93465" lon="4.72369">
        <ele>173</ele>
        <time>2018-08-26T10:21:34Z</time>
      </trkpt>
      <trkpt lat="45.93462" lon="4.72374">
        <ele>173</ele>
        <time>2018-08-26T10:21:35Z</time>
      </trkpt>
      <trkpt lat="45.93456" lon="4.72378">
        <ele>173</ele>
        <time>2018-08-26T10:21:36Z</time>
      </trkpt>
      <trkpt lat="45.93451" lon="4.72383">
        <ele>173</ele>
        <time>2018-08-26T10:21:37Z</time>
      </trkpt>
      <trkpt lat="45.93446" lon="4.72386">
        <ele>173</ele>
        <time>2018-08-26T10:21:38Z</time>
      </trkpt>
      <trkpt lat="45.93443" lon="4.72389">
        <ele>173</ele>
        <time>2018-08-26T10:21:39Z</time>
      </trkpt>
      <trkpt lat="45.93439" lon="4.72393">
        <ele>173</ele>
        <time>2018-08-26T10:21:40Z</time>
      </trkpt>
      <trkpt lat="45.93433" lon="4.72396">
        <ele>173</ele>
        <time>2018-08-26T10:21:41Z</time>
      </trkpt>
      <trkpt lat="45.93428" lon="4.72399">
        <ele>174</ele>
        <time>2018-08-26T10:21:42Z</time>
      </trkpt>
      <trkpt lat="45.93423" lon="4.72401">
        <ele>174</ele>
        <time>2018-08-26T10:21:43Z</time>
      </trkpt>
      <trkpt lat="45.93419" lon="4.72402">
        <ele>174</ele>
        <time>2018-08-26T10:21:44Z</time>
      </trkpt>
      <trkpt lat="45.93412" lon="4.72403">
        <ele>174</ele>
        <time>2018-08-26T10:21:45Z</time>
      </trkpt>
      <trkpt lat="45.93408" lon="4.72403">
        <ele>174</ele>
        <time>2018-08-26T10:21:46Z</time>
      </trkpt>
      <trkpt lat="45.93403" lon="4.72402">
        <ele>174</ele>
        <time>2018-08-26T10:21:47Z</time>
      </trkpt>
      <trkpt lat="45.93398" lon="4.72402">
        <ele>174</ele>
        <time>2018-08-26T10:21:48Z</time>
      </trkpt>
      <trkpt lat="45.93394" lon="4.72406">
        <ele>174</ele>
        <time>2018-08-26T10:21:49Z</time>
      </trkpt>
      <trkpt lat="45.93389" lon="4.7241">
        <ele>174</ele>
        <time>2018-08-26T10:21:50Z</time>
      </trkpt>
      <trkpt lat="45.93387" lon="4.72416">
        <ele>174</ele>
        <time>2018-08-26T10:21:51Z</time>
      </trkpt>
      <trkpt lat="45.93386" lon="4.72423">
        <ele>173</ele>
        <time>2018-08-26T10:21:52Z</time>
      </trkpt>
      <trkpt lat="45.93387" lon="4.72431">
        <ele>173</ele>
        <time>2018-08-26T10:21:53Z</time>
      </trkpt>
      <trkpt lat="45.9339" lon="4.72438">
        <ele>173</ele>
        <time>2018-08-26T10:21:54Z</time>
      </trkpt>
      <trkpt lat="45.93392" lon="4.72442">
        <ele>173</ele>
        <time>2018-08-26T10:21:55Z</time>
      </trkpt>
      <trkpt lat="45.93393" lon="4.72448">
        <ele>173</ele>
        <time>2018-08-26T10:21:56Z</time>
      </trkpt>
      <trkpt lat="45.93393" lon="4.72456">
        <ele>173</ele>
        <time>2018-08-26T10:21:57Z</time>
      </trkpt>
      <trkpt lat="45.93388" lon="4.72466">
        <ele>173</ele>
        <time>2018-08-26T10:21:59Z</time>
      </trkpt>
      <trkpt lat="45.93384" lon="4.72472">
        <ele>173</ele>
        <time>2018-08-26T10:22:00Z</time>
      </trkpt>
      <trkpt lat="45.93379" lon="4.72477">
        <ele>173</ele>
        <time>2018-08-26T10:22:01Z</time>
      </trkpt>
      <trkpt lat="45.93374" lon="4.72482">
        <ele>173</ele>
        <time>2018-08-26T10:22:02Z</time>
      </trkpt>
      <trkpt lat="45.9337" lon="4.72486">
        <ele>173</ele>
        <time>2018-08-26T10:22:03Z</time>
      </trkpt>
      <trkpt lat="45.93367" lon="4.72493">
        <ele>173</ele>
        <time>2018-08-26T10:22:04Z</time>
      </trkpt>
      <trkpt lat="45.93362" lon="4.72497">
        <ele>173</ele>
        <time>2018-08-26T10:22:05Z</time>
      </trkpt>
      <trkpt lat="45.93359" lon="4.72501">
        <ele>172</ele>
        <time>2018-08-26T10:22:06Z</time>
      </trkpt>
      <trkpt lat="45.93354" lon="4.72505">
        <ele>172</ele>
        <time>2018-08-26T10:22:07Z</time>
      </trkpt>
      <trkpt lat="45.93352" lon="4.72509">
        <ele>172</ele>
        <time>2018-08-26T10:22:08Z</time>
      </trkpt>
      <trkpt lat="45.93347" lon="4.72515">
        <ele>172</ele>
        <time>2018-08-26T10:22:09Z</time>
      </trkpt>
      <trkpt lat="45.93344" lon="4.72519">
        <ele>172</ele>
        <time>2018-08-26T10:22:10Z</time>
      </trkpt>
      <trkpt lat="45.93338" lon="4.72525">
        <ele>172</ele>
        <time>2018-08-26T10:22:11Z</time>
      </trkpt>
      <trkpt lat="45.93333" lon="4.7253">
        <ele>172</ele>
        <time>2018-08-26T10:22:12Z</time>
      </trkpt>
      <trkpt lat="45.93329" lon="4.72538">
        <ele>172</ele>
        <time>2018-08-26T10:22:13Z</time>
      </trkpt>
      <trkpt lat="45.93324" lon="4.72544">
        <ele>172</ele>
        <time>2018-08-26T10:22:14Z</time>
      </trkpt>
      <trkpt lat="45.9332" lon="4.72548">
        <ele>172</ele>
        <time>2018-08-26T10:22:15Z</time>
      </trkpt>
      <trkpt lat="45.93316" lon="4.72553">
        <ele>172</ele>
        <time>2018-08-26T10:22:16Z</time>
      </trkpt>
      <trkpt lat="45.93311" lon="4.72558">
        <ele>172</ele>
        <time>2018-08-26T10:22:17Z</time>
      </trkpt>
      <trkpt lat="45.93306" lon="4.72562">
        <ele>172</ele>
        <time>2018-08-26T10:22:18Z</time>
      </trkpt>
      <trkpt lat="45.93302" lon="4.72569">
        <ele>171</ele>
        <time>2018-08-26T10:22:19Z</time>
      </trkpt>
      <trkpt lat="45.93296" lon="4.72574">
        <ele>171</ele>
        <time>2018-08-26T10:22:20Z</time>
      </trkpt>
      <trkpt lat="45.93292" lon="4.72579">
        <ele>171</ele>
        <time>2018-08-26T10:22:21Z</time>
      </trkpt>
      <trkpt lat="45.93288" lon="4.72587">
        <ele>170</ele>
        <time>2018-08-26T10:22:22Z</time>
      </trkpt>
      <trkpt lat="45.93284" lon="4.72591">
        <ele>170</ele>
        <time>2018-08-26T10:22:23Z</time>
      </trkpt>
      <trkpt lat="45.9328" lon="4.72594">
        <ele>170</ele>
        <time>2018-08-26T10:22:24Z</time>
      </trkpt>
      <trkpt lat="45.93275" lon="4.726">
        <ele>170</ele>
        <time>2018-08-26T10:22:25Z</time>
      </trkpt>
      <trkpt lat="45.9327" lon="4.72604">
        <ele>170</ele>
        <time>2018-08-26T10:22:26Z</time>
      </trkpt>
      <trkpt lat="45.93266" lon="4.7261">
        <ele>170</ele>
        <time>2018-08-26T10:22:27Z</time>
      </trkpt>
      <trkpt lat="45.93261" lon="4.72615">
        <ele>170</ele>
        <time>2018-08-26T10:22:28Z</time>
      </trkpt>
      <trkpt lat="45.93255" lon="4.72621">
        <ele>170</ele>
        <time>2018-08-26T10:22:29Z</time>
      </trkpt>
      <trkpt lat="45.9325" lon="4.72626">
        <ele>170</ele>
        <time>2018-08-26T10:22:30Z</time>
      </trkpt>
      <trkpt lat="45.93245" lon="4.72633">
        <ele>170</ele>
        <time>2018-08-26T10:22:31Z</time>
      </trkpt>
      <trkpt lat="45.9324" lon="4.72639">
        <ele>170</ele>
        <time>2018-08-26T10:22:32Z</time>
      </trkpt>
      <trkpt lat="45.93235" lon="4.72644">
        <ele>170</ele>
        <time>2018-08-26T10:22:33Z</time>
      </trkpt>
      <trkpt lat="45.93232" lon="4.72654">
        <ele>170</ele>
        <time>2018-08-26T10:22:34Z</time>
      </trkpt>
      <trkpt lat="45.93228" lon="4.72659">
        <ele>170</ele>
        <time>2018-08-26T10:22:35Z</time>
      </trkpt>
      <trkpt lat="45.93224" lon="4.72664">
        <ele>170</ele>
        <time>2018-08-26T10:22:36Z</time>
      </trkpt>
      <trkpt lat="45.93218" lon="4.7267">
        <ele>169</ele>
        <time>2018-08-26T10:22:37Z</time>
      </trkpt>
      <trkpt lat="45.93213" lon="4.72676">
        <ele>169</ele>
        <time>2018-08-26T10:22:38Z</time>
      </trkpt>
      <trkpt lat="45.93208" lon="4.72682">
        <ele>169</ele>
        <time>2018-08-26T10:22:39Z</time>
      </trkpt>
      <trkpt lat="45.93203" lon="4.72688">
        <ele>169</ele>
        <time>2018-08-26T10:22:40Z</time>
      </trkpt>
      <trkpt lat="45.93197" lon="4.72693">
        <ele>169</ele>
        <time>2018-08-26T10:22:41Z</time>
      </trkpt>
      <trkpt lat="45.93192" lon="4.72699">
        <ele>169</ele>
        <time>2018-08-26T10:22:42Z</time>
      </trkpt>
      <trkpt lat="45.93188" lon="4.72705">
        <ele>169</ele>
        <time>2018-08-26T10:22:43Z</time>
      </trkpt>
      <trkpt lat="45.93183" lon="4.72711">
        <ele>169</ele>
        <time>2018-08-26T10:22:44Z</time>
      </trkpt>
      <trkpt lat="45.9318" lon="4.72717">
        <ele>169</ele>
        <time>2018-08-26T10:22:45Z</time>
      </trkpt>
      <trkpt lat="45.93175" lon="4.72722">
        <ele>170</ele>
        <time>2018-08-26T10:22:46Z</time>
      </trkpt>
      <trkpt lat="45.9317" lon="4.72726">
        <ele>170</ele>
        <time>2018-08-26T10:22:47Z</time>
      </trkpt>
      <trkpt lat="45.93165" lon="4.7273">
        <ele>170</ele>
        <time>2018-08-26T10:22:48Z</time>
      </trkpt>
      <trkpt lat="45.9316" lon="4.72734">
        <ele>170</ele>
        <time>2018-08-26T10:22:49Z</time>
      </trkpt>
      <trkpt lat="45.93155" lon="4.7274">
        <ele>170</ele>
        <time>2018-08-26T10:22:50Z</time>
      </trkpt>
      <trkpt lat="45.93151" lon="4.72743">
        <ele>170</ele>
        <time>2018-08-26T10:22:51Z</time>
      </trkpt>
      <trkpt lat="45.93147" lon="4.72746">
        <ele>170</ele>
        <time>2018-08-26T10:22:52Z</time>
      </trkpt>
      <trkpt lat="45.93143" lon="4.72752">
        <ele>171</ele>
        <time>2018-08-26T10:22:53Z</time>
      </trkpt>
      <trkpt lat="45.93138" lon="4.72758">
        <ele>171</ele>
        <time>2018-08-26T10:22:54Z</time>
      </trkpt>
      <trkpt lat="45.93135" lon="4.72763">
        <ele>171</ele>
        <time>2018-08-26T10:22:55Z</time>
      </trkpt>
      <trkpt lat="45.93133" lon="4.72771">
        <ele>171</ele>
        <time>2018-08-26T10:22:56Z</time>
      </trkpt>
      <trkpt lat="45.93128" lon="4.72778">
        <ele>171</ele>
        <time>2018-08-26T10:22:57Z</time>
      </trkpt>
      <trkpt lat="45.93123" lon="4.72784">
        <ele>171</ele>
        <time>2018-08-26T10:22:58Z</time>
      </trkpt>
      <trkpt lat="45.93118" lon="4.72791">
        <ele>171</ele>
        <time>2018-08-26T10:22:59Z</time>
      </trkpt>
      <trkpt lat="45.93114" lon="4.72797">
        <ele>171</ele>
        <time>2018-08-26T10:23:00Z</time>
      </trkpt>
      <trkpt lat="45.93109" lon="4.72804">
        <ele>171</ele>
        <time>2018-08-26T10:23:01Z</time>
      </trkpt>
      <trkpt lat="45.93104" lon="4.72809">
        <ele>171</ele>
        <time>2018-08-26T10:23:02Z</time>
      </trkpt>
      <trkpt lat="45.93099" lon="4.72813">
        <ele>172</ele>
        <time>2018-08-26T10:23:03Z</time>
      </trkpt>
      <trkpt lat="45.93094" lon="4.72818">
        <ele>172</ele>
        <time>2018-08-26T10:23:04Z</time>
      </trkpt>
      <trkpt lat="45.93089" lon="4.72824">
        <ele>172</ele>
        <time>2018-08-26T10:23:05Z</time>
      </trkpt>
      <trkpt lat="45.93085" lon="4.72828">
        <ele>173</ele>
        <time>2018-08-26T10:23:06Z</time>
      </trkpt>
      <trkpt lat="45.9308" lon="4.72832">
        <ele>173</ele>
        <time>2018-08-26T10:23:07Z</time>
      </trkpt>
      <trkpt lat="45.93077" lon="4.72837">
        <ele>173</ele>
        <time>2018-08-26T10:23:08Z</time>
      </trkpt>
      <trkpt lat="45.93073" lon="4.72841">
        <ele>173</ele>
        <time>2018-08-26T10:23:09Z</time>
      </trkpt>
      <trkpt lat="45.93069" lon="4.72846">
        <ele>172</ele>
        <time>2018-08-26T10:23:10Z</time>
      </trkpt>
      <trkpt lat="45.93065" lon="4.72848">
        <ele>172</ele>
        <time>2018-08-26T10:23:11Z</time>
      </trkpt>
      <trkpt lat="45.93056" lon="4.72851">
        <ele>172</ele>
        <time>2018-08-26T10:23:12Z</time>
      </trkpt>
      <trkpt lat="45.93049" lon="4.7286">
        <ele>172</ele>
        <time>2018-08-26T10:23:13Z</time>
      </trkpt>
      <trkpt lat="45.93043" lon="4.72868">
        <ele>172</ele>
        <time>2018-08-26T10:23:14Z</time>
      </trkpt>
      <trkpt lat="45.93038" lon="4.72875">
        <ele>172</ele>
        <time>2018-08-26T10:23:15Z</time>
      </trkpt>
      <trkpt lat="45.93033" lon="4.72882">
        <ele>172</ele>
        <time>2018-08-26T10:23:16Z</time>
      </trkpt>
      <trkpt lat="45.93029" lon="4.72889">
        <ele>172</ele>
        <time>2018-08-26T10:23:17Z</time>
      </trkpt>
      <trkpt lat="45.93025" lon="4.72891">
        <ele>172</ele>
        <time>2018-08-26T10:23:18Z</time>
      </trkpt>
      <trkpt lat="45.9302" lon="4.72896">
        <ele>172</ele>
        <time>2018-08-26T10:23:19Z</time>
      </trkpt>
      <trkpt lat="45.93016" lon="4.729">
        <ele>172</ele>
        <time>2018-08-26T10:23:20Z</time>
      </trkpt>
      <trkpt lat="45.93012" lon="4.72904">
        <ele>172</ele>
        <time>2018-08-26T10:23:21Z</time>
      </trkpt>
      <trkpt lat="45.93008" lon="4.72909">
        <ele>171</ele>
        <time>2018-08-26T10:23:22Z</time>
      </trkpt>
      <trkpt lat="45.93003" lon="4.72914">
        <ele>171</ele>
        <time>2018-08-26T10:23:23Z</time>
      </trkpt>
      <trkpt lat="45.92999" lon="4.72923">
        <ele>171</ele>
        <time>2018-08-26T10:23:24Z</time>
      </trkpt>
      <trkpt lat="45.92994" lon="4.72927">
        <ele>171</ele>
        <time>2018-08-26T10:23:25Z</time>
      </trkpt>
      <trkpt lat="45.9299" lon="4.72933">
        <ele>171</ele>
        <time>2018-08-26T10:23:26Z</time>
      </trkpt>
      <trkpt lat="45.92985" lon="4.72938">
        <ele>171</ele>
        <time>2018-08-26T10:23:27Z</time>
      </trkpt>
      <trkpt lat="45.9298" lon="4.72943">
        <ele>171</ele>
        <time>2018-08-26T10:23:28Z</time>
      </trkpt>
      <trkpt lat="45.92976" lon="4.72949">
        <ele>171</ele>
        <time>2018-08-26T10:23:29Z</time>
      </trkpt>
      <trkpt lat="45.92972" lon="4.72955">
        <ele>171</ele>
        <time>2018-08-26T10:23:30Z</time>
      </trkpt>
      <trkpt lat="45.92968" lon="4.72959">
        <ele>171</ele>
        <time>2018-08-26T10:23:31Z</time>
      </trkpt>
      <trkpt lat="45.92963" lon="4.72965">
        <ele>171</ele>
        <time>2018-08-26T10:23:32Z</time>
      </trkpt>
      <trkpt lat="45.92959" lon="4.72969">
        <ele>171</ele>
        <time>2018-08-26T10:23:33Z</time>
      </trkpt>
      <trkpt lat="45.92954" lon="4.72972">
        <ele>171</ele>
        <time>2018-08-26T10:23:34Z</time>
      </trkpt>
      <trkpt lat="45.9295" lon="4.72976">
        <ele>171</ele>
        <time>2018-08-26T10:23:35Z</time>
      </trkpt>
      <trkpt lat="45.92945" lon="4.72981">
        <ele>171</ele>
        <time>2018-08-26T10:23:36Z</time>
      </trkpt>
      <trkpt lat="45.92943" lon="4.72987">
        <ele>171</ele>
        <time>2018-08-26T10:23:37Z</time>
      </trkpt>
      <trkpt lat="45.92939" lon="4.72993">
        <ele>171</ele>
        <time>2018-08-26T10:23:38Z</time>
      </trkpt>
      <trkpt lat="45.92934" lon="4.72997">
        <ele>172</ele>
        <time>2018-08-26T10:23:39Z</time>
      </trkpt>
      <trkpt lat="45.9293" lon="4.73003">
        <ele>172</ele>
        <time>2018-08-26T10:23:40Z</time>
      </trkpt>
      <trkpt lat="45.92925" lon="4.73007">
        <ele>172</ele>
        <time>2018-08-26T10:23:41Z</time>
      </trkpt>
      <trkpt lat="45.9292" lon="4.7301">
        <ele>172</ele>
        <time>2018-08-26T10:23:42Z</time>
      </trkpt>
      <trkpt lat="45.92917" lon="4.73018">
        <ele>172</ele>
        <time>2018-08-26T10:23:43Z</time>
      </trkpt>
      <trkpt lat="45.92912" lon="4.73024">
        <ele>172</ele>
        <time>2018-08-26T10:23:44Z</time>
      </trkpt>
      <trkpt lat="45.92908" lon="4.73032">
        <ele>172</ele>
        <time>2018-08-26T10:23:45Z</time>
      </trkpt>
      <trkpt lat="45.92904" lon="4.73039">
        <ele>172</ele>
        <time>2018-08-26T10:23:46Z</time>
      </trkpt>
      <trkpt lat="45.92901" lon="4.73043">
        <ele>172</ele>
        <time>2018-08-26T10:23:47Z</time>
      </trkpt>
      <trkpt lat="45.92897" lon="4.7305">
        <ele>172</ele>
        <time>2018-08-26T10:23:48Z</time>
      </trkpt>
      <trkpt lat="45.92894" lon="4.73054">
        <ele>172</ele>
        <time>2018-08-26T10:23:49Z</time>
      </trkpt>
      <trkpt lat="45.9289" lon="4.73059">
        <ele>172</ele>
        <time>2018-08-26T10:23:50Z</time>
      </trkpt>
      <trkpt lat="45.92887" lon="4.73065">
        <ele>172</ele>
        <time>2018-08-26T10:23:51Z</time>
      </trkpt>
      <trkpt lat="45.92884" lon="4.7307">
        <ele>172</ele>
        <time>2018-08-26T10:23:52Z</time>
      </trkpt>
      <trkpt lat="45.9288" lon="4.73075">
        <ele>172</ele>
        <time>2018-08-26T10:23:53Z</time>
      </trkpt>
      <trkpt lat="45.92876" lon="4.73079">
        <ele>172</ele>
        <time>2018-08-26T10:23:54Z</time>
      </trkpt>
      <trkpt lat="45.92873" lon="4.73084">
        <ele>172</ele>
        <time>2018-08-26T10:23:55Z</time>
      </trkpt>
      <trkpt lat="45.9287" lon="4.73089">
        <ele>172</ele>
        <time>2018-08-26T10:23:56Z</time>
      </trkpt>
      <trkpt lat="45.92867" lon="4.73095">
        <ele>172</ele>
        <time>2018-08-26T10:23:57Z</time>
      </trkpt>
      <trkpt lat="45.92859" lon="4.73101">
        <ele>171</ele>
        <time>2018-08-26T10:23:59Z</time>
      </trkpt>
      <trkpt lat="45.92856" lon="4.73103">
        <ele>171</ele>
        <time>2018-08-26T10:24:00Z</time>
      </trkpt>
      <trkpt lat="45.92849" lon="4.73098">
        <ele>171</ele>
        <time>2018-08-26T10:24:02Z</time>
      </trkpt>
      <trkpt lat="45.92848" lon="4.73093">
        <ele>171</ele>
        <time>2018-08-26T10:24:03Z</time>
      </trkpt>
      <trkpt lat="45.92848" lon="4.73086">
        <ele>171</ele>
        <time>2018-08-26T10:24:04Z</time>
      </trkpt>
      <trkpt lat="45.92848" lon="4.7308">
        <ele>171</ele>
        <time>2018-08-26T10:24:05Z</time>
      </trkpt>
      <trkpt lat="45.92847" lon="4.73073">
        <ele>171</ele>
        <time>2018-08-26T10:24:06Z</time>
      </trkpt>
      <trkpt lat="45.92845" lon="4.73067">
        <ele>171</ele>
        <time>2018-08-26T10:24:07Z</time>
      </trkpt>
      <trkpt lat="45.92844" lon="4.7306">
        <ele>171</ele>
        <time>2018-08-26T10:24:08Z</time>
      </trkpt>
      <trkpt lat="45.92843" lon="4.73053">
        <ele>171</ele>
        <time>2018-08-26T10:24:09Z</time>
      </trkpt>
      <trkpt lat="45.92841" lon="4.73043">
        <ele>171</ele>
        <time>2018-08-26T10:24:10Z</time>
      </trkpt>
      <trkpt lat="45.92839" lon="4.73037">
        <ele>171</ele>
        <time>2018-08-26T10:24:11Z</time>
      </trkpt>
      <trkpt lat="45.92838" lon="4.73025">
        <ele>171</ele>
        <time>2018-08-26T10:24:13Z</time>
      </trkpt>
      <trkpt lat="45.92838" lon="4.73019">
        <ele>171</ele>
        <time>2018-08-26T10:24:14Z</time>
      </trkpt>
      <trkpt lat="45.92836" lon="4.73007">
        <ele>170</ele>
        <time>2018-08-26T10:24:16Z</time>
      </trkpt>
      <trkpt lat="45.92834" lon="4.73">
        <ele>170</ele>
        <time>2018-08-26T10:24:17Z</time>
      </trkpt>
      <trkpt lat="45.92833" lon="4.72994">
        <ele>170</ele>
        <time>2018-08-26T10:24:18Z</time>
      </trkpt>
      <trkpt lat="45.92832" lon="4.72987">
        <ele>170</ele>
        <time>2018-08-26T10:24:19Z</time>
      </trkpt>
      <trkpt lat="45.92832" lon="4.7298">
        <ele>170</ele>
        <time>2018-08-26T10:24:20Z</time>
      </trkpt>
      <trkpt lat="45.92831" lon="4.72973">
        <ele>170</ele>
        <time>2018-08-26T10:24:21Z</time>
      </trkpt>
      <trkpt lat="45.9283" lon="4.72967">
        <ele>170</ele>
        <time>2018-08-26T10:24:22Z</time>
      </trkpt>
      <trkpt lat="45.92829" lon="4.7296">
        <ele>170</ele>
        <time>2018-08-26T10:24:23Z</time>
      </trkpt>
      <trkpt lat="45.92829" lon="4.72948">
        <ele>170</ele>
        <time>2018-08-26T10:24:25Z</time>
      </trkpt>
      <trkpt lat="45.92828" lon="4.72941">
        <ele>170</ele>
        <time>2018-08-26T10:24:26Z</time>
      </trkpt>
      <trkpt lat="45.92828" lon="4.72935">
        <ele>170</ele>
        <time>2018-08-26T10:24:27Z</time>
      </trkpt>
      <trkpt lat="45.92826" lon="4.72928">
        <ele>170</ele>
        <time>2018-08-26T10:24:28Z</time>
      </trkpt>
      <trkpt lat="45.92824" lon="4.72916">
        <ele>170</ele>
        <time>2018-08-26T10:24:30Z</time>
      </trkpt>
      <trkpt lat="45.92824" lon="4.7291">
        <ele>170</ele>
        <time>2018-08-26T10:24:31Z</time>
      </trkpt>
      <trkpt lat="45.92823" lon="4.72899">
        <ele>170</ele>
        <time>2018-08-26T10:24:33Z</time>
      </trkpt>
      <trkpt lat="45.92822" lon="4.72893">
        <ele>170</ele>
        <time>2018-08-26T10:24:34Z</time>
      </trkpt>
      <trkpt lat="45.92821" lon="4.72887">
        <ele>170</ele>
        <time>2018-08-26T10:24:35Z</time>
      </trkpt>
      <trkpt lat="45.9282" lon="4.7288">
        <ele>170</ele>
        <time>2018-08-26T10:24:36Z</time>
      </trkpt>
      <trkpt lat="45.92819" lon="4.72873">
        <ele>170</ele>
        <time>2018-08-26T10:24:37Z</time>
      </trkpt>
      <trkpt lat="45.92817" lon="4.72867">
        <ele>170</ele>
        <time>2018-08-26T10:24:38Z</time>
      </trkpt>
      <trkpt lat="45.92816" lon="4.7286">
        <ele>170</ele>
        <time>2018-08-26T10:24:39Z</time>
      </trkpt>
      <trkpt lat="45.92814" lon="4.72852">
        <ele>170</ele>
        <time>2018-08-26T10:24:40Z</time>
      </trkpt>
      <trkpt lat="45.92812" lon="4.72844">
        <ele>170</ele>
        <time>2018-08-26T10:24:41Z</time>
      </trkpt>
      <trkpt lat="45.9281" lon="4.72837">
        <ele>170</ele>
        <time>2018-08-26T10:24:42Z</time>
      </trkpt>
      <trkpt lat="45.92809" lon="4.72829">
        <ele>171</ele>
        <time>2018-08-26T10:24:43Z</time>
      </trkpt>
      <trkpt lat="45.92808" lon="4.72823">
        <ele>171</ele>
        <time>2018-08-26T10:24:44Z</time>
      </trkpt>
      <trkpt lat="45.92806" lon="4.7281">
        <ele>171</ele>
        <time>2018-08-26T10:24:46Z</time>
      </trkpt>
      <trkpt lat="45.92805" lon="4.72804">
        <ele>171</ele>
        <time>2018-08-26T10:24:47Z</time>
      </trkpt>
      <trkpt lat="45.92802" lon="4.72793">
        <ele>171</ele>
        <time>2018-08-26T10:24:49Z</time>
      </trkpt>
      <trkpt lat="45.92798" lon="4.72788">
        <ele>171</ele>
        <time>2018-08-26T10:24:50Z</time>
      </trkpt>
      <trkpt lat="45.92791" lon="4.72789">
        <ele>171</ele>
        <time>2018-08-26T10:24:52Z</time>
      </trkpt>
      <trkpt lat="45.92788" lon="4.72792">
        <ele>170</ele>
        <time>2018-08-26T10:24:53Z</time>
      </trkpt>
      <trkpt lat="45.9278" lon="4.72797">
        <ele>170</ele>
        <time>2018-08-26T10:24:55Z</time>
      </trkpt>
      <trkpt lat="45.92775" lon="4.72801">
        <ele>170</ele>
        <time>2018-08-26T10:24:56Z</time>
      </trkpt>
      <trkpt lat="45.92767" lon="4.72806">
        <ele>170</ele>
        <time>2018-08-26T10:24:58Z</time>
      </trkpt>
      <trkpt lat="45.92763" lon="4.7281">
        <ele>170</ele>
        <time>2018-08-26T10:24:59Z</time>
      </trkpt>
      <trkpt lat="45.92759" lon="4.72815">
        <ele>170</ele>
        <time>2018-08-26T10:25:00Z</time>
      </trkpt>
      <trkpt lat="45.92756" lon="4.72817">
        <ele>170</ele>
        <time>2018-08-26T10:25:01Z</time>
      </trkpt>
      <trkpt lat="45.92752" lon="4.72821">
        <ele>170</ele>
        <time>2018-08-26T10:25:02Z</time>
      </trkpt>
      <trkpt lat="45.92747" lon="4.72825">
        <ele>169</ele>
        <time>2018-08-26T10:25:03Z</time>
      </trkpt>
      <trkpt lat="45.92742" lon="4.72828">
        <ele>169</ele>
        <time>2018-08-26T10:25:04Z</time>
      </trkpt>
      <trkpt lat="45.92738" lon="4.72831">
        <ele>169</ele>
        <time>2018-08-26T10:25:05Z</time>
      </trkpt>
      <trkpt lat="45.92734" lon="4.72835">
        <ele>169</ele>
        <time>2018-08-26T10:25:06Z</time>
      </trkpt>
      <trkpt lat="45.9273" lon="4.72838">
        <ele>169</ele>
        <time>2018-08-26T10:25:07Z</time>
      </trkpt>
      <trkpt lat="45.92726" lon="4.72841">
        <ele>169</ele>
        <time>2018-08-26T10:25:08Z</time>
      </trkpt>
      <trkpt lat="45.92721" lon="4.72844">
        <ele>169</ele>
        <time>2018-08-26T10:25:09Z</time>
      </trkpt>
      <trkpt lat="45.92717" lon="4.72848">
        <ele>169</ele>
        <time>2018-08-26T10:25:10Z</time>
      </trkpt>
      <trkpt lat="45.92713" lon="4.72854">
        <ele>169</ele>
        <time>2018-08-26T10:25:11Z</time>
      </trkpt>
      <trkpt lat="45.92706" lon="4.72859">
        <ele>169</ele>
        <time>2018-08-26T10:25:13Z</time>
      </trkpt>
      <trkpt lat="45.92703" lon="4.72861">
        <ele>169</ele>
        <time>2018-08-26T10:25:14Z</time>
      </trkpt>
      <trkpt lat="45.92696" lon="4.72867">
        <ele>169</ele>
        <time>2018-08-26T10:25:16Z</time>
      </trkpt>
      <trkpt lat="45.92691" lon="4.72871">
        <ele>169</ele>
        <time>2018-08-26T10:25:17Z</time>
      </trkpt>
      <trkpt lat="45.92687" lon="4.72875">
        <ele>169</ele>
        <time>2018-08-26T10:25:18Z</time>
      </trkpt>
      <trkpt lat="45.92682" lon="4.72879">
        <ele>170</ele>
        <time>2018-08-26T10:25:19Z</time>
      </trkpt>
      <trkpt lat="45.92678" lon="4.72882">
        <ele>170</ele>
        <time>2018-08-26T10:25:20Z</time>
      </trkpt>
      <trkpt lat="45.92674" lon="4.72885">
        <ele>170</ele>
        <time>2018-08-26T10:25:21Z</time>
      </trkpt>
      <trkpt lat="45.92669" lon="4.72888">
        <ele>170</ele>
        <time>2018-08-26T10:25:22Z</time>
      </trkpt>
      <trkpt lat="45.92666" lon="4.72891">
        <ele>170</ele>
        <time>2018-08-26T10:25:23Z</time>
      </trkpt>
      <trkpt lat="45.92661" lon="4.72895">
        <ele>170</ele>
        <time>2018-08-26T10:25:24Z</time>
      </trkpt>
      <trkpt lat="45.92657" lon="4.72899">
        <ele>170</ele>
        <time>2018-08-26T10:25:25Z</time>
      </trkpt>
      <trkpt lat="45.92652" lon="4.72902">
        <ele>170</ele>
        <time>2018-08-26T10:25:26Z</time>
      </trkpt>
      <trkpt lat="45.92648" lon="4.72905">
        <ele>170</ele>
        <time>2018-08-26T10:25:27Z</time>
      </trkpt>
      <trkpt lat="45.92645" lon="4.72908">
        <ele>170</ele>
        <time>2018-08-26T10:25:28Z</time>
      </trkpt>
      <trkpt lat="45.9264" lon="4.72912">
        <ele>169</ele>
        <time>2018-08-26T10:25:29Z</time>
      </trkpt>
      <trkpt lat="45.92632" lon="4.72917">
        <ele>170</ele>
        <time>2018-08-26T10:25:31Z</time>
      </trkpt>
      <trkpt lat="45.92627" lon="4.72919">
        <ele>170</ele>
        <time>2018-08-26T10:25:32Z</time>
      </trkpt>
      <trkpt lat="45.92622" lon="4.72922">
        <ele>169</ele>
        <time>2018-08-26T10:25:33Z</time>
      </trkpt>
      <trkpt lat="45.92618" lon="4.72925">
        <ele>169</ele>
        <time>2018-08-26T10:25:34Z</time>
      </trkpt>
      <trkpt lat="45.92614" lon="4.7293">
        <ele>169</ele>
        <time>2018-08-26T10:25:35Z</time>
      </trkpt>
      <trkpt lat="45.92609" lon="4.72934">
        <ele>169</ele>
        <time>2018-08-26T10:25:36Z</time>
      </trkpt>
      <trkpt lat="45.92605" lon="4.7294">
        <ele>169</ele>
        <time>2018-08-26T10:25:37Z</time>
      </trkpt>
      <trkpt lat="45.926" lon="4.72945">
        <ele>169</ele>
        <time>2018-08-26T10:25:38Z</time>
      </trkpt>
      <trkpt lat="45.92595" lon="4.7295">
        <ele>169</ele>
        <time>2018-08-26T10:25:39Z</time>
      </trkpt>
      <trkpt lat="45.92591" lon="4.72956">
        <ele>169</ele>
        <time>2018-08-26T10:25:40Z</time>
      </trkpt>
      <trkpt lat="45.92586" lon="4.72962">
        <ele>169</ele>
        <time>2018-08-26T10:25:41Z</time>
      </trkpt>
      <trkpt lat="45.92581" lon="4.7297">
        <ele>169</ele>
        <time>2018-08-26T10:25:42Z</time>
      </trkpt>
      <trkpt lat="45.92577" lon="4.72974">
        <ele>169</ele>
        <time>2018-08-26T10:25:43Z</time>
      </trkpt>
      <trkpt lat="45.92572" lon="4.72979">
        <ele>169</ele>
        <time>2018-08-26T10:25:44Z</time>
      </trkpt>
      <trkpt lat="45.92567" lon="4.72983">
        <ele>169</ele>
        <time>2018-08-26T10:25:45Z</time>
      </trkpt>
      <trkpt lat="45.92562" lon="4.72981">
        <ele>169</ele>
        <time>2018-08-26T10:25:46Z</time>
      </trkpt>
      <trkpt lat="45.92558" lon="4.72983">
        <ele>169</ele>
        <time>2018-08-26T10:25:47Z</time>
      </trkpt>
      <trkpt lat="45.92554" lon="4.72987">
        <ele>169</ele>
        <time>2018-08-26T10:25:48Z</time>
      </trkpt>
      <trkpt lat="45.92549" lon="4.72992">
        <ele>169</ele>
        <time>2018-08-26T10:25:49Z</time>
      </trkpt>
      <trkpt lat="45.92545" lon="4.72994">
        <ele>169</ele>
        <time>2018-08-26T10:25:50Z</time>
      </trkpt>
      <trkpt lat="45.92542" lon="4.73003">
        <ele>169</ele>
        <time>2018-08-26T10:25:51Z</time>
      </trkpt>
      <trkpt lat="45.92538" lon="4.73006">
        <ele>169</ele>
        <time>2018-08-26T10:25:52Z</time>
      </trkpt>
      <trkpt lat="45.92535" lon="4.73012">
        <ele>169</ele>
        <time>2018-08-26T10:25:53Z</time>
      </trkpt>
      <trkpt lat="45.9253" lon="4.73016">
        <ele>169</ele>
        <time>2018-08-26T10:25:54Z</time>
      </trkpt>
      <trkpt lat="45.92526" lon="4.7302">
        <ele>169</ele>
        <time>2018-08-26T10:25:55Z</time>
      </trkpt>
      <trkpt lat="45.92522" lon="4.73025">
        <ele>169</ele>
        <time>2018-08-26T10:25:56Z</time>
      </trkpt>
      <trkpt lat="45.92519" lon="4.73029">
        <ele>169</ele>
        <time>2018-08-26T10:25:57Z</time>
      </trkpt>
      <trkpt lat="45.92514" lon="4.73033">
        <ele>169</ele>
        <time>2018-08-26T10:25:58Z</time>
      </trkpt>
      <trkpt lat="45.92511" lon="4.73035">
        <ele>169</ele>
        <time>2018-08-26T10:25:59Z</time>
      </trkpt>
      <trkpt lat="45.92506" lon="4.73038">
        <ele>169</ele>
        <time>2018-08-26T10:26:00Z</time>
      </trkpt>
      <trkpt lat="45.92501" lon="4.73042">
        <ele>170</ele>
        <time>2018-08-26T10:26:01Z</time>
      </trkpt>
      <trkpt lat="45.92498" lon="4.73046">
        <ele>170</ele>
        <time>2018-08-26T10:26:02Z</time>
      </trkpt>
      <trkpt lat="45.92494" lon="4.7305">
        <ele>170</ele>
        <time>2018-08-26T10:26:03Z</time>
      </trkpt>
      <trkpt lat="45.92491" lon="4.73056">
        <ele>170</ele>
        <time>2018-08-26T10:26:04Z</time>
      </trkpt>
      <trkpt lat="45.92486" lon="4.7306">
        <ele>170</ele>
        <time>2018-08-26T10:26:05Z</time>
      </trkpt>
      <trkpt lat="45.92481" lon="4.73063">
        <ele>170</ele>
        <time>2018-08-26T10:26:06Z</time>
      </trkpt>
      <trkpt lat="45.92476" lon="4.73067">
        <ele>170</ele>
        <time>2018-08-26T10:26:07Z</time>
      </trkpt>
      <trkpt lat="45.92471" lon="4.7307">
        <ele>170</ele>
        <time>2018-08-26T10:26:08Z</time>
      </trkpt>
      <trkpt lat="45.92467" lon="4.73073">
        <ele>170</ele>
        <time>2018-08-26T10:26:09Z</time>
      </trkpt>
      <trkpt lat="45.92462" lon="4.73077">
        <ele>170</ele>
        <time>2018-08-26T10:26:10Z</time>
      </trkpt>
      <trkpt lat="45.92457" lon="4.73081">
        <ele>170</ele>
        <time>2018-08-26T10:26:11Z</time>
      </trkpt>
      <trkpt lat="45.92452" lon="4.73086">
        <ele>170</ele>
        <time>2018-08-26T10:26:12Z</time>
      </trkpt>
      <trkpt lat="45.92447" lon="4.73088">
        <ele>170</ele>
        <time>2018-08-26T10:26:13Z</time>
      </trkpt>
      <trkpt lat="45.92444" lon="4.73096">
        <ele>170</ele>
        <time>2018-08-26T10:26:14Z</time>
      </trkpt>
      <trkpt lat="45.92439" lon="4.731">
        <ele>170</ele>
        <time>2018-08-26T10:26:15Z</time>
      </trkpt>
      <trkpt lat="45.92434" lon="4.73104">
        <ele>170</ele>
        <time>2018-08-26T10:26:16Z</time>
      </trkpt>
      <trkpt lat="45.92432" lon="4.73113">
        <ele>170</ele>
        <time>2018-08-26T10:26:17Z</time>
      </trkpt>
      <trkpt lat="45.92427" lon="4.73117">
        <ele>170</ele>
        <time>2018-08-26T10:26:18Z</time>
      </trkpt>
      <trkpt lat="45.92421" lon="4.73121">
        <ele>170</ele>
        <time>2018-08-26T10:26:19Z</time>
      </trkpt>
      <trkpt lat="45.92417" lon="4.73127">
        <ele>170</ele>
        <time>2018-08-26T10:26:20Z</time>
      </trkpt>
      <trkpt lat="45.92414" lon="4.73132">
        <ele>171</ele>
        <time>2018-08-26T10:26:21Z</time>
      </trkpt>
      <trkpt lat="45.92413" lon="4.73142">
        <ele>171</ele>
        <time>2018-08-26T10:26:22Z</time>
      </trkpt>
      <trkpt lat="45.92412" lon="4.73155">
        <ele>170</ele>
        <time>2018-08-26T10:26:24Z</time>
      </trkpt>
      <trkpt lat="45.92412" lon="4.7316">
        <ele>170</ele>
        <time>2018-08-26T10:26:25Z</time>
      </trkpt>
      <trkpt lat="45.92412" lon="4.73169">
        <ele>170</ele>
        <time>2018-08-26T10:26:26Z</time>
      </trkpt>
      <trkpt lat="45.92411" lon="4.73175">
        <ele>170</ele>
        <time>2018-08-26T10:26:27Z</time>
      </trkpt>
      <trkpt lat="45.92411" lon="4.73183">
        <ele>171</ele>
        <time>2018-08-26T10:26:28Z</time>
      </trkpt>
      <trkpt lat="45.92411" lon="4.73191">
        <ele>171</ele>
        <time>2018-08-26T10:26:29Z</time>
      </trkpt>
      <trkpt lat="45.92411" lon="4.73197">
        <ele>171</ele>
        <time>2018-08-26T10:26:30Z</time>
      </trkpt>
      <trkpt lat="45.9241" lon="4.73204">
        <ele>171</ele>
        <time>2018-08-26T10:26:31Z</time>
      </trkpt>
      <trkpt lat="45.9241" lon="4.73212">
        <ele>171</ele>
        <time>2018-08-26T10:26:32Z</time>
      </trkpt>
      <trkpt lat="45.92411" lon="4.7322">
        <ele>171</ele>
        <time>2018-08-26T10:26:33Z</time>
      </trkpt>
      <trkpt lat="45.92411" lon="4.73228">
        <ele>171</ele>
        <time>2018-08-26T10:26:34Z</time>
      </trkpt>
      <trkpt lat="45.9241" lon="4.73234">
        <ele>171</ele>
        <time>2018-08-26T10:26:35Z</time>
      </trkpt>
      <trkpt lat="45.9241" lon="4.73241">
        <ele>171</ele>
        <time>2018-08-26T10:26:36Z</time>
      </trkpt>
      <trkpt lat="45.9241" lon="4.73247">
        <ele>171</ele>
        <time>2018-08-26T10:26:37Z</time>
      </trkpt>
      <trkpt lat="45.9241" lon="4.73253">
        <ele>171</ele>
        <time>2018-08-26T10:26:38Z</time>
      </trkpt>
      <trkpt lat="45.92411" lon="4.73261">
        <ele>171</ele>
        <time>2018-08-26T10:26:39Z</time>
      </trkpt>
      <trkpt lat="45.92412" lon="4.73267">
        <ele>171</ele>
        <time>2018-08-26T10:26:40Z</time>
      </trkpt>
      <trkpt lat="45.92412" lon="4.73274">
        <ele>171</ele>
        <time>2018-08-26T10:26:41Z</time>
      </trkpt>
      <trkpt lat="45.92413" lon="4.73286">
        <ele>171</ele>
        <time>2018-08-26T10:26:43Z</time>
      </trkpt>
      <trkpt lat="45.92413" lon="4.73293">
        <ele>171</ele>
        <time>2018-08-26T10:26:44Z</time>
      </trkpt>
      <trkpt lat="45.92414" lon="4.733">
        <ele>171</ele>
        <time>2018-08-26T10:26:45Z</time>
      </trkpt>
      <trkpt lat="45.92414" lon="4.73307">
        <ele>171</ele>
        <time>2018-08-26T10:26:46Z</time>
      </trkpt>
      <trkpt lat="45.92414" lon="4.73319">
        <ele>171</ele>
        <time>2018-08-26T10:26:48Z</time>
      </trkpt>
      <trkpt lat="45.92415" lon="4.73325">
        <ele>171</ele>
        <time>2018-08-26T10:26:49Z</time>
      </trkpt>
      <trkpt lat="45.92415" lon="4.73333">
        <ele>171</ele>
        <time>2018-08-26T10:26:50Z</time>
      </trkpt>
      <trkpt lat="45.92416" lon="4.7334">
        <ele>171</ele>
        <time>2018-08-26T10:26:51Z</time>
      </trkpt>
      <trkpt lat="45.92417" lon="4.73347">
        <ele>171</ele>
        <time>2018-08-26T10:26:52Z</time>
      </trkpt>
      <trkpt lat="45.92418" lon="4.73354">
        <ele>171</ele>
        <time>2018-08-26T10:26:53Z</time>
      </trkpt>
      <trkpt lat="45.92419" lon="4.73362">
        <ele>172</ele>
        <time>2018-08-26T10:26:54Z</time>
      </trkpt>
      <trkpt lat="45.9242" lon="4.73369">
        <ele>172</ele>
        <time>2018-08-26T10:26:55Z</time>
      </trkpt>
      <trkpt lat="45.92422" lon="4.73375">
        <ele>172</ele>
        <time>2018-08-26T10:26:56Z</time>
      </trkpt>
      <trkpt lat="45.92422" lon="4.73382">
        <ele>172</ele>
        <time>2018-08-26T10:26:57Z</time>
      </trkpt>
      <trkpt lat="45.92425" lon="4.73393">
        <ele>172</ele>
        <time>2018-08-26T10:26:59Z</time>
      </trkpt>
      <trkpt lat="45.92427" lon="4.73397">
        <ele>172</ele>
        <time>2018-08-26T10:27:00Z</time>
      </trkpt>
      <trkpt lat="45.9243" lon="4.73403">
        <ele>172</ele>
        <time>2018-08-26T10:27:01Z</time>
      </trkpt>
      <trkpt lat="45.92434" lon="4.73408">
        <ele>172</ele>
        <time>2018-08-26T10:27:02Z</time>
      </trkpt>
      <trkpt lat="45.92438" lon="4.73412">
        <ele>172</ele>
        <time>2018-08-26T10:27:03Z</time>
      </trkpt>
      <trkpt lat="45.92442" lon="4.73415">
        <ele>172</ele>
        <time>2018-08-26T10:27:04Z</time>
      </trkpt>
      <trkpt lat="45.92447" lon="4.73417">
        <ele>173</ele>
        <time>2018-08-26T10:27:05Z</time>
      </trkpt>
      <trkpt lat="45.92451" lon="4.7342">
        <ele>173</ele>
        <time>2018-08-26T10:27:06Z</time>
      </trkpt>
      <trkpt lat="45.92456" lon="4.73423">
        <ele>173</ele>
        <time>2018-08-26T10:27:07Z</time>
      </trkpt>
      <trkpt lat="45.92459" lon="4.73428">
        <ele>173</ele>
        <time>2018-08-26T10:27:08Z</time>
      </trkpt>
      <trkpt lat="45.92463" lon="4.73433">
        <ele>173</ele>
        <time>2018-08-26T10:27:09Z</time>
      </trkpt>
      <trkpt lat="45.92465" lon="4.73439">
        <ele>173</ele>
        <time>2018-08-26T10:27:10Z</time>
      </trkpt>
      <trkpt lat="45.92467" lon="4.73447">
        <ele>173</ele>
        <time>2018-08-26T10:27:11Z</time>
      </trkpt>
      <trkpt lat="45.92468" lon="4.73452">
        <ele>173</ele>
        <time>2018-08-26T10:27:12Z</time>
      </trkpt>
      <trkpt lat="45.92469" lon="4.7346">
        <ele>173</ele>
        <time>2018-08-26T10:27:13Z</time>
      </trkpt>
      <trkpt lat="45.92469" lon="4.73467">
        <ele>173</ele>
        <time>2018-08-26T10:27:14Z</time>
      </trkpt>
      <trkpt lat="45.9247" lon="4.73478">
        <ele>173</ele>
        <time>2018-08-26T10:27:16Z</time>
      </trkpt>
      <trkpt lat="45.9247" lon="4.73485">
        <ele>173</ele>
        <time>2018-08-26T10:27:17Z</time>
      </trkpt>
      <trkpt lat="45.9247" lon="4.73498">
        <ele>173</ele>
        <time>2018-08-26T10:27:19Z</time>
      </trkpt>
      <trkpt lat="45.92469" lon="4.73505">
        <ele>174</ele>
        <time>2018-08-26T10:27:20Z</time>
      </trkpt>
      <trkpt lat="45.92468" lon="4.73511">
        <ele>174</ele>
        <time>2018-08-26T10:27:21Z</time>
      </trkpt>
      <trkpt lat="45.92469" lon="4.73518">
        <ele>174</ele>
        <time>2018-08-26T10:27:22Z</time>
      </trkpt>
      <trkpt lat="45.92469" lon="4.7353">
        <ele>174</ele>
        <time>2018-08-26T10:27:24Z</time>
      </trkpt>
      <trkpt lat="45.92469" lon="4.73537">
        <ele>174</ele>
        <time>2018-08-26T10:27:25Z</time>
      </trkpt>
      <trkpt lat="45.92468" lon="4.73544">
        <ele>173</ele>
        <time>2018-08-26T10:27:26Z</time>
      </trkpt>
      <trkpt lat="45.92468" lon="4.73551">
        <ele>173</ele>
        <time>2018-08-26T10:27:27Z</time>
      </trkpt>
      <trkpt lat="45.92469" lon="4.73559">
        <ele>173</ele>
        <time>2018-08-26T10:27:28Z</time>
      </trkpt>
      <trkpt lat="45.92469" lon="4.73567">
        <ele>173</ele>
        <time>2018-08-26T10:27:29Z</time>
      </trkpt>
      <trkpt lat="45.9247" lon="4.73575">
        <ele>173</ele>
        <time>2018-08-26T10:27:30Z</time>
      </trkpt>
      <trkpt lat="45.92469" lon="4.73583">
        <ele>173</ele>
        <time>2018-08-26T10:27:31Z</time>
      </trkpt>
      <trkpt lat="45.92471" lon="4.7359">
        <ele>174</ele>
        <time>2018-08-26T10:27:32Z</time>
      </trkpt>
      <trkpt lat="45.92471" lon="4.73598">
        <ele>174</ele>
        <time>2018-08-26T10:27:33Z</time>
      </trkpt>
      <trkpt lat="45.92472" lon="4.73607">
        <ele>174</ele>
        <time>2018-08-26T10:27:34Z</time>
      </trkpt>
      <trkpt lat="45.92473" lon="4.73614">
        <ele>174</ele>
        <time>2018-08-26T10:27:35Z</time>
      </trkpt>
      <trkpt lat="45.92473" lon="4.73622">
        <ele>174</ele>
        <time>2018-08-26T10:27:36Z</time>
      </trkpt>
      <trkpt lat="45.92473" lon="4.7363">
        <ele>174</ele>
        <time>2018-08-26T10:27:37Z</time>
      </trkpt>
      <trkpt lat="45.92473" lon="4.73638">
        <ele>174</ele>
        <time>2018-08-26T10:27:38Z</time>
      </trkpt>
      <trkpt lat="45.92473" lon="4.73646">
        <ele>174</ele>
        <time>2018-08-26T10:27:39Z</time>
      </trkpt>
      <trkpt lat="45.92473" lon="4.73653">
        <ele>174</ele>
        <time>2018-08-26T10:27:40Z</time>
      </trkpt>
      <trkpt lat="45.92472" lon="4.7366">
        <ele>174</ele>
        <time>2018-08-26T10:27:41Z</time>
      </trkpt>
      <trkpt lat="45.9247" lon="4.73667">
        <ele>174</ele>
        <time>2018-08-26T10:27:42Z</time>
      </trkpt>
      <trkpt lat="45.9247" lon="4.73674">
        <ele>174</ele>
        <time>2018-08-26T10:27:43Z</time>
      </trkpt>
      <trkpt lat="45.92469" lon="4.73682">
        <ele>174</ele>
        <time>2018-08-26T10:27:44Z</time>
      </trkpt>
      <trkpt lat="45.92468" lon="4.73688">
        <ele>174</ele>
        <time>2018-08-26T10:27:45Z</time>
      </trkpt>
      <trkpt lat="45.92465" lon="4.73699">
        <ele>174</ele>
        <time>2018-08-26T10:27:48Z</time>
      </trkpt>
      <trkpt lat="45.92464" lon="4.73702">
        <ele>174</ele>
        <time>2018-08-26T10:27:49Z</time>
      </trkpt>
      <trkpt lat="45.92464" lon="4.73707">
        <ele>174</ele>
        <time>2018-08-26T10:28:24.736Z</time>
      </trkpt>
    </trkseg>
  </trk>
</gpx>